<?xml version="1.0" encoding="UTF-8" standalone="no" ?>
<gpx xmlns="http://www.topografix.com/GPX/1/1" xmlns:xsi="http://www.w3.org/2001/XMLSchema-instance" xsi:schemaLocation="http://www.topografix.com/GPX/1/1 http://www.topografix.com/GPX/1/1/gpx.xsd" version="1.1" creator="VisuGPX - https://www.visugpx.com">
  <metadata>
    <name>Bugarach Course</name>
  </metadata>
  <trk>
    <name><![CDATA[Bugarach Course]]></name>
    <trkseg>
      <trkpt lat="42.87604" lon="2.35157">
        <ele>465</ele>
        <time>2023-09-09T09:02:19Z</time>
      </trkpt>
      <trkpt lat="42.87604" lon="2.35156">
        <ele>465</ele>
        <time>2023-09-09T09:02:20Z</time>
      </trkpt>
      <trkpt lat="42.87604" lon="2.35155">
        <ele>465</ele>
        <time>2023-09-09T09:02:21Z</time>
      </trkpt>
      <trkpt lat="42.87604" lon="2.35154">
        <ele>465</ele>
        <time>2023-09-09T09:02:22Z</time>
      </trkpt>
      <trkpt lat="42.87603" lon="2.35153">
        <ele>465</ele>
        <time>2023-09-09T09:02:23Z</time>
      </trkpt>
      <trkpt lat="42.87602" lon="2.35152">
        <ele>465</ele>
        <time>2023-09-09T09:02:24Z</time>
      </trkpt>
      <trkpt lat="42.87601" lon="2.35151">
        <ele>465</ele>
        <time>2023-09-09T09:02:25Z</time>
      </trkpt>
      <trkpt lat="42.876" lon="2.35152">
        <ele>465</ele>
        <time>2023-09-09T09:02:26Z</time>
      </trkpt>
      <trkpt lat="42.87598" lon="2.35152">
        <ele>465</ele>
        <time>2023-09-09T09:02:27Z</time>
      </trkpt>
      <trkpt lat="42.87597" lon="2.35153">
        <ele>465</ele>
        <time>2023-09-09T09:02:28Z</time>
      </trkpt>
      <trkpt lat="42.87596" lon="2.35155">
        <ele>465</ele>
        <time>2023-09-09T09:02:29Z</time>
      </trkpt>
      <trkpt lat="42.87594" lon="2.35156">
        <ele>465</ele>
        <time>2023-09-09T09:02:30Z</time>
      </trkpt>
      <trkpt lat="42.87593" lon="2.35158">
        <ele>465</ele>
        <time>2023-09-09T09:02:31Z</time>
      </trkpt>
      <trkpt lat="42.87591" lon="2.3516">
        <ele>465</ele>
        <time>2023-09-09T09:02:32Z</time>
      </trkpt>
      <trkpt lat="42.8759" lon="2.35162">
        <ele>465</ele>
        <time>2023-09-09T09:02:33Z</time>
      </trkpt>
      <trkpt lat="42.87588" lon="2.35164">
        <ele>465</ele>
        <time>2023-09-09T09:02:34Z</time>
      </trkpt>
      <trkpt lat="42.87586" lon="2.35166">
        <ele>465</ele>
        <time>2023-09-09T09:02:35Z</time>
      </trkpt>
      <trkpt lat="42.87584" lon="2.35168">
        <ele>465</ele>
        <time>2023-09-09T09:02:36Z</time>
      </trkpt>
      <trkpt lat="42.87582" lon="2.3517">
        <ele>465</ele>
        <time>2023-09-09T09:02:37Z</time>
      </trkpt>
      <trkpt lat="42.8758" lon="2.35171">
        <ele>465</ele>
        <time>2023-09-09T09:02:38Z</time>
      </trkpt>
      <trkpt lat="42.87578" lon="2.35173">
        <ele>465</ele>
        <time>2023-09-09T09:02:39Z</time>
      </trkpt>
      <trkpt lat="42.87576" lon="2.35174">
        <ele>465</ele>
        <time>2023-09-09T09:02:40Z</time>
      </trkpt>
      <trkpt lat="42.87574" lon="2.35176">
        <ele>465</ele>
        <time>2023-09-09T09:02:41Z</time>
      </trkpt>
      <trkpt lat="42.87573" lon="2.35178">
        <ele>465</ele>
        <time>2023-09-09T09:02:42Z</time>
      </trkpt>
      <trkpt lat="42.87571" lon="2.35179">
        <ele>465</ele>
        <time>2023-09-09T09:02:43Z</time>
      </trkpt>
      <trkpt lat="42.87569" lon="2.35181">
        <ele>465</ele>
        <time>2023-09-09T09:02:44Z</time>
      </trkpt>
      <trkpt lat="42.87567" lon="2.35183">
        <ele>465</ele>
        <time>2023-09-09T09:02:45Z</time>
      </trkpt>
      <trkpt lat="42.87565" lon="2.35184">
        <ele>465</ele>
        <time>2023-09-09T09:02:46Z</time>
      </trkpt>
      <trkpt lat="42.87563" lon="2.35186">
        <ele>465</ele>
        <time>2023-09-09T09:02:47Z</time>
      </trkpt>
      <trkpt lat="42.87561" lon="2.35188">
        <ele>464</ele>
        <time>2023-09-09T09:02:48Z</time>
      </trkpt>
      <trkpt lat="42.87559" lon="2.3519">
        <ele>464</ele>
        <time>2023-09-09T09:02:49Z</time>
      </trkpt>
      <trkpt lat="42.87558" lon="2.35192">
        <ele>464</ele>
        <time>2023-09-09T09:02:50Z</time>
      </trkpt>
      <trkpt lat="42.87556" lon="2.35194">
        <ele>464</ele>
        <time>2023-09-09T09:02:51Z</time>
      </trkpt>
      <trkpt lat="42.87554" lon="2.35196">
        <ele>464</ele>
        <time>2023-09-09T09:02:52Z</time>
      </trkpt>
      <trkpt lat="42.87552" lon="2.35198">
        <ele>464</ele>
        <time>2023-09-09T09:02:53Z</time>
      </trkpt>
      <trkpt lat="42.8755" lon="2.352">
        <ele>464</ele>
        <time>2023-09-09T09:02:54Z</time>
      </trkpt>
      <trkpt lat="42.87549" lon="2.35201">
        <ele>464</ele>
        <time>2023-09-09T09:02:55Z</time>
      </trkpt>
      <trkpt lat="42.87547" lon="2.35203">
        <ele>464</ele>
        <time>2023-09-09T09:02:56Z</time>
      </trkpt>
      <trkpt lat="42.87545" lon="2.35205">
        <ele>464</ele>
        <time>2023-09-09T09:02:57Z</time>
      </trkpt>
      <trkpt lat="42.87543" lon="2.35206">
        <ele>464</ele>
        <time>2023-09-09T09:02:58Z</time>
      </trkpt>
      <trkpt lat="42.87541" lon="2.35208">
        <ele>464</ele>
        <time>2023-09-09T09:02:59Z</time>
      </trkpt>
      <trkpt lat="42.87539" lon="2.3521">
        <ele>464</ele>
        <time>2023-09-09T09:03:00Z</time>
      </trkpt>
      <trkpt lat="42.87538" lon="2.35211">
        <ele>464</ele>
        <time>2023-09-09T09:03:01Z</time>
      </trkpt>
      <trkpt lat="42.87536" lon="2.35213">
        <ele>464</ele>
        <time>2023-09-09T09:03:02Z</time>
      </trkpt>
      <trkpt lat="42.87534" lon="2.35214">
        <ele>464</ele>
        <time>2023-09-09T09:03:03Z</time>
      </trkpt>
      <trkpt lat="42.87532" lon="2.35216">
        <ele>464</ele>
        <time>2023-09-09T09:03:04Z</time>
      </trkpt>
      <trkpt lat="42.8753" lon="2.35218">
        <ele>464</ele>
        <time>2023-09-09T09:03:05Z</time>
      </trkpt>
      <trkpt lat="42.87528" lon="2.3522">
        <ele>464</ele>
        <time>2023-09-09T09:03:06Z</time>
      </trkpt>
      <trkpt lat="42.87526" lon="2.35222">
        <ele>464</ele>
        <time>2023-09-09T09:03:07Z</time>
      </trkpt>
      <trkpt lat="42.87524" lon="2.35224">
        <ele>464</ele>
        <time>2023-09-09T09:03:08Z</time>
      </trkpt>
      <trkpt lat="42.87522" lon="2.35226">
        <ele>464</ele>
        <time>2023-09-09T09:03:09Z</time>
      </trkpt>
      <trkpt lat="42.8752" lon="2.35228">
        <ele>464</ele>
        <time>2023-09-09T09:03:10Z</time>
      </trkpt>
      <trkpt lat="42.87518" lon="2.3523">
        <ele>464</ele>
        <time>2023-09-09T09:03:11Z</time>
      </trkpt>
      <trkpt lat="42.87516" lon="2.35232">
        <ele>465</ele>
        <time>2023-09-09T09:03:12Z</time>
      </trkpt>
      <trkpt lat="42.87514" lon="2.35234">
        <ele>465</ele>
        <time>2023-09-09T09:03:13Z</time>
      </trkpt>
      <trkpt lat="42.87512" lon="2.35236">
        <ele>465</ele>
        <time>2023-09-09T09:03:14Z</time>
      </trkpt>
      <trkpt lat="42.87511" lon="2.35238">
        <ele>465</ele>
        <time>2023-09-09T09:03:15Z</time>
      </trkpt>
      <trkpt lat="42.87509" lon="2.3524">
        <ele>465</ele>
        <time>2023-09-09T09:03:16Z</time>
      </trkpt>
      <trkpt lat="42.87507" lon="2.35242">
        <ele>465</ele>
        <time>2023-09-09T09:03:17Z</time>
      </trkpt>
      <trkpt lat="42.87505" lon="2.35244">
        <ele>465</ele>
        <time>2023-09-09T09:03:18Z</time>
      </trkpt>
      <trkpt lat="42.87503" lon="2.35246">
        <ele>465</ele>
        <time>2023-09-09T09:03:19Z</time>
      </trkpt>
      <trkpt lat="42.87501" lon="2.35248">
        <ele>465</ele>
        <time>2023-09-09T09:03:20Z</time>
      </trkpt>
      <trkpt lat="42.87499" lon="2.3525">
        <ele>465</ele>
        <time>2023-09-09T09:03:21Z</time>
      </trkpt>
      <trkpt lat="42.87497" lon="2.35251">
        <ele>466</ele>
        <time>2023-09-09T09:03:22Z</time>
      </trkpt>
      <trkpt lat="42.87495" lon="2.35253">
        <ele>466</ele>
        <time>2023-09-09T09:03:23Z</time>
      </trkpt>
      <trkpt lat="42.87493" lon="2.35255">
        <ele>466</ele>
        <time>2023-09-09T09:03:24Z</time>
      </trkpt>
      <trkpt lat="42.87491" lon="2.35257">
        <ele>466</ele>
        <time>2023-09-09T09:03:25Z</time>
      </trkpt>
      <trkpt lat="42.87489" lon="2.35258">
        <ele>466</ele>
        <time>2023-09-09T09:03:26Z</time>
      </trkpt>
      <trkpt lat="42.87487" lon="2.3526">
        <ele>466</ele>
        <time>2023-09-09T09:03:27Z</time>
      </trkpt>
      <trkpt lat="42.87486" lon="2.35262">
        <ele>466</ele>
        <time>2023-09-09T09:03:28Z</time>
      </trkpt>
      <trkpt lat="42.87484" lon="2.35264">
        <ele>466</ele>
        <time>2023-09-09T09:03:29Z</time>
      </trkpt>
      <trkpt lat="42.87482" lon="2.35266">
        <ele>466</ele>
        <time>2023-09-09T09:03:30Z</time>
      </trkpt>
      <trkpt lat="42.8748" lon="2.35268">
        <ele>466</ele>
        <time>2023-09-09T09:03:31Z</time>
      </trkpt>
      <trkpt lat="42.87478" lon="2.35269">
        <ele>466</ele>
        <time>2023-09-09T09:03:32Z</time>
      </trkpt>
      <trkpt lat="42.87476" lon="2.35271">
        <ele>466</ele>
        <time>2023-09-09T09:03:33Z</time>
      </trkpt>
      <trkpt lat="42.87474" lon="2.35273">
        <ele>466</ele>
        <time>2023-09-09T09:03:34Z</time>
      </trkpt>
      <trkpt lat="42.87472" lon="2.35275">
        <ele>466</ele>
        <time>2023-09-09T09:03:35Z</time>
      </trkpt>
      <trkpt lat="42.8747" lon="2.35276">
        <ele>466</ele>
        <time>2023-09-09T09:03:36Z</time>
      </trkpt>
      <trkpt lat="42.87467" lon="2.35277">
        <ele>467</ele>
        <time>2023-09-09T09:03:37Z</time>
      </trkpt>
      <trkpt lat="42.87465" lon="2.35279">
        <ele>467</ele>
        <time>2023-09-09T09:03:38Z</time>
      </trkpt>
      <trkpt lat="42.87463" lon="2.3528">
        <ele>467</ele>
        <time>2023-09-09T09:03:39Z</time>
      </trkpt>
      <trkpt lat="42.87461" lon="2.35282">
        <ele>467</ele>
        <time>2023-09-09T09:03:40Z</time>
      </trkpt>
      <trkpt lat="42.87459" lon="2.35283">
        <ele>467</ele>
        <time>2023-09-09T09:03:41Z</time>
      </trkpt>
      <trkpt lat="42.87457" lon="2.35285">
        <ele>467</ele>
        <time>2023-09-09T09:03:42Z</time>
      </trkpt>
      <trkpt lat="42.87455" lon="2.35286">
        <ele>467</ele>
        <time>2023-09-09T09:03:43Z</time>
      </trkpt>
      <trkpt lat="42.87453" lon="2.35288">
        <ele>467</ele>
        <time>2023-09-09T09:03:44Z</time>
      </trkpt>
      <trkpt lat="42.87451" lon="2.3529">
        <ele>467</ele>
        <time>2023-09-09T09:03:45Z</time>
      </trkpt>
      <trkpt lat="42.8745" lon="2.35292">
        <ele>467</ele>
        <time>2023-09-09T09:03:46Z</time>
      </trkpt>
      <trkpt lat="42.87448" lon="2.35294">
        <ele>467</ele>
        <time>2023-09-09T09:03:47Z</time>
      </trkpt>
      <trkpt lat="42.87446" lon="2.35296">
        <ele>467</ele>
        <time>2023-09-09T09:03:48Z</time>
      </trkpt>
      <trkpt lat="42.87445" lon="2.35297">
        <ele>467</ele>
        <time>2023-09-09T09:03:49Z</time>
      </trkpt>
      <trkpt lat="42.87443" lon="2.35299">
        <ele>467</ele>
        <time>2023-09-09T09:03:50Z</time>
      </trkpt>
      <trkpt lat="42.87441" lon="2.35301">
        <ele>467</ele>
        <time>2023-09-09T09:03:51Z</time>
      </trkpt>
      <trkpt lat="42.8744" lon="2.35303">
        <ele>468</ele>
        <time>2023-09-09T09:03:52Z</time>
      </trkpt>
      <trkpt lat="42.87438" lon="2.35305">
        <ele>468</ele>
        <time>2023-09-09T09:03:53Z</time>
      </trkpt>
      <trkpt lat="42.87437" lon="2.35307">
        <ele>468</ele>
        <time>2023-09-09T09:03:54Z</time>
      </trkpt>
      <trkpt lat="42.87435" lon="2.3531">
        <ele>468</ele>
        <time>2023-09-09T09:03:55Z</time>
      </trkpt>
      <trkpt lat="42.87434" lon="2.35312">
        <ele>468</ele>
        <time>2023-09-09T09:03:56Z</time>
      </trkpt>
      <trkpt lat="42.87432" lon="2.35314">
        <ele>468</ele>
        <time>2023-09-09T09:03:57Z</time>
      </trkpt>
      <trkpt lat="42.87431" lon="2.35317">
        <ele>468</ele>
        <time>2023-09-09T09:03:58Z</time>
      </trkpt>
      <trkpt lat="42.87429" lon="2.35319">
        <ele>468</ele>
        <time>2023-09-09T09:03:59Z</time>
      </trkpt>
      <trkpt lat="42.87428" lon="2.35321">
        <ele>468</ele>
        <time>2023-09-09T09:04:00Z</time>
      </trkpt>
      <trkpt lat="42.87426" lon="2.35323">
        <ele>468</ele>
        <time>2023-09-09T09:04:01Z</time>
      </trkpt>
      <trkpt lat="42.87425" lon="2.35325">
        <ele>469</ele>
        <time>2023-09-09T09:04:02Z</time>
      </trkpt>
      <trkpt lat="42.87423" lon="2.35327">
        <ele>469</ele>
        <time>2023-09-09T09:04:03Z</time>
      </trkpt>
      <trkpt lat="42.87421" lon="2.35328">
        <ele>469</ele>
        <time>2023-09-09T09:04:04Z</time>
      </trkpt>
      <trkpt lat="42.87419" lon="2.35329">
        <ele>469</ele>
        <time>2023-09-09T09:04:05Z</time>
      </trkpt>
      <trkpt lat="42.87418" lon="2.3533">
        <ele>469</ele>
        <time>2023-09-09T09:04:06Z</time>
      </trkpt>
      <trkpt lat="42.87416" lon="2.35331">
        <ele>469</ele>
        <time>2023-09-09T09:04:07Z</time>
      </trkpt>
      <trkpt lat="42.87414" lon="2.35332">
        <ele>469</ele>
        <time>2023-09-09T09:04:08Z</time>
      </trkpt>
      <trkpt lat="42.87412" lon="2.35333">
        <ele>469</ele>
        <time>2023-09-09T09:04:09Z</time>
      </trkpt>
      <trkpt lat="42.8741" lon="2.35334">
        <ele>469</ele>
        <time>2023-09-09T09:04:10Z</time>
      </trkpt>
      <trkpt lat="42.87408" lon="2.35335">
        <ele>469</ele>
        <time>2023-09-09T09:04:11Z</time>
      </trkpt>
      <trkpt lat="42.87406" lon="2.35336">
        <ele>470</ele>
        <time>2023-09-09T09:04:12Z</time>
      </trkpt>
      <trkpt lat="42.87404" lon="2.35337">
        <ele>470</ele>
        <time>2023-09-09T09:04:13Z</time>
      </trkpt>
      <trkpt lat="42.87402" lon="2.35339">
        <ele>470</ele>
        <time>2023-09-09T09:04:14Z</time>
      </trkpt>
      <trkpt lat="42.87401" lon="2.3534">
        <ele>470</ele>
        <time>2023-09-09T09:04:15Z</time>
      </trkpt>
      <trkpt lat="42.87399" lon="2.35341">
        <ele>470</ele>
        <time>2023-09-09T09:04:16Z</time>
      </trkpt>
      <trkpt lat="42.87397" lon="2.35342">
        <ele>471</ele>
        <time>2023-09-09T09:04:17Z</time>
      </trkpt>
      <trkpt lat="42.87395" lon="2.35343">
        <ele>471</ele>
        <time>2023-09-09T09:04:18Z</time>
      </trkpt>
      <trkpt lat="42.87394" lon="2.35344">
        <ele>471</ele>
        <time>2023-09-09T09:04:19Z</time>
      </trkpt>
      <trkpt lat="42.87392" lon="2.35345">
        <ele>471</ele>
        <time>2023-09-09T09:04:20Z</time>
      </trkpt>
      <trkpt lat="42.8739" lon="2.35346">
        <ele>471</ele>
        <time>2023-09-09T09:04:21Z</time>
      </trkpt>
      <trkpt lat="42.87389" lon="2.35348">
        <ele>471</ele>
        <time>2023-09-09T09:04:22Z</time>
      </trkpt>
      <trkpt lat="42.87387" lon="2.35349">
        <ele>471</ele>
        <time>2023-09-09T09:04:23Z</time>
      </trkpt>
      <trkpt lat="42.87385" lon="2.3535">
        <ele>471</ele>
        <time>2023-09-09T09:04:24Z</time>
      </trkpt>
      <trkpt lat="42.87383" lon="2.35352">
        <ele>471</ele>
        <time>2023-09-09T09:04:25Z</time>
      </trkpt>
      <trkpt lat="42.87381" lon="2.35353">
        <ele>471</ele>
        <time>2023-09-09T09:04:26Z</time>
      </trkpt>
      <trkpt lat="42.87379" lon="2.35355">
        <ele>472</ele>
        <time>2023-09-09T09:04:27Z</time>
      </trkpt>
      <trkpt lat="42.87377" lon="2.35356">
        <ele>472</ele>
        <time>2023-09-09T09:04:28Z</time>
      </trkpt>
      <trkpt lat="42.87376" lon="2.35358">
        <ele>472</ele>
        <time>2023-09-09T09:04:29Z</time>
      </trkpt>
      <trkpt lat="42.87374" lon="2.35359">
        <ele>472</ele>
        <time>2023-09-09T09:04:30Z</time>
      </trkpt>
      <trkpt lat="42.87372" lon="2.3536">
        <ele>472</ele>
        <time>2023-09-09T09:04:31Z</time>
      </trkpt>
      <trkpt lat="42.8737" lon="2.35361">
        <ele>472</ele>
        <time>2023-09-09T09:04:32Z</time>
      </trkpt>
      <trkpt lat="42.87368" lon="2.35362">
        <ele>472</ele>
        <time>2023-09-09T09:04:33Z</time>
      </trkpt>
      <trkpt lat="42.87366" lon="2.35363">
        <ele>472</ele>
        <time>2023-09-09T09:04:34Z</time>
      </trkpt>
      <trkpt lat="42.87364" lon="2.35364">
        <ele>472</ele>
        <time>2023-09-09T09:04:35Z</time>
      </trkpt>
      <trkpt lat="42.87362" lon="2.35365">
        <ele>472</ele>
        <time>2023-09-09T09:04:36Z</time>
      </trkpt>
      <trkpt lat="42.8736" lon="2.35366">
        <ele>473</ele>
        <time>2023-09-09T09:04:37Z</time>
      </trkpt>
      <trkpt lat="42.87358" lon="2.35367">
        <ele>473</ele>
        <time>2023-09-09T09:04:38Z</time>
      </trkpt>
      <trkpt lat="42.87356" lon="2.35368">
        <ele>473</ele>
        <time>2023-09-09T09:04:39Z</time>
      </trkpt>
      <trkpt lat="42.87355" lon="2.35369">
        <ele>473</ele>
        <time>2023-09-09T09:04:40Z</time>
      </trkpt>
      <trkpt lat="42.87353" lon="2.3537">
        <ele>473</ele>
        <time>2023-09-09T09:04:41Z</time>
      </trkpt>
      <trkpt lat="42.87351" lon="2.35371">
        <ele>473</ele>
        <time>2023-09-09T09:04:42Z</time>
      </trkpt>
      <trkpt lat="42.87349" lon="2.35373">
        <ele>473</ele>
        <time>2023-09-09T09:04:43Z</time>
      </trkpt>
      <trkpt lat="42.87347" lon="2.35374">
        <ele>473</ele>
        <time>2023-09-09T09:04:44Z</time>
      </trkpt>
      <trkpt lat="42.87345" lon="2.35375">
        <ele>473</ele>
        <time>2023-09-09T09:04:45Z</time>
      </trkpt>
      <trkpt lat="42.87343" lon="2.35376">
        <ele>473</ele>
        <time>2023-09-09T09:04:46Z</time>
      </trkpt>
      <trkpt lat="42.87342" lon="2.35377">
        <ele>474</ele>
        <time>2023-09-09T09:04:47Z</time>
      </trkpt>
      <trkpt lat="42.8734" lon="2.35379">
        <ele>474</ele>
        <time>2023-09-09T09:04:48Z</time>
      </trkpt>
      <trkpt lat="42.87338" lon="2.3538">
        <ele>474</ele>
        <time>2023-09-09T09:04:49Z</time>
      </trkpt>
      <trkpt lat="42.87336" lon="2.35382">
        <ele>474</ele>
        <time>2023-09-09T09:04:50Z</time>
      </trkpt>
      <trkpt lat="42.87335" lon="2.35383">
        <ele>474</ele>
        <time>2023-09-09T09:04:51Z</time>
      </trkpt>
      <trkpt lat="42.87333" lon="2.35384">
        <ele>474</ele>
        <time>2023-09-09T09:04:52Z</time>
      </trkpt>
      <trkpt lat="42.87331" lon="2.35385">
        <ele>474</ele>
        <time>2023-09-09T09:04:53Z</time>
      </trkpt>
      <trkpt lat="42.8733" lon="2.35386">
        <ele>474</ele>
        <time>2023-09-09T09:04:54Z</time>
      </trkpt>
      <trkpt lat="42.87328" lon="2.35387">
        <ele>474</ele>
        <time>2023-09-09T09:04:55Z</time>
      </trkpt>
      <trkpt lat="42.87326" lon="2.35388">
        <ele>474</ele>
        <time>2023-09-09T09:04:56Z</time>
      </trkpt>
      <trkpt lat="42.87325" lon="2.35389">
        <ele>474</ele>
        <time>2023-09-09T09:04:57Z</time>
      </trkpt>
      <trkpt lat="42.87323" lon="2.3539">
        <ele>474</ele>
        <time>2023-09-09T09:04:58Z</time>
      </trkpt>
      <trkpt lat="42.87321" lon="2.3539">
        <ele>474</ele>
        <time>2023-09-09T09:04:59Z</time>
      </trkpt>
      <trkpt lat="42.8732" lon="2.35391">
        <ele>474</ele>
        <time>2023-09-09T09:05:00Z</time>
      </trkpt>
      <trkpt lat="42.87318" lon="2.35393">
        <ele>474</ele>
        <time>2023-09-09T09:05:01Z</time>
      </trkpt>
      <trkpt lat="42.87316" lon="2.35394">
        <ele>475</ele>
        <time>2023-09-09T09:05:02Z</time>
      </trkpt>
      <trkpt lat="42.87314" lon="2.35395">
        <ele>475</ele>
        <time>2023-09-09T09:05:03Z</time>
      </trkpt>
      <trkpt lat="42.87312" lon="2.35396">
        <ele>475</ele>
        <time>2023-09-09T09:05:04Z</time>
      </trkpt>
      <trkpt lat="42.8731" lon="2.35397">
        <ele>475</ele>
        <time>2023-09-09T09:05:05Z</time>
      </trkpt>
      <trkpt lat="42.87308" lon="2.35398">
        <ele>475</ele>
        <time>2023-09-09T09:05:06Z</time>
      </trkpt>
      <trkpt lat="42.87306" lon="2.35398">
        <ele>475</ele>
        <time>2023-09-09T09:05:07Z</time>
      </trkpt>
      <trkpt lat="42.87304" lon="2.35399">
        <ele>475</ele>
        <time>2023-09-09T09:05:08Z</time>
      </trkpt>
      <trkpt lat="42.87303" lon="2.354">
        <ele>475</ele>
        <time>2023-09-09T09:05:09Z</time>
      </trkpt>
      <trkpt lat="42.87301" lon="2.354">
        <ele>475</ele>
        <time>2023-09-09T09:05:10Z</time>
      </trkpt>
      <trkpt lat="42.87299" lon="2.35401">
        <ele>475</ele>
        <time>2023-09-09T09:05:11Z</time>
      </trkpt>
      <trkpt lat="42.87297" lon="2.35402">
        <ele>475</ele>
        <time>2023-09-09T09:05:12Z</time>
      </trkpt>
      <trkpt lat="42.87295" lon="2.35402">
        <ele>475</ele>
        <time>2023-09-09T09:05:13Z</time>
      </trkpt>
      <trkpt lat="42.87293" lon="2.35402">
        <ele>475</ele>
        <time>2023-09-09T09:05:14Z</time>
      </trkpt>
      <trkpt lat="42.87292" lon="2.35403">
        <ele>475</ele>
        <time>2023-09-09T09:05:15Z</time>
      </trkpt>
      <trkpt lat="42.8729" lon="2.35403">
        <ele>475</ele>
        <time>2023-09-09T09:05:16Z</time>
      </trkpt>
      <trkpt lat="42.87288" lon="2.35403">
        <ele>476</ele>
        <time>2023-09-09T09:05:17Z</time>
      </trkpt>
      <trkpt lat="42.87286" lon="2.35403">
        <ele>476</ele>
        <time>2023-09-09T09:05:18Z</time>
      </trkpt>
      <trkpt lat="42.87284" lon="2.35403">
        <ele>476</ele>
        <time>2023-09-09T09:05:19Z</time>
      </trkpt>
      <trkpt lat="42.87282" lon="2.35403">
        <ele>476</ele>
        <time>2023-09-09T09:05:20Z</time>
      </trkpt>
      <trkpt lat="42.87281" lon="2.35403">
        <ele>476</ele>
        <time>2023-09-09T09:05:21Z</time>
      </trkpt>
      <trkpt lat="42.87279" lon="2.35404">
        <ele>476</ele>
        <time>2023-09-09T09:05:22Z</time>
      </trkpt>
      <trkpt lat="42.87277" lon="2.35404">
        <ele>476</ele>
        <time>2023-09-09T09:05:23Z</time>
      </trkpt>
      <trkpt lat="42.87275" lon="2.35404">
        <ele>476</ele>
        <time>2023-09-09T09:05:24Z</time>
      </trkpt>
      <trkpt lat="42.87274" lon="2.35404">
        <ele>476</ele>
        <time>2023-09-09T09:05:25Z</time>
      </trkpt>
      <trkpt lat="42.87272" lon="2.35404">
        <ele>476</ele>
        <time>2023-09-09T09:05:26Z</time>
      </trkpt>
      <trkpt lat="42.8727" lon="2.35404">
        <ele>476</ele>
        <time>2023-09-09T09:05:27Z</time>
      </trkpt>
      <trkpt lat="42.87267" lon="2.35404">
        <ele>476</ele>
        <time>2023-09-09T09:05:28Z</time>
      </trkpt>
      <trkpt lat="42.87265" lon="2.35404">
        <ele>476</ele>
        <time>2023-09-09T09:05:29Z</time>
      </trkpt>
      <trkpt lat="42.87263" lon="2.35405">
        <ele>476</ele>
        <time>2023-09-09T09:05:30Z</time>
      </trkpt>
      <trkpt lat="42.87261" lon="2.35405">
        <ele>476</ele>
        <time>2023-09-09T09:05:31Z</time>
      </trkpt>
      <trkpt lat="42.87259" lon="2.35406">
        <ele>476</ele>
        <time>2023-09-09T09:05:32Z</time>
      </trkpt>
      <trkpt lat="42.87257" lon="2.35406">
        <ele>475</ele>
        <time>2023-09-09T09:05:33Z</time>
      </trkpt>
      <trkpt lat="42.87254" lon="2.35406">
        <ele>475</ele>
        <time>2023-09-09T09:05:34Z</time>
      </trkpt>
      <trkpt lat="42.87252" lon="2.35407">
        <ele>475</ele>
        <time>2023-09-09T09:05:35Z</time>
      </trkpt>
      <trkpt lat="42.8725" lon="2.35407">
        <ele>475</ele>
        <time>2023-09-09T09:05:36Z</time>
      </trkpt>
      <trkpt lat="42.87248" lon="2.35407">
        <ele>475</ele>
        <time>2023-09-09T09:05:37Z</time>
      </trkpt>
      <trkpt lat="42.87245" lon="2.35408">
        <ele>475</ele>
        <time>2023-09-09T09:05:38Z</time>
      </trkpt>
      <trkpt lat="42.87243" lon="2.35408">
        <ele>475</ele>
        <time>2023-09-09T09:05:39Z</time>
      </trkpt>
      <trkpt lat="42.87241" lon="2.35408">
        <ele>475</ele>
        <time>2023-09-09T09:05:40Z</time>
      </trkpt>
      <trkpt lat="42.87239" lon="2.35409">
        <ele>475</ele>
        <time>2023-09-09T09:05:41Z</time>
      </trkpt>
      <trkpt lat="42.87237" lon="2.35409">
        <ele>475</ele>
        <time>2023-09-09T09:05:42Z</time>
      </trkpt>
      <trkpt lat="42.87234" lon="2.35409">
        <ele>475</ele>
        <time>2023-09-09T09:05:43Z</time>
      </trkpt>
      <trkpt lat="42.87232" lon="2.35409">
        <ele>475</ele>
        <time>2023-09-09T09:05:44Z</time>
      </trkpt>
      <trkpt lat="42.8723" lon="2.3541">
        <ele>475</ele>
        <time>2023-09-09T09:05:45Z</time>
      </trkpt>
      <trkpt lat="42.87227" lon="2.3541">
        <ele>475</ele>
        <time>2023-09-09T09:05:46Z</time>
      </trkpt>
      <trkpt lat="42.87225" lon="2.3541">
        <ele>475</ele>
        <time>2023-09-09T09:05:47Z</time>
      </trkpt>
      <trkpt lat="42.87222" lon="2.3541">
        <ele>474</ele>
        <time>2023-09-09T09:05:48Z</time>
      </trkpt>
      <trkpt lat="42.8722" lon="2.35411">
        <ele>474</ele>
        <time>2023-09-09T09:05:49Z</time>
      </trkpt>
      <trkpt lat="42.87218" lon="2.35411">
        <ele>474</ele>
        <time>2023-09-09T09:05:50Z</time>
      </trkpt>
      <trkpt lat="42.87215" lon="2.35411">
        <ele>474</ele>
        <time>2023-09-09T09:05:51Z</time>
      </trkpt>
      <trkpt lat="42.87213" lon="2.35411">
        <ele>474</ele>
        <time>2023-09-09T09:05:52Z</time>
      </trkpt>
      <trkpt lat="42.87211" lon="2.35411">
        <ele>474</ele>
        <time>2023-09-09T09:05:53Z</time>
      </trkpt>
      <trkpt lat="42.87208" lon="2.35412">
        <ele>474</ele>
        <time>2023-09-09T09:05:54Z</time>
      </trkpt>
      <trkpt lat="42.87206" lon="2.35412">
        <ele>474</ele>
        <time>2023-09-09T09:05:55Z</time>
      </trkpt>
      <trkpt lat="42.87204" lon="2.35413">
        <ele>474</ele>
        <time>2023-09-09T09:05:56Z</time>
      </trkpt>
      <trkpt lat="42.87202" lon="2.35414">
        <ele>474</ele>
        <time>2023-09-09T09:05:57Z</time>
      </trkpt>
      <trkpt lat="42.872" lon="2.35415">
        <ele>474</ele>
        <time>2023-09-09T09:05:58Z</time>
      </trkpt>
      <trkpt lat="42.87197" lon="2.35417">
        <ele>474</ele>
        <time>2023-09-09T09:05:59Z</time>
      </trkpt>
      <trkpt lat="42.87195" lon="2.35418">
        <ele>474</ele>
        <time>2023-09-09T09:06:00Z</time>
      </trkpt>
      <trkpt lat="42.87193" lon="2.35419">
        <ele>474</ele>
        <time>2023-09-09T09:06:01Z</time>
      </trkpt>
      <trkpt lat="42.8719" lon="2.3542">
        <ele>474</ele>
        <time>2023-09-09T09:06:02Z</time>
      </trkpt>
      <trkpt lat="42.87188" lon="2.35421">
        <ele>474</ele>
        <time>2023-09-09T09:06:03Z</time>
      </trkpt>
      <trkpt lat="42.87186" lon="2.35422">
        <ele>474</ele>
        <time>2023-09-09T09:06:04Z</time>
      </trkpt>
      <trkpt lat="42.87184" lon="2.35423">
        <ele>474</ele>
        <time>2023-09-09T09:06:05Z</time>
      </trkpt>
      <trkpt lat="42.87181" lon="2.35424">
        <ele>474</ele>
        <time>2023-09-09T09:06:06Z</time>
      </trkpt>
      <trkpt lat="42.87179" lon="2.35425">
        <ele>475</ele>
        <time>2023-09-09T09:06:07Z</time>
      </trkpt>
      <trkpt lat="42.87177" lon="2.35425">
        <ele>475</ele>
        <time>2023-09-09T09:06:08Z</time>
      </trkpt>
      <trkpt lat="42.87175" lon="2.35426">
        <ele>475</ele>
        <time>2023-09-09T09:06:09Z</time>
      </trkpt>
      <trkpt lat="42.87173" lon="2.35426">
        <ele>475</ele>
        <time>2023-09-09T09:06:10Z</time>
      </trkpt>
      <trkpt lat="42.8717" lon="2.35427">
        <ele>475</ele>
        <time>2023-09-09T09:06:11Z</time>
      </trkpt>
      <trkpt lat="42.87168" lon="2.35428">
        <ele>475</ele>
        <time>2023-09-09T09:06:12Z</time>
      </trkpt>
      <trkpt lat="42.87165" lon="2.35428">
        <ele>475</ele>
        <time>2023-09-09T09:06:13Z</time>
      </trkpt>
      <trkpt lat="42.87163" lon="2.35429">
        <ele>475</ele>
        <time>2023-09-09T09:06:14Z</time>
      </trkpt>
      <trkpt lat="42.87161" lon="2.35429">
        <ele>475</ele>
        <time>2023-09-09T09:06:15Z</time>
      </trkpt>
      <trkpt lat="42.87158" lon="2.35429">
        <ele>475</ele>
        <time>2023-09-09T09:06:16Z</time>
      </trkpt>
      <trkpt lat="42.87156" lon="2.3543">
        <ele>476</ele>
        <time>2023-09-09T09:06:17Z</time>
      </trkpt>
      <trkpt lat="42.87153" lon="2.35429">
        <ele>476</ele>
        <time>2023-09-09T09:06:18Z</time>
      </trkpt>
      <trkpt lat="42.87151" lon="2.35429">
        <ele>476</ele>
        <time>2023-09-09T09:06:19Z</time>
      </trkpt>
      <trkpt lat="42.87148" lon="2.35429">
        <ele>476</ele>
        <time>2023-09-09T09:06:20Z</time>
      </trkpt>
      <trkpt lat="42.87146" lon="2.35428">
        <ele>476</ele>
        <time>2023-09-09T09:06:21Z</time>
      </trkpt>
      <trkpt lat="42.87144" lon="2.35428">
        <ele>476</ele>
        <time>2023-09-09T09:06:22Z</time>
      </trkpt>
      <trkpt lat="42.87141" lon="2.35428">
        <ele>476</ele>
        <time>2023-09-09T09:06:23Z</time>
      </trkpt>
      <trkpt lat="42.87139" lon="2.35427">
        <ele>476</ele>
        <time>2023-09-09T09:06:24Z</time>
      </trkpt>
      <trkpt lat="42.87137" lon="2.35427">
        <ele>476</ele>
        <time>2023-09-09T09:06:25Z</time>
      </trkpt>
      <trkpt lat="42.87134" lon="2.35427">
        <ele>476</ele>
        <time>2023-09-09T09:06:26Z</time>
      </trkpt>
      <trkpt lat="42.87132" lon="2.35427">
        <ele>476</ele>
        <time>2023-09-09T09:06:27Z</time>
      </trkpt>
      <trkpt lat="42.87129" lon="2.35427">
        <ele>476</ele>
        <time>2023-09-09T09:06:28Z</time>
      </trkpt>
      <trkpt lat="42.87127" lon="2.35427">
        <ele>476</ele>
        <time>2023-09-09T09:06:29Z</time>
      </trkpt>
      <trkpt lat="42.87124" lon="2.35427">
        <ele>476</ele>
        <time>2023-09-09T09:06:30Z</time>
      </trkpt>
      <trkpt lat="42.87122" lon="2.35428">
        <ele>476</ele>
        <time>2023-09-09T09:06:31Z</time>
      </trkpt>
      <trkpt lat="42.87119" lon="2.35428">
        <ele>476</ele>
        <time>2023-09-09T09:06:32Z</time>
      </trkpt>
      <trkpt lat="42.87116" lon="2.35429">
        <ele>476</ele>
        <time>2023-09-09T09:06:33Z</time>
      </trkpt>
      <trkpt lat="42.87114" lon="2.35429">
        <ele>476</ele>
        <time>2023-09-09T09:06:34Z</time>
      </trkpt>
      <trkpt lat="42.87111" lon="2.35429">
        <ele>476</ele>
        <time>2023-09-09T09:06:35Z</time>
      </trkpt>
      <trkpt lat="42.87109" lon="2.3543">
        <ele>476</ele>
        <time>2023-09-09T09:06:36Z</time>
      </trkpt>
      <trkpt lat="42.87106" lon="2.3543">
        <ele>476</ele>
        <time>2023-09-09T09:06:37Z</time>
      </trkpt>
      <trkpt lat="42.87104" lon="2.35431">
        <ele>476</ele>
        <time>2023-09-09T09:06:38Z</time>
      </trkpt>
      <trkpt lat="42.87101" lon="2.35432">
        <ele>476</ele>
        <time>2023-09-09T09:06:39Z</time>
      </trkpt>
      <trkpt lat="42.87099" lon="2.35432">
        <ele>476</ele>
        <time>2023-09-09T09:06:40Z</time>
      </trkpt>
      <trkpt lat="42.87096" lon="2.35433">
        <ele>476</ele>
        <time>2023-09-09T09:06:41Z</time>
      </trkpt>
      <trkpt lat="42.87094" lon="2.35433">
        <ele>476</ele>
        <time>2023-09-09T09:06:42Z</time>
      </trkpt>
      <trkpt lat="42.87092" lon="2.35434">
        <ele>475</ele>
        <time>2023-09-09T09:06:43Z</time>
      </trkpt>
      <trkpt lat="42.87089" lon="2.35434">
        <ele>475</ele>
        <time>2023-09-09T09:06:44Z</time>
      </trkpt>
      <trkpt lat="42.87087" lon="2.35435">
        <ele>475</ele>
        <time>2023-09-09T09:06:45Z</time>
      </trkpt>
      <trkpt lat="42.87084" lon="2.35435">
        <ele>475</ele>
        <time>2023-09-09T09:06:46Z</time>
      </trkpt>
      <trkpt lat="42.87082" lon="2.35436">
        <ele>475</ele>
        <time>2023-09-09T09:06:47Z</time>
      </trkpt>
      <trkpt lat="42.8708" lon="2.35437">
        <ele>475</ele>
        <time>2023-09-09T09:06:48Z</time>
      </trkpt>
      <trkpt lat="42.87078" lon="2.35438">
        <ele>475</ele>
        <time>2023-09-09T09:06:49Z</time>
      </trkpt>
      <trkpt lat="42.87076" lon="2.35439">
        <ele>475</ele>
        <time>2023-09-09T09:06:50Z</time>
      </trkpt>
      <trkpt lat="42.87073" lon="2.3544">
        <ele>475</ele>
        <time>2023-09-09T09:06:51Z</time>
      </trkpt>
      <trkpt lat="42.87071" lon="2.35441">
        <ele>475</ele>
        <time>2023-09-09T09:06:52Z</time>
      </trkpt>
      <trkpt lat="42.87069" lon="2.35442">
        <ele>475</ele>
        <time>2023-09-09T09:06:53Z</time>
      </trkpt>
      <trkpt lat="42.87067" lon="2.35443">
        <ele>475</ele>
        <time>2023-09-09T09:06:54Z</time>
      </trkpt>
      <trkpt lat="42.87065" lon="2.35444">
        <ele>475</ele>
        <time>2023-09-09T09:06:55Z</time>
      </trkpt>
      <trkpt lat="42.87063" lon="2.35445">
        <ele>475</ele>
        <time>2023-09-09T09:06:56Z</time>
      </trkpt>
      <trkpt lat="42.87061" lon="2.35447">
        <ele>475</ele>
        <time>2023-09-09T09:06:57Z</time>
      </trkpt>
      <trkpt lat="42.87059" lon="2.35448">
        <ele>474</ele>
        <time>2023-09-09T09:06:58Z</time>
      </trkpt>
      <trkpt lat="42.87057" lon="2.3545">
        <ele>474</ele>
        <time>2023-09-09T09:06:59Z</time>
      </trkpt>
      <trkpt lat="42.87055" lon="2.35452">
        <ele>474</ele>
        <time>2023-09-09T09:07:00Z</time>
      </trkpt>
      <trkpt lat="42.87053" lon="2.35454">
        <ele>474</ele>
        <time>2023-09-09T09:07:01Z</time>
      </trkpt>
      <trkpt lat="42.8705" lon="2.35455">
        <ele>474</ele>
        <time>2023-09-09T09:07:02Z</time>
      </trkpt>
      <trkpt lat="42.87048" lon="2.35457">
        <ele>474</ele>
        <time>2023-09-09T09:07:03Z</time>
      </trkpt>
      <trkpt lat="42.87046" lon="2.35459">
        <ele>474</ele>
        <time>2023-09-09T09:07:04Z</time>
      </trkpt>
      <trkpt lat="42.87044" lon="2.35461">
        <ele>474</ele>
        <time>2023-09-09T09:07:05Z</time>
      </trkpt>
      <trkpt lat="42.87043" lon="2.35463">
        <ele>474</ele>
        <time>2023-09-09T09:07:06Z</time>
      </trkpt>
      <trkpt lat="42.87041" lon="2.35465">
        <ele>474</ele>
        <time>2023-09-09T09:07:07Z</time>
      </trkpt>
      <trkpt lat="42.87039" lon="2.35466">
        <ele>474</ele>
        <time>2023-09-09T09:07:08Z</time>
      </trkpt>
      <trkpt lat="42.87037" lon="2.35468">
        <ele>474</ele>
        <time>2023-09-09T09:07:09Z</time>
      </trkpt>
      <trkpt lat="42.87035" lon="2.35469">
        <ele>474</ele>
        <time>2023-09-09T09:07:10Z</time>
      </trkpt>
      <trkpt lat="42.87033" lon="2.35469">
        <ele>474</ele>
        <time>2023-09-09T09:07:11Z</time>
      </trkpt>
      <trkpt lat="42.87031" lon="2.35469">
        <ele>474</ele>
        <time>2023-09-09T09:07:12Z</time>
      </trkpt>
      <trkpt lat="42.87029" lon="2.35469">
        <ele>474</ele>
        <time>2023-09-09T09:07:13Z</time>
      </trkpt>
      <trkpt lat="42.87027" lon="2.35469">
        <ele>474</ele>
        <time>2023-09-09T09:07:14Z</time>
      </trkpt>
      <trkpt lat="42.87025" lon="2.35469">
        <ele>474</ele>
        <time>2023-09-09T09:07:15Z</time>
      </trkpt>
      <trkpt lat="42.87023" lon="2.35469">
        <ele>474</ele>
        <time>2023-09-09T09:07:16Z</time>
      </trkpt>
      <trkpt lat="42.87021" lon="2.35469">
        <ele>474</ele>
        <time>2023-09-09T09:07:17Z</time>
      </trkpt>
      <trkpt lat="42.87019" lon="2.35469">
        <ele>474</ele>
        <time>2023-09-09T09:07:18Z</time>
      </trkpt>
      <trkpt lat="42.87018" lon="2.35469">
        <ele>474</ele>
        <time>2023-09-09T09:07:19Z</time>
      </trkpt>
      <trkpt lat="42.87016" lon="2.35469">
        <ele>474</ele>
        <time>2023-09-09T09:07:20Z</time>
      </trkpt>
      <trkpt lat="42.87014" lon="2.35469">
        <ele>474</ele>
        <time>2023-09-09T09:07:21Z</time>
      </trkpt>
      <trkpt lat="42.87013" lon="2.3547">
        <ele>474</ele>
        <time>2023-09-09T09:07:22Z</time>
      </trkpt>
      <trkpt lat="42.87011" lon="2.3547">
        <ele>474</ele>
        <time>2023-09-09T09:07:23Z</time>
      </trkpt>
      <trkpt lat="42.8701" lon="2.35471">
        <ele>474</ele>
        <time>2023-09-09T09:07:24Z</time>
      </trkpt>
      <trkpt lat="42.87009" lon="2.35471">
        <ele>474</ele>
        <time>2023-09-09T09:07:25Z</time>
      </trkpt>
      <trkpt lat="42.87007" lon="2.35472">
        <ele>474</ele>
        <time>2023-09-09T09:07:26Z</time>
      </trkpt>
      <trkpt lat="42.87006" lon="2.35473">
        <ele>475</ele>
        <time>2023-09-09T09:07:27Z</time>
      </trkpt>
      <trkpt lat="42.87005" lon="2.35473">
        <ele>475</ele>
        <time>2023-09-09T09:07:28Z</time>
      </trkpt>
      <trkpt lat="42.87003" lon="2.35474">
        <ele>475</ele>
        <time>2023-09-09T09:07:29Z</time>
      </trkpt>
      <trkpt lat="42.87002" lon="2.35474">
        <ele>475</ele>
        <time>2023-09-09T09:07:30Z</time>
      </trkpt>
      <trkpt lat="42.87001" lon="2.35475">
        <ele>475</ele>
        <time>2023-09-09T09:07:31Z</time>
      </trkpt>
      <trkpt lat="42.87" lon="2.35475">
        <ele>476</ele>
        <time>2023-09-09T09:07:32Z</time>
      </trkpt>
      <trkpt lat="42.86999" lon="2.35476">
        <ele>476</ele>
        <time>2023-09-09T09:07:33Z</time>
      </trkpt>
      <trkpt lat="42.86997" lon="2.35476">
        <ele>476</ele>
        <time>2023-09-09T09:07:34Z</time>
      </trkpt>
      <trkpt lat="42.86996" lon="2.35476">
        <ele>476</ele>
        <time>2023-09-09T09:07:35Z</time>
      </trkpt>
      <trkpt lat="42.86995" lon="2.35477">
        <ele>476</ele>
        <time>2023-09-09T09:07:36Z</time>
      </trkpt>
      <trkpt lat="42.86993" lon="2.35477">
        <ele>476</ele>
        <time>2023-09-09T09:07:37Z</time>
      </trkpt>
      <trkpt lat="42.86992" lon="2.35477">
        <ele>476</ele>
        <time>2023-09-09T09:07:38Z</time>
      </trkpt>
      <trkpt lat="42.86991" lon="2.35478">
        <ele>476</ele>
        <time>2023-09-09T09:07:39Z</time>
      </trkpt>
      <trkpt lat="42.8699" lon="2.35478">
        <ele>477</ele>
        <time>2023-09-09T09:07:40Z</time>
      </trkpt>
      <trkpt lat="42.86988" lon="2.35479">
        <ele>477</ele>
        <time>2023-09-09T09:07:41Z</time>
      </trkpt>
      <trkpt lat="42.86987" lon="2.35479">
        <ele>478</ele>
        <time>2023-09-09T09:07:42Z</time>
      </trkpt>
      <trkpt lat="42.86985" lon="2.35479">
        <ele>478</ele>
        <time>2023-09-09T09:07:43Z</time>
      </trkpt>
      <trkpt lat="42.86983" lon="2.3548">
        <ele>478</ele>
        <time>2023-09-09T09:07:44Z</time>
      </trkpt>
      <trkpt lat="42.86982" lon="2.3548">
        <ele>478</ele>
        <time>2023-09-09T09:07:45Z</time>
      </trkpt>
      <trkpt lat="42.8698" lon="2.3548">
        <ele>478</ele>
        <time>2023-09-09T09:07:46Z</time>
      </trkpt>
      <trkpt lat="42.86978" lon="2.3548">
        <ele>479</ele>
        <time>2023-09-09T09:07:47Z</time>
      </trkpt>
      <trkpt lat="42.86977" lon="2.3548">
        <ele>479</ele>
        <time>2023-09-09T09:07:48Z</time>
      </trkpt>
      <trkpt lat="42.86975" lon="2.3548">
        <ele>479</ele>
        <time>2023-09-09T09:07:49Z</time>
      </trkpt>
      <trkpt lat="42.86973" lon="2.35479">
        <ele>479</ele>
        <time>2023-09-09T09:07:50Z</time>
      </trkpt>
      <trkpt lat="42.86971" lon="2.35479">
        <ele>479</ele>
        <time>2023-09-09T09:07:51Z</time>
      </trkpt>
      <trkpt lat="42.86969" lon="2.35478">
        <ele>480</ele>
        <time>2023-09-09T09:07:52Z</time>
      </trkpt>
      <trkpt lat="42.86967" lon="2.35478">
        <ele>480</ele>
        <time>2023-09-09T09:07:53Z</time>
      </trkpt>
      <trkpt lat="42.86965" lon="2.35477">
        <ele>480</ele>
        <time>2023-09-09T09:07:54Z</time>
      </trkpt>
      <trkpt lat="42.86963" lon="2.35476">
        <ele>481</ele>
        <time>2023-09-09T09:07:55Z</time>
      </trkpt>
      <trkpt lat="42.86961" lon="2.35475">
        <ele>481</ele>
        <time>2023-09-09T09:07:56Z</time>
      </trkpt>
      <trkpt lat="42.86959" lon="2.35474">
        <ele>482</ele>
        <time>2023-09-09T09:07:57Z</time>
      </trkpt>
      <trkpt lat="42.86957" lon="2.35473">
        <ele>482</ele>
        <time>2023-09-09T09:07:58Z</time>
      </trkpt>
      <trkpt lat="42.86954" lon="2.35473">
        <ele>482</ele>
        <time>2023-09-09T09:07:59Z</time>
      </trkpt>
      <trkpt lat="42.86952" lon="2.35472">
        <ele>482</ele>
        <time>2023-09-09T09:08:00Z</time>
      </trkpt>
      <trkpt lat="42.8695" lon="2.35472">
        <ele>482</ele>
        <time>2023-09-09T09:08:01Z</time>
      </trkpt>
      <trkpt lat="42.86948" lon="2.35472">
        <ele>483</ele>
        <time>2023-09-09T09:08:02Z</time>
      </trkpt>
      <trkpt lat="42.86946" lon="2.35472">
        <ele>483</ele>
        <time>2023-09-09T09:08:03Z</time>
      </trkpt>
      <trkpt lat="42.86944" lon="2.35472">
        <ele>483</ele>
        <time>2023-09-09T09:08:04Z</time>
      </trkpt>
      <trkpt lat="42.86942" lon="2.35473">
        <ele>483</ele>
        <time>2023-09-09T09:08:05Z</time>
      </trkpt>
      <trkpt lat="42.8694" lon="2.35473">
        <ele>483</ele>
        <time>2023-09-09T09:08:06Z</time>
      </trkpt>
      <trkpt lat="42.86938" lon="2.35474">
        <ele>483</ele>
        <time>2023-09-09T09:08:07Z</time>
      </trkpt>
      <trkpt lat="42.86937" lon="2.35474">
        <ele>483</ele>
        <time>2023-09-09T09:08:08Z</time>
      </trkpt>
      <trkpt lat="42.86935" lon="2.35475">
        <ele>483</ele>
        <time>2023-09-09T09:08:09Z</time>
      </trkpt>
      <trkpt lat="42.86933" lon="2.35476">
        <ele>483</ele>
        <time>2023-09-09T09:08:10Z</time>
      </trkpt>
      <trkpt lat="42.86931" lon="2.35476">
        <ele>483</ele>
        <time>2023-09-09T09:08:11Z</time>
      </trkpt>
      <trkpt lat="42.86929" lon="2.35478">
        <ele>484</ele>
        <time>2023-09-09T09:08:12Z</time>
      </trkpt>
      <trkpt lat="42.86928" lon="2.35479">
        <ele>484</ele>
        <time>2023-09-09T09:08:13Z</time>
      </trkpt>
      <trkpt lat="42.86926" lon="2.3548">
        <ele>484</ele>
        <time>2023-09-09T09:08:14Z</time>
      </trkpt>
      <trkpt lat="42.86924" lon="2.35481">
        <ele>484</ele>
        <time>2023-09-09T09:08:15Z</time>
      </trkpt>
      <trkpt lat="42.86922" lon="2.35483">
        <ele>484</ele>
        <time>2023-09-09T09:08:16Z</time>
      </trkpt>
      <trkpt lat="42.8692" lon="2.35484">
        <ele>484</ele>
        <time>2023-09-09T09:08:17Z</time>
      </trkpt>
      <trkpt lat="42.86918" lon="2.35485">
        <ele>484</ele>
        <time>2023-09-09T09:08:18Z</time>
      </trkpt>
      <trkpt lat="42.86917" lon="2.35487">
        <ele>484</ele>
        <time>2023-09-09T09:08:19Z</time>
      </trkpt>
      <trkpt lat="42.86915" lon="2.35488">
        <ele>484</ele>
        <time>2023-09-09T09:08:20Z</time>
      </trkpt>
      <trkpt lat="42.86913" lon="2.35489">
        <ele>484</ele>
        <time>2023-09-09T09:08:21Z</time>
      </trkpt>
      <trkpt lat="42.86912" lon="2.3549">
        <ele>485</ele>
        <time>2023-09-09T09:08:22Z</time>
      </trkpt>
      <trkpt lat="42.8691" lon="2.35491">
        <ele>485</ele>
        <time>2023-09-09T09:08:23Z</time>
      </trkpt>
      <trkpt lat="42.86908" lon="2.35492">
        <ele>485</ele>
        <time>2023-09-09T09:08:24Z</time>
      </trkpt>
      <trkpt lat="42.86906" lon="2.35493">
        <ele>485</ele>
        <time>2023-09-09T09:08:25Z</time>
      </trkpt>
      <trkpt lat="42.86904" lon="2.35494">
        <ele>485</ele>
        <time>2023-09-09T09:08:26Z</time>
      </trkpt>
      <trkpt lat="42.86902" lon="2.35495">
        <ele>485</ele>
        <time>2023-09-09T09:08:27Z</time>
      </trkpt>
      <trkpt lat="42.86901" lon="2.35495">
        <ele>485</ele>
        <time>2023-09-09T09:08:28Z</time>
      </trkpt>
      <trkpt lat="42.86899" lon="2.35496">
        <ele>485</ele>
        <time>2023-09-09T09:08:29Z</time>
      </trkpt>
      <trkpt lat="42.86897" lon="2.35497">
        <ele>485</ele>
        <time>2023-09-09T09:08:30Z</time>
      </trkpt>
      <trkpt lat="42.86895" lon="2.35497">
        <ele>485</ele>
        <time>2023-09-09T09:08:31Z</time>
      </trkpt>
      <trkpt lat="42.86893" lon="2.35498">
        <ele>486</ele>
        <time>2023-09-09T09:08:32Z</time>
      </trkpt>
      <trkpt lat="42.86892" lon="2.35499">
        <ele>486</ele>
        <time>2023-09-09T09:08:33Z</time>
      </trkpt>
      <trkpt lat="42.8689" lon="2.35499">
        <ele>486</ele>
        <time>2023-09-09T09:08:34Z</time>
      </trkpt>
      <trkpt lat="42.86888" lon="2.355">
        <ele>486</ele>
        <time>2023-09-09T09:08:35Z</time>
      </trkpt>
      <trkpt lat="42.86886" lon="2.355">
        <ele>486</ele>
        <time>2023-09-09T09:08:36Z</time>
      </trkpt>
      <trkpt lat="42.86885" lon="2.35501">
        <ele>486</ele>
        <time>2023-09-09T09:08:37Z</time>
      </trkpt>
      <trkpt lat="42.86883" lon="2.35501">
        <ele>486</ele>
        <time>2023-09-09T09:08:38Z</time>
      </trkpt>
      <trkpt lat="42.86881" lon="2.35502">
        <ele>486</ele>
        <time>2023-09-09T09:08:39Z</time>
      </trkpt>
      <trkpt lat="42.8688" lon="2.35502">
        <ele>486</ele>
        <time>2023-09-09T09:08:40Z</time>
      </trkpt>
      <trkpt lat="42.86878" lon="2.35503">
        <ele>486</ele>
        <time>2023-09-09T09:08:41Z</time>
      </trkpt>
      <trkpt lat="42.86876" lon="2.35504">
        <ele>486</ele>
        <time>2023-09-09T09:08:42Z</time>
      </trkpt>
      <trkpt lat="42.86874" lon="2.35504">
        <ele>486</ele>
        <time>2023-09-09T09:08:43Z</time>
      </trkpt>
      <trkpt lat="42.86872" lon="2.35505">
        <ele>486</ele>
        <time>2023-09-09T09:08:44Z</time>
      </trkpt>
      <trkpt lat="42.8687" lon="2.35506">
        <ele>486</ele>
        <time>2023-09-09T09:08:45Z</time>
      </trkpt>
      <trkpt lat="42.86868" lon="2.35506">
        <ele>486</ele>
        <time>2023-09-09T09:08:46Z</time>
      </trkpt>
      <trkpt lat="42.86866" lon="2.35506">
        <ele>486</ele>
        <time>2023-09-09T09:08:47Z</time>
      </trkpt>
      <trkpt lat="42.86864" lon="2.35506">
        <ele>486</ele>
        <time>2023-09-09T09:08:48Z</time>
      </trkpt>
      <trkpt lat="42.86861" lon="2.35506">
        <ele>486</ele>
        <time>2023-09-09T09:08:49Z</time>
      </trkpt>
      <trkpt lat="42.86859" lon="2.35506">
        <ele>486</ele>
        <time>2023-09-09T09:08:50Z</time>
      </trkpt>
      <trkpt lat="42.86857" lon="2.35506">
        <ele>486</ele>
        <time>2023-09-09T09:08:51Z</time>
      </trkpt>
      <trkpt lat="42.86855" lon="2.35506">
        <ele>486</ele>
        <time>2023-09-09T09:08:52Z</time>
      </trkpt>
      <trkpt lat="42.86853" lon="2.35506">
        <ele>486</ele>
        <time>2023-09-09T09:08:53Z</time>
      </trkpt>
      <trkpt lat="42.86851" lon="2.35505">
        <ele>486</ele>
        <time>2023-09-09T09:08:54Z</time>
      </trkpt>
      <trkpt lat="42.86849" lon="2.35505">
        <ele>486</ele>
        <time>2023-09-09T09:08:55Z</time>
      </trkpt>
      <trkpt lat="42.86846" lon="2.35504">
        <ele>486</ele>
        <time>2023-09-09T09:08:56Z</time>
      </trkpt>
      <trkpt lat="42.86844" lon="2.35504">
        <ele>486</ele>
        <time>2023-09-09T09:08:57Z</time>
      </trkpt>
      <trkpt lat="42.86842" lon="2.35503">
        <ele>485</ele>
        <time>2023-09-09T09:08:58Z</time>
      </trkpt>
      <trkpt lat="42.86839" lon="2.35502">
        <ele>485</ele>
        <time>2023-09-09T09:08:59Z</time>
      </trkpt>
      <trkpt lat="42.86837" lon="2.35502">
        <ele>485</ele>
        <time>2023-09-09T09:09:00Z</time>
      </trkpt>
      <trkpt lat="42.86835" lon="2.35501">
        <ele>485</ele>
        <time>2023-09-09T09:09:01Z</time>
      </trkpt>
      <trkpt lat="42.86833" lon="2.355">
        <ele>485</ele>
        <time>2023-09-09T09:09:02Z</time>
      </trkpt>
      <trkpt lat="42.8683" lon="2.35499">
        <ele>484</ele>
        <time>2023-09-09T09:09:03Z</time>
      </trkpt>
      <trkpt lat="42.86828" lon="2.35498">
        <ele>484</ele>
        <time>2023-09-09T09:09:04Z</time>
      </trkpt>
      <trkpt lat="42.86825" lon="2.35497">
        <ele>484</ele>
        <time>2023-09-09T09:09:05Z</time>
      </trkpt>
      <trkpt lat="42.86823" lon="2.35496">
        <ele>484</ele>
        <time>2023-09-09T09:09:06Z</time>
      </trkpt>
      <trkpt lat="42.8682" lon="2.35495">
        <ele>484</ele>
        <time>2023-09-09T09:09:07Z</time>
      </trkpt>
      <trkpt lat="42.86818" lon="2.35495">
        <ele>483</ele>
        <time>2023-09-09T09:09:08Z</time>
      </trkpt>
      <trkpt lat="42.86815" lon="2.35494">
        <ele>483</ele>
        <time>2023-09-09T09:09:09Z</time>
      </trkpt>
      <trkpt lat="42.86813" lon="2.35493">
        <ele>483</ele>
        <time>2023-09-09T09:09:10Z</time>
      </trkpt>
      <trkpt lat="42.8681" lon="2.35492">
        <ele>483</ele>
        <time>2023-09-09T09:09:11Z</time>
      </trkpt>
      <trkpt lat="42.86808" lon="2.35491">
        <ele>483</ele>
        <time>2023-09-09T09:09:12Z</time>
      </trkpt>
      <trkpt lat="42.86805" lon="2.3549">
        <ele>482</ele>
        <time>2023-09-09T09:09:13Z</time>
      </trkpt>
      <trkpt lat="42.86803" lon="2.35489">
        <ele>482</ele>
        <time>2023-09-09T09:09:14Z</time>
      </trkpt>
      <trkpt lat="42.868" lon="2.35489">
        <ele>482</ele>
        <time>2023-09-09T09:09:15Z</time>
      </trkpt>
      <trkpt lat="42.86798" lon="2.35488">
        <ele>482</ele>
        <time>2023-09-09T09:09:16Z</time>
      </trkpt>
      <trkpt lat="42.86796" lon="2.35487">
        <ele>482</ele>
        <time>2023-09-09T09:09:17Z</time>
      </trkpt>
      <trkpt lat="42.86794" lon="2.35486">
        <ele>482</ele>
        <time>2023-09-09T09:09:18Z</time>
      </trkpt>
      <trkpt lat="42.86792" lon="2.35485">
        <ele>482</ele>
        <time>2023-09-09T09:09:19Z</time>
      </trkpt>
      <trkpt lat="42.86789" lon="2.35484">
        <ele>482</ele>
        <time>2023-09-09T09:09:20Z</time>
      </trkpt>
      <trkpt lat="42.86787" lon="2.35483">
        <ele>482</ele>
        <time>2023-09-09T09:09:21Z</time>
      </trkpt>
      <trkpt lat="42.86785" lon="2.35482">
        <ele>482</ele>
        <time>2023-09-09T09:09:22Z</time>
      </trkpt>
      <trkpt lat="42.86783" lon="2.35481">
        <ele>481</ele>
        <time>2023-09-09T09:09:23Z</time>
      </trkpt>
      <trkpt lat="42.86781" lon="2.3548">
        <ele>481</ele>
        <time>2023-09-09T09:09:24Z</time>
      </trkpt>
      <trkpt lat="42.86779" lon="2.35479">
        <ele>481</ele>
        <time>2023-09-09T09:09:25Z</time>
      </trkpt>
      <trkpt lat="42.86778" lon="2.35478">
        <ele>481</ele>
        <time>2023-09-09T09:09:26Z</time>
      </trkpt>
      <trkpt lat="42.86776" lon="2.35477">
        <ele>481</ele>
        <time>2023-09-09T09:09:27Z</time>
      </trkpt>
      <trkpt lat="42.86774" lon="2.35476">
        <ele>480</ele>
        <time>2023-09-09T09:09:28Z</time>
      </trkpt>
      <trkpt lat="42.86773" lon="2.35475">
        <ele>480</ele>
        <time>2023-09-09T09:09:29Z</time>
      </trkpt>
      <trkpt lat="42.86771" lon="2.35474">
        <ele>480</ele>
        <time>2023-09-09T09:09:30Z</time>
      </trkpt>
      <trkpt lat="42.8677" lon="2.35473">
        <ele>480</ele>
        <time>2023-09-09T09:09:31Z</time>
      </trkpt>
      <trkpt lat="42.86768" lon="2.35471">
        <ele>480</ele>
        <time>2023-09-09T09:09:32Z</time>
      </trkpt>
      <trkpt lat="42.86767" lon="2.35469">
        <ele>479</ele>
        <time>2023-09-09T09:09:33Z</time>
      </trkpt>
      <trkpt lat="42.86766" lon="2.35467">
        <ele>479</ele>
        <time>2023-09-09T09:09:34Z</time>
      </trkpt>
      <trkpt lat="42.86766" lon="2.35465">
        <ele>479</ele>
        <time>2023-09-09T09:09:35Z</time>
      </trkpt>
      <trkpt lat="42.86765" lon="2.35464">
        <ele>479</ele>
        <time>2023-09-09T09:09:36Z</time>
      </trkpt>
      <trkpt lat="42.86764" lon="2.35462">
        <ele>479</ele>
        <time>2023-09-09T09:09:37Z</time>
      </trkpt>
      <trkpt lat="42.86764" lon="2.35462">
        <ele>479</ele>
        <time>2023-09-09T09:09:38Z</time>
      </trkpt>
      <trkpt lat="42.86763" lon="2.35461">
        <ele>479</ele>
        <time>2023-09-09T09:09:39Z</time>
      </trkpt>
      <trkpt lat="42.86762" lon="2.35461">
        <ele>479</ele>
        <time>2023-09-09T09:09:40Z</time>
      </trkpt>
      <trkpt lat="42.86761" lon="2.35461">
        <ele>479</ele>
        <time>2023-09-09T09:09:41Z</time>
      </trkpt>
      <trkpt lat="42.8676" lon="2.35462">
        <ele>479</ele>
        <time>2023-09-09T09:09:42Z</time>
      </trkpt>
      <trkpt lat="42.86758" lon="2.35463">
        <ele>478</ele>
        <time>2023-09-09T09:09:43Z</time>
      </trkpt>
      <trkpt lat="42.86757" lon="2.35464">
        <ele>478</ele>
        <time>2023-09-09T09:09:44Z</time>
      </trkpt>
      <trkpt lat="42.86755" lon="2.35466">
        <ele>478</ele>
        <time>2023-09-09T09:09:45Z</time>
      </trkpt>
      <trkpt lat="42.86753" lon="2.35467">
        <ele>478</ele>
        <time>2023-09-09T09:09:46Z</time>
      </trkpt>
      <trkpt lat="42.86751" lon="2.35469">
        <ele>478</ele>
        <time>2023-09-09T09:09:47Z</time>
      </trkpt>
      <trkpt lat="42.8675" lon="2.35472">
        <ele>477</ele>
        <time>2023-09-09T09:09:48Z</time>
      </trkpt>
      <trkpt lat="42.86749" lon="2.35474">
        <ele>477</ele>
        <time>2023-09-09T09:09:49Z</time>
      </trkpt>
      <trkpt lat="42.86749" lon="2.35477">
        <ele>476</ele>
        <time>2023-09-09T09:09:50Z</time>
      </trkpt>
      <trkpt lat="42.86748" lon="2.3548">
        <ele>476</ele>
        <time>2023-09-09T09:09:51Z</time>
      </trkpt>
      <trkpt lat="42.86747" lon="2.35483">
        <ele>476</ele>
        <time>2023-09-09T09:09:52Z</time>
      </trkpt>
      <trkpt lat="42.86747" lon="2.35485">
        <ele>476</ele>
        <time>2023-09-09T09:09:53Z</time>
      </trkpt>
      <trkpt lat="42.86746" lon="2.35488">
        <ele>476</ele>
        <time>2023-09-09T09:09:54Z</time>
      </trkpt>
      <trkpt lat="42.86745" lon="2.3549">
        <ele>476</ele>
        <time>2023-09-09T09:09:55Z</time>
      </trkpt>
      <trkpt lat="42.86744" lon="2.35493">
        <ele>476</ele>
        <time>2023-09-09T09:09:56Z</time>
      </trkpt>
      <trkpt lat="42.86743" lon="2.35496">
        <ele>476</ele>
        <time>2023-09-09T09:09:57Z</time>
      </trkpt>
      <trkpt lat="42.86743" lon="2.35499">
        <ele>476</ele>
        <time>2023-09-09T09:09:58Z</time>
      </trkpt>
      <trkpt lat="42.86742" lon="2.35501">
        <ele>476</ele>
        <time>2023-09-09T09:09:59Z</time>
      </trkpt>
      <trkpt lat="42.86741" lon="2.35504">
        <ele>476</ele>
        <time>2023-09-09T09:10:00Z</time>
      </trkpt>
      <trkpt lat="42.8674" lon="2.35507">
        <ele>476</ele>
        <time>2023-09-09T09:10:01Z</time>
      </trkpt>
      <trkpt lat="42.86739" lon="2.35509">
        <ele>476</ele>
        <time>2023-09-09T09:10:02Z</time>
      </trkpt>
      <trkpt lat="42.86737" lon="2.35512">
        <ele>476</ele>
        <time>2023-09-09T09:10:03Z</time>
      </trkpt>
      <trkpt lat="42.86735" lon="2.35513">
        <ele>476</ele>
        <time>2023-09-09T09:10:04Z</time>
      </trkpt>
      <trkpt lat="42.86732" lon="2.35515">
        <ele>476</ele>
        <time>2023-09-09T09:10:05Z</time>
      </trkpt>
      <trkpt lat="42.8673" lon="2.35516">
        <ele>476</ele>
        <time>2023-09-09T09:10:06Z</time>
      </trkpt>
      <trkpt lat="42.86728" lon="2.35518">
        <ele>476</ele>
        <time>2023-09-09T09:10:07Z</time>
      </trkpt>
      <trkpt lat="42.86726" lon="2.35519">
        <ele>476</ele>
        <time>2023-09-09T09:10:08Z</time>
      </trkpt>
      <trkpt lat="42.86724" lon="2.35521">
        <ele>476</ele>
        <time>2023-09-09T09:10:09Z</time>
      </trkpt>
      <trkpt lat="42.86722" lon="2.35522">
        <ele>476</ele>
        <time>2023-09-09T09:10:10Z</time>
      </trkpt>
      <trkpt lat="42.8672" lon="2.35524">
        <ele>476</ele>
        <time>2023-09-09T09:10:11Z</time>
      </trkpt>
      <trkpt lat="42.86718" lon="2.35524">
        <ele>476</ele>
        <time>2023-09-09T09:10:12Z</time>
      </trkpt>
      <trkpt lat="42.86716" lon="2.35525">
        <ele>476</ele>
        <time>2023-09-09T09:10:13Z</time>
      </trkpt>
      <trkpt lat="42.86715" lon="2.35526">
        <ele>476</ele>
        <time>2023-09-09T09:10:14Z</time>
      </trkpt>
      <trkpt lat="42.86713" lon="2.35527">
        <ele>477</ele>
        <time>2023-09-09T09:10:15Z</time>
      </trkpt>
      <trkpt lat="42.86712" lon="2.35528">
        <ele>477</ele>
        <time>2023-09-09T09:10:16Z</time>
      </trkpt>
      <trkpt lat="42.8671" lon="2.3553">
        <ele>478</ele>
        <time>2023-09-09T09:10:17Z</time>
      </trkpt>
      <trkpt lat="42.8671" lon="2.35531">
        <ele>478</ele>
        <time>2023-09-09T09:10:18Z</time>
      </trkpt>
      <trkpt lat="42.86709" lon="2.35533">
        <ele>478</ele>
        <time>2023-09-09T09:10:19Z</time>
      </trkpt>
      <trkpt lat="42.86708" lon="2.35534">
        <ele>478</ele>
        <time>2023-09-09T09:10:20Z</time>
      </trkpt>
      <trkpt lat="42.86707" lon="2.35536">
        <ele>478</ele>
        <time>2023-09-09T09:10:21Z</time>
      </trkpt>
      <trkpt lat="42.86707" lon="2.35537">
        <ele>478</ele>
        <time>2023-09-09T09:10:22Z</time>
      </trkpt>
      <trkpt lat="42.86706" lon="2.35538">
        <ele>478</ele>
        <time>2023-09-09T09:10:23Z</time>
      </trkpt>
      <trkpt lat="42.86705" lon="2.35539">
        <ele>478</ele>
        <time>2023-09-09T09:10:24Z</time>
      </trkpt>
      <trkpt lat="42.86704" lon="2.3554">
        <ele>478</ele>
        <time>2023-09-09T09:10:25Z</time>
      </trkpt>
      <trkpt lat="42.86702" lon="2.35541">
        <ele>478</ele>
        <time>2023-09-09T09:10:26Z</time>
      </trkpt>
      <trkpt lat="42.86701" lon="2.35542">
        <ele>479</ele>
        <time>2023-09-09T09:10:27Z</time>
      </trkpt>
      <trkpt lat="42.867" lon="2.35543">
        <ele>479</ele>
        <time>2023-09-09T09:10:28Z</time>
      </trkpt>
      <trkpt lat="42.86698" lon="2.35543">
        <ele>479</ele>
        <time>2023-09-09T09:10:29Z</time>
      </trkpt>
      <trkpt lat="42.86696" lon="2.35543">
        <ele>479</ele>
        <time>2023-09-09T09:10:30Z</time>
      </trkpt>
      <trkpt lat="42.86694" lon="2.35544">
        <ele>479</ele>
        <time>2023-09-09T09:10:31Z</time>
      </trkpt>
      <trkpt lat="42.86693" lon="2.35544">
        <ele>479</ele>
        <time>2023-09-09T09:10:32Z</time>
      </trkpt>
      <trkpt lat="42.86691" lon="2.35545">
        <ele>479</ele>
        <time>2023-09-09T09:10:33Z</time>
      </trkpt>
      <trkpt lat="42.86689" lon="2.35545">
        <ele>479</ele>
        <time>2023-09-09T09:10:34Z</time>
      </trkpt>
      <trkpt lat="42.86688" lon="2.35545">
        <ele>479</ele>
        <time>2023-09-09T09:10:35Z</time>
      </trkpt>
      <trkpt lat="42.86686" lon="2.35545">
        <ele>479</ele>
        <time>2023-09-09T09:10:36Z</time>
      </trkpt>
      <trkpt lat="42.86684" lon="2.35545">
        <ele>480</ele>
        <time>2023-09-09T09:10:37Z</time>
      </trkpt>
      <trkpt lat="42.86683" lon="2.35545">
        <ele>480</ele>
        <time>2023-09-09T09:10:38Z</time>
      </trkpt>
      <trkpt lat="42.86681" lon="2.35545">
        <ele>480</ele>
        <time>2023-09-09T09:10:39Z</time>
      </trkpt>
      <trkpt lat="42.8668" lon="2.35545">
        <ele>481</ele>
        <time>2023-09-09T09:10:40Z</time>
      </trkpt>
      <trkpt lat="42.86679" lon="2.35545">
        <ele>481</ele>
        <time>2023-09-09T09:10:41Z</time>
      </trkpt>
      <trkpt lat="42.86678" lon="2.35545">
        <ele>482</ele>
        <time>2023-09-09T09:10:42Z</time>
      </trkpt>
      <trkpt lat="42.86677" lon="2.35545">
        <ele>482</ele>
        <time>2023-09-09T09:10:43Z</time>
      </trkpt>
      <trkpt lat="42.86676" lon="2.35545">
        <ele>482</ele>
        <time>2023-09-09T09:10:44Z</time>
      </trkpt>
      <trkpt lat="42.86675" lon="2.35546">
        <ele>482</ele>
        <time>2023-09-09T09:10:45Z</time>
      </trkpt>
      <trkpt lat="42.86674" lon="2.35546">
        <ele>482</ele>
        <time>2023-09-09T09:10:46Z</time>
      </trkpt>
      <trkpt lat="42.86673" lon="2.35547">
        <ele>483</ele>
        <time>2023-09-09T09:10:47Z</time>
      </trkpt>
      <trkpt lat="42.86672" lon="2.35547">
        <ele>483</ele>
        <time>2023-09-09T09:10:48Z</time>
      </trkpt>
      <trkpt lat="42.86671" lon="2.35547">
        <ele>483</ele>
        <time>2023-09-09T09:10:49Z</time>
      </trkpt>
      <trkpt lat="42.86669" lon="2.35548">
        <ele>483</ele>
        <time>2023-09-09T09:10:50Z</time>
      </trkpt>
      <trkpt lat="42.86668" lon="2.35548">
        <ele>483</ele>
        <time>2023-09-09T09:10:51Z</time>
      </trkpt>
      <trkpt lat="42.86667" lon="2.35549">
        <ele>484</ele>
        <time>2023-09-09T09:10:52Z</time>
      </trkpt>
      <trkpt lat="42.86665" lon="2.35549">
        <ele>484</ele>
        <time>2023-09-09T09:10:53Z</time>
      </trkpt>
      <trkpt lat="42.86664" lon="2.35549">
        <ele>484</ele>
        <time>2023-09-09T09:10:54Z</time>
      </trkpt>
      <trkpt lat="42.86663" lon="2.3555">
        <ele>484</ele>
        <time>2023-09-09T09:10:55Z</time>
      </trkpt>
      <trkpt lat="42.86661" lon="2.3555">
        <ele>484</ele>
        <time>2023-09-09T09:10:56Z</time>
      </trkpt>
      <trkpt lat="42.8666" lon="2.3555">
        <ele>485</ele>
        <time>2023-09-09T09:10:57Z</time>
      </trkpt>
      <trkpt lat="42.86659" lon="2.3555">
        <ele>485</ele>
        <time>2023-09-09T09:10:58Z</time>
      </trkpt>
      <trkpt lat="42.86657" lon="2.35551">
        <ele>485</ele>
        <time>2023-09-09T09:10:59Z</time>
      </trkpt>
      <trkpt lat="42.86657" lon="2.35551">
        <ele>486</ele>
        <time>2023-09-09T09:11:00Z</time>
      </trkpt>
      <trkpt lat="42.86656" lon="2.35551">
        <ele>486</ele>
        <time>2023-09-09T09:11:01Z</time>
      </trkpt>
      <trkpt lat="42.86655" lon="2.35551">
        <ele>487</ele>
        <time>2023-09-09T09:11:02Z</time>
      </trkpt>
      <trkpt lat="42.86653" lon="2.35551">
        <ele>487</ele>
        <time>2023-09-09T09:11:03Z</time>
      </trkpt>
      <trkpt lat="42.86652" lon="2.35552">
        <ele>487</ele>
        <time>2023-09-09T09:11:04Z</time>
      </trkpt>
      <trkpt lat="42.8665" lon="2.35552">
        <ele>487</ele>
        <time>2023-09-09T09:11:05Z</time>
      </trkpt>
      <trkpt lat="42.86649" lon="2.35553">
        <ele>487</ele>
        <time>2023-09-09T09:11:06Z</time>
      </trkpt>
      <trkpt lat="42.86648" lon="2.35554">
        <ele>488</ele>
        <time>2023-09-09T09:11:07Z</time>
      </trkpt>
      <trkpt lat="42.86647" lon="2.35554">
        <ele>488</ele>
        <time>2023-09-09T09:11:08Z</time>
      </trkpt>
      <trkpt lat="42.86645" lon="2.35555">
        <ele>488</ele>
        <time>2023-09-09T09:11:09Z</time>
      </trkpt>
      <trkpt lat="42.86644" lon="2.35555">
        <ele>488</ele>
        <time>2023-09-09T09:11:10Z</time>
      </trkpt>
      <trkpt lat="42.86642" lon="2.35555">
        <ele>488</ele>
        <time>2023-09-09T09:11:11Z</time>
      </trkpt>
      <trkpt lat="42.8664" lon="2.35556">
        <ele>488</ele>
        <time>2023-09-09T09:11:12Z</time>
      </trkpt>
      <trkpt lat="42.86638" lon="2.35556">
        <ele>488</ele>
        <time>2023-09-09T09:11:13Z</time>
      </trkpt>
      <trkpt lat="42.86636" lon="2.35557">
        <ele>488</ele>
        <time>2023-09-09T09:11:14Z</time>
      </trkpt>
      <trkpt lat="42.86634" lon="2.35558">
        <ele>488</ele>
        <time>2023-09-09T09:11:15Z</time>
      </trkpt>
      <trkpt lat="42.86633" lon="2.35559">
        <ele>488</ele>
        <time>2023-09-09T09:11:16Z</time>
      </trkpt>
      <trkpt lat="42.86631" lon="2.35561">
        <ele>489</ele>
        <time>2023-09-09T09:11:17Z</time>
      </trkpt>
      <trkpt lat="42.86629" lon="2.35562">
        <ele>489</ele>
        <time>2023-09-09T09:11:18Z</time>
      </trkpt>
      <trkpt lat="42.86627" lon="2.35563">
        <ele>489</ele>
        <time>2023-09-09T09:11:19Z</time>
      </trkpt>
      <trkpt lat="42.86626" lon="2.35564">
        <ele>489</ele>
        <time>2023-09-09T09:11:20Z</time>
      </trkpt>
      <trkpt lat="42.86624" lon="2.35565">
        <ele>489</ele>
        <time>2023-09-09T09:11:21Z</time>
      </trkpt>
      <trkpt lat="42.86623" lon="2.35566">
        <ele>490</ele>
        <time>2023-09-09T09:11:22Z</time>
      </trkpt>
      <trkpt lat="42.86621" lon="2.35567">
        <ele>490</ele>
        <time>2023-09-09T09:11:23Z</time>
      </trkpt>
      <trkpt lat="42.8662" lon="2.35567">
        <ele>490</ele>
        <time>2023-09-09T09:11:24Z</time>
      </trkpt>
      <trkpt lat="42.86618" lon="2.35568">
        <ele>490</ele>
        <time>2023-09-09T09:11:25Z</time>
      </trkpt>
      <trkpt lat="42.86617" lon="2.35568">
        <ele>490</ele>
        <time>2023-09-09T09:11:26Z</time>
      </trkpt>
      <trkpt lat="42.86615" lon="2.35569">
        <ele>491</ele>
        <time>2023-09-09T09:11:27Z</time>
      </trkpt>
      <trkpt lat="42.86613" lon="2.35569">
        <ele>491</ele>
        <time>2023-09-09T09:11:28Z</time>
      </trkpt>
      <trkpt lat="42.86611" lon="2.35569">
        <ele>491</ele>
        <time>2023-09-09T09:11:29Z</time>
      </trkpt>
      <trkpt lat="42.86609" lon="2.35569">
        <ele>491</ele>
        <time>2023-09-09T09:11:30Z</time>
      </trkpt>
      <trkpt lat="42.86607" lon="2.35569">
        <ele>491</ele>
        <time>2023-09-09T09:11:31Z</time>
      </trkpt>
      <trkpt lat="42.86605" lon="2.35569">
        <ele>492</ele>
        <time>2023-09-09T09:11:32Z</time>
      </trkpt>
      <trkpt lat="42.86603" lon="2.35569">
        <ele>492</ele>
        <time>2023-09-09T09:11:33Z</time>
      </trkpt>
      <trkpt lat="42.86601" lon="2.35569">
        <ele>493</ele>
        <time>2023-09-09T09:11:34Z</time>
      </trkpt>
      <trkpt lat="42.866" lon="2.35568">
        <ele>493</ele>
        <time>2023-09-09T09:11:35Z</time>
      </trkpt>
      <trkpt lat="42.86598" lon="2.35568">
        <ele>494</ele>
        <time>2023-09-09T09:11:36Z</time>
      </trkpt>
      <trkpt lat="42.86596" lon="2.35568">
        <ele>495</ele>
        <time>2023-09-09T09:11:37Z</time>
      </trkpt>
      <trkpt lat="42.86594" lon="2.35568">
        <ele>495</ele>
        <time>2023-09-09T09:11:38Z</time>
      </trkpt>
      <trkpt lat="42.86592" lon="2.35569">
        <ele>495</ele>
        <time>2023-09-09T09:11:39Z</time>
      </trkpt>
      <trkpt lat="42.86591" lon="2.3557">
        <ele>495</ele>
        <time>2023-09-09T09:11:40Z</time>
      </trkpt>
      <trkpt lat="42.86589" lon="2.35571">
        <ele>495</ele>
        <time>2023-09-09T09:11:41Z</time>
      </trkpt>
      <trkpt lat="42.86587" lon="2.35572">
        <ele>496</ele>
        <time>2023-09-09T09:11:42Z</time>
      </trkpt>
      <trkpt lat="42.86586" lon="2.35573">
        <ele>496</ele>
        <time>2023-09-09T09:11:43Z</time>
      </trkpt>
      <trkpt lat="42.86584" lon="2.35574">
        <ele>496</ele>
        <time>2023-09-09T09:11:44Z</time>
      </trkpt>
      <trkpt lat="42.86583" lon="2.35576">
        <ele>496</ele>
        <time>2023-09-09T09:11:45Z</time>
      </trkpt>
      <trkpt lat="42.86581" lon="2.35577">
        <ele>496</ele>
        <time>2023-09-09T09:11:46Z</time>
      </trkpt>
      <trkpt lat="42.86579" lon="2.35578">
        <ele>497</ele>
        <time>2023-09-09T09:11:47Z</time>
      </trkpt>
      <trkpt lat="42.86577" lon="2.35578">
        <ele>497</ele>
        <time>2023-09-09T09:11:48Z</time>
      </trkpt>
      <trkpt lat="42.86575" lon="2.35578">
        <ele>497</ele>
        <time>2023-09-09T09:11:49Z</time>
      </trkpt>
      <trkpt lat="42.86573" lon="2.35578">
        <ele>497</ele>
        <time>2023-09-09T09:11:50Z</time>
      </trkpt>
      <trkpt lat="42.86571" lon="2.35578">
        <ele>497</ele>
        <time>2023-09-09T09:11:51Z</time>
      </trkpt>
      <trkpt lat="42.8657" lon="2.35579">
        <ele>497</ele>
        <time>2023-09-09T09:11:52Z</time>
      </trkpt>
      <trkpt lat="42.86568" lon="2.3558">
        <ele>497</ele>
        <time>2023-09-09T09:11:53Z</time>
      </trkpt>
      <trkpt lat="42.86567" lon="2.35581">
        <ele>497</ele>
        <time>2023-09-09T09:11:54Z</time>
      </trkpt>
      <trkpt lat="42.86565" lon="2.35582">
        <ele>497</ele>
        <time>2023-09-09T09:11:55Z</time>
      </trkpt>
      <trkpt lat="42.86564" lon="2.35583">
        <ele>497</ele>
        <time>2023-09-09T09:11:56Z</time>
      </trkpt>
      <trkpt lat="42.86562" lon="2.35584">
        <ele>498</ele>
        <time>2023-09-09T09:11:57Z</time>
      </trkpt>
      <trkpt lat="42.86561" lon="2.35584">
        <ele>498</ele>
        <time>2023-09-09T09:11:58Z</time>
      </trkpt>
      <trkpt lat="42.8656" lon="2.35584">
        <ele>498</ele>
        <time>2023-09-09T09:11:59Z</time>
      </trkpt>
      <trkpt lat="42.86558" lon="2.35585">
        <ele>498</ele>
        <time>2023-09-09T09:12:00Z</time>
      </trkpt>
      <trkpt lat="42.86556" lon="2.35585">
        <ele>498</ele>
        <time>2023-09-09T09:12:01Z</time>
      </trkpt>
      <trkpt lat="42.86554" lon="2.35586">
        <ele>498</ele>
        <time>2023-09-09T09:12:02Z</time>
      </trkpt>
      <trkpt lat="42.86552" lon="2.35587">
        <ele>498</ele>
        <time>2023-09-09T09:12:03Z</time>
      </trkpt>
      <trkpt lat="42.8655" lon="2.35588">
        <ele>498</ele>
        <time>2023-09-09T09:12:04Z</time>
      </trkpt>
      <trkpt lat="42.86548" lon="2.3559">
        <ele>498</ele>
        <time>2023-09-09T09:12:05Z</time>
      </trkpt>
      <trkpt lat="42.86546" lon="2.35592">
        <ele>498</ele>
        <time>2023-09-09T09:12:06Z</time>
      </trkpt>
      <trkpt lat="42.86545" lon="2.35593">
        <ele>498</ele>
        <time>2023-09-09T09:12:07Z</time>
      </trkpt>
      <trkpt lat="42.86543" lon="2.35595">
        <ele>498</ele>
        <time>2023-09-09T09:12:08Z</time>
      </trkpt>
      <trkpt lat="42.86541" lon="2.35596">
        <ele>498</ele>
        <time>2023-09-09T09:12:09Z</time>
      </trkpt>
      <trkpt lat="42.86539" lon="2.35597">
        <ele>498</ele>
        <time>2023-09-09T09:12:10Z</time>
      </trkpt>
      <trkpt lat="42.86538" lon="2.35598">
        <ele>498</ele>
        <time>2023-09-09T09:12:11Z</time>
      </trkpt>
      <trkpt lat="42.86536" lon="2.356">
        <ele>498</ele>
        <time>2023-09-09T09:12:12Z</time>
      </trkpt>
      <trkpt lat="42.86534" lon="2.35601">
        <ele>498</ele>
        <time>2023-09-09T09:12:13Z</time>
      </trkpt>
      <trkpt lat="42.86533" lon="2.35602">
        <ele>498</ele>
        <time>2023-09-09T09:12:14Z</time>
      </trkpt>
      <trkpt lat="42.86531" lon="2.35603">
        <ele>498</ele>
        <time>2023-09-09T09:12:15Z</time>
      </trkpt>
      <trkpt lat="42.8653" lon="2.35604">
        <ele>498</ele>
        <time>2023-09-09T09:12:16Z</time>
      </trkpt>
      <trkpt lat="42.86528" lon="2.35605">
        <ele>499</ele>
        <time>2023-09-09T09:12:17Z</time>
      </trkpt>
      <trkpt lat="42.86527" lon="2.35606">
        <ele>499</ele>
        <time>2023-09-09T09:12:18Z</time>
      </trkpt>
      <trkpt lat="42.86526" lon="2.35607">
        <ele>499</ele>
        <time>2023-09-09T09:12:19Z</time>
      </trkpt>
      <trkpt lat="42.86524" lon="2.35608">
        <ele>499</ele>
        <time>2023-09-09T09:12:20Z</time>
      </trkpt>
      <trkpt lat="42.86523" lon="2.35609">
        <ele>499</ele>
        <time>2023-09-09T09:12:21Z</time>
      </trkpt>
      <trkpt lat="42.86522" lon="2.3561">
        <ele>500</ele>
        <time>2023-09-09T09:12:22Z</time>
      </trkpt>
      <trkpt lat="42.86521" lon="2.35611">
        <ele>500</ele>
        <time>2023-09-09T09:12:23Z</time>
      </trkpt>
      <trkpt lat="42.86519" lon="2.35611">
        <ele>500</ele>
        <time>2023-09-09T09:12:24Z</time>
      </trkpt>
      <trkpt lat="42.86518" lon="2.35612">
        <ele>500</ele>
        <time>2023-09-09T09:12:25Z</time>
      </trkpt>
      <trkpt lat="42.86517" lon="2.35613">
        <ele>500</ele>
        <time>2023-09-09T09:12:26Z</time>
      </trkpt>
      <trkpt lat="42.86515" lon="2.35614">
        <ele>500</ele>
        <time>2023-09-09T09:12:27Z</time>
      </trkpt>
      <trkpt lat="42.86514" lon="2.35614">
        <ele>500</ele>
        <time>2023-09-09T09:12:28Z</time>
      </trkpt>
      <trkpt lat="42.86513" lon="2.35615">
        <ele>500</ele>
        <time>2023-09-09T09:12:29Z</time>
      </trkpt>
      <trkpt lat="42.86512" lon="2.35615">
        <ele>500</ele>
        <time>2023-09-09T09:12:30Z</time>
      </trkpt>
      <trkpt lat="42.86511" lon="2.35616">
        <ele>500</ele>
        <time>2023-09-09T09:12:31Z</time>
      </trkpt>
      <trkpt lat="42.8651" lon="2.35616">
        <ele>501</ele>
        <time>2023-09-09T09:12:32Z</time>
      </trkpt>
      <trkpt lat="42.86509" lon="2.35617">
        <ele>501</ele>
        <time>2023-09-09T09:12:33Z</time>
      </trkpt>
      <trkpt lat="42.86508" lon="2.35617">
        <ele>501</ele>
        <time>2023-09-09T09:12:34Z</time>
      </trkpt>
      <trkpt lat="42.86507" lon="2.35618">
        <ele>501</ele>
        <time>2023-09-09T09:12:35Z</time>
      </trkpt>
      <trkpt lat="42.86506" lon="2.35619">
        <ele>501</ele>
        <time>2023-09-09T09:12:36Z</time>
      </trkpt>
      <trkpt lat="42.86505" lon="2.35619">
        <ele>502</ele>
        <time>2023-09-09T09:12:37Z</time>
      </trkpt>
      <trkpt lat="42.86504" lon="2.3562">
        <ele>502</ele>
        <time>2023-09-09T09:12:38Z</time>
      </trkpt>
      <trkpt lat="42.86503" lon="2.35621">
        <ele>502</ele>
        <time>2023-09-09T09:12:39Z</time>
      </trkpt>
      <trkpt lat="42.86501" lon="2.35622">
        <ele>502</ele>
        <time>2023-09-09T09:12:40Z</time>
      </trkpt>
      <trkpt lat="42.865" lon="2.35623">
        <ele>502</ele>
        <time>2023-09-09T09:12:41Z</time>
      </trkpt>
      <trkpt lat="42.86498" lon="2.35624">
        <ele>503</ele>
        <time>2023-09-09T09:12:42Z</time>
      </trkpt>
      <trkpt lat="42.86497" lon="2.35625">
        <ele>503</ele>
        <time>2023-09-09T09:12:43Z</time>
      </trkpt>
      <trkpt lat="42.86495" lon="2.35625">
        <ele>503</ele>
        <time>2023-09-09T09:12:44Z</time>
      </trkpt>
      <trkpt lat="42.86493" lon="2.35626">
        <ele>503</ele>
        <time>2023-09-09T09:12:45Z</time>
      </trkpt>
      <trkpt lat="42.86492" lon="2.35627">
        <ele>503</ele>
        <time>2023-09-09T09:12:46Z</time>
      </trkpt>
      <trkpt lat="42.8649" lon="2.35628">
        <ele>503</ele>
        <time>2023-09-09T09:12:47Z</time>
      </trkpt>
      <trkpt lat="42.86489" lon="2.35628">
        <ele>503</ele>
        <time>2023-09-09T09:12:48Z</time>
      </trkpt>
      <trkpt lat="42.86488" lon="2.35629">
        <ele>503</ele>
        <time>2023-09-09T09:12:49Z</time>
      </trkpt>
      <trkpt lat="42.86487" lon="2.3563">
        <ele>503</ele>
        <time>2023-09-09T09:12:50Z</time>
      </trkpt>
      <trkpt lat="42.86485" lon="2.35631">
        <ele>503</ele>
        <time>2023-09-09T09:12:51Z</time>
      </trkpt>
      <trkpt lat="42.86484" lon="2.35632">
        <ele>504</ele>
        <time>2023-09-09T09:12:52Z</time>
      </trkpt>
      <trkpt lat="42.86483" lon="2.35633">
        <ele>504</ele>
        <time>2023-09-09T09:12:53Z</time>
      </trkpt>
      <trkpt lat="42.86482" lon="2.35634">
        <ele>504</ele>
        <time>2023-09-09T09:12:54Z</time>
      </trkpt>
      <trkpt lat="42.86481" lon="2.35636">
        <ele>504</ele>
        <time>2023-09-09T09:12:55Z</time>
      </trkpt>
      <trkpt lat="42.8648" lon="2.35637">
        <ele>504</ele>
        <time>2023-09-09T09:12:56Z</time>
      </trkpt>
      <trkpt lat="42.86478" lon="2.35638">
        <ele>505</ele>
        <time>2023-09-09T09:12:57Z</time>
      </trkpt>
      <trkpt lat="42.86477" lon="2.35638">
        <ele>505</ele>
        <time>2023-09-09T09:12:58Z</time>
      </trkpt>
      <trkpt lat="42.86475" lon="2.35639">
        <ele>505</ele>
        <time>2023-09-09T09:12:59Z</time>
      </trkpt>
      <trkpt lat="42.86474" lon="2.3564">
        <ele>505</ele>
        <time>2023-09-09T09:13:00Z</time>
      </trkpt>
      <trkpt lat="42.86472" lon="2.35641">
        <ele>505</ele>
        <time>2023-09-09T09:13:01Z</time>
      </trkpt>
      <trkpt lat="42.86471" lon="2.35642">
        <ele>506</ele>
        <time>2023-09-09T09:13:02Z</time>
      </trkpt>
      <trkpt lat="42.8647" lon="2.35643">
        <ele>506</ele>
        <time>2023-09-09T09:13:03Z</time>
      </trkpt>
      <trkpt lat="42.86468" lon="2.35645">
        <ele>506</ele>
        <time>2023-09-09T09:13:04Z</time>
      </trkpt>
      <trkpt lat="42.86467" lon="2.35646">
        <ele>506</ele>
        <time>2023-09-09T09:13:05Z</time>
      </trkpt>
      <trkpt lat="42.86466" lon="2.35647">
        <ele>506</ele>
        <time>2023-09-09T09:13:06Z</time>
      </trkpt>
      <trkpt lat="42.86464" lon="2.35649">
        <ele>507</ele>
        <time>2023-09-09T09:13:07Z</time>
      </trkpt>
      <trkpt lat="42.86463" lon="2.35651">
        <ele>507</ele>
        <time>2023-09-09T09:13:08Z</time>
      </trkpt>
      <trkpt lat="42.86461" lon="2.35652">
        <ele>507</ele>
        <time>2023-09-09T09:13:09Z</time>
      </trkpt>
      <trkpt lat="42.8646" lon="2.35654">
        <ele>507</ele>
        <time>2023-09-09T09:13:10Z</time>
      </trkpt>
      <trkpt lat="42.86458" lon="2.35656">
        <ele>507</ele>
        <time>2023-09-09T09:13:11Z</time>
      </trkpt>
      <trkpt lat="42.86457" lon="2.35658">
        <ele>508</ele>
        <time>2023-09-09T09:13:12Z</time>
      </trkpt>
      <trkpt lat="42.86455" lon="2.3566">
        <ele>508</ele>
        <time>2023-09-09T09:13:13Z</time>
      </trkpt>
      <trkpt lat="42.86453" lon="2.35661">
        <ele>508</ele>
        <time>2023-09-09T09:13:14Z</time>
      </trkpt>
      <trkpt lat="42.86451" lon="2.35663">
        <ele>508</ele>
        <time>2023-09-09T09:13:15Z</time>
      </trkpt>
      <trkpt lat="42.86449" lon="2.35665">
        <ele>508</ele>
        <time>2023-09-09T09:13:16Z</time>
      </trkpt>
      <trkpt lat="42.86447" lon="2.35667">
        <ele>509</ele>
        <time>2023-09-09T09:13:17Z</time>
      </trkpt>
      <trkpt lat="42.86445" lon="2.35669">
        <ele>509</ele>
        <time>2023-09-09T09:13:18Z</time>
      </trkpt>
      <trkpt lat="42.86443" lon="2.35671">
        <ele>509</ele>
        <time>2023-09-09T09:13:19Z</time>
      </trkpt>
      <trkpt lat="42.86442" lon="2.35673">
        <ele>509</ele>
        <time>2023-09-09T09:13:20Z</time>
      </trkpt>
      <trkpt lat="42.86441" lon="2.35675">
        <ele>509</ele>
        <time>2023-09-09T09:13:21Z</time>
      </trkpt>
      <trkpt lat="42.86441" lon="2.35677">
        <ele>509</ele>
        <time>2023-09-09T09:13:22Z</time>
      </trkpt>
      <trkpt lat="42.8644" lon="2.35679">
        <ele>509</ele>
        <time>2023-09-09T09:13:23Z</time>
      </trkpt>
      <trkpt lat="42.8644" lon="2.35681">
        <ele>509</ele>
        <time>2023-09-09T09:13:24Z</time>
      </trkpt>
      <trkpt lat="42.86439" lon="2.35682">
        <ele>509</ele>
        <time>2023-09-09T09:13:25Z</time>
      </trkpt>
      <trkpt lat="42.86439" lon="2.35684">
        <ele>509</ele>
        <time>2023-09-09T09:13:26Z</time>
      </trkpt>
      <trkpt lat="42.86438" lon="2.35685">
        <ele>510</ele>
        <time>2023-09-09T09:13:27Z</time>
      </trkpt>
      <trkpt lat="42.86436" lon="2.35686">
        <ele>510</ele>
        <time>2023-09-09T09:13:28Z</time>
      </trkpt>
      <trkpt lat="42.86435" lon="2.35687">
        <ele>510</ele>
        <time>2023-09-09T09:13:29Z</time>
      </trkpt>
      <trkpt lat="42.86433" lon="2.35687">
        <ele>510</ele>
        <time>2023-09-09T09:13:30Z</time>
      </trkpt>
      <trkpt lat="42.86432" lon="2.35688">
        <ele>510</ele>
        <time>2023-09-09T09:13:31Z</time>
      </trkpt>
      <trkpt lat="42.8643" lon="2.35689">
        <ele>510</ele>
        <time>2023-09-09T09:13:32Z</time>
      </trkpt>
      <trkpt lat="42.86429" lon="2.3569">
        <ele>510</ele>
        <time>2023-09-09T09:13:33Z</time>
      </trkpt>
      <trkpt lat="42.86427" lon="2.35691">
        <ele>510</ele>
        <time>2023-09-09T09:13:34Z</time>
      </trkpt>
      <trkpt lat="42.86426" lon="2.35692">
        <ele>510</ele>
        <time>2023-09-09T09:13:35Z</time>
      </trkpt>
      <trkpt lat="42.86424" lon="2.35693">
        <ele>510</ele>
        <time>2023-09-09T09:13:36Z</time>
      </trkpt>
      <trkpt lat="42.86422" lon="2.35694">
        <ele>511</ele>
        <time>2023-09-09T09:13:37Z</time>
      </trkpt>
      <trkpt lat="42.86421" lon="2.35695">
        <ele>511</ele>
        <time>2023-09-09T09:13:38Z</time>
      </trkpt>
      <trkpt lat="42.86419" lon="2.35696">
        <ele>511</ele>
        <time>2023-09-09T09:13:39Z</time>
      </trkpt>
      <trkpt lat="42.86418" lon="2.35697">
        <ele>511</ele>
        <time>2023-09-09T09:13:40Z</time>
      </trkpt>
      <trkpt lat="42.86416" lon="2.35697">
        <ele>511</ele>
        <time>2023-09-09T09:13:41Z</time>
      </trkpt>
      <trkpt lat="42.86414" lon="2.35698">
        <ele>511</ele>
        <time>2023-09-09T09:13:42Z</time>
      </trkpt>
      <trkpt lat="42.86413" lon="2.35698">
        <ele>511</ele>
        <time>2023-09-09T09:13:43Z</time>
      </trkpt>
      <trkpt lat="42.86411" lon="2.35699">
        <ele>511</ele>
        <time>2023-09-09T09:13:44Z</time>
      </trkpt>
      <trkpt lat="42.86409" lon="2.35699">
        <ele>512</ele>
        <time>2023-09-09T09:13:45Z</time>
      </trkpt>
      <trkpt lat="42.86408" lon="2.357">
        <ele>512</ele>
        <time>2023-09-09T09:13:46Z</time>
      </trkpt>
      <trkpt lat="42.86406" lon="2.35701">
        <ele>513</ele>
        <time>2023-09-09T09:13:47Z</time>
      </trkpt>
      <trkpt lat="42.86405" lon="2.35701">
        <ele>513</ele>
        <time>2023-09-09T09:13:48Z</time>
      </trkpt>
      <trkpt lat="42.86404" lon="2.35702">
        <ele>513</ele>
        <time>2023-09-09T09:13:49Z</time>
      </trkpt>
      <trkpt lat="42.86403" lon="2.35703">
        <ele>513</ele>
        <time>2023-09-09T09:13:50Z</time>
      </trkpt>
      <trkpt lat="42.86401" lon="2.35704">
        <ele>513</ele>
        <time>2023-09-09T09:13:51Z</time>
      </trkpt>
      <trkpt lat="42.864" lon="2.35704">
        <ele>513</ele>
        <time>2023-09-09T09:13:52Z</time>
      </trkpt>
      <trkpt lat="42.86399" lon="2.35705">
        <ele>513</ele>
        <time>2023-09-09T09:13:53Z</time>
      </trkpt>
      <trkpt lat="42.86397" lon="2.35706">
        <ele>513</ele>
        <time>2023-09-09T09:13:54Z</time>
      </trkpt>
      <trkpt lat="42.86396" lon="2.35707">
        <ele>513</ele>
        <time>2023-09-09T09:13:55Z</time>
      </trkpt>
      <trkpt lat="42.86394" lon="2.35708">
        <ele>513</ele>
        <time>2023-09-09T09:13:56Z</time>
      </trkpt>
      <trkpt lat="42.86393" lon="2.35709">
        <ele>513</ele>
        <time>2023-09-09T09:13:57Z</time>
      </trkpt>
      <trkpt lat="42.86391" lon="2.3571">
        <ele>513</ele>
        <time>2023-09-09T09:13:58Z</time>
      </trkpt>
      <trkpt lat="42.8639" lon="2.35711">
        <ele>513</ele>
        <time>2023-09-09T09:13:59Z</time>
      </trkpt>
      <trkpt lat="42.86388" lon="2.35712">
        <ele>513</ele>
        <time>2023-09-09T09:14:00Z</time>
      </trkpt>
      <trkpt lat="42.86386" lon="2.35714">
        <ele>513</ele>
        <time>2023-09-09T09:14:01Z</time>
      </trkpt>
      <trkpt lat="42.86385" lon="2.35715">
        <ele>513</ele>
        <time>2023-09-09T09:14:02Z</time>
      </trkpt>
      <trkpt lat="42.86383" lon="2.35716">
        <ele>513</ele>
        <time>2023-09-09T09:14:03Z</time>
      </trkpt>
      <trkpt lat="42.86381" lon="2.35717">
        <ele>513</ele>
        <time>2023-09-09T09:14:04Z</time>
      </trkpt>
      <trkpt lat="42.8638" lon="2.35718">
        <ele>513</ele>
        <time>2023-09-09T09:14:05Z</time>
      </trkpt>
      <trkpt lat="42.86378" lon="2.35718">
        <ele>513</ele>
        <time>2023-09-09T09:14:06Z</time>
      </trkpt>
      <trkpt lat="42.86376" lon="2.35719">
        <ele>514</ele>
        <time>2023-09-09T09:14:07Z</time>
      </trkpt>
      <trkpt lat="42.86375" lon="2.3572">
        <ele>514</ele>
        <time>2023-09-09T09:14:08Z</time>
      </trkpt>
      <trkpt lat="42.86373" lon="2.3572">
        <ele>514</ele>
        <time>2023-09-09T09:14:09Z</time>
      </trkpt>
      <trkpt lat="42.86371" lon="2.35721">
        <ele>514</ele>
        <time>2023-09-09T09:14:10Z</time>
      </trkpt>
      <trkpt lat="42.86369" lon="2.35721">
        <ele>514</ele>
        <time>2023-09-09T09:14:11Z</time>
      </trkpt>
      <trkpt lat="42.86368" lon="2.35722">
        <ele>515</ele>
        <time>2023-09-09T09:14:12Z</time>
      </trkpt>
      <trkpt lat="42.86366" lon="2.35722">
        <ele>515</ele>
        <time>2023-09-09T09:14:13Z</time>
      </trkpt>
      <trkpt lat="42.86364" lon="2.35722">
        <ele>515</ele>
        <time>2023-09-09T09:14:14Z</time>
      </trkpt>
      <trkpt lat="42.86362" lon="2.35722">
        <ele>515</ele>
        <time>2023-09-09T09:14:15Z</time>
      </trkpt>
      <trkpt lat="42.8636" lon="2.35723">
        <ele>515</ele>
        <time>2023-09-09T09:14:16Z</time>
      </trkpt>
      <trkpt lat="42.86358" lon="2.35723">
        <ele>516</ele>
        <time>2023-09-09T09:14:17Z</time>
      </trkpt>
      <trkpt lat="42.86356" lon="2.35723">
        <ele>516</ele>
        <time>2023-09-09T09:14:18Z</time>
      </trkpt>
      <trkpt lat="42.86355" lon="2.35723">
        <ele>516</ele>
        <time>2023-09-09T09:14:19Z</time>
      </trkpt>
      <trkpt lat="42.86353" lon="2.35724">
        <ele>516</ele>
        <time>2023-09-09T09:14:20Z</time>
      </trkpt>
      <trkpt lat="42.86351" lon="2.35725">
        <ele>516</ele>
        <time>2023-09-09T09:14:21Z</time>
      </trkpt>
      <trkpt lat="42.8635" lon="2.35726">
        <ele>517</ele>
        <time>2023-09-09T09:14:22Z</time>
      </trkpt>
      <trkpt lat="42.86348" lon="2.35727">
        <ele>517</ele>
        <time>2023-09-09T09:14:23Z</time>
      </trkpt>
      <trkpt lat="42.86346" lon="2.35728">
        <ele>517</ele>
        <time>2023-09-09T09:14:24Z</time>
      </trkpt>
      <trkpt lat="42.86345" lon="2.35729">
        <ele>517</ele>
        <time>2023-09-09T09:14:25Z</time>
      </trkpt>
      <trkpt lat="42.86343" lon="2.3573">
        <ele>517</ele>
        <time>2023-09-09T09:14:26Z</time>
      </trkpt>
      <trkpt lat="42.86341" lon="2.35731">
        <ele>517</ele>
        <time>2023-09-09T09:14:27Z</time>
      </trkpt>
      <trkpt lat="42.86339" lon="2.35732">
        <ele>517</ele>
        <time>2023-09-09T09:14:28Z</time>
      </trkpt>
      <trkpt lat="42.86338" lon="2.35733">
        <ele>517</ele>
        <time>2023-09-09T09:14:29Z</time>
      </trkpt>
      <trkpt lat="42.86336" lon="2.35734">
        <ele>517</ele>
        <time>2023-09-09T09:14:30Z</time>
      </trkpt>
      <trkpt lat="42.86334" lon="2.35735">
        <ele>517</ele>
        <time>2023-09-09T09:14:31Z</time>
      </trkpt>
      <trkpt lat="42.86333" lon="2.35736">
        <ele>518</ele>
        <time>2023-09-09T09:14:32Z</time>
      </trkpt>
      <trkpt lat="42.86331" lon="2.35737">
        <ele>518</ele>
        <time>2023-09-09T09:14:33Z</time>
      </trkpt>
      <trkpt lat="42.8633" lon="2.35738">
        <ele>518</ele>
        <time>2023-09-09T09:14:34Z</time>
      </trkpt>
      <trkpt lat="42.86328" lon="2.35739">
        <ele>518</ele>
        <time>2023-09-09T09:14:35Z</time>
      </trkpt>
      <trkpt lat="42.86326" lon="2.3574">
        <ele>518</ele>
        <time>2023-09-09T09:14:36Z</time>
      </trkpt>
      <trkpt lat="42.86325" lon="2.35741">
        <ele>518</ele>
        <time>2023-09-09T09:14:37Z</time>
      </trkpt>
      <trkpt lat="42.86323" lon="2.35743">
        <ele>518</ele>
        <time>2023-09-09T09:14:38Z</time>
      </trkpt>
      <trkpt lat="42.86322" lon="2.35744">
        <ele>518</ele>
        <time>2023-09-09T09:14:39Z</time>
      </trkpt>
      <trkpt lat="42.8632" lon="2.35746">
        <ele>518</ele>
        <time>2023-09-09T09:14:40Z</time>
      </trkpt>
      <trkpt lat="42.86319" lon="2.35747">
        <ele>518</ele>
        <time>2023-09-09T09:14:41Z</time>
      </trkpt>
      <trkpt lat="42.86318" lon="2.35749">
        <ele>519</ele>
        <time>2023-09-09T09:14:42Z</time>
      </trkpt>
      <trkpt lat="42.86316" lon="2.3575">
        <ele>519</ele>
        <time>2023-09-09T09:14:43Z</time>
      </trkpt>
      <trkpt lat="42.86315" lon="2.35751">
        <ele>519</ele>
        <time>2023-09-09T09:14:44Z</time>
      </trkpt>
      <trkpt lat="42.86314" lon="2.35753">
        <ele>519</ele>
        <time>2023-09-09T09:14:45Z</time>
      </trkpt>
      <trkpt lat="42.86312" lon="2.35754">
        <ele>519</ele>
        <time>2023-09-09T09:14:46Z</time>
      </trkpt>
      <trkpt lat="42.86311" lon="2.35755">
        <ele>520</ele>
        <time>2023-09-09T09:14:47Z</time>
      </trkpt>
      <trkpt lat="42.8631" lon="2.35757">
        <ele>520</ele>
        <time>2023-09-09T09:14:48Z</time>
      </trkpt>
      <trkpt lat="42.86308" lon="2.35758">
        <ele>520</ele>
        <time>2023-09-09T09:14:49Z</time>
      </trkpt>
      <trkpt lat="42.86307" lon="2.35759">
        <ele>520</ele>
        <time>2023-09-09T09:14:50Z</time>
      </trkpt>
      <trkpt lat="42.86306" lon="2.3576">
        <ele>520</ele>
        <time>2023-09-09T09:14:51Z</time>
      </trkpt>
      <trkpt lat="42.86305" lon="2.35761">
        <ele>520</ele>
        <time>2023-09-09T09:14:52Z</time>
      </trkpt>
      <trkpt lat="42.86304" lon="2.35762">
        <ele>520</ele>
        <time>2023-09-09T09:14:53Z</time>
      </trkpt>
      <trkpt lat="42.86303" lon="2.35763">
        <ele>520</ele>
        <time>2023-09-09T09:14:54Z</time>
      </trkpt>
      <trkpt lat="42.86301" lon="2.35764">
        <ele>520</ele>
        <time>2023-09-09T09:14:55Z</time>
      </trkpt>
      <trkpt lat="42.863" lon="2.35766">
        <ele>520</ele>
        <time>2023-09-09T09:14:56Z</time>
      </trkpt>
      <trkpt lat="42.86299" lon="2.35768">
        <ele>521</ele>
        <time>2023-09-09T09:14:57Z</time>
      </trkpt>
      <trkpt lat="42.86298" lon="2.3577">
        <ele>521</ele>
        <time>2023-09-09T09:14:58Z</time>
      </trkpt>
      <trkpt lat="42.86297" lon="2.35772">
        <ele>521</ele>
        <time>2023-09-09T09:14:59Z</time>
      </trkpt>
      <trkpt lat="42.86296" lon="2.35774">
        <ele>521</ele>
        <time>2023-09-09T09:15:00Z</time>
      </trkpt>
      <trkpt lat="42.86295" lon="2.35775">
        <ele>521</ele>
        <time>2023-09-09T09:15:01Z</time>
      </trkpt>
      <trkpt lat="42.86295" lon="2.35777">
        <ele>521</ele>
        <time>2023-09-09T09:15:02Z</time>
      </trkpt>
      <trkpt lat="42.86294" lon="2.35778">
        <ele>521</ele>
        <time>2023-09-09T09:15:03Z</time>
      </trkpt>
      <trkpt lat="42.86294" lon="2.3578">
        <ele>521</ele>
        <time>2023-09-09T09:15:04Z</time>
      </trkpt>
      <trkpt lat="42.86293" lon="2.35781">
        <ele>521</ele>
        <time>2023-09-09T09:15:05Z</time>
      </trkpt>
      <trkpt lat="42.86292" lon="2.35783">
        <ele>521</ele>
        <time>2023-09-09T09:15:06Z</time>
      </trkpt>
      <trkpt lat="42.86291" lon="2.35784">
        <ele>521</ele>
        <time>2023-09-09T09:15:07Z</time>
      </trkpt>
      <trkpt lat="42.8629" lon="2.35786">
        <ele>521</ele>
        <time>2023-09-09T09:15:08Z</time>
      </trkpt>
      <trkpt lat="42.86289" lon="2.35788">
        <ele>521</ele>
        <time>2023-09-09T09:15:09Z</time>
      </trkpt>
      <trkpt lat="42.86288" lon="2.3579">
        <ele>521</ele>
        <time>2023-09-09T09:15:10Z</time>
      </trkpt>
      <trkpt lat="42.86287" lon="2.35792">
        <ele>521</ele>
        <time>2023-09-09T09:15:11Z</time>
      </trkpt>
      <trkpt lat="42.86285" lon="2.35793">
        <ele>522</ele>
        <time>2023-09-09T09:15:12Z</time>
      </trkpt>
      <trkpt lat="42.86284" lon="2.35795">
        <ele>522</ele>
        <time>2023-09-09T09:15:13Z</time>
      </trkpt>
      <trkpt lat="42.86282" lon="2.35797">
        <ele>522</ele>
        <time>2023-09-09T09:15:14Z</time>
      </trkpt>
      <trkpt lat="42.86281" lon="2.35798">
        <ele>522</ele>
        <time>2023-09-09T09:15:15Z</time>
      </trkpt>
      <trkpt lat="42.86279" lon="2.35799">
        <ele>522</ele>
        <time>2023-09-09T09:15:16Z</time>
      </trkpt>
      <trkpt lat="42.86277" lon="2.358">
        <ele>523</ele>
        <time>2023-09-09T09:15:17Z</time>
      </trkpt>
      <trkpt lat="42.86274" lon="2.358">
        <ele>523</ele>
        <time>2023-09-09T09:15:18Z</time>
      </trkpt>
      <trkpt lat="42.86272" lon="2.35801">
        <ele>523</ele>
        <time>2023-09-09T09:15:19Z</time>
      </trkpt>
      <trkpt lat="42.8627" lon="2.35801">
        <ele>523</ele>
        <time>2023-09-09T09:15:20Z</time>
      </trkpt>
      <trkpt lat="42.86268" lon="2.35801">
        <ele>523</ele>
        <time>2023-09-09T09:15:21Z</time>
      </trkpt>
      <trkpt lat="42.86266" lon="2.358">
        <ele>524</ele>
        <time>2023-09-09T09:15:22Z</time>
      </trkpt>
      <trkpt lat="42.86263" lon="2.35799">
        <ele>524</ele>
        <time>2023-09-09T09:15:23Z</time>
      </trkpt>
      <trkpt lat="42.86261" lon="2.35798">
        <ele>524</ele>
        <time>2023-09-09T09:15:24Z</time>
      </trkpt>
      <trkpt lat="42.86259" lon="2.35798">
        <ele>524</ele>
        <time>2023-09-09T09:15:25Z</time>
      </trkpt>
      <trkpt lat="42.86258" lon="2.35797">
        <ele>524</ele>
        <time>2023-09-09T09:15:26Z</time>
      </trkpt>
      <trkpt lat="42.86256" lon="2.35796">
        <ele>524</ele>
        <time>2023-09-09T09:15:27Z</time>
      </trkpt>
      <trkpt lat="42.86254" lon="2.35796">
        <ele>524</ele>
        <time>2023-09-09T09:15:28Z</time>
      </trkpt>
      <trkpt lat="42.86253" lon="2.35795">
        <ele>524</ele>
        <time>2023-09-09T09:15:29Z</time>
      </trkpt>
      <trkpt lat="42.86251" lon="2.35795">
        <ele>524</ele>
        <time>2023-09-09T09:15:30Z</time>
      </trkpt>
      <trkpt lat="42.8625" lon="2.35794">
        <ele>524</ele>
        <time>2023-09-09T09:15:31Z</time>
      </trkpt>
      <trkpt lat="42.86249" lon="2.35794">
        <ele>525</ele>
        <time>2023-09-09T09:15:32Z</time>
      </trkpt>
      <trkpt lat="42.86247" lon="2.35793">
        <ele>525</ele>
        <time>2023-09-09T09:15:33Z</time>
      </trkpt>
      <trkpt lat="42.86246" lon="2.35793">
        <ele>525</ele>
        <time>2023-09-09T09:15:34Z</time>
      </trkpt>
      <trkpt lat="42.86245" lon="2.35792">
        <ele>525</ele>
        <time>2023-09-09T09:15:35Z</time>
      </trkpt>
      <trkpt lat="42.86244" lon="2.35792">
        <ele>525</ele>
        <time>2023-09-09T09:15:36Z</time>
      </trkpt>
      <trkpt lat="42.86242" lon="2.35792">
        <ele>526</ele>
        <time>2023-09-09T09:15:37Z</time>
      </trkpt>
      <trkpt lat="42.86241" lon="2.35793">
        <ele>526</ele>
        <time>2023-09-09T09:15:38Z</time>
      </trkpt>
      <trkpt lat="42.86239" lon="2.35793">
        <ele>526</ele>
        <time>2023-09-09T09:15:39Z</time>
      </trkpt>
      <trkpt lat="42.86238" lon="2.35794">
        <ele>526</ele>
        <time>2023-09-09T09:15:40Z</time>
      </trkpt>
      <trkpt lat="42.86237" lon="2.35794">
        <ele>526</ele>
        <time>2023-09-09T09:15:41Z</time>
      </trkpt>
      <trkpt lat="42.86235" lon="2.35795">
        <ele>526</ele>
        <time>2023-09-09T09:15:42Z</time>
      </trkpt>
      <trkpt lat="42.86234" lon="2.35796">
        <ele>526</ele>
        <time>2023-09-09T09:15:43Z</time>
      </trkpt>
      <trkpt lat="42.86233" lon="2.35797">
        <ele>526</ele>
        <time>2023-09-09T09:15:44Z</time>
      </trkpt>
      <trkpt lat="42.86232" lon="2.35799">
        <ele>526</ele>
        <time>2023-09-09T09:15:45Z</time>
      </trkpt>
      <trkpt lat="42.86231" lon="2.35801">
        <ele>526</ele>
        <time>2023-09-09T09:15:46Z</time>
      </trkpt>
      <trkpt lat="42.8623" lon="2.35803">
        <ele>526</ele>
        <time>2023-09-09T09:15:47Z</time>
      </trkpt>
      <trkpt lat="42.86229" lon="2.35805">
        <ele>526</ele>
        <time>2023-09-09T09:15:48Z</time>
      </trkpt>
      <trkpt lat="42.86228" lon="2.35807">
        <ele>526</ele>
        <time>2023-09-09T09:15:49Z</time>
      </trkpt>
      <trkpt lat="42.86228" lon="2.3581">
        <ele>526</ele>
        <time>2023-09-09T09:15:50Z</time>
      </trkpt>
      <trkpt lat="42.86227" lon="2.35813">
        <ele>526</ele>
        <time>2023-09-09T09:15:51Z</time>
      </trkpt>
      <trkpt lat="42.86227" lon="2.35816">
        <ele>527</ele>
        <time>2023-09-09T09:15:52Z</time>
      </trkpt>
      <trkpt lat="42.86226" lon="2.35818">
        <ele>527</ele>
        <time>2023-09-09T09:15:53Z</time>
      </trkpt>
      <trkpt lat="42.86226" lon="2.35821">
        <ele>527</ele>
        <time>2023-09-09T09:15:54Z</time>
      </trkpt>
      <trkpt lat="42.86226" lon="2.35824">
        <ele>527</ele>
        <time>2023-09-09T09:15:55Z</time>
      </trkpt>
      <trkpt lat="42.86225" lon="2.35827">
        <ele>527</ele>
        <time>2023-09-09T09:15:56Z</time>
      </trkpt>
      <trkpt lat="42.86225" lon="2.35829">
        <ele>527</ele>
        <time>2023-09-09T09:15:57Z</time>
      </trkpt>
      <trkpt lat="42.86224" lon="2.35831">
        <ele>527</ele>
        <time>2023-09-09T09:15:58Z</time>
      </trkpt>
      <trkpt lat="42.86223" lon="2.35833">
        <ele>527</ele>
        <time>2023-09-09T09:15:59Z</time>
      </trkpt>
      <trkpt lat="42.86222" lon="2.35835">
        <ele>527</ele>
        <time>2023-09-09T09:16:00Z</time>
      </trkpt>
      <trkpt lat="42.86221" lon="2.35837">
        <ele>527</ele>
        <time>2023-09-09T09:16:01Z</time>
      </trkpt>
      <trkpt lat="42.86219" lon="2.35839">
        <ele>528</ele>
        <time>2023-09-09T09:16:02Z</time>
      </trkpt>
      <trkpt lat="42.86217" lon="2.35841">
        <ele>528</ele>
        <time>2023-09-09T09:16:03Z</time>
      </trkpt>
      <trkpt lat="42.86216" lon="2.35843">
        <ele>528</ele>
        <time>2023-09-09T09:16:04Z</time>
      </trkpt>
      <trkpt lat="42.86214" lon="2.35845">
        <ele>528</ele>
        <time>2023-09-09T09:16:05Z</time>
      </trkpt>
      <trkpt lat="42.86212" lon="2.35847">
        <ele>528</ele>
        <time>2023-09-09T09:16:06Z</time>
      </trkpt>
      <trkpt lat="42.8621" lon="2.35849">
        <ele>528</ele>
        <time>2023-09-09T09:16:07Z</time>
      </trkpt>
      <trkpt lat="42.86208" lon="2.35851">
        <ele>528</ele>
        <time>2023-09-09T09:16:08Z</time>
      </trkpt>
      <trkpt lat="42.86206" lon="2.35852">
        <ele>528</ele>
        <time>2023-09-09T09:16:09Z</time>
      </trkpt>
      <trkpt lat="42.86204" lon="2.35854">
        <ele>528</ele>
        <time>2023-09-09T09:16:10Z</time>
      </trkpt>
      <trkpt lat="42.86202" lon="2.35856">
        <ele>528</ele>
        <time>2023-09-09T09:16:11Z</time>
      </trkpt>
      <trkpt lat="42.86201" lon="2.35858">
        <ele>528</ele>
        <time>2023-09-09T09:16:12Z</time>
      </trkpt>
      <trkpt lat="42.86199" lon="2.3586">
        <ele>527</ele>
        <time>2023-09-09T09:16:13Z</time>
      </trkpt>
      <trkpt lat="42.86197" lon="2.35862">
        <ele>527</ele>
        <time>2023-09-09T09:16:14Z</time>
      </trkpt>
      <trkpt lat="42.86196" lon="2.35864">
        <ele>527</ele>
        <time>2023-09-09T09:16:15Z</time>
      </trkpt>
      <trkpt lat="42.86194" lon="2.35865">
        <ele>527</ele>
        <time>2023-09-09T09:16:16Z</time>
      </trkpt>
      <trkpt lat="42.86192" lon="2.35867">
        <ele>527</ele>
        <time>2023-09-09T09:16:17Z</time>
      </trkpt>
      <trkpt lat="42.8619" lon="2.35869">
        <ele>527</ele>
        <time>2023-09-09T09:16:18Z</time>
      </trkpt>
      <trkpt lat="42.86188" lon="2.3587">
        <ele>527</ele>
        <time>2023-09-09T09:16:19Z</time>
      </trkpt>
      <trkpt lat="42.86187" lon="2.35872">
        <ele>527</ele>
        <time>2023-09-09T09:16:20Z</time>
      </trkpt>
      <trkpt lat="42.86185" lon="2.35873">
        <ele>527</ele>
        <time>2023-09-09T09:16:21Z</time>
      </trkpt>
      <trkpt lat="42.86183" lon="2.35875">
        <ele>527</ele>
        <time>2023-09-09T09:16:22Z</time>
      </trkpt>
      <trkpt lat="42.86182" lon="2.35876">
        <ele>526</ele>
        <time>2023-09-09T09:16:23Z</time>
      </trkpt>
      <trkpt lat="42.8618" lon="2.35878">
        <ele>526</ele>
        <time>2023-09-09T09:16:24Z</time>
      </trkpt>
      <trkpt lat="42.86179" lon="2.35879">
        <ele>526</ele>
        <time>2023-09-09T09:16:25Z</time>
      </trkpt>
      <trkpt lat="42.86177" lon="2.35881">
        <ele>526</ele>
        <time>2023-09-09T09:16:26Z</time>
      </trkpt>
      <trkpt lat="42.86175" lon="2.35882">
        <ele>526</ele>
        <time>2023-09-09T09:16:27Z</time>
      </trkpt>
      <trkpt lat="42.86173" lon="2.35883">
        <ele>526</ele>
        <time>2023-09-09T09:16:28Z</time>
      </trkpt>
      <trkpt lat="42.8617" lon="2.35884">
        <ele>526</ele>
        <time>2023-09-09T09:16:29Z</time>
      </trkpt>
      <trkpt lat="42.86169" lon="2.35885">
        <ele>526</ele>
        <time>2023-09-09T09:16:30Z</time>
      </trkpt>
      <trkpt lat="42.86167" lon="2.35886">
        <ele>526</ele>
        <time>2023-09-09T09:16:31Z</time>
      </trkpt>
      <trkpt lat="42.86165" lon="2.35887">
        <ele>526</ele>
        <time>2023-09-09T09:16:32Z</time>
      </trkpt>
      <trkpt lat="42.86163" lon="2.35887">
        <ele>526</ele>
        <time>2023-09-09T09:16:33Z</time>
      </trkpt>
      <trkpt lat="42.86161" lon="2.35888">
        <ele>526</ele>
        <time>2023-09-09T09:16:34Z</time>
      </trkpt>
      <trkpt lat="42.86159" lon="2.35888">
        <ele>526</ele>
        <time>2023-09-09T09:16:35Z</time>
      </trkpt>
      <trkpt lat="42.86157" lon="2.35889">
        <ele>526</ele>
        <time>2023-09-09T09:16:36Z</time>
      </trkpt>
      <trkpt lat="42.86155" lon="2.35889">
        <ele>526</ele>
        <time>2023-09-09T09:16:37Z</time>
      </trkpt>
      <trkpt lat="42.86153" lon="2.3589">
        <ele>526</ele>
        <time>2023-09-09T09:16:38Z</time>
      </trkpt>
      <trkpt lat="42.86151" lon="2.35891">
        <ele>526</ele>
        <time>2023-09-09T09:16:39Z</time>
      </trkpt>
      <trkpt lat="42.86149" lon="2.35892">
        <ele>526</ele>
        <time>2023-09-09T09:16:40Z</time>
      </trkpt>
      <trkpt lat="42.86148" lon="2.35892">
        <ele>526</ele>
        <time>2023-09-09T09:16:41Z</time>
      </trkpt>
      <trkpt lat="42.86146" lon="2.35894">
        <ele>526</ele>
        <time>2023-09-09T09:16:42Z</time>
      </trkpt>
      <trkpt lat="42.86145" lon="2.35895">
        <ele>526</ele>
        <time>2023-09-09T09:16:43Z</time>
      </trkpt>
      <trkpt lat="42.86143" lon="2.35897">
        <ele>526</ele>
        <time>2023-09-09T09:16:44Z</time>
      </trkpt>
      <trkpt lat="42.86142" lon="2.35898">
        <ele>526</ele>
        <time>2023-09-09T09:16:45Z</time>
      </trkpt>
      <trkpt lat="42.8614" lon="2.359">
        <ele>526</ele>
        <time>2023-09-09T09:16:46Z</time>
      </trkpt>
      <trkpt lat="42.86139" lon="2.35901">
        <ele>526</ele>
        <time>2023-09-09T09:16:47Z</time>
      </trkpt>
      <trkpt lat="42.86137" lon="2.35902">
        <ele>526</ele>
        <time>2023-09-09T09:16:48Z</time>
      </trkpt>
      <trkpt lat="42.86136" lon="2.35903">
        <ele>526</ele>
        <time>2023-09-09T09:16:49Z</time>
      </trkpt>
      <trkpt lat="42.86134" lon="2.35904">
        <ele>526</ele>
        <time>2023-09-09T09:16:50Z</time>
      </trkpt>
      <trkpt lat="42.86133" lon="2.35905">
        <ele>526</ele>
        <time>2023-09-09T09:16:51Z</time>
      </trkpt>
      <trkpt lat="42.86132" lon="2.35907">
        <ele>526</ele>
        <time>2023-09-09T09:16:52Z</time>
      </trkpt>
      <trkpt lat="42.86131" lon="2.35908">
        <ele>526</ele>
        <time>2023-09-09T09:16:53Z</time>
      </trkpt>
      <trkpt lat="42.8613" lon="2.35909">
        <ele>526</ele>
        <time>2023-09-09T09:16:54Z</time>
      </trkpt>
      <trkpt lat="42.86129" lon="2.35911">
        <ele>526</ele>
        <time>2023-09-09T09:16:55Z</time>
      </trkpt>
      <trkpt lat="42.86128" lon="2.35913">
        <ele>526</ele>
        <time>2023-09-09T09:16:56Z</time>
      </trkpt>
      <trkpt lat="42.86128" lon="2.35915">
        <ele>526</ele>
        <time>2023-09-09T09:16:57Z</time>
      </trkpt>
      <trkpt lat="42.86127" lon="2.35917">
        <ele>526</ele>
        <time>2023-09-09T09:16:58Z</time>
      </trkpt>
      <trkpt lat="42.86126" lon="2.35919">
        <ele>526</ele>
        <time>2023-09-09T09:16:59Z</time>
      </trkpt>
      <trkpt lat="42.86125" lon="2.35921">
        <ele>526</ele>
        <time>2023-09-09T09:17:00Z</time>
      </trkpt>
      <trkpt lat="42.86124" lon="2.35924">
        <ele>526</ele>
        <time>2023-09-09T09:17:01Z</time>
      </trkpt>
      <trkpt lat="42.86123" lon="2.35926">
        <ele>527</ele>
        <time>2023-09-09T09:17:02Z</time>
      </trkpt>
      <trkpt lat="42.86122" lon="2.35927">
        <ele>527</ele>
        <time>2023-09-09T09:17:03Z</time>
      </trkpt>
      <trkpt lat="42.86121" lon="2.35929">
        <ele>527</ele>
        <time>2023-09-09T09:17:04Z</time>
      </trkpt>
      <trkpt lat="42.8612" lon="2.35931">
        <ele>527</ele>
        <time>2023-09-09T09:17:05Z</time>
      </trkpt>
      <trkpt lat="42.86119" lon="2.35932">
        <ele>527</ele>
        <time>2023-09-09T09:17:06Z</time>
      </trkpt>
      <trkpt lat="42.86118" lon="2.35933">
        <ele>527</ele>
        <time>2023-09-09T09:17:07Z</time>
      </trkpt>
      <trkpt lat="42.86118" lon="2.35935">
        <ele>527</ele>
        <time>2023-09-09T09:17:08Z</time>
      </trkpt>
      <trkpt lat="42.86117" lon="2.35936">
        <ele>527</ele>
        <time>2023-09-09T09:17:09Z</time>
      </trkpt>
      <trkpt lat="42.86116" lon="2.35938">
        <ele>527</ele>
        <time>2023-09-09T09:17:10Z</time>
      </trkpt>
      <trkpt lat="42.86116" lon="2.3594">
        <ele>527</ele>
        <time>2023-09-09T09:17:11Z</time>
      </trkpt>
      <trkpt lat="42.86115" lon="2.35942">
        <ele>528</ele>
        <time>2023-09-09T09:17:12Z</time>
      </trkpt>
      <trkpt lat="42.86115" lon="2.35944">
        <ele>528</ele>
        <time>2023-09-09T09:17:13Z</time>
      </trkpt>
      <trkpt lat="42.86114" lon="2.35946">
        <ele>528</ele>
        <time>2023-09-09T09:17:14Z</time>
      </trkpt>
      <trkpt lat="42.86113" lon="2.35948">
        <ele>528</ele>
        <time>2023-09-09T09:17:15Z</time>
      </trkpt>
      <trkpt lat="42.86113" lon="2.3595">
        <ele>528</ele>
        <time>2023-09-09T09:17:16Z</time>
      </trkpt>
      <trkpt lat="42.86112" lon="2.35951">
        <ele>528</ele>
        <time>2023-09-09T09:17:17Z</time>
      </trkpt>
      <trkpt lat="42.86111" lon="2.35953">
        <ele>528</ele>
        <time>2023-09-09T09:17:18Z</time>
      </trkpt>
      <trkpt lat="42.86108" lon="2.35954">
        <ele>528</ele>
        <time>2023-09-09T09:17:19Z</time>
      </trkpt>
      <trkpt lat="42.86106" lon="2.35955">
        <ele>528</ele>
        <time>2023-09-09T09:17:20Z</time>
      </trkpt>
      <trkpt lat="42.86103" lon="2.35955">
        <ele>528</ele>
        <time>2023-09-09T09:17:21Z</time>
      </trkpt>
      <trkpt lat="42.861" lon="2.35955">
        <ele>528</ele>
        <time>2023-09-09T09:17:22Z</time>
      </trkpt>
      <trkpt lat="42.86097" lon="2.35956">
        <ele>528</ele>
        <time>2023-09-09T09:17:23Z</time>
      </trkpt>
      <trkpt lat="42.86094" lon="2.35956">
        <ele>528</ele>
        <time>2023-09-09T09:17:24Z</time>
      </trkpt>
      <trkpt lat="42.86092" lon="2.35957">
        <ele>528</ele>
        <time>2023-09-09T09:17:25Z</time>
      </trkpt>
      <trkpt lat="42.8609" lon="2.35959">
        <ele>528</ele>
        <time>2023-09-09T09:17:26Z</time>
      </trkpt>
      <trkpt lat="42.86088" lon="2.3596">
        <ele>528</ele>
        <time>2023-09-09T09:17:27Z</time>
      </trkpt>
      <trkpt lat="42.86086" lon="2.35962">
        <ele>528</ele>
        <time>2023-09-09T09:17:28Z</time>
      </trkpt>
      <trkpt lat="42.86085" lon="2.35964">
        <ele>528</ele>
        <time>2023-09-09T09:17:29Z</time>
      </trkpt>
      <trkpt lat="42.86084" lon="2.35966">
        <ele>529</ele>
        <time>2023-09-09T09:17:30Z</time>
      </trkpt>
      <trkpt lat="42.86084" lon="2.35969">
        <ele>529</ele>
        <time>2023-09-09T09:17:31Z</time>
      </trkpt>
      <trkpt lat="42.86083" lon="2.35972">
        <ele>530</ele>
        <time>2023-09-09T09:17:32Z</time>
      </trkpt>
      <trkpt lat="42.86083" lon="2.35975">
        <ele>530</ele>
        <time>2023-09-09T09:17:33Z</time>
      </trkpt>
      <trkpt lat="42.86082" lon="2.35978">
        <ele>530</ele>
        <time>2023-09-09T09:17:34Z</time>
      </trkpt>
      <trkpt lat="42.86081" lon="2.35981">
        <ele>530</ele>
        <time>2023-09-09T09:17:35Z</time>
      </trkpt>
      <trkpt lat="42.8608" lon="2.35983">
        <ele>530</ele>
        <time>2023-09-09T09:17:36Z</time>
      </trkpt>
      <trkpt lat="42.86079" lon="2.35986">
        <ele>530</ele>
        <time>2023-09-09T09:17:37Z</time>
      </trkpt>
      <trkpt lat="42.86078" lon="2.35989">
        <ele>529</ele>
        <time>2023-09-09T09:17:38Z</time>
      </trkpt>
      <trkpt lat="42.86076" lon="2.35991">
        <ele>529</ele>
        <time>2023-09-09T09:17:39Z</time>
      </trkpt>
      <trkpt lat="42.86074" lon="2.35993">
        <ele>528</ele>
        <time>2023-09-09T09:17:40Z</time>
      </trkpt>
      <trkpt lat="42.86071" lon="2.35994">
        <ele>528</ele>
        <time>2023-09-09T09:17:41Z</time>
      </trkpt>
      <trkpt lat="42.86069" lon="2.35995">
        <ele>528</ele>
        <time>2023-09-09T09:17:42Z</time>
      </trkpt>
      <trkpt lat="42.86066" lon="2.35996">
        <ele>528</ele>
        <time>2023-09-09T09:17:43Z</time>
      </trkpt>
      <trkpt lat="42.86062" lon="2.35997">
        <ele>528</ele>
        <time>2023-09-09T09:17:44Z</time>
      </trkpt>
      <trkpt lat="42.86059" lon="2.35997">
        <ele>528</ele>
        <time>2023-09-09T09:17:45Z</time>
      </trkpt>
      <trkpt lat="42.86056" lon="2.35997">
        <ele>528</ele>
        <time>2023-09-09T09:17:46Z</time>
      </trkpt>
      <trkpt lat="42.86053" lon="2.35997">
        <ele>528</ele>
        <time>2023-09-09T09:17:47Z</time>
      </trkpt>
      <trkpt lat="42.8605" lon="2.35996">
        <ele>528</ele>
        <time>2023-09-09T09:17:48Z</time>
      </trkpt>
      <trkpt lat="42.86047" lon="2.35996">
        <ele>528</ele>
        <time>2023-09-09T09:17:49Z</time>
      </trkpt>
      <trkpt lat="42.86044" lon="2.35995">
        <ele>528</ele>
        <time>2023-09-09T09:17:50Z</time>
      </trkpt>
      <trkpt lat="42.86042" lon="2.35994">
        <ele>528</ele>
        <time>2023-09-09T09:17:51Z</time>
      </trkpt>
      <trkpt lat="42.8604" lon="2.35993">
        <ele>528</ele>
        <time>2023-09-09T09:17:52Z</time>
      </trkpt>
      <trkpt lat="42.86038" lon="2.35993">
        <ele>528</ele>
        <time>2023-09-09T09:17:53Z</time>
      </trkpt>
      <trkpt lat="42.86036" lon="2.35992">
        <ele>528</ele>
        <time>2023-09-09T09:17:54Z</time>
      </trkpt>
      <trkpt lat="42.86034" lon="2.35992">
        <ele>528</ele>
        <time>2023-09-09T09:17:55Z</time>
      </trkpt>
      <trkpt lat="42.86032" lon="2.35992">
        <ele>528</ele>
        <time>2023-09-09T09:17:56Z</time>
      </trkpt>
      <trkpt lat="42.8603" lon="2.35993">
        <ele>528</ele>
        <time>2023-09-09T09:17:57Z</time>
      </trkpt>
      <trkpt lat="42.86029" lon="2.35993">
        <ele>527</ele>
        <time>2023-09-09T09:17:58Z</time>
      </trkpt>
      <trkpt lat="42.86027" lon="2.35994">
        <ele>527</ele>
        <time>2023-09-09T09:17:59Z</time>
      </trkpt>
      <trkpt lat="42.86025" lon="2.35995">
        <ele>527</ele>
        <time>2023-09-09T09:18:00Z</time>
      </trkpt>
      <trkpt lat="42.86024" lon="2.35997">
        <ele>527</ele>
        <time>2023-09-09T09:18:01Z</time>
      </trkpt>
      <trkpt lat="42.86022" lon="2.35998">
        <ele>527</ele>
        <time>2023-09-09T09:18:02Z</time>
      </trkpt>
      <trkpt lat="42.86021" lon="2.36">
        <ele>527</ele>
        <time>2023-09-09T09:18:03Z</time>
      </trkpt>
      <trkpt lat="42.86021" lon="2.36002">
        <ele>527</ele>
        <time>2023-09-09T09:18:04Z</time>
      </trkpt>
      <trkpt lat="42.8602" lon="2.36005">
        <ele>527</ele>
        <time>2023-09-09T09:18:05Z</time>
      </trkpt>
      <trkpt lat="42.8602" lon="2.36007">
        <ele>527</ele>
        <time>2023-09-09T09:18:06Z</time>
      </trkpt>
      <trkpt lat="42.86019" lon="2.36009">
        <ele>527</ele>
        <time>2023-09-09T09:18:07Z</time>
      </trkpt>
      <trkpt lat="42.86018" lon="2.36012">
        <ele>526</ele>
        <time>2023-09-09T09:18:08Z</time>
      </trkpt>
      <trkpt lat="42.86017" lon="2.36013">
        <ele>526</ele>
        <time>2023-09-09T09:18:09Z</time>
      </trkpt>
      <trkpt lat="42.86016" lon="2.36015">
        <ele>526</ele>
        <time>2023-09-09T09:18:10Z</time>
      </trkpt>
      <trkpt lat="42.86014" lon="2.36016">
        <ele>526</ele>
        <time>2023-09-09T09:18:11Z</time>
      </trkpt>
      <trkpt lat="42.86013" lon="2.36018">
        <ele>526</ele>
        <time>2023-09-09T09:18:12Z</time>
      </trkpt>
      <trkpt lat="42.86011" lon="2.36019">
        <ele>525</ele>
        <time>2023-09-09T09:18:13Z</time>
      </trkpt>
      <trkpt lat="42.86009" lon="2.3602">
        <ele>525</ele>
        <time>2023-09-09T09:18:14Z</time>
      </trkpt>
      <trkpt lat="42.86007" lon="2.36021">
        <ele>525</ele>
        <time>2023-09-09T09:18:15Z</time>
      </trkpt>
      <trkpt lat="42.86006" lon="2.36022">
        <ele>525</ele>
        <time>2023-09-09T09:18:16Z</time>
      </trkpt>
      <trkpt lat="42.86004" lon="2.36023">
        <ele>525</ele>
        <time>2023-09-09T09:18:17Z</time>
      </trkpt>
      <trkpt lat="42.86001" lon="2.36024">
        <ele>525</ele>
        <time>2023-09-09T09:18:18Z</time>
      </trkpt>
      <trkpt lat="42.85999" lon="2.36024">
        <ele>525</ele>
        <time>2023-09-09T09:18:19Z</time>
      </trkpt>
      <trkpt lat="42.85997" lon="2.36025">
        <ele>525</ele>
        <time>2023-09-09T09:18:20Z</time>
      </trkpt>
      <trkpt lat="42.85995" lon="2.36025">
        <ele>525</ele>
        <time>2023-09-09T09:18:21Z</time>
      </trkpt>
      <trkpt lat="42.85992" lon="2.36025">
        <ele>525</ele>
        <time>2023-09-09T09:18:22Z</time>
      </trkpt>
      <trkpt lat="42.8599" lon="2.36025">
        <ele>525</ele>
        <time>2023-09-09T09:18:23Z</time>
      </trkpt>
      <trkpt lat="42.85988" lon="2.36026">
        <ele>525</ele>
        <time>2023-09-09T09:18:24Z</time>
      </trkpt>
      <trkpt lat="42.85986" lon="2.36027">
        <ele>525</ele>
        <time>2023-09-09T09:18:25Z</time>
      </trkpt>
      <trkpt lat="42.85984" lon="2.36028">
        <ele>525</ele>
        <time>2023-09-09T09:18:26Z</time>
      </trkpt>
      <trkpt lat="42.85983" lon="2.36029">
        <ele>525</ele>
        <time>2023-09-09T09:18:27Z</time>
      </trkpt>
      <trkpt lat="42.85982" lon="2.36031">
        <ele>525</ele>
        <time>2023-09-09T09:18:28Z</time>
      </trkpt>
      <trkpt lat="42.85981" lon="2.36033">
        <ele>525</ele>
        <time>2023-09-09T09:18:29Z</time>
      </trkpt>
      <trkpt lat="42.8598" lon="2.36035">
        <ele>525</ele>
        <time>2023-09-09T09:18:30Z</time>
      </trkpt>
      <trkpt lat="42.85979" lon="2.36037">
        <ele>525</ele>
        <time>2023-09-09T09:18:31Z</time>
      </trkpt>
      <trkpt lat="42.85978" lon="2.36039">
        <ele>525</ele>
        <time>2023-09-09T09:18:32Z</time>
      </trkpt>
      <trkpt lat="42.85977" lon="2.3604">
        <ele>525</ele>
        <time>2023-09-09T09:18:33Z</time>
      </trkpt>
      <trkpt lat="42.85976" lon="2.36042">
        <ele>525</ele>
        <time>2023-09-09T09:18:34Z</time>
      </trkpt>
      <trkpt lat="42.85975" lon="2.36044">
        <ele>525</ele>
        <time>2023-09-09T09:18:35Z</time>
      </trkpt>
      <trkpt lat="42.85974" lon="2.36045">
        <ele>525</ele>
        <time>2023-09-09T09:18:36Z</time>
      </trkpt>
      <trkpt lat="42.85973" lon="2.36047">
        <ele>525</ele>
        <time>2023-09-09T09:18:37Z</time>
      </trkpt>
      <trkpt lat="42.85972" lon="2.36048">
        <ele>525</ele>
        <time>2023-09-09T09:18:38Z</time>
      </trkpt>
      <trkpt lat="42.85971" lon="2.3605">
        <ele>525</ele>
        <time>2023-09-09T09:18:39Z</time>
      </trkpt>
      <trkpt lat="42.8597" lon="2.36051">
        <ele>525</ele>
        <time>2023-09-09T09:18:40Z</time>
      </trkpt>
      <trkpt lat="42.85968" lon="2.36052">
        <ele>525</ele>
        <time>2023-09-09T09:18:41Z</time>
      </trkpt>
      <trkpt lat="42.85967" lon="2.36053">
        <ele>525</ele>
        <time>2023-09-09T09:18:42Z</time>
      </trkpt>
      <trkpt lat="42.85965" lon="2.36053">
        <ele>525</ele>
        <time>2023-09-09T09:18:43Z</time>
      </trkpt>
      <trkpt lat="42.85963" lon="2.36054">
        <ele>525</ele>
        <time>2023-09-09T09:18:44Z</time>
      </trkpt>
      <trkpt lat="42.85962" lon="2.36054">
        <ele>525</ele>
        <time>2023-09-09T09:18:45Z</time>
      </trkpt>
      <trkpt lat="42.8596" lon="2.36055">
        <ele>525</ele>
        <time>2023-09-09T09:18:46Z</time>
      </trkpt>
      <trkpt lat="42.85959" lon="2.36056">
        <ele>525</ele>
        <time>2023-09-09T09:18:47Z</time>
      </trkpt>
      <trkpt lat="42.85958" lon="2.36057">
        <ele>525</ele>
        <time>2023-09-09T09:18:48Z</time>
      </trkpt>
      <trkpt lat="42.85956" lon="2.36057">
        <ele>525</ele>
        <time>2023-09-09T09:18:49Z</time>
      </trkpt>
      <trkpt lat="42.85955" lon="2.36058">
        <ele>525</ele>
        <time>2023-09-09T09:18:50Z</time>
      </trkpt>
      <trkpt lat="42.85953" lon="2.36059">
        <ele>525</ele>
        <time>2023-09-09T09:18:51Z</time>
      </trkpt>
      <trkpt lat="42.85952" lon="2.36059">
        <ele>526</ele>
        <time>2023-09-09T09:18:52Z</time>
      </trkpt>
      <trkpt lat="42.8595" lon="2.3606">
        <ele>526</ele>
        <time>2023-09-09T09:18:53Z</time>
      </trkpt>
      <trkpt lat="42.85948" lon="2.36061">
        <ele>526</ele>
        <time>2023-09-09T09:18:54Z</time>
      </trkpt>
      <trkpt lat="42.85947" lon="2.36062">
        <ele>526</ele>
        <time>2023-09-09T09:18:55Z</time>
      </trkpt>
      <trkpt lat="42.85945" lon="2.36062">
        <ele>526</ele>
        <time>2023-09-09T09:18:56Z</time>
      </trkpt>
      <trkpt lat="42.85943" lon="2.36062">
        <ele>526</ele>
        <time>2023-09-09T09:18:57Z</time>
      </trkpt>
      <trkpt lat="42.85941" lon="2.36063">
        <ele>526</ele>
        <time>2023-09-09T09:18:58Z</time>
      </trkpt>
      <trkpt lat="42.85939" lon="2.36063">
        <ele>526</ele>
        <time>2023-09-09T09:18:59Z</time>
      </trkpt>
      <trkpt lat="42.85937" lon="2.36063">
        <ele>526</ele>
        <time>2023-09-09T09:19:00Z</time>
      </trkpt>
      <trkpt lat="42.85936" lon="2.36063">
        <ele>526</ele>
        <time>2023-09-09T09:19:01Z</time>
      </trkpt>
      <trkpt lat="42.85934" lon="2.36063">
        <ele>527</ele>
        <time>2023-09-09T09:19:02Z</time>
      </trkpt>
      <trkpt lat="42.85932" lon="2.36064">
        <ele>527</ele>
        <time>2023-09-09T09:19:03Z</time>
      </trkpt>
      <trkpt lat="42.85931" lon="2.36064">
        <ele>527</ele>
        <time>2023-09-09T09:19:04Z</time>
      </trkpt>
      <trkpt lat="42.8593" lon="2.36065">
        <ele>527</ele>
        <time>2023-09-09T09:19:05Z</time>
      </trkpt>
      <trkpt lat="42.85929" lon="2.36066">
        <ele>527</ele>
        <time>2023-09-09T09:19:06Z</time>
      </trkpt>
      <trkpt lat="42.85927" lon="2.36067">
        <ele>527</ele>
        <time>2023-09-09T09:19:07Z</time>
      </trkpt>
      <trkpt lat="42.85926" lon="2.36068">
        <ele>527</ele>
        <time>2023-09-09T09:19:08Z</time>
      </trkpt>
      <trkpt lat="42.85925" lon="2.36069">
        <ele>527</ele>
        <time>2023-09-09T09:19:09Z</time>
      </trkpt>
      <trkpt lat="42.85924" lon="2.36071">
        <ele>527</ele>
        <time>2023-09-09T09:19:10Z</time>
      </trkpt>
      <trkpt lat="42.85923" lon="2.36072">
        <ele>527</ele>
        <time>2023-09-09T09:19:11Z</time>
      </trkpt>
      <trkpt lat="42.85922" lon="2.36074">
        <ele>527</ele>
        <time>2023-09-09T09:19:12Z</time>
      </trkpt>
      <trkpt lat="42.85921" lon="2.36075">
        <ele>527</ele>
        <time>2023-09-09T09:19:13Z</time>
      </trkpt>
      <trkpt lat="42.85921" lon="2.36077">
        <ele>527</ele>
        <time>2023-09-09T09:19:14Z</time>
      </trkpt>
      <trkpt lat="42.8592" lon="2.36079">
        <ele>527</ele>
        <time>2023-09-09T09:19:15Z</time>
      </trkpt>
      <trkpt lat="42.85919" lon="2.3608">
        <ele>527</ele>
        <time>2023-09-09T09:19:16Z</time>
      </trkpt>
      <trkpt lat="42.85918" lon="2.36082">
        <ele>528</ele>
        <time>2023-09-09T09:19:17Z</time>
      </trkpt>
      <trkpt lat="42.85918" lon="2.36084">
        <ele>528</ele>
        <time>2023-09-09T09:19:18Z</time>
      </trkpt>
      <trkpt lat="42.85917" lon="2.36086">
        <ele>528</ele>
        <time>2023-09-09T09:19:19Z</time>
      </trkpt>
      <trkpt lat="42.85916" lon="2.36088">
        <ele>529</ele>
        <time>2023-09-09T09:19:20Z</time>
      </trkpt>
      <trkpt lat="42.85915" lon="2.3609">
        <ele>529</ele>
        <time>2023-09-09T09:19:21Z</time>
      </trkpt>
      <trkpt lat="42.85915" lon="2.36093">
        <ele>530</ele>
        <time>2023-09-09T09:19:22Z</time>
      </trkpt>
      <trkpt lat="42.85914" lon="2.36095">
        <ele>530</ele>
        <time>2023-09-09T09:19:23Z</time>
      </trkpt>
      <trkpt lat="42.85913" lon="2.36097">
        <ele>530</ele>
        <time>2023-09-09T09:19:24Z</time>
      </trkpt>
      <trkpt lat="42.85911" lon="2.36098">
        <ele>530</ele>
        <time>2023-09-09T09:19:25Z</time>
      </trkpt>
      <trkpt lat="42.8591" lon="2.361">
        <ele>530</ele>
        <time>2023-09-09T09:19:26Z</time>
      </trkpt>
      <trkpt lat="42.85909" lon="2.36102">
        <ele>531</ele>
        <time>2023-09-09T09:19:27Z</time>
      </trkpt>
      <trkpt lat="42.85907" lon="2.36103">
        <ele>531</ele>
        <time>2023-09-09T09:19:28Z</time>
      </trkpt>
      <trkpt lat="42.85906" lon="2.36105">
        <ele>531</ele>
        <time>2023-09-09T09:19:29Z</time>
      </trkpt>
      <trkpt lat="42.85905" lon="2.36106">
        <ele>531</ele>
        <time>2023-09-09T09:19:30Z</time>
      </trkpt>
      <trkpt lat="42.85903" lon="2.36108">
        <ele>531</ele>
        <time>2023-09-09T09:19:31Z</time>
      </trkpt>
      <trkpt lat="42.85902" lon="2.36109">
        <ele>531</ele>
        <time>2023-09-09T09:19:32Z</time>
      </trkpt>
      <trkpt lat="42.85901" lon="2.3611">
        <ele>531</ele>
        <time>2023-09-09T09:19:33Z</time>
      </trkpt>
      <trkpt lat="42.85899" lon="2.3611">
        <ele>531</ele>
        <time>2023-09-09T09:19:34Z</time>
      </trkpt>
      <trkpt lat="42.85898" lon="2.36111">
        <ele>531</ele>
        <time>2023-09-09T09:19:35Z</time>
      </trkpt>
      <trkpt lat="42.85896" lon="2.36112">
        <ele>531</ele>
        <time>2023-09-09T09:19:36Z</time>
      </trkpt>
      <trkpt lat="42.85895" lon="2.36114">
        <ele>532</ele>
        <time>2023-09-09T09:19:37Z</time>
      </trkpt>
      <trkpt lat="42.85893" lon="2.36115">
        <ele>532</ele>
        <time>2023-09-09T09:19:38Z</time>
      </trkpt>
      <trkpt lat="42.85892" lon="2.36117">
        <ele>532</ele>
        <time>2023-09-09T09:19:39Z</time>
      </trkpt>
      <trkpt lat="42.85891" lon="2.36119">
        <ele>532</ele>
        <time>2023-09-09T09:19:40Z</time>
      </trkpt>
      <trkpt lat="42.85891" lon="2.36121">
        <ele>532</ele>
        <time>2023-09-09T09:19:41Z</time>
      </trkpt>
      <trkpt lat="42.8589" lon="2.36123">
        <ele>533</ele>
        <time>2023-09-09T09:19:42Z</time>
      </trkpt>
      <trkpt lat="42.85889" lon="2.36125">
        <ele>533</ele>
        <time>2023-09-09T09:19:43Z</time>
      </trkpt>
      <trkpt lat="42.85889" lon="2.36127">
        <ele>533</ele>
        <time>2023-09-09T09:19:44Z</time>
      </trkpt>
      <trkpt lat="42.85887" lon="2.36129">
        <ele>533</ele>
        <time>2023-09-09T09:19:45Z</time>
      </trkpt>
      <trkpt lat="42.85886" lon="2.36131">
        <ele>533</ele>
        <time>2023-09-09T09:19:46Z</time>
      </trkpt>
      <trkpt lat="42.85885" lon="2.36133">
        <ele>534</ele>
        <time>2023-09-09T09:19:47Z</time>
      </trkpt>
      <trkpt lat="42.85884" lon="2.36135">
        <ele>534</ele>
        <time>2023-09-09T09:19:48Z</time>
      </trkpt>
      <trkpt lat="42.85882" lon="2.36136">
        <ele>534</ele>
        <time>2023-09-09T09:19:49Z</time>
      </trkpt>
      <trkpt lat="42.8588" lon="2.36137">
        <ele>534</ele>
        <time>2023-09-09T09:19:50Z</time>
      </trkpt>
      <trkpt lat="42.85878" lon="2.36138">
        <ele>534</ele>
        <time>2023-09-09T09:19:51Z</time>
      </trkpt>
      <trkpt lat="42.85876" lon="2.36139">
        <ele>535</ele>
        <time>2023-09-09T09:19:52Z</time>
      </trkpt>
      <trkpt lat="42.85874" lon="2.36141">
        <ele>535</ele>
        <time>2023-09-09T09:19:53Z</time>
      </trkpt>
      <trkpt lat="42.85873" lon="2.36142">
        <ele>535</ele>
        <time>2023-09-09T09:19:54Z</time>
      </trkpt>
      <trkpt lat="42.85872" lon="2.36144">
        <ele>535</ele>
        <time>2023-09-09T09:19:55Z</time>
      </trkpt>
      <trkpt lat="42.85871" lon="2.36146">
        <ele>535</ele>
        <time>2023-09-09T09:19:56Z</time>
      </trkpt>
      <trkpt lat="42.8587" lon="2.36147">
        <ele>535</ele>
        <time>2023-09-09T09:19:57Z</time>
      </trkpt>
      <trkpt lat="42.85869" lon="2.36149">
        <ele>535</ele>
        <time>2023-09-09T09:19:58Z</time>
      </trkpt>
      <trkpt lat="42.85868" lon="2.3615">
        <ele>535</ele>
        <time>2023-09-09T09:19:59Z</time>
      </trkpt>
      <trkpt lat="42.85867" lon="2.36152">
        <ele>535</ele>
        <time>2023-09-09T09:20:00Z</time>
      </trkpt>
      <trkpt lat="42.85866" lon="2.36153">
        <ele>535</ele>
        <time>2023-09-09T09:20:01Z</time>
      </trkpt>
      <trkpt lat="42.85865" lon="2.36155">
        <ele>536</ele>
        <time>2023-09-09T09:20:02Z</time>
      </trkpt>
      <trkpt lat="42.85864" lon="2.36157">
        <ele>536</ele>
        <time>2023-09-09T09:20:03Z</time>
      </trkpt>
      <trkpt lat="42.85864" lon="2.36159">
        <ele>536</ele>
        <time>2023-09-09T09:20:04Z</time>
      </trkpt>
      <trkpt lat="42.85863" lon="2.36161">
        <ele>536</ele>
        <time>2023-09-09T09:20:05Z</time>
      </trkpt>
      <trkpt lat="42.85862" lon="2.36163">
        <ele>536</ele>
        <time>2023-09-09T09:20:06Z</time>
      </trkpt>
      <trkpt lat="42.85861" lon="2.36165">
        <ele>536</ele>
        <time>2023-09-09T09:20:07Z</time>
      </trkpt>
      <trkpt lat="42.8586" lon="2.36167">
        <ele>536</ele>
        <time>2023-09-09T09:20:08Z</time>
      </trkpt>
      <trkpt lat="42.85859" lon="2.36168">
        <ele>536</ele>
        <time>2023-09-09T09:20:09Z</time>
      </trkpt>
      <trkpt lat="42.85858" lon="2.36169">
        <ele>536</ele>
        <time>2023-09-09T09:20:10Z</time>
      </trkpt>
      <trkpt lat="42.85857" lon="2.36171">
        <ele>536</ele>
        <time>2023-09-09T09:20:11Z</time>
      </trkpt>
      <trkpt lat="42.85856" lon="2.36172">
        <ele>537</ele>
        <time>2023-09-09T09:20:12Z</time>
      </trkpt>
      <trkpt lat="42.85855" lon="2.36174">
        <ele>537</ele>
        <time>2023-09-09T09:20:13Z</time>
      </trkpt>
      <trkpt lat="42.85854" lon="2.36176">
        <ele>537</ele>
        <time>2023-09-09T09:20:14Z</time>
      </trkpt>
      <trkpt lat="42.85853" lon="2.36178">
        <ele>537</ele>
        <time>2023-09-09T09:20:15Z</time>
      </trkpt>
      <trkpt lat="42.85852" lon="2.36179">
        <ele>537</ele>
        <time>2023-09-09T09:20:16Z</time>
      </trkpt>
      <trkpt lat="42.85851" lon="2.36181">
        <ele>538</ele>
        <time>2023-09-09T09:20:17Z</time>
      </trkpt>
      <trkpt lat="42.8585" lon="2.36183">
        <ele>538</ele>
        <time>2023-09-09T09:20:18Z</time>
      </trkpt>
      <trkpt lat="42.85849" lon="2.36184">
        <ele>538</ele>
        <time>2023-09-09T09:20:19Z</time>
      </trkpt>
      <trkpt lat="42.85848" lon="2.36186">
        <ele>538</ele>
        <time>2023-09-09T09:20:20Z</time>
      </trkpt>
      <trkpt lat="42.85847" lon="2.36188">
        <ele>538</ele>
        <time>2023-09-09T09:20:21Z</time>
      </trkpt>
      <trkpt lat="42.85847" lon="2.3619">
        <ele>539</ele>
        <time>2023-09-09T09:20:22Z</time>
      </trkpt>
      <trkpt lat="42.85846" lon="2.36192">
        <ele>539</ele>
        <time>2023-09-09T09:20:23Z</time>
      </trkpt>
      <trkpt lat="42.85844" lon="2.36193">
        <ele>539</ele>
        <time>2023-09-09T09:20:24Z</time>
      </trkpt>
      <trkpt lat="42.85843" lon="2.36193">
        <ele>539</ele>
        <time>2023-09-09T09:20:25Z</time>
      </trkpt>
      <trkpt lat="42.85841" lon="2.36194">
        <ele>539</ele>
        <time>2023-09-09T09:20:26Z</time>
      </trkpt>
      <trkpt lat="42.85838" lon="2.36194">
        <ele>539</ele>
        <time>2023-09-09T09:20:27Z</time>
      </trkpt>
      <trkpt lat="42.85836" lon="2.36194">
        <ele>539</ele>
        <time>2023-09-09T09:20:28Z</time>
      </trkpt>
      <trkpt lat="42.85833" lon="2.36194">
        <ele>539</ele>
        <time>2023-09-09T09:20:29Z</time>
      </trkpt>
      <trkpt lat="42.8583" lon="2.36194">
        <ele>539</ele>
        <time>2023-09-09T09:20:30Z</time>
      </trkpt>
      <trkpt lat="42.85828" lon="2.36194">
        <ele>539</ele>
        <time>2023-09-09T09:20:31Z</time>
      </trkpt>
      <trkpt lat="42.85826" lon="2.36193">
        <ele>540</ele>
        <time>2023-09-09T09:20:32Z</time>
      </trkpt>
      <trkpt lat="42.85823" lon="2.36193">
        <ele>540</ele>
        <time>2023-09-09T09:20:33Z</time>
      </trkpt>
      <trkpt lat="42.85821" lon="2.36193">
        <ele>540</ele>
        <time>2023-09-09T09:20:34Z</time>
      </trkpt>
      <trkpt lat="42.85819" lon="2.36193">
        <ele>540</ele>
        <time>2023-09-09T09:20:35Z</time>
      </trkpt>
      <trkpt lat="42.85817" lon="2.36193">
        <ele>540</ele>
        <time>2023-09-09T09:20:36Z</time>
      </trkpt>
      <trkpt lat="42.85816" lon="2.36193">
        <ele>540</ele>
        <time>2023-09-09T09:20:37Z</time>
      </trkpt>
      <trkpt lat="42.85814" lon="2.36192">
        <ele>540</ele>
        <time>2023-09-09T09:20:38Z</time>
      </trkpt>
      <trkpt lat="42.85812" lon="2.36192">
        <ele>540</ele>
        <time>2023-09-09T09:20:39Z</time>
      </trkpt>
      <trkpt lat="42.8581" lon="2.36191">
        <ele>540</ele>
        <time>2023-09-09T09:20:40Z</time>
      </trkpt>
      <trkpt lat="42.85809" lon="2.36191">
        <ele>540</ele>
        <time>2023-09-09T09:20:41Z</time>
      </trkpt>
      <trkpt lat="42.85807" lon="2.3619">
        <ele>541</ele>
        <time>2023-09-09T09:20:42Z</time>
      </trkpt>
      <trkpt lat="42.85805" lon="2.36189">
        <ele>541</ele>
        <time>2023-09-09T09:20:43Z</time>
      </trkpt>
      <trkpt lat="42.85804" lon="2.36189">
        <ele>541</ele>
        <time>2023-09-09T09:20:44Z</time>
      </trkpt>
      <trkpt lat="42.85802" lon="2.36188">
        <ele>541</ele>
        <time>2023-09-09T09:20:45Z</time>
      </trkpt>
      <trkpt lat="42.858" lon="2.36187">
        <ele>541</ele>
        <time>2023-09-09T09:20:46Z</time>
      </trkpt>
      <trkpt lat="42.85799" lon="2.36186">
        <ele>541</ele>
        <time>2023-09-09T09:20:47Z</time>
      </trkpt>
      <trkpt lat="42.85797" lon="2.36186">
        <ele>541</ele>
        <time>2023-09-09T09:20:48Z</time>
      </trkpt>
      <trkpt lat="42.85795" lon="2.36185">
        <ele>541</ele>
        <time>2023-09-09T09:20:49Z</time>
      </trkpt>
      <trkpt lat="42.85793" lon="2.36184">
        <ele>541</ele>
        <time>2023-09-09T09:20:50Z</time>
      </trkpt>
      <trkpt lat="42.85791" lon="2.36184">
        <ele>541</ele>
        <time>2023-09-09T09:20:51Z</time>
      </trkpt>
      <trkpt lat="42.85789" lon="2.36183">
        <ele>541</ele>
        <time>2023-09-09T09:20:52Z</time>
      </trkpt>
      <trkpt lat="42.85787" lon="2.36182">
        <ele>541</ele>
        <time>2023-09-09T09:20:53Z</time>
      </trkpt>
      <trkpt lat="42.85786" lon="2.36181">
        <ele>541</ele>
        <time>2023-09-09T09:20:54Z</time>
      </trkpt>
      <trkpt lat="42.85784" lon="2.3618">
        <ele>541</ele>
        <time>2023-09-09T09:20:55Z</time>
      </trkpt>
      <trkpt lat="42.85782" lon="2.3618">
        <ele>541</ele>
        <time>2023-09-09T09:20:56Z</time>
      </trkpt>
      <trkpt lat="42.85781" lon="2.36178">
        <ele>542</ele>
        <time>2023-09-09T09:20:57Z</time>
      </trkpt>
      <trkpt lat="42.85779" lon="2.36177">
        <ele>542</ele>
        <time>2023-09-09T09:20:58Z</time>
      </trkpt>
      <trkpt lat="42.85777" lon="2.36176">
        <ele>542</ele>
        <time>2023-09-09T09:20:59Z</time>
      </trkpt>
      <trkpt lat="42.85776" lon="2.36175">
        <ele>542</ele>
        <time>2023-09-09T09:21:00Z</time>
      </trkpt>
      <trkpt lat="42.85774" lon="2.36175">
        <ele>542</ele>
        <time>2023-09-09T09:21:01Z</time>
      </trkpt>
      <trkpt lat="42.85773" lon="2.36174">
        <ele>542</ele>
        <time>2023-09-09T09:21:02Z</time>
      </trkpt>
      <trkpt lat="42.85771" lon="2.36173">
        <ele>542</ele>
        <time>2023-09-09T09:21:03Z</time>
      </trkpt>
      <trkpt lat="42.8577" lon="2.36172">
        <ele>542</ele>
        <time>2023-09-09T09:21:04Z</time>
      </trkpt>
      <trkpt lat="42.85768" lon="2.36172">
        <ele>542</ele>
        <time>2023-09-09T09:21:05Z</time>
      </trkpt>
      <trkpt lat="42.85767" lon="2.36171">
        <ele>542</ele>
        <time>2023-09-09T09:21:06Z</time>
      </trkpt>
      <trkpt lat="42.85766" lon="2.3617">
        <ele>543</ele>
        <time>2023-09-09T09:21:07Z</time>
      </trkpt>
      <trkpt lat="42.85764" lon="2.36169">
        <ele>543</ele>
        <time>2023-09-09T09:21:08Z</time>
      </trkpt>
      <trkpt lat="42.85763" lon="2.36168">
        <ele>543</ele>
        <time>2023-09-09T09:21:09Z</time>
      </trkpt>
      <trkpt lat="42.85761" lon="2.36168">
        <ele>543</ele>
        <time>2023-09-09T09:21:10Z</time>
      </trkpt>
      <trkpt lat="42.85759" lon="2.36167">
        <ele>543</ele>
        <time>2023-09-09T09:21:11Z</time>
      </trkpt>
      <trkpt lat="42.85758" lon="2.36166">
        <ele>544</ele>
        <time>2023-09-09T09:21:12Z</time>
      </trkpt>
      <trkpt lat="42.85756" lon="2.36165">
        <ele>544</ele>
        <time>2023-09-09T09:21:13Z</time>
      </trkpt>
      <trkpt lat="42.85755" lon="2.36165">
        <ele>544</ele>
        <time>2023-09-09T09:21:14Z</time>
      </trkpt>
      <trkpt lat="42.85753" lon="2.36164">
        <ele>544</ele>
        <time>2023-09-09T09:21:15Z</time>
      </trkpt>
      <trkpt lat="42.85752" lon="2.36163">
        <ele>544</ele>
        <time>2023-09-09T09:21:16Z</time>
      </trkpt>
      <trkpt lat="42.8575" lon="2.36163">
        <ele>544</ele>
        <time>2023-09-09T09:21:17Z</time>
      </trkpt>
      <trkpt lat="42.85749" lon="2.36162">
        <ele>544</ele>
        <time>2023-09-09T09:21:18Z</time>
      </trkpt>
      <trkpt lat="42.85748" lon="2.36162">
        <ele>544</ele>
        <time>2023-09-09T09:21:19Z</time>
      </trkpt>
      <trkpt lat="42.85746" lon="2.36161">
        <ele>544</ele>
        <time>2023-09-09T09:21:20Z</time>
      </trkpt>
      <trkpt lat="42.85745" lon="2.36161">
        <ele>544</ele>
        <time>2023-09-09T09:21:21Z</time>
      </trkpt>
      <trkpt lat="42.85744" lon="2.36161">
        <ele>544</ele>
        <time>2023-09-09T09:21:22Z</time>
      </trkpt>
      <trkpt lat="42.85743" lon="2.3616">
        <ele>544</ele>
        <time>2023-09-09T09:21:23Z</time>
      </trkpt>
      <trkpt lat="42.85742" lon="2.3616">
        <ele>544</ele>
        <time>2023-09-09T09:21:24Z</time>
      </trkpt>
      <trkpt lat="42.8574" lon="2.3616">
        <ele>544</ele>
        <time>2023-09-09T09:21:25Z</time>
      </trkpt>
      <trkpt lat="42.85738" lon="2.36159">
        <ele>544</ele>
        <time>2023-09-09T09:21:26Z</time>
      </trkpt>
      <trkpt lat="42.85737" lon="2.36159">
        <ele>545</ele>
        <time>2023-09-09T09:21:27Z</time>
      </trkpt>
      <trkpt lat="42.85735" lon="2.36159">
        <ele>545</ele>
        <time>2023-09-09T09:21:28Z</time>
      </trkpt>
      <trkpt lat="42.85734" lon="2.36159">
        <ele>545</ele>
        <time>2023-09-09T09:21:29Z</time>
      </trkpt>
      <trkpt lat="42.85733" lon="2.36158">
        <ele>545</ele>
        <time>2023-09-09T09:21:30Z</time>
      </trkpt>
      <trkpt lat="42.85731" lon="2.36158">
        <ele>545</ele>
        <time>2023-09-09T09:21:31Z</time>
      </trkpt>
      <trkpt lat="42.8573" lon="2.36158">
        <ele>546</ele>
        <time>2023-09-09T09:21:32Z</time>
      </trkpt>
      <trkpt lat="42.85728" lon="2.36158">
        <ele>546</ele>
        <time>2023-09-09T09:21:33Z</time>
      </trkpt>
      <trkpt lat="42.85727" lon="2.36158">
        <ele>546</ele>
        <time>2023-09-09T09:21:34Z</time>
      </trkpt>
      <trkpt lat="42.85726" lon="2.36157">
        <ele>547</ele>
        <time>2023-09-09T09:21:35Z</time>
      </trkpt>
      <trkpt lat="42.85724" lon="2.36157">
        <ele>547</ele>
        <time>2023-09-09T09:21:36Z</time>
      </trkpt>
      <trkpt lat="42.85723" lon="2.36156">
        <ele>548</ele>
        <time>2023-09-09T09:21:37Z</time>
      </trkpt>
      <trkpt lat="42.85722" lon="2.36155">
        <ele>548</ele>
        <time>2023-09-09T09:21:38Z</time>
      </trkpt>
      <trkpt lat="42.85721" lon="2.36154">
        <ele>548</ele>
        <time>2023-09-09T09:21:39Z</time>
      </trkpt>
      <trkpt lat="42.8572" lon="2.36153">
        <ele>548</ele>
        <time>2023-09-09T09:21:40Z</time>
      </trkpt>
      <trkpt lat="42.85719" lon="2.36153">
        <ele>548</ele>
        <time>2023-09-09T09:21:41Z</time>
      </trkpt>
      <trkpt lat="42.85718" lon="2.36152">
        <ele>548</ele>
        <time>2023-09-09T09:21:42Z</time>
      </trkpt>
      <trkpt lat="42.85717" lon="2.36151">
        <ele>548</ele>
        <time>2023-09-09T09:21:43Z</time>
      </trkpt>
      <trkpt lat="42.85716" lon="2.36151">
        <ele>548</ele>
        <time>2023-09-09T09:21:44Z</time>
      </trkpt>
      <trkpt lat="42.85714" lon="2.3615">
        <ele>548</ele>
        <time>2023-09-09T09:21:45Z</time>
      </trkpt>
      <trkpt lat="42.85713" lon="2.36149">
        <ele>548</ele>
        <time>2023-09-09T09:21:46Z</time>
      </trkpt>
      <trkpt lat="42.85712" lon="2.36149">
        <ele>548</ele>
        <time>2023-09-09T09:21:47Z</time>
      </trkpt>
      <trkpt lat="42.8571" lon="2.36148">
        <ele>548</ele>
        <time>2023-09-09T09:21:48Z</time>
      </trkpt>
      <trkpt lat="42.85709" lon="2.36148">
        <ele>548</ele>
        <time>2023-09-09T09:21:49Z</time>
      </trkpt>
      <trkpt lat="42.85708" lon="2.36147">
        <ele>548</ele>
        <time>2023-09-09T09:21:50Z</time>
      </trkpt>
      <trkpt lat="42.85706" lon="2.36147">
        <ele>548</ele>
        <time>2023-09-09T09:21:51Z</time>
      </trkpt>
      <trkpt lat="42.85705" lon="2.36146">
        <ele>549</ele>
        <time>2023-09-09T09:21:52Z</time>
      </trkpt>
      <trkpt lat="42.85703" lon="2.36146">
        <ele>549</ele>
        <time>2023-09-09T09:21:53Z</time>
      </trkpt>
      <trkpt lat="42.85702" lon="2.36145">
        <ele>549</ele>
        <time>2023-09-09T09:21:54Z</time>
      </trkpt>
      <trkpt lat="42.857" lon="2.36145">
        <ele>549</ele>
        <time>2023-09-09T09:21:55Z</time>
      </trkpt>
      <trkpt lat="42.85699" lon="2.36145">
        <ele>549</ele>
        <time>2023-09-09T09:21:56Z</time>
      </trkpt>
      <trkpt lat="42.85697" lon="2.36144">
        <ele>550</ele>
        <time>2023-09-09T09:21:57Z</time>
      </trkpt>
      <trkpt lat="42.85696" lon="2.36144">
        <ele>550</ele>
        <time>2023-09-09T09:21:58Z</time>
      </trkpt>
      <trkpt lat="42.85694" lon="2.36144">
        <ele>550</ele>
        <time>2023-09-09T09:21:59Z</time>
      </trkpt>
      <trkpt lat="42.85693" lon="2.36144">
        <ele>550</ele>
        <time>2023-09-09T09:22:00Z</time>
      </trkpt>
      <trkpt lat="42.85691" lon="2.36143">
        <ele>550</ele>
        <time>2023-09-09T09:22:01Z</time>
      </trkpt>
      <trkpt lat="42.8569" lon="2.36143">
        <ele>551</ele>
        <time>2023-09-09T09:22:02Z</time>
      </trkpt>
      <trkpt lat="42.85689" lon="2.36143">
        <ele>551</ele>
        <time>2023-09-09T09:22:03Z</time>
      </trkpt>
      <trkpt lat="42.85688" lon="2.36142">
        <ele>551</ele>
        <time>2023-09-09T09:22:04Z</time>
      </trkpt>
      <trkpt lat="42.85687" lon="2.36142">
        <ele>551</ele>
        <time>2023-09-09T09:22:05Z</time>
      </trkpt>
      <trkpt lat="42.85686" lon="2.36141">
        <ele>551</ele>
        <time>2023-09-09T09:22:06Z</time>
      </trkpt>
      <trkpt lat="42.85684" lon="2.36141">
        <ele>552</ele>
        <time>2023-09-09T09:22:07Z</time>
      </trkpt>
      <trkpt lat="42.85683" lon="2.3614">
        <ele>552</ele>
        <time>2023-09-09T09:22:08Z</time>
      </trkpt>
      <trkpt lat="42.85682" lon="2.3614">
        <ele>552</ele>
        <time>2023-09-09T09:22:09Z</time>
      </trkpt>
      <trkpt lat="42.85681" lon="2.36139">
        <ele>552</ele>
        <time>2023-09-09T09:22:10Z</time>
      </trkpt>
      <trkpt lat="42.8568" lon="2.36139">
        <ele>552</ele>
        <time>2023-09-09T09:22:11Z</time>
      </trkpt>
      <trkpt lat="42.85679" lon="2.36139">
        <ele>552</ele>
        <time>2023-09-09T09:22:12Z</time>
      </trkpt>
      <trkpt lat="42.85678" lon="2.36139">
        <ele>552</ele>
        <time>2023-09-09T09:22:13Z</time>
      </trkpt>
      <trkpt lat="42.85677" lon="2.36139">
        <ele>552</ele>
        <time>2023-09-09T09:22:14Z</time>
      </trkpt>
      <trkpt lat="42.85676" lon="2.36139">
        <ele>552</ele>
        <time>2023-09-09T09:22:15Z</time>
      </trkpt>
      <trkpt lat="42.85675" lon="2.3614">
        <ele>552</ele>
        <time>2023-09-09T09:22:16Z</time>
      </trkpt>
      <trkpt lat="42.85674" lon="2.36141">
        <ele>553</ele>
        <time>2023-09-09T09:22:17Z</time>
      </trkpt>
      <trkpt lat="42.85674" lon="2.36142">
        <ele>553</ele>
        <time>2023-09-09T09:22:18Z</time>
      </trkpt>
      <trkpt lat="42.85673" lon="2.36144">
        <ele>553</ele>
        <time>2023-09-09T09:22:19Z</time>
      </trkpt>
      <trkpt lat="42.85673" lon="2.36145">
        <ele>553</ele>
        <time>2023-09-09T09:22:20Z</time>
      </trkpt>
      <trkpt lat="42.85672" lon="2.36146">
        <ele>553</ele>
        <time>2023-09-09T09:22:21Z</time>
      </trkpt>
      <trkpt lat="42.85672" lon="2.36148">
        <ele>554</ele>
        <time>2023-09-09T09:22:22Z</time>
      </trkpt>
      <trkpt lat="42.85672" lon="2.36149">
        <ele>554</ele>
        <time>2023-09-09T09:22:23Z</time>
      </trkpt>
      <trkpt lat="42.85672" lon="2.3615">
        <ele>554</ele>
        <time>2023-09-09T09:22:24Z</time>
      </trkpt>
      <trkpt lat="42.85672" lon="2.36152">
        <ele>554</ele>
        <time>2023-09-09T09:22:25Z</time>
      </trkpt>
      <trkpt lat="42.85673" lon="2.36153">
        <ele>554</ele>
        <time>2023-09-09T09:22:26Z</time>
      </trkpt>
      <trkpt lat="42.85674" lon="2.36155">
        <ele>555</ele>
        <time>2023-09-09T09:22:27Z</time>
      </trkpt>
      <trkpt lat="42.85675" lon="2.36157">
        <ele>555</ele>
        <time>2023-09-09T09:22:28Z</time>
      </trkpt>
      <trkpt lat="42.85675" lon="2.36159">
        <ele>555</ele>
        <time>2023-09-09T09:22:29Z</time>
      </trkpt>
      <trkpt lat="42.85676" lon="2.36161">
        <ele>555</ele>
        <time>2023-09-09T09:22:30Z</time>
      </trkpt>
      <trkpt lat="42.85676" lon="2.36163">
        <ele>555</ele>
        <time>2023-09-09T09:22:31Z</time>
      </trkpt>
      <trkpt lat="42.85677" lon="2.36165">
        <ele>555</ele>
        <time>2023-09-09T09:22:32Z</time>
      </trkpt>
      <trkpt lat="42.85677" lon="2.36166">
        <ele>555</ele>
        <time>2023-09-09T09:22:33Z</time>
      </trkpt>
      <trkpt lat="42.85677" lon="2.36168">
        <ele>555</ele>
        <time>2023-09-09T09:22:34Z</time>
      </trkpt>
      <trkpt lat="42.85677" lon="2.36169">
        <ele>555</ele>
        <time>2023-09-09T09:22:35Z</time>
      </trkpt>
      <trkpt lat="42.85677" lon="2.36171">
        <ele>555</ele>
        <time>2023-09-09T09:22:36Z</time>
      </trkpt>
      <trkpt lat="42.85677" lon="2.36173">
        <ele>556</ele>
        <time>2023-09-09T09:22:37Z</time>
      </trkpt>
      <trkpt lat="42.85677" lon="2.36175">
        <ele>556</ele>
        <time>2023-09-09T09:22:38Z</time>
      </trkpt>
      <trkpt lat="42.85676" lon="2.36177">
        <ele>556</ele>
        <time>2023-09-09T09:22:39Z</time>
      </trkpt>
      <trkpt lat="42.85676" lon="2.36179">
        <ele>556</ele>
        <time>2023-09-09T09:22:40Z</time>
      </trkpt>
      <trkpt lat="42.85677" lon="2.36181">
        <ele>556</ele>
        <time>2023-09-09T09:22:41Z</time>
      </trkpt>
      <trkpt lat="42.85677" lon="2.36182">
        <ele>557</ele>
        <time>2023-09-09T09:22:42Z</time>
      </trkpt>
      <trkpt lat="42.85676" lon="2.36184">
        <ele>557</ele>
        <time>2023-09-09T09:22:43Z</time>
      </trkpt>
      <trkpt lat="42.85676" lon="2.36185">
        <ele>557</ele>
        <time>2023-09-09T09:22:44Z</time>
      </trkpt>
      <trkpt lat="42.85675" lon="2.36186">
        <ele>557</ele>
        <time>2023-09-09T09:22:45Z</time>
      </trkpt>
      <trkpt lat="42.85675" lon="2.36187">
        <ele>557</ele>
        <time>2023-09-09T09:22:46Z</time>
      </trkpt>
      <trkpt lat="42.85674" lon="2.36188">
        <ele>558</ele>
        <time>2023-09-09T09:22:47Z</time>
      </trkpt>
      <trkpt lat="42.85673" lon="2.36189">
        <ele>558</ele>
        <time>2023-09-09T09:22:48Z</time>
      </trkpt>
      <trkpt lat="42.85672" lon="2.3619">
        <ele>558</ele>
        <time>2023-09-09T09:22:49Z</time>
      </trkpt>
      <trkpt lat="42.85671" lon="2.36191">
        <ele>558</ele>
        <time>2023-09-09T09:22:50Z</time>
      </trkpt>
      <trkpt lat="42.8567" lon="2.36192">
        <ele>558</ele>
        <time>2023-09-09T09:22:51Z</time>
      </trkpt>
      <trkpt lat="42.85669" lon="2.36193">
        <ele>558</ele>
        <time>2023-09-09T09:22:52Z</time>
      </trkpt>
      <trkpt lat="42.85668" lon="2.36195">
        <ele>558</ele>
        <time>2023-09-09T09:22:53Z</time>
      </trkpt>
      <trkpt lat="42.85667" lon="2.36196">
        <ele>558</ele>
        <time>2023-09-09T09:22:54Z</time>
      </trkpt>
      <trkpt lat="42.85666" lon="2.36197">
        <ele>558</ele>
        <time>2023-09-09T09:22:55Z</time>
      </trkpt>
      <trkpt lat="42.85665" lon="2.36197">
        <ele>558</ele>
        <time>2023-09-09T09:22:56Z</time>
      </trkpt>
      <trkpt lat="42.85664" lon="2.36198">
        <ele>559</ele>
        <time>2023-09-09T09:22:57Z</time>
      </trkpt>
      <trkpt lat="42.85663" lon="2.36199">
        <ele>559</ele>
        <time>2023-09-09T09:22:58Z</time>
      </trkpt>
      <trkpt lat="42.85662" lon="2.362">
        <ele>559</ele>
        <time>2023-09-09T09:22:59Z</time>
      </trkpt>
      <trkpt lat="42.85661" lon="2.362">
        <ele>559</ele>
        <time>2023-09-09T09:23:00Z</time>
      </trkpt>
      <trkpt lat="42.8566" lon="2.36201">
        <ele>559</ele>
        <time>2023-09-09T09:23:01Z</time>
      </trkpt>
      <trkpt lat="42.85658" lon="2.36201">
        <ele>560</ele>
        <time>2023-09-09T09:23:02Z</time>
      </trkpt>
      <trkpt lat="42.85657" lon="2.36202">
        <ele>560</ele>
        <time>2023-09-09T09:23:03Z</time>
      </trkpt>
      <trkpt lat="42.85656" lon="2.36202">
        <ele>560</ele>
        <time>2023-09-09T09:23:04Z</time>
      </trkpt>
      <trkpt lat="42.85655" lon="2.36202">
        <ele>560</ele>
        <time>2023-09-09T09:23:05Z</time>
      </trkpt>
      <trkpt lat="42.85653" lon="2.36203">
        <ele>560</ele>
        <time>2023-09-09T09:23:06Z</time>
      </trkpt>
      <trkpt lat="42.85652" lon="2.36204">
        <ele>560</ele>
        <time>2023-09-09T09:23:07Z</time>
      </trkpt>
      <trkpt lat="42.85651" lon="2.36205">
        <ele>560</ele>
        <time>2023-09-09T09:23:08Z</time>
      </trkpt>
      <trkpt lat="42.8565" lon="2.36206">
        <ele>560</ele>
        <time>2023-09-09T09:23:09Z</time>
      </trkpt>
      <trkpt lat="42.85649" lon="2.36207">
        <ele>560</ele>
        <time>2023-09-09T09:23:10Z</time>
      </trkpt>
      <trkpt lat="42.85648" lon="2.36208">
        <ele>560</ele>
        <time>2023-09-09T09:23:11Z</time>
      </trkpt>
      <trkpt lat="42.85647" lon="2.3621">
        <ele>561</ele>
        <time>2023-09-09T09:23:12Z</time>
      </trkpt>
      <trkpt lat="42.85646" lon="2.36211">
        <ele>561</ele>
        <time>2023-09-09T09:23:13Z</time>
      </trkpt>
      <trkpt lat="42.85645" lon="2.36213">
        <ele>561</ele>
        <time>2023-09-09T09:23:14Z</time>
      </trkpt>
      <trkpt lat="42.85645" lon="2.36215">
        <ele>561</ele>
        <time>2023-09-09T09:23:15Z</time>
      </trkpt>
      <trkpt lat="42.85644" lon="2.36217">
        <ele>561</ele>
        <time>2023-09-09T09:23:16Z</time>
      </trkpt>
      <trkpt lat="42.85644" lon="2.36219">
        <ele>562</ele>
        <time>2023-09-09T09:23:17Z</time>
      </trkpt>
      <trkpt lat="42.85644" lon="2.36221">
        <ele>562</ele>
        <time>2023-09-09T09:23:18Z</time>
      </trkpt>
      <trkpt lat="42.85645" lon="2.36223">
        <ele>562</ele>
        <time>2023-09-09T09:23:19Z</time>
      </trkpt>
      <trkpt lat="42.85646" lon="2.36225">
        <ele>562</ele>
        <time>2023-09-09T09:23:20Z</time>
      </trkpt>
      <trkpt lat="42.85646" lon="2.36227">
        <ele>562</ele>
        <time>2023-09-09T09:23:21Z</time>
      </trkpt>
      <trkpt lat="42.85646" lon="2.36229">
        <ele>562</ele>
        <time>2023-09-09T09:23:22Z</time>
      </trkpt>
      <trkpt lat="42.85647" lon="2.36231">
        <ele>562</ele>
        <time>2023-09-09T09:23:23Z</time>
      </trkpt>
      <trkpt lat="42.85647" lon="2.36233">
        <ele>562</ele>
        <time>2023-09-09T09:23:24Z</time>
      </trkpt>
      <trkpt lat="42.85647" lon="2.36235">
        <ele>562</ele>
        <time>2023-09-09T09:23:25Z</time>
      </trkpt>
      <trkpt lat="42.85647" lon="2.36237">
        <ele>562</ele>
        <time>2023-09-09T09:23:26Z</time>
      </trkpt>
      <trkpt lat="42.85647" lon="2.36239">
        <ele>563</ele>
        <time>2023-09-09T09:23:27Z</time>
      </trkpt>
      <trkpt lat="42.85646" lon="2.36241">
        <ele>563</ele>
        <time>2023-09-09T09:23:28Z</time>
      </trkpt>
      <trkpt lat="42.85646" lon="2.36244">
        <ele>563</ele>
        <time>2023-09-09T09:23:29Z</time>
      </trkpt>
      <trkpt lat="42.85646" lon="2.36246">
        <ele>564</ele>
        <time>2023-09-09T09:23:30Z</time>
      </trkpt>
      <trkpt lat="42.85646" lon="2.36247">
        <ele>564</ele>
        <time>2023-09-09T09:23:31Z</time>
      </trkpt>
      <trkpt lat="42.85645" lon="2.36249">
        <ele>565</ele>
        <time>2023-09-09T09:23:32Z</time>
      </trkpt>
      <trkpt lat="42.85644" lon="2.36251">
        <ele>565</ele>
        <time>2023-09-09T09:23:33Z</time>
      </trkpt>
      <trkpt lat="42.85643" lon="2.36252">
        <ele>565</ele>
        <time>2023-09-09T09:23:34Z</time>
      </trkpt>
      <trkpt lat="42.85643" lon="2.36253">
        <ele>565</ele>
        <time>2023-09-09T09:23:35Z</time>
      </trkpt>
      <trkpt lat="42.85642" lon="2.36255">
        <ele>565</ele>
        <time>2023-09-09T09:23:36Z</time>
      </trkpt>
      <trkpt lat="42.85641" lon="2.36256">
        <ele>566</ele>
        <time>2023-09-09T09:23:37Z</time>
      </trkpt>
      <trkpt lat="42.85641" lon="2.36258">
        <ele>566</ele>
        <time>2023-09-09T09:23:38Z</time>
      </trkpt>
      <trkpt lat="42.8564" lon="2.3626">
        <ele>566</ele>
        <time>2023-09-09T09:23:39Z</time>
      </trkpt>
      <trkpt lat="42.85641" lon="2.36262">
        <ele>566</ele>
        <time>2023-09-09T09:23:40Z</time>
      </trkpt>
      <trkpt lat="42.85641" lon="2.36264">
        <ele>566</ele>
        <time>2023-09-09T09:23:41Z</time>
      </trkpt>
      <trkpt lat="42.85641" lon="2.36266">
        <ele>567</ele>
        <time>2023-09-09T09:23:42Z</time>
      </trkpt>
      <trkpt lat="42.85642" lon="2.36268">
        <ele>567</ele>
        <time>2023-09-09T09:23:43Z</time>
      </trkpt>
      <trkpt lat="42.85641" lon="2.3627">
        <ele>567</ele>
        <time>2023-09-09T09:23:44Z</time>
      </trkpt>
      <trkpt lat="42.85641" lon="2.36271">
        <ele>567</ele>
        <time>2023-09-09T09:23:45Z</time>
      </trkpt>
      <trkpt lat="42.85639" lon="2.36273">
        <ele>567</ele>
        <time>2023-09-09T09:23:46Z</time>
      </trkpt>
      <trkpt lat="42.85638" lon="2.36274">
        <ele>567</ele>
        <time>2023-09-09T09:23:47Z</time>
      </trkpt>
      <trkpt lat="42.85636" lon="2.36275">
        <ele>567</ele>
        <time>2023-09-09T09:23:48Z</time>
      </trkpt>
      <trkpt lat="42.85635" lon="2.36276">
        <ele>567</ele>
        <time>2023-09-09T09:23:49Z</time>
      </trkpt>
      <trkpt lat="42.85633" lon="2.36277">
        <ele>567</ele>
        <time>2023-09-09T09:23:50Z</time>
      </trkpt>
      <trkpt lat="42.85632" lon="2.36279">
        <ele>567</ele>
        <time>2023-09-09T09:23:51Z</time>
      </trkpt>
      <trkpt lat="42.8563" lon="2.3628">
        <ele>568</ele>
        <time>2023-09-09T09:23:52Z</time>
      </trkpt>
      <trkpt lat="42.85629" lon="2.36281">
        <ele>568</ele>
        <time>2023-09-09T09:23:53Z</time>
      </trkpt>
      <trkpt lat="42.85628" lon="2.36283">
        <ele>568</ele>
        <time>2023-09-09T09:23:54Z</time>
      </trkpt>
      <trkpt lat="42.85627" lon="2.36284">
        <ele>568</ele>
        <time>2023-09-09T09:23:55Z</time>
      </trkpt>
      <trkpt lat="42.85625" lon="2.36285">
        <ele>568</ele>
        <time>2023-09-09T09:23:56Z</time>
      </trkpt>
      <trkpt lat="42.85623" lon="2.36286">
        <ele>568</ele>
        <time>2023-09-09T09:23:57Z</time>
      </trkpt>
      <trkpt lat="42.85622" lon="2.36287">
        <ele>568</ele>
        <time>2023-09-09T09:23:58Z</time>
      </trkpt>
      <trkpt lat="42.8562" lon="2.36288">
        <ele>568</ele>
        <time>2023-09-09T09:23:59Z</time>
      </trkpt>
      <trkpt lat="42.85619" lon="2.36289">
        <ele>568</ele>
        <time>2023-09-09T09:24:00Z</time>
      </trkpt>
      <trkpt lat="42.85617" lon="2.3629">
        <ele>568</ele>
        <time>2023-09-09T09:24:01Z</time>
      </trkpt>
      <trkpt lat="42.85616" lon="2.3629">
        <ele>569</ele>
        <time>2023-09-09T09:24:02Z</time>
      </trkpt>
      <trkpt lat="42.85615" lon="2.36291">
        <ele>569</ele>
        <time>2023-09-09T09:24:03Z</time>
      </trkpt>
      <trkpt lat="42.85614" lon="2.36292">
        <ele>569</ele>
        <time>2023-09-09T09:24:04Z</time>
      </trkpt>
      <trkpt lat="42.85613" lon="2.36293">
        <ele>569</ele>
        <time>2023-09-09T09:24:05Z</time>
      </trkpt>
      <trkpt lat="42.85612" lon="2.36295">
        <ele>569</ele>
        <time>2023-09-09T09:24:06Z</time>
      </trkpt>
      <trkpt lat="42.85612" lon="2.36296">
        <ele>569</ele>
        <time>2023-09-09T09:24:07Z</time>
      </trkpt>
      <trkpt lat="42.85611" lon="2.36298">
        <ele>569</ele>
        <time>2023-09-09T09:24:08Z</time>
      </trkpt>
      <trkpt lat="42.8561" lon="2.36299">
        <ele>569</ele>
        <time>2023-09-09T09:24:09Z</time>
      </trkpt>
      <trkpt lat="42.85608" lon="2.363">
        <ele>569</ele>
        <time>2023-09-09T09:24:10Z</time>
      </trkpt>
      <trkpt lat="42.85606" lon="2.363">
        <ele>569</ele>
        <time>2023-09-09T09:24:11Z</time>
      </trkpt>
      <trkpt lat="42.85603" lon="2.363">
        <ele>570</ele>
        <time>2023-09-09T09:24:12Z</time>
      </trkpt>
      <trkpt lat="42.856" lon="2.36301">
        <ele>570</ele>
        <time>2023-09-09T09:24:13Z</time>
      </trkpt>
      <trkpt lat="42.85598" lon="2.36301">
        <ele>570</ele>
        <time>2023-09-09T09:24:14Z</time>
      </trkpt>
      <trkpt lat="42.85596" lon="2.36302">
        <ele>570</ele>
        <time>2023-09-09T09:24:15Z</time>
      </trkpt>
      <trkpt lat="42.85594" lon="2.36303">
        <ele>570</ele>
        <time>2023-09-09T09:24:16Z</time>
      </trkpt>
      <trkpt lat="42.85592" lon="2.36304">
        <ele>571</ele>
        <time>2023-09-09T09:24:17Z</time>
      </trkpt>
      <trkpt lat="42.85591" lon="2.36305">
        <ele>571</ele>
        <time>2023-09-09T09:24:18Z</time>
      </trkpt>
      <trkpt lat="42.8559" lon="2.36306">
        <ele>571</ele>
        <time>2023-09-09T09:24:19Z</time>
      </trkpt>
      <trkpt lat="42.85589" lon="2.36308">
        <ele>571</ele>
        <time>2023-09-09T09:24:20Z</time>
      </trkpt>
      <trkpt lat="42.85588" lon="2.36309">
        <ele>571</ele>
        <time>2023-09-09T09:24:21Z</time>
      </trkpt>
      <trkpt lat="42.85587" lon="2.3631">
        <ele>571</ele>
        <time>2023-09-09T09:24:22Z</time>
      </trkpt>
      <trkpt lat="42.85586" lon="2.36311">
        <ele>571</ele>
        <time>2023-09-09T09:24:23Z</time>
      </trkpt>
      <trkpt lat="42.85585" lon="2.36312">
        <ele>571</ele>
        <time>2023-09-09T09:24:24Z</time>
      </trkpt>
      <trkpt lat="42.85584" lon="2.36313">
        <ele>571</ele>
        <time>2023-09-09T09:24:25Z</time>
      </trkpt>
      <trkpt lat="42.85583" lon="2.36314">
        <ele>571</ele>
        <time>2023-09-09T09:24:26Z</time>
      </trkpt>
      <trkpt lat="42.85582" lon="2.36315">
        <ele>572</ele>
        <time>2023-09-09T09:24:27Z</time>
      </trkpt>
      <trkpt lat="42.8558" lon="2.36316">
        <ele>572</ele>
        <time>2023-09-09T09:24:28Z</time>
      </trkpt>
      <trkpt lat="42.85579" lon="2.36317">
        <ele>572</ele>
        <time>2023-09-09T09:24:29Z</time>
      </trkpt>
      <trkpt lat="42.85578" lon="2.36318">
        <ele>572</ele>
        <time>2023-09-09T09:24:30Z</time>
      </trkpt>
      <trkpt lat="42.85577" lon="2.36319">
        <ele>572</ele>
        <time>2023-09-09T09:24:31Z</time>
      </trkpt>
      <trkpt lat="42.85576" lon="2.3632">
        <ele>573</ele>
        <time>2023-09-09T09:24:32Z</time>
      </trkpt>
      <trkpt lat="42.85575" lon="2.36321">
        <ele>573</ele>
        <time>2023-09-09T09:24:33Z</time>
      </trkpt>
      <trkpt lat="42.85574" lon="2.36322">
        <ele>573</ele>
        <time>2023-09-09T09:24:34Z</time>
      </trkpt>
      <trkpt lat="42.85572" lon="2.36323">
        <ele>573</ele>
        <time>2023-09-09T09:24:35Z</time>
      </trkpt>
      <trkpt lat="42.85571" lon="2.36323">
        <ele>573</ele>
        <time>2023-09-09T09:24:36Z</time>
      </trkpt>
      <trkpt lat="42.85569" lon="2.36323">
        <ele>574</ele>
        <time>2023-09-09T09:24:37Z</time>
      </trkpt>
      <trkpt lat="42.85568" lon="2.36323">
        <ele>574</ele>
        <time>2023-09-09T09:24:38Z</time>
      </trkpt>
      <trkpt lat="42.85567" lon="2.36324">
        <ele>574</ele>
        <time>2023-09-09T09:24:39Z</time>
      </trkpt>
      <trkpt lat="42.85565" lon="2.36324">
        <ele>574</ele>
        <time>2023-09-09T09:24:40Z</time>
      </trkpt>
      <trkpt lat="42.85564" lon="2.36324">
        <ele>574</ele>
        <time>2023-09-09T09:24:41Z</time>
      </trkpt>
      <trkpt lat="42.85562" lon="2.36325">
        <ele>575</ele>
        <time>2023-09-09T09:24:42Z</time>
      </trkpt>
      <trkpt lat="42.85561" lon="2.36326">
        <ele>575</ele>
        <time>2023-09-09T09:24:43Z</time>
      </trkpt>
      <trkpt lat="42.85559" lon="2.36327">
        <ele>575</ele>
        <time>2023-09-09T09:24:44Z</time>
      </trkpt>
      <trkpt lat="42.85558" lon="2.36329">
        <ele>575</ele>
        <time>2023-09-09T09:24:45Z</time>
      </trkpt>
      <trkpt lat="42.85557" lon="2.3633">
        <ele>575</ele>
        <time>2023-09-09T09:24:46Z</time>
      </trkpt>
      <trkpt lat="42.85557" lon="2.36332">
        <ele>575</ele>
        <time>2023-09-09T09:24:47Z</time>
      </trkpt>
      <trkpt lat="42.85556" lon="2.36334">
        <ele>575</ele>
        <time>2023-09-09T09:24:48Z</time>
      </trkpt>
      <trkpt lat="42.85556" lon="2.36335">
        <ele>575</ele>
        <time>2023-09-09T09:24:49Z</time>
      </trkpt>
      <trkpt lat="42.85555" lon="2.36337">
        <ele>575</ele>
        <time>2023-09-09T09:24:50Z</time>
      </trkpt>
      <trkpt lat="42.85554" lon="2.36338">
        <ele>575</ele>
        <time>2023-09-09T09:24:51Z</time>
      </trkpt>
      <trkpt lat="42.85554" lon="2.36339">
        <ele>576</ele>
        <time>2023-09-09T09:24:52Z</time>
      </trkpt>
      <trkpt lat="42.85553" lon="2.3634">
        <ele>576</ele>
        <time>2023-09-09T09:24:53Z</time>
      </trkpt>
      <trkpt lat="42.85553" lon="2.36342">
        <ele>576</ele>
        <time>2023-09-09T09:24:54Z</time>
      </trkpt>
      <trkpt lat="42.85552" lon="2.36343">
        <ele>576</ele>
        <time>2023-09-09T09:24:55Z</time>
      </trkpt>
      <trkpt lat="42.85552" lon="2.36345">
        <ele>576</ele>
        <time>2023-09-09T09:24:56Z</time>
      </trkpt>
      <trkpt lat="42.85551" lon="2.36347">
        <ele>576</ele>
        <time>2023-09-09T09:24:57Z</time>
      </trkpt>
      <trkpt lat="42.85551" lon="2.36349">
        <ele>576</ele>
        <time>2023-09-09T09:24:58Z</time>
      </trkpt>
      <trkpt lat="42.85551" lon="2.36351">
        <ele>576</ele>
        <time>2023-09-09T09:24:59Z</time>
      </trkpt>
      <trkpt lat="42.8555" lon="2.36353">
        <ele>576</ele>
        <time>2023-09-09T09:25:00Z</time>
      </trkpt>
      <trkpt lat="42.8555" lon="2.36355">
        <ele>576</ele>
        <time>2023-09-09T09:25:01Z</time>
      </trkpt>
      <trkpt lat="42.85549" lon="2.36356">
        <ele>577</ele>
        <time>2023-09-09T09:25:02Z</time>
      </trkpt>
      <trkpt lat="42.85548" lon="2.36358">
        <ele>577</ele>
        <time>2023-09-09T09:25:03Z</time>
      </trkpt>
      <trkpt lat="42.85547" lon="2.3636">
        <ele>577</ele>
        <time>2023-09-09T09:25:04Z</time>
      </trkpt>
      <trkpt lat="42.85546" lon="2.36361">
        <ele>577</ele>
        <time>2023-09-09T09:25:05Z</time>
      </trkpt>
      <trkpt lat="42.85545" lon="2.36363">
        <ele>577</ele>
        <time>2023-09-09T09:25:06Z</time>
      </trkpt>
      <trkpt lat="42.85543" lon="2.36364">
        <ele>577</ele>
        <time>2023-09-09T09:25:07Z</time>
      </trkpt>
      <trkpt lat="42.85542" lon="2.36366">
        <ele>577</ele>
        <time>2023-09-09T09:25:08Z</time>
      </trkpt>
      <trkpt lat="42.85541" lon="2.36368">
        <ele>577</ele>
        <time>2023-09-09T09:25:09Z</time>
      </trkpt>
      <trkpt lat="42.8554" lon="2.36371">
        <ele>577</ele>
        <time>2023-09-09T09:25:10Z</time>
      </trkpt>
      <trkpt lat="42.85539" lon="2.36374">
        <ele>577</ele>
        <time>2023-09-09T09:25:11Z</time>
      </trkpt>
      <trkpt lat="42.85538" lon="2.36376">
        <ele>578</ele>
        <time>2023-09-09T09:25:12Z</time>
      </trkpt>
      <trkpt lat="42.85537" lon="2.36379">
        <ele>578</ele>
        <time>2023-09-09T09:25:13Z</time>
      </trkpt>
      <trkpt lat="42.85536" lon="2.3638">
        <ele>578</ele>
        <time>2023-09-09T09:25:14Z</time>
      </trkpt>
      <trkpt lat="42.85535" lon="2.36382">
        <ele>578</ele>
        <time>2023-09-09T09:25:15Z</time>
      </trkpt>
      <trkpt lat="42.85534" lon="2.36384">
        <ele>578</ele>
        <time>2023-09-09T09:25:16Z</time>
      </trkpt>
      <trkpt lat="42.85533" lon="2.36385">
        <ele>579</ele>
        <time>2023-09-09T09:25:17Z</time>
      </trkpt>
      <trkpt lat="42.85532" lon="2.36387">
        <ele>579</ele>
        <time>2023-09-09T09:25:18Z</time>
      </trkpt>
      <trkpt lat="42.85531" lon="2.36388">
        <ele>579</ele>
        <time>2023-09-09T09:25:19Z</time>
      </trkpt>
      <trkpt lat="42.85531" lon="2.3639">
        <ele>579</ele>
        <time>2023-09-09T09:25:20Z</time>
      </trkpt>
      <trkpt lat="42.8553" lon="2.36392">
        <ele>579</ele>
        <time>2023-09-09T09:25:21Z</time>
      </trkpt>
      <trkpt lat="42.85529" lon="2.36394">
        <ele>579</ele>
        <time>2023-09-09T09:25:22Z</time>
      </trkpt>
      <trkpt lat="42.85529" lon="2.36395">
        <ele>579</ele>
        <time>2023-09-09T09:25:23Z</time>
      </trkpt>
      <trkpt lat="42.85528" lon="2.36397">
        <ele>579</ele>
        <time>2023-09-09T09:25:24Z</time>
      </trkpt>
      <trkpt lat="42.85527" lon="2.36399">
        <ele>579</ele>
        <time>2023-09-09T09:25:25Z</time>
      </trkpt>
      <trkpt lat="42.85526" lon="2.364">
        <ele>579</ele>
        <time>2023-09-09T09:25:26Z</time>
      </trkpt>
      <trkpt lat="42.85524" lon="2.36402">
        <ele>580</ele>
        <time>2023-09-09T09:25:27Z</time>
      </trkpt>
      <trkpt lat="42.85524" lon="2.36404">
        <ele>580</ele>
        <time>2023-09-09T09:25:28Z</time>
      </trkpt>
      <trkpt lat="42.85523" lon="2.36406">
        <ele>580</ele>
        <time>2023-09-09T09:25:29Z</time>
      </trkpt>
      <trkpt lat="42.85522" lon="2.36408">
        <ele>580</ele>
        <time>2023-09-09T09:25:30Z</time>
      </trkpt>
      <trkpt lat="42.85522" lon="2.36411">
        <ele>580</ele>
        <time>2023-09-09T09:25:31Z</time>
      </trkpt>
      <trkpt lat="42.85521" lon="2.36413">
        <ele>580</ele>
        <time>2023-09-09T09:25:32Z</time>
      </trkpt>
      <trkpt lat="42.85521" lon="2.36415">
        <ele>580</ele>
        <time>2023-09-09T09:25:33Z</time>
      </trkpt>
      <trkpt lat="42.85521" lon="2.36417">
        <ele>580</ele>
        <time>2023-09-09T09:25:34Z</time>
      </trkpt>
      <trkpt lat="42.8552" lon="2.36419">
        <ele>580</ele>
        <time>2023-09-09T09:25:35Z</time>
      </trkpt>
      <trkpt lat="42.8552" lon="2.36422">
        <ele>580</ele>
        <time>2023-09-09T09:25:36Z</time>
      </trkpt>
      <trkpt lat="42.8552" lon="2.36424">
        <ele>580</ele>
        <time>2023-09-09T09:25:37Z</time>
      </trkpt>
      <trkpt lat="42.85519" lon="2.36425">
        <ele>580</ele>
        <time>2023-09-09T09:25:38Z</time>
      </trkpt>
      <trkpt lat="42.85518" lon="2.36427">
        <ele>580</ele>
        <time>2023-09-09T09:25:39Z</time>
      </trkpt>
      <trkpt lat="42.85518" lon="2.36429">
        <ele>580</ele>
        <time>2023-09-09T09:25:40Z</time>
      </trkpt>
      <trkpt lat="42.85518" lon="2.36431">
        <ele>580</ele>
        <time>2023-09-09T09:25:41Z</time>
      </trkpt>
      <trkpt lat="42.85518" lon="2.36434">
        <ele>581</ele>
        <time>2023-09-09T09:25:42Z</time>
      </trkpt>
      <trkpt lat="42.85517" lon="2.36436">
        <ele>581</ele>
        <time>2023-09-09T09:25:43Z</time>
      </trkpt>
      <trkpt lat="42.85517" lon="2.36438">
        <ele>581</ele>
        <time>2023-09-09T09:25:44Z</time>
      </trkpt>
      <trkpt lat="42.85516" lon="2.3644">
        <ele>581</ele>
        <time>2023-09-09T09:25:45Z</time>
      </trkpt>
      <trkpt lat="42.85516" lon="2.36442">
        <ele>581</ele>
        <time>2023-09-09T09:25:46Z</time>
      </trkpt>
      <trkpt lat="42.85515" lon="2.36444">
        <ele>581</ele>
        <time>2023-09-09T09:25:47Z</time>
      </trkpt>
      <trkpt lat="42.85514" lon="2.36446">
        <ele>581</ele>
        <time>2023-09-09T09:25:48Z</time>
      </trkpt>
      <trkpt lat="42.85514" lon="2.36448">
        <ele>581</ele>
        <time>2023-09-09T09:25:49Z</time>
      </trkpt>
      <trkpt lat="42.85513" lon="2.3645">
        <ele>581</ele>
        <time>2023-09-09T09:25:50Z</time>
      </trkpt>
      <trkpt lat="42.85512" lon="2.36453">
        <ele>581</ele>
        <time>2023-09-09T09:25:51Z</time>
      </trkpt>
      <trkpt lat="42.85512" lon="2.36455">
        <ele>581</ele>
        <time>2023-09-09T09:25:52Z</time>
      </trkpt>
      <trkpt lat="42.85512" lon="2.36457">
        <ele>581</ele>
        <time>2023-09-09T09:25:53Z</time>
      </trkpt>
      <trkpt lat="42.85511" lon="2.3646">
        <ele>581</ele>
        <time>2023-09-09T09:25:54Z</time>
      </trkpt>
      <trkpt lat="42.85511" lon="2.36462">
        <ele>581</ele>
        <time>2023-09-09T09:25:55Z</time>
      </trkpt>
      <trkpt lat="42.85511" lon="2.36465">
        <ele>581</ele>
        <time>2023-09-09T09:25:56Z</time>
      </trkpt>
      <trkpt lat="42.85511" lon="2.36467">
        <ele>581</ele>
        <time>2023-09-09T09:25:57Z</time>
      </trkpt>
      <trkpt lat="42.85511" lon="2.3647">
        <ele>581</ele>
        <time>2023-09-09T09:25:58Z</time>
      </trkpt>
      <trkpt lat="42.85511" lon="2.36472">
        <ele>581</ele>
        <time>2023-09-09T09:25:59Z</time>
      </trkpt>
      <trkpt lat="42.85512" lon="2.36475">
        <ele>581</ele>
        <time>2023-09-09T09:26:00Z</time>
      </trkpt>
      <trkpt lat="42.85512" lon="2.36477">
        <ele>581</ele>
        <time>2023-09-09T09:26:01Z</time>
      </trkpt>
      <trkpt lat="42.85512" lon="2.3648">
        <ele>581</ele>
        <time>2023-09-09T09:26:02Z</time>
      </trkpt>
      <trkpt lat="42.85512" lon="2.36482">
        <ele>580</ele>
        <time>2023-09-09T09:26:03Z</time>
      </trkpt>
      <trkpt lat="42.85511" lon="2.36484">
        <ele>580</ele>
        <time>2023-09-09T09:26:04Z</time>
      </trkpt>
      <trkpt lat="42.8551" lon="2.36486">
        <ele>580</ele>
        <time>2023-09-09T09:26:05Z</time>
      </trkpt>
      <trkpt lat="42.85509" lon="2.36488">
        <ele>580</ele>
        <time>2023-09-09T09:26:06Z</time>
      </trkpt>
      <trkpt lat="42.85508" lon="2.3649">
        <ele>580</ele>
        <time>2023-09-09T09:26:07Z</time>
      </trkpt>
      <trkpt lat="42.85507" lon="2.36492">
        <ele>580</ele>
        <time>2023-09-09T09:26:08Z</time>
      </trkpt>
      <trkpt lat="42.85507" lon="2.36495">
        <ele>580</ele>
        <time>2023-09-09T09:26:09Z</time>
      </trkpt>
      <trkpt lat="42.85506" lon="2.36497">
        <ele>580</ele>
        <time>2023-09-09T09:26:10Z</time>
      </trkpt>
      <trkpt lat="42.85506" lon="2.36499">
        <ele>580</ele>
        <time>2023-09-09T09:26:11Z</time>
      </trkpt>
      <trkpt lat="42.85505" lon="2.36502">
        <ele>580</ele>
        <time>2023-09-09T09:26:12Z</time>
      </trkpt>
      <trkpt lat="42.85504" lon="2.36504">
        <ele>579</ele>
        <time>2023-09-09T09:26:13Z</time>
      </trkpt>
      <trkpt lat="42.85503" lon="2.36506">
        <ele>579</ele>
        <time>2023-09-09T09:26:14Z</time>
      </trkpt>
      <trkpt lat="42.85502" lon="2.36508">
        <ele>579</ele>
        <time>2023-09-09T09:26:15Z</time>
      </trkpt>
      <trkpt lat="42.85501" lon="2.3651">
        <ele>579</ele>
        <time>2023-09-09T09:26:16Z</time>
      </trkpt>
      <trkpt lat="42.85499" lon="2.36512">
        <ele>579</ele>
        <time>2023-09-09T09:26:17Z</time>
      </trkpt>
      <trkpt lat="42.85498" lon="2.36515">
        <ele>578</ele>
        <time>2023-09-09T09:26:18Z</time>
      </trkpt>
      <trkpt lat="42.85497" lon="2.36517">
        <ele>578</ele>
        <time>2023-09-09T09:26:19Z</time>
      </trkpt>
      <trkpt lat="42.85496" lon="2.3652">
        <ele>578</ele>
        <time>2023-09-09T09:26:20Z</time>
      </trkpt>
      <trkpt lat="42.85495" lon="2.36522">
        <ele>578</ele>
        <time>2023-09-09T09:26:21Z</time>
      </trkpt>
      <trkpt lat="42.85495" lon="2.36525">
        <ele>578</ele>
        <time>2023-09-09T09:26:22Z</time>
      </trkpt>
      <trkpt lat="42.85494" lon="2.36527">
        <ele>577</ele>
        <time>2023-09-09T09:26:23Z</time>
      </trkpt>
      <trkpt lat="42.85493" lon="2.36529">
        <ele>577</ele>
        <time>2023-09-09T09:26:24Z</time>
      </trkpt>
      <trkpt lat="42.85492" lon="2.36531">
        <ele>577</ele>
        <time>2023-09-09T09:26:25Z</time>
      </trkpt>
      <trkpt lat="42.85491" lon="2.36533">
        <ele>577</ele>
        <time>2023-09-09T09:26:26Z</time>
      </trkpt>
      <trkpt lat="42.85491" lon="2.36536">
        <ele>577</ele>
        <time>2023-09-09T09:26:27Z</time>
      </trkpt>
      <trkpt lat="42.8549" lon="2.36538">
        <ele>577</ele>
        <time>2023-09-09T09:26:28Z</time>
      </trkpt>
      <trkpt lat="42.8549" lon="2.36541">
        <ele>577</ele>
        <time>2023-09-09T09:26:29Z</time>
      </trkpt>
      <trkpt lat="42.85489" lon="2.36544">
        <ele>577</ele>
        <time>2023-09-09T09:26:30Z</time>
      </trkpt>
      <trkpt lat="42.85488" lon="2.36547">
        <ele>577</ele>
        <time>2023-09-09T09:26:31Z</time>
      </trkpt>
      <trkpt lat="42.85487" lon="2.36549">
        <ele>577</ele>
        <time>2023-09-09T09:26:32Z</time>
      </trkpt>
      <trkpt lat="42.85485" lon="2.36552">
        <ele>576</ele>
        <time>2023-09-09T09:26:33Z</time>
      </trkpt>
      <trkpt lat="42.85484" lon="2.36554">
        <ele>576</ele>
        <time>2023-09-09T09:26:34Z</time>
      </trkpt>
      <trkpt lat="42.85483" lon="2.36556">
        <ele>576</ele>
        <time>2023-09-09T09:26:35Z</time>
      </trkpt>
      <trkpt lat="42.85483" lon="2.36559">
        <ele>576</ele>
        <time>2023-09-09T09:26:36Z</time>
      </trkpt>
      <trkpt lat="42.85482" lon="2.36562">
        <ele>576</ele>
        <time>2023-09-09T09:26:37Z</time>
      </trkpt>
      <trkpt lat="42.85482" lon="2.36564">
        <ele>576</ele>
        <time>2023-09-09T09:26:38Z</time>
      </trkpt>
      <trkpt lat="42.85481" lon="2.36567">
        <ele>576</ele>
        <time>2023-09-09T09:26:39Z</time>
      </trkpt>
      <trkpt lat="42.85481" lon="2.3657">
        <ele>576</ele>
        <time>2023-09-09T09:26:40Z</time>
      </trkpt>
      <trkpt lat="42.8548" lon="2.36572">
        <ele>576</ele>
        <time>2023-09-09T09:26:41Z</time>
      </trkpt>
      <trkpt lat="42.85479" lon="2.36575">
        <ele>576</ele>
        <time>2023-09-09T09:26:42Z</time>
      </trkpt>
      <trkpt lat="42.85478" lon="2.36577">
        <ele>576</ele>
        <time>2023-09-09T09:26:43Z</time>
      </trkpt>
      <trkpt lat="42.85477" lon="2.36579">
        <ele>576</ele>
        <time>2023-09-09T09:26:44Z</time>
      </trkpt>
      <trkpt lat="42.85477" lon="2.36582">
        <ele>576</ele>
        <time>2023-09-09T09:26:45Z</time>
      </trkpt>
      <trkpt lat="42.85476" lon="2.36584">
        <ele>576</ele>
        <time>2023-09-09T09:26:46Z</time>
      </trkpt>
      <trkpt lat="42.85475" lon="2.36587">
        <ele>576</ele>
        <time>2023-09-09T09:26:47Z</time>
      </trkpt>
      <trkpt lat="42.85473" lon="2.36589">
        <ele>575</ele>
        <time>2023-09-09T09:26:48Z</time>
      </trkpt>
      <trkpt lat="42.85472" lon="2.36591">
        <ele>575</ele>
        <time>2023-09-09T09:26:49Z</time>
      </trkpt>
      <trkpt lat="42.8547" lon="2.36593">
        <ele>575</ele>
        <time>2023-09-09T09:26:50Z</time>
      </trkpt>
      <trkpt lat="42.85469" lon="2.36596">
        <ele>575</ele>
        <time>2023-09-09T09:26:51Z</time>
      </trkpt>
      <trkpt lat="42.85469" lon="2.36598">
        <ele>575</ele>
        <time>2023-09-09T09:26:52Z</time>
      </trkpt>
      <trkpt lat="42.85468" lon="2.366">
        <ele>574</ele>
        <time>2023-09-09T09:26:53Z</time>
      </trkpt>
      <trkpt lat="42.85467" lon="2.36603">
        <ele>574</ele>
        <time>2023-09-09T09:26:54Z</time>
      </trkpt>
      <trkpt lat="42.85467" lon="2.36605">
        <ele>574</ele>
        <time>2023-09-09T09:26:55Z</time>
      </trkpt>
      <trkpt lat="42.85467" lon="2.36607">
        <ele>574</ele>
        <time>2023-09-09T09:26:56Z</time>
      </trkpt>
      <trkpt lat="42.85466" lon="2.36609">
        <ele>574</ele>
        <time>2023-09-09T09:26:57Z</time>
      </trkpt>
      <trkpt lat="42.85465" lon="2.36611">
        <ele>573</ele>
        <time>2023-09-09T09:26:58Z</time>
      </trkpt>
      <trkpt lat="42.85464" lon="2.36614">
        <ele>573</ele>
        <time>2023-09-09T09:26:59Z</time>
      </trkpt>
      <trkpt lat="42.85463" lon="2.36616">
        <ele>573</ele>
        <time>2023-09-09T09:27:00Z</time>
      </trkpt>
      <trkpt lat="42.85462" lon="2.36617">
        <ele>573</ele>
        <time>2023-09-09T09:27:01Z</time>
      </trkpt>
      <trkpt lat="42.85462" lon="2.3662">
        <ele>573</ele>
        <time>2023-09-09T09:27:02Z</time>
      </trkpt>
      <trkpt lat="42.85461" lon="2.36622">
        <ele>572</ele>
        <time>2023-09-09T09:27:03Z</time>
      </trkpt>
      <trkpt lat="42.8546" lon="2.36625">
        <ele>572</ele>
        <time>2023-09-09T09:27:04Z</time>
      </trkpt>
      <trkpt lat="42.8546" lon="2.36628">
        <ele>572</ele>
        <time>2023-09-09T09:27:05Z</time>
      </trkpt>
      <trkpt lat="42.85459" lon="2.3663">
        <ele>572</ele>
        <time>2023-09-09T09:27:06Z</time>
      </trkpt>
      <trkpt lat="42.85458" lon="2.36632">
        <ele>572</ele>
        <time>2023-09-09T09:27:07Z</time>
      </trkpt>
      <trkpt lat="42.85455" lon="2.36634">
        <ele>570</ele>
        <time>2023-09-09T09:27:15Z</time>
      </trkpt>
      <trkpt lat="42.85455" lon="2.36634">
        <ele>570</ele>
        <time>2023-09-09T09:27:16Z</time>
      </trkpt>
      <trkpt lat="42.85454" lon="2.36634">
        <ele>570</ele>
        <time>2023-09-09T09:27:17Z</time>
      </trkpt>
      <trkpt lat="42.85454" lon="2.36634">
        <ele>569</ele>
        <time>2023-09-09T09:27:18Z</time>
      </trkpt>
      <trkpt lat="42.85455" lon="2.36634">
        <ele>569</ele>
        <time>2023-09-09T09:27:19Z</time>
      </trkpt>
      <trkpt lat="42.85456" lon="2.36634">
        <ele>569</ele>
        <time>2023-09-09T09:27:20Z</time>
      </trkpt>
      <trkpt lat="42.85457" lon="2.36634">
        <ele>569</ele>
        <time>2023-09-09T09:27:21Z</time>
      </trkpt>
      <trkpt lat="42.85457" lon="2.36633">
        <ele>569</ele>
        <time>2023-09-09T09:27:22Z</time>
      </trkpt>
      <trkpt lat="42.85458" lon="2.36633">
        <ele>568</ele>
        <time>2023-09-09T09:27:23Z</time>
      </trkpt>
      <trkpt lat="42.85458" lon="2.36632">
        <ele>568</ele>
        <time>2023-09-09T09:27:24Z</time>
      </trkpt>
      <trkpt lat="42.85459" lon="2.36632">
        <ele>567</ele>
        <time>2023-09-09T09:27:25Z</time>
      </trkpt>
      <trkpt lat="42.85459" lon="2.36632">
        <ele>567</ele>
        <time>2023-09-09T09:27:26Z</time>
      </trkpt>
      <trkpt lat="42.8546" lon="2.36631">
        <ele>567</ele>
        <time>2023-09-09T09:27:27Z</time>
      </trkpt>
      <trkpt lat="42.8546" lon="2.3663">
        <ele>566</ele>
        <time>2023-09-09T09:27:28Z</time>
      </trkpt>
      <trkpt lat="42.85461" lon="2.3663">
        <ele>566</ele>
        <time>2023-09-09T09:27:29Z</time>
      </trkpt>
      <trkpt lat="42.85462" lon="2.36629">
        <ele>565</ele>
        <time>2023-09-09T09:27:30Z</time>
      </trkpt>
      <trkpt lat="42.85463" lon="2.36629">
        <ele>565</ele>
        <time>2023-09-09T09:27:31Z</time>
      </trkpt>
      <trkpt lat="42.85463" lon="2.36628">
        <ele>565</ele>
        <time>2023-09-09T09:27:32Z</time>
      </trkpt>
      <trkpt lat="42.85464" lon="2.36628">
        <ele>564</ele>
        <time>2023-09-09T09:27:33Z</time>
      </trkpt>
      <trkpt lat="42.85465" lon="2.36627">
        <ele>563</ele>
        <time>2023-09-09T09:27:34Z</time>
      </trkpt>
      <trkpt lat="42.85466" lon="2.36627">
        <ele>563</ele>
        <time>2023-09-09T09:27:35Z</time>
      </trkpt>
      <trkpt lat="42.85467" lon="2.36627">
        <ele>562</ele>
        <time>2023-09-09T09:27:36Z</time>
      </trkpt>
      <trkpt lat="42.85467" lon="2.36628">
        <ele>562</ele>
        <time>2023-09-09T09:27:37Z</time>
      </trkpt>
      <trkpt lat="42.85468" lon="2.36628">
        <ele>561</ele>
        <time>2023-09-09T09:27:38Z</time>
      </trkpt>
      <trkpt lat="42.85469" lon="2.36629">
        <ele>561</ele>
        <time>2023-09-09T09:27:39Z</time>
      </trkpt>
      <trkpt lat="42.8547" lon="2.36631">
        <ele>561</ele>
        <time>2023-09-09T09:27:40Z</time>
      </trkpt>
      <trkpt lat="42.8547" lon="2.36632">
        <ele>561</ele>
        <time>2023-09-09T09:27:41Z</time>
      </trkpt>
      <trkpt lat="42.85471" lon="2.36633">
        <ele>561</ele>
        <time>2023-09-09T09:27:42Z</time>
      </trkpt>
      <trkpt lat="42.85471" lon="2.36633">
        <ele>560</ele>
        <time>2023-09-09T09:27:43Z</time>
      </trkpt>
      <trkpt lat="42.85471" lon="2.36634">
        <ele>560</ele>
        <time>2023-09-09T09:27:44Z</time>
      </trkpt>
      <trkpt lat="42.85472" lon="2.36635">
        <ele>560</ele>
        <time>2023-09-09T09:27:45Z</time>
      </trkpt>
      <trkpt lat="42.85472" lon="2.36636">
        <ele>560</ele>
        <time>2023-09-09T09:27:46Z</time>
      </trkpt>
      <trkpt lat="42.85473" lon="2.36636">
        <ele>560</ele>
        <time>2023-09-09T09:27:47Z</time>
      </trkpt>
      <trkpt lat="42.85473" lon="2.36637">
        <ele>560</ele>
        <time>2023-09-09T09:27:48Z</time>
      </trkpt>
      <trkpt lat="42.85474" lon="2.36637">
        <ele>560</ele>
        <time>2023-09-09T09:27:49Z</time>
      </trkpt>
      <trkpt lat="42.85474" lon="2.36637">
        <ele>560</ele>
        <time>2023-09-09T09:27:50Z</time>
      </trkpt>
      <trkpt lat="42.85474" lon="2.36637">
        <ele>560</ele>
        <time>2023-09-09T09:27:51Z</time>
      </trkpt>
      <trkpt lat="42.85474" lon="2.36637">
        <ele>560</ele>
        <time>2023-09-09T09:27:52Z</time>
      </trkpt>
      <trkpt lat="42.85475" lon="2.36637">
        <ele>559</ele>
        <time>2023-09-09T09:27:53Z</time>
      </trkpt>
      <trkpt lat="42.85476" lon="2.36637">
        <ele>559</ele>
        <time>2023-09-09T09:27:54Z</time>
      </trkpt>
      <trkpt lat="42.85476" lon="2.36637">
        <ele>559</ele>
        <time>2023-09-09T09:27:55Z</time>
      </trkpt>
      <trkpt lat="42.85477" lon="2.36636">
        <ele>559</ele>
        <time>2023-09-09T09:27:56Z</time>
      </trkpt>
      <trkpt lat="42.85477" lon="2.36635">
        <ele>559</ele>
        <time>2023-09-09T09:27:57Z</time>
      </trkpt>
      <trkpt lat="42.85477" lon="2.36635">
        <ele>559</ele>
        <time>2023-09-09T09:27:58Z</time>
      </trkpt>
      <trkpt lat="42.85478" lon="2.36634">
        <ele>559</ele>
        <time>2023-09-09T09:27:59Z</time>
      </trkpt>
      <trkpt lat="42.85478" lon="2.36633">
        <ele>559</ele>
        <time>2023-09-09T09:28:00Z</time>
      </trkpt>
      <trkpt lat="42.85478" lon="2.36632">
        <ele>559</ele>
        <time>2023-09-09T09:28:01Z</time>
      </trkpt>
      <trkpt lat="42.85479" lon="2.36631">
        <ele>560</ele>
        <time>2023-09-09T09:28:02Z</time>
      </trkpt>
      <trkpt lat="42.8548" lon="2.36631">
        <ele>560</ele>
        <time>2023-09-09T09:28:03Z</time>
      </trkpt>
      <trkpt lat="42.85481" lon="2.3663">
        <ele>560</ele>
        <time>2023-09-09T09:28:04Z</time>
      </trkpt>
      <trkpt lat="42.85482" lon="2.36629">
        <ele>560</ele>
        <time>2023-09-09T09:28:05Z</time>
      </trkpt>
      <trkpt lat="42.85483" lon="2.36628">
        <ele>560</ele>
        <time>2023-09-09T09:28:06Z</time>
      </trkpt>
      <trkpt lat="42.85484" lon="2.36627">
        <ele>560</ele>
        <time>2023-09-09T09:28:07Z</time>
      </trkpt>
      <trkpt lat="42.85485" lon="2.36627">
        <ele>561</ele>
        <time>2023-09-09T09:28:15Z</time>
      </trkpt>
      <trkpt lat="42.85486" lon="2.36626">
        <ele>561</ele>
        <time>2023-09-09T09:28:16Z</time>
      </trkpt>
      <trkpt lat="42.85487" lon="2.36626">
        <ele>561</ele>
        <time>2023-09-09T09:28:17Z</time>
      </trkpt>
      <trkpt lat="42.85488" lon="2.36627">
        <ele>561</ele>
        <time>2023-09-09T09:28:18Z</time>
      </trkpt>
      <trkpt lat="42.85488" lon="2.36628">
        <ele>561</ele>
        <time>2023-09-09T09:28:19Z</time>
      </trkpt>
      <trkpt lat="42.85489" lon="2.36629">
        <ele>561</ele>
        <time>2023-09-09T09:28:20Z</time>
      </trkpt>
      <trkpt lat="42.85489" lon="2.3663">
        <ele>561</ele>
        <time>2023-09-09T09:28:21Z</time>
      </trkpt>
      <trkpt lat="42.8549" lon="2.36631">
        <ele>562</ele>
        <time>2023-09-09T09:28:22Z</time>
      </trkpt>
      <trkpt lat="42.8549" lon="2.36632">
        <ele>562</ele>
        <time>2023-09-09T09:28:23Z</time>
      </trkpt>
      <trkpt lat="42.85491" lon="2.36633">
        <ele>562</ele>
        <time>2023-09-09T09:28:24Z</time>
      </trkpt>
      <trkpt lat="42.85491" lon="2.36634">
        <ele>562</ele>
        <time>2023-09-09T09:28:25Z</time>
      </trkpt>
      <trkpt lat="42.85492" lon="2.36635">
        <ele>562</ele>
        <time>2023-09-09T09:28:26Z</time>
      </trkpt>
      <trkpt lat="42.85492" lon="2.36636">
        <ele>563</ele>
        <time>2023-09-09T09:28:27Z</time>
      </trkpt>
      <trkpt lat="42.85493" lon="2.36636">
        <ele>563</ele>
        <time>2023-09-09T09:28:28Z</time>
      </trkpt>
      <trkpt lat="42.85493" lon="2.36637">
        <ele>563</ele>
        <time>2023-09-09T09:28:29Z</time>
      </trkpt>
      <trkpt lat="42.85494" lon="2.36638">
        <ele>564</ele>
        <time>2023-09-09T09:28:30Z</time>
      </trkpt>
      <trkpt lat="42.85495" lon="2.36639">
        <ele>564</ele>
        <time>2023-09-09T09:28:31Z</time>
      </trkpt>
      <trkpt lat="42.85495" lon="2.3664">
        <ele>565</ele>
        <time>2023-09-09T09:28:32Z</time>
      </trkpt>
      <trkpt lat="42.85496" lon="2.3664">
        <ele>565</ele>
        <time>2023-09-09T09:28:33Z</time>
      </trkpt>
      <trkpt lat="42.85496" lon="2.36641">
        <ele>565</ele>
        <time>2023-09-09T09:28:34Z</time>
      </trkpt>
      <trkpt lat="42.85497" lon="2.36642">
        <ele>565</ele>
        <time>2023-09-09T09:28:35Z</time>
      </trkpt>
      <trkpt lat="42.85497" lon="2.36643">
        <ele>565</ele>
        <time>2023-09-09T09:28:36Z</time>
      </trkpt>
      <trkpt lat="42.85497" lon="2.36643">
        <ele>566</ele>
        <time>2023-09-09T09:28:37Z</time>
      </trkpt>
      <trkpt lat="42.85497" lon="2.36644">
        <ele>566</ele>
        <time>2023-09-09T09:28:38Z</time>
      </trkpt>
      <trkpt lat="42.85498" lon="2.36645">
        <ele>566</ele>
        <time>2023-09-09T09:28:39Z</time>
      </trkpt>
      <trkpt lat="42.85498" lon="2.36645">
        <ele>566</ele>
        <time>2023-09-09T09:28:40Z</time>
      </trkpt>
      <trkpt lat="42.85498" lon="2.36646">
        <ele>566</ele>
        <time>2023-09-09T09:28:41Z</time>
      </trkpt>
      <trkpt lat="42.85499" lon="2.36647">
        <ele>567</ele>
        <time>2023-09-09T09:28:42Z</time>
      </trkpt>
      <trkpt lat="42.855" lon="2.36648">
        <ele>568</ele>
        <time>2023-09-09T09:28:48Z</time>
      </trkpt>
      <trkpt lat="42.85501" lon="2.36649">
        <ele>568</ele>
        <time>2023-09-09T09:28:49Z</time>
      </trkpt>
      <trkpt lat="42.85502" lon="2.36649">
        <ele>569</ele>
        <time>2023-09-09T09:28:50Z</time>
      </trkpt>
      <trkpt lat="42.85503" lon="2.3665">
        <ele>569</ele>
        <time>2023-09-09T09:28:51Z</time>
      </trkpt>
      <trkpt lat="42.85505" lon="2.3665">
        <ele>570</ele>
        <time>2023-09-09T09:28:52Z</time>
      </trkpt>
      <trkpt lat="42.85505" lon="2.3665">
        <ele>570</ele>
        <time>2023-09-09T09:28:53Z</time>
      </trkpt>
      <trkpt lat="42.85506" lon="2.3665">
        <ele>570</ele>
        <time>2023-09-09T09:28:54Z</time>
      </trkpt>
      <trkpt lat="42.85506" lon="2.36651">
        <ele>570</ele>
        <time>2023-09-09T09:28:55Z</time>
      </trkpt>
      <trkpt lat="42.85507" lon="2.36651">
        <ele>570</ele>
        <time>2023-09-09T09:28:56Z</time>
      </trkpt>
      <trkpt lat="42.85507" lon="2.36651">
        <ele>571</ele>
        <time>2023-09-09T09:28:57Z</time>
      </trkpt>
      <trkpt lat="42.85508" lon="2.36652">
        <ele>571</ele>
        <time>2023-09-09T09:28:58Z</time>
      </trkpt>
      <trkpt lat="42.85509" lon="2.36652">
        <ele>571</ele>
        <time>2023-09-09T09:28:59Z</time>
      </trkpt>
      <trkpt lat="42.8551" lon="2.36652">
        <ele>571</ele>
        <time>2023-09-09T09:29:00Z</time>
      </trkpt>
      <trkpt lat="42.85511" lon="2.36652">
        <ele>571</ele>
        <time>2023-09-09T09:29:01Z</time>
      </trkpt>
      <trkpt lat="42.85511" lon="2.36653">
        <ele>572</ele>
        <time>2023-09-09T09:29:02Z</time>
      </trkpt>
      <trkpt lat="42.85512" lon="2.36653">
        <ele>572</ele>
        <time>2023-09-09T09:29:03Z</time>
      </trkpt>
      <trkpt lat="42.85513" lon="2.36654">
        <ele>572</ele>
        <time>2023-09-09T09:29:04Z</time>
      </trkpt>
      <trkpt lat="42.85514" lon="2.36655">
        <ele>572</ele>
        <time>2023-09-09T09:29:05Z</time>
      </trkpt>
      <trkpt lat="42.85515" lon="2.36656">
        <ele>572</ele>
        <time>2023-09-09T09:29:06Z</time>
      </trkpt>
      <trkpt lat="42.85516" lon="2.36657">
        <ele>573</ele>
        <time>2023-09-09T09:29:07Z</time>
      </trkpt>
      <trkpt lat="42.85517" lon="2.36658">
        <ele>573</ele>
        <time>2023-09-09T09:29:08Z</time>
      </trkpt>
      <trkpt lat="42.85517" lon="2.36658">
        <ele>573</ele>
        <time>2023-09-09T09:29:09Z</time>
      </trkpt>
      <trkpt lat="42.85518" lon="2.36659">
        <ele>573</ele>
        <time>2023-09-09T09:29:10Z</time>
      </trkpt>
      <trkpt lat="42.85519" lon="2.36659">
        <ele>573</ele>
        <time>2023-09-09T09:29:11Z</time>
      </trkpt>
      <trkpt lat="42.85519" lon="2.3666">
        <ele>574</ele>
        <time>2023-09-09T09:29:12Z</time>
      </trkpt>
      <trkpt lat="42.8552" lon="2.3666">
        <ele>574</ele>
        <time>2023-09-09T09:29:13Z</time>
      </trkpt>
      <trkpt lat="42.85521" lon="2.3666">
        <ele>574</ele>
        <time>2023-09-09T09:29:14Z</time>
      </trkpt>
      <trkpt lat="42.85521" lon="2.36659">
        <ele>574</ele>
        <time>2023-09-09T09:29:15Z</time>
      </trkpt>
      <trkpt lat="42.85522" lon="2.36659">
        <ele>574</ele>
        <time>2023-09-09T09:29:16Z</time>
      </trkpt>
      <trkpt lat="42.85523" lon="2.36659">
        <ele>575</ele>
        <time>2023-09-09T09:29:17Z</time>
      </trkpt>
      <trkpt lat="42.85523" lon="2.36658">
        <ele>575</ele>
        <time>2023-09-09T09:29:18Z</time>
      </trkpt>
      <trkpt lat="42.85524" lon="2.36658">
        <ele>575</ele>
        <time>2023-09-09T09:29:19Z</time>
      </trkpt>
      <trkpt lat="42.85525" lon="2.36657">
        <ele>575</ele>
        <time>2023-09-09T09:29:20Z</time>
      </trkpt>
      <trkpt lat="42.85526" lon="2.36657">
        <ele>575</ele>
        <time>2023-09-09T09:29:21Z</time>
      </trkpt>
      <trkpt lat="42.85527" lon="2.36657">
        <ele>576</ele>
        <time>2023-09-09T09:29:22Z</time>
      </trkpt>
      <trkpt lat="42.85528" lon="2.36657">
        <ele>576</ele>
        <time>2023-09-09T09:29:23Z</time>
      </trkpt>
      <trkpt lat="42.85529" lon="2.36657">
        <ele>576</ele>
        <time>2023-09-09T09:29:24Z</time>
      </trkpt>
      <trkpt lat="42.8553" lon="2.36657">
        <ele>576</ele>
        <time>2023-09-09T09:29:25Z</time>
      </trkpt>
      <trkpt lat="42.85531" lon="2.36657">
        <ele>576</ele>
        <time>2023-09-09T09:29:26Z</time>
      </trkpt>
      <trkpt lat="42.85532" lon="2.36657">
        <ele>577</ele>
        <time>2023-09-09T09:29:27Z</time>
      </trkpt>
      <trkpt lat="42.85533" lon="2.36657">
        <ele>577</ele>
        <time>2023-09-09T09:29:28Z</time>
      </trkpt>
      <trkpt lat="42.85534" lon="2.36657">
        <ele>577</ele>
        <time>2023-09-09T09:29:29Z</time>
      </trkpt>
      <trkpt lat="42.85535" lon="2.36657">
        <ele>577</ele>
        <time>2023-09-09T09:29:30Z</time>
      </trkpt>
      <trkpt lat="42.85536" lon="2.36657">
        <ele>577</ele>
        <time>2023-09-09T09:29:31Z</time>
      </trkpt>
      <trkpt lat="42.85537" lon="2.36657">
        <ele>578</ele>
        <time>2023-09-09T09:29:32Z</time>
      </trkpt>
      <trkpt lat="42.85538" lon="2.36657">
        <ele>578</ele>
        <time>2023-09-09T09:29:33Z</time>
      </trkpt>
      <trkpt lat="42.85539" lon="2.36657">
        <ele>578</ele>
        <time>2023-09-09T09:29:34Z</time>
      </trkpt>
      <trkpt lat="42.85539" lon="2.36656">
        <ele>578</ele>
        <time>2023-09-09T09:29:35Z</time>
      </trkpt>
      <trkpt lat="42.8554" lon="2.36656">
        <ele>578</ele>
        <time>2023-09-09T09:29:36Z</time>
      </trkpt>
      <trkpt lat="42.85541" lon="2.36656">
        <ele>579</ele>
        <time>2023-09-09T09:29:37Z</time>
      </trkpt>
      <trkpt lat="42.85541" lon="2.36656">
        <ele>579</ele>
        <time>2023-09-09T09:29:38Z</time>
      </trkpt>
      <trkpt lat="42.85542" lon="2.36657">
        <ele>579</ele>
        <time>2023-09-09T09:29:39Z</time>
      </trkpt>
      <trkpt lat="42.85543" lon="2.36656">
        <ele>579</ele>
        <time>2023-09-09T09:29:40Z</time>
      </trkpt>
      <trkpt lat="42.85544" lon="2.36656">
        <ele>579</ele>
        <time>2023-09-09T09:29:41Z</time>
      </trkpt>
      <trkpt lat="42.85544" lon="2.36656">
        <ele>579</ele>
        <time>2023-09-09T09:29:42Z</time>
      </trkpt>
      <trkpt lat="42.85545" lon="2.36655">
        <ele>579</ele>
        <time>2023-09-09T09:29:43Z</time>
      </trkpt>
      <trkpt lat="42.85546" lon="2.36655">
        <ele>579</ele>
        <time>2023-09-09T09:29:44Z</time>
      </trkpt>
      <trkpt lat="42.85547" lon="2.36655">
        <ele>579</ele>
        <time>2023-09-09T09:29:45Z</time>
      </trkpt>
      <trkpt lat="42.85548" lon="2.36655">
        <ele>579</ele>
        <time>2023-09-09T09:29:46Z</time>
      </trkpt>
      <trkpt lat="42.85549" lon="2.36655">
        <ele>580</ele>
        <time>2023-09-09T09:29:47Z</time>
      </trkpt>
      <trkpt lat="42.8555" lon="2.36655">
        <ele>580</ele>
        <time>2023-09-09T09:29:48Z</time>
      </trkpt>
      <trkpt lat="42.85551" lon="2.36655">
        <ele>580</ele>
        <time>2023-09-09T09:29:49Z</time>
      </trkpt>
      <trkpt lat="42.85551" lon="2.36655">
        <ele>580</ele>
        <time>2023-09-09T09:29:50Z</time>
      </trkpt>
      <trkpt lat="42.85552" lon="2.36655">
        <ele>580</ele>
        <time>2023-09-09T09:29:51Z</time>
      </trkpt>
      <trkpt lat="42.85553" lon="2.36655">
        <ele>581</ele>
        <time>2023-09-09T09:29:52Z</time>
      </trkpt>
      <trkpt lat="42.85554" lon="2.36656">
        <ele>581</ele>
        <time>2023-09-09T09:29:53Z</time>
      </trkpt>
      <trkpt lat="42.85554" lon="2.36657">
        <ele>581</ele>
        <time>2023-09-09T09:29:54Z</time>
      </trkpt>
      <trkpt lat="42.85555" lon="2.36658">
        <ele>582</ele>
        <time>2023-09-09T09:29:55Z</time>
      </trkpt>
      <trkpt lat="42.85555" lon="2.3666">
        <ele>582</ele>
        <time>2023-09-09T09:29:56Z</time>
      </trkpt>
      <trkpt lat="42.85556" lon="2.36661">
        <ele>583</ele>
        <time>2023-09-09T09:29:57Z</time>
      </trkpt>
      <trkpt lat="42.85556" lon="2.36663">
        <ele>583</ele>
        <time>2023-09-09T09:29:58Z</time>
      </trkpt>
      <trkpt lat="42.85557" lon="2.36664">
        <ele>583</ele>
        <time>2023-09-09T09:29:59Z</time>
      </trkpt>
      <trkpt lat="42.85558" lon="2.36665">
        <ele>583</ele>
        <time>2023-09-09T09:30:00Z</time>
      </trkpt>
      <trkpt lat="42.85558" lon="2.36667">
        <ele>583</ele>
        <time>2023-09-09T09:30:01Z</time>
      </trkpt>
      <trkpt lat="42.85559" lon="2.3667">
        <ele>585</ele>
        <time>2023-09-09T09:30:08Z</time>
      </trkpt>
      <trkpt lat="42.8556" lon="2.36672">
        <ele>585</ele>
        <time>2023-09-09T09:30:09Z</time>
      </trkpt>
      <trkpt lat="42.8556" lon="2.36674">
        <ele>585</ele>
        <time>2023-09-09T09:30:10Z</time>
      </trkpt>
      <trkpt lat="42.85561" lon="2.36678">
        <ele>587</ele>
        <time>2023-09-09T09:30:18Z</time>
      </trkpt>
      <trkpt lat="42.85561" lon="2.36679">
        <ele>587</ele>
        <time>2023-09-09T09:30:19Z</time>
      </trkpt>
      <trkpt lat="42.85562" lon="2.36681">
        <ele>587</ele>
        <time>2023-09-09T09:30:20Z</time>
      </trkpt>
      <trkpt lat="42.85562" lon="2.36682">
        <ele>587</ele>
        <time>2023-09-09T09:30:21Z</time>
      </trkpt>
      <trkpt lat="42.85562" lon="2.36684">
        <ele>587</ele>
        <time>2023-09-09T09:30:22Z</time>
      </trkpt>
      <trkpt lat="42.85563" lon="2.36685">
        <ele>587</ele>
        <time>2023-09-09T09:30:23Z</time>
      </trkpt>
      <trkpt lat="42.85563" lon="2.36687">
        <ele>587</ele>
        <time>2023-09-09T09:30:24Z</time>
      </trkpt>
      <trkpt lat="42.85564" lon="2.36688">
        <ele>588</ele>
        <time>2023-09-09T09:30:25Z</time>
      </trkpt>
      <trkpt lat="42.85565" lon="2.3669">
        <ele>588</ele>
        <time>2023-09-09T09:30:26Z</time>
      </trkpt>
      <trkpt lat="42.85566" lon="2.36691">
        <ele>589</ele>
        <time>2023-09-09T09:30:27Z</time>
      </trkpt>
      <trkpt lat="42.85567" lon="2.36692">
        <ele>589</ele>
        <time>2023-09-09T09:30:28Z</time>
      </trkpt>
      <trkpt lat="42.85568" lon="2.36693">
        <ele>589</ele>
        <time>2023-09-09T09:30:29Z</time>
      </trkpt>
      <trkpt lat="42.85568" lon="2.36695">
        <ele>589</ele>
        <time>2023-09-09T09:30:30Z</time>
      </trkpt>
      <trkpt lat="42.85569" lon="2.36696">
        <ele>589</ele>
        <time>2023-09-09T09:30:31Z</time>
      </trkpt>
      <trkpt lat="42.8557" lon="2.36697">
        <ele>590</ele>
        <time>2023-09-09T09:30:32Z</time>
      </trkpt>
      <trkpt lat="42.8557" lon="2.36698">
        <ele>590</ele>
        <time>2023-09-09T09:30:33Z</time>
      </trkpt>
      <trkpt lat="42.8557" lon="2.36699">
        <ele>590</ele>
        <time>2023-09-09T09:30:34Z</time>
      </trkpt>
      <trkpt lat="42.85572" lon="2.36701">
        <ele>593</ele>
        <time>2023-09-09T09:30:50Z</time>
      </trkpt>
      <trkpt lat="42.85573" lon="2.36702">
        <ele>593</ele>
        <time>2023-09-09T09:30:51Z</time>
      </trkpt>
      <trkpt lat="42.85574" lon="2.36704">
        <ele>594</ele>
        <time>2023-09-09T09:30:52Z</time>
      </trkpt>
      <trkpt lat="42.85575" lon="2.36705">
        <ele>594</ele>
        <time>2023-09-09T09:30:53Z</time>
      </trkpt>
      <trkpt lat="42.85576" lon="2.36706">
        <ele>594</ele>
        <time>2023-09-09T09:30:54Z</time>
      </trkpt>
      <trkpt lat="42.85576" lon="2.36707">
        <ele>594</ele>
        <time>2023-09-09T09:30:55Z</time>
      </trkpt>
      <trkpt lat="42.85576" lon="2.36708">
        <ele>594</ele>
        <time>2023-09-09T09:30:56Z</time>
      </trkpt>
      <trkpt lat="42.85577" lon="2.36709">
        <ele>595</ele>
        <time>2023-09-09T09:30:57Z</time>
      </trkpt>
      <trkpt lat="42.85577" lon="2.3671">
        <ele>595</ele>
        <time>2023-09-09T09:30:58Z</time>
      </trkpt>
      <trkpt lat="42.85578" lon="2.3671">
        <ele>595</ele>
        <time>2023-09-09T09:30:59Z</time>
      </trkpt>
      <trkpt lat="42.85578" lon="2.36711">
        <ele>595</ele>
        <time>2023-09-09T09:31:00Z</time>
      </trkpt>
      <trkpt lat="42.85579" lon="2.36711">
        <ele>595</ele>
        <time>2023-09-09T09:31:01Z</time>
      </trkpt>
      <trkpt lat="42.85579" lon="2.36711">
        <ele>596</ele>
        <time>2023-09-09T09:31:02Z</time>
      </trkpt>
      <trkpt lat="42.8558" lon="2.36712">
        <ele>596</ele>
        <time>2023-09-09T09:31:03Z</time>
      </trkpt>
      <trkpt lat="42.85581" lon="2.36712">
        <ele>596</ele>
        <time>2023-09-09T09:31:04Z</time>
      </trkpt>
      <trkpt lat="42.85581" lon="2.36712">
        <ele>596</ele>
        <time>2023-09-09T09:31:05Z</time>
      </trkpt>
      <trkpt lat="42.85582" lon="2.36712">
        <ele>596</ele>
        <time>2023-09-09T09:31:06Z</time>
      </trkpt>
      <trkpt lat="42.85583" lon="2.36712">
        <ele>597</ele>
        <time>2023-09-09T09:31:07Z</time>
      </trkpt>
      <trkpt lat="42.85584" lon="2.36713">
        <ele>597</ele>
        <time>2023-09-09T09:31:08Z</time>
      </trkpt>
      <trkpt lat="42.85585" lon="2.36713">
        <ele>597</ele>
        <time>2023-09-09T09:31:09Z</time>
      </trkpt>
      <trkpt lat="42.85586" lon="2.36713">
        <ele>597</ele>
        <time>2023-09-09T09:31:10Z</time>
      </trkpt>
      <trkpt lat="42.85587" lon="2.36714">
        <ele>597</ele>
        <time>2023-09-09T09:31:11Z</time>
      </trkpt>
      <trkpt lat="42.85588" lon="2.36714">
        <ele>598</ele>
        <time>2023-09-09T09:31:12Z</time>
      </trkpt>
      <trkpt lat="42.85589" lon="2.36714">
        <ele>598</ele>
        <time>2023-09-09T09:31:13Z</time>
      </trkpt>
      <trkpt lat="42.8559" lon="2.36714">
        <ele>598</ele>
        <time>2023-09-09T09:31:14Z</time>
      </trkpt>
      <trkpt lat="42.85591" lon="2.36714">
        <ele>599</ele>
        <time>2023-09-09T09:31:15Z</time>
      </trkpt>
      <trkpt lat="42.85592" lon="2.36713">
        <ele>599</ele>
        <time>2023-09-09T09:31:16Z</time>
      </trkpt>
      <trkpt lat="42.85593" lon="2.36714">
        <ele>600</ele>
        <time>2023-09-09T09:31:17Z</time>
      </trkpt>
      <trkpt lat="42.85595" lon="2.36715">
        <ele>600</ele>
        <time>2023-09-09T09:31:18Z</time>
      </trkpt>
      <trkpt lat="42.85596" lon="2.36716">
        <ele>600</ele>
        <time>2023-09-09T09:31:19Z</time>
      </trkpt>
      <trkpt lat="42.85598" lon="2.36717">
        <ele>600</ele>
        <time>2023-09-09T09:31:20Z</time>
      </trkpt>
      <trkpt lat="42.85599" lon="2.36719">
        <ele>600</ele>
        <time>2023-09-09T09:31:21Z</time>
      </trkpt>
      <trkpt lat="42.85601" lon="2.3672">
        <ele>600</ele>
        <time>2023-09-09T09:31:22Z</time>
      </trkpt>
      <trkpt lat="42.85602" lon="2.36721">
        <ele>600</ele>
        <time>2023-09-09T09:31:23Z</time>
      </trkpt>
      <trkpt lat="42.85603" lon="2.36723">
        <ele>600</ele>
        <time>2023-09-09T09:31:24Z</time>
      </trkpt>
      <trkpt lat="42.85604" lon="2.36724">
        <ele>600</ele>
        <time>2023-09-09T09:31:25Z</time>
      </trkpt>
      <trkpt lat="42.85604" lon="2.36725">
        <ele>600</ele>
        <time>2023-09-09T09:31:26Z</time>
      </trkpt>
      <trkpt lat="42.85605" lon="2.36726">
        <ele>601</ele>
        <time>2023-09-09T09:31:27Z</time>
      </trkpt>
      <trkpt lat="42.85605" lon="2.36728">
        <ele>601</ele>
        <time>2023-09-09T09:31:28Z</time>
      </trkpt>
      <trkpt lat="42.85605" lon="2.36729">
        <ele>601</ele>
        <time>2023-09-09T09:31:29Z</time>
      </trkpt>
      <trkpt lat="42.85606" lon="2.3673">
        <ele>601</ele>
        <time>2023-09-09T09:31:30Z</time>
      </trkpt>
      <trkpt lat="42.85606" lon="2.36731">
        <ele>601</ele>
        <time>2023-09-09T09:31:31Z</time>
      </trkpt>
      <trkpt lat="42.85606" lon="2.36732">
        <ele>602</ele>
        <time>2023-09-09T09:31:32Z</time>
      </trkpt>
      <trkpt lat="42.85606" lon="2.36732">
        <ele>602</ele>
        <time>2023-09-09T09:31:33Z</time>
      </trkpt>
      <trkpt lat="42.85607" lon="2.36733">
        <ele>602</ele>
        <time>2023-09-09T09:31:34Z</time>
      </trkpt>
      <trkpt lat="42.85607" lon="2.36734">
        <ele>602</ele>
        <time>2023-09-09T09:31:35Z</time>
      </trkpt>
      <trkpt lat="42.85607" lon="2.36735">
        <ele>602</ele>
        <time>2023-09-09T09:31:36Z</time>
      </trkpt>
      <trkpt lat="42.85608" lon="2.36736">
        <ele>603</ele>
        <time>2023-09-09T09:31:37Z</time>
      </trkpt>
      <trkpt lat="42.85609" lon="2.36738">
        <ele>603</ele>
        <time>2023-09-09T09:31:38Z</time>
      </trkpt>
      <trkpt lat="42.85609" lon="2.36739">
        <ele>603</ele>
        <time>2023-09-09T09:31:39Z</time>
      </trkpt>
      <trkpt lat="42.85609" lon="2.3674">
        <ele>604</ele>
        <time>2023-09-09T09:31:40Z</time>
      </trkpt>
      <trkpt lat="42.8561" lon="2.36741">
        <ele>604</ele>
        <time>2023-09-09T09:31:41Z</time>
      </trkpt>
      <trkpt lat="42.8561" lon="2.36742">
        <ele>605</ele>
        <time>2023-09-09T09:31:42Z</time>
      </trkpt>
      <trkpt lat="42.85611" lon="2.36744">
        <ele>605</ele>
        <time>2023-09-09T09:31:43Z</time>
      </trkpt>
      <trkpt lat="42.85612" lon="2.36745">
        <ele>605</ele>
        <time>2023-09-09T09:31:44Z</time>
      </trkpt>
      <trkpt lat="42.85612" lon="2.36746">
        <ele>605</ele>
        <time>2023-09-09T09:31:45Z</time>
      </trkpt>
      <trkpt lat="42.85613" lon="2.36747">
        <ele>605</ele>
        <time>2023-09-09T09:31:46Z</time>
      </trkpt>
      <trkpt lat="42.85613" lon="2.36748">
        <ele>606</ele>
        <time>2023-09-09T09:31:47Z</time>
      </trkpt>
      <trkpt lat="42.85614" lon="2.36749">
        <ele>606</ele>
        <time>2023-09-09T09:31:48Z</time>
      </trkpt>
      <trkpt lat="42.85614" lon="2.3675">
        <ele>606</ele>
        <time>2023-09-09T09:31:49Z</time>
      </trkpt>
      <trkpt lat="42.85615" lon="2.36751">
        <ele>606</ele>
        <time>2023-09-09T09:31:50Z</time>
      </trkpt>
      <trkpt lat="42.85616" lon="2.36752">
        <ele>606</ele>
        <time>2023-09-09T09:31:51Z</time>
      </trkpt>
      <trkpt lat="42.85617" lon="2.36754">
        <ele>607</ele>
        <time>2023-09-09T09:31:52Z</time>
      </trkpt>
      <trkpt lat="42.85618" lon="2.36755">
        <ele>607</ele>
        <time>2023-09-09T09:31:53Z</time>
      </trkpt>
      <trkpt lat="42.85619" lon="2.36756">
        <ele>607</ele>
        <time>2023-09-09T09:31:54Z</time>
      </trkpt>
      <trkpt lat="42.8562" lon="2.36757">
        <ele>607</ele>
        <time>2023-09-09T09:31:55Z</time>
      </trkpt>
      <trkpt lat="42.85621" lon="2.36757">
        <ele>607</ele>
        <time>2023-09-09T09:31:56Z</time>
      </trkpt>
      <trkpt lat="42.85622" lon="2.36758">
        <ele>608</ele>
        <time>2023-09-09T09:31:57Z</time>
      </trkpt>
      <trkpt lat="42.85622" lon="2.3676">
        <ele>608</ele>
        <time>2023-09-09T09:31:58Z</time>
      </trkpt>
      <trkpt lat="42.85623" lon="2.36761">
        <ele>608</ele>
        <time>2023-09-09T09:31:59Z</time>
      </trkpt>
      <trkpt lat="42.85624" lon="2.36764">
        <ele>608</ele>
        <time>2023-09-09T09:32:00Z</time>
      </trkpt>
      <trkpt lat="42.85624" lon="2.36766">
        <ele>608</ele>
        <time>2023-09-09T09:32:01Z</time>
      </trkpt>
      <trkpt lat="42.85625" lon="2.36769">
        <ele>609</ele>
        <time>2023-09-09T09:32:02Z</time>
      </trkpt>
      <trkpt lat="42.85625" lon="2.36772">
        <ele>609</ele>
        <time>2023-09-09T09:32:03Z</time>
      </trkpt>
      <trkpt lat="42.85625" lon="2.36775">
        <ele>609</ele>
        <time>2023-09-09T09:32:04Z</time>
      </trkpt>
      <trkpt lat="42.85624" lon="2.36777">
        <ele>609</ele>
        <time>2023-09-09T09:32:05Z</time>
      </trkpt>
      <trkpt lat="42.85624" lon="2.36779">
        <ele>609</ele>
        <time>2023-09-09T09:32:06Z</time>
      </trkpt>
      <trkpt lat="42.85623" lon="2.36781">
        <ele>609</ele>
        <time>2023-09-09T09:32:07Z</time>
      </trkpt>
      <trkpt lat="42.85622" lon="2.36783">
        <ele>609</ele>
        <time>2023-09-09T09:32:08Z</time>
      </trkpt>
      <trkpt lat="42.85621" lon="2.36785">
        <ele>609</ele>
        <time>2023-09-09T09:32:09Z</time>
      </trkpt>
      <trkpt lat="42.8562" lon="2.36786">
        <ele>609</ele>
        <time>2023-09-09T09:32:10Z</time>
      </trkpt>
      <trkpt lat="42.85619" lon="2.36788">
        <ele>609</ele>
        <time>2023-09-09T09:32:11Z</time>
      </trkpt>
      <trkpt lat="42.85617" lon="2.36789">
        <ele>610</ele>
        <time>2023-09-09T09:32:12Z</time>
      </trkpt>
      <trkpt lat="42.85616" lon="2.36789">
        <ele>610</ele>
        <time>2023-09-09T09:32:13Z</time>
      </trkpt>
      <trkpt lat="42.85614" lon="2.3679">
        <ele>610</ele>
        <time>2023-09-09T09:32:14Z</time>
      </trkpt>
      <trkpt lat="42.85613" lon="2.36791">
        <ele>610</ele>
        <time>2023-09-09T09:32:15Z</time>
      </trkpt>
      <trkpt lat="42.85612" lon="2.36792">
        <ele>610</ele>
        <time>2023-09-09T09:32:16Z</time>
      </trkpt>
      <trkpt lat="42.85611" lon="2.36793">
        <ele>611</ele>
        <time>2023-09-09T09:32:17Z</time>
      </trkpt>
      <trkpt lat="42.8561" lon="2.36794">
        <ele>611</ele>
        <time>2023-09-09T09:32:18Z</time>
      </trkpt>
      <trkpt lat="42.8561" lon="2.36795">
        <ele>611</ele>
        <time>2023-09-09T09:32:19Z</time>
      </trkpt>
      <trkpt lat="42.85609" lon="2.36796">
        <ele>611</ele>
        <time>2023-09-09T09:32:20Z</time>
      </trkpt>
      <trkpt lat="42.85608" lon="2.36796">
        <ele>611</ele>
        <time>2023-09-09T09:32:21Z</time>
      </trkpt>
      <trkpt lat="42.85608" lon="2.36797">
        <ele>611</ele>
        <time>2023-09-09T09:32:22Z</time>
      </trkpt>
      <trkpt lat="42.85607" lon="2.36798">
        <ele>611</ele>
        <time>2023-09-09T09:32:23Z</time>
      </trkpt>
      <trkpt lat="42.85606" lon="2.36799">
        <ele>611</ele>
        <time>2023-09-09T09:32:24Z</time>
      </trkpt>
      <trkpt lat="42.85605" lon="2.36801">
        <ele>611</ele>
        <time>2023-09-09T09:32:25Z</time>
      </trkpt>
      <trkpt lat="42.85605" lon="2.36803">
        <ele>611</ele>
        <time>2023-09-09T09:32:26Z</time>
      </trkpt>
      <trkpt lat="42.85604" lon="2.36806">
        <ele>612</ele>
        <time>2023-09-09T09:32:27Z</time>
      </trkpt>
      <trkpt lat="42.85603" lon="2.36808">
        <ele>612</ele>
        <time>2023-09-09T09:32:28Z</time>
      </trkpt>
      <trkpt lat="42.85603" lon="2.36811">
        <ele>612</ele>
        <time>2023-09-09T09:32:29Z</time>
      </trkpt>
      <trkpt lat="42.85603" lon="2.36814">
        <ele>612</ele>
        <time>2023-09-09T09:32:30Z</time>
      </trkpt>
      <trkpt lat="42.85602" lon="2.36817">
        <ele>612</ele>
        <time>2023-09-09T09:32:31Z</time>
      </trkpt>
      <trkpt lat="42.85602" lon="2.36819">
        <ele>613</ele>
        <time>2023-09-09T09:32:32Z</time>
      </trkpt>
      <trkpt lat="42.85603" lon="2.36822">
        <ele>613</ele>
        <time>2023-09-09T09:32:33Z</time>
      </trkpt>
      <trkpt lat="42.85604" lon="2.36824">
        <ele>613</ele>
        <time>2023-09-09T09:32:34Z</time>
      </trkpt>
      <trkpt lat="42.85605" lon="2.36826">
        <ele>613</ele>
        <time>2023-09-09T09:32:35Z</time>
      </trkpt>
      <trkpt lat="42.85606" lon="2.36828">
        <ele>613</ele>
        <time>2023-09-09T09:32:36Z</time>
      </trkpt>
      <trkpt lat="42.85607" lon="2.3683">
        <ele>613</ele>
        <time>2023-09-09T09:32:37Z</time>
      </trkpt>
      <trkpt lat="42.85608" lon="2.36832">
        <ele>613</ele>
        <time>2023-09-09T09:32:38Z</time>
      </trkpt>
      <trkpt lat="42.8561" lon="2.36834">
        <ele>613</ele>
        <time>2023-09-09T09:32:39Z</time>
      </trkpt>
      <trkpt lat="42.85611" lon="2.36836">
        <ele>614</ele>
        <time>2023-09-09T09:32:40Z</time>
      </trkpt>
      <trkpt lat="42.85612" lon="2.36837">
        <ele>614</ele>
        <time>2023-09-09T09:32:41Z</time>
      </trkpt>
      <trkpt lat="42.85613" lon="2.36838">
        <ele>615</ele>
        <time>2023-09-09T09:32:42Z</time>
      </trkpt>
      <trkpt lat="42.85614" lon="2.3684">
        <ele>615</ele>
        <time>2023-09-09T09:32:43Z</time>
      </trkpt>
      <trkpt lat="42.85615" lon="2.36841">
        <ele>615</ele>
        <time>2023-09-09T09:32:44Z</time>
      </trkpt>
      <trkpt lat="42.85616" lon="2.36843">
        <ele>615</ele>
        <time>2023-09-09T09:32:45Z</time>
      </trkpt>
      <trkpt lat="42.85616" lon="2.36845">
        <ele>615</ele>
        <time>2023-09-09T09:32:46Z</time>
      </trkpt>
      <trkpt lat="42.85617" lon="2.36847">
        <ele>616</ele>
        <time>2023-09-09T09:32:47Z</time>
      </trkpt>
      <trkpt lat="42.85618" lon="2.36849">
        <ele>616</ele>
        <time>2023-09-09T09:32:48Z</time>
      </trkpt>
      <trkpt lat="42.85618" lon="2.36851">
        <ele>616</ele>
        <time>2023-09-09T09:32:49Z</time>
      </trkpt>
      <trkpt lat="42.85619" lon="2.36854">
        <ele>616</ele>
        <time>2023-09-09T09:32:50Z</time>
      </trkpt>
      <trkpt lat="42.85619" lon="2.36855">
        <ele>616</ele>
        <time>2023-09-09T09:32:51Z</time>
      </trkpt>
      <trkpt lat="42.85619" lon="2.36856">
        <ele>616</ele>
        <time>2023-09-09T09:32:52Z</time>
      </trkpt>
      <trkpt lat="42.85619" lon="2.36857">
        <ele>616</ele>
        <time>2023-09-09T09:32:53Z</time>
      </trkpt>
      <trkpt lat="42.8562" lon="2.36858">
        <ele>616</ele>
        <time>2023-09-09T09:32:54Z</time>
      </trkpt>
      <trkpt lat="42.8562" lon="2.3686">
        <ele>617</ele>
        <time>2023-09-09T09:32:55Z</time>
      </trkpt>
      <trkpt lat="42.85621" lon="2.3686">
        <ele>617</ele>
        <time>2023-09-09T09:32:56Z</time>
      </trkpt>
      <trkpt lat="42.85622" lon="2.36861">
        <ele>618</ele>
        <time>2023-09-09T09:32:57Z</time>
      </trkpt>
      <trkpt lat="42.85624" lon="2.36862">
        <ele>618</ele>
        <time>2023-09-09T09:32:58Z</time>
      </trkpt>
      <trkpt lat="42.85625" lon="2.36863">
        <ele>618</ele>
        <time>2023-09-09T09:32:59Z</time>
      </trkpt>
      <trkpt lat="42.85627" lon="2.36864">
        <ele>618</ele>
        <time>2023-09-09T09:33:00Z</time>
      </trkpt>
      <trkpt lat="42.85629" lon="2.36865">
        <ele>618</ele>
        <time>2023-09-09T09:33:01Z</time>
      </trkpt>
      <trkpt lat="42.85631" lon="2.36866">
        <ele>618</ele>
        <time>2023-09-09T09:33:02Z</time>
      </trkpt>
      <trkpt lat="42.85633" lon="2.36867">
        <ele>618</ele>
        <time>2023-09-09T09:33:03Z</time>
      </trkpt>
      <trkpt lat="42.85635" lon="2.36869">
        <ele>618</ele>
        <time>2023-09-09T09:33:04Z</time>
      </trkpt>
      <trkpt lat="42.85637" lon="2.3687">
        <ele>618</ele>
        <time>2023-09-09T09:33:05Z</time>
      </trkpt>
      <trkpt lat="42.85639" lon="2.36873">
        <ele>618</ele>
        <time>2023-09-09T09:33:06Z</time>
      </trkpt>
      <trkpt lat="42.85641" lon="2.36875">
        <ele>618</ele>
        <time>2023-09-09T09:33:07Z</time>
      </trkpt>
      <trkpt lat="42.85643" lon="2.36878">
        <ele>618</ele>
        <time>2023-09-09T09:33:08Z</time>
      </trkpt>
      <trkpt lat="42.85645" lon="2.36882">
        <ele>618</ele>
        <time>2023-09-09T09:33:09Z</time>
      </trkpt>
      <trkpt lat="42.85646" lon="2.36885">
        <ele>618</ele>
        <time>2023-09-09T09:33:10Z</time>
      </trkpt>
      <trkpt lat="42.85647" lon="2.36888">
        <ele>618</ele>
        <time>2023-09-09T09:33:11Z</time>
      </trkpt>
      <trkpt lat="42.85647" lon="2.36891">
        <ele>618</ele>
        <time>2023-09-09T09:33:12Z</time>
      </trkpt>
      <trkpt lat="42.85648" lon="2.36893">
        <ele>618</ele>
        <time>2023-09-09T09:33:13Z</time>
      </trkpt>
      <trkpt lat="42.85648" lon="2.36896">
        <ele>618</ele>
        <time>2023-09-09T09:33:14Z</time>
      </trkpt>
      <trkpt lat="42.85649" lon="2.36898">
        <ele>618</ele>
        <time>2023-09-09T09:33:15Z</time>
      </trkpt>
      <trkpt lat="42.85649" lon="2.369">
        <ele>618</ele>
        <time>2023-09-09T09:33:16Z</time>
      </trkpt>
      <trkpt lat="42.85649" lon="2.36902">
        <ele>618</ele>
        <time>2023-09-09T09:33:17Z</time>
      </trkpt>
      <trkpt lat="42.85649" lon="2.36904">
        <ele>618</ele>
        <time>2023-09-09T09:33:18Z</time>
      </trkpt>
      <trkpt lat="42.8565" lon="2.36906">
        <ele>618</ele>
        <time>2023-09-09T09:33:19Z</time>
      </trkpt>
      <trkpt lat="42.8565" lon="2.36908">
        <ele>618</ele>
        <time>2023-09-09T09:33:20Z</time>
      </trkpt>
      <trkpt lat="42.8565" lon="2.3691">
        <ele>618</ele>
        <time>2023-09-09T09:33:21Z</time>
      </trkpt>
      <trkpt lat="42.85651" lon="2.36912">
        <ele>619</ele>
        <time>2023-09-09T09:33:22Z</time>
      </trkpt>
      <trkpt lat="42.85651" lon="2.36914">
        <ele>619</ele>
        <time>2023-09-09T09:33:23Z</time>
      </trkpt>
      <trkpt lat="42.85652" lon="2.36917">
        <ele>619</ele>
        <time>2023-09-09T09:33:24Z</time>
      </trkpt>
      <trkpt lat="42.85653" lon="2.3692">
        <ele>619</ele>
        <time>2023-09-09T09:33:25Z</time>
      </trkpt>
      <trkpt lat="42.85653" lon="2.36922">
        <ele>619</ele>
        <time>2023-09-09T09:33:26Z</time>
      </trkpt>
      <trkpt lat="42.85654" lon="2.36925">
        <ele>619</ele>
        <time>2023-09-09T09:33:27Z</time>
      </trkpt>
      <trkpt lat="42.85654" lon="2.36927">
        <ele>619</ele>
        <time>2023-09-09T09:33:28Z</time>
      </trkpt>
      <trkpt lat="42.85654" lon="2.36928">
        <ele>619</ele>
        <time>2023-09-09T09:33:29Z</time>
      </trkpt>
      <trkpt lat="42.85654" lon="2.3693">
        <ele>619</ele>
        <time>2023-09-09T09:33:30Z</time>
      </trkpt>
      <trkpt lat="42.85654" lon="2.36932">
        <ele>619</ele>
        <time>2023-09-09T09:33:31Z</time>
      </trkpt>
      <trkpt lat="42.85654" lon="2.36933">
        <ele>620</ele>
        <time>2023-09-09T09:33:32Z</time>
      </trkpt>
      <trkpt lat="42.85654" lon="2.36935">
        <ele>620</ele>
        <time>2023-09-09T09:33:33Z</time>
      </trkpt>
      <trkpt lat="42.85655" lon="2.36937">
        <ele>620</ele>
        <time>2023-09-09T09:33:34Z</time>
      </trkpt>
      <trkpt lat="42.85655" lon="2.36938">
        <ele>620</ele>
        <time>2023-09-09T09:33:35Z</time>
      </trkpt>
      <trkpt lat="42.85655" lon="2.3694">
        <ele>620</ele>
        <time>2023-09-09T09:33:36Z</time>
      </trkpt>
      <trkpt lat="42.85656" lon="2.36942">
        <ele>620</ele>
        <time>2023-09-09T09:33:37Z</time>
      </trkpt>
      <trkpt lat="42.85655" lon="2.36943">
        <ele>620</ele>
        <time>2023-09-09T09:33:38Z</time>
      </trkpt>
      <trkpt lat="42.85655" lon="2.36945">
        <ele>620</ele>
        <time>2023-09-09T09:33:39Z</time>
      </trkpt>
      <trkpt lat="42.85655" lon="2.36946">
        <ele>620</ele>
        <time>2023-09-09T09:33:40Z</time>
      </trkpt>
      <trkpt lat="42.85654" lon="2.36947">
        <ele>620</ele>
        <time>2023-09-09T09:33:41Z</time>
      </trkpt>
      <trkpt lat="42.85653" lon="2.36948">
        <ele>621</ele>
        <time>2023-09-09T09:33:42Z</time>
      </trkpt>
      <trkpt lat="42.85653" lon="2.36949">
        <ele>621</ele>
        <time>2023-09-09T09:33:43Z</time>
      </trkpt>
      <trkpt lat="42.85652" lon="2.3695">
        <ele>621</ele>
        <time>2023-09-09T09:33:44Z</time>
      </trkpt>
      <trkpt lat="42.85651" lon="2.3695">
        <ele>622</ele>
        <time>2023-09-09T09:33:45Z</time>
      </trkpt>
      <trkpt lat="42.8565" lon="2.36951">
        <ele>622</ele>
        <time>2023-09-09T09:33:46Z</time>
      </trkpt>
      <trkpt lat="42.8565" lon="2.36951">
        <ele>623</ele>
        <time>2023-09-09T09:33:47Z</time>
      </trkpt>
      <trkpt lat="42.85649" lon="2.36952">
        <ele>623</ele>
        <time>2023-09-09T09:33:48Z</time>
      </trkpt>
      <trkpt lat="42.85648" lon="2.36953">
        <ele>623</ele>
        <time>2023-09-09T09:33:49Z</time>
      </trkpt>
      <trkpt lat="42.85647" lon="2.36954">
        <ele>623</ele>
        <time>2023-09-09T09:33:50Z</time>
      </trkpt>
      <trkpt lat="42.85646" lon="2.36955">
        <ele>623</ele>
        <time>2023-09-09T09:33:51Z</time>
      </trkpt>
      <trkpt lat="42.85645" lon="2.36956">
        <ele>624</ele>
        <time>2023-09-09T09:33:52Z</time>
      </trkpt>
      <trkpt lat="42.85644" lon="2.36958">
        <ele>624</ele>
        <time>2023-09-09T09:33:53Z</time>
      </trkpt>
      <trkpt lat="42.85644" lon="2.36959">
        <ele>624</ele>
        <time>2023-09-09T09:33:54Z</time>
      </trkpt>
      <trkpt lat="42.85644" lon="2.36961">
        <ele>624</ele>
        <time>2023-09-09T09:33:55Z</time>
      </trkpt>
      <trkpt lat="42.85644" lon="2.36962">
        <ele>624</ele>
        <time>2023-09-09T09:33:56Z</time>
      </trkpt>
      <trkpt lat="42.85644" lon="2.36963">
        <ele>625</ele>
        <time>2023-09-09T09:33:57Z</time>
      </trkpt>
      <trkpt lat="42.85644" lon="2.36965">
        <ele>625</ele>
        <time>2023-09-09T09:33:58Z</time>
      </trkpt>
      <trkpt lat="42.85644" lon="2.36966">
        <ele>625</ele>
        <time>2023-09-09T09:33:59Z</time>
      </trkpt>
      <trkpt lat="42.85644" lon="2.36967">
        <ele>625</ele>
        <time>2023-09-09T09:34:00Z</time>
      </trkpt>
      <trkpt lat="42.85645" lon="2.36968">
        <ele>625</ele>
        <time>2023-09-09T09:34:01Z</time>
      </trkpt>
      <trkpt lat="42.85644" lon="2.36971">
        <ele>628</ele>
        <time>2023-09-09T09:34:11Z</time>
      </trkpt>
      <trkpt lat="42.85643" lon="2.36973">
        <ele>629</ele>
        <time>2023-09-09T09:34:12Z</time>
      </trkpt>
      <trkpt lat="42.85643" lon="2.36975">
        <ele>629</ele>
        <time>2023-09-09T09:34:13Z</time>
      </trkpt>
      <trkpt lat="42.85642" lon="2.36976">
        <ele>629</ele>
        <time>2023-09-09T09:34:14Z</time>
      </trkpt>
      <trkpt lat="42.85642" lon="2.36978">
        <ele>629</ele>
        <time>2023-09-09T09:34:15Z</time>
      </trkpt>
      <trkpt lat="42.85641" lon="2.3698">
        <ele>629</ele>
        <time>2023-09-09T09:34:16Z</time>
      </trkpt>
      <trkpt lat="42.85641" lon="2.36981">
        <ele>630</ele>
        <time>2023-09-09T09:34:17Z</time>
      </trkpt>
      <trkpt lat="42.85642" lon="2.36983">
        <ele>630</ele>
        <time>2023-09-09T09:34:18Z</time>
      </trkpt>
      <trkpt lat="42.85642" lon="2.36985">
        <ele>630</ele>
        <time>2023-09-09T09:34:19Z</time>
      </trkpt>
      <trkpt lat="42.85643" lon="2.36987">
        <ele>630</ele>
        <time>2023-09-09T09:34:20Z</time>
      </trkpt>
      <trkpt lat="42.85643" lon="2.36989">
        <ele>630</ele>
        <time>2023-09-09T09:34:21Z</time>
      </trkpt>
      <trkpt lat="42.85644" lon="2.3699">
        <ele>631</ele>
        <time>2023-09-09T09:34:22Z</time>
      </trkpt>
      <trkpt lat="42.85644" lon="2.36992">
        <ele>631</ele>
        <time>2023-09-09T09:34:23Z</time>
      </trkpt>
      <trkpt lat="42.85644" lon="2.36993">
        <ele>631</ele>
        <time>2023-09-09T09:34:24Z</time>
      </trkpt>
      <trkpt lat="42.85644" lon="2.36994">
        <ele>632</ele>
        <time>2023-09-09T09:34:25Z</time>
      </trkpt>
      <trkpt lat="42.85643" lon="2.36995">
        <ele>632</ele>
        <time>2023-09-09T09:34:26Z</time>
      </trkpt>
      <trkpt lat="42.85642" lon="2.36996">
        <ele>633</ele>
        <time>2023-09-09T09:34:27Z</time>
      </trkpt>
      <trkpt lat="42.85642" lon="2.36997">
        <ele>633</ele>
        <time>2023-09-09T09:34:28Z</time>
      </trkpt>
      <trkpt lat="42.85641" lon="2.36998">
        <ele>633</ele>
        <time>2023-09-09T09:34:29Z</time>
      </trkpt>
      <trkpt lat="42.85641" lon="2.37">
        <ele>634</ele>
        <time>2023-09-09T09:34:30Z</time>
      </trkpt>
      <trkpt lat="42.85641" lon="2.37001">
        <ele>634</ele>
        <time>2023-09-09T09:34:31Z</time>
      </trkpt>
      <trkpt lat="42.85641" lon="2.37003">
        <ele>635</ele>
        <time>2023-09-09T09:34:32Z</time>
      </trkpt>
      <trkpt lat="42.85642" lon="2.37004">
        <ele>635</ele>
        <time>2023-09-09T09:34:33Z</time>
      </trkpt>
      <trkpt lat="42.85642" lon="2.37006">
        <ele>635</ele>
        <time>2023-09-09T09:34:34Z</time>
      </trkpt>
      <trkpt lat="42.85642" lon="2.37007">
        <ele>635</ele>
        <time>2023-09-09T09:34:35Z</time>
      </trkpt>
      <trkpt lat="42.85641" lon="2.37008">
        <ele>635</ele>
        <time>2023-09-09T09:34:36Z</time>
      </trkpt>
      <trkpt lat="42.85641" lon="2.37008">
        <ele>636</ele>
        <time>2023-09-09T09:34:37Z</time>
      </trkpt>
      <trkpt lat="42.8564" lon="2.37008">
        <ele>636</ele>
        <time>2023-09-09T09:34:38Z</time>
      </trkpt>
      <trkpt lat="42.85638" lon="2.37008">
        <ele>636</ele>
        <time>2023-09-09T09:34:39Z</time>
      </trkpt>
      <trkpt lat="42.85637" lon="2.37009">
        <ele>636</ele>
        <time>2023-09-09T09:34:40Z</time>
      </trkpt>
      <trkpt lat="42.85636" lon="2.37009">
        <ele>636</ele>
        <time>2023-09-09T09:34:41Z</time>
      </trkpt>
      <trkpt lat="42.85635" lon="2.37009">
        <ele>637</ele>
        <time>2023-09-09T09:34:42Z</time>
      </trkpt>
      <trkpt lat="42.85633" lon="2.37009">
        <ele>637</ele>
        <time>2023-09-09T09:34:43Z</time>
      </trkpt>
      <trkpt lat="42.85632" lon="2.3701">
        <ele>637</ele>
        <time>2023-09-09T09:34:44Z</time>
      </trkpt>
      <trkpt lat="42.85631" lon="2.37011">
        <ele>638</ele>
        <time>2023-09-09T09:34:45Z</time>
      </trkpt>
      <trkpt lat="42.85631" lon="2.37011">
        <ele>638</ele>
        <time>2023-09-09T09:34:46Z</time>
      </trkpt>
      <trkpt lat="42.8563" lon="2.37012">
        <ele>639</ele>
        <time>2023-09-09T09:34:47Z</time>
      </trkpt>
      <trkpt lat="42.85629" lon="2.37012">
        <ele>639</ele>
        <time>2023-09-09T09:34:48Z</time>
      </trkpt>
      <trkpt lat="42.85628" lon="2.37013">
        <ele>639</ele>
        <time>2023-09-09T09:34:49Z</time>
      </trkpt>
      <trkpt lat="42.85627" lon="2.37014">
        <ele>639</ele>
        <time>2023-09-09T09:34:50Z</time>
      </trkpt>
      <trkpt lat="42.85626" lon="2.37014">
        <ele>639</ele>
        <time>2023-09-09T09:34:51Z</time>
      </trkpt>
      <trkpt lat="42.85626" lon="2.37015">
        <ele>640</ele>
        <time>2023-09-09T09:34:52Z</time>
      </trkpt>
      <trkpt lat="42.85625" lon="2.37015">
        <ele>640</ele>
        <time>2023-09-09T09:34:53Z</time>
      </trkpt>
      <trkpt lat="42.85624" lon="2.37016">
        <ele>640</ele>
        <time>2023-09-09T09:34:54Z</time>
      </trkpt>
      <trkpt lat="42.85624" lon="2.37017">
        <ele>640</ele>
        <time>2023-09-09T09:34:55Z</time>
      </trkpt>
      <trkpt lat="42.85623" lon="2.37017">
        <ele>640</ele>
        <time>2023-09-09T09:34:56Z</time>
      </trkpt>
      <trkpt lat="42.85623" lon="2.37018">
        <ele>641</ele>
        <time>2023-09-09T09:34:57Z</time>
      </trkpt>
      <trkpt lat="42.85622" lon="2.37019">
        <ele>641</ele>
        <time>2023-09-09T09:34:58Z</time>
      </trkpt>
      <trkpt lat="42.85622" lon="2.3702">
        <ele>641</ele>
        <time>2023-09-09T09:34:59Z</time>
      </trkpt>
      <trkpt lat="42.85621" lon="2.37021">
        <ele>641</ele>
        <time>2023-09-09T09:35:00Z</time>
      </trkpt>
      <trkpt lat="42.85621" lon="2.37022">
        <ele>641</ele>
        <time>2023-09-09T09:35:01Z</time>
      </trkpt>
      <trkpt lat="42.8562" lon="2.37023">
        <ele>642</ele>
        <time>2023-09-09T09:35:02Z</time>
      </trkpt>
      <trkpt lat="42.85619" lon="2.37024">
        <ele>642</ele>
        <time>2023-09-09T09:35:03Z</time>
      </trkpt>
      <trkpt lat="42.85619" lon="2.37025">
        <ele>642</ele>
        <time>2023-09-09T09:35:04Z</time>
      </trkpt>
      <trkpt lat="42.85618" lon="2.37025">
        <ele>642</ele>
        <time>2023-09-09T09:35:05Z</time>
      </trkpt>
      <trkpt lat="42.85617" lon="2.37026">
        <ele>642</ele>
        <time>2023-09-09T09:35:06Z</time>
      </trkpt>
      <trkpt lat="42.85617" lon="2.37027">
        <ele>643</ele>
        <time>2023-09-09T09:35:07Z</time>
      </trkpt>
      <trkpt lat="42.85616" lon="2.37028">
        <ele>643</ele>
        <time>2023-09-09T09:35:08Z</time>
      </trkpt>
      <trkpt lat="42.85615" lon="2.3703">
        <ele>643</ele>
        <time>2023-09-09T09:35:09Z</time>
      </trkpt>
      <trkpt lat="42.85615" lon="2.37031">
        <ele>643</ele>
        <time>2023-09-09T09:35:10Z</time>
      </trkpt>
      <trkpt lat="42.85614" lon="2.37032">
        <ele>643</ele>
        <time>2023-09-09T09:35:11Z</time>
      </trkpt>
      <trkpt lat="42.85614" lon="2.37034">
        <ele>644</ele>
        <time>2023-09-09T09:35:12Z</time>
      </trkpt>
      <trkpt lat="42.85614" lon="2.37035">
        <ele>644</ele>
        <time>2023-09-09T09:35:13Z</time>
      </trkpt>
      <trkpt lat="42.85613" lon="2.37036">
        <ele>644</ele>
        <time>2023-09-09T09:35:14Z</time>
      </trkpt>
      <trkpt lat="42.85613" lon="2.37038">
        <ele>644</ele>
        <time>2023-09-09T09:35:15Z</time>
      </trkpt>
      <trkpt lat="42.85613" lon="2.37039">
        <ele>644</ele>
        <time>2023-09-09T09:35:16Z</time>
      </trkpt>
      <trkpt lat="42.85613" lon="2.3704">
        <ele>645</ele>
        <time>2023-09-09T09:35:17Z</time>
      </trkpt>
      <trkpt lat="42.85613" lon="2.37041">
        <ele>645</ele>
        <time>2023-09-09T09:35:18Z</time>
      </trkpt>
      <trkpt lat="42.85612" lon="2.37043">
        <ele>645</ele>
        <time>2023-09-09T09:35:19Z</time>
      </trkpt>
      <trkpt lat="42.85612" lon="2.37044">
        <ele>645</ele>
        <time>2023-09-09T09:35:20Z</time>
      </trkpt>
      <trkpt lat="42.85612" lon="2.37045">
        <ele>645</ele>
        <time>2023-09-09T09:35:21Z</time>
      </trkpt>
      <trkpt lat="42.85611" lon="2.37047">
        <ele>646</ele>
        <time>2023-09-09T09:35:22Z</time>
      </trkpt>
      <trkpt lat="42.85611" lon="2.37048">
        <ele>646</ele>
        <time>2023-09-09T09:35:23Z</time>
      </trkpt>
      <trkpt lat="42.85611" lon="2.37049">
        <ele>646</ele>
        <time>2023-09-09T09:35:24Z</time>
      </trkpt>
      <trkpt lat="42.85611" lon="2.3705">
        <ele>646</ele>
        <time>2023-09-09T09:35:25Z</time>
      </trkpt>
      <trkpt lat="42.8561" lon="2.37051">
        <ele>646</ele>
        <time>2023-09-09T09:35:26Z</time>
      </trkpt>
      <trkpt lat="42.8561" lon="2.37052">
        <ele>647</ele>
        <time>2023-09-09T09:35:27Z</time>
      </trkpt>
      <trkpt lat="42.8561" lon="2.37053">
        <ele>647</ele>
        <time>2023-09-09T09:35:28Z</time>
      </trkpt>
      <trkpt lat="42.85611" lon="2.37054">
        <ele>647</ele>
        <time>2023-09-09T09:35:29Z</time>
      </trkpt>
      <trkpt lat="42.85611" lon="2.37056">
        <ele>647</ele>
        <time>2023-09-09T09:35:30Z</time>
      </trkpt>
      <trkpt lat="42.85612" lon="2.37057">
        <ele>647</ele>
        <time>2023-09-09T09:35:31Z</time>
      </trkpt>
      <trkpt lat="42.85612" lon="2.37059">
        <ele>648</ele>
        <time>2023-09-09T09:35:32Z</time>
      </trkpt>
      <trkpt lat="42.85613" lon="2.3706">
        <ele>648</ele>
        <time>2023-09-09T09:35:33Z</time>
      </trkpt>
      <trkpt lat="42.85613" lon="2.37062">
        <ele>648</ele>
        <time>2023-09-09T09:35:34Z</time>
      </trkpt>
      <trkpt lat="42.85614" lon="2.37063">
        <ele>648</ele>
        <time>2023-09-09T09:35:35Z</time>
      </trkpt>
      <trkpt lat="42.85614" lon="2.37065">
        <ele>648</ele>
        <time>2023-09-09T09:35:36Z</time>
      </trkpt>
      <trkpt lat="42.85615" lon="2.37067">
        <ele>649</ele>
        <time>2023-09-09T09:35:37Z</time>
      </trkpt>
      <trkpt lat="42.85616" lon="2.37068">
        <ele>649</ele>
        <time>2023-09-09T09:35:38Z</time>
      </trkpt>
      <trkpt lat="42.85616" lon="2.3707">
        <ele>649</ele>
        <time>2023-09-09T09:35:39Z</time>
      </trkpt>
      <trkpt lat="42.85617" lon="2.37071">
        <ele>649</ele>
        <time>2023-09-09T09:35:40Z</time>
      </trkpt>
      <trkpt lat="42.85618" lon="2.37073">
        <ele>649</ele>
        <time>2023-09-09T09:35:41Z</time>
      </trkpt>
      <trkpt lat="42.85618" lon="2.37074">
        <ele>650</ele>
        <time>2023-09-09T09:35:42Z</time>
      </trkpt>
      <trkpt lat="42.85619" lon="2.37076">
        <ele>650</ele>
        <time>2023-09-09T09:35:43Z</time>
      </trkpt>
      <trkpt lat="42.85619" lon="2.37077">
        <ele>651</ele>
        <time>2023-09-09T09:35:44Z</time>
      </trkpt>
      <trkpt lat="42.8562" lon="2.37078">
        <ele>651</ele>
        <time>2023-09-09T09:35:45Z</time>
      </trkpt>
      <trkpt lat="42.85621" lon="2.37079">
        <ele>652</ele>
        <time>2023-09-09T09:35:46Z</time>
      </trkpt>
      <trkpt lat="42.85621" lon="2.3708">
        <ele>653</ele>
        <time>2023-09-09T09:35:47Z</time>
      </trkpt>
      <trkpt lat="42.85622" lon="2.37081">
        <ele>653</ele>
        <time>2023-09-09T09:35:48Z</time>
      </trkpt>
      <trkpt lat="42.85622" lon="2.37082">
        <ele>653</ele>
        <time>2023-09-09T09:35:49Z</time>
      </trkpt>
      <trkpt lat="42.85623" lon="2.37084">
        <ele>653</ele>
        <time>2023-09-09T09:35:50Z</time>
      </trkpt>
      <trkpt lat="42.85623" lon="2.37084">
        <ele>653</ele>
        <time>2023-09-09T09:35:51Z</time>
      </trkpt>
      <trkpt lat="42.85624" lon="2.37085">
        <ele>653</ele>
        <time>2023-09-09T09:35:52Z</time>
      </trkpt>
      <trkpt lat="42.85625" lon="2.37086">
        <ele>653</ele>
        <time>2023-09-09T09:35:53Z</time>
      </trkpt>
      <trkpt lat="42.85625" lon="2.37087">
        <ele>653</ele>
        <time>2023-09-09T09:35:54Z</time>
      </trkpt>
      <trkpt lat="42.85626" lon="2.37088">
        <ele>654</ele>
        <time>2023-09-09T09:35:55Z</time>
      </trkpt>
      <trkpt lat="42.85627" lon="2.37089">
        <ele>654</ele>
        <time>2023-09-09T09:35:56Z</time>
      </trkpt>
      <trkpt lat="42.85628" lon="2.3709">
        <ele>655</ele>
        <time>2023-09-09T09:35:57Z</time>
      </trkpt>
      <trkpt lat="42.85629" lon="2.37091">
        <ele>655</ele>
        <time>2023-09-09T09:35:58Z</time>
      </trkpt>
      <trkpt lat="42.8563" lon="2.37093">
        <ele>655</ele>
        <time>2023-09-09T09:35:59Z</time>
      </trkpt>
      <trkpt lat="42.85631" lon="2.37094">
        <ele>655</ele>
        <time>2023-09-09T09:36:00Z</time>
      </trkpt>
      <trkpt lat="42.85632" lon="2.37096">
        <ele>655</ele>
        <time>2023-09-09T09:36:01Z</time>
      </trkpt>
      <trkpt lat="42.85632" lon="2.37098">
        <ele>656</ele>
        <time>2023-09-09T09:36:02Z</time>
      </trkpt>
      <trkpt lat="42.85633" lon="2.371">
        <ele>656</ele>
        <time>2023-09-09T09:36:03Z</time>
      </trkpt>
      <trkpt lat="42.85633" lon="2.37101">
        <ele>656</ele>
        <time>2023-09-09T09:36:04Z</time>
      </trkpt>
      <trkpt lat="42.85634" lon="2.37103">
        <ele>656</ele>
        <time>2023-09-09T09:36:05Z</time>
      </trkpt>
      <trkpt lat="42.85635" lon="2.37105">
        <ele>656</ele>
        <time>2023-09-09T09:36:06Z</time>
      </trkpt>
      <trkpt lat="42.85636" lon="2.37106">
        <ele>656</ele>
        <time>2023-09-09T09:36:07Z</time>
      </trkpt>
      <trkpt lat="42.85637" lon="2.37108">
        <ele>656</ele>
        <time>2023-09-09T09:36:08Z</time>
      </trkpt>
      <trkpt lat="42.85637" lon="2.37109">
        <ele>656</ele>
        <time>2023-09-09T09:36:09Z</time>
      </trkpt>
      <trkpt lat="42.85638" lon="2.3711">
        <ele>656</ele>
        <time>2023-09-09T09:36:10Z</time>
      </trkpt>
      <trkpt lat="42.85639" lon="2.37111">
        <ele>656</ele>
        <time>2023-09-09T09:36:11Z</time>
      </trkpt>
      <trkpt lat="42.8564" lon="2.37112">
        <ele>657</ele>
        <time>2023-09-09T09:36:12Z</time>
      </trkpt>
      <trkpt lat="42.85641" lon="2.37113">
        <ele>657</ele>
        <time>2023-09-09T09:36:13Z</time>
      </trkpt>
      <trkpt lat="42.85642" lon="2.37114">
        <ele>657</ele>
        <time>2023-09-09T09:36:14Z</time>
      </trkpt>
      <trkpt lat="42.85643" lon="2.37116">
        <ele>657</ele>
        <time>2023-09-09T09:36:15Z</time>
      </trkpt>
      <trkpt lat="42.85644" lon="2.37117">
        <ele>657</ele>
        <time>2023-09-09T09:36:16Z</time>
      </trkpt>
      <trkpt lat="42.85645" lon="2.37118">
        <ele>658</ele>
        <time>2023-09-09T09:36:17Z</time>
      </trkpt>
      <trkpt lat="42.85646" lon="2.37119">
        <ele>658</ele>
        <time>2023-09-09T09:36:18Z</time>
      </trkpt>
      <trkpt lat="42.85646" lon="2.37121">
        <ele>658</ele>
        <time>2023-09-09T09:36:19Z</time>
      </trkpt>
      <trkpt lat="42.85647" lon="2.37122">
        <ele>658</ele>
        <time>2023-09-09T09:36:20Z</time>
      </trkpt>
      <trkpt lat="42.85647" lon="2.37123">
        <ele>658</ele>
        <time>2023-09-09T09:36:21Z</time>
      </trkpt>
      <trkpt lat="42.85647" lon="2.37125">
        <ele>659</ele>
        <time>2023-09-09T09:36:22Z</time>
      </trkpt>
      <trkpt lat="42.85648" lon="2.37126">
        <ele>659</ele>
        <time>2023-09-09T09:36:23Z</time>
      </trkpt>
      <trkpt lat="42.85648" lon="2.37127">
        <ele>659</ele>
        <time>2023-09-09T09:36:24Z</time>
      </trkpt>
      <trkpt lat="42.85647" lon="2.37128">
        <ele>659</ele>
        <time>2023-09-09T09:36:25Z</time>
      </trkpt>
      <trkpt lat="42.85647" lon="2.37129">
        <ele>659</ele>
        <time>2023-09-09T09:36:26Z</time>
      </trkpt>
      <trkpt lat="42.85647" lon="2.37131">
        <ele>660</ele>
        <time>2023-09-09T09:36:27Z</time>
      </trkpt>
      <trkpt lat="42.85646" lon="2.37132">
        <ele>660</ele>
        <time>2023-09-09T09:36:28Z</time>
      </trkpt>
      <trkpt lat="42.85646" lon="2.37133">
        <ele>660</ele>
        <time>2023-09-09T09:36:29Z</time>
      </trkpt>
      <trkpt lat="42.85645" lon="2.37134">
        <ele>660</ele>
        <time>2023-09-09T09:36:30Z</time>
      </trkpt>
      <trkpt lat="42.85645" lon="2.37135">
        <ele>660</ele>
        <time>2023-09-09T09:36:31Z</time>
      </trkpt>
      <trkpt lat="42.85645" lon="2.37136">
        <ele>661</ele>
        <time>2023-09-09T09:36:32Z</time>
      </trkpt>
      <trkpt lat="42.85645" lon="2.37137">
        <ele>661</ele>
        <time>2023-09-09T09:36:33Z</time>
      </trkpt>
      <trkpt lat="42.85644" lon="2.37138">
        <ele>661</ele>
        <time>2023-09-09T09:36:34Z</time>
      </trkpt>
      <trkpt lat="42.85644" lon="2.37139">
        <ele>661</ele>
        <time>2023-09-09T09:36:35Z</time>
      </trkpt>
      <trkpt lat="42.85644" lon="2.3714">
        <ele>661</ele>
        <time>2023-09-09T09:36:36Z</time>
      </trkpt>
      <trkpt lat="42.85644" lon="2.37141">
        <ele>662</ele>
        <time>2023-09-09T09:36:37Z</time>
      </trkpt>
      <trkpt lat="42.85644" lon="2.37142">
        <ele>662</ele>
        <time>2023-09-09T09:36:38Z</time>
      </trkpt>
      <trkpt lat="42.85644" lon="2.37143">
        <ele>662</ele>
        <time>2023-09-09T09:36:39Z</time>
      </trkpt>
      <trkpt lat="42.85644" lon="2.37144">
        <ele>662</ele>
        <time>2023-09-09T09:36:40Z</time>
      </trkpt>
      <trkpt lat="42.85644" lon="2.37145">
        <ele>662</ele>
        <time>2023-09-09T09:36:41Z</time>
      </trkpt>
      <trkpt lat="42.85644" lon="2.37146">
        <ele>663</ele>
        <time>2023-09-09T09:36:42Z</time>
      </trkpt>
      <trkpt lat="42.85645" lon="2.37147">
        <ele>663</ele>
        <time>2023-09-09T09:36:43Z</time>
      </trkpt>
      <trkpt lat="42.85645" lon="2.37148">
        <ele>663</ele>
        <time>2023-09-09T09:36:44Z</time>
      </trkpt>
      <trkpt lat="42.85646" lon="2.37149">
        <ele>663</ele>
        <time>2023-09-09T09:36:45Z</time>
      </trkpt>
      <trkpt lat="42.85646" lon="2.37151">
        <ele>663</ele>
        <time>2023-09-09T09:36:46Z</time>
      </trkpt>
      <trkpt lat="42.85647" lon="2.37152">
        <ele>664</ele>
        <time>2023-09-09T09:36:47Z</time>
      </trkpt>
      <trkpt lat="42.85648" lon="2.37154">
        <ele>664</ele>
        <time>2023-09-09T09:36:48Z</time>
      </trkpt>
      <trkpt lat="42.85648" lon="2.37155">
        <ele>664</ele>
        <time>2023-09-09T09:36:49Z</time>
      </trkpt>
      <trkpt lat="42.85648" lon="2.37157">
        <ele>664</ele>
        <time>2023-09-09T09:36:50Z</time>
      </trkpt>
      <trkpt lat="42.85648" lon="2.37158">
        <ele>664</ele>
        <time>2023-09-09T09:36:51Z</time>
      </trkpt>
      <trkpt lat="42.85648" lon="2.37159">
        <ele>665</ele>
        <time>2023-09-09T09:36:52Z</time>
      </trkpt>
      <trkpt lat="42.85647" lon="2.3716">
        <ele>665</ele>
        <time>2023-09-09T09:36:53Z</time>
      </trkpt>
      <trkpt lat="42.85646" lon="2.37162">
        <ele>665</ele>
        <time>2023-09-09T09:36:54Z</time>
      </trkpt>
      <trkpt lat="42.85646" lon="2.37163">
        <ele>665</ele>
        <time>2023-09-09T09:36:55Z</time>
      </trkpt>
      <trkpt lat="42.85645" lon="2.37164">
        <ele>665</ele>
        <time>2023-09-09T09:36:56Z</time>
      </trkpt>
      <trkpt lat="42.85645" lon="2.37165">
        <ele>666</ele>
        <time>2023-09-09T09:36:57Z</time>
      </trkpt>
      <trkpt lat="42.85645" lon="2.37166">
        <ele>666</ele>
        <time>2023-09-09T09:36:58Z</time>
      </trkpt>
      <trkpt lat="42.85644" lon="2.37167">
        <ele>666</ele>
        <time>2023-09-09T09:36:59Z</time>
      </trkpt>
      <trkpt lat="42.85644" lon="2.37169">
        <ele>666</ele>
        <time>2023-09-09T09:37:00Z</time>
      </trkpt>
      <trkpt lat="42.85644" lon="2.3717">
        <ele>666</ele>
        <time>2023-09-09T09:37:01Z</time>
      </trkpt>
      <trkpt lat="42.85644" lon="2.37171">
        <ele>667</ele>
        <time>2023-09-09T09:37:02Z</time>
      </trkpt>
      <trkpt lat="42.85644" lon="2.37172">
        <ele>667</ele>
        <time>2023-09-09T09:37:03Z</time>
      </trkpt>
      <trkpt lat="42.85645" lon="2.37173">
        <ele>667</ele>
        <time>2023-09-09T09:37:04Z</time>
      </trkpt>
      <trkpt lat="42.85645" lon="2.37174">
        <ele>667</ele>
        <time>2023-09-09T09:37:05Z</time>
      </trkpt>
      <trkpt lat="42.85645" lon="2.37175">
        <ele>667</ele>
        <time>2023-09-09T09:37:06Z</time>
      </trkpt>
      <trkpt lat="42.85645" lon="2.37177">
        <ele>668</ele>
        <time>2023-09-09T09:37:07Z</time>
      </trkpt>
      <trkpt lat="42.85645" lon="2.37178">
        <ele>668</ele>
        <time>2023-09-09T09:37:08Z</time>
      </trkpt>
      <trkpt lat="42.85645" lon="2.37179">
        <ele>668</ele>
        <time>2023-09-09T09:37:09Z</time>
      </trkpt>
      <trkpt lat="42.85645" lon="2.3718">
        <ele>669</ele>
        <time>2023-09-09T09:37:10Z</time>
      </trkpt>
      <trkpt lat="42.85645" lon="2.37181">
        <ele>669</ele>
        <time>2023-09-09T09:37:11Z</time>
      </trkpt>
      <trkpt lat="42.85645" lon="2.37182">
        <ele>670</ele>
        <time>2023-09-09T09:37:12Z</time>
      </trkpt>
      <trkpt lat="42.85645" lon="2.37183">
        <ele>670</ele>
        <time>2023-09-09T09:37:13Z</time>
      </trkpt>
      <trkpt lat="42.85645" lon="2.37184">
        <ele>670</ele>
        <time>2023-09-09T09:37:14Z</time>
      </trkpt>
      <trkpt lat="42.85645" lon="2.37185">
        <ele>671</ele>
        <time>2023-09-09T09:37:15Z</time>
      </trkpt>
      <trkpt lat="42.85645" lon="2.37186">
        <ele>671</ele>
        <time>2023-09-09T09:37:16Z</time>
      </trkpt>
      <trkpt lat="42.85645" lon="2.37187">
        <ele>672</ele>
        <time>2023-09-09T09:37:17Z</time>
      </trkpt>
      <trkpt lat="42.85645" lon="2.37188">
        <ele>672</ele>
        <time>2023-09-09T09:37:18Z</time>
      </trkpt>
      <trkpt lat="42.85645" lon="2.37189">
        <ele>672</ele>
        <time>2023-09-09T09:37:19Z</time>
      </trkpt>
      <trkpt lat="42.85646" lon="2.3719">
        <ele>672</ele>
        <time>2023-09-09T09:37:20Z</time>
      </trkpt>
      <trkpt lat="42.85646" lon="2.37191">
        <ele>672</ele>
        <time>2023-09-09T09:37:21Z</time>
      </trkpt>
      <trkpt lat="42.85646" lon="2.37192">
        <ele>673</ele>
        <time>2023-09-09T09:37:22Z</time>
      </trkpt>
      <trkpt lat="42.85646" lon="2.37192">
        <ele>673</ele>
        <time>2023-09-09T09:37:23Z</time>
      </trkpt>
      <trkpt lat="42.85647" lon="2.37193">
        <ele>673</ele>
        <time>2023-09-09T09:37:24Z</time>
      </trkpt>
      <trkpt lat="42.85647" lon="2.37193">
        <ele>673</ele>
        <time>2023-09-09T09:37:25Z</time>
      </trkpt>
      <trkpt lat="42.85648" lon="2.37194">
        <ele>673</ele>
        <time>2023-09-09T09:37:26Z</time>
      </trkpt>
      <trkpt lat="42.85648" lon="2.37195">
        <ele>674</ele>
        <time>2023-09-09T09:37:27Z</time>
      </trkpt>
      <trkpt lat="42.85649" lon="2.37195">
        <ele>674</ele>
        <time>2023-09-09T09:37:28Z</time>
      </trkpt>
      <trkpt lat="42.85649" lon="2.37196">
        <ele>674</ele>
        <time>2023-09-09T09:37:29Z</time>
      </trkpt>
      <trkpt lat="42.85649" lon="2.37197">
        <ele>674</ele>
        <time>2023-09-09T09:37:30Z</time>
      </trkpt>
      <trkpt lat="42.8565" lon="2.37197">
        <ele>674</ele>
        <time>2023-09-09T09:37:31Z</time>
      </trkpt>
      <trkpt lat="42.8565" lon="2.37198">
        <ele>675</ele>
        <time>2023-09-09T09:37:32Z</time>
      </trkpt>
      <trkpt lat="42.85651" lon="2.37199">
        <ele>675</ele>
        <time>2023-09-09T09:37:33Z</time>
      </trkpt>
      <trkpt lat="42.85652" lon="2.37199">
        <ele>675</ele>
        <time>2023-09-09T09:37:34Z</time>
      </trkpt>
      <trkpt lat="42.85653" lon="2.372">
        <ele>676</ele>
        <time>2023-09-09T09:37:35Z</time>
      </trkpt>
      <trkpt lat="42.85653" lon="2.37201">
        <ele>676</ele>
        <time>2023-09-09T09:37:36Z</time>
      </trkpt>
      <trkpt lat="42.85654" lon="2.37202">
        <ele>677</ele>
        <time>2023-09-09T09:37:37Z</time>
      </trkpt>
      <trkpt lat="42.85655" lon="2.37203">
        <ele>677</ele>
        <time>2023-09-09T09:37:38Z</time>
      </trkpt>
      <trkpt lat="42.85656" lon="2.37203">
        <ele>677</ele>
        <time>2023-09-09T09:37:39Z</time>
      </trkpt>
      <trkpt lat="42.85657" lon="2.37204">
        <ele>677</ele>
        <time>2023-09-09T09:37:40Z</time>
      </trkpt>
      <trkpt lat="42.85657" lon="2.37204">
        <ele>677</ele>
        <time>2023-09-09T09:37:41Z</time>
      </trkpt>
      <trkpt lat="42.85658" lon="2.37205">
        <ele>678</ele>
        <time>2023-09-09T09:37:42Z</time>
      </trkpt>
      <trkpt lat="42.85659" lon="2.37205">
        <ele>678</ele>
        <time>2023-09-09T09:37:43Z</time>
      </trkpt>
      <trkpt lat="42.8566" lon="2.37206">
        <ele>678</ele>
        <time>2023-09-09T09:37:44Z</time>
      </trkpt>
      <trkpt lat="42.85661" lon="2.37206">
        <ele>678</ele>
        <time>2023-09-09T09:37:45Z</time>
      </trkpt>
      <trkpt lat="42.85661" lon="2.37207">
        <ele>678</ele>
        <time>2023-09-09T09:37:46Z</time>
      </trkpt>
      <trkpt lat="42.85662" lon="2.37208">
        <ele>679</ele>
        <time>2023-09-09T09:37:47Z</time>
      </trkpt>
      <trkpt lat="42.85663" lon="2.37209">
        <ele>679</ele>
        <time>2023-09-09T09:37:48Z</time>
      </trkpt>
      <trkpt lat="42.85664" lon="2.3721">
        <ele>679</ele>
        <time>2023-09-09T09:37:49Z</time>
      </trkpt>
      <trkpt lat="42.85665" lon="2.3721">
        <ele>679</ele>
        <time>2023-09-09T09:37:50Z</time>
      </trkpt>
      <trkpt lat="42.85665" lon="2.37211">
        <ele>679</ele>
        <time>2023-09-09T09:37:51Z</time>
      </trkpt>
      <trkpt lat="42.85666" lon="2.37212">
        <ele>680</ele>
        <time>2023-09-09T09:37:52Z</time>
      </trkpt>
      <trkpt lat="42.85667" lon="2.37213">
        <ele>680</ele>
        <time>2023-09-09T09:37:53Z</time>
      </trkpt>
      <trkpt lat="42.85668" lon="2.37213">
        <ele>680</ele>
        <time>2023-09-09T09:37:54Z</time>
      </trkpt>
      <trkpt lat="42.85668" lon="2.37214">
        <ele>680</ele>
        <time>2023-09-09T09:37:55Z</time>
      </trkpt>
      <trkpt lat="42.85669" lon="2.37214">
        <ele>680</ele>
        <time>2023-09-09T09:37:56Z</time>
      </trkpt>
      <trkpt lat="42.8567" lon="2.37215">
        <ele>681</ele>
        <time>2023-09-09T09:37:57Z</time>
      </trkpt>
      <trkpt lat="42.8567" lon="2.37215">
        <ele>681</ele>
        <time>2023-09-09T09:37:58Z</time>
      </trkpt>
      <trkpt lat="42.85671" lon="2.37216">
        <ele>681</ele>
        <time>2023-09-09T09:37:59Z</time>
      </trkpt>
      <trkpt lat="42.85672" lon="2.37217">
        <ele>681</ele>
        <time>2023-09-09T09:38:00Z</time>
      </trkpt>
      <trkpt lat="42.85672" lon="2.37217">
        <ele>681</ele>
        <time>2023-09-09T09:38:01Z</time>
      </trkpt>
      <trkpt lat="42.85673" lon="2.37218">
        <ele>682</ele>
        <time>2023-09-09T09:38:02Z</time>
      </trkpt>
      <trkpt lat="42.85674" lon="2.37219">
        <ele>682</ele>
        <time>2023-09-09T09:38:03Z</time>
      </trkpt>
      <trkpt lat="42.85674" lon="2.3722">
        <ele>682</ele>
        <time>2023-09-09T09:38:04Z</time>
      </trkpt>
      <trkpt lat="42.85675" lon="2.3722">
        <ele>682</ele>
        <time>2023-09-09T09:38:05Z</time>
      </trkpt>
      <trkpt lat="42.85675" lon="2.37221">
        <ele>682</ele>
        <time>2023-09-09T09:38:06Z</time>
      </trkpt>
      <trkpt lat="42.85676" lon="2.37222">
        <ele>683</ele>
        <time>2023-09-09T09:38:07Z</time>
      </trkpt>
      <trkpt lat="42.85677" lon="2.37223">
        <ele>683</ele>
        <time>2023-09-09T09:38:08Z</time>
      </trkpt>
      <trkpt lat="42.85677" lon="2.37224">
        <ele>683</ele>
        <time>2023-09-09T09:38:09Z</time>
      </trkpt>
      <trkpt lat="42.85678" lon="2.37224">
        <ele>683</ele>
        <time>2023-09-09T09:38:10Z</time>
      </trkpt>
      <trkpt lat="42.85678" lon="2.37225">
        <ele>683</ele>
        <time>2023-09-09T09:38:11Z</time>
      </trkpt>
      <trkpt lat="42.85678" lon="2.37226">
        <ele>684</ele>
        <time>2023-09-09T09:38:12Z</time>
      </trkpt>
      <trkpt lat="42.85678" lon="2.37226">
        <ele>684</ele>
        <time>2023-09-09T09:38:13Z</time>
      </trkpt>
      <trkpt lat="42.85677" lon="2.37227">
        <ele>684</ele>
        <time>2023-09-09T09:38:14Z</time>
      </trkpt>
      <trkpt lat="42.85677" lon="2.37228">
        <ele>684</ele>
        <time>2023-09-09T09:38:15Z</time>
      </trkpt>
      <trkpt lat="42.85676" lon="2.37229">
        <ele>684</ele>
        <time>2023-09-09T09:38:16Z</time>
      </trkpt>
      <trkpt lat="42.85675" lon="2.37229">
        <ele>685</ele>
        <time>2023-09-09T09:38:17Z</time>
      </trkpt>
      <trkpt lat="42.85675" lon="2.3723">
        <ele>685</ele>
        <time>2023-09-09T09:38:18Z</time>
      </trkpt>
      <trkpt lat="42.85674" lon="2.37231">
        <ele>685</ele>
        <time>2023-09-09T09:38:19Z</time>
      </trkpt>
      <trkpt lat="42.85673" lon="2.37232">
        <ele>685</ele>
        <time>2023-09-09T09:38:20Z</time>
      </trkpt>
      <trkpt lat="42.85673" lon="2.37233">
        <ele>685</ele>
        <time>2023-09-09T09:38:21Z</time>
      </trkpt>
      <trkpt lat="42.85672" lon="2.37234">
        <ele>686</ele>
        <time>2023-09-09T09:38:22Z</time>
      </trkpt>
      <trkpt lat="42.85671" lon="2.37235">
        <ele>686</ele>
        <time>2023-09-09T09:38:23Z</time>
      </trkpt>
      <trkpt lat="42.85671" lon="2.37236">
        <ele>686</ele>
        <time>2023-09-09T09:38:24Z</time>
      </trkpt>
      <trkpt lat="42.8567" lon="2.37236">
        <ele>687</ele>
        <time>2023-09-09T09:38:25Z</time>
      </trkpt>
      <trkpt lat="42.85669" lon="2.37237">
        <ele>687</ele>
        <time>2023-09-09T09:38:26Z</time>
      </trkpt>
      <trkpt lat="42.85668" lon="2.37238">
        <ele>688</ele>
        <time>2023-09-09T09:38:27Z</time>
      </trkpt>
      <trkpt lat="42.85667" lon="2.37238">
        <ele>688</ele>
        <time>2023-09-09T09:38:28Z</time>
      </trkpt>
      <trkpt lat="42.85666" lon="2.37239">
        <ele>688</ele>
        <time>2023-09-09T09:38:29Z</time>
      </trkpt>
      <trkpt lat="42.85666" lon="2.37239">
        <ele>688</ele>
        <time>2023-09-09T09:38:30Z</time>
      </trkpt>
      <trkpt lat="42.85665" lon="2.3724">
        <ele>688</ele>
        <time>2023-09-09T09:38:31Z</time>
      </trkpt>
      <trkpt lat="42.85664" lon="2.37241">
        <ele>689</ele>
        <time>2023-09-09T09:38:32Z</time>
      </trkpt>
      <trkpt lat="42.85663" lon="2.37242">
        <ele>689</ele>
        <time>2023-09-09T09:38:33Z</time>
      </trkpt>
      <trkpt lat="42.85663" lon="2.37243">
        <ele>689</ele>
        <time>2023-09-09T09:38:34Z</time>
      </trkpt>
      <trkpt lat="42.85662" lon="2.37243">
        <ele>689</ele>
        <time>2023-09-09T09:38:35Z</time>
      </trkpt>
      <trkpt lat="42.85662" lon="2.37245">
        <ele>689</ele>
        <time>2023-09-09T09:38:36Z</time>
      </trkpt>
      <trkpt lat="42.85661" lon="2.37246">
        <ele>690</ele>
        <time>2023-09-09T09:38:37Z</time>
      </trkpt>
      <trkpt lat="42.85661" lon="2.37247">
        <ele>690</ele>
        <time>2023-09-09T09:38:38Z</time>
      </trkpt>
      <trkpt lat="42.85661" lon="2.37248">
        <ele>690</ele>
        <time>2023-09-09T09:38:39Z</time>
      </trkpt>
      <trkpt lat="42.85661" lon="2.37249">
        <ele>690</ele>
        <time>2023-09-09T09:38:40Z</time>
      </trkpt>
      <trkpt lat="42.85661" lon="2.3725">
        <ele>690</ele>
        <time>2023-09-09T09:38:41Z</time>
      </trkpt>
      <trkpt lat="42.85661" lon="2.37252">
        <ele>691</ele>
        <time>2023-09-09T09:38:42Z</time>
      </trkpt>
      <trkpt lat="42.85661" lon="2.37253">
        <ele>691</ele>
        <time>2023-09-09T09:38:43Z</time>
      </trkpt>
      <trkpt lat="42.85661" lon="2.37254">
        <ele>691</ele>
        <time>2023-09-09T09:38:44Z</time>
      </trkpt>
      <trkpt lat="42.85661" lon="2.37255">
        <ele>691</ele>
        <time>2023-09-09T09:38:45Z</time>
      </trkpt>
      <trkpt lat="42.8566" lon="2.37256">
        <ele>691</ele>
        <time>2023-09-09T09:38:46Z</time>
      </trkpt>
      <trkpt lat="42.8566" lon="2.37257">
        <ele>692</ele>
        <time>2023-09-09T09:38:47Z</time>
      </trkpt>
      <trkpt lat="42.85659" lon="2.37257">
        <ele>692</ele>
        <time>2023-09-09T09:38:48Z</time>
      </trkpt>
      <trkpt lat="42.85657" lon="2.37257">
        <ele>692</ele>
        <time>2023-09-09T09:38:49Z</time>
      </trkpt>
      <trkpt lat="42.85656" lon="2.37257">
        <ele>692</ele>
        <time>2023-09-09T09:38:50Z</time>
      </trkpt>
      <trkpt lat="42.85655" lon="2.37257">
        <ele>692</ele>
        <time>2023-09-09T09:38:51Z</time>
      </trkpt>
      <trkpt lat="42.85654" lon="2.37257">
        <ele>693</ele>
        <time>2023-09-09T09:38:52Z</time>
      </trkpt>
      <trkpt lat="42.85653" lon="2.37258">
        <ele>693</ele>
        <time>2023-09-09T09:38:53Z</time>
      </trkpt>
      <trkpt lat="42.85652" lon="2.37258">
        <ele>693</ele>
        <time>2023-09-09T09:38:54Z</time>
      </trkpt>
      <trkpt lat="42.8565" lon="2.37258">
        <ele>693</ele>
        <time>2023-09-09T09:38:55Z</time>
      </trkpt>
      <trkpt lat="42.85649" lon="2.37258">
        <ele>693</ele>
        <time>2023-09-09T09:38:56Z</time>
      </trkpt>
      <trkpt lat="42.85648" lon="2.37259">
        <ele>694</ele>
        <time>2023-09-09T09:38:57Z</time>
      </trkpt>
      <trkpt lat="42.85647" lon="2.37259">
        <ele>694</ele>
        <time>2023-09-09T09:38:58Z</time>
      </trkpt>
      <trkpt lat="42.85646" lon="2.37259">
        <ele>694</ele>
        <time>2023-09-09T09:38:59Z</time>
      </trkpt>
      <trkpt lat="42.85646" lon="2.3726">
        <ele>694</ele>
        <time>2023-09-09T09:39:00Z</time>
      </trkpt>
      <trkpt lat="42.85645" lon="2.37261">
        <ele>694</ele>
        <time>2023-09-09T09:39:01Z</time>
      </trkpt>
      <trkpt lat="42.85644" lon="2.37262">
        <ele>695</ele>
        <time>2023-09-09T09:39:02Z</time>
      </trkpt>
      <trkpt lat="42.85644" lon="2.37263">
        <ele>695</ele>
        <time>2023-09-09T09:39:03Z</time>
      </trkpt>
      <trkpt lat="42.85643" lon="2.37263">
        <ele>695</ele>
        <time>2023-09-09T09:39:04Z</time>
      </trkpt>
      <trkpt lat="42.85642" lon="2.37264">
        <ele>695</ele>
        <time>2023-09-09T09:39:05Z</time>
      </trkpt>
      <trkpt lat="42.85642" lon="2.37265">
        <ele>695</ele>
        <time>2023-09-09T09:39:06Z</time>
      </trkpt>
      <trkpt lat="42.85641" lon="2.37266">
        <ele>696</ele>
        <time>2023-09-09T09:39:07Z</time>
      </trkpt>
      <trkpt lat="42.8564" lon="2.37267">
        <ele>696</ele>
        <time>2023-09-09T09:39:08Z</time>
      </trkpt>
      <trkpt lat="42.8564" lon="2.37268">
        <ele>696</ele>
        <time>2023-09-09T09:39:09Z</time>
      </trkpt>
      <trkpt lat="42.85639" lon="2.37269">
        <ele>696</ele>
        <time>2023-09-09T09:39:10Z</time>
      </trkpt>
      <trkpt lat="42.85638" lon="2.3727">
        <ele>696</ele>
        <time>2023-09-09T09:39:11Z</time>
      </trkpt>
      <trkpt lat="42.85637" lon="2.37271">
        <ele>697</ele>
        <time>2023-09-09T09:39:12Z</time>
      </trkpt>
      <trkpt lat="42.85636" lon="2.37272">
        <ele>697</ele>
        <time>2023-09-09T09:39:13Z</time>
      </trkpt>
      <trkpt lat="42.85635" lon="2.37273">
        <ele>697</ele>
        <time>2023-09-09T09:39:14Z</time>
      </trkpt>
      <trkpt lat="42.85634" lon="2.37274">
        <ele>698</ele>
        <time>2023-09-09T09:39:15Z</time>
      </trkpt>
      <trkpt lat="42.85634" lon="2.37275">
        <ele>698</ele>
        <time>2023-09-09T09:39:16Z</time>
      </trkpt>
      <trkpt lat="42.85633" lon="2.37276">
        <ele>699</ele>
        <time>2023-09-09T09:39:17Z</time>
      </trkpt>
      <trkpt lat="42.85632" lon="2.37277">
        <ele>699</ele>
        <time>2023-09-09T09:39:18Z</time>
      </trkpt>
      <trkpt lat="42.85632" lon="2.37278">
        <ele>699</ele>
        <time>2023-09-09T09:39:19Z</time>
      </trkpt>
      <trkpt lat="42.85631" lon="2.37279">
        <ele>699</ele>
        <time>2023-09-09T09:39:20Z</time>
      </trkpt>
      <trkpt lat="42.85631" lon="2.3728">
        <ele>699</ele>
        <time>2023-09-09T09:39:21Z</time>
      </trkpt>
      <trkpt lat="42.8563" lon="2.37281">
        <ele>700</ele>
        <time>2023-09-09T09:39:22Z</time>
      </trkpt>
      <trkpt lat="42.8563" lon="2.37282">
        <ele>700</ele>
        <time>2023-09-09T09:39:23Z</time>
      </trkpt>
      <trkpt lat="42.8563" lon="2.37284">
        <ele>700</ele>
        <time>2023-09-09T09:39:24Z</time>
      </trkpt>
      <trkpt lat="42.85629" lon="2.37285">
        <ele>700</ele>
        <time>2023-09-09T09:39:25Z</time>
      </trkpt>
      <trkpt lat="42.85629" lon="2.37287">
        <ele>700</ele>
        <time>2023-09-09T09:39:26Z</time>
      </trkpt>
      <trkpt lat="42.85629" lon="2.37288">
        <ele>700</ele>
        <time>2023-09-09T09:39:27Z</time>
      </trkpt>
      <trkpt lat="42.85629" lon="2.3729">
        <ele>700</ele>
        <time>2023-09-09T09:39:28Z</time>
      </trkpt>
      <trkpt lat="42.85629" lon="2.37291">
        <ele>700</ele>
        <time>2023-09-09T09:39:29Z</time>
      </trkpt>
      <trkpt lat="42.85629" lon="2.37292">
        <ele>701</ele>
        <time>2023-09-09T09:39:30Z</time>
      </trkpt>
      <trkpt lat="42.85628" lon="2.37294">
        <ele>701</ele>
        <time>2023-09-09T09:39:31Z</time>
      </trkpt>
      <trkpt lat="42.85628" lon="2.37295">
        <ele>702</ele>
        <time>2023-09-09T09:39:32Z</time>
      </trkpt>
      <trkpt lat="42.85628" lon="2.37296">
        <ele>702</ele>
        <time>2023-09-09T09:39:33Z</time>
      </trkpt>
      <trkpt lat="42.85628" lon="2.37298">
        <ele>702</ele>
        <time>2023-09-09T09:39:34Z</time>
      </trkpt>
      <trkpt lat="42.85628" lon="2.37299">
        <ele>702</ele>
        <time>2023-09-09T09:39:35Z</time>
      </trkpt>
      <trkpt lat="42.85628" lon="2.373">
        <ele>702</ele>
        <time>2023-09-09T09:39:36Z</time>
      </trkpt>
      <trkpt lat="42.85628" lon="2.37302">
        <ele>703</ele>
        <time>2023-09-09T09:39:37Z</time>
      </trkpt>
      <trkpt lat="42.85628" lon="2.37303">
        <ele>703</ele>
        <time>2023-09-09T09:39:38Z</time>
      </trkpt>
      <trkpt lat="42.85628" lon="2.37305">
        <ele>703</ele>
        <time>2023-09-09T09:39:39Z</time>
      </trkpt>
      <trkpt lat="42.85628" lon="2.37305">
        <ele>703</ele>
        <time>2023-09-09T09:39:40Z</time>
      </trkpt>
      <trkpt lat="42.85628" lon="2.37306">
        <ele>703</ele>
        <time>2023-09-09T09:39:41Z</time>
      </trkpt>
      <trkpt lat="42.85628" lon="2.37307">
        <ele>703</ele>
        <time>2023-09-09T09:39:42Z</time>
      </trkpt>
      <trkpt lat="42.85629" lon="2.37308">
        <ele>703</ele>
        <time>2023-09-09T09:39:43Z</time>
      </trkpt>
      <trkpt lat="42.85629" lon="2.37308">
        <ele>703</ele>
        <time>2023-09-09T09:39:44Z</time>
      </trkpt>
      <trkpt lat="42.8563" lon="2.37309">
        <ele>704</ele>
        <time>2023-09-09T09:39:45Z</time>
      </trkpt>
      <trkpt lat="42.8563" lon="2.37309">
        <ele>704</ele>
        <time>2023-09-09T09:39:46Z</time>
      </trkpt>
      <trkpt lat="42.8563" lon="2.37309">
        <ele>705</ele>
        <time>2023-09-09T09:39:47Z</time>
      </trkpt>
      <trkpt lat="42.85631" lon="2.3731">
        <ele>705</ele>
        <time>2023-09-09T09:39:48Z</time>
      </trkpt>
      <trkpt lat="42.85632" lon="2.3731">
        <ele>705</ele>
        <time>2023-09-09T09:39:49Z</time>
      </trkpt>
      <trkpt lat="42.85632" lon="2.3731">
        <ele>706</ele>
        <time>2023-09-09T09:39:50Z</time>
      </trkpt>
      <trkpt lat="42.85633" lon="2.37311">
        <ele>706</ele>
        <time>2023-09-09T09:39:51Z</time>
      </trkpt>
      <trkpt lat="42.85633" lon="2.37311">
        <ele>707</ele>
        <time>2023-09-09T09:39:52Z</time>
      </trkpt>
      <trkpt lat="42.85633" lon="2.37312">
        <ele>707</ele>
        <time>2023-09-09T09:39:53Z</time>
      </trkpt>
      <trkpt lat="42.85634" lon="2.37312">
        <ele>707</ele>
        <time>2023-09-09T09:39:54Z</time>
      </trkpt>
      <trkpt lat="42.85634" lon="2.37313">
        <ele>707</ele>
        <time>2023-09-09T09:39:55Z</time>
      </trkpt>
      <trkpt lat="42.85634" lon="2.37314">
        <ele>707</ele>
        <time>2023-09-09T09:39:56Z</time>
      </trkpt>
      <trkpt lat="42.85634" lon="2.37315">
        <ele>708</ele>
        <time>2023-09-09T09:39:57Z</time>
      </trkpt>
      <trkpt lat="42.85634" lon="2.37316">
        <ele>708</ele>
        <time>2023-09-09T09:39:58Z</time>
      </trkpt>
      <trkpt lat="42.85634" lon="2.37317">
        <ele>708</ele>
        <time>2023-09-09T09:39:59Z</time>
      </trkpt>
      <trkpt lat="42.85634" lon="2.37318">
        <ele>708</ele>
        <time>2023-09-09T09:40:00Z</time>
      </trkpt>
      <trkpt lat="42.85634" lon="2.37319">
        <ele>708</ele>
        <time>2023-09-09T09:40:01Z</time>
      </trkpt>
      <trkpt lat="42.85633" lon="2.3732">
        <ele>709</ele>
        <time>2023-09-09T09:40:02Z</time>
      </trkpt>
      <trkpt lat="42.85633" lon="2.37321">
        <ele>709</ele>
        <time>2023-09-09T09:40:03Z</time>
      </trkpt>
      <trkpt lat="42.85633" lon="2.37322">
        <ele>709</ele>
        <time>2023-09-09T09:40:04Z</time>
      </trkpt>
      <trkpt lat="42.85634" lon="2.37323">
        <ele>709</ele>
        <time>2023-09-09T09:40:05Z</time>
      </trkpt>
      <trkpt lat="42.85634" lon="2.37323">
        <ele>709</ele>
        <time>2023-09-09T09:40:06Z</time>
      </trkpt>
      <trkpt lat="42.85634" lon="2.37324">
        <ele>710</ele>
        <time>2023-09-09T09:40:07Z</time>
      </trkpt>
      <trkpt lat="42.85634" lon="2.37324">
        <ele>710</ele>
        <time>2023-09-09T09:40:08Z</time>
      </trkpt>
      <trkpt lat="42.85634" lon="2.37325">
        <ele>710</ele>
        <time>2023-09-09T09:40:09Z</time>
      </trkpt>
      <trkpt lat="42.85635" lon="2.37326">
        <ele>710</ele>
        <time>2023-09-09T09:40:10Z</time>
      </trkpt>
      <trkpt lat="42.85635" lon="2.37327">
        <ele>710</ele>
        <time>2023-09-09T09:40:11Z</time>
      </trkpt>
      <trkpt lat="42.85635" lon="2.37328">
        <ele>711</ele>
        <time>2023-09-09T09:40:12Z</time>
      </trkpt>
      <trkpt lat="42.85635" lon="2.37329">
        <ele>711</ele>
        <time>2023-09-09T09:40:13Z</time>
      </trkpt>
      <trkpt lat="42.85636" lon="2.37329">
        <ele>711</ele>
        <time>2023-09-09T09:40:14Z</time>
      </trkpt>
      <trkpt lat="42.85636" lon="2.3733">
        <ele>711</ele>
        <time>2023-09-09T09:40:15Z</time>
      </trkpt>
      <trkpt lat="42.85636" lon="2.37331">
        <ele>711</ele>
        <time>2023-09-09T09:40:16Z</time>
      </trkpt>
      <trkpt lat="42.85636" lon="2.37333">
        <ele>712</ele>
        <time>2023-09-09T09:40:17Z</time>
      </trkpt>
      <trkpt lat="42.85636" lon="2.37334">
        <ele>712</ele>
        <time>2023-09-09T09:40:18Z</time>
      </trkpt>
      <trkpt lat="42.85636" lon="2.37335">
        <ele>712</ele>
        <time>2023-09-09T09:40:19Z</time>
      </trkpt>
      <trkpt lat="42.85636" lon="2.37336">
        <ele>712</ele>
        <time>2023-09-09T09:40:20Z</time>
      </trkpt>
      <trkpt lat="42.85636" lon="2.37337">
        <ele>712</ele>
        <time>2023-09-09T09:40:21Z</time>
      </trkpt>
      <trkpt lat="42.85636" lon="2.37338">
        <ele>713</ele>
        <time>2023-09-09T09:40:22Z</time>
      </trkpt>
      <trkpt lat="42.85636" lon="2.37339">
        <ele>713</ele>
        <time>2023-09-09T09:40:23Z</time>
      </trkpt>
      <trkpt lat="42.85636" lon="2.3734">
        <ele>713</ele>
        <time>2023-09-09T09:40:24Z</time>
      </trkpt>
      <trkpt lat="42.85636" lon="2.37341">
        <ele>714</ele>
        <time>2023-09-09T09:40:25Z</time>
      </trkpt>
      <trkpt lat="42.85637" lon="2.37342">
        <ele>716</ele>
        <time>2023-09-09T09:40:34Z</time>
      </trkpt>
      <trkpt lat="42.85637" lon="2.37343">
        <ele>716</ele>
        <time>2023-09-09T09:40:35Z</time>
      </trkpt>
      <trkpt lat="42.85638" lon="2.37345">
        <ele>716</ele>
        <time>2023-09-09T09:40:36Z</time>
      </trkpt>
      <trkpt lat="42.85638" lon="2.37345">
        <ele>717</ele>
        <time>2023-09-09T09:40:37Z</time>
      </trkpt>
      <trkpt lat="42.85639" lon="2.37346">
        <ele>717</ele>
        <time>2023-09-09T09:40:38Z</time>
      </trkpt>
      <trkpt lat="42.8564" lon="2.37346">
        <ele>717</ele>
        <time>2023-09-09T09:40:39Z</time>
      </trkpt>
      <trkpt lat="42.8564" lon="2.37347">
        <ele>717</ele>
        <time>2023-09-09T09:40:40Z</time>
      </trkpt>
      <trkpt lat="42.85641" lon="2.37347">
        <ele>717</ele>
        <time>2023-09-09T09:40:41Z</time>
      </trkpt>
      <trkpt lat="42.85642" lon="2.37348">
        <ele>718</ele>
        <time>2023-09-09T09:40:42Z</time>
      </trkpt>
      <trkpt lat="42.85642" lon="2.37349">
        <ele>718</ele>
        <time>2023-09-09T09:40:43Z</time>
      </trkpt>
      <trkpt lat="42.85642" lon="2.3735">
        <ele>718</ele>
        <time>2023-09-09T09:40:44Z</time>
      </trkpt>
      <trkpt lat="42.85642" lon="2.37351">
        <ele>718</ele>
        <time>2023-09-09T09:40:45Z</time>
      </trkpt>
      <trkpt lat="42.85643" lon="2.37352">
        <ele>718</ele>
        <time>2023-09-09T09:40:46Z</time>
      </trkpt>
      <trkpt lat="42.85643" lon="2.37353">
        <ele>719</ele>
        <time>2023-09-09T09:40:47Z</time>
      </trkpt>
      <trkpt lat="42.85643" lon="2.37354">
        <ele>719</ele>
        <time>2023-09-09T09:40:48Z</time>
      </trkpt>
      <trkpt lat="42.85643" lon="2.37355">
        <ele>719</ele>
        <time>2023-09-09T09:40:49Z</time>
      </trkpt>
      <trkpt lat="42.85643" lon="2.37356">
        <ele>720</ele>
        <time>2023-09-09T09:40:50Z</time>
      </trkpt>
      <trkpt lat="42.85643" lon="2.37356">
        <ele>720</ele>
        <time>2023-09-09T09:40:51Z</time>
      </trkpt>
      <trkpt lat="42.85643" lon="2.37357">
        <ele>721</ele>
        <time>2023-09-09T09:40:52Z</time>
      </trkpt>
      <trkpt lat="42.85643" lon="2.37358">
        <ele>721</ele>
        <time>2023-09-09T09:40:53Z</time>
      </trkpt>
      <trkpt lat="42.85643" lon="2.37359">
        <ele>721</ele>
        <time>2023-09-09T09:40:54Z</time>
      </trkpt>
      <trkpt lat="42.85644" lon="2.37359">
        <ele>722</ele>
        <time>2023-09-09T09:40:55Z</time>
      </trkpt>
      <trkpt lat="42.85644" lon="2.3736">
        <ele>722</ele>
        <time>2023-09-09T09:40:56Z</time>
      </trkpt>
      <trkpt lat="42.85645" lon="2.37362">
        <ele>724</ele>
        <time>2023-09-09T09:41:03Z</time>
      </trkpt>
      <trkpt lat="42.85645" lon="2.37363">
        <ele>724</ele>
        <time>2023-09-09T09:41:04Z</time>
      </trkpt>
      <trkpt lat="42.85646" lon="2.37364">
        <ele>724</ele>
        <time>2023-09-09T09:41:05Z</time>
      </trkpt>
      <trkpt lat="42.85646" lon="2.37365">
        <ele>724</ele>
        <time>2023-09-09T09:41:06Z</time>
      </trkpt>
      <trkpt lat="42.85647" lon="2.37366">
        <ele>725</ele>
        <time>2023-09-09T09:41:07Z</time>
      </trkpt>
      <trkpt lat="42.85647" lon="2.37366">
        <ele>725</ele>
        <time>2023-09-09T09:41:08Z</time>
      </trkpt>
      <trkpt lat="42.85647" lon="2.37367">
        <ele>725</ele>
        <time>2023-09-09T09:41:09Z</time>
      </trkpt>
      <trkpt lat="42.85648" lon="2.37367">
        <ele>725</ele>
        <time>2023-09-09T09:41:10Z</time>
      </trkpt>
      <trkpt lat="42.85648" lon="2.37368">
        <ele>725</ele>
        <time>2023-09-09T09:41:11Z</time>
      </trkpt>
      <trkpt lat="42.85649" lon="2.37369">
        <ele>726</ele>
        <time>2023-09-09T09:41:12Z</time>
      </trkpt>
      <trkpt lat="42.85649" lon="2.3737">
        <ele>726</ele>
        <time>2023-09-09T09:41:13Z</time>
      </trkpt>
      <trkpt lat="42.8565" lon="2.3737">
        <ele>726</ele>
        <time>2023-09-09T09:41:14Z</time>
      </trkpt>
      <trkpt lat="42.8565" lon="2.37371">
        <ele>726</ele>
        <time>2023-09-09T09:41:15Z</time>
      </trkpt>
      <trkpt lat="42.85651" lon="2.37372">
        <ele>726</ele>
        <time>2023-09-09T09:41:16Z</time>
      </trkpt>
      <trkpt lat="42.85651" lon="2.37372">
        <ele>727</ele>
        <time>2023-09-09T09:41:17Z</time>
      </trkpt>
      <trkpt lat="42.85652" lon="2.37373">
        <ele>727</ele>
        <time>2023-09-09T09:41:18Z</time>
      </trkpt>
      <trkpt lat="42.85652" lon="2.37373">
        <ele>727</ele>
        <time>2023-09-09T09:41:19Z</time>
      </trkpt>
      <trkpt lat="42.85653" lon="2.37374">
        <ele>727</ele>
        <time>2023-09-09T09:41:20Z</time>
      </trkpt>
      <trkpt lat="42.85653" lon="2.37375">
        <ele>727</ele>
        <time>2023-09-09T09:41:21Z</time>
      </trkpt>
      <trkpt lat="42.85654" lon="2.37375">
        <ele>728</ele>
        <time>2023-09-09T09:41:22Z</time>
      </trkpt>
      <trkpt lat="42.85654" lon="2.37376">
        <ele>728</ele>
        <time>2023-09-09T09:41:23Z</time>
      </trkpt>
      <trkpt lat="42.85654" lon="2.37376">
        <ele>728</ele>
        <time>2023-09-09T09:41:24Z</time>
      </trkpt>
      <trkpt lat="42.85655" lon="2.37377">
        <ele>728</ele>
        <time>2023-09-09T09:41:25Z</time>
      </trkpt>
      <trkpt lat="42.85655" lon="2.37377">
        <ele>728</ele>
        <time>2023-09-09T09:41:26Z</time>
      </trkpt>
      <trkpt lat="42.85656" lon="2.37378">
        <ele>729</ele>
        <time>2023-09-09T09:41:27Z</time>
      </trkpt>
      <trkpt lat="42.85656" lon="2.37379">
        <ele>729</ele>
        <time>2023-09-09T09:41:28Z</time>
      </trkpt>
      <trkpt lat="42.85657" lon="2.37379">
        <ele>729</ele>
        <time>2023-09-09T09:41:29Z</time>
      </trkpt>
      <trkpt lat="42.85657" lon="2.37379">
        <ele>729</ele>
        <time>2023-09-09T09:41:30Z</time>
      </trkpt>
      <trkpt lat="42.85658" lon="2.3738">
        <ele>729</ele>
        <time>2023-09-09T09:41:31Z</time>
      </trkpt>
      <trkpt lat="42.85658" lon="2.3738">
        <ele>729</ele>
        <time>2023-09-09T09:41:32Z</time>
      </trkpt>
      <trkpt lat="42.85659" lon="2.3738">
        <ele>729</ele>
        <time>2023-09-09T09:41:33Z</time>
      </trkpt>
      <trkpt lat="42.85659" lon="2.37381">
        <ele>729</ele>
        <time>2023-09-09T09:41:34Z</time>
      </trkpt>
      <trkpt lat="42.8566" lon="2.37381">
        <ele>730</ele>
        <time>2023-09-09T09:41:35Z</time>
      </trkpt>
      <trkpt lat="42.85661" lon="2.37381">
        <ele>730</ele>
        <time>2023-09-09T09:41:36Z</time>
      </trkpt>
      <trkpt lat="42.85668" lon="2.37383">
        <ele>734</ele>
        <time>2023-09-09T09:41:56Z</time>
      </trkpt>
      <trkpt lat="42.85674" lon="2.37385">
        <ele>735</ele>
        <time>2023-09-09T09:42:07Z</time>
      </trkpt>
      <trkpt lat="42.85674" lon="2.37384">
        <ele>735</ele>
        <time>2023-09-09T09:42:08Z</time>
      </trkpt>
      <trkpt lat="42.85675" lon="2.37384">
        <ele>735</ele>
        <time>2023-09-09T09:42:09Z</time>
      </trkpt>
      <trkpt lat="42.85675" lon="2.37384">
        <ele>735</ele>
        <time>2023-09-09T09:42:10Z</time>
      </trkpt>
      <trkpt lat="42.85676" lon="2.37384">
        <ele>736</ele>
        <time>2023-09-09T09:42:11Z</time>
      </trkpt>
      <trkpt lat="42.85676" lon="2.37384">
        <ele>736</ele>
        <time>2023-09-09T09:42:12Z</time>
      </trkpt>
      <trkpt lat="42.85677" lon="2.37383">
        <ele>736</ele>
        <time>2023-09-09T09:42:13Z</time>
      </trkpt>
      <trkpt lat="42.85677" lon="2.37383">
        <ele>736</ele>
        <time>2023-09-09T09:42:14Z</time>
      </trkpt>
      <trkpt lat="42.85677" lon="2.37383">
        <ele>736</ele>
        <time>2023-09-09T09:42:15Z</time>
      </trkpt>
      <trkpt lat="42.85678" lon="2.37383">
        <ele>737</ele>
        <time>2023-09-09T09:42:16Z</time>
      </trkpt>
      <trkpt lat="42.85678" lon="2.37383">
        <ele>737</ele>
        <time>2023-09-09T09:42:17Z</time>
      </trkpt>
      <trkpt lat="42.85679" lon="2.37382">
        <ele>737</ele>
        <time>2023-09-09T09:42:18Z</time>
      </trkpt>
      <trkpt lat="42.8568" lon="2.37383">
        <ele>737</ele>
        <time>2023-09-09T09:42:19Z</time>
      </trkpt>
      <trkpt lat="42.8568" lon="2.37383">
        <ele>737</ele>
        <time>2023-09-09T09:42:20Z</time>
      </trkpt>
      <trkpt lat="42.85681" lon="2.37383">
        <ele>738</ele>
        <time>2023-09-09T09:42:21Z</time>
      </trkpt>
      <trkpt lat="42.85681" lon="2.37384">
        <ele>738</ele>
        <time>2023-09-09T09:42:22Z</time>
      </trkpt>
      <trkpt lat="42.85682" lon="2.37384">
        <ele>739</ele>
        <time>2023-09-09T09:42:23Z</time>
      </trkpt>
      <trkpt lat="42.85683" lon="2.37385">
        <ele>739</ele>
        <time>2023-09-09T09:42:24Z</time>
      </trkpt>
      <trkpt lat="42.85683" lon="2.37385">
        <ele>740</ele>
        <time>2023-09-09T09:42:25Z</time>
      </trkpt>
      <trkpt lat="42.85684" lon="2.37386">
        <ele>741</ele>
        <time>2023-09-09T09:42:26Z</time>
      </trkpt>
      <trkpt lat="42.85685" lon="2.37387">
        <ele>743</ele>
        <time>2023-09-09T09:42:42Z</time>
      </trkpt>
      <trkpt lat="42.85686" lon="2.37389">
        <ele>743</ele>
        <time>2023-09-09T09:42:43Z</time>
      </trkpt>
      <trkpt lat="42.85687" lon="2.3739">
        <ele>743</ele>
        <time>2023-09-09T09:42:44Z</time>
      </trkpt>
      <trkpt lat="42.85688" lon="2.3739">
        <ele>743</ele>
        <time>2023-09-09T09:42:45Z</time>
      </trkpt>
      <trkpt lat="42.85689" lon="2.37391">
        <ele>744</ele>
        <time>2023-09-09T09:42:46Z</time>
      </trkpt>
      <trkpt lat="42.85689" lon="2.37391">
        <ele>744</ele>
        <time>2023-09-09T09:42:47Z</time>
      </trkpt>
      <trkpt lat="42.8569" lon="2.37391">
        <ele>744</ele>
        <time>2023-09-09T09:42:48Z</time>
      </trkpt>
      <trkpt lat="42.8569" lon="2.37391">
        <ele>744</ele>
        <time>2023-09-09T09:42:49Z</time>
      </trkpt>
      <trkpt lat="42.85692" lon="2.37392">
        <ele>746</ele>
        <time>2023-09-09T09:42:59Z</time>
      </trkpt>
      <trkpt lat="42.85693" lon="2.37393">
        <ele>746</ele>
        <time>2023-09-09T09:43:00Z</time>
      </trkpt>
      <trkpt lat="42.85695" lon="2.37394">
        <ele>747</ele>
        <time>2023-09-09T09:43:01Z</time>
      </trkpt>
      <trkpt lat="42.85708" lon="2.37393">
        <ele>751</ele>
        <time>2023-09-09T09:43:23Z</time>
      </trkpt>
      <trkpt lat="42.85709" lon="2.37394">
        <ele>751</ele>
        <time>2023-09-09T09:43:24Z</time>
      </trkpt>
      <trkpt lat="42.85711" lon="2.37394">
        <ele>751</ele>
        <time>2023-09-09T09:43:25Z</time>
      </trkpt>
      <trkpt lat="42.85711" lon="2.37394">
        <ele>751</ele>
        <time>2023-09-09T09:43:26Z</time>
      </trkpt>
      <trkpt lat="42.85712" lon="2.37394">
        <ele>751</ele>
        <time>2023-09-09T09:43:27Z</time>
      </trkpt>
      <trkpt lat="42.85712" lon="2.37394">
        <ele>751</ele>
        <time>2023-09-09T09:43:28Z</time>
      </trkpt>
      <trkpt lat="42.85713" lon="2.37394">
        <ele>751</ele>
        <time>2023-09-09T09:43:29Z</time>
      </trkpt>
      <trkpt lat="42.85713" lon="2.37394">
        <ele>751</ele>
        <time>2023-09-09T09:43:30Z</time>
      </trkpt>
      <trkpt lat="42.85714" lon="2.37394">
        <ele>751</ele>
        <time>2023-09-09T09:43:31Z</time>
      </trkpt>
      <trkpt lat="42.85715" lon="2.37394">
        <ele>751</ele>
        <time>2023-09-09T09:43:32Z</time>
      </trkpt>
      <trkpt lat="42.85716" lon="2.37394">
        <ele>751</ele>
        <time>2023-09-09T09:43:33Z</time>
      </trkpt>
      <trkpt lat="42.85716" lon="2.37395">
        <ele>751</ele>
        <time>2023-09-09T09:43:34Z</time>
      </trkpt>
      <trkpt lat="42.85717" lon="2.37395">
        <ele>751</ele>
        <time>2023-09-09T09:43:35Z</time>
      </trkpt>
      <trkpt lat="42.85717" lon="2.37395">
        <ele>751</ele>
        <time>2023-09-09T09:43:36Z</time>
      </trkpt>
      <trkpt lat="42.85718" lon="2.37395">
        <ele>752</ele>
        <time>2023-09-09T09:43:37Z</time>
      </trkpt>
      <trkpt lat="42.85719" lon="2.37394">
        <ele>752</ele>
        <time>2023-09-09T09:43:38Z</time>
      </trkpt>
      <trkpt lat="42.85719" lon="2.37394">
        <ele>752</ele>
        <time>2023-09-09T09:43:39Z</time>
      </trkpt>
      <trkpt lat="42.8572" lon="2.37393">
        <ele>753</ele>
        <time>2023-09-09T09:43:40Z</time>
      </trkpt>
      <trkpt lat="42.8572" lon="2.37393">
        <ele>753</ele>
        <time>2023-09-09T09:43:41Z</time>
      </trkpt>
      <trkpt lat="42.85721" lon="2.37393">
        <ele>754</ele>
        <time>2023-09-09T09:43:42Z</time>
      </trkpt>
      <trkpt lat="42.85721" lon="2.37393">
        <ele>754</ele>
        <time>2023-09-09T09:43:43Z</time>
      </trkpt>
      <trkpt lat="42.85721" lon="2.37393">
        <ele>754</ele>
        <time>2023-09-09T09:43:44Z</time>
      </trkpt>
      <trkpt lat="42.85722" lon="2.37393">
        <ele>754</ele>
        <time>2023-09-09T09:43:45Z</time>
      </trkpt>
      <trkpt lat="42.85723" lon="2.37394">
        <ele>754</ele>
        <time>2023-09-09T09:43:46Z</time>
      </trkpt>
      <trkpt lat="42.85723" lon="2.37394">
        <ele>755</ele>
        <time>2023-09-09T09:43:47Z</time>
      </trkpt>
      <trkpt lat="42.85724" lon="2.37394">
        <ele>755</ele>
        <time>2023-09-09T09:43:48Z</time>
      </trkpt>
      <trkpt lat="42.85724" lon="2.37394">
        <ele>755</ele>
        <time>2023-09-09T09:43:49Z</time>
      </trkpt>
      <trkpt lat="42.85725" lon="2.37395">
        <ele>755</ele>
        <time>2023-09-09T09:43:50Z</time>
      </trkpt>
      <trkpt lat="42.85725" lon="2.37396">
        <ele>755</ele>
        <time>2023-09-09T09:43:51Z</time>
      </trkpt>
      <trkpt lat="42.85726" lon="2.37397">
        <ele>755</ele>
        <time>2023-09-09T09:43:52Z</time>
      </trkpt>
      <trkpt lat="42.85726" lon="2.37398">
        <ele>755</ele>
        <time>2023-09-09T09:43:53Z</time>
      </trkpt>
      <trkpt lat="42.85726" lon="2.37401">
        <ele>757</ele>
        <time>2023-09-09T09:44:01Z</time>
      </trkpt>
      <trkpt lat="42.85726" lon="2.37402">
        <ele>758</ele>
        <time>2023-09-09T09:44:02Z</time>
      </trkpt>
      <trkpt lat="42.85726" lon="2.37403">
        <ele>758</ele>
        <time>2023-09-09T09:44:03Z</time>
      </trkpt>
      <trkpt lat="42.85725" lon="2.37404">
        <ele>758</ele>
        <time>2023-09-09T09:44:04Z</time>
      </trkpt>
      <trkpt lat="42.85725" lon="2.37405">
        <ele>758</ele>
        <time>2023-09-09T09:44:05Z</time>
      </trkpt>
      <trkpt lat="42.85725" lon="2.37406">
        <ele>758</ele>
        <time>2023-09-09T09:44:06Z</time>
      </trkpt>
      <trkpt lat="42.85725" lon="2.37407">
        <ele>759</ele>
        <time>2023-09-09T09:44:07Z</time>
      </trkpt>
      <trkpt lat="42.85724" lon="2.37408">
        <ele>759</ele>
        <time>2023-09-09T09:44:08Z</time>
      </trkpt>
      <trkpt lat="42.85724" lon="2.37409">
        <ele>759</ele>
        <time>2023-09-09T09:44:09Z</time>
      </trkpt>
      <trkpt lat="42.85724" lon="2.3741">
        <ele>759</ele>
        <time>2023-09-09T09:44:10Z</time>
      </trkpt>
      <trkpt lat="42.85724" lon="2.37411">
        <ele>759</ele>
        <time>2023-09-09T09:44:11Z</time>
      </trkpt>
      <trkpt lat="42.85724" lon="2.37412">
        <ele>760</ele>
        <time>2023-09-09T09:44:12Z</time>
      </trkpt>
      <trkpt lat="42.85724" lon="2.37414">
        <ele>760</ele>
        <time>2023-09-09T09:44:13Z</time>
      </trkpt>
      <trkpt lat="42.85724" lon="2.37415">
        <ele>760</ele>
        <time>2023-09-09T09:44:14Z</time>
      </trkpt>
      <trkpt lat="42.85724" lon="2.37416">
        <ele>760</ele>
        <time>2023-09-09T09:44:15Z</time>
      </trkpt>
      <trkpt lat="42.85724" lon="2.37416">
        <ele>760</ele>
        <time>2023-09-09T09:44:16Z</time>
      </trkpt>
      <trkpt lat="42.85723" lon="2.37417">
        <ele>761</ele>
        <time>2023-09-09T09:44:17Z</time>
      </trkpt>
      <trkpt lat="42.85723" lon="2.37418">
        <ele>761</ele>
        <time>2023-09-09T09:44:18Z</time>
      </trkpt>
      <trkpt lat="42.85722" lon="2.37418">
        <ele>761</ele>
        <time>2023-09-09T09:44:19Z</time>
      </trkpt>
      <trkpt lat="42.85721" lon="2.37419">
        <ele>761</ele>
        <time>2023-09-09T09:44:20Z</time>
      </trkpt>
      <trkpt lat="42.85721" lon="2.37419">
        <ele>761</ele>
        <time>2023-09-09T09:44:21Z</time>
      </trkpt>
      <trkpt lat="42.8572" lon="2.37419">
        <ele>762</ele>
        <time>2023-09-09T09:44:22Z</time>
      </trkpt>
      <trkpt lat="42.85719" lon="2.3742">
        <ele>762</ele>
        <time>2023-09-09T09:44:23Z</time>
      </trkpt>
      <trkpt lat="42.85718" lon="2.37421">
        <ele>762</ele>
        <time>2023-09-09T09:44:24Z</time>
      </trkpt>
      <trkpt lat="42.85717" lon="2.37421">
        <ele>762</ele>
        <time>2023-09-09T09:44:25Z</time>
      </trkpt>
      <trkpt lat="42.85717" lon="2.37422">
        <ele>762</ele>
        <time>2023-09-09T09:44:26Z</time>
      </trkpt>
      <trkpt lat="42.85717" lon="2.37422">
        <ele>763</ele>
        <time>2023-09-09T09:44:27Z</time>
      </trkpt>
      <trkpt lat="42.85717" lon="2.37424">
        <ele>763</ele>
        <time>2023-09-09T09:44:28Z</time>
      </trkpt>
      <trkpt lat="42.85716" lon="2.37425">
        <ele>763</ele>
        <time>2023-09-09T09:44:29Z</time>
      </trkpt>
      <trkpt lat="42.85716" lon="2.37426">
        <ele>763</ele>
        <time>2023-09-09T09:44:30Z</time>
      </trkpt>
      <trkpt lat="42.85716" lon="2.37428">
        <ele>763</ele>
        <time>2023-09-09T09:44:31Z</time>
      </trkpt>
      <trkpt lat="42.85715" lon="2.37429">
        <ele>764</ele>
        <time>2023-09-09T09:44:32Z</time>
      </trkpt>
      <trkpt lat="42.85715" lon="2.3743">
        <ele>764</ele>
        <time>2023-09-09T09:44:33Z</time>
      </trkpt>
      <trkpt lat="42.85715" lon="2.37432">
        <ele>764</ele>
        <time>2023-09-09T09:44:34Z</time>
      </trkpt>
      <trkpt lat="42.85715" lon="2.37433">
        <ele>764</ele>
        <time>2023-09-09T09:44:35Z</time>
      </trkpt>
      <trkpt lat="42.85715" lon="2.37434">
        <ele>766</ele>
        <time>2023-09-09T09:44:44Z</time>
      </trkpt>
      <trkpt lat="42.85715" lon="2.37435">
        <ele>766</ele>
        <time>2023-09-09T09:44:45Z</time>
      </trkpt>
      <trkpt lat="42.85716" lon="2.37435">
        <ele>766</ele>
        <time>2023-09-09T09:44:46Z</time>
      </trkpt>
      <trkpt lat="42.85716" lon="2.37436">
        <ele>767</ele>
        <time>2023-09-09T09:44:47Z</time>
      </trkpt>
      <trkpt lat="42.85717" lon="2.37437">
        <ele>767</ele>
        <time>2023-09-09T09:44:48Z</time>
      </trkpt>
      <trkpt lat="42.85719" lon="2.37439">
        <ele>771</ele>
        <time>2023-09-09T09:45:06Z</time>
      </trkpt>
      <trkpt lat="42.8573" lon="2.37441">
        <ele>777</ele>
        <time>2023-09-09T09:45:38Z</time>
      </trkpt>
      <trkpt lat="42.85732" lon="2.37442">
        <ele>777</ele>
        <time>2023-09-09T09:45:39Z</time>
      </trkpt>
      <trkpt lat="42.85733" lon="2.37442">
        <ele>777</ele>
        <time>2023-09-09T09:45:40Z</time>
      </trkpt>
      <trkpt lat="42.85733" lon="2.37441">
        <ele>777</ele>
        <time>2023-09-09T09:45:41Z</time>
      </trkpt>
      <trkpt lat="42.85734" lon="2.37442">
        <ele>777</ele>
        <time>2023-09-09T09:45:42Z</time>
      </trkpt>
      <trkpt lat="42.85734" lon="2.37442">
        <ele>777</ele>
        <time>2023-09-09T09:45:43Z</time>
      </trkpt>
      <trkpt lat="42.85735" lon="2.37442">
        <ele>777</ele>
        <time>2023-09-09T09:45:44Z</time>
      </trkpt>
      <trkpt lat="42.85736" lon="2.37441">
        <ele>777</ele>
        <time>2023-09-09T09:45:45Z</time>
      </trkpt>
      <trkpt lat="42.85736" lon="2.37441">
        <ele>777</ele>
        <time>2023-09-09T09:45:46Z</time>
      </trkpt>
      <trkpt lat="42.85737" lon="2.3744">
        <ele>777</ele>
        <time>2023-09-09T09:45:47Z</time>
      </trkpt>
      <trkpt lat="42.85737" lon="2.3744">
        <ele>778</ele>
        <time>2023-09-09T09:45:48Z</time>
      </trkpt>
      <trkpt lat="42.85738" lon="2.3744">
        <ele>778</ele>
        <time>2023-09-09T09:45:49Z</time>
      </trkpt>
      <trkpt lat="42.85738" lon="2.3744">
        <ele>778</ele>
        <time>2023-09-09T09:45:50Z</time>
      </trkpt>
      <trkpt lat="42.85738" lon="2.37439">
        <ele>778</ele>
        <time>2023-09-09T09:45:51Z</time>
      </trkpt>
      <trkpt lat="42.85739" lon="2.37439">
        <ele>778</ele>
        <time>2023-09-09T09:45:52Z</time>
      </trkpt>
      <trkpt lat="42.85739" lon="2.37439">
        <ele>779</ele>
        <time>2023-09-09T09:45:53Z</time>
      </trkpt>
      <trkpt lat="42.8574" lon="2.37439">
        <ele>779</ele>
        <time>2023-09-09T09:45:54Z</time>
      </trkpt>
      <trkpt lat="42.8574" lon="2.37439">
        <ele>779</ele>
        <time>2023-09-09T09:45:55Z</time>
      </trkpt>
      <trkpt lat="42.85741" lon="2.3744">
        <ele>780</ele>
        <time>2023-09-09T09:45:56Z</time>
      </trkpt>
      <trkpt lat="42.85741" lon="2.3744">
        <ele>780</ele>
        <time>2023-09-09T09:45:57Z</time>
      </trkpt>
      <trkpt lat="42.85741" lon="2.3744">
        <ele>781</ele>
        <time>2023-09-09T09:45:58Z</time>
      </trkpt>
      <trkpt lat="42.85742" lon="2.3744">
        <ele>781</ele>
        <time>2023-09-09T09:45:59Z</time>
      </trkpt>
      <trkpt lat="42.85742" lon="2.3744">
        <ele>781</ele>
        <time>2023-09-09T09:46:00Z</time>
      </trkpt>
      <trkpt lat="42.85743" lon="2.3744">
        <ele>781</ele>
        <time>2023-09-09T09:46:01Z</time>
      </trkpt>
      <trkpt lat="42.85744" lon="2.37441">
        <ele>781</ele>
        <time>2023-09-09T09:46:02Z</time>
      </trkpt>
      <trkpt lat="42.85744" lon="2.37441">
        <ele>782</ele>
        <time>2023-09-09T09:46:03Z</time>
      </trkpt>
      <trkpt lat="42.85746" lon="2.37441">
        <ele>785</ele>
        <time>2023-09-09T09:46:14Z</time>
      </trkpt>
      <trkpt lat="42.85747" lon="2.37441">
        <ele>785</ele>
        <time>2023-09-09T09:46:15Z</time>
      </trkpt>
      <trkpt lat="42.85749" lon="2.37441">
        <ele>785</ele>
        <time>2023-09-09T09:46:16Z</time>
      </trkpt>
      <trkpt lat="42.8575" lon="2.37442">
        <ele>785</ele>
        <time>2023-09-09T09:46:17Z</time>
      </trkpt>
      <trkpt lat="42.8575" lon="2.37442">
        <ele>786</ele>
        <time>2023-09-09T09:46:18Z</time>
      </trkpt>
      <trkpt lat="42.85751" lon="2.37443">
        <ele>786</ele>
        <time>2023-09-09T09:46:19Z</time>
      </trkpt>
      <trkpt lat="42.85752" lon="2.37443">
        <ele>786</ele>
        <time>2023-09-09T09:46:20Z</time>
      </trkpt>
      <trkpt lat="42.85754" lon="2.37443">
        <ele>788</ele>
        <time>2023-09-09T09:46:32Z</time>
      </trkpt>
      <trkpt lat="42.85755" lon="2.37443">
        <ele>789</ele>
        <time>2023-09-09T09:46:33Z</time>
      </trkpt>
      <trkpt lat="42.85756" lon="2.37442">
        <ele>789</ele>
        <time>2023-09-09T09:46:34Z</time>
      </trkpt>
      <trkpt lat="42.85756" lon="2.37442">
        <ele>789</ele>
        <time>2023-09-09T09:46:35Z</time>
      </trkpt>
      <trkpt lat="42.85757" lon="2.37442">
        <ele>789</ele>
        <time>2023-09-09T09:46:36Z</time>
      </trkpt>
      <trkpt lat="42.85757" lon="2.37442">
        <ele>789</ele>
        <time>2023-09-09T09:46:37Z</time>
      </trkpt>
      <trkpt lat="42.85758" lon="2.37441">
        <ele>790</ele>
        <time>2023-09-09T09:46:38Z</time>
      </trkpt>
      <trkpt lat="42.85759" lon="2.37441">
        <ele>790</ele>
        <time>2023-09-09T09:46:39Z</time>
      </trkpt>
      <trkpt lat="42.8576" lon="2.37442">
        <ele>790</ele>
        <time>2023-09-09T09:46:40Z</time>
      </trkpt>
      <trkpt lat="42.8576" lon="2.37442">
        <ele>790</ele>
        <time>2023-09-09T09:46:41Z</time>
      </trkpt>
      <trkpt lat="42.85761" lon="2.37443">
        <ele>790</ele>
        <time>2023-09-09T09:46:42Z</time>
      </trkpt>
      <trkpt lat="42.85762" lon="2.37444">
        <ele>791</ele>
        <time>2023-09-09T09:46:43Z</time>
      </trkpt>
      <trkpt lat="42.85763" lon="2.37445">
        <ele>791</ele>
        <time>2023-09-09T09:46:44Z</time>
      </trkpt>
      <trkpt lat="42.85763" lon="2.37446">
        <ele>792</ele>
        <time>2023-09-09T09:46:45Z</time>
      </trkpt>
      <trkpt lat="42.85764" lon="2.37446">
        <ele>792</ele>
        <time>2023-09-09T09:46:46Z</time>
      </trkpt>
      <trkpt lat="42.85765" lon="2.37446">
        <ele>793</ele>
        <time>2023-09-09T09:46:47Z</time>
      </trkpt>
      <trkpt lat="42.85766" lon="2.37446">
        <ele>794</ele>
        <time>2023-09-09T09:46:48Z</time>
      </trkpt>
      <trkpt lat="42.85767" lon="2.37446">
        <ele>794</ele>
        <time>2023-09-09T09:46:49Z</time>
      </trkpt>
      <trkpt lat="42.85768" lon="2.37446">
        <ele>794</ele>
        <time>2023-09-09T09:46:50Z</time>
      </trkpt>
      <trkpt lat="42.85768" lon="2.37446">
        <ele>794</ele>
        <time>2023-09-09T09:46:51Z</time>
      </trkpt>
      <trkpt lat="42.85769" lon="2.37447">
        <ele>794</ele>
        <time>2023-09-09T09:46:52Z</time>
      </trkpt>
      <trkpt lat="42.8577" lon="2.37447">
        <ele>794</ele>
        <time>2023-09-09T09:46:53Z</time>
      </trkpt>
      <trkpt lat="42.85771" lon="2.37447">
        <ele>794</ele>
        <time>2023-09-09T09:46:54Z</time>
      </trkpt>
      <trkpt lat="42.85771" lon="2.37448">
        <ele>794</ele>
        <time>2023-09-09T09:46:55Z</time>
      </trkpt>
      <trkpt lat="42.85772" lon="2.37448">
        <ele>795</ele>
        <time>2023-09-09T09:46:56Z</time>
      </trkpt>
      <trkpt lat="42.85772" lon="2.37448">
        <ele>795</ele>
        <time>2023-09-09T09:46:57Z</time>
      </trkpt>
      <trkpt lat="42.85772" lon="2.37448">
        <ele>796</ele>
        <time>2023-09-09T09:46:58Z</time>
      </trkpt>
      <trkpt lat="42.85773" lon="2.37449">
        <ele>796</ele>
        <time>2023-09-09T09:46:59Z</time>
      </trkpt>
      <trkpt lat="42.85774" lon="2.37449">
        <ele>796</ele>
        <time>2023-09-09T09:47:00Z</time>
      </trkpt>
      <trkpt lat="42.85774" lon="2.3745">
        <ele>796</ele>
        <time>2023-09-09T09:47:01Z</time>
      </trkpt>
      <trkpt lat="42.85775" lon="2.37451">
        <ele>796</ele>
        <time>2023-09-09T09:47:02Z</time>
      </trkpt>
      <trkpt lat="42.85776" lon="2.37452">
        <ele>797</ele>
        <time>2023-09-09T09:47:03Z</time>
      </trkpt>
      <trkpt lat="42.85776" lon="2.37452">
        <ele>797</ele>
        <time>2023-09-09T09:47:04Z</time>
      </trkpt>
      <trkpt lat="42.85777" lon="2.37453">
        <ele>797</ele>
        <time>2023-09-09T09:47:05Z</time>
      </trkpt>
      <trkpt lat="42.85778" lon="2.37454">
        <ele>797</ele>
        <time>2023-09-09T09:47:06Z</time>
      </trkpt>
      <trkpt lat="42.85779" lon="2.37454">
        <ele>797</ele>
        <time>2023-09-09T09:47:07Z</time>
      </trkpt>
      <trkpt lat="42.85781" lon="2.37455">
        <ele>798</ele>
        <time>2023-09-09T09:47:08Z</time>
      </trkpt>
      <trkpt lat="42.85781" lon="2.37456">
        <ele>798</ele>
        <time>2023-09-09T09:47:09Z</time>
      </trkpt>
      <trkpt lat="42.85782" lon="2.37456">
        <ele>798</ele>
        <time>2023-09-09T09:47:10Z</time>
      </trkpt>
      <trkpt lat="42.85784" lon="2.37457">
        <ele>798</ele>
        <time>2023-09-09T09:47:11Z</time>
      </trkpt>
      <trkpt lat="42.85785" lon="2.37457">
        <ele>798</ele>
        <time>2023-09-09T09:47:12Z</time>
      </trkpt>
      <trkpt lat="42.85786" lon="2.37458">
        <ele>799</ele>
        <time>2023-09-09T09:47:13Z</time>
      </trkpt>
      <trkpt lat="42.85787" lon="2.37458">
        <ele>799</ele>
        <time>2023-09-09T09:47:14Z</time>
      </trkpt>
      <trkpt lat="42.85788" lon="2.37458">
        <ele>799</ele>
        <time>2023-09-09T09:47:15Z</time>
      </trkpt>
      <trkpt lat="42.85789" lon="2.37459">
        <ele>799</ele>
        <time>2023-09-09T09:47:16Z</time>
      </trkpt>
      <trkpt lat="42.8579" lon="2.37459">
        <ele>799</ele>
        <time>2023-09-09T09:47:17Z</time>
      </trkpt>
      <trkpt lat="42.85791" lon="2.37459">
        <ele>800</ele>
        <time>2023-09-09T09:47:18Z</time>
      </trkpt>
      <trkpt lat="42.85791" lon="2.37459">
        <ele>800</ele>
        <time>2023-09-09T09:47:19Z</time>
      </trkpt>
      <trkpt lat="42.85792" lon="2.37459">
        <ele>800</ele>
        <time>2023-09-09T09:47:20Z</time>
      </trkpt>
      <trkpt lat="42.85793" lon="2.37459">
        <ele>800</ele>
        <time>2023-09-09T09:47:21Z</time>
      </trkpt>
      <trkpt lat="42.85793" lon="2.37459">
        <ele>800</ele>
        <time>2023-09-09T09:47:22Z</time>
      </trkpt>
      <trkpt lat="42.85794" lon="2.37459">
        <ele>800</ele>
        <time>2023-09-09T09:47:23Z</time>
      </trkpt>
      <trkpt lat="42.85794" lon="2.37458">
        <ele>800</ele>
        <time>2023-09-09T09:47:24Z</time>
      </trkpt>
      <trkpt lat="42.85795" lon="2.37458">
        <ele>800</ele>
        <time>2023-09-09T09:47:25Z</time>
      </trkpt>
      <trkpt lat="42.85796" lon="2.37458">
        <ele>801</ele>
        <time>2023-09-09T09:47:26Z</time>
      </trkpt>
      <trkpt lat="42.85796" lon="2.37459">
        <ele>801</ele>
        <time>2023-09-09T09:47:27Z</time>
      </trkpt>
      <trkpt lat="42.85797" lon="2.3746">
        <ele>802</ele>
        <time>2023-09-09T09:47:28Z</time>
      </trkpt>
      <trkpt lat="42.85797" lon="2.3746">
        <ele>802</ele>
        <time>2023-09-09T09:47:29Z</time>
      </trkpt>
      <trkpt lat="42.85797" lon="2.37461">
        <ele>802</ele>
        <time>2023-09-09T09:47:30Z</time>
      </trkpt>
      <trkpt lat="42.85797" lon="2.37462">
        <ele>802</ele>
        <time>2023-09-09T09:47:31Z</time>
      </trkpt>
      <trkpt lat="42.85797" lon="2.37462">
        <ele>802</ele>
        <time>2023-09-09T09:47:32Z</time>
      </trkpt>
      <trkpt lat="42.85797" lon="2.37463">
        <ele>802</ele>
        <time>2023-09-09T09:47:33Z</time>
      </trkpt>
      <trkpt lat="42.85796" lon="2.37463">
        <ele>802</ele>
        <time>2023-09-09T09:47:34Z</time>
      </trkpt>
      <trkpt lat="42.85795" lon="2.37463">
        <ele>802</ele>
        <time>2023-09-09T09:47:35Z</time>
      </trkpt>
      <trkpt lat="42.85794" lon="2.37464">
        <ele>802</ele>
        <time>2023-09-09T09:47:36Z</time>
      </trkpt>
      <trkpt lat="42.85794" lon="2.37464">
        <ele>802</ele>
        <time>2023-09-09T09:47:37Z</time>
      </trkpt>
      <trkpt lat="42.85793" lon="2.37464">
        <ele>803</ele>
        <time>2023-09-09T09:47:38Z</time>
      </trkpt>
      <trkpt lat="42.85792" lon="2.37464">
        <ele>803</ele>
        <time>2023-09-09T09:47:39Z</time>
      </trkpt>
      <trkpt lat="42.85792" lon="2.37464">
        <ele>803</ele>
        <time>2023-09-09T09:47:40Z</time>
      </trkpt>
      <trkpt lat="42.85791" lon="2.37464">
        <ele>803</ele>
        <time>2023-09-09T09:47:41Z</time>
      </trkpt>
      <trkpt lat="42.8579" lon="2.37464">
        <ele>803</ele>
        <time>2023-09-09T09:47:42Z</time>
      </trkpt>
      <trkpt lat="42.85789" lon="2.37464">
        <ele>804</ele>
        <time>2023-09-09T09:47:43Z</time>
      </trkpt>
      <trkpt lat="42.85788" lon="2.37465">
        <ele>804</ele>
        <time>2023-09-09T09:47:44Z</time>
      </trkpt>
      <trkpt lat="42.85787" lon="2.37465">
        <ele>804</ele>
        <time>2023-09-09T09:47:45Z</time>
      </trkpt>
      <trkpt lat="42.85786" lon="2.37465">
        <ele>804</ele>
        <time>2023-09-09T09:47:46Z</time>
      </trkpt>
      <trkpt lat="42.85785" lon="2.37465">
        <ele>804</ele>
        <time>2023-09-09T09:47:47Z</time>
      </trkpt>
      <trkpt lat="42.85784" lon="2.37466">
        <ele>804</ele>
        <time>2023-09-09T09:47:48Z</time>
      </trkpt>
      <trkpt lat="42.85782" lon="2.37466">
        <ele>804</ele>
        <time>2023-09-09T09:47:49Z</time>
      </trkpt>
      <trkpt lat="42.85781" lon="2.37467">
        <ele>804</ele>
        <time>2023-09-09T09:47:50Z</time>
      </trkpt>
      <trkpt lat="42.85779" lon="2.37467">
        <ele>804</ele>
        <time>2023-09-09T09:47:51Z</time>
      </trkpt>
      <trkpt lat="42.85778" lon="2.37468">
        <ele>804</ele>
        <time>2023-09-09T09:47:52Z</time>
      </trkpt>
      <trkpt lat="42.85777" lon="2.37469">
        <ele>805</ele>
        <time>2023-09-09T09:47:53Z</time>
      </trkpt>
      <trkpt lat="42.85776" lon="2.3747">
        <ele>805</ele>
        <time>2023-09-09T09:47:54Z</time>
      </trkpt>
      <trkpt lat="42.85775" lon="2.3747">
        <ele>805</ele>
        <time>2023-09-09T09:47:55Z</time>
      </trkpt>
      <trkpt lat="42.85774" lon="2.37471">
        <ele>805</ele>
        <time>2023-09-09T09:47:56Z</time>
      </trkpt>
      <trkpt lat="42.85774" lon="2.37472">
        <ele>805</ele>
        <time>2023-09-09T09:47:57Z</time>
      </trkpt>
      <trkpt lat="42.85774" lon="2.37472">
        <ele>805</ele>
        <time>2023-09-09T09:47:58Z</time>
      </trkpt>
      <trkpt lat="42.85774" lon="2.37474">
        <ele>805</ele>
        <time>2023-09-09T09:47:59Z</time>
      </trkpt>
      <trkpt lat="42.85774" lon="2.37475">
        <ele>805</ele>
        <time>2023-09-09T09:48:00Z</time>
      </trkpt>
      <trkpt lat="42.85774" lon="2.37477">
        <ele>805</ele>
        <time>2023-09-09T09:48:01Z</time>
      </trkpt>
      <trkpt lat="42.85773" lon="2.37478">
        <ele>805</ele>
        <time>2023-09-09T09:48:02Z</time>
      </trkpt>
      <trkpt lat="42.85773" lon="2.37479">
        <ele>805</ele>
        <time>2023-09-09T09:48:03Z</time>
      </trkpt>
      <trkpt lat="42.85773" lon="2.37479">
        <ele>805</ele>
        <time>2023-09-09T09:48:04Z</time>
      </trkpt>
      <trkpt lat="42.85773" lon="2.3748">
        <ele>805</ele>
        <time>2023-09-09T09:48:05Z</time>
      </trkpt>
      <trkpt lat="42.85773" lon="2.3748">
        <ele>805</ele>
        <time>2023-09-09T09:48:06Z</time>
      </trkpt>
      <trkpt lat="42.85773" lon="2.37481">
        <ele>805</ele>
        <time>2023-09-09T09:48:07Z</time>
      </trkpt>
      <trkpt lat="42.85773" lon="2.37482">
        <ele>806</ele>
        <time>2023-09-09T09:48:08Z</time>
      </trkpt>
      <trkpt lat="42.85773" lon="2.37483">
        <ele>806</ele>
        <time>2023-09-09T09:48:09Z</time>
      </trkpt>
      <trkpt lat="42.85773" lon="2.37484">
        <ele>806</ele>
        <time>2023-09-09T09:48:10Z</time>
      </trkpt>
      <trkpt lat="42.85774" lon="2.37485">
        <ele>806</ele>
        <time>2023-09-09T09:48:11Z</time>
      </trkpt>
      <trkpt lat="42.85774" lon="2.37485">
        <ele>806</ele>
        <time>2023-09-09T09:48:12Z</time>
      </trkpt>
      <trkpt lat="42.85774" lon="2.37486">
        <ele>807</ele>
        <time>2023-09-09T09:48:13Z</time>
      </trkpt>
      <trkpt lat="42.85775" lon="2.37487">
        <ele>807</ele>
        <time>2023-09-09T09:48:14Z</time>
      </trkpt>
      <trkpt lat="42.85776" lon="2.37488">
        <ele>807</ele>
        <time>2023-09-09T09:48:15Z</time>
      </trkpt>
      <trkpt lat="42.85776" lon="2.37489">
        <ele>807</ele>
        <time>2023-09-09T09:48:16Z</time>
      </trkpt>
      <trkpt lat="42.85777" lon="2.3749">
        <ele>807</ele>
        <time>2023-09-09T09:48:17Z</time>
      </trkpt>
      <trkpt lat="42.85778" lon="2.3749">
        <ele>807</ele>
        <time>2023-09-09T09:48:18Z</time>
      </trkpt>
      <trkpt lat="42.85778" lon="2.37491">
        <ele>807</ele>
        <time>2023-09-09T09:48:19Z</time>
      </trkpt>
      <trkpt lat="42.85779" lon="2.37492">
        <ele>807</ele>
        <time>2023-09-09T09:48:20Z</time>
      </trkpt>
      <trkpt lat="42.8578" lon="2.37493">
        <ele>807</ele>
        <time>2023-09-09T09:48:21Z</time>
      </trkpt>
      <trkpt lat="42.85781" lon="2.37494">
        <ele>807</ele>
        <time>2023-09-09T09:48:22Z</time>
      </trkpt>
      <trkpt lat="42.85782" lon="2.37495">
        <ele>808</ele>
        <time>2023-09-09T09:48:23Z</time>
      </trkpt>
      <trkpt lat="42.85782" lon="2.37496">
        <ele>808</ele>
        <time>2023-09-09T09:48:24Z</time>
      </trkpt>
      <trkpt lat="42.85783" lon="2.37497">
        <ele>808</ele>
        <time>2023-09-09T09:48:25Z</time>
      </trkpt>
      <trkpt lat="42.85784" lon="2.37498">
        <ele>809</ele>
        <time>2023-09-09T09:48:26Z</time>
      </trkpt>
      <trkpt lat="42.85784" lon="2.37498">
        <ele>809</ele>
        <time>2023-09-09T09:48:27Z</time>
      </trkpt>
      <trkpt lat="42.85785" lon="2.37499">
        <ele>810</ele>
        <time>2023-09-09T09:48:28Z</time>
      </trkpt>
      <trkpt lat="42.85786" lon="2.37499">
        <ele>810</ele>
        <time>2023-09-09T09:48:29Z</time>
      </trkpt>
      <trkpt lat="42.85787" lon="2.37499">
        <ele>810</ele>
        <time>2023-09-09T09:48:30Z</time>
      </trkpt>
      <trkpt lat="42.85788" lon="2.375">
        <ele>810</ele>
        <time>2023-09-09T09:48:31Z</time>
      </trkpt>
      <trkpt lat="42.85789" lon="2.37501">
        <ele>810</ele>
        <time>2023-09-09T09:48:32Z</time>
      </trkpt>
      <trkpt lat="42.8579" lon="2.37501">
        <ele>811</ele>
        <time>2023-09-09T09:48:33Z</time>
      </trkpt>
      <trkpt lat="42.85791" lon="2.37502">
        <ele>811</ele>
        <time>2023-09-09T09:48:34Z</time>
      </trkpt>
      <trkpt lat="42.85792" lon="2.37502">
        <ele>811</ele>
        <time>2023-09-09T09:48:35Z</time>
      </trkpt>
      <trkpt lat="42.85793" lon="2.37503">
        <ele>811</ele>
        <time>2023-09-09T09:48:36Z</time>
      </trkpt>
      <trkpt lat="42.85794" lon="2.37504">
        <ele>811</ele>
        <time>2023-09-09T09:48:37Z</time>
      </trkpt>
      <trkpt lat="42.85794" lon="2.37504">
        <ele>812</ele>
        <time>2023-09-09T09:48:38Z</time>
      </trkpt>
      <trkpt lat="42.85795" lon="2.37505">
        <ele>812</ele>
        <time>2023-09-09T09:48:39Z</time>
      </trkpt>
      <trkpt lat="42.85796" lon="2.37505">
        <ele>812</ele>
        <time>2023-09-09T09:48:40Z</time>
      </trkpt>
      <trkpt lat="42.85796" lon="2.37505">
        <ele>813</ele>
        <time>2023-09-09T09:48:41Z</time>
      </trkpt>
      <trkpt lat="42.85797" lon="2.37506">
        <ele>813</ele>
        <time>2023-09-09T09:48:42Z</time>
      </trkpt>
      <trkpt lat="42.85797" lon="2.37506">
        <ele>814</ele>
        <time>2023-09-09T09:48:43Z</time>
      </trkpt>
      <trkpt lat="42.85798" lon="2.37507">
        <ele>814</ele>
        <time>2023-09-09T09:48:44Z</time>
      </trkpt>
      <trkpt lat="42.85798" lon="2.37507">
        <ele>814</ele>
        <time>2023-09-09T09:48:45Z</time>
      </trkpt>
      <trkpt lat="42.85799" lon="2.37508">
        <ele>814</ele>
        <time>2023-09-09T09:48:46Z</time>
      </trkpt>
      <trkpt lat="42.85799" lon="2.37508">
        <ele>814</ele>
        <time>2023-09-09T09:48:47Z</time>
      </trkpt>
      <trkpt lat="42.858" lon="2.37509">
        <ele>814</ele>
        <time>2023-09-09T09:48:48Z</time>
      </trkpt>
      <trkpt lat="42.858" lon="2.37509">
        <ele>814</ele>
        <time>2023-09-09T09:48:49Z</time>
      </trkpt>
      <trkpt lat="42.858" lon="2.3751">
        <ele>814</ele>
        <time>2023-09-09T09:48:50Z</time>
      </trkpt>
      <trkpt lat="42.85801" lon="2.37511">
        <ele>814</ele>
        <time>2023-09-09T09:48:51Z</time>
      </trkpt>
      <trkpt lat="42.85802" lon="2.37512">
        <ele>814</ele>
        <time>2023-09-09T09:48:52Z</time>
      </trkpt>
      <trkpt lat="42.85802" lon="2.37513">
        <ele>815</ele>
        <time>2023-09-09T09:48:53Z</time>
      </trkpt>
      <trkpt lat="42.85803" lon="2.37514">
        <ele>815</ele>
        <time>2023-09-09T09:48:54Z</time>
      </trkpt>
      <trkpt lat="42.85804" lon="2.37515">
        <ele>815</ele>
        <time>2023-09-09T09:48:55Z</time>
      </trkpt>
      <trkpt lat="42.85804" lon="2.37516">
        <ele>815</ele>
        <time>2023-09-09T09:48:56Z</time>
      </trkpt>
      <trkpt lat="42.85805" lon="2.37517">
        <ele>815</ele>
        <time>2023-09-09T09:48:57Z</time>
      </trkpt>
      <trkpt lat="42.85806" lon="2.37519">
        <ele>816</ele>
        <time>2023-09-09T09:48:58Z</time>
      </trkpt>
      <trkpt lat="42.85807" lon="2.3752">
        <ele>816</ele>
        <time>2023-09-09T09:48:59Z</time>
      </trkpt>
      <trkpt lat="42.85807" lon="2.37521">
        <ele>816</ele>
        <time>2023-09-09T09:49:00Z</time>
      </trkpt>
      <trkpt lat="42.85808" lon="2.37522">
        <ele>816</ele>
        <time>2023-09-09T09:49:01Z</time>
      </trkpt>
      <trkpt lat="42.85808" lon="2.37523">
        <ele>816</ele>
        <time>2023-09-09T09:49:02Z</time>
      </trkpt>
      <trkpt lat="42.85809" lon="2.37525">
        <ele>817</ele>
        <time>2023-09-09T09:49:03Z</time>
      </trkpt>
      <trkpt lat="42.85809" lon="2.37526">
        <ele>817</ele>
        <time>2023-09-09T09:49:04Z</time>
      </trkpt>
      <trkpt lat="42.8581" lon="2.37528">
        <ele>817</ele>
        <time>2023-09-09T09:49:05Z</time>
      </trkpt>
      <trkpt lat="42.8581" lon="2.37529">
        <ele>817</ele>
        <time>2023-09-09T09:49:06Z</time>
      </trkpt>
      <trkpt lat="42.85811" lon="2.3753">
        <ele>817</ele>
        <time>2023-09-09T09:49:07Z</time>
      </trkpt>
      <trkpt lat="42.85811" lon="2.37532">
        <ele>818</ele>
        <time>2023-09-09T09:49:08Z</time>
      </trkpt>
      <trkpt lat="42.85811" lon="2.37532">
        <ele>818</ele>
        <time>2023-09-09T09:49:09Z</time>
      </trkpt>
      <trkpt lat="42.85811" lon="2.37533">
        <ele>818</ele>
        <time>2023-09-09T09:49:10Z</time>
      </trkpt>
      <trkpt lat="42.85812" lon="2.37534">
        <ele>818</ele>
        <time>2023-09-09T09:49:11Z</time>
      </trkpt>
      <trkpt lat="42.85812" lon="2.37535">
        <ele>818</ele>
        <time>2023-09-09T09:49:12Z</time>
      </trkpt>
      <trkpt lat="42.85812" lon="2.37536">
        <ele>819</ele>
        <time>2023-09-09T09:49:13Z</time>
      </trkpt>
      <trkpt lat="42.85812" lon="2.37536">
        <ele>819</ele>
        <time>2023-09-09T09:49:14Z</time>
      </trkpt>
      <trkpt lat="42.85812" lon="2.37537">
        <ele>819</ele>
        <time>2023-09-09T09:49:15Z</time>
      </trkpt>
      <trkpt lat="42.85813" lon="2.37538">
        <ele>819</ele>
        <time>2023-09-09T09:49:16Z</time>
      </trkpt>
      <trkpt lat="42.85814" lon="2.37539">
        <ele>819</ele>
        <time>2023-09-09T09:49:17Z</time>
      </trkpt>
      <trkpt lat="42.85814" lon="2.37539">
        <ele>820</ele>
        <time>2023-09-09T09:49:18Z</time>
      </trkpt>
      <trkpt lat="42.85815" lon="2.3754">
        <ele>820</ele>
        <time>2023-09-09T09:49:19Z</time>
      </trkpt>
      <trkpt lat="42.85816" lon="2.37541">
        <ele>820</ele>
        <time>2023-09-09T09:49:20Z</time>
      </trkpt>
      <trkpt lat="42.85816" lon="2.37542">
        <ele>820</ele>
        <time>2023-09-09T09:49:21Z</time>
      </trkpt>
      <trkpt lat="42.85817" lon="2.37542">
        <ele>820</ele>
        <time>2023-09-09T09:49:22Z</time>
      </trkpt>
      <trkpt lat="42.85818" lon="2.37543">
        <ele>821</ele>
        <time>2023-09-09T09:49:23Z</time>
      </trkpt>
      <trkpt lat="42.85819" lon="2.37543">
        <ele>821</ele>
        <time>2023-09-09T09:49:24Z</time>
      </trkpt>
      <trkpt lat="42.85819" lon="2.37544">
        <ele>821</ele>
        <time>2023-09-09T09:49:25Z</time>
      </trkpt>
      <trkpt lat="42.8582" lon="2.37544">
        <ele>821</ele>
        <time>2023-09-09T09:49:26Z</time>
      </trkpt>
      <trkpt lat="42.85821" lon="2.37544">
        <ele>821</ele>
        <time>2023-09-09T09:49:27Z</time>
      </trkpt>
      <trkpt lat="42.85822" lon="2.37544">
        <ele>822</ele>
        <time>2023-09-09T09:49:28Z</time>
      </trkpt>
      <trkpt lat="42.85823" lon="2.37545">
        <ele>822</ele>
        <time>2023-09-09T09:49:29Z</time>
      </trkpt>
      <trkpt lat="42.85824" lon="2.37545">
        <ele>822</ele>
        <time>2023-09-09T09:49:30Z</time>
      </trkpt>
      <trkpt lat="42.85825" lon="2.37545">
        <ele>822</ele>
        <time>2023-09-09T09:49:31Z</time>
      </trkpt>
      <trkpt lat="42.85826" lon="2.37546">
        <ele>822</ele>
        <time>2023-09-09T09:49:32Z</time>
      </trkpt>
      <trkpt lat="42.85827" lon="2.37546">
        <ele>823</ele>
        <time>2023-09-09T09:49:33Z</time>
      </trkpt>
      <trkpt lat="42.85827" lon="2.37546">
        <ele>823</ele>
        <time>2023-09-09T09:49:34Z</time>
      </trkpt>
      <trkpt lat="42.85828" lon="2.37546">
        <ele>823</ele>
        <time>2023-09-09T09:49:35Z</time>
      </trkpt>
      <trkpt lat="42.85829" lon="2.37547">
        <ele>823</ele>
        <time>2023-09-09T09:49:36Z</time>
      </trkpt>
      <trkpt lat="42.8583" lon="2.37547">
        <ele>823</ele>
        <time>2023-09-09T09:49:37Z</time>
      </trkpt>
      <trkpt lat="42.85831" lon="2.37547">
        <ele>824</ele>
        <time>2023-09-09T09:49:38Z</time>
      </trkpt>
      <trkpt lat="42.85832" lon="2.37547">
        <ele>824</ele>
        <time>2023-09-09T09:49:39Z</time>
      </trkpt>
      <trkpt lat="42.85833" lon="2.37547">
        <ele>824</ele>
        <time>2023-09-09T09:49:40Z</time>
      </trkpt>
      <trkpt lat="42.85833" lon="2.37547">
        <ele>824</ele>
        <time>2023-09-09T09:49:41Z</time>
      </trkpt>
      <trkpt lat="42.85834" lon="2.37547">
        <ele>824</ele>
        <time>2023-09-09T09:49:42Z</time>
      </trkpt>
      <trkpt lat="42.85835" lon="2.37547">
        <ele>825</ele>
        <time>2023-09-09T09:49:43Z</time>
      </trkpt>
      <trkpt lat="42.85835" lon="2.37547">
        <ele>825</ele>
        <time>2023-09-09T09:49:44Z</time>
      </trkpt>
      <trkpt lat="42.85836" lon="2.37547">
        <ele>825</ele>
        <time>2023-09-09T09:49:45Z</time>
      </trkpt>
      <trkpt lat="42.85837" lon="2.37547">
        <ele>825</ele>
        <time>2023-09-09T09:49:46Z</time>
      </trkpt>
      <trkpt lat="42.85837" lon="2.37547">
        <ele>825</ele>
        <time>2023-09-09T09:49:47Z</time>
      </trkpt>
      <trkpt lat="42.85838" lon="2.37547">
        <ele>826</ele>
        <time>2023-09-09T09:49:48Z</time>
      </trkpt>
      <trkpt lat="42.85838" lon="2.37548">
        <ele>826</ele>
        <time>2023-09-09T09:49:49Z</time>
      </trkpt>
      <trkpt lat="42.85839" lon="2.37549">
        <ele>826</ele>
        <time>2023-09-09T09:49:50Z</time>
      </trkpt>
      <trkpt lat="42.8584" lon="2.3755">
        <ele>827</ele>
        <time>2023-09-09T09:49:51Z</time>
      </trkpt>
      <trkpt lat="42.8584" lon="2.37551">
        <ele>827</ele>
        <time>2023-09-09T09:49:52Z</time>
      </trkpt>
      <trkpt lat="42.85841" lon="2.37552">
        <ele>828</ele>
        <time>2023-09-09T09:49:53Z</time>
      </trkpt>
      <trkpt lat="42.85841" lon="2.37553">
        <ele>828</ele>
        <time>2023-09-09T09:49:54Z</time>
      </trkpt>
      <trkpt lat="42.85841" lon="2.37554">
        <ele>828</ele>
        <time>2023-09-09T09:49:55Z</time>
      </trkpt>
      <trkpt lat="42.85842" lon="2.37554">
        <ele>828</ele>
        <time>2023-09-09T09:49:56Z</time>
      </trkpt>
      <trkpt lat="42.85842" lon="2.37555">
        <ele>828</ele>
        <time>2023-09-09T09:49:57Z</time>
      </trkpt>
      <trkpt lat="42.85842" lon="2.37556">
        <ele>829</ele>
        <time>2023-09-09T09:49:58Z</time>
      </trkpt>
      <trkpt lat="42.85842" lon="2.37556">
        <ele>829</ele>
        <time>2023-09-09T09:49:59Z</time>
      </trkpt>
      <trkpt lat="42.85843" lon="2.37557">
        <ele>829</ele>
        <time>2023-09-09T09:50:00Z</time>
      </trkpt>
      <trkpt lat="42.85843" lon="2.37557">
        <ele>829</ele>
        <time>2023-09-09T09:50:01Z</time>
      </trkpt>
      <trkpt lat="42.85845" lon="2.37559">
        <ele>830</ele>
        <time>2023-09-09T09:50:08Z</time>
      </trkpt>
      <trkpt lat="42.85846" lon="2.3756">
        <ele>830</ele>
        <time>2023-09-09T09:50:09Z</time>
      </trkpt>
      <trkpt lat="42.85846" lon="2.3756">
        <ele>830</ele>
        <time>2023-09-09T09:50:10Z</time>
      </trkpt>
      <trkpt lat="42.85847" lon="2.37561">
        <ele>830</ele>
        <time>2023-09-09T09:50:11Z</time>
      </trkpt>
      <trkpt lat="42.85848" lon="2.37561">
        <ele>830</ele>
        <time>2023-09-09T09:50:12Z</time>
      </trkpt>
      <trkpt lat="42.85849" lon="2.37562">
        <ele>831</ele>
        <time>2023-09-09T09:50:13Z</time>
      </trkpt>
      <trkpt lat="42.8585" lon="2.37562">
        <ele>831</ele>
        <time>2023-09-09T09:50:14Z</time>
      </trkpt>
      <trkpt lat="42.85851" lon="2.37564">
        <ele>832</ele>
        <time>2023-09-09T09:50:21Z</time>
      </trkpt>
      <trkpt lat="42.85852" lon="2.37564">
        <ele>832</ele>
        <time>2023-09-09T09:50:22Z</time>
      </trkpt>
      <trkpt lat="42.85853" lon="2.37565">
        <ele>833</ele>
        <time>2023-09-09T09:50:23Z</time>
      </trkpt>
      <trkpt lat="42.85854" lon="2.37565">
        <ele>833</ele>
        <time>2023-09-09T09:50:24Z</time>
      </trkpt>
      <trkpt lat="42.85855" lon="2.37566">
        <ele>833</ele>
        <time>2023-09-09T09:50:25Z</time>
      </trkpt>
      <trkpt lat="42.85855" lon="2.37566">
        <ele>833</ele>
        <time>2023-09-09T09:50:26Z</time>
      </trkpt>
      <trkpt lat="42.85856" lon="2.37567">
        <ele>833</ele>
        <time>2023-09-09T09:50:27Z</time>
      </trkpt>
      <trkpt lat="42.85856" lon="2.37567">
        <ele>834</ele>
        <time>2023-09-09T09:50:28Z</time>
      </trkpt>
      <trkpt lat="42.85856" lon="2.37567">
        <ele>834</ele>
        <time>2023-09-09T09:50:29Z</time>
      </trkpt>
      <trkpt lat="42.85857" lon="2.37567">
        <ele>834</ele>
        <time>2023-09-09T09:50:30Z</time>
      </trkpt>
      <trkpt lat="42.85857" lon="2.37567">
        <ele>834</ele>
        <time>2023-09-09T09:50:31Z</time>
      </trkpt>
      <trkpt lat="42.85857" lon="2.37567">
        <ele>834</ele>
        <time>2023-09-09T09:50:32Z</time>
      </trkpt>
      <trkpt lat="42.85858" lon="2.37568">
        <ele>835</ele>
        <time>2023-09-09T09:50:33Z</time>
      </trkpt>
      <trkpt lat="42.85859" lon="2.37568">
        <ele>835</ele>
        <time>2023-09-09T09:50:34Z</time>
      </trkpt>
      <trkpt lat="42.85859" lon="2.37568">
        <ele>835</ele>
        <time>2023-09-09T09:50:35Z</time>
      </trkpt>
      <trkpt lat="42.8586" lon="2.37568">
        <ele>835</ele>
        <time>2023-09-09T09:50:36Z</time>
      </trkpt>
      <trkpt lat="42.8586" lon="2.37567">
        <ele>835</ele>
        <time>2023-09-09T09:50:37Z</time>
      </trkpt>
      <trkpt lat="42.8586" lon="2.37567">
        <ele>836</ele>
        <time>2023-09-09T09:50:38Z</time>
      </trkpt>
      <trkpt lat="42.85861" lon="2.37567">
        <ele>836</ele>
        <time>2023-09-09T09:50:39Z</time>
      </trkpt>
      <trkpt lat="42.85861" lon="2.37567">
        <ele>836</ele>
        <time>2023-09-09T09:50:40Z</time>
      </trkpt>
      <trkpt lat="42.85862" lon="2.37568">
        <ele>836</ele>
        <time>2023-09-09T09:50:41Z</time>
      </trkpt>
      <trkpt lat="42.85866" lon="2.37572">
        <ele>842</ele>
        <time>2023-09-09T09:51:10Z</time>
      </trkpt>
      <trkpt lat="42.85868" lon="2.37574">
        <ele>842</ele>
        <time>2023-09-09T09:51:11Z</time>
      </trkpt>
      <trkpt lat="42.8587" lon="2.37576">
        <ele>842</ele>
        <time>2023-09-09T09:51:12Z</time>
      </trkpt>
      <trkpt lat="42.85871" lon="2.37577">
        <ele>843</ele>
        <time>2023-09-09T09:51:13Z</time>
      </trkpt>
      <trkpt lat="42.85871" lon="2.37577">
        <ele>843</ele>
        <time>2023-09-09T09:51:14Z</time>
      </trkpt>
      <trkpt lat="42.85872" lon="2.37578">
        <ele>843</ele>
        <time>2023-09-09T09:51:15Z</time>
      </trkpt>
      <trkpt lat="42.85873" lon="2.37578">
        <ele>844</ele>
        <time>2023-09-09T09:51:16Z</time>
      </trkpt>
      <trkpt lat="42.85874" lon="2.37579">
        <ele>844</ele>
        <time>2023-09-09T09:51:17Z</time>
      </trkpt>
      <trkpt lat="42.85875" lon="2.37579">
        <ele>845</ele>
        <time>2023-09-09T09:51:18Z</time>
      </trkpt>
      <trkpt lat="42.85876" lon="2.37579">
        <ele>845</ele>
        <time>2023-09-09T09:51:19Z</time>
      </trkpt>
      <trkpt lat="42.85876" lon="2.37579">
        <ele>845</ele>
        <time>2023-09-09T09:51:20Z</time>
      </trkpt>
      <trkpt lat="42.85877" lon="2.3758">
        <ele>845</ele>
        <time>2023-09-09T09:51:21Z</time>
      </trkpt>
      <trkpt lat="42.85878" lon="2.3758">
        <ele>845</ele>
        <time>2023-09-09T09:51:22Z</time>
      </trkpt>
      <trkpt lat="42.85879" lon="2.37581">
        <ele>846</ele>
        <time>2023-09-09T09:51:23Z</time>
      </trkpt>
      <trkpt lat="42.8588" lon="2.37581">
        <ele>846</ele>
        <time>2023-09-09T09:51:24Z</time>
      </trkpt>
      <trkpt lat="42.85881" lon="2.37582">
        <ele>846</ele>
        <time>2023-09-09T09:51:25Z</time>
      </trkpt>
      <trkpt lat="42.85882" lon="2.37584">
        <ele>846</ele>
        <time>2023-09-09T09:51:26Z</time>
      </trkpt>
      <trkpt lat="42.85885" lon="2.37587">
        <ele>850</ele>
        <time>2023-09-09T09:51:44Z</time>
      </trkpt>
      <trkpt lat="42.85886" lon="2.37588">
        <ele>850</ele>
        <time>2023-09-09T09:51:45Z</time>
      </trkpt>
      <trkpt lat="42.85888" lon="2.3759">
        <ele>850</ele>
        <time>2023-09-09T09:51:46Z</time>
      </trkpt>
      <trkpt lat="42.85888" lon="2.37592">
        <ele>851</ele>
        <time>2023-09-09T09:51:52Z</time>
      </trkpt>
      <trkpt lat="42.85889" lon="2.37593">
        <ele>852</ele>
        <time>2023-09-09T09:51:53Z</time>
      </trkpt>
      <trkpt lat="42.85889" lon="2.37594">
        <ele>852</ele>
        <time>2023-09-09T09:51:54Z</time>
      </trkpt>
      <trkpt lat="42.85891" lon="2.37598">
        <ele>857</ele>
        <time>2023-09-09T09:52:16Z</time>
      </trkpt>
      <trkpt lat="42.85892" lon="2.376">
        <ele>857</ele>
        <time>2023-09-09T09:52:17Z</time>
      </trkpt>
      <trkpt lat="42.85893" lon="2.37602">
        <ele>858</ele>
        <time>2023-09-09T09:52:18Z</time>
      </trkpt>
      <trkpt lat="42.85893" lon="2.37604">
        <ele>858</ele>
        <time>2023-09-09T09:52:19Z</time>
      </trkpt>
      <trkpt lat="42.85894" lon="2.37605">
        <ele>858</ele>
        <time>2023-09-09T09:52:20Z</time>
      </trkpt>
      <trkpt lat="42.85894" lon="2.37607">
        <ele>858</ele>
        <time>2023-09-09T09:52:21Z</time>
      </trkpt>
      <trkpt lat="42.85895" lon="2.37608">
        <ele>858</ele>
        <time>2023-09-09T09:52:22Z</time>
      </trkpt>
      <trkpt lat="42.85896" lon="2.3761">
        <ele>858</ele>
        <time>2023-09-09T09:52:23Z</time>
      </trkpt>
      <trkpt lat="42.85897" lon="2.37611">
        <ele>858</ele>
        <time>2023-09-09T09:52:24Z</time>
      </trkpt>
      <trkpt lat="42.85897" lon="2.37612">
        <ele>858</ele>
        <time>2023-09-09T09:52:25Z</time>
      </trkpt>
      <trkpt lat="42.85897" lon="2.37613">
        <ele>858</ele>
        <time>2023-09-09T09:52:26Z</time>
      </trkpt>
      <trkpt lat="42.85897" lon="2.37614">
        <ele>858</ele>
        <time>2023-09-09T09:52:27Z</time>
      </trkpt>
      <trkpt lat="42.85898" lon="2.37615">
        <ele>859</ele>
        <time>2023-09-09T09:52:28Z</time>
      </trkpt>
      <trkpt lat="42.85898" lon="2.37616">
        <ele>859</ele>
        <time>2023-09-09T09:52:29Z</time>
      </trkpt>
      <trkpt lat="42.85898" lon="2.37617">
        <ele>860</ele>
        <time>2023-09-09T09:52:30Z</time>
      </trkpt>
      <trkpt lat="42.85898" lon="2.37618">
        <ele>860</ele>
        <time>2023-09-09T09:52:31Z</time>
      </trkpt>
      <trkpt lat="42.85898" lon="2.37619">
        <ele>861</ele>
        <time>2023-09-09T09:52:32Z</time>
      </trkpt>
      <trkpt lat="42.85898" lon="2.37619">
        <ele>862</ele>
        <time>2023-09-09T09:52:33Z</time>
      </trkpt>
      <trkpt lat="42.85898" lon="2.37619">
        <ele>862</ele>
        <time>2023-09-09T09:52:34Z</time>
      </trkpt>
      <trkpt lat="42.85898" lon="2.37619">
        <ele>862</ele>
        <time>2023-09-09T09:52:35Z</time>
      </trkpt>
      <trkpt lat="42.85898" lon="2.3762">
        <ele>862</ele>
        <time>2023-09-09T09:52:36Z</time>
      </trkpt>
      <trkpt lat="42.85899" lon="2.37621">
        <ele>862</ele>
        <time>2023-09-09T09:52:37Z</time>
      </trkpt>
      <trkpt lat="42.85899" lon="2.37622">
        <ele>863</ele>
        <time>2023-09-09T09:52:38Z</time>
      </trkpt>
      <trkpt lat="42.85899" lon="2.37622">
        <ele>863</ele>
        <time>2023-09-09T09:52:39Z</time>
      </trkpt>
      <trkpt lat="42.859" lon="2.37623">
        <ele>863</ele>
        <time>2023-09-09T09:52:40Z</time>
      </trkpt>
      <trkpt lat="42.859" lon="2.37624">
        <ele>863</ele>
        <time>2023-09-09T09:52:41Z</time>
      </trkpt>
      <trkpt lat="42.85901" lon="2.37624">
        <ele>863</ele>
        <time>2023-09-09T09:52:42Z</time>
      </trkpt>
      <trkpt lat="42.85901" lon="2.37625">
        <ele>863</ele>
        <time>2023-09-09T09:52:43Z</time>
      </trkpt>
      <trkpt lat="42.85902" lon="2.37625">
        <ele>863</ele>
        <time>2023-09-09T09:52:44Z</time>
      </trkpt>
      <trkpt lat="42.85903" lon="2.37626">
        <ele>863</ele>
        <time>2023-09-09T09:52:45Z</time>
      </trkpt>
      <trkpt lat="42.85903" lon="2.37626">
        <ele>863</ele>
        <time>2023-09-09T09:52:46Z</time>
      </trkpt>
      <trkpt lat="42.85903" lon="2.37626">
        <ele>863</ele>
        <time>2023-09-09T09:52:47Z</time>
      </trkpt>
      <trkpt lat="42.85903" lon="2.37626">
        <ele>864</ele>
        <time>2023-09-09T09:52:48Z</time>
      </trkpt>
      <trkpt lat="42.85903" lon="2.37626">
        <ele>864</ele>
        <time>2023-09-09T09:52:49Z</time>
      </trkpt>
      <trkpt lat="42.85903" lon="2.37626">
        <ele>864</ele>
        <time>2023-09-09T09:52:50Z</time>
      </trkpt>
      <trkpt lat="42.85904" lon="2.37626">
        <ele>864</ele>
        <time>2023-09-09T09:52:51Z</time>
      </trkpt>
      <trkpt lat="42.85905" lon="2.37627">
        <ele>864</ele>
        <time>2023-09-09T09:52:52Z</time>
      </trkpt>
      <trkpt lat="42.85905" lon="2.37627">
        <ele>865</ele>
        <time>2023-09-09T09:52:53Z</time>
      </trkpt>
      <trkpt lat="42.85905" lon="2.37627">
        <ele>865</ele>
        <time>2023-09-09T09:52:54Z</time>
      </trkpt>
      <trkpt lat="42.85908" lon="2.37629">
        <ele>867</ele>
        <time>2023-09-09T09:53:06Z</time>
      </trkpt>
      <trkpt lat="42.85909" lon="2.3763">
        <ele>867</ele>
        <time>2023-09-09T09:53:07Z</time>
      </trkpt>
      <trkpt lat="42.8591" lon="2.37631">
        <ele>868</ele>
        <time>2023-09-09T09:53:08Z</time>
      </trkpt>
      <trkpt lat="42.85911" lon="2.37632">
        <ele>868</ele>
        <time>2023-09-09T09:53:09Z</time>
      </trkpt>
      <trkpt lat="42.85912" lon="2.37633">
        <ele>868</ele>
        <time>2023-09-09T09:53:10Z</time>
      </trkpt>
      <trkpt lat="42.85913" lon="2.37633">
        <ele>868</ele>
        <time>2023-09-09T09:53:11Z</time>
      </trkpt>
      <trkpt lat="42.85913" lon="2.37633">
        <ele>868</ele>
        <time>2023-09-09T09:53:12Z</time>
      </trkpt>
      <trkpt lat="42.85914" lon="2.37632">
        <ele>869</ele>
        <time>2023-09-09T09:53:13Z</time>
      </trkpt>
      <trkpt lat="42.85914" lon="2.37632">
        <ele>869</ele>
        <time>2023-09-09T09:53:14Z</time>
      </trkpt>
      <trkpt lat="42.85914" lon="2.37631">
        <ele>869</ele>
        <time>2023-09-09T09:53:15Z</time>
      </trkpt>
      <trkpt lat="42.85915" lon="2.3763">
        <ele>869</ele>
        <time>2023-09-09T09:53:16Z</time>
      </trkpt>
      <trkpt lat="42.85915" lon="2.3763">
        <ele>869</ele>
        <time>2023-09-09T09:53:17Z</time>
      </trkpt>
      <trkpt lat="42.85916" lon="2.37629">
        <ele>870</ele>
        <time>2023-09-09T09:53:18Z</time>
      </trkpt>
      <trkpt lat="42.85916" lon="2.3763">
        <ele>870</ele>
        <time>2023-09-09T09:53:19Z</time>
      </trkpt>
      <trkpt lat="42.85917" lon="2.3763">
        <ele>870</ele>
        <time>2023-09-09T09:53:20Z</time>
      </trkpt>
      <trkpt lat="42.85918" lon="2.3763">
        <ele>870</ele>
        <time>2023-09-09T09:53:21Z</time>
      </trkpt>
      <trkpt lat="42.85918" lon="2.37631">
        <ele>870</ele>
        <time>2023-09-09T09:53:22Z</time>
      </trkpt>
      <trkpt lat="42.85919" lon="2.37632">
        <ele>871</ele>
        <time>2023-09-09T09:53:23Z</time>
      </trkpt>
      <trkpt lat="42.8592" lon="2.37632">
        <ele>871</ele>
        <time>2023-09-09T09:53:24Z</time>
      </trkpt>
      <trkpt lat="42.8592" lon="2.37633">
        <ele>871</ele>
        <time>2023-09-09T09:53:25Z</time>
      </trkpt>
      <trkpt lat="42.85921" lon="2.37634">
        <ele>871</ele>
        <time>2023-09-09T09:53:26Z</time>
      </trkpt>
      <trkpt lat="42.85924" lon="2.37634">
        <ele>874</ele>
        <time>2023-09-09T09:53:38Z</time>
      </trkpt>
      <trkpt lat="42.85926" lon="2.37634">
        <ele>874</ele>
        <time>2023-09-09T09:53:39Z</time>
      </trkpt>
      <trkpt lat="42.85927" lon="2.37634">
        <ele>874</ele>
        <time>2023-09-09T09:53:40Z</time>
      </trkpt>
      <trkpt lat="42.85928" lon="2.37634">
        <ele>874</ele>
        <time>2023-09-09T09:53:41Z</time>
      </trkpt>
      <trkpt lat="42.85928" lon="2.37634">
        <ele>874</ele>
        <time>2023-09-09T09:53:42Z</time>
      </trkpt>
      <trkpt lat="42.85929" lon="2.37634">
        <ele>875</ele>
        <time>2023-09-09T09:53:43Z</time>
      </trkpt>
      <trkpt lat="42.85929" lon="2.37634">
        <ele>875</ele>
        <time>2023-09-09T09:53:44Z</time>
      </trkpt>
      <trkpt lat="42.8593" lon="2.37634">
        <ele>875</ele>
        <time>2023-09-09T09:53:45Z</time>
      </trkpt>
      <trkpt lat="42.85931" lon="2.37634">
        <ele>875</ele>
        <time>2023-09-09T09:53:46Z</time>
      </trkpt>
      <trkpt lat="42.85933" lon="2.37636">
        <ele>877</ele>
        <time>2023-09-09T09:53:55Z</time>
      </trkpt>
      <trkpt lat="42.85933" lon="2.37637">
        <ele>877</ele>
        <time>2023-09-09T09:53:56Z</time>
      </trkpt>
      <trkpt lat="42.85934" lon="2.37638">
        <ele>877</ele>
        <time>2023-09-09T09:53:57Z</time>
      </trkpt>
      <trkpt lat="42.85935" lon="2.37638">
        <ele>877</ele>
        <time>2023-09-09T09:53:58Z</time>
      </trkpt>
      <trkpt lat="42.85935" lon="2.37639">
        <ele>877</ele>
        <time>2023-09-09T09:53:59Z</time>
      </trkpt>
      <trkpt lat="42.85935" lon="2.3764">
        <ele>877</ele>
        <time>2023-09-09T09:54:00Z</time>
      </trkpt>
      <trkpt lat="42.85936" lon="2.3764">
        <ele>877</ele>
        <time>2023-09-09T09:54:01Z</time>
      </trkpt>
      <trkpt lat="42.85936" lon="2.3764">
        <ele>877</ele>
        <time>2023-09-09T09:54:02Z</time>
      </trkpt>
      <trkpt lat="42.85936" lon="2.37641">
        <ele>878</ele>
        <time>2023-09-09T09:54:03Z</time>
      </trkpt>
      <trkpt lat="42.85936" lon="2.37641">
        <ele>878</ele>
        <time>2023-09-09T09:54:04Z</time>
      </trkpt>
      <trkpt lat="42.85936" lon="2.37641">
        <ele>878</ele>
        <time>2023-09-09T09:54:05Z</time>
      </trkpt>
      <trkpt lat="42.85936" lon="2.37641">
        <ele>879</ele>
        <time>2023-09-09T09:54:06Z</time>
      </trkpt>
      <trkpt lat="42.85936" lon="2.37642">
        <ele>879</ele>
        <time>2023-09-09T09:54:07Z</time>
      </trkpt>
      <trkpt lat="42.85936" lon="2.37642">
        <ele>880</ele>
        <time>2023-09-09T09:54:08Z</time>
      </trkpt>
      <trkpt lat="42.85937" lon="2.37642">
        <ele>880</ele>
        <time>2023-09-09T09:54:09Z</time>
      </trkpt>
      <trkpt lat="42.85938" lon="2.37642">
        <ele>880</ele>
        <time>2023-09-09T09:54:10Z</time>
      </trkpt>
      <trkpt lat="42.85938" lon="2.37643">
        <ele>880</ele>
        <time>2023-09-09T09:54:11Z</time>
      </trkpt>
      <trkpt lat="42.85939" lon="2.37643">
        <ele>880</ele>
        <time>2023-09-09T09:54:12Z</time>
      </trkpt>
      <trkpt lat="42.85941" lon="2.37643">
        <ele>883</ele>
        <time>2023-09-09T09:54:23Z</time>
      </trkpt>
      <trkpt lat="42.85942" lon="2.37643">
        <ele>883</ele>
        <time>2023-09-09T09:54:24Z</time>
      </trkpt>
      <trkpt lat="42.85944" lon="2.37643">
        <ele>883</ele>
        <time>2023-09-09T09:54:25Z</time>
      </trkpt>
      <trkpt lat="42.85944" lon="2.37643">
        <ele>883</ele>
        <time>2023-09-09T09:54:26Z</time>
      </trkpt>
      <trkpt lat="42.85945" lon="2.37643">
        <ele>883</ele>
        <time>2023-09-09T09:54:27Z</time>
      </trkpt>
      <trkpt lat="42.85945" lon="2.37643">
        <ele>884</ele>
        <time>2023-09-09T09:54:28Z</time>
      </trkpt>
      <trkpt lat="42.85947" lon="2.37641">
        <ele>885</ele>
        <time>2023-09-09T09:54:35Z</time>
      </trkpt>
      <trkpt lat="42.85948" lon="2.3764">
        <ele>885</ele>
        <time>2023-09-09T09:54:36Z</time>
      </trkpt>
      <trkpt lat="42.8595" lon="2.37639">
        <ele>885</ele>
        <time>2023-09-09T09:54:37Z</time>
      </trkpt>
      <trkpt lat="42.85952" lon="2.37639">
        <ele>887</ele>
        <time>2023-09-09T09:54:45Z</time>
      </trkpt>
      <trkpt lat="42.85952" lon="2.37639">
        <ele>887</ele>
        <time>2023-09-09T09:54:46Z</time>
      </trkpt>
      <trkpt lat="42.85953" lon="2.37639">
        <ele>887</ele>
        <time>2023-09-09T09:54:47Z</time>
      </trkpt>
      <trkpt lat="42.85954" lon="2.37639">
        <ele>888</ele>
        <time>2023-09-09T09:54:48Z</time>
      </trkpt>
      <trkpt lat="42.85954" lon="2.3764">
        <ele>888</ele>
        <time>2023-09-09T09:54:49Z</time>
      </trkpt>
      <trkpt lat="42.85954" lon="2.3764">
        <ele>888</ele>
        <time>2023-09-09T09:54:50Z</time>
      </trkpt>
      <trkpt lat="42.85955" lon="2.3764">
        <ele>888</ele>
        <time>2023-09-09T09:54:51Z</time>
      </trkpt>
      <trkpt lat="42.85955" lon="2.37641">
        <ele>888</ele>
        <time>2023-09-09T09:54:52Z</time>
      </trkpt>
      <trkpt lat="42.85956" lon="2.37641">
        <ele>889</ele>
        <time>2023-09-09T09:54:53Z</time>
      </trkpt>
      <trkpt lat="42.85956" lon="2.37641">
        <ele>889</ele>
        <time>2023-09-09T09:54:54Z</time>
      </trkpt>
      <trkpt lat="42.85958" lon="2.37641">
        <ele>892</ele>
        <time>2023-09-09T09:55:08Z</time>
      </trkpt>
      <trkpt lat="42.85959" lon="2.37641">
        <ele>892</ele>
        <time>2023-09-09T09:55:09Z</time>
      </trkpt>
      <trkpt lat="42.85961" lon="2.37641">
        <ele>892</ele>
        <time>2023-09-09T09:55:10Z</time>
      </trkpt>
      <trkpt lat="42.85962" lon="2.37641">
        <ele>892</ele>
        <time>2023-09-09T09:55:11Z</time>
      </trkpt>
      <trkpt lat="42.85963" lon="2.3764">
        <ele>892</ele>
        <time>2023-09-09T09:55:12Z</time>
      </trkpt>
      <trkpt lat="42.85963" lon="2.3764">
        <ele>893</ele>
        <time>2023-09-09T09:55:13Z</time>
      </trkpt>
      <trkpt lat="42.85964" lon="2.3764">
        <ele>893</ele>
        <time>2023-09-09T09:55:14Z</time>
      </trkpt>
      <trkpt lat="42.85964" lon="2.3764">
        <ele>893</ele>
        <time>2023-09-09T09:55:15Z</time>
      </trkpt>
      <trkpt lat="42.85965" lon="2.37639">
        <ele>893</ele>
        <time>2023-09-09T09:55:16Z</time>
      </trkpt>
      <trkpt lat="42.85966" lon="2.37639">
        <ele>893</ele>
        <time>2023-09-09T09:55:17Z</time>
      </trkpt>
      <trkpt lat="42.85967" lon="2.37639">
        <ele>894</ele>
        <time>2023-09-09T09:55:18Z</time>
      </trkpt>
      <trkpt lat="42.85968" lon="2.37639">
        <ele>894</ele>
        <time>2023-09-09T09:55:19Z</time>
      </trkpt>
      <trkpt lat="42.85969" lon="2.37639">
        <ele>894</ele>
        <time>2023-09-09T09:55:20Z</time>
      </trkpt>
      <trkpt lat="42.8597" lon="2.3764">
        <ele>894</ele>
        <time>2023-09-09T09:55:21Z</time>
      </trkpt>
      <trkpt lat="42.85972" lon="2.3764">
        <ele>894</ele>
        <time>2023-09-09T09:55:22Z</time>
      </trkpt>
      <trkpt lat="42.85972" lon="2.3764">
        <ele>895</ele>
        <time>2023-09-09T09:55:23Z</time>
      </trkpt>
      <trkpt lat="42.85972" lon="2.3764">
        <ele>895</ele>
        <time>2023-09-09T09:55:24Z</time>
      </trkpt>
      <trkpt lat="42.85972" lon="2.3764">
        <ele>895</ele>
        <time>2023-09-09T09:55:25Z</time>
      </trkpt>
      <trkpt lat="42.85973" lon="2.3764">
        <ele>896</ele>
        <time>2023-09-09T09:55:26Z</time>
      </trkpt>
      <trkpt lat="42.85973" lon="2.3764">
        <ele>896</ele>
        <time>2023-09-09T09:55:27Z</time>
      </trkpt>
      <trkpt lat="42.85973" lon="2.3764">
        <ele>897</ele>
        <time>2023-09-09T09:55:28Z</time>
      </trkpt>
      <trkpt lat="42.85974" lon="2.3764">
        <ele>897</ele>
        <time>2023-09-09T09:55:29Z</time>
      </trkpt>
      <trkpt lat="42.85974" lon="2.37639">
        <ele>897</ele>
        <time>2023-09-09T09:55:30Z</time>
      </trkpt>
      <trkpt lat="42.85975" lon="2.37638">
        <ele>897</ele>
        <time>2023-09-09T09:55:31Z</time>
      </trkpt>
      <trkpt lat="42.85975" lon="2.37638">
        <ele>897</ele>
        <time>2023-09-09T09:55:32Z</time>
      </trkpt>
      <trkpt lat="42.85976" lon="2.37637">
        <ele>898</ele>
        <time>2023-09-09T09:55:33Z</time>
      </trkpt>
      <trkpt lat="42.85976" lon="2.37636">
        <ele>898</ele>
        <time>2023-09-09T09:55:34Z</time>
      </trkpt>
      <trkpt lat="42.85976" lon="2.37636">
        <ele>898</ele>
        <time>2023-09-09T09:55:35Z</time>
      </trkpt>
      <trkpt lat="42.85976" lon="2.37635">
        <ele>898</ele>
        <time>2023-09-09T09:55:36Z</time>
      </trkpt>
      <trkpt lat="42.85977" lon="2.37634">
        <ele>898</ele>
        <time>2023-09-09T09:55:37Z</time>
      </trkpt>
      <trkpt lat="42.85977" lon="2.37633">
        <ele>899</ele>
        <time>2023-09-09T09:55:38Z</time>
      </trkpt>
      <trkpt lat="42.85977" lon="2.37633">
        <ele>899</ele>
        <time>2023-09-09T09:55:39Z</time>
      </trkpt>
      <trkpt lat="42.85977" lon="2.37632">
        <ele>899</ele>
        <time>2023-09-09T09:55:40Z</time>
      </trkpt>
      <trkpt lat="42.85978" lon="2.37631">
        <ele>899</ele>
        <time>2023-09-09T09:55:41Z</time>
      </trkpt>
      <trkpt lat="42.85978" lon="2.3763">
        <ele>900</ele>
        <time>2023-09-09T09:55:47Z</time>
      </trkpt>
      <trkpt lat="42.85978" lon="2.37629">
        <ele>901</ele>
        <time>2023-09-09T09:55:48Z</time>
      </trkpt>
      <trkpt lat="42.85979" lon="2.37628">
        <ele>901</ele>
        <time>2023-09-09T09:55:49Z</time>
      </trkpt>
      <trkpt lat="42.85979" lon="2.37627">
        <ele>901</ele>
        <time>2023-09-09T09:55:50Z</time>
      </trkpt>
      <trkpt lat="42.85979" lon="2.37626">
        <ele>901</ele>
        <time>2023-09-09T09:55:51Z</time>
      </trkpt>
      <trkpt lat="42.85979" lon="2.37625">
        <ele>901</ele>
        <time>2023-09-09T09:55:52Z</time>
      </trkpt>
      <trkpt lat="42.8598" lon="2.37625">
        <ele>902</ele>
        <time>2023-09-09T09:55:53Z</time>
      </trkpt>
      <trkpt lat="42.8598" lon="2.37624">
        <ele>902</ele>
        <time>2023-09-09T09:55:54Z</time>
      </trkpt>
      <trkpt lat="42.8598" lon="2.37623">
        <ele>902</ele>
        <time>2023-09-09T09:55:55Z</time>
      </trkpt>
      <trkpt lat="42.8598" lon="2.37622">
        <ele>902</ele>
        <time>2023-09-09T09:55:56Z</time>
      </trkpt>
      <trkpt lat="42.85981" lon="2.37622">
        <ele>902</ele>
        <time>2023-09-09T09:55:57Z</time>
      </trkpt>
      <trkpt lat="42.85981" lon="2.37621">
        <ele>903</ele>
        <time>2023-09-09T09:55:58Z</time>
      </trkpt>
      <trkpt lat="42.85982" lon="2.3762">
        <ele>903</ele>
        <time>2023-09-09T09:55:59Z</time>
      </trkpt>
      <trkpt lat="42.85982" lon="2.3762">
        <ele>903</ele>
        <time>2023-09-09T09:56:00Z</time>
      </trkpt>
      <trkpt lat="42.85983" lon="2.37619">
        <ele>904</ele>
        <time>2023-09-09T09:56:01Z</time>
      </trkpt>
      <trkpt lat="42.85983" lon="2.37619">
        <ele>904</ele>
        <time>2023-09-09T09:56:02Z</time>
      </trkpt>
      <trkpt lat="42.85986" lon="2.37617">
        <ele>907</ele>
        <time>2023-09-09T09:56:15Z</time>
      </trkpt>
      <trkpt lat="42.85987" lon="2.37616">
        <ele>907</ele>
        <time>2023-09-09T09:56:16Z</time>
      </trkpt>
      <trkpt lat="42.85988" lon="2.37615">
        <ele>907</ele>
        <time>2023-09-09T09:56:17Z</time>
      </trkpt>
      <trkpt lat="42.85989" lon="2.37614">
        <ele>907</ele>
        <time>2023-09-09T09:56:18Z</time>
      </trkpt>
      <trkpt lat="42.8599" lon="2.37614">
        <ele>907</ele>
        <time>2023-09-09T09:56:19Z</time>
      </trkpt>
      <trkpt lat="42.8599" lon="2.37613">
        <ele>907</ele>
        <time>2023-09-09T09:56:20Z</time>
      </trkpt>
      <trkpt lat="42.85991" lon="2.37612">
        <ele>907</ele>
        <time>2023-09-09T09:56:21Z</time>
      </trkpt>
      <trkpt lat="42.86016" lon="2.376">
        <ele>921</ele>
        <time>2023-09-09T09:57:47Z</time>
      </trkpt>
      <trkpt lat="42.86016" lon="2.376">
        <ele>921</ele>
        <time>2023-09-09T09:57:48Z</time>
      </trkpt>
      <trkpt lat="42.86016" lon="2.37599">
        <ele>921</ele>
        <time>2023-09-09T09:57:49Z</time>
      </trkpt>
      <trkpt lat="42.86022" lon="2.37595">
        <ele>929</ele>
        <time>2023-09-09T09:58:16Z</time>
      </trkpt>
      <trkpt lat="42.86023" lon="2.37596">
        <ele>929</ele>
        <time>2023-09-09T09:58:17Z</time>
      </trkpt>
      <trkpt lat="42.86024" lon="2.37596">
        <ele>929</ele>
        <time>2023-09-09T09:58:18Z</time>
      </trkpt>
      <trkpt lat="42.86024" lon="2.37596">
        <ele>929</ele>
        <time>2023-09-09T09:58:19Z</time>
      </trkpt>
      <trkpt lat="42.86024" lon="2.37597">
        <ele>929</ele>
        <time>2023-09-09T09:58:20Z</time>
      </trkpt>
      <trkpt lat="42.86024" lon="2.37597">
        <ele>929</ele>
        <time>2023-09-09T09:58:21Z</time>
      </trkpt>
      <trkpt lat="42.86025" lon="2.37598">
        <ele>930</ele>
        <time>2023-09-09T09:58:22Z</time>
      </trkpt>
      <trkpt lat="42.86025" lon="2.37598">
        <ele>930</ele>
        <time>2023-09-09T09:58:23Z</time>
      </trkpt>
      <trkpt lat="42.86025" lon="2.37599">
        <ele>930</ele>
        <time>2023-09-09T09:58:24Z</time>
      </trkpt>
      <trkpt lat="42.86025" lon="2.37599">
        <ele>931</ele>
        <time>2023-09-09T09:58:25Z</time>
      </trkpt>
      <trkpt lat="42.86026" lon="2.376">
        <ele>931</ele>
        <time>2023-09-09T09:58:26Z</time>
      </trkpt>
      <trkpt lat="42.86027" lon="2.37601">
        <ele>933</ele>
        <time>2023-09-09T09:58:34Z</time>
      </trkpt>
      <trkpt lat="42.86028" lon="2.37601">
        <ele>933</ele>
        <time>2023-09-09T09:58:35Z</time>
      </trkpt>
      <trkpt lat="42.86029" lon="2.37601">
        <ele>933</ele>
        <time>2023-09-09T09:58:36Z</time>
      </trkpt>
      <trkpt lat="42.86029" lon="2.37601">
        <ele>933</ele>
        <time>2023-09-09T09:58:37Z</time>
      </trkpt>
      <trkpt lat="42.8603" lon="2.37601">
        <ele>933</ele>
        <time>2023-09-09T09:58:38Z</time>
      </trkpt>
      <trkpt lat="42.8603" lon="2.37601">
        <ele>933</ele>
        <time>2023-09-09T09:58:39Z</time>
      </trkpt>
      <trkpt lat="42.8603" lon="2.37601">
        <ele>933</ele>
        <time>2023-09-09T09:58:40Z</time>
      </trkpt>
      <trkpt lat="42.86031" lon="2.376">
        <ele>933</ele>
        <time>2023-09-09T09:58:41Z</time>
      </trkpt>
      <trkpt lat="42.86031" lon="2.376">
        <ele>934</ele>
        <time>2023-09-09T09:58:42Z</time>
      </trkpt>
      <trkpt lat="42.86031" lon="2.376">
        <ele>934</ele>
        <time>2023-09-09T09:58:43Z</time>
      </trkpt>
      <trkpt lat="42.86038" lon="2.37593">
        <ele>940</ele>
        <time>2023-09-09T09:59:16Z</time>
      </trkpt>
      <trkpt lat="42.86046" lon="2.37586">
        <ele>941</ele>
        <time>2023-09-09T09:59:30Z</time>
      </trkpt>
      <trkpt lat="42.86046" lon="2.37585">
        <ele>942</ele>
        <time>2023-09-09T09:59:31Z</time>
      </trkpt>
      <trkpt lat="42.86046" lon="2.37585">
        <ele>942</ele>
        <time>2023-09-09T09:59:32Z</time>
      </trkpt>
      <trkpt lat="42.86046" lon="2.37584">
        <ele>942</ele>
        <time>2023-09-09T09:59:33Z</time>
      </trkpt>
      <trkpt lat="42.86046" lon="2.37583">
        <ele>942</ele>
        <time>2023-09-09T09:59:34Z</time>
      </trkpt>
      <trkpt lat="42.86046" lon="2.37582">
        <ele>942</ele>
        <time>2023-09-09T09:59:35Z</time>
      </trkpt>
      <trkpt lat="42.86046" lon="2.37581">
        <ele>943</ele>
        <time>2023-09-09T09:59:36Z</time>
      </trkpt>
      <trkpt lat="42.86046" lon="2.3758">
        <ele>943</ele>
        <time>2023-09-09T09:59:37Z</time>
      </trkpt>
      <trkpt lat="42.86046" lon="2.37579">
        <ele>943</ele>
        <time>2023-09-09T09:59:38Z</time>
      </trkpt>
      <trkpt lat="42.86046" lon="2.37578">
        <ele>943</ele>
        <time>2023-09-09T09:59:39Z</time>
      </trkpt>
      <trkpt lat="42.86046" lon="2.37576">
        <ele>943</ele>
        <time>2023-09-09T09:59:40Z</time>
      </trkpt>
      <trkpt lat="42.86046" lon="2.37575">
        <ele>944</ele>
        <time>2023-09-09T09:59:41Z</time>
      </trkpt>
      <trkpt lat="42.86046" lon="2.37573">
        <ele>944</ele>
        <time>2023-09-09T09:59:42Z</time>
      </trkpt>
      <trkpt lat="42.86046" lon="2.37571">
        <ele>944</ele>
        <time>2023-09-09T09:59:43Z</time>
      </trkpt>
      <trkpt lat="42.86046" lon="2.37569">
        <ele>944</ele>
        <time>2023-09-09T09:59:44Z</time>
      </trkpt>
      <trkpt lat="42.86045" lon="2.37567">
        <ele>944</ele>
        <time>2023-09-09T09:59:45Z</time>
      </trkpt>
      <trkpt lat="42.86045" lon="2.37565">
        <ele>945</ele>
        <time>2023-09-09T09:59:46Z</time>
      </trkpt>
      <trkpt lat="42.86045" lon="2.37563">
        <ele>945</ele>
        <time>2023-09-09T09:59:47Z</time>
      </trkpt>
      <trkpt lat="42.86045" lon="2.3756">
        <ele>945</ele>
        <time>2023-09-09T09:59:48Z</time>
      </trkpt>
      <trkpt lat="42.86044" lon="2.37558">
        <ele>945</ele>
        <time>2023-09-09T09:59:49Z</time>
      </trkpt>
      <trkpt lat="42.86044" lon="2.37556">
        <ele>945</ele>
        <time>2023-09-09T09:59:50Z</time>
      </trkpt>
      <trkpt lat="42.86044" lon="2.37553">
        <ele>946</ele>
        <time>2023-09-09T09:59:51Z</time>
      </trkpt>
      <trkpt lat="42.86044" lon="2.37551">
        <ele>946</ele>
        <time>2023-09-09T09:59:52Z</time>
      </trkpt>
      <trkpt lat="42.86045" lon="2.37549">
        <ele>946</ele>
        <time>2023-09-09T09:59:53Z</time>
      </trkpt>
      <trkpt lat="42.86045" lon="2.37547">
        <ele>946</ele>
        <time>2023-09-09T09:59:54Z</time>
      </trkpt>
      <trkpt lat="42.86046" lon="2.37546">
        <ele>946</ele>
        <time>2023-09-09T09:59:55Z</time>
      </trkpt>
      <trkpt lat="42.86046" lon="2.37544">
        <ele>946</ele>
        <time>2023-09-09T09:59:56Z</time>
      </trkpt>
      <trkpt lat="42.86046" lon="2.37542">
        <ele>946</ele>
        <time>2023-09-09T09:59:57Z</time>
      </trkpt>
      <trkpt lat="42.86047" lon="2.37541">
        <ele>946</ele>
        <time>2023-09-09T09:59:58Z</time>
      </trkpt>
      <trkpt lat="42.86047" lon="2.3754">
        <ele>947</ele>
        <time>2023-09-09T09:59:59Z</time>
      </trkpt>
      <trkpt lat="42.86048" lon="2.37538">
        <ele>947</ele>
        <time>2023-09-09T10:00:00Z</time>
      </trkpt>
      <trkpt lat="42.86049" lon="2.37537">
        <ele>948</ele>
        <time>2023-09-09T10:00:01Z</time>
      </trkpt>
      <trkpt lat="42.86049" lon="2.37536">
        <ele>948</ele>
        <time>2023-09-09T10:00:02Z</time>
      </trkpt>
      <trkpt lat="42.8605" lon="2.37535">
        <ele>948</ele>
        <time>2023-09-09T10:00:03Z</time>
      </trkpt>
      <trkpt lat="42.86051" lon="2.37534">
        <ele>948</ele>
        <time>2023-09-09T10:00:04Z</time>
      </trkpt>
      <trkpt lat="42.86051" lon="2.37534">
        <ele>948</ele>
        <time>2023-09-09T10:00:05Z</time>
      </trkpt>
      <trkpt lat="42.86052" lon="2.37533">
        <ele>948</ele>
        <time>2023-09-09T10:00:06Z</time>
      </trkpt>
      <trkpt lat="42.86052" lon="2.37532">
        <ele>948</ele>
        <time>2023-09-09T10:00:07Z</time>
      </trkpt>
      <trkpt lat="42.86052" lon="2.37532">
        <ele>948</ele>
        <time>2023-09-09T10:00:08Z</time>
      </trkpt>
      <trkpt lat="42.86053" lon="2.37532">
        <ele>949</ele>
        <time>2023-09-09T10:00:09Z</time>
      </trkpt>
      <trkpt lat="42.86053" lon="2.37531">
        <ele>949</ele>
        <time>2023-09-09T10:00:10Z</time>
      </trkpt>
      <trkpt lat="42.86054" lon="2.37531">
        <ele>950</ele>
        <time>2023-09-09T10:00:11Z</time>
      </trkpt>
      <trkpt lat="42.86054" lon="2.37531">
        <ele>950</ele>
        <time>2023-09-09T10:00:12Z</time>
      </trkpt>
      <trkpt lat="42.86054" lon="2.37531">
        <ele>950</ele>
        <time>2023-09-09T10:00:13Z</time>
      </trkpt>
      <trkpt lat="42.86055" lon="2.3753">
        <ele>951</ele>
        <time>2023-09-09T10:00:14Z</time>
      </trkpt>
      <trkpt lat="42.86055" lon="2.3753">
        <ele>951</ele>
        <time>2023-09-09T10:00:15Z</time>
      </trkpt>
      <trkpt lat="42.86056" lon="2.37529">
        <ele>952</ele>
        <time>2023-09-09T10:00:16Z</time>
      </trkpt>
      <trkpt lat="42.86056" lon="2.37529">
        <ele>952</ele>
        <time>2023-09-09T10:00:17Z</time>
      </trkpt>
      <trkpt lat="42.8607" lon="2.37541">
        <ele>957</ele>
        <time>2023-09-09T10:01:09Z</time>
      </trkpt>
      <trkpt lat="42.86072" lon="2.37544">
        <ele>957</ele>
        <time>2023-09-09T10:01:10Z</time>
      </trkpt>
      <trkpt lat="42.86072" lon="2.37544">
        <ele>957</ele>
        <time>2023-09-09T10:01:11Z</time>
      </trkpt>
      <trkpt lat="42.86072" lon="2.37545">
        <ele>957</ele>
        <time>2023-09-09T10:01:12Z</time>
      </trkpt>
      <trkpt lat="42.86072" lon="2.37546">
        <ele>957</ele>
        <time>2023-09-09T10:01:13Z</time>
      </trkpt>
      <trkpt lat="42.86072" lon="2.37547">
        <ele>957</ele>
        <time>2023-09-09T10:01:14Z</time>
      </trkpt>
      <trkpt lat="42.86072" lon="2.37548">
        <ele>957</ele>
        <time>2023-09-09T10:01:15Z</time>
      </trkpt>
      <trkpt lat="42.86072" lon="2.37549">
        <ele>957</ele>
        <time>2023-09-09T10:01:16Z</time>
      </trkpt>
      <trkpt lat="42.86072" lon="2.37551">
        <ele>957</ele>
        <time>2023-09-09T10:01:17Z</time>
      </trkpt>
      <trkpt lat="42.86072" lon="2.37552">
        <ele>957</ele>
        <time>2023-09-09T10:01:18Z</time>
      </trkpt>
      <trkpt lat="42.86072" lon="2.37553">
        <ele>958</ele>
        <time>2023-09-09T10:01:19Z</time>
      </trkpt>
      <trkpt lat="42.86072" lon="2.37555">
        <ele>958</ele>
        <time>2023-09-09T10:01:20Z</time>
      </trkpt>
      <trkpt lat="42.86072" lon="2.37556">
        <ele>959</ele>
        <time>2023-09-09T10:01:21Z</time>
      </trkpt>
      <trkpt lat="42.86072" lon="2.37558">
        <ele>960</ele>
        <time>2023-09-09T10:01:22Z</time>
      </trkpt>
      <trkpt lat="42.86071" lon="2.37559">
        <ele>960</ele>
        <time>2023-09-09T10:01:23Z</time>
      </trkpt>
      <trkpt lat="42.86071" lon="2.3756">
        <ele>960</ele>
        <time>2023-09-09T10:01:24Z</time>
      </trkpt>
      <trkpt lat="42.86071" lon="2.37561">
        <ele>961</ele>
        <time>2023-09-09T10:01:25Z</time>
      </trkpt>
      <trkpt lat="42.86071" lon="2.37562">
        <ele>961</ele>
        <time>2023-09-09T10:01:26Z</time>
      </trkpt>
      <trkpt lat="42.86071" lon="2.37564">
        <ele>962</ele>
        <time>2023-09-09T10:01:27Z</time>
      </trkpt>
      <trkpt lat="42.8607" lon="2.37565">
        <ele>962</ele>
        <time>2023-09-09T10:01:28Z</time>
      </trkpt>
      <trkpt lat="42.8607" lon="2.37566">
        <ele>962</ele>
        <time>2023-09-09T10:01:29Z</time>
      </trkpt>
      <trkpt lat="42.8607" lon="2.37568">
        <ele>962</ele>
        <time>2023-09-09T10:01:30Z</time>
      </trkpt>
      <trkpt lat="42.8607" lon="2.37569">
        <ele>962</ele>
        <time>2023-09-09T10:01:31Z</time>
      </trkpt>
      <trkpt lat="42.8607" lon="2.37571">
        <ele>963</ele>
        <time>2023-09-09T10:01:32Z</time>
      </trkpt>
      <trkpt lat="42.8607" lon="2.37573">
        <ele>963</ele>
        <time>2023-09-09T10:01:33Z</time>
      </trkpt>
      <trkpt lat="42.8607" lon="2.37575">
        <ele>963</ele>
        <time>2023-09-09T10:01:34Z</time>
      </trkpt>
      <trkpt lat="42.86069" lon="2.37577">
        <ele>963</ele>
        <time>2023-09-09T10:01:35Z</time>
      </trkpt>
      <trkpt lat="42.86069" lon="2.37579">
        <ele>963</ele>
        <time>2023-09-09T10:01:36Z</time>
      </trkpt>
      <trkpt lat="42.86069" lon="2.37581">
        <ele>963</ele>
        <time>2023-09-09T10:01:37Z</time>
      </trkpt>
      <trkpt lat="42.86069" lon="2.37582">
        <ele>963</ele>
        <time>2023-09-09T10:01:38Z</time>
      </trkpt>
      <trkpt lat="42.8607" lon="2.37584">
        <ele>963</ele>
        <time>2023-09-09T10:01:39Z</time>
      </trkpt>
      <trkpt lat="42.8607" lon="2.37585">
        <ele>963</ele>
        <time>2023-09-09T10:01:40Z</time>
      </trkpt>
      <trkpt lat="42.8607" lon="2.37586">
        <ele>963</ele>
        <time>2023-09-09T10:01:41Z</time>
      </trkpt>
      <trkpt lat="42.8607" lon="2.37588">
        <ele>964</ele>
        <time>2023-09-09T10:01:42Z</time>
      </trkpt>
      <trkpt lat="42.8607" lon="2.37589">
        <ele>964</ele>
        <time>2023-09-09T10:01:43Z</time>
      </trkpt>
      <trkpt lat="42.8607" lon="2.3759">
        <ele>964</ele>
        <time>2023-09-09T10:01:44Z</time>
      </trkpt>
      <trkpt lat="42.86071" lon="2.3759">
        <ele>964</ele>
        <time>2023-09-09T10:01:45Z</time>
      </trkpt>
      <trkpt lat="42.86071" lon="2.37591">
        <ele>964</ele>
        <time>2023-09-09T10:01:46Z</time>
      </trkpt>
      <trkpt lat="42.86071" lon="2.37592">
        <ele>964</ele>
        <time>2023-09-09T10:01:47Z</time>
      </trkpt>
      <trkpt lat="42.86072" lon="2.37593">
        <ele>964</ele>
        <time>2023-09-09T10:01:48Z</time>
      </trkpt>
      <trkpt lat="42.86072" lon="2.37593">
        <ele>964</ele>
        <time>2023-09-09T10:01:49Z</time>
      </trkpt>
      <trkpt lat="42.86072" lon="2.37594">
        <ele>964</ele>
        <time>2023-09-09T10:01:50Z</time>
      </trkpt>
      <trkpt lat="42.86073" lon="2.37595">
        <ele>964</ele>
        <time>2023-09-09T10:01:51Z</time>
      </trkpt>
      <trkpt lat="42.86073" lon="2.37595">
        <ele>964</ele>
        <time>2023-09-09T10:01:52Z</time>
      </trkpt>
      <trkpt lat="42.86074" lon="2.37596">
        <ele>964</ele>
        <time>2023-09-09T10:01:53Z</time>
      </trkpt>
      <trkpt lat="42.86074" lon="2.37597">
        <ele>964</ele>
        <time>2023-09-09T10:01:54Z</time>
      </trkpt>
      <trkpt lat="42.86074" lon="2.37598">
        <ele>964</ele>
        <time>2023-09-09T10:01:55Z</time>
      </trkpt>
      <trkpt lat="42.86074" lon="2.37599">
        <ele>964</ele>
        <time>2023-09-09T10:01:56Z</time>
      </trkpt>
      <trkpt lat="42.86074" lon="2.376">
        <ele>965</ele>
        <time>2023-09-09T10:01:57Z</time>
      </trkpt>
      <trkpt lat="42.86074" lon="2.37601">
        <ele>965</ele>
        <time>2023-09-09T10:01:58Z</time>
      </trkpt>
      <trkpt lat="42.86074" lon="2.37603">
        <ele>965</ele>
        <time>2023-09-09T10:01:59Z</time>
      </trkpt>
      <trkpt lat="42.86073" lon="2.37604">
        <ele>966</ele>
        <time>2023-09-09T10:02:00Z</time>
      </trkpt>
      <trkpt lat="42.86073" lon="2.37605">
        <ele>966</ele>
        <time>2023-09-09T10:02:01Z</time>
      </trkpt>
      <trkpt lat="42.86073" lon="2.37606">
        <ele>967</ele>
        <time>2023-09-09T10:02:02Z</time>
      </trkpt>
      <trkpt lat="42.86073" lon="2.37607">
        <ele>967</ele>
        <time>2023-09-09T10:02:03Z</time>
      </trkpt>
      <trkpt lat="42.86073" lon="2.37609">
        <ele>967</ele>
        <time>2023-09-09T10:02:04Z</time>
      </trkpt>
      <trkpt lat="42.86073" lon="2.3761">
        <ele>967</ele>
        <time>2023-09-09T10:02:05Z</time>
      </trkpt>
      <trkpt lat="42.86073" lon="2.37613">
        <ele>967</ele>
        <time>2023-09-09T10:02:06Z</time>
      </trkpt>
      <trkpt lat="42.86072" lon="2.37615">
        <ele>968</ele>
        <time>2023-09-09T10:02:07Z</time>
      </trkpt>
      <trkpt lat="42.86072" lon="2.37617">
        <ele>968</ele>
        <time>2023-09-09T10:02:08Z</time>
      </trkpt>
      <trkpt lat="42.86072" lon="2.37619">
        <ele>968</ele>
        <time>2023-09-09T10:02:09Z</time>
      </trkpt>
      <trkpt lat="42.86071" lon="2.37622">
        <ele>968</ele>
        <time>2023-09-09T10:02:10Z</time>
      </trkpt>
      <trkpt lat="42.86071" lon="2.37624">
        <ele>968</ele>
        <time>2023-09-09T10:02:11Z</time>
      </trkpt>
      <trkpt lat="42.86071" lon="2.37627">
        <ele>968</ele>
        <time>2023-09-09T10:02:12Z</time>
      </trkpt>
      <trkpt lat="42.86071" lon="2.37629">
        <ele>968</ele>
        <time>2023-09-09T10:02:13Z</time>
      </trkpt>
      <trkpt lat="42.8607" lon="2.37632">
        <ele>968</ele>
        <time>2023-09-09T10:02:14Z</time>
      </trkpt>
      <trkpt lat="42.8607" lon="2.37634">
        <ele>968</ele>
        <time>2023-09-09T10:02:15Z</time>
      </trkpt>
      <trkpt lat="42.86071" lon="2.37636">
        <ele>968</ele>
        <time>2023-09-09T10:02:16Z</time>
      </trkpt>
      <trkpt lat="42.86071" lon="2.37638">
        <ele>969</ele>
        <time>2023-09-09T10:02:17Z</time>
      </trkpt>
      <trkpt lat="42.86071" lon="2.37639">
        <ele>969</ele>
        <time>2023-09-09T10:02:18Z</time>
      </trkpt>
      <trkpt lat="42.86071" lon="2.3764">
        <ele>969</ele>
        <time>2023-09-09T10:02:19Z</time>
      </trkpt>
      <trkpt lat="42.86072" lon="2.37641">
        <ele>970</ele>
        <time>2023-09-09T10:02:25Z</time>
      </trkpt>
      <trkpt lat="42.86073" lon="2.37641">
        <ele>970</ele>
        <time>2023-09-09T10:02:26Z</time>
      </trkpt>
      <trkpt lat="42.86073" lon="2.37642">
        <ele>971</ele>
        <time>2023-09-09T10:02:27Z</time>
      </trkpt>
      <trkpt lat="42.86074" lon="2.37642">
        <ele>971</ele>
        <time>2023-09-09T10:02:28Z</time>
      </trkpt>
      <trkpt lat="42.86075" lon="2.37642">
        <ele>971</ele>
        <time>2023-09-09T10:02:29Z</time>
      </trkpt>
      <trkpt lat="42.86075" lon="2.37643">
        <ele>971</ele>
        <time>2023-09-09T10:02:30Z</time>
      </trkpt>
      <trkpt lat="42.86076" lon="2.37643">
        <ele>971</ele>
        <time>2023-09-09T10:02:31Z</time>
      </trkpt>
      <trkpt lat="42.86076" lon="2.37643">
        <ele>971</ele>
        <time>2023-09-09T10:02:32Z</time>
      </trkpt>
      <trkpt lat="42.86077" lon="2.37644">
        <ele>971</ele>
        <time>2023-09-09T10:02:33Z</time>
      </trkpt>
      <trkpt lat="42.86078" lon="2.37644">
        <ele>971</ele>
        <time>2023-09-09T10:02:34Z</time>
      </trkpt>
      <trkpt lat="42.86078" lon="2.37644">
        <ele>971</ele>
        <time>2023-09-09T10:02:35Z</time>
      </trkpt>
      <trkpt lat="42.86079" lon="2.37645">
        <ele>971</ele>
        <time>2023-09-09T10:02:36Z</time>
      </trkpt>
      <trkpt lat="42.86079" lon="2.37646">
        <ele>972</ele>
        <time>2023-09-09T10:02:37Z</time>
      </trkpt>
      <trkpt lat="42.86079" lon="2.37647">
        <ele>972</ele>
        <time>2023-09-09T10:02:38Z</time>
      </trkpt>
      <trkpt lat="42.8608" lon="2.37648">
        <ele>972</ele>
        <time>2023-09-09T10:02:39Z</time>
      </trkpt>
      <trkpt lat="42.8608" lon="2.37649">
        <ele>972</ele>
        <time>2023-09-09T10:02:40Z</time>
      </trkpt>
      <trkpt lat="42.8608" lon="2.37651">
        <ele>972</ele>
        <time>2023-09-09T10:02:41Z</time>
      </trkpt>
      <trkpt lat="42.86095" lon="2.37657">
        <ele>978</ele>
        <time>2023-09-09T10:04:23Z</time>
      </trkpt>
      <trkpt lat="42.86098" lon="2.37657">
        <ele>978</ele>
        <time>2023-09-09T10:04:24Z</time>
      </trkpt>
      <trkpt lat="42.86098" lon="2.37656">
        <ele>978</ele>
        <time>2023-09-09T10:04:25Z</time>
      </trkpt>
      <trkpt lat="42.86098" lon="2.37656">
        <ele>978</ele>
        <time>2023-09-09T10:04:26Z</time>
      </trkpt>
      <trkpt lat="42.86098" lon="2.37655">
        <ele>978</ele>
        <time>2023-09-09T10:04:27Z</time>
      </trkpt>
      <trkpt lat="42.86099" lon="2.37655">
        <ele>978</ele>
        <time>2023-09-09T10:04:28Z</time>
      </trkpt>
      <trkpt lat="42.86099" lon="2.37655">
        <ele>978</ele>
        <time>2023-09-09T10:04:29Z</time>
      </trkpt>
      <trkpt lat="42.86099" lon="2.37654">
        <ele>978</ele>
        <time>2023-09-09T10:04:30Z</time>
      </trkpt>
      <trkpt lat="42.861" lon="2.37654">
        <ele>978</ele>
        <time>2023-09-09T10:04:31Z</time>
      </trkpt>
      <trkpt lat="42.861" lon="2.37654">
        <ele>978</ele>
        <time>2023-09-09T10:04:32Z</time>
      </trkpt>
      <trkpt lat="42.861" lon="2.37653">
        <ele>978</ele>
        <time>2023-09-09T10:04:33Z</time>
      </trkpt>
      <trkpt lat="42.86101" lon="2.37653">
        <ele>978</ele>
        <time>2023-09-09T10:04:34Z</time>
      </trkpt>
      <trkpt lat="42.86101" lon="2.37652">
        <ele>978</ele>
        <time>2023-09-09T10:04:35Z</time>
      </trkpt>
      <trkpt lat="42.86102" lon="2.37652">
        <ele>978</ele>
        <time>2023-09-09T10:04:36Z</time>
      </trkpt>
      <trkpt lat="42.86107" lon="2.37645">
        <ele>994</ele>
        <time>2023-09-09T10:05:00Z</time>
      </trkpt>
      <trkpt lat="42.86109" lon="2.37637">
        <ele>994</ele>
        <time>2023-09-09T10:05:07Z</time>
      </trkpt>
      <trkpt lat="42.8611" lon="2.37637">
        <ele>995</ele>
        <time>2023-09-09T10:05:08Z</time>
      </trkpt>
      <trkpt lat="42.8611" lon="2.37636">
        <ele>995</ele>
        <time>2023-09-09T10:05:09Z</time>
      </trkpt>
      <trkpt lat="42.8611" lon="2.37635">
        <ele>995</ele>
        <time>2023-09-09T10:05:10Z</time>
      </trkpt>
      <trkpt lat="42.8611" lon="2.37635">
        <ele>995</ele>
        <time>2023-09-09T10:05:11Z</time>
      </trkpt>
      <trkpt lat="42.86111" lon="2.37634">
        <ele>995</ele>
        <time>2023-09-09T10:05:12Z</time>
      </trkpt>
      <trkpt lat="42.86111" lon="2.37633">
        <ele>996</ele>
        <time>2023-09-09T10:05:13Z</time>
      </trkpt>
      <trkpt lat="42.86112" lon="2.37631">
        <ele>996</ele>
        <time>2023-09-09T10:05:14Z</time>
      </trkpt>
      <trkpt lat="42.86112" lon="2.3763">
        <ele>996</ele>
        <time>2023-09-09T10:05:15Z</time>
      </trkpt>
      <trkpt lat="42.86112" lon="2.37629">
        <ele>996</ele>
        <time>2023-09-09T10:05:16Z</time>
      </trkpt>
      <trkpt lat="42.86113" lon="2.37627">
        <ele>996</ele>
        <time>2023-09-09T10:05:17Z</time>
      </trkpt>
      <trkpt lat="42.86113" lon="2.37626">
        <ele>997</ele>
        <time>2023-09-09T10:05:18Z</time>
      </trkpt>
      <trkpt lat="42.86114" lon="2.37625">
        <ele>997</ele>
        <time>2023-09-09T10:05:19Z</time>
      </trkpt>
      <trkpt lat="42.86114" lon="2.37624">
        <ele>997</ele>
        <time>2023-09-09T10:05:20Z</time>
      </trkpt>
      <trkpt lat="42.86114" lon="2.37622">
        <ele>997</ele>
        <time>2023-09-09T10:05:21Z</time>
      </trkpt>
      <trkpt lat="42.86115" lon="2.37621">
        <ele>997</ele>
        <time>2023-09-09T10:05:22Z</time>
      </trkpt>
      <trkpt lat="42.86115" lon="2.3762">
        <ele>998</ele>
        <time>2023-09-09T10:05:23Z</time>
      </trkpt>
      <trkpt lat="42.86116" lon="2.37619">
        <ele>998</ele>
        <time>2023-09-09T10:05:24Z</time>
      </trkpt>
      <trkpt lat="42.86116" lon="2.37619">
        <ele>998</ele>
        <time>2023-09-09T10:05:25Z</time>
      </trkpt>
      <trkpt lat="42.86117" lon="2.37618">
        <ele>998</ele>
        <time>2023-09-09T10:05:26Z</time>
      </trkpt>
      <trkpt lat="42.86117" lon="2.37617">
        <ele>998</ele>
        <time>2023-09-09T10:05:27Z</time>
      </trkpt>
      <trkpt lat="42.86117" lon="2.37617">
        <ele>999</ele>
        <time>2023-09-09T10:05:28Z</time>
      </trkpt>
      <trkpt lat="42.86117" lon="2.37617">
        <ele>999</ele>
        <time>2023-09-09T10:05:29Z</time>
      </trkpt>
      <trkpt lat="42.86118" lon="2.37616">
        <ele>999</ele>
        <time>2023-09-09T10:05:30Z</time>
      </trkpt>
      <trkpt lat="42.86118" lon="2.37616">
        <ele>999</ele>
        <time>2023-09-09T10:05:31Z</time>
      </trkpt>
      <trkpt lat="42.86118" lon="2.37616">
        <ele>999</ele>
        <time>2023-09-09T10:05:32Z</time>
      </trkpt>
      <trkpt lat="42.86119" lon="2.37615">
        <ele>999</ele>
        <time>2023-09-09T10:05:33Z</time>
      </trkpt>
      <trkpt lat="42.86119" lon="2.37614">
        <ele>999</ele>
        <time>2023-09-09T10:05:34Z</time>
      </trkpt>
      <trkpt lat="42.86119" lon="2.37614">
        <ele>1000</ele>
        <time>2023-09-09T10:05:35Z</time>
      </trkpt>
      <trkpt lat="42.8612" lon="2.37613">
        <ele>1000</ele>
        <time>2023-09-09T10:05:36Z</time>
      </trkpt>
      <trkpt lat="42.8612" lon="2.37612">
        <ele>1001</ele>
        <time>2023-09-09T10:05:37Z</time>
      </trkpt>
      <trkpt lat="42.8612" lon="2.37612">
        <ele>1002</ele>
        <time>2023-09-09T10:05:38Z</time>
      </trkpt>
      <trkpt lat="42.86121" lon="2.37611">
        <ele>1002</ele>
        <time>2023-09-09T10:05:39Z</time>
      </trkpt>
      <trkpt lat="42.86121" lon="2.37611">
        <ele>1002</ele>
        <time>2023-09-09T10:05:40Z</time>
      </trkpt>
      <trkpt lat="42.86122" lon="2.3761">
        <ele>1002</ele>
        <time>2023-09-09T10:05:41Z</time>
      </trkpt>
      <trkpt lat="42.86122" lon="2.37609">
        <ele>1002</ele>
        <time>2023-09-09T10:05:42Z</time>
      </trkpt>
      <trkpt lat="42.86122" lon="2.37609">
        <ele>1003</ele>
        <time>2023-09-09T10:05:43Z</time>
      </trkpt>
      <trkpt lat="42.86123" lon="2.37608">
        <ele>1003</ele>
        <time>2023-09-09T10:05:44Z</time>
      </trkpt>
      <trkpt lat="42.86123" lon="2.37607">
        <ele>1003</ele>
        <time>2023-09-09T10:05:45Z</time>
      </trkpt>
      <trkpt lat="42.86124" lon="2.37606">
        <ele>1004</ele>
        <time>2023-09-09T10:05:46Z</time>
      </trkpt>
      <trkpt lat="42.86124" lon="2.37606">
        <ele>1004</ele>
        <time>2023-09-09T10:05:47Z</time>
      </trkpt>
      <trkpt lat="42.86124" lon="2.37605">
        <ele>1005</ele>
        <time>2023-09-09T10:05:48Z</time>
      </trkpt>
      <trkpt lat="42.86125" lon="2.37604">
        <ele>1005</ele>
        <time>2023-09-09T10:05:49Z</time>
      </trkpt>
      <trkpt lat="42.86125" lon="2.37603">
        <ele>1005</ele>
        <time>2023-09-09T10:05:50Z</time>
      </trkpt>
      <trkpt lat="42.86125" lon="2.37602">
        <ele>1005</ele>
        <time>2023-09-09T10:05:51Z</time>
      </trkpt>
      <trkpt lat="42.86126" lon="2.37602">
        <ele>1005</ele>
        <time>2023-09-09T10:05:52Z</time>
      </trkpt>
      <trkpt lat="42.86126" lon="2.37601">
        <ele>1006</ele>
        <time>2023-09-09T10:05:53Z</time>
      </trkpt>
      <trkpt lat="42.86126" lon="2.376">
        <ele>1006</ele>
        <time>2023-09-09T10:05:54Z</time>
      </trkpt>
      <trkpt lat="42.86126" lon="2.37599">
        <ele>1006</ele>
        <time>2023-09-09T10:05:55Z</time>
      </trkpt>
      <trkpt lat="42.86127" lon="2.37598">
        <ele>1007</ele>
        <time>2023-09-09T10:05:56Z</time>
      </trkpt>
      <trkpt lat="42.86127" lon="2.37597">
        <ele>1007</ele>
        <time>2023-09-09T10:05:57Z</time>
      </trkpt>
      <trkpt lat="42.86127" lon="2.37596">
        <ele>1008</ele>
        <time>2023-09-09T10:05:58Z</time>
      </trkpt>
      <trkpt lat="42.86128" lon="2.37595">
        <ele>1008</ele>
        <time>2023-09-09T10:05:59Z</time>
      </trkpt>
      <trkpt lat="42.86128" lon="2.37595">
        <ele>1008</ele>
        <time>2023-09-09T10:06:00Z</time>
      </trkpt>
      <trkpt lat="42.86129" lon="2.37594">
        <ele>1008</ele>
        <time>2023-09-09T10:06:01Z</time>
      </trkpt>
      <trkpt lat="42.86129" lon="2.37594">
        <ele>1008</ele>
        <time>2023-09-09T10:06:02Z</time>
      </trkpt>
      <trkpt lat="42.86129" lon="2.37594">
        <ele>1008</ele>
        <time>2023-09-09T10:06:03Z</time>
      </trkpt>
      <trkpt lat="42.86129" lon="2.37594">
        <ele>1008</ele>
        <time>2023-09-09T10:06:04Z</time>
      </trkpt>
      <trkpt lat="42.8613" lon="2.37593">
        <ele>1008</ele>
        <time>2023-09-09T10:06:05Z</time>
      </trkpt>
      <trkpt lat="42.8613" lon="2.37593">
        <ele>1008</ele>
        <time>2023-09-09T10:06:06Z</time>
      </trkpt>
      <trkpt lat="42.86131" lon="2.37593">
        <ele>1008</ele>
        <time>2023-09-09T10:06:07Z</time>
      </trkpt>
      <trkpt lat="42.86132" lon="2.37594">
        <ele>1009</ele>
        <time>2023-09-09T10:06:08Z</time>
      </trkpt>
      <trkpt lat="42.86132" lon="2.37594">
        <ele>1009</ele>
        <time>2023-09-09T10:06:09Z</time>
      </trkpt>
      <trkpt lat="42.86133" lon="2.37595">
        <ele>1009</ele>
        <time>2023-09-09T10:06:10Z</time>
      </trkpt>
      <trkpt lat="42.86133" lon="2.37595">
        <ele>1009</ele>
        <time>2023-09-09T10:06:11Z</time>
      </trkpt>
      <trkpt lat="42.86193" lon="2.37626">
        <ele>1046</ele>
        <time>2023-09-09T10:11:09Z</time>
      </trkpt>
      <trkpt lat="42.86193" lon="2.37625">
        <ele>1046</ele>
        <time>2023-09-09T10:11:10Z</time>
      </trkpt>
      <trkpt lat="42.86194" lon="2.37624">
        <ele>1046</ele>
        <time>2023-09-09T10:11:11Z</time>
      </trkpt>
      <trkpt lat="42.86194" lon="2.37624">
        <ele>1046</ele>
        <time>2023-09-09T10:11:12Z</time>
      </trkpt>
      <trkpt lat="42.86195" lon="2.37624">
        <ele>1046</ele>
        <time>2023-09-09T10:11:13Z</time>
      </trkpt>
      <trkpt lat="42.86196" lon="2.37623">
        <ele>1046</ele>
        <time>2023-09-09T10:11:14Z</time>
      </trkpt>
      <trkpt lat="42.86196" lon="2.37623">
        <ele>1046</ele>
        <time>2023-09-09T10:11:15Z</time>
      </trkpt>
      <trkpt lat="42.86197" lon="2.37623">
        <ele>1046</ele>
        <time>2023-09-09T10:11:16Z</time>
      </trkpt>
      <trkpt lat="42.86197" lon="2.37622">
        <ele>1046</ele>
        <time>2023-09-09T10:11:17Z</time>
      </trkpt>
      <trkpt lat="42.86198" lon="2.37622">
        <ele>1046</ele>
        <time>2023-09-09T10:11:18Z</time>
      </trkpt>
      <trkpt lat="42.86198" lon="2.37621">
        <ele>1046</ele>
        <time>2023-09-09T10:11:19Z</time>
      </trkpt>
      <trkpt lat="42.86199" lon="2.37621">
        <ele>1046</ele>
        <time>2023-09-09T10:11:20Z</time>
      </trkpt>
      <trkpt lat="42.86199" lon="2.3762">
        <ele>1047</ele>
        <time>2023-09-09T10:11:21Z</time>
      </trkpt>
      <trkpt lat="42.86199" lon="2.3762">
        <ele>1047</ele>
        <time>2023-09-09T10:11:22Z</time>
      </trkpt>
      <trkpt lat="42.86199" lon="2.3762">
        <ele>1048</ele>
        <time>2023-09-09T10:11:23Z</time>
      </trkpt>
      <trkpt lat="42.862" lon="2.37619">
        <ele>1049</ele>
        <time>2023-09-09T10:11:24Z</time>
      </trkpt>
      <trkpt lat="42.86201" lon="2.37619">
        <ele>1049</ele>
        <time>2023-09-09T10:11:25Z</time>
      </trkpt>
      <trkpt lat="42.86201" lon="2.37619">
        <ele>1050</ele>
        <time>2023-09-09T10:11:26Z</time>
      </trkpt>
      <trkpt lat="42.86201" lon="2.37619">
        <ele>1050</ele>
        <time>2023-09-09T10:11:27Z</time>
      </trkpt>
      <trkpt lat="42.86202" lon="2.37619">
        <ele>1051</ele>
        <time>2023-09-09T10:11:28Z</time>
      </trkpt>
      <trkpt lat="42.86202" lon="2.3762">
        <ele>1052</ele>
        <time>2023-09-09T10:11:29Z</time>
      </trkpt>
      <trkpt lat="42.86202" lon="2.37621">
        <ele>1052</ele>
        <time>2023-09-09T10:11:30Z</time>
      </trkpt>
      <trkpt lat="42.86202" lon="2.37622">
        <ele>1052</ele>
        <time>2023-09-09T10:11:31Z</time>
      </trkpt>
      <trkpt lat="42.86202" lon="2.37622">
        <ele>1052</ele>
        <time>2023-09-09T10:11:32Z</time>
      </trkpt>
      <trkpt lat="42.86202" lon="2.37623">
        <ele>1052</ele>
        <time>2023-09-09T10:11:33Z</time>
      </trkpt>
      <trkpt lat="42.86202" lon="2.37623">
        <ele>1053</ele>
        <time>2023-09-09T10:11:34Z</time>
      </trkpt>
      <trkpt lat="42.8626" lon="2.37699">
        <ele>1128</ele>
        <time>2023-09-09T10:19:50Z</time>
      </trkpt>
      <trkpt lat="42.86263" lon="2.37707">
        <ele>1135</ele>
        <time>2023-09-09T10:20:32Z</time>
      </trkpt>
      <trkpt lat="42.86264" lon="2.37707">
        <ele>1135</ele>
        <time>2023-09-09T10:20:33Z</time>
      </trkpt>
      <trkpt lat="42.86264" lon="2.37707">
        <ele>1135</ele>
        <time>2023-09-09T10:20:34Z</time>
      </trkpt>
      <trkpt lat="42.86265" lon="2.37707">
        <ele>1135</ele>
        <time>2023-09-09T10:20:35Z</time>
      </trkpt>
      <trkpt lat="42.86265" lon="2.37707">
        <ele>1136</ele>
        <time>2023-09-09T10:20:36Z</time>
      </trkpt>
      <trkpt lat="42.86266" lon="2.37708">
        <ele>1136</ele>
        <time>2023-09-09T10:20:37Z</time>
      </trkpt>
      <trkpt lat="42.86266" lon="2.37708">
        <ele>1136</ele>
        <time>2023-09-09T10:20:38Z</time>
      </trkpt>
      <trkpt lat="42.86268" lon="2.3771">
        <ele>1137</ele>
        <time>2023-09-09T10:20:48Z</time>
      </trkpt>
      <trkpt lat="42.86317" lon="2.3779">
        <ele>1173</ele>
        <time>2023-09-09T10:24:44Z</time>
      </trkpt>
      <trkpt lat="42.86317" lon="2.3779">
        <ele>1174</ele>
        <time>2023-09-09T10:24:45Z</time>
      </trkpt>
      <trkpt lat="42.86317" lon="2.37791">
        <ele>1174</ele>
        <time>2023-09-09T10:24:46Z</time>
      </trkpt>
      <trkpt lat="42.86317" lon="2.37791">
        <ele>1174</ele>
        <time>2023-09-09T10:24:47Z</time>
      </trkpt>
      <trkpt lat="42.86316" lon="2.37792">
        <ele>1174</ele>
        <time>2023-09-09T10:24:48Z</time>
      </trkpt>
      <trkpt lat="42.86316" lon="2.37793">
        <ele>1174</ele>
        <time>2023-09-09T10:24:49Z</time>
      </trkpt>
      <trkpt lat="42.86316" lon="2.37793">
        <ele>1175</ele>
        <time>2023-09-09T10:24:50Z</time>
      </trkpt>
      <trkpt lat="42.86316" lon="2.37794">
        <ele>1175</ele>
        <time>2023-09-09T10:24:51Z</time>
      </trkpt>
      <trkpt lat="42.86315" lon="2.37795">
        <ele>1176</ele>
        <time>2023-09-09T10:24:52Z</time>
      </trkpt>
      <trkpt lat="42.86315" lon="2.37795">
        <ele>1176</ele>
        <time>2023-09-09T10:24:53Z</time>
      </trkpt>
      <trkpt lat="42.86315" lon="2.37795">
        <ele>1177</ele>
        <time>2023-09-09T10:24:54Z</time>
      </trkpt>
      <trkpt lat="42.86314" lon="2.37796">
        <ele>1178</ele>
        <time>2023-09-09T10:24:55Z</time>
      </trkpt>
      <trkpt lat="42.86314" lon="2.37797">
        <ele>1178</ele>
        <time>2023-09-09T10:24:56Z</time>
      </trkpt>
      <trkpt lat="42.86313" lon="2.37797">
        <ele>1178</ele>
        <time>2023-09-09T10:24:57Z</time>
      </trkpt>
      <trkpt lat="42.86313" lon="2.37798">
        <ele>1178</ele>
        <time>2023-09-09T10:24:58Z</time>
      </trkpt>
      <trkpt lat="42.86315" lon="2.37805">
        <ele>1189</ele>
        <time>2023-09-09T10:25:51Z</time>
      </trkpt>
      <trkpt lat="42.86317" lon="2.37808">
        <ele>1189</ele>
        <time>2023-09-09T10:25:52Z</time>
      </trkpt>
      <trkpt lat="42.86319" lon="2.37812">
        <ele>1189</ele>
        <time>2023-09-09T10:25:53Z</time>
      </trkpt>
      <trkpt lat="42.86321" lon="2.37818">
        <ele>1193</ele>
        <time>2023-09-09T10:26:15Z</time>
      </trkpt>
      <trkpt lat="42.86328" lon="2.37861">
        <ele>1207</ele>
        <time>2023-09-09T10:27:53Z</time>
      </trkpt>
      <trkpt lat="42.86328" lon="2.37861">
        <ele>1207</ele>
        <time>2023-09-09T10:27:54Z</time>
      </trkpt>
      <trkpt lat="42.86328" lon="2.37862">
        <ele>1207</ele>
        <time>2023-09-09T10:27:55Z</time>
      </trkpt>
      <trkpt lat="42.86347" lon="2.3788">
        <ele>1217</ele>
        <time>2023-09-09T10:29:34Z</time>
      </trkpt>
      <trkpt lat="42.86348" lon="2.37881">
        <ele>1217</ele>
        <time>2023-09-09T10:29:35Z</time>
      </trkpt>
      <trkpt lat="42.86349" lon="2.37881">
        <ele>1217</ele>
        <time>2023-09-09T10:29:36Z</time>
      </trkpt>
      <trkpt lat="42.86349" lon="2.37882">
        <ele>1217</ele>
        <time>2023-09-09T10:29:37Z</time>
      </trkpt>
      <trkpt lat="42.8635" lon="2.37883">
        <ele>1217</ele>
        <time>2023-09-09T10:29:38Z</time>
      </trkpt>
      <trkpt lat="42.86351" lon="2.37883">
        <ele>1217</ele>
        <time>2023-09-09T10:29:39Z</time>
      </trkpt>
      <trkpt lat="42.86351" lon="2.37884">
        <ele>1217</ele>
        <time>2023-09-09T10:29:40Z</time>
      </trkpt>
      <trkpt lat="42.86352" lon="2.37884">
        <ele>1217</ele>
        <time>2023-09-09T10:29:41Z</time>
      </trkpt>
      <trkpt lat="42.86353" lon="2.37885">
        <ele>1217</ele>
        <time>2023-09-09T10:29:42Z</time>
      </trkpt>
      <trkpt lat="42.86353" lon="2.37885">
        <ele>1217</ele>
        <time>2023-09-09T10:29:43Z</time>
      </trkpt>
      <trkpt lat="42.86354" lon="2.37886">
        <ele>1217</ele>
        <time>2023-09-09T10:29:44Z</time>
      </trkpt>
      <trkpt lat="42.86355" lon="2.37886">
        <ele>1217</ele>
        <time>2023-09-09T10:29:45Z</time>
      </trkpt>
      <trkpt lat="42.86357" lon="2.37886">
        <ele>1222</ele>
        <time>2023-09-09T10:30:02Z</time>
      </trkpt>
      <trkpt lat="42.86359" lon="2.37886">
        <ele>1223</ele>
        <time>2023-09-09T10:30:03Z</time>
      </trkpt>
      <trkpt lat="42.8636" lon="2.37886">
        <ele>1223</ele>
        <time>2023-09-09T10:30:04Z</time>
      </trkpt>
      <trkpt lat="42.86361" lon="2.37886">
        <ele>1224</ele>
        <time>2023-09-09T10:30:05Z</time>
      </trkpt>
      <trkpt lat="42.86362" lon="2.37886">
        <ele>1224</ele>
        <time>2023-09-09T10:30:06Z</time>
      </trkpt>
      <trkpt lat="42.86363" lon="2.37886">
        <ele>1224</ele>
        <time>2023-09-09T10:30:07Z</time>
      </trkpt>
      <trkpt lat="42.86364" lon="2.37886">
        <ele>1224</ele>
        <time>2023-09-09T10:30:08Z</time>
      </trkpt>
      <trkpt lat="42.86365" lon="2.37886">
        <ele>1224</ele>
        <time>2023-09-09T10:30:09Z</time>
      </trkpt>
      <trkpt lat="42.86365" lon="2.37886">
        <ele>1225</ele>
        <time>2023-09-09T10:30:10Z</time>
      </trkpt>
      <trkpt lat="42.86366" lon="2.37886">
        <ele>1225</ele>
        <time>2023-09-09T10:30:11Z</time>
      </trkpt>
      <trkpt lat="42.86367" lon="2.37886">
        <ele>1225</ele>
        <time>2023-09-09T10:30:12Z</time>
      </trkpt>
      <trkpt lat="42.86368" lon="2.37885">
        <ele>1225</ele>
        <time>2023-09-09T10:30:13Z</time>
      </trkpt>
      <trkpt lat="42.86368" lon="2.37885">
        <ele>1225</ele>
        <time>2023-09-09T10:30:14Z</time>
      </trkpt>
      <trkpt lat="42.86374" lon="2.3788">
        <ele>1229</ele>
        <time>2023-09-09T10:31:36Z</time>
      </trkpt>
      <trkpt lat="42.86375" lon="2.37879">
        <ele>1229</ele>
        <time>2023-09-09T10:31:37Z</time>
      </trkpt>
      <trkpt lat="42.86376" lon="2.37879">
        <ele>1229</ele>
        <time>2023-09-09T10:31:38Z</time>
      </trkpt>
      <trkpt lat="42.86376" lon="2.37879">
        <ele>1229</ele>
        <time>2023-09-09T10:31:39Z</time>
      </trkpt>
      <trkpt lat="42.86377" lon="2.37879">
        <ele>1229</ele>
        <time>2023-09-09T10:31:40Z</time>
      </trkpt>
      <trkpt lat="42.86378" lon="2.37879">
        <ele>1229</ele>
        <time>2023-09-09T10:31:41Z</time>
      </trkpt>
      <trkpt lat="42.86379" lon="2.37878">
        <ele>1229</ele>
        <time>2023-09-09T10:31:42Z</time>
      </trkpt>
      <trkpt lat="42.86379" lon="2.37878">
        <ele>1229</ele>
        <time>2023-09-09T10:31:43Z</time>
      </trkpt>
      <trkpt lat="42.8638" lon="2.37878">
        <ele>1228</ele>
        <time>2023-09-09T10:31:44Z</time>
      </trkpt>
      <trkpt lat="42.86381" lon="2.37878">
        <ele>1228</ele>
        <time>2023-09-09T10:31:45Z</time>
      </trkpt>
      <trkpt lat="42.86382" lon="2.37877">
        <ele>1227</ele>
        <time>2023-09-09T10:31:46Z</time>
      </trkpt>
      <trkpt lat="42.86383" lon="2.37877">
        <ele>1227</ele>
        <time>2023-09-09T10:31:47Z</time>
      </trkpt>
      <trkpt lat="42.86383" lon="2.37877">
        <ele>1227</ele>
        <time>2023-09-09T10:31:48Z</time>
      </trkpt>
      <trkpt lat="42.86384" lon="2.37877">
        <ele>1226</ele>
        <time>2023-09-09T10:31:49Z</time>
      </trkpt>
      <trkpt lat="42.86384" lon="2.37877">
        <ele>1226</ele>
        <time>2023-09-09T10:31:50Z</time>
      </trkpt>
      <trkpt lat="42.86385" lon="2.37876">
        <ele>1226</ele>
        <time>2023-09-09T10:31:51Z</time>
      </trkpt>
      <trkpt lat="42.86385" lon="2.37876">
        <ele>1226</ele>
        <time>2023-09-09T10:31:52Z</time>
      </trkpt>
      <trkpt lat="42.86386" lon="2.37876">
        <ele>1226</ele>
        <time>2023-09-09T10:31:53Z</time>
      </trkpt>
      <trkpt lat="42.86386" lon="2.37876">
        <ele>1225</ele>
        <time>2023-09-09T10:31:54Z</time>
      </trkpt>
      <trkpt lat="42.86386" lon="2.37875">
        <ele>1225</ele>
        <time>2023-09-09T10:31:55Z</time>
      </trkpt>
      <trkpt lat="42.86387" lon="2.37874">
        <ele>1225</ele>
        <time>2023-09-09T10:31:56Z</time>
      </trkpt>
      <trkpt lat="42.86387" lon="2.37874">
        <ele>1225</ele>
        <time>2023-09-09T10:31:57Z</time>
      </trkpt>
      <trkpt lat="42.86388" lon="2.37873">
        <ele>1225</ele>
        <time>2023-09-09T10:31:58Z</time>
      </trkpt>
      <trkpt lat="42.86388" lon="2.37873">
        <ele>1225</ele>
        <time>2023-09-09T10:31:59Z</time>
      </trkpt>
      <trkpt lat="42.86388" lon="2.37873">
        <ele>1225</ele>
        <time>2023-09-09T10:32:00Z</time>
      </trkpt>
      <trkpt lat="42.86388" lon="2.37873">
        <ele>1225</ele>
        <time>2023-09-09T10:32:01Z</time>
      </trkpt>
      <trkpt lat="42.86388" lon="2.37873">
        <ele>1225</ele>
        <time>2023-09-09T10:32:02Z</time>
      </trkpt>
      <trkpt lat="42.86389" lon="2.37872">
        <ele>1225</ele>
        <time>2023-09-09T10:32:03Z</time>
      </trkpt>
      <trkpt lat="42.86389" lon="2.37871">
        <ele>1224</ele>
        <time>2023-09-09T10:32:04Z</time>
      </trkpt>
      <trkpt lat="42.8639" lon="2.37868">
        <ele>1221</ele>
        <time>2023-09-09T10:32:20Z</time>
      </trkpt>
      <trkpt lat="42.86391" lon="2.37867">
        <ele>1221</ele>
        <time>2023-09-09T10:32:21Z</time>
      </trkpt>
      <trkpt lat="42.86392" lon="2.37866">
        <ele>1221</ele>
        <time>2023-09-09T10:32:22Z</time>
      </trkpt>
      <trkpt lat="42.86392" lon="2.37865">
        <ele>1221</ele>
        <time>2023-09-09T10:32:23Z</time>
      </trkpt>
      <trkpt lat="42.86393" lon="2.37865">
        <ele>1220</ele>
        <time>2023-09-09T10:32:24Z</time>
      </trkpt>
      <trkpt lat="42.86394" lon="2.37865">
        <ele>1220</ele>
        <time>2023-09-09T10:32:25Z</time>
      </trkpt>
      <trkpt lat="42.86394" lon="2.37865">
        <ele>1219</ele>
        <time>2023-09-09T10:32:26Z</time>
      </trkpt>
      <trkpt lat="42.86395" lon="2.37865">
        <ele>1219</ele>
        <time>2023-09-09T10:32:27Z</time>
      </trkpt>
      <trkpt lat="42.86396" lon="2.37864">
        <ele>1219</ele>
        <time>2023-09-09T10:32:28Z</time>
      </trkpt>
      <trkpt lat="42.86396" lon="2.37864">
        <ele>1218</ele>
        <time>2023-09-09T10:32:29Z</time>
      </trkpt>
      <trkpt lat="42.86397" lon="2.37864">
        <ele>1218</ele>
        <time>2023-09-09T10:32:30Z</time>
      </trkpt>
      <trkpt lat="42.86398" lon="2.37864">
        <ele>1217</ele>
        <time>2023-09-09T10:32:31Z</time>
      </trkpt>
      <trkpt lat="42.86398" lon="2.37863">
        <ele>1217</ele>
        <time>2023-09-09T10:32:32Z</time>
      </trkpt>
      <trkpt lat="42.864" lon="2.37864">
        <ele>1217</ele>
        <time>2023-09-09T10:32:33Z</time>
      </trkpt>
      <trkpt lat="42.86401" lon="2.37864">
        <ele>1216</ele>
        <time>2023-09-09T10:32:34Z</time>
      </trkpt>
      <trkpt lat="42.86402" lon="2.37865">
        <ele>1216</ele>
        <time>2023-09-09T10:32:35Z</time>
      </trkpt>
      <trkpt lat="42.86403" lon="2.37865">
        <ele>1216</ele>
        <time>2023-09-09T10:32:36Z</time>
      </trkpt>
      <trkpt lat="42.86404" lon="2.37866">
        <ele>1216</ele>
        <time>2023-09-09T10:32:37Z</time>
      </trkpt>
      <trkpt lat="42.86405" lon="2.37866">
        <ele>1216</ele>
        <time>2023-09-09T10:32:38Z</time>
      </trkpt>
      <trkpt lat="42.86406" lon="2.37866">
        <ele>1215</ele>
        <time>2023-09-09T10:32:39Z</time>
      </trkpt>
      <trkpt lat="42.86406" lon="2.37866">
        <ele>1215</ele>
        <time>2023-09-09T10:32:40Z</time>
      </trkpt>
      <trkpt lat="42.86407" lon="2.37866">
        <ele>1215</ele>
        <time>2023-09-09T10:32:41Z</time>
      </trkpt>
      <trkpt lat="42.86408" lon="2.37866">
        <ele>1215</ele>
        <time>2023-09-09T10:32:42Z</time>
      </trkpt>
      <trkpt lat="42.86408" lon="2.37865">
        <ele>1215</ele>
        <time>2023-09-09T10:32:43Z</time>
      </trkpt>
      <trkpt lat="42.86409" lon="2.37865">
        <ele>1215</ele>
        <time>2023-09-09T10:32:44Z</time>
      </trkpt>
      <trkpt lat="42.86409" lon="2.37864">
        <ele>1215</ele>
        <time>2023-09-09T10:32:45Z</time>
      </trkpt>
      <trkpt lat="42.8641" lon="2.37864">
        <ele>1215</ele>
        <time>2023-09-09T10:32:46Z</time>
      </trkpt>
      <trkpt lat="42.86411" lon="2.37863">
        <ele>1215</ele>
        <time>2023-09-09T10:32:47Z</time>
      </trkpt>
      <trkpt lat="42.86411" lon="2.37863">
        <ele>1215</ele>
        <time>2023-09-09T10:32:48Z</time>
      </trkpt>
      <trkpt lat="42.86412" lon="2.37862">
        <ele>1214</ele>
        <time>2023-09-09T10:32:49Z</time>
      </trkpt>
      <trkpt lat="42.86413" lon="2.37861">
        <ele>1214</ele>
        <time>2023-09-09T10:32:50Z</time>
      </trkpt>
      <trkpt lat="42.86414" lon="2.37861">
        <ele>1214</ele>
        <time>2023-09-09T10:32:51Z</time>
      </trkpt>
      <trkpt lat="42.86415" lon="2.3786">
        <ele>1214</ele>
        <time>2023-09-09T10:32:52Z</time>
      </trkpt>
      <trkpt lat="42.86423" lon="2.3786">
        <ele>1212</ele>
        <time>2023-09-09T10:33:08Z</time>
      </trkpt>
      <trkpt lat="42.86426" lon="2.3786">
        <ele>1212</ele>
        <time>2023-09-09T10:33:09Z</time>
      </trkpt>
      <trkpt lat="42.86429" lon="2.3786">
        <ele>1212</ele>
        <time>2023-09-09T10:33:10Z</time>
      </trkpt>
      <trkpt lat="42.8643" lon="2.37859">
        <ele>1212</ele>
        <time>2023-09-09T10:33:11Z</time>
      </trkpt>
      <trkpt lat="42.86432" lon="2.37859">
        <ele>1212</ele>
        <time>2023-09-09T10:33:12Z</time>
      </trkpt>
      <trkpt lat="42.86433" lon="2.37859">
        <ele>1212</ele>
        <time>2023-09-09T10:33:13Z</time>
      </trkpt>
      <trkpt lat="42.86435" lon="2.37858">
        <ele>1212</ele>
        <time>2023-09-09T10:33:14Z</time>
      </trkpt>
      <trkpt lat="42.86437" lon="2.37858">
        <ele>1212</ele>
        <time>2023-09-09T10:33:15Z</time>
      </trkpt>
      <trkpt lat="42.86439" lon="2.37858">
        <ele>1212</ele>
        <time>2023-09-09T10:33:16Z</time>
      </trkpt>
      <trkpt lat="42.86442" lon="2.37858">
        <ele>1212</ele>
        <time>2023-09-09T10:33:17Z</time>
      </trkpt>
      <trkpt lat="42.86444" lon="2.37858">
        <ele>1212</ele>
        <time>2023-09-09T10:33:18Z</time>
      </trkpt>
      <trkpt lat="42.86446" lon="2.37857">
        <ele>1212</ele>
        <time>2023-09-09T10:33:19Z</time>
      </trkpt>
      <trkpt lat="42.86448" lon="2.37857">
        <ele>1212</ele>
        <time>2023-09-09T10:33:20Z</time>
      </trkpt>
      <trkpt lat="42.86449" lon="2.37857">
        <ele>1212</ele>
        <time>2023-09-09T10:33:21Z</time>
      </trkpt>
      <trkpt lat="42.86451" lon="2.37857">
        <ele>1212</ele>
        <time>2023-09-09T10:33:22Z</time>
      </trkpt>
      <trkpt lat="42.86453" lon="2.37857">
        <ele>1212</ele>
        <time>2023-09-09T10:33:23Z</time>
      </trkpt>
      <trkpt lat="42.86455" lon="2.37856">
        <ele>1212</ele>
        <time>2023-09-09T10:33:24Z</time>
      </trkpt>
      <trkpt lat="42.86456" lon="2.37856">
        <ele>1212</ele>
        <time>2023-09-09T10:33:25Z</time>
      </trkpt>
      <trkpt lat="42.86458" lon="2.37856">
        <ele>1212</ele>
        <time>2023-09-09T10:33:26Z</time>
      </trkpt>
      <trkpt lat="42.86459" lon="2.37856">
        <ele>1212</ele>
        <time>2023-09-09T10:33:27Z</time>
      </trkpt>
      <trkpt lat="42.8646" lon="2.37855">
        <ele>1212</ele>
        <time>2023-09-09T10:33:28Z</time>
      </trkpt>
      <trkpt lat="42.86462" lon="2.37855">
        <ele>1212</ele>
        <time>2023-09-09T10:33:29Z</time>
      </trkpt>
      <trkpt lat="42.86463" lon="2.37855">
        <ele>1212</ele>
        <time>2023-09-09T10:33:30Z</time>
      </trkpt>
      <trkpt lat="42.86464" lon="2.37855">
        <ele>1212</ele>
        <time>2023-09-09T10:33:31Z</time>
      </trkpt>
      <trkpt lat="42.86466" lon="2.37855">
        <ele>1212</ele>
        <time>2023-09-09T10:33:32Z</time>
      </trkpt>
      <trkpt lat="42.86467" lon="2.37855">
        <ele>1212</ele>
        <time>2023-09-09T10:33:33Z</time>
      </trkpt>
      <trkpt lat="42.86469" lon="2.37855">
        <ele>1212</ele>
        <time>2023-09-09T10:33:34Z</time>
      </trkpt>
      <trkpt lat="42.86471" lon="2.37854">
        <ele>1212</ele>
        <time>2023-09-09T10:33:35Z</time>
      </trkpt>
      <trkpt lat="42.86472" lon="2.37854">
        <ele>1212</ele>
        <time>2023-09-09T10:33:36Z</time>
      </trkpt>
      <trkpt lat="42.86474" lon="2.37853">
        <ele>1212</ele>
        <time>2023-09-09T10:33:37Z</time>
      </trkpt>
      <trkpt lat="42.86476" lon="2.37853">
        <ele>1212</ele>
        <time>2023-09-09T10:33:38Z</time>
      </trkpt>
      <trkpt lat="42.86478" lon="2.37853">
        <ele>1212</ele>
        <time>2023-09-09T10:33:39Z</time>
      </trkpt>
      <trkpt lat="42.8648" lon="2.37852">
        <ele>1212</ele>
        <time>2023-09-09T10:33:40Z</time>
      </trkpt>
      <trkpt lat="42.86481" lon="2.37852">
        <ele>1212</ele>
        <time>2023-09-09T10:33:41Z</time>
      </trkpt>
      <trkpt lat="42.86483" lon="2.37851">
        <ele>1212</ele>
        <time>2023-09-09T10:33:42Z</time>
      </trkpt>
      <trkpt lat="42.86484" lon="2.37851">
        <ele>1212</ele>
        <time>2023-09-09T10:33:43Z</time>
      </trkpt>
      <trkpt lat="42.86486" lon="2.37851">
        <ele>1212</ele>
        <time>2023-09-09T10:33:44Z</time>
      </trkpt>
      <trkpt lat="42.86487" lon="2.3785">
        <ele>1212</ele>
        <time>2023-09-09T10:33:45Z</time>
      </trkpt>
      <trkpt lat="42.86488" lon="2.3785">
        <ele>1212</ele>
        <time>2023-09-09T10:33:46Z</time>
      </trkpt>
      <trkpt lat="42.8649" lon="2.3785">
        <ele>1212</ele>
        <time>2023-09-09T10:33:47Z</time>
      </trkpt>
      <trkpt lat="42.86491" lon="2.37849">
        <ele>1212</ele>
        <time>2023-09-09T10:33:48Z</time>
      </trkpt>
      <trkpt lat="42.86492" lon="2.37849">
        <ele>1212</ele>
        <time>2023-09-09T10:33:49Z</time>
      </trkpt>
      <trkpt lat="42.86493" lon="2.37848">
        <ele>1212</ele>
        <time>2023-09-09T10:33:50Z</time>
      </trkpt>
      <trkpt lat="42.86495" lon="2.37848">
        <ele>1212</ele>
        <time>2023-09-09T10:33:51Z</time>
      </trkpt>
      <trkpt lat="42.86496" lon="2.37848">
        <ele>1212</ele>
        <time>2023-09-09T10:33:52Z</time>
      </trkpt>
      <trkpt lat="42.86497" lon="2.37847">
        <ele>1212</ele>
        <time>2023-09-09T10:33:53Z</time>
      </trkpt>
      <trkpt lat="42.86499" lon="2.37847">
        <ele>1212</ele>
        <time>2023-09-09T10:33:54Z</time>
      </trkpt>
      <trkpt lat="42.865" lon="2.37847">
        <ele>1211</ele>
        <time>2023-09-09T10:33:55Z</time>
      </trkpt>
      <trkpt lat="42.86501" lon="2.37847">
        <ele>1211</ele>
        <time>2023-09-09T10:33:56Z</time>
      </trkpt>
      <trkpt lat="42.86502" lon="2.37846">
        <ele>1210</ele>
        <time>2023-09-09T10:33:57Z</time>
      </trkpt>
      <trkpt lat="42.86504" lon="2.37846">
        <ele>1210</ele>
        <time>2023-09-09T10:33:58Z</time>
      </trkpt>
      <trkpt lat="42.86505" lon="2.37845">
        <ele>1210</ele>
        <time>2023-09-09T10:33:59Z</time>
      </trkpt>
      <trkpt lat="42.86505" lon="2.37844">
        <ele>1210</ele>
        <time>2023-09-09T10:34:00Z</time>
      </trkpt>
      <trkpt lat="42.86506" lon="2.37844">
        <ele>1210</ele>
        <time>2023-09-09T10:34:01Z</time>
      </trkpt>
      <trkpt lat="42.86507" lon="2.37843">
        <ele>1210</ele>
        <time>2023-09-09T10:34:02Z</time>
      </trkpt>
      <trkpt lat="42.86508" lon="2.37843">
        <ele>1210</ele>
        <time>2023-09-09T10:34:03Z</time>
      </trkpt>
      <trkpt lat="42.86509" lon="2.37843">
        <ele>1210</ele>
        <time>2023-09-09T10:34:04Z</time>
      </trkpt>
      <trkpt lat="42.8651" lon="2.37843">
        <ele>1209</ele>
        <time>2023-09-09T10:34:05Z</time>
      </trkpt>
      <trkpt lat="42.86512" lon="2.37844">
        <ele>1209</ele>
        <time>2023-09-09T10:34:06Z</time>
      </trkpt>
      <trkpt lat="42.86513" lon="2.37844">
        <ele>1209</ele>
        <time>2023-09-09T10:34:07Z</time>
      </trkpt>
      <trkpt lat="42.86514" lon="2.37844">
        <ele>1209</ele>
        <time>2023-09-09T10:34:08Z</time>
      </trkpt>
      <trkpt lat="42.86515" lon="2.37845">
        <ele>1209</ele>
        <time>2023-09-09T10:34:09Z</time>
      </trkpt>
      <trkpt lat="42.86516" lon="2.37845">
        <ele>1209</ele>
        <time>2023-09-09T10:34:10Z</time>
      </trkpt>
      <trkpt lat="42.86517" lon="2.37845">
        <ele>1209</ele>
        <time>2023-09-09T10:34:11Z</time>
      </trkpt>
      <trkpt lat="42.86518" lon="2.37845">
        <ele>1209</ele>
        <time>2023-09-09T10:34:12Z</time>
      </trkpt>
      <trkpt lat="42.8652" lon="2.37846">
        <ele>1209</ele>
        <time>2023-09-09T10:34:13Z</time>
      </trkpt>
      <trkpt lat="42.86521" lon="2.37846">
        <ele>1209</ele>
        <time>2023-09-09T10:34:14Z</time>
      </trkpt>
      <trkpt lat="42.86522" lon="2.37846">
        <ele>1209</ele>
        <time>2023-09-09T10:34:15Z</time>
      </trkpt>
      <trkpt lat="42.86524" lon="2.37846">
        <ele>1209</ele>
        <time>2023-09-09T10:34:16Z</time>
      </trkpt>
      <trkpt lat="42.86525" lon="2.37847">
        <ele>1209</ele>
        <time>2023-09-09T10:34:17Z</time>
      </trkpt>
      <trkpt lat="42.86526" lon="2.37847">
        <ele>1209</ele>
        <time>2023-09-09T10:34:18Z</time>
      </trkpt>
      <trkpt lat="42.86527" lon="2.37848">
        <ele>1209</ele>
        <time>2023-09-09T10:34:19Z</time>
      </trkpt>
      <trkpt lat="42.86528" lon="2.37849">
        <ele>1209</ele>
        <time>2023-09-09T10:34:20Z</time>
      </trkpt>
      <trkpt lat="42.86529" lon="2.37849">
        <ele>1209</ele>
        <time>2023-09-09T10:34:21Z</time>
      </trkpt>
      <trkpt lat="42.86531" lon="2.3785">
        <ele>1209</ele>
        <time>2023-09-09T10:34:22Z</time>
      </trkpt>
      <trkpt lat="42.86532" lon="2.37851">
        <ele>1209</ele>
        <time>2023-09-09T10:34:23Z</time>
      </trkpt>
      <trkpt lat="42.86533" lon="2.37852">
        <ele>1209</ele>
        <time>2023-09-09T10:34:24Z</time>
      </trkpt>
      <trkpt lat="42.86535" lon="2.37853">
        <ele>1208</ele>
        <time>2023-09-09T10:34:25Z</time>
      </trkpt>
      <trkpt lat="42.86536" lon="2.37854">
        <ele>1208</ele>
        <time>2023-09-09T10:34:26Z</time>
      </trkpt>
      <trkpt lat="42.86538" lon="2.37855">
        <ele>1208</ele>
        <time>2023-09-09T10:34:27Z</time>
      </trkpt>
      <trkpt lat="42.86539" lon="2.37855">
        <ele>1208</ele>
        <time>2023-09-09T10:34:28Z</time>
      </trkpt>
      <trkpt lat="42.86541" lon="2.37856">
        <ele>1208</ele>
        <time>2023-09-09T10:34:29Z</time>
      </trkpt>
      <trkpt lat="42.86542" lon="2.37857">
        <ele>1208</ele>
        <time>2023-09-09T10:34:30Z</time>
      </trkpt>
      <trkpt lat="42.86544" lon="2.37857">
        <ele>1208</ele>
        <time>2023-09-09T10:34:31Z</time>
      </trkpt>
      <trkpt lat="42.86545" lon="2.37858">
        <ele>1208</ele>
        <time>2023-09-09T10:34:32Z</time>
      </trkpt>
      <trkpt lat="42.86547" lon="2.37858">
        <ele>1208</ele>
        <time>2023-09-09T10:34:33Z</time>
      </trkpt>
      <trkpt lat="42.86548" lon="2.37858">
        <ele>1208</ele>
        <time>2023-09-09T10:34:34Z</time>
      </trkpt>
      <trkpt lat="42.86549" lon="2.37858">
        <ele>1208</ele>
        <time>2023-09-09T10:34:35Z</time>
      </trkpt>
      <trkpt lat="42.86551" lon="2.37858">
        <ele>1208</ele>
        <time>2023-09-09T10:34:36Z</time>
      </trkpt>
      <trkpt lat="42.86552" lon="2.37858">
        <ele>1208</ele>
        <time>2023-09-09T10:34:37Z</time>
      </trkpt>
      <trkpt lat="42.86553" lon="2.37858">
        <ele>1208</ele>
        <time>2023-09-09T10:34:38Z</time>
      </trkpt>
      <trkpt lat="42.86555" lon="2.37858">
        <ele>1208</ele>
        <time>2023-09-09T10:34:39Z</time>
      </trkpt>
      <trkpt lat="42.86556" lon="2.37858">
        <ele>1207</ele>
        <time>2023-09-09T10:34:40Z</time>
      </trkpt>
      <trkpt lat="42.86557" lon="2.37857">
        <ele>1207</ele>
        <time>2023-09-09T10:34:41Z</time>
      </trkpt>
      <trkpt lat="42.86557" lon="2.37857">
        <ele>1207</ele>
        <time>2023-09-09T10:34:42Z</time>
      </trkpt>
      <trkpt lat="42.86558" lon="2.37857">
        <ele>1207</ele>
        <time>2023-09-09T10:34:43Z</time>
      </trkpt>
      <trkpt lat="42.86559" lon="2.37857">
        <ele>1207</ele>
        <time>2023-09-09T10:34:44Z</time>
      </trkpt>
      <trkpt lat="42.8656" lon="2.37857">
        <ele>1206</ele>
        <time>2023-09-09T10:34:45Z</time>
      </trkpt>
      <trkpt lat="42.86562" lon="2.37857">
        <ele>1206</ele>
        <time>2023-09-09T10:34:46Z</time>
      </trkpt>
      <trkpt lat="42.86563" lon="2.37857">
        <ele>1206</ele>
        <time>2023-09-09T10:34:47Z</time>
      </trkpt>
      <trkpt lat="42.86565" lon="2.37858">
        <ele>1206</ele>
        <time>2023-09-09T10:34:48Z</time>
      </trkpt>
      <trkpt lat="42.86566" lon="2.37858">
        <ele>1206</ele>
        <time>2023-09-09T10:34:49Z</time>
      </trkpt>
      <trkpt lat="42.86568" lon="2.37859">
        <ele>1205</ele>
        <time>2023-09-09T10:34:50Z</time>
      </trkpt>
      <trkpt lat="42.8657" lon="2.3786">
        <ele>1205</ele>
        <time>2023-09-09T10:34:51Z</time>
      </trkpt>
      <trkpt lat="42.86571" lon="2.37861">
        <ele>1205</ele>
        <time>2023-09-09T10:34:52Z</time>
      </trkpt>
      <trkpt lat="42.86573" lon="2.37862">
        <ele>1205</ele>
        <time>2023-09-09T10:34:53Z</time>
      </trkpt>
      <trkpt lat="42.86574" lon="2.37862">
        <ele>1205</ele>
        <time>2023-09-09T10:34:54Z</time>
      </trkpt>
      <trkpt lat="42.86576" lon="2.37863">
        <ele>1205</ele>
        <time>2023-09-09T10:34:55Z</time>
      </trkpt>
      <trkpt lat="42.86577" lon="2.37864">
        <ele>1205</ele>
        <time>2023-09-09T10:34:56Z</time>
      </trkpt>
      <trkpt lat="42.86579" lon="2.37864">
        <ele>1205</ele>
        <time>2023-09-09T10:34:57Z</time>
      </trkpt>
      <trkpt lat="42.8658" lon="2.37865">
        <ele>1205</ele>
        <time>2023-09-09T10:34:58Z</time>
      </trkpt>
      <trkpt lat="42.86581" lon="2.37866">
        <ele>1205</ele>
        <time>2023-09-09T10:34:59Z</time>
      </trkpt>
      <trkpt lat="42.86582" lon="2.37866">
        <ele>1204</ele>
        <time>2023-09-09T10:35:00Z</time>
      </trkpt>
      <trkpt lat="42.86584" lon="2.37867">
        <ele>1204</ele>
        <time>2023-09-09T10:35:01Z</time>
      </trkpt>
      <trkpt lat="42.86585" lon="2.37867">
        <ele>1203</ele>
        <time>2023-09-09T10:35:02Z</time>
      </trkpt>
      <trkpt lat="42.86586" lon="2.37868">
        <ele>1203</ele>
        <time>2023-09-09T10:35:03Z</time>
      </trkpt>
      <trkpt lat="42.86587" lon="2.37868">
        <ele>1203</ele>
        <time>2023-09-09T10:35:04Z</time>
      </trkpt>
      <trkpt lat="42.86588" lon="2.37868">
        <ele>1202</ele>
        <time>2023-09-09T10:35:05Z</time>
      </trkpt>
      <trkpt lat="42.86589" lon="2.37868">
        <ele>1202</ele>
        <time>2023-09-09T10:35:06Z</time>
      </trkpt>
      <trkpt lat="42.8659" lon="2.37868">
        <ele>1202</ele>
        <time>2023-09-09T10:35:07Z</time>
      </trkpt>
      <trkpt lat="42.86591" lon="2.37868">
        <ele>1202</ele>
        <time>2023-09-09T10:35:08Z</time>
      </trkpt>
      <trkpt lat="42.86592" lon="2.37868">
        <ele>1202</ele>
        <time>2023-09-09T10:35:09Z</time>
      </trkpt>
      <trkpt lat="42.86593" lon="2.37869">
        <ele>1201</ele>
        <time>2023-09-09T10:35:10Z</time>
      </trkpt>
      <trkpt lat="42.86594" lon="2.37869">
        <ele>1201</ele>
        <time>2023-09-09T10:35:11Z</time>
      </trkpt>
      <trkpt lat="42.86595" lon="2.37869">
        <ele>1201</ele>
        <time>2023-09-09T10:35:12Z</time>
      </trkpt>
      <trkpt lat="42.86595" lon="2.37869">
        <ele>1201</ele>
        <time>2023-09-09T10:35:13Z</time>
      </trkpt>
      <trkpt lat="42.86596" lon="2.37869">
        <ele>1201</ele>
        <time>2023-09-09T10:35:14Z</time>
      </trkpt>
      <trkpt lat="42.86597" lon="2.37869">
        <ele>1200</ele>
        <time>2023-09-09T10:35:15Z</time>
      </trkpt>
      <trkpt lat="42.86598" lon="2.3787">
        <ele>1200</ele>
        <time>2023-09-09T10:35:16Z</time>
      </trkpt>
      <trkpt lat="42.866" lon="2.3787">
        <ele>1200</ele>
        <time>2023-09-09T10:35:17Z</time>
      </trkpt>
      <trkpt lat="42.86601" lon="2.37871">
        <ele>1200</ele>
        <time>2023-09-09T10:35:18Z</time>
      </trkpt>
      <trkpt lat="42.86602" lon="2.37872">
        <ele>1200</ele>
        <time>2023-09-09T10:35:19Z</time>
      </trkpt>
      <trkpt lat="42.86604" lon="2.37873">
        <ele>1199</ele>
        <time>2023-09-09T10:35:20Z</time>
      </trkpt>
      <trkpt lat="42.86605" lon="2.37873">
        <ele>1199</ele>
        <time>2023-09-09T10:35:21Z</time>
      </trkpt>
      <trkpt lat="42.86607" lon="2.37874">
        <ele>1198</ele>
        <time>2023-09-09T10:35:22Z</time>
      </trkpt>
      <trkpt lat="42.86608" lon="2.37874">
        <ele>1198</ele>
        <time>2023-09-09T10:35:23Z</time>
      </trkpt>
      <trkpt lat="42.8661" lon="2.37875">
        <ele>1198</ele>
        <time>2023-09-09T10:35:24Z</time>
      </trkpt>
      <trkpt lat="42.86612" lon="2.37875">
        <ele>1197</ele>
        <time>2023-09-09T10:35:25Z</time>
      </trkpt>
      <trkpt lat="42.86613" lon="2.37875">
        <ele>1197</ele>
        <time>2023-09-09T10:35:26Z</time>
      </trkpt>
      <trkpt lat="42.86614" lon="2.37875">
        <ele>1197</ele>
        <time>2023-09-09T10:35:27Z</time>
      </trkpt>
      <trkpt lat="42.86615" lon="2.37875">
        <ele>1197</ele>
        <time>2023-09-09T10:35:28Z</time>
      </trkpt>
      <trkpt lat="42.86616" lon="2.37874">
        <ele>1197</ele>
        <time>2023-09-09T10:35:29Z</time>
      </trkpt>
      <trkpt lat="42.86617" lon="2.37874">
        <ele>1196</ele>
        <time>2023-09-09T10:35:30Z</time>
      </trkpt>
      <trkpt lat="42.86617" lon="2.37873">
        <ele>1196</ele>
        <time>2023-09-09T10:35:31Z</time>
      </trkpt>
      <trkpt lat="42.86618" lon="2.37872">
        <ele>1196</ele>
        <time>2023-09-09T10:35:32Z</time>
      </trkpt>
      <trkpt lat="42.86619" lon="2.37872">
        <ele>1196</ele>
        <time>2023-09-09T10:35:33Z</time>
      </trkpt>
      <trkpt lat="42.86619" lon="2.37871">
        <ele>1196</ele>
        <time>2023-09-09T10:35:34Z</time>
      </trkpt>
      <trkpt lat="42.8662" lon="2.37871">
        <ele>1195</ele>
        <time>2023-09-09T10:35:35Z</time>
      </trkpt>
      <trkpt lat="42.8662" lon="2.3787">
        <ele>1195</ele>
        <time>2023-09-09T10:35:36Z</time>
      </trkpt>
      <trkpt lat="42.86621" lon="2.3787">
        <ele>1195</ele>
        <time>2023-09-09T10:35:37Z</time>
      </trkpt>
      <trkpt lat="42.86622" lon="2.3787">
        <ele>1195</ele>
        <time>2023-09-09T10:35:38Z</time>
      </trkpt>
      <trkpt lat="42.86622" lon="2.3787">
        <ele>1195</ele>
        <time>2023-09-09T10:35:39Z</time>
      </trkpt>
      <trkpt lat="42.86623" lon="2.3787">
        <ele>1194</ele>
        <time>2023-09-09T10:35:40Z</time>
      </trkpt>
      <trkpt lat="42.86624" lon="2.3787">
        <ele>1193</ele>
        <time>2023-09-09T10:35:41Z</time>
      </trkpt>
      <trkpt lat="42.86624" lon="2.3787">
        <ele>1193</ele>
        <time>2023-09-09T10:35:42Z</time>
      </trkpt>
      <trkpt lat="42.86625" lon="2.3787">
        <ele>1192</ele>
        <time>2023-09-09T10:35:43Z</time>
      </trkpt>
      <trkpt lat="42.86625" lon="2.3787">
        <ele>1192</ele>
        <time>2023-09-09T10:35:44Z</time>
      </trkpt>
      <trkpt lat="42.86626" lon="2.3787">
        <ele>1191</ele>
        <time>2023-09-09T10:35:45Z</time>
      </trkpt>
      <trkpt lat="42.86626" lon="2.3787">
        <ele>1191</ele>
        <time>2023-09-09T10:35:46Z</time>
      </trkpt>
      <trkpt lat="42.86627" lon="2.37869">
        <ele>1191</ele>
        <time>2023-09-09T10:35:47Z</time>
      </trkpt>
      <trkpt lat="42.86627" lon="2.37869">
        <ele>1191</ele>
        <time>2023-09-09T10:35:48Z</time>
      </trkpt>
      <trkpt lat="42.86628" lon="2.37869">
        <ele>1191</ele>
        <time>2023-09-09T10:35:49Z</time>
      </trkpt>
      <trkpt lat="42.86628" lon="2.37869">
        <ele>1190</ele>
        <time>2023-09-09T10:35:50Z</time>
      </trkpt>
      <trkpt lat="42.86629" lon="2.37868">
        <ele>1190</ele>
        <time>2023-09-09T10:35:51Z</time>
      </trkpt>
      <trkpt lat="42.86629" lon="2.37868">
        <ele>1189</ele>
        <time>2023-09-09T10:35:52Z</time>
      </trkpt>
      <trkpt lat="42.8663" lon="2.37868">
        <ele>1189</ele>
        <time>2023-09-09T10:35:53Z</time>
      </trkpt>
      <trkpt lat="42.86631" lon="2.37867">
        <ele>1189</ele>
        <time>2023-09-09T10:35:54Z</time>
      </trkpt>
      <trkpt lat="42.86631" lon="2.37867">
        <ele>1189</ele>
        <time>2023-09-09T10:35:55Z</time>
      </trkpt>
      <trkpt lat="42.86632" lon="2.37867">
        <ele>1189</ele>
        <time>2023-09-09T10:35:56Z</time>
      </trkpt>
      <trkpt lat="42.86632" lon="2.37867">
        <ele>1189</ele>
        <time>2023-09-09T10:35:57Z</time>
      </trkpt>
      <trkpt lat="42.86632" lon="2.37867">
        <ele>1189</ele>
        <time>2023-09-09T10:35:58Z</time>
      </trkpt>
      <trkpt lat="42.86633" lon="2.37866">
        <ele>1189</ele>
        <time>2023-09-09T10:35:59Z</time>
      </trkpt>
      <trkpt lat="42.86634" lon="2.37866">
        <ele>1188</ele>
        <time>2023-09-09T10:36:00Z</time>
      </trkpt>
      <trkpt lat="42.86634" lon="2.37866">
        <ele>1188</ele>
        <time>2023-09-09T10:36:01Z</time>
      </trkpt>
      <trkpt lat="42.86635" lon="2.37866">
        <ele>1187</ele>
        <time>2023-09-09T10:36:02Z</time>
      </trkpt>
      <trkpt lat="42.86635" lon="2.37865">
        <ele>1187</ele>
        <time>2023-09-09T10:36:03Z</time>
      </trkpt>
      <trkpt lat="42.86636" lon="2.37865">
        <ele>1187</ele>
        <time>2023-09-09T10:36:04Z</time>
      </trkpt>
      <trkpt lat="42.86636" lon="2.37865">
        <ele>1186</ele>
        <time>2023-09-09T10:36:05Z</time>
      </trkpt>
      <trkpt lat="42.86637" lon="2.37864">
        <ele>1186</ele>
        <time>2023-09-09T10:36:06Z</time>
      </trkpt>
      <trkpt lat="42.86638" lon="2.37864">
        <ele>1186</ele>
        <time>2023-09-09T10:36:07Z</time>
      </trkpt>
      <trkpt lat="42.86638" lon="2.37864">
        <ele>1186</ele>
        <time>2023-09-09T10:36:08Z</time>
      </trkpt>
      <trkpt lat="42.86639" lon="2.37864">
        <ele>1186</ele>
        <time>2023-09-09T10:36:09Z</time>
      </trkpt>
      <trkpt lat="42.8664" lon="2.37864">
        <ele>1185</ele>
        <time>2023-09-09T10:36:10Z</time>
      </trkpt>
      <trkpt lat="42.86641" lon="2.37864">
        <ele>1185</ele>
        <time>2023-09-09T10:36:11Z</time>
      </trkpt>
      <trkpt lat="42.86642" lon="2.37865">
        <ele>1184</ele>
        <time>2023-09-09T10:36:12Z</time>
      </trkpt>
      <trkpt lat="42.86642" lon="2.37865">
        <ele>1184</ele>
        <time>2023-09-09T10:36:13Z</time>
      </trkpt>
      <trkpt lat="42.86643" lon="2.37865">
        <ele>1184</ele>
        <time>2023-09-09T10:36:14Z</time>
      </trkpt>
      <trkpt lat="42.86643" lon="2.37865">
        <ele>1183</ele>
        <time>2023-09-09T10:36:15Z</time>
      </trkpt>
      <trkpt lat="42.86644" lon="2.37865">
        <ele>1183</ele>
        <time>2023-09-09T10:36:16Z</time>
      </trkpt>
      <trkpt lat="42.86645" lon="2.37865">
        <ele>1183</ele>
        <time>2023-09-09T10:36:17Z</time>
      </trkpt>
      <trkpt lat="42.86645" lon="2.37865">
        <ele>1183</ele>
        <time>2023-09-09T10:36:18Z</time>
      </trkpt>
      <trkpt lat="42.86646" lon="2.37864">
        <ele>1183</ele>
        <time>2023-09-09T10:36:19Z</time>
      </trkpt>
      <trkpt lat="42.86647" lon="2.37864">
        <ele>1182</ele>
        <time>2023-09-09T10:36:20Z</time>
      </trkpt>
      <trkpt lat="42.86647" lon="2.37863">
        <ele>1182</ele>
        <time>2023-09-09T10:36:21Z</time>
      </trkpt>
      <trkpt lat="42.86648" lon="2.37862">
        <ele>1181</ele>
        <time>2023-09-09T10:36:22Z</time>
      </trkpt>
      <trkpt lat="42.86648" lon="2.37861">
        <ele>1181</ele>
        <time>2023-09-09T10:36:23Z</time>
      </trkpt>
      <trkpt lat="42.86648" lon="2.37861">
        <ele>1181</ele>
        <time>2023-09-09T10:36:24Z</time>
      </trkpt>
      <trkpt lat="42.86649" lon="2.3786">
        <ele>1180</ele>
        <time>2023-09-09T10:36:25Z</time>
      </trkpt>
      <trkpt lat="42.86649" lon="2.37859">
        <ele>1180</ele>
        <time>2023-09-09T10:36:26Z</time>
      </trkpt>
      <trkpt lat="42.8665" lon="2.37858">
        <ele>1180</ele>
        <time>2023-09-09T10:36:27Z</time>
      </trkpt>
      <trkpt lat="42.8665" lon="2.37858">
        <ele>1180</ele>
        <time>2023-09-09T10:36:28Z</time>
      </trkpt>
      <trkpt lat="42.8665" lon="2.37857">
        <ele>1180</ele>
        <time>2023-09-09T10:36:29Z</time>
      </trkpt>
      <trkpt lat="42.86651" lon="2.37857">
        <ele>1179</ele>
        <time>2023-09-09T10:36:30Z</time>
      </trkpt>
      <trkpt lat="42.86651" lon="2.37856">
        <ele>1179</ele>
        <time>2023-09-09T10:36:31Z</time>
      </trkpt>
      <trkpt lat="42.86651" lon="2.37855">
        <ele>1179</ele>
        <time>2023-09-09T10:36:32Z</time>
      </trkpt>
      <trkpt lat="42.86652" lon="2.37855">
        <ele>1179</ele>
        <time>2023-09-09T10:36:33Z</time>
      </trkpt>
      <trkpt lat="42.86652" lon="2.37854">
        <ele>1179</ele>
        <time>2023-09-09T10:36:34Z</time>
      </trkpt>
      <trkpt lat="42.86652" lon="2.37853">
        <ele>1178</ele>
        <time>2023-09-09T10:36:35Z</time>
      </trkpt>
      <trkpt lat="42.86653" lon="2.37852">
        <ele>1178</ele>
        <time>2023-09-09T10:36:36Z</time>
      </trkpt>
      <trkpt lat="42.86653" lon="2.37852">
        <ele>1178</ele>
        <time>2023-09-09T10:36:37Z</time>
      </trkpt>
      <trkpt lat="42.86654" lon="2.37851">
        <ele>1178</ele>
        <time>2023-09-09T10:36:38Z</time>
      </trkpt>
      <trkpt lat="42.86655" lon="2.37851">
        <ele>1178</ele>
        <time>2023-09-09T10:36:39Z</time>
      </trkpt>
      <trkpt lat="42.86656" lon="2.3785">
        <ele>1177</ele>
        <time>2023-09-09T10:36:40Z</time>
      </trkpt>
      <trkpt lat="42.86656" lon="2.3785">
        <ele>1176</ele>
        <time>2023-09-09T10:36:41Z</time>
      </trkpt>
      <trkpt lat="42.86657" lon="2.3785">
        <ele>1176</ele>
        <time>2023-09-09T10:36:42Z</time>
      </trkpt>
      <trkpt lat="42.86658" lon="2.37849">
        <ele>1175</ele>
        <time>2023-09-09T10:36:43Z</time>
      </trkpt>
      <trkpt lat="42.86658" lon="2.37849">
        <ele>1175</ele>
        <time>2023-09-09T10:36:44Z</time>
      </trkpt>
      <trkpt lat="42.86659" lon="2.37848">
        <ele>1174</ele>
        <time>2023-09-09T10:36:45Z</time>
      </trkpt>
      <trkpt lat="42.8666" lon="2.37848">
        <ele>1174</ele>
        <time>2023-09-09T10:36:46Z</time>
      </trkpt>
      <trkpt lat="42.8666" lon="2.37848">
        <ele>1174</ele>
        <time>2023-09-09T10:36:47Z</time>
      </trkpt>
      <trkpt lat="42.86661" lon="2.37848">
        <ele>1174</ele>
        <time>2023-09-09T10:36:48Z</time>
      </trkpt>
      <trkpt lat="42.86662" lon="2.37848">
        <ele>1174</ele>
        <time>2023-09-09T10:36:49Z</time>
      </trkpt>
      <trkpt lat="42.86662" lon="2.37848">
        <ele>1173</ele>
        <time>2023-09-09T10:36:50Z</time>
      </trkpt>
      <trkpt lat="42.86663" lon="2.37848">
        <ele>1173</ele>
        <time>2023-09-09T10:36:51Z</time>
      </trkpt>
      <trkpt lat="42.86663" lon="2.37847">
        <ele>1172</ele>
        <time>2023-09-09T10:36:52Z</time>
      </trkpt>
      <trkpt lat="42.86664" lon="2.37847">
        <ele>1172</ele>
        <time>2023-09-09T10:36:53Z</time>
      </trkpt>
      <trkpt lat="42.86664" lon="2.37846">
        <ele>1172</ele>
        <time>2023-09-09T10:36:54Z</time>
      </trkpt>
      <trkpt lat="42.86665" lon="2.37846">
        <ele>1171</ele>
        <time>2023-09-09T10:36:55Z</time>
      </trkpt>
      <trkpt lat="42.86665" lon="2.37845">
        <ele>1171</ele>
        <time>2023-09-09T10:36:56Z</time>
      </trkpt>
      <trkpt lat="42.86666" lon="2.37844">
        <ele>1171</ele>
        <time>2023-09-09T10:36:57Z</time>
      </trkpt>
      <trkpt lat="42.86666" lon="2.37843">
        <ele>1171</ele>
        <time>2023-09-09T10:36:58Z</time>
      </trkpt>
      <trkpt lat="42.86667" lon="2.37841">
        <ele>1171</ele>
        <time>2023-09-09T10:36:59Z</time>
      </trkpt>
      <trkpt lat="42.86668" lon="2.3784">
        <ele>1170</ele>
        <time>2023-09-09T10:37:00Z</time>
      </trkpt>
      <trkpt lat="42.86669" lon="2.37839">
        <ele>1170</ele>
        <time>2023-09-09T10:37:01Z</time>
      </trkpt>
      <trkpt lat="42.86671" lon="2.37837">
        <ele>1170</ele>
        <time>2023-09-09T10:37:02Z</time>
      </trkpt>
      <trkpt lat="42.86673" lon="2.37836">
        <ele>1170</ele>
        <time>2023-09-09T10:37:03Z</time>
      </trkpt>
      <trkpt lat="42.86674" lon="2.37834">
        <ele>1170</ele>
        <time>2023-09-09T10:37:04Z</time>
      </trkpt>
      <trkpt lat="42.86676" lon="2.37833">
        <ele>1169</ele>
        <time>2023-09-09T10:37:05Z</time>
      </trkpt>
      <trkpt lat="42.86678" lon="2.37832">
        <ele>1169</ele>
        <time>2023-09-09T10:37:06Z</time>
      </trkpt>
      <trkpt lat="42.8668" lon="2.37831">
        <ele>1168</ele>
        <time>2023-09-09T10:37:07Z</time>
      </trkpt>
      <trkpt lat="42.86682" lon="2.37829">
        <ele>1168</ele>
        <time>2023-09-09T10:37:08Z</time>
      </trkpt>
      <trkpt lat="42.86683" lon="2.37828">
        <ele>1168</ele>
        <time>2023-09-09T10:37:09Z</time>
      </trkpt>
      <trkpt lat="42.86684" lon="2.37827">
        <ele>1167</ele>
        <time>2023-09-09T10:37:10Z</time>
      </trkpt>
      <trkpt lat="42.86685" lon="2.37826">
        <ele>1167</ele>
        <time>2023-09-09T10:37:11Z</time>
      </trkpt>
      <trkpt lat="42.86687" lon="2.37825">
        <ele>1167</ele>
        <time>2023-09-09T10:37:12Z</time>
      </trkpt>
      <trkpt lat="42.86688" lon="2.37823">
        <ele>1167</ele>
        <time>2023-09-09T10:37:13Z</time>
      </trkpt>
      <trkpt lat="42.86689" lon="2.37821">
        <ele>1167</ele>
        <time>2023-09-09T10:37:14Z</time>
      </trkpt>
      <trkpt lat="42.8669" lon="2.37818">
        <ele>1166</ele>
        <time>2023-09-09T10:37:15Z</time>
      </trkpt>
      <trkpt lat="42.86691" lon="2.37816">
        <ele>1166</ele>
        <time>2023-09-09T10:37:16Z</time>
      </trkpt>
      <trkpt lat="42.86692" lon="2.37814">
        <ele>1166</ele>
        <time>2023-09-09T10:37:17Z</time>
      </trkpt>
      <trkpt lat="42.86693" lon="2.37811">
        <ele>1166</ele>
        <time>2023-09-09T10:37:18Z</time>
      </trkpt>
      <trkpt lat="42.86694" lon="2.37809">
        <ele>1166</ele>
        <time>2023-09-09T10:37:19Z</time>
      </trkpt>
      <trkpt lat="42.86695" lon="2.37806">
        <ele>1166</ele>
        <time>2023-09-09T10:37:20Z</time>
      </trkpt>
      <trkpt lat="42.86696" lon="2.37804">
        <ele>1166</ele>
        <time>2023-09-09T10:37:21Z</time>
      </trkpt>
      <trkpt lat="42.86697" lon="2.37801">
        <ele>1166</ele>
        <time>2023-09-09T10:37:22Z</time>
      </trkpt>
      <trkpt lat="42.86697" lon="2.37798">
        <ele>1166</ele>
        <time>2023-09-09T10:37:23Z</time>
      </trkpt>
      <trkpt lat="42.86697" lon="2.37795">
        <ele>1166</ele>
        <time>2023-09-09T10:37:24Z</time>
      </trkpt>
      <trkpt lat="42.86698" lon="2.37793">
        <ele>1165</ele>
        <time>2023-09-09T10:37:25Z</time>
      </trkpt>
      <trkpt lat="42.86698" lon="2.3779">
        <ele>1165</ele>
        <time>2023-09-09T10:37:26Z</time>
      </trkpt>
      <trkpt lat="42.86698" lon="2.37787">
        <ele>1165</ele>
        <time>2023-09-09T10:37:27Z</time>
      </trkpt>
      <trkpt lat="42.86699" lon="2.37784">
        <ele>1165</ele>
        <time>2023-09-09T10:37:28Z</time>
      </trkpt>
      <trkpt lat="42.86699" lon="2.37782">
        <ele>1165</ele>
        <time>2023-09-09T10:37:29Z</time>
      </trkpt>
      <trkpt lat="42.867" lon="2.37779">
        <ele>1164</ele>
        <time>2023-09-09T10:37:30Z</time>
      </trkpt>
      <trkpt lat="42.867" lon="2.37777">
        <ele>1164</ele>
        <time>2023-09-09T10:37:31Z</time>
      </trkpt>
      <trkpt lat="42.86701" lon="2.37774">
        <ele>1164</ele>
        <time>2023-09-09T10:37:32Z</time>
      </trkpt>
      <trkpt lat="42.86702" lon="2.37772">
        <ele>1164</ele>
        <time>2023-09-09T10:37:33Z</time>
      </trkpt>
      <trkpt lat="42.86703" lon="2.37769">
        <ele>1164</ele>
        <time>2023-09-09T10:37:34Z</time>
      </trkpt>
      <trkpt lat="42.86704" lon="2.37767">
        <ele>1163</ele>
        <time>2023-09-09T10:37:35Z</time>
      </trkpt>
      <trkpt lat="42.86705" lon="2.37765">
        <ele>1163</ele>
        <time>2023-09-09T10:37:36Z</time>
      </trkpt>
      <trkpt lat="42.86706" lon="2.37763">
        <ele>1163</ele>
        <time>2023-09-09T10:37:37Z</time>
      </trkpt>
      <trkpt lat="42.86707" lon="2.3776">
        <ele>1163</ele>
        <time>2023-09-09T10:37:38Z</time>
      </trkpt>
      <trkpt lat="42.86708" lon="2.37758">
        <ele>1163</ele>
        <time>2023-09-09T10:37:39Z</time>
      </trkpt>
      <trkpt lat="42.86709" lon="2.37756">
        <ele>1162</ele>
        <time>2023-09-09T10:37:40Z</time>
      </trkpt>
      <trkpt lat="42.86711" lon="2.37753">
        <ele>1162</ele>
        <time>2023-09-09T10:37:41Z</time>
      </trkpt>
      <trkpt lat="42.86712" lon="2.37751">
        <ele>1162</ele>
        <time>2023-09-09T10:37:42Z</time>
      </trkpt>
      <trkpt lat="42.86713" lon="2.37748">
        <ele>1162</ele>
        <time>2023-09-09T10:37:43Z</time>
      </trkpt>
      <trkpt lat="42.86715" lon="2.37745">
        <ele>1162</ele>
        <time>2023-09-09T10:37:44Z</time>
      </trkpt>
      <trkpt lat="42.86716" lon="2.37743">
        <ele>1161</ele>
        <time>2023-09-09T10:37:45Z</time>
      </trkpt>
      <trkpt lat="42.86717" lon="2.3774">
        <ele>1161</ele>
        <time>2023-09-09T10:37:46Z</time>
      </trkpt>
      <trkpt lat="42.86719" lon="2.37738">
        <ele>1160</ele>
        <time>2023-09-09T10:37:47Z</time>
      </trkpt>
      <trkpt lat="42.8672" lon="2.37736">
        <ele>1160</ele>
        <time>2023-09-09T10:37:48Z</time>
      </trkpt>
      <trkpt lat="42.86721" lon="2.37733">
        <ele>1160</ele>
        <time>2023-09-09T10:37:49Z</time>
      </trkpt>
      <trkpt lat="42.86722" lon="2.37731">
        <ele>1159</ele>
        <time>2023-09-09T10:37:50Z</time>
      </trkpt>
      <trkpt lat="42.86723" lon="2.37728">
        <ele>1159</ele>
        <time>2023-09-09T10:37:51Z</time>
      </trkpt>
      <trkpt lat="42.86724" lon="2.37726">
        <ele>1158</ele>
        <time>2023-09-09T10:37:52Z</time>
      </trkpt>
      <trkpt lat="42.86725" lon="2.37724">
        <ele>1158</ele>
        <time>2023-09-09T10:37:53Z</time>
      </trkpt>
      <trkpt lat="42.86726" lon="2.37721">
        <ele>1158</ele>
        <time>2023-09-09T10:37:54Z</time>
      </trkpt>
      <trkpt lat="42.86726" lon="2.37719">
        <ele>1157</ele>
        <time>2023-09-09T10:37:55Z</time>
      </trkpt>
      <trkpt lat="42.86727" lon="2.37717">
        <ele>1157</ele>
        <time>2023-09-09T10:37:56Z</time>
      </trkpt>
      <trkpt lat="42.86726" lon="2.37716">
        <ele>1156</ele>
        <time>2023-09-09T10:37:57Z</time>
      </trkpt>
      <trkpt lat="42.86726" lon="2.37714">
        <ele>1156</ele>
        <time>2023-09-09T10:37:58Z</time>
      </trkpt>
      <trkpt lat="42.86726" lon="2.37712">
        <ele>1156</ele>
        <time>2023-09-09T10:37:59Z</time>
      </trkpt>
      <trkpt lat="42.86726" lon="2.37711">
        <ele>1155</ele>
        <time>2023-09-09T10:38:00Z</time>
      </trkpt>
      <trkpt lat="42.86726" lon="2.37709">
        <ele>1155</ele>
        <time>2023-09-09T10:38:01Z</time>
      </trkpt>
      <trkpt lat="42.86726" lon="2.37708">
        <ele>1155</ele>
        <time>2023-09-09T10:38:02Z</time>
      </trkpt>
      <trkpt lat="42.86726" lon="2.37706">
        <ele>1155</ele>
        <time>2023-09-09T10:38:03Z</time>
      </trkpt>
      <trkpt lat="42.86726" lon="2.37705">
        <ele>1155</ele>
        <time>2023-09-09T10:38:04Z</time>
      </trkpt>
      <trkpt lat="42.86726" lon="2.37703">
        <ele>1154</ele>
        <time>2023-09-09T10:38:05Z</time>
      </trkpt>
      <trkpt lat="42.86726" lon="2.37702">
        <ele>1154</ele>
        <time>2023-09-09T10:38:06Z</time>
      </trkpt>
      <trkpt lat="42.86726" lon="2.37701">
        <ele>1154</ele>
        <time>2023-09-09T10:38:07Z</time>
      </trkpt>
      <trkpt lat="42.86726" lon="2.377">
        <ele>1154</ele>
        <time>2023-09-09T10:38:08Z</time>
      </trkpt>
      <trkpt lat="42.86725" lon="2.37699">
        <ele>1154</ele>
        <time>2023-09-09T10:38:09Z</time>
      </trkpt>
      <trkpt lat="42.86725" lon="2.37698">
        <ele>1153</ele>
        <time>2023-09-09T10:38:10Z</time>
      </trkpt>
      <trkpt lat="42.86725" lon="2.37697">
        <ele>1153</ele>
        <time>2023-09-09T10:38:11Z</time>
      </trkpt>
      <trkpt lat="42.86724" lon="2.37696">
        <ele>1152</ele>
        <time>2023-09-09T10:38:12Z</time>
      </trkpt>
      <trkpt lat="42.86724" lon="2.37694">
        <ele>1152</ele>
        <time>2023-09-09T10:38:13Z</time>
      </trkpt>
      <trkpt lat="42.86723" lon="2.37693">
        <ele>1152</ele>
        <time>2023-09-09T10:38:14Z</time>
      </trkpt>
      <trkpt lat="42.86723" lon="2.37692">
        <ele>1151</ele>
        <time>2023-09-09T10:38:15Z</time>
      </trkpt>
      <trkpt lat="42.86723" lon="2.3769">
        <ele>1151</ele>
        <time>2023-09-09T10:38:16Z</time>
      </trkpt>
      <trkpt lat="42.86722" lon="2.37689">
        <ele>1150</ele>
        <time>2023-09-09T10:38:17Z</time>
      </trkpt>
      <trkpt lat="42.86722" lon="2.37688">
        <ele>1150</ele>
        <time>2023-09-09T10:38:18Z</time>
      </trkpt>
      <trkpt lat="42.86722" lon="2.37686">
        <ele>1150</ele>
        <time>2023-09-09T10:38:19Z</time>
      </trkpt>
      <trkpt lat="42.86723" lon="2.37685">
        <ele>1149</ele>
        <time>2023-09-09T10:38:20Z</time>
      </trkpt>
      <trkpt lat="42.86723" lon="2.37684">
        <ele>1149</ele>
        <time>2023-09-09T10:38:21Z</time>
      </trkpt>
      <trkpt lat="42.86723" lon="2.37682">
        <ele>1149</ele>
        <time>2023-09-09T10:38:22Z</time>
      </trkpt>
      <trkpt lat="42.86723" lon="2.37681">
        <ele>1149</ele>
        <time>2023-09-09T10:38:23Z</time>
      </trkpt>
      <trkpt lat="42.86722" lon="2.37679">
        <ele>1149</ele>
        <time>2023-09-09T10:38:24Z</time>
      </trkpt>
      <trkpt lat="42.86722" lon="2.37678">
        <ele>1148</ele>
        <time>2023-09-09T10:38:25Z</time>
      </trkpt>
      <trkpt lat="42.86721" lon="2.37676">
        <ele>1148</ele>
        <time>2023-09-09T10:38:26Z</time>
      </trkpt>
      <trkpt lat="42.86721" lon="2.37674">
        <ele>1147</ele>
        <time>2023-09-09T10:38:27Z</time>
      </trkpt>
      <trkpt lat="42.86721" lon="2.37673">
        <ele>1147</ele>
        <time>2023-09-09T10:38:28Z</time>
      </trkpt>
      <trkpt lat="42.86721" lon="2.37671">
        <ele>1147</ele>
        <time>2023-09-09T10:38:29Z</time>
      </trkpt>
      <trkpt lat="42.86721" lon="2.3767">
        <ele>1146</ele>
        <time>2023-09-09T10:38:30Z</time>
      </trkpt>
      <trkpt lat="42.86721" lon="2.37668">
        <ele>1146</ele>
        <time>2023-09-09T10:38:31Z</time>
      </trkpt>
      <trkpt lat="42.86721" lon="2.37666">
        <ele>1145</ele>
        <time>2023-09-09T10:38:32Z</time>
      </trkpt>
      <trkpt lat="42.86721" lon="2.37665">
        <ele>1145</ele>
        <time>2023-09-09T10:38:33Z</time>
      </trkpt>
      <trkpt lat="42.86722" lon="2.37663">
        <ele>1145</ele>
        <time>2023-09-09T10:38:34Z</time>
      </trkpt>
      <trkpt lat="42.86722" lon="2.37662">
        <ele>1144</ele>
        <time>2023-09-09T10:38:35Z</time>
      </trkpt>
      <trkpt lat="42.86722" lon="2.3766">
        <ele>1144</ele>
        <time>2023-09-09T10:38:36Z</time>
      </trkpt>
      <trkpt lat="42.86722" lon="2.37658">
        <ele>1143</ele>
        <time>2023-09-09T10:38:37Z</time>
      </trkpt>
      <trkpt lat="42.86722" lon="2.37657">
        <ele>1143</ele>
        <time>2023-09-09T10:38:38Z</time>
      </trkpt>
      <trkpt lat="42.86722" lon="2.37655">
        <ele>1143</ele>
        <time>2023-09-09T10:38:39Z</time>
      </trkpt>
      <trkpt lat="42.86722" lon="2.37653">
        <ele>1142</ele>
        <time>2023-09-09T10:38:40Z</time>
      </trkpt>
      <trkpt lat="42.86722" lon="2.37651">
        <ele>1142</ele>
        <time>2023-09-09T10:38:41Z</time>
      </trkpt>
      <trkpt lat="42.86722" lon="2.3765">
        <ele>1142</ele>
        <time>2023-09-09T10:38:42Z</time>
      </trkpt>
      <trkpt lat="42.86723" lon="2.37648">
        <ele>1142</ele>
        <time>2023-09-09T10:38:43Z</time>
      </trkpt>
      <trkpt lat="42.86723" lon="2.37647">
        <ele>1142</ele>
        <time>2023-09-09T10:38:44Z</time>
      </trkpt>
      <trkpt lat="42.86723" lon="2.37645">
        <ele>1141</ele>
        <time>2023-09-09T10:38:45Z</time>
      </trkpt>
      <trkpt lat="42.86723" lon="2.37644">
        <ele>1141</ele>
        <time>2023-09-09T10:38:46Z</time>
      </trkpt>
      <trkpt lat="42.86724" lon="2.37643">
        <ele>1140</ele>
        <time>2023-09-09T10:38:47Z</time>
      </trkpt>
      <trkpt lat="42.86724" lon="2.37642">
        <ele>1140</ele>
        <time>2023-09-09T10:38:48Z</time>
      </trkpt>
      <trkpt lat="42.86724" lon="2.37642">
        <ele>1140</ele>
        <time>2023-09-09T10:38:49Z</time>
      </trkpt>
      <trkpt lat="42.86724" lon="2.37641">
        <ele>1139</ele>
        <time>2023-09-09T10:38:50Z</time>
      </trkpt>
      <trkpt lat="42.86724" lon="2.3764">
        <ele>1139</ele>
        <time>2023-09-09T10:38:51Z</time>
      </trkpt>
      <trkpt lat="42.86724" lon="2.37639">
        <ele>1138</ele>
        <time>2023-09-09T10:38:52Z</time>
      </trkpt>
      <trkpt lat="42.86724" lon="2.37639">
        <ele>1138</ele>
        <time>2023-09-09T10:38:53Z</time>
      </trkpt>
      <trkpt lat="42.86724" lon="2.37638">
        <ele>1138</ele>
        <time>2023-09-09T10:38:54Z</time>
      </trkpt>
      <trkpt lat="42.86724" lon="2.37638">
        <ele>1137</ele>
        <time>2023-09-09T10:38:55Z</time>
      </trkpt>
      <trkpt lat="42.86724" lon="2.37637">
        <ele>1137</ele>
        <time>2023-09-09T10:38:56Z</time>
      </trkpt>
      <trkpt lat="42.86724" lon="2.37636">
        <ele>1137</ele>
        <time>2023-09-09T10:38:57Z</time>
      </trkpt>
      <trkpt lat="42.86724" lon="2.37635">
        <ele>1137</ele>
        <time>2023-09-09T10:38:58Z</time>
      </trkpt>
      <trkpt lat="42.86724" lon="2.37634">
        <ele>1137</ele>
        <time>2023-09-09T10:38:59Z</time>
      </trkpt>
      <trkpt lat="42.86724" lon="2.37634">
        <ele>1136</ele>
        <time>2023-09-09T10:39:00Z</time>
      </trkpt>
      <trkpt lat="42.86723" lon="2.37633">
        <ele>1136</ele>
        <time>2023-09-09T10:39:01Z</time>
      </trkpt>
      <trkpt lat="42.86723" lon="2.37632">
        <ele>1136</ele>
        <time>2023-09-09T10:39:02Z</time>
      </trkpt>
      <trkpt lat="42.86723" lon="2.37631">
        <ele>1136</ele>
        <time>2023-09-09T10:39:03Z</time>
      </trkpt>
      <trkpt lat="42.86722" lon="2.3763">
        <ele>1136</ele>
        <time>2023-09-09T10:39:04Z</time>
      </trkpt>
      <trkpt lat="42.86722" lon="2.37628">
        <ele>1135</ele>
        <time>2023-09-09T10:39:05Z</time>
      </trkpt>
      <trkpt lat="42.86722" lon="2.37627">
        <ele>1135</ele>
        <time>2023-09-09T10:39:06Z</time>
      </trkpt>
      <trkpt lat="42.86722" lon="2.37626">
        <ele>1135</ele>
        <time>2023-09-09T10:39:07Z</time>
      </trkpt>
      <trkpt lat="42.86722" lon="2.37625">
        <ele>1135</ele>
        <time>2023-09-09T10:39:08Z</time>
      </trkpt>
      <trkpt lat="42.86722" lon="2.37624">
        <ele>1135</ele>
        <time>2023-09-09T10:39:09Z</time>
      </trkpt>
      <trkpt lat="42.86722" lon="2.37622">
        <ele>1134</ele>
        <time>2023-09-09T10:39:10Z</time>
      </trkpt>
      <trkpt lat="42.86721" lon="2.37621">
        <ele>1134</ele>
        <time>2023-09-09T10:39:11Z</time>
      </trkpt>
      <trkpt lat="42.86721" lon="2.3762">
        <ele>1133</ele>
        <time>2023-09-09T10:39:12Z</time>
      </trkpt>
      <trkpt lat="42.8672" lon="2.37619">
        <ele>1133</ele>
        <time>2023-09-09T10:39:13Z</time>
      </trkpt>
      <trkpt lat="42.86719" lon="2.37618">
        <ele>1133</ele>
        <time>2023-09-09T10:39:14Z</time>
      </trkpt>
      <trkpt lat="42.86719" lon="2.37617">
        <ele>1132</ele>
        <time>2023-09-09T10:39:15Z</time>
      </trkpt>
      <trkpt lat="42.86718" lon="2.37616">
        <ele>1132</ele>
        <time>2023-09-09T10:39:16Z</time>
      </trkpt>
      <trkpt lat="42.86717" lon="2.37614">
        <ele>1132</ele>
        <time>2023-09-09T10:39:17Z</time>
      </trkpt>
      <trkpt lat="42.86717" lon="2.37613">
        <ele>1132</ele>
        <time>2023-09-09T10:39:18Z</time>
      </trkpt>
      <trkpt lat="42.86717" lon="2.37611">
        <ele>1132</ele>
        <time>2023-09-09T10:39:19Z</time>
      </trkpt>
      <trkpt lat="42.86717" lon="2.37608">
        <ele>1131</ele>
        <time>2023-09-09T10:39:20Z</time>
      </trkpt>
      <trkpt lat="42.86717" lon="2.37606">
        <ele>1131</ele>
        <time>2023-09-09T10:39:21Z</time>
      </trkpt>
      <trkpt lat="42.86718" lon="2.37603">
        <ele>1131</ele>
        <time>2023-09-09T10:39:22Z</time>
      </trkpt>
      <trkpt lat="42.86718" lon="2.376">
        <ele>1131</ele>
        <time>2023-09-09T10:39:23Z</time>
      </trkpt>
      <trkpt lat="42.86718" lon="2.37596">
        <ele>1131</ele>
        <time>2023-09-09T10:39:24Z</time>
      </trkpt>
      <trkpt lat="42.86719" lon="2.37594">
        <ele>1130</ele>
        <time>2023-09-09T10:39:25Z</time>
      </trkpt>
      <trkpt lat="42.86719" lon="2.37592">
        <ele>1129</ele>
        <time>2023-09-09T10:39:26Z</time>
      </trkpt>
      <trkpt lat="42.86719" lon="2.3759">
        <ele>1129</ele>
        <time>2023-09-09T10:39:27Z</time>
      </trkpt>
      <trkpt lat="42.86719" lon="2.37589">
        <ele>1128</ele>
        <time>2023-09-09T10:39:28Z</time>
      </trkpt>
      <trkpt lat="42.86719" lon="2.37588">
        <ele>1128</ele>
        <time>2023-09-09T10:39:29Z</time>
      </trkpt>
      <trkpt lat="42.86719" lon="2.37586">
        <ele>1127</ele>
        <time>2023-09-09T10:39:30Z</time>
      </trkpt>
      <trkpt lat="42.86719" lon="2.37585">
        <ele>1127</ele>
        <time>2023-09-09T10:39:31Z</time>
      </trkpt>
      <trkpt lat="42.86719" lon="2.37584">
        <ele>1126</ele>
        <time>2023-09-09T10:39:32Z</time>
      </trkpt>
      <trkpt lat="42.86719" lon="2.37582">
        <ele>1126</ele>
        <time>2023-09-09T10:39:33Z</time>
      </trkpt>
      <trkpt lat="42.86719" lon="2.37581">
        <ele>1126</ele>
        <time>2023-09-09T10:39:34Z</time>
      </trkpt>
      <trkpt lat="42.86719" lon="2.3758">
        <ele>1125</ele>
        <time>2023-09-09T10:39:35Z</time>
      </trkpt>
      <trkpt lat="42.8672" lon="2.37578">
        <ele>1124</ele>
        <time>2023-09-09T10:39:36Z</time>
      </trkpt>
      <trkpt lat="42.8672" lon="2.37578">
        <ele>1124</ele>
        <time>2023-09-09T10:39:37Z</time>
      </trkpt>
      <trkpt lat="42.8672" lon="2.37577">
        <ele>1123</ele>
        <time>2023-09-09T10:39:38Z</time>
      </trkpt>
      <trkpt lat="42.8672" lon="2.37576">
        <ele>1123</ele>
        <time>2023-09-09T10:39:39Z</time>
      </trkpt>
      <trkpt lat="42.8672" lon="2.37575">
        <ele>1122</ele>
        <time>2023-09-09T10:39:40Z</time>
      </trkpt>
      <trkpt lat="42.8672" lon="2.37575">
        <ele>1122</ele>
        <time>2023-09-09T10:39:41Z</time>
      </trkpt>
      <trkpt lat="42.8672" lon="2.37574">
        <ele>1122</ele>
        <time>2023-09-09T10:39:42Z</time>
      </trkpt>
      <trkpt lat="42.8672" lon="2.37573">
        <ele>1122</ele>
        <time>2023-09-09T10:39:43Z</time>
      </trkpt>
      <trkpt lat="42.8672" lon="2.37572">
        <ele>1122</ele>
        <time>2023-09-09T10:39:44Z</time>
      </trkpt>
      <trkpt lat="42.8672" lon="2.37571">
        <ele>1121</ele>
        <time>2023-09-09T10:39:45Z</time>
      </trkpt>
      <trkpt lat="42.8672" lon="2.3757">
        <ele>1121</ele>
        <time>2023-09-09T10:39:46Z</time>
      </trkpt>
      <trkpt lat="42.8672" lon="2.37569">
        <ele>1121</ele>
        <time>2023-09-09T10:39:47Z</time>
      </trkpt>
      <trkpt lat="42.8672" lon="2.37568">
        <ele>1121</ele>
        <time>2023-09-09T10:39:48Z</time>
      </trkpt>
      <trkpt lat="42.8672" lon="2.37567">
        <ele>1121</ele>
        <time>2023-09-09T10:39:49Z</time>
      </trkpt>
      <trkpt lat="42.8672" lon="2.37565">
        <ele>1120</ele>
        <time>2023-09-09T10:39:50Z</time>
      </trkpt>
      <trkpt lat="42.8672" lon="2.37564">
        <ele>1120</ele>
        <time>2023-09-09T10:39:51Z</time>
      </trkpt>
      <trkpt lat="42.8672" lon="2.37563">
        <ele>1119</ele>
        <time>2023-09-09T10:39:52Z</time>
      </trkpt>
      <trkpt lat="42.8672" lon="2.37562">
        <ele>1119</ele>
        <time>2023-09-09T10:39:53Z</time>
      </trkpt>
      <trkpt lat="42.8672" lon="2.37561">
        <ele>1119</ele>
        <time>2023-09-09T10:39:54Z</time>
      </trkpt>
      <trkpt lat="42.8672" lon="2.37559">
        <ele>1118</ele>
        <time>2023-09-09T10:39:55Z</time>
      </trkpt>
      <trkpt lat="42.8672" lon="2.37558">
        <ele>1118</ele>
        <time>2023-09-09T10:39:56Z</time>
      </trkpt>
      <trkpt lat="42.8672" lon="2.37556">
        <ele>1117</ele>
        <time>2023-09-09T10:39:57Z</time>
      </trkpt>
      <trkpt lat="42.86719" lon="2.37555">
        <ele>1117</ele>
        <time>2023-09-09T10:39:58Z</time>
      </trkpt>
      <trkpt lat="42.86719" lon="2.37553">
        <ele>1117</ele>
        <time>2023-09-09T10:39:59Z</time>
      </trkpt>
      <trkpt lat="42.86719" lon="2.37552">
        <ele>1116</ele>
        <time>2023-09-09T10:40:00Z</time>
      </trkpt>
      <trkpt lat="42.86719" lon="2.3755">
        <ele>1115</ele>
        <time>2023-09-09T10:40:01Z</time>
      </trkpt>
      <trkpt lat="42.86719" lon="2.3755">
        <ele>1115</ele>
        <time>2023-09-09T10:40:02Z</time>
      </trkpt>
      <trkpt lat="42.86719" lon="2.37549">
        <ele>1114</ele>
        <time>2023-09-09T10:40:03Z</time>
      </trkpt>
      <trkpt lat="42.86719" lon="2.37549">
        <ele>1114</ele>
        <time>2023-09-09T10:40:04Z</time>
      </trkpt>
      <trkpt lat="42.86719" lon="2.37548">
        <ele>1113</ele>
        <time>2023-09-09T10:40:05Z</time>
      </trkpt>
      <trkpt lat="42.86719" lon="2.37548">
        <ele>1113</ele>
        <time>2023-09-09T10:40:06Z</time>
      </trkpt>
      <trkpt lat="42.86719" lon="2.37547">
        <ele>1112</ele>
        <time>2023-09-09T10:40:07Z</time>
      </trkpt>
      <trkpt lat="42.86719" lon="2.37547">
        <ele>1112</ele>
        <time>2023-09-09T10:40:08Z</time>
      </trkpt>
      <trkpt lat="42.86719" lon="2.37546">
        <ele>1112</ele>
        <time>2023-09-09T10:40:09Z</time>
      </trkpt>
      <trkpt lat="42.86719" lon="2.37545">
        <ele>1111</ele>
        <time>2023-09-09T10:40:10Z</time>
      </trkpt>
      <trkpt lat="42.86719" lon="2.37544">
        <ele>1111</ele>
        <time>2023-09-09T10:40:11Z</time>
      </trkpt>
      <trkpt lat="42.86718" lon="2.37544">
        <ele>1110</ele>
        <time>2023-09-09T10:40:12Z</time>
      </trkpt>
      <trkpt lat="42.86718" lon="2.37543">
        <ele>1110</ele>
        <time>2023-09-09T10:40:13Z</time>
      </trkpt>
      <trkpt lat="42.86718" lon="2.37542">
        <ele>1110</ele>
        <time>2023-09-09T10:40:14Z</time>
      </trkpt>
      <trkpt lat="42.86717" lon="2.37541">
        <ele>1109</ele>
        <time>2023-09-09T10:40:15Z</time>
      </trkpt>
      <trkpt lat="42.86717" lon="2.37541">
        <ele>1109</ele>
        <time>2023-09-09T10:40:16Z</time>
      </trkpt>
      <trkpt lat="42.86716" lon="2.3754">
        <ele>1109</ele>
        <time>2023-09-09T10:40:17Z</time>
      </trkpt>
      <trkpt lat="42.86716" lon="2.37539">
        <ele>1109</ele>
        <time>2023-09-09T10:40:18Z</time>
      </trkpt>
      <trkpt lat="42.86716" lon="2.37538">
        <ele>1109</ele>
        <time>2023-09-09T10:40:19Z</time>
      </trkpt>
      <trkpt lat="42.86715" lon="2.37537">
        <ele>1108</ele>
        <time>2023-09-09T10:40:20Z</time>
      </trkpt>
      <trkpt lat="42.86715" lon="2.37536">
        <ele>1108</ele>
        <time>2023-09-09T10:40:21Z</time>
      </trkpt>
      <trkpt lat="42.86714" lon="2.37534">
        <ele>1106</ele>
        <time>2023-09-09T10:40:31Z</time>
      </trkpt>
      <trkpt lat="42.86714" lon="2.37532">
        <ele>1105</ele>
        <time>2023-09-09T10:40:32Z</time>
      </trkpt>
      <trkpt lat="42.86713" lon="2.37531">
        <ele>1105</ele>
        <time>2023-09-09T10:40:33Z</time>
      </trkpt>
      <trkpt lat="42.86713" lon="2.3753">
        <ele>1105</ele>
        <time>2023-09-09T10:40:34Z</time>
      </trkpt>
      <trkpt lat="42.86713" lon="2.37529">
        <ele>1104</ele>
        <time>2023-09-09T10:40:35Z</time>
      </trkpt>
      <trkpt lat="42.86712" lon="2.37528">
        <ele>1104</ele>
        <time>2023-09-09T10:40:36Z</time>
      </trkpt>
      <trkpt lat="42.86712" lon="2.37527">
        <ele>1104</ele>
        <time>2023-09-09T10:40:37Z</time>
      </trkpt>
      <trkpt lat="42.86711" lon="2.37526">
        <ele>1104</ele>
        <time>2023-09-09T10:40:38Z</time>
      </trkpt>
      <trkpt lat="42.8671" lon="2.37525">
        <ele>1104</ele>
        <time>2023-09-09T10:40:39Z</time>
      </trkpt>
      <trkpt lat="42.8671" lon="2.37524">
        <ele>1103</ele>
        <time>2023-09-09T10:40:40Z</time>
      </trkpt>
      <trkpt lat="42.8671" lon="2.37523">
        <ele>1103</ele>
        <time>2023-09-09T10:40:41Z</time>
      </trkpt>
      <trkpt lat="42.86709" lon="2.37523">
        <ele>1102</ele>
        <time>2023-09-09T10:40:42Z</time>
      </trkpt>
      <trkpt lat="42.86709" lon="2.37522">
        <ele>1102</ele>
        <time>2023-09-09T10:40:43Z</time>
      </trkpt>
      <trkpt lat="42.86708" lon="2.37521">
        <ele>1102</ele>
        <time>2023-09-09T10:40:44Z</time>
      </trkpt>
      <trkpt lat="42.86708" lon="2.3752">
        <ele>1101</ele>
        <time>2023-09-09T10:40:45Z</time>
      </trkpt>
      <trkpt lat="42.86707" lon="2.37519">
        <ele>1101</ele>
        <time>2023-09-09T10:40:46Z</time>
      </trkpt>
      <trkpt lat="42.86707" lon="2.37518">
        <ele>1101</ele>
        <time>2023-09-09T10:40:47Z</time>
      </trkpt>
      <trkpt lat="42.86706" lon="2.37517">
        <ele>1101</ele>
        <time>2023-09-09T10:40:48Z</time>
      </trkpt>
      <trkpt lat="42.86706" lon="2.37516">
        <ele>1101</ele>
        <time>2023-09-09T10:40:49Z</time>
      </trkpt>
      <trkpt lat="42.86705" lon="2.37516">
        <ele>1100</ele>
        <time>2023-09-09T10:40:50Z</time>
      </trkpt>
      <trkpt lat="42.86705" lon="2.37515">
        <ele>1100</ele>
        <time>2023-09-09T10:40:51Z</time>
      </trkpt>
      <trkpt lat="42.86705" lon="2.37514">
        <ele>1100</ele>
        <time>2023-09-09T10:40:52Z</time>
      </trkpt>
      <trkpt lat="42.86704" lon="2.37514">
        <ele>1100</ele>
        <time>2023-09-09T10:40:53Z</time>
      </trkpt>
      <trkpt lat="42.86704" lon="2.37513">
        <ele>1100</ele>
        <time>2023-09-09T10:40:54Z</time>
      </trkpt>
      <trkpt lat="42.86703" lon="2.37512">
        <ele>1099</ele>
        <time>2023-09-09T10:40:55Z</time>
      </trkpt>
      <trkpt lat="42.86703" lon="2.37511">
        <ele>1099</ele>
        <time>2023-09-09T10:40:56Z</time>
      </trkpt>
      <trkpt lat="42.86703" lon="2.37511">
        <ele>1099</ele>
        <time>2023-09-09T10:40:57Z</time>
      </trkpt>
      <trkpt lat="42.86703" lon="2.3751">
        <ele>1099</ele>
        <time>2023-09-09T10:40:58Z</time>
      </trkpt>
      <trkpt lat="42.86702" lon="2.37509">
        <ele>1098</ele>
        <time>2023-09-09T10:41:04Z</time>
      </trkpt>
      <trkpt lat="42.86702" lon="2.37508">
        <ele>1097</ele>
        <time>2023-09-09T10:41:05Z</time>
      </trkpt>
      <trkpt lat="42.86701" lon="2.37507">
        <ele>1097</ele>
        <time>2023-09-09T10:41:06Z</time>
      </trkpt>
      <trkpt lat="42.86701" lon="2.37507">
        <ele>1096</ele>
        <time>2023-09-09T10:41:07Z</time>
      </trkpt>
      <trkpt lat="42.867" lon="2.37506">
        <ele>1096</ele>
        <time>2023-09-09T10:41:08Z</time>
      </trkpt>
      <trkpt lat="42.867" lon="2.37506">
        <ele>1096</ele>
        <time>2023-09-09T10:41:09Z</time>
      </trkpt>
      <trkpt lat="42.86699" lon="2.37505">
        <ele>1095</ele>
        <time>2023-09-09T10:41:10Z</time>
      </trkpt>
      <trkpt lat="42.86699" lon="2.37504">
        <ele>1095</ele>
        <time>2023-09-09T10:41:11Z</time>
      </trkpt>
      <trkpt lat="42.86698" lon="2.37503">
        <ele>1095</ele>
        <time>2023-09-09T10:41:12Z</time>
      </trkpt>
      <trkpt lat="42.86698" lon="2.37502">
        <ele>1095</ele>
        <time>2023-09-09T10:41:13Z</time>
      </trkpt>
      <trkpt lat="42.86697" lon="2.37501">
        <ele>1095</ele>
        <time>2023-09-09T10:41:14Z</time>
      </trkpt>
      <trkpt lat="42.86697" lon="2.375">
        <ele>1094</ele>
        <time>2023-09-09T10:41:15Z</time>
      </trkpt>
      <trkpt lat="42.86696" lon="2.37498">
        <ele>1094</ele>
        <time>2023-09-09T10:41:16Z</time>
      </trkpt>
      <trkpt lat="42.86696" lon="2.37497">
        <ele>1094</ele>
        <time>2023-09-09T10:41:17Z</time>
      </trkpt>
      <trkpt lat="42.86696" lon="2.37496">
        <ele>1094</ele>
        <time>2023-09-09T10:41:18Z</time>
      </trkpt>
      <trkpt lat="42.86696" lon="2.37495">
        <ele>1094</ele>
        <time>2023-09-09T10:41:19Z</time>
      </trkpt>
      <trkpt lat="42.86696" lon="2.37494">
        <ele>1093</ele>
        <time>2023-09-09T10:41:20Z</time>
      </trkpt>
      <trkpt lat="42.86696" lon="2.37493">
        <ele>1093</ele>
        <time>2023-09-09T10:41:21Z</time>
      </trkpt>
      <trkpt lat="42.86696" lon="2.37493">
        <ele>1092</ele>
        <time>2023-09-09T10:41:22Z</time>
      </trkpt>
      <trkpt lat="42.86695" lon="2.37492">
        <ele>1092</ele>
        <time>2023-09-09T10:41:23Z</time>
      </trkpt>
      <trkpt lat="42.86695" lon="2.37491">
        <ele>1092</ele>
        <time>2023-09-09T10:41:24Z</time>
      </trkpt>
      <trkpt lat="42.86695" lon="2.3749">
        <ele>1091</ele>
        <time>2023-09-09T10:41:25Z</time>
      </trkpt>
      <trkpt lat="42.86695" lon="2.37489">
        <ele>1091</ele>
        <time>2023-09-09T10:41:26Z</time>
      </trkpt>
      <trkpt lat="42.86695" lon="2.37488">
        <ele>1091</ele>
        <time>2023-09-09T10:41:27Z</time>
      </trkpt>
      <trkpt lat="42.86695" lon="2.37487">
        <ele>1091</ele>
        <time>2023-09-09T10:41:28Z</time>
      </trkpt>
      <trkpt lat="42.86695" lon="2.37486">
        <ele>1091</ele>
        <time>2023-09-09T10:41:29Z</time>
      </trkpt>
      <trkpt lat="42.86695" lon="2.37485">
        <ele>1090</ele>
        <time>2023-09-09T10:41:30Z</time>
      </trkpt>
      <trkpt lat="42.86695" lon="2.37484">
        <ele>1090</ele>
        <time>2023-09-09T10:41:31Z</time>
      </trkpt>
      <trkpt lat="42.86695" lon="2.37483">
        <ele>1090</ele>
        <time>2023-09-09T10:41:32Z</time>
      </trkpt>
      <trkpt lat="42.86695" lon="2.37482">
        <ele>1090</ele>
        <time>2023-09-09T10:41:33Z</time>
      </trkpt>
      <trkpt lat="42.86695" lon="2.37481">
        <ele>1090</ele>
        <time>2023-09-09T10:41:34Z</time>
      </trkpt>
      <trkpt lat="42.86695" lon="2.3748">
        <ele>1089</ele>
        <time>2023-09-09T10:41:35Z</time>
      </trkpt>
      <trkpt lat="42.86696" lon="2.37479">
        <ele>1089</ele>
        <time>2023-09-09T10:41:36Z</time>
      </trkpt>
      <trkpt lat="42.86696" lon="2.37478">
        <ele>1088</ele>
        <time>2023-09-09T10:41:37Z</time>
      </trkpt>
      <trkpt lat="42.86696" lon="2.37477">
        <ele>1088</ele>
        <time>2023-09-09T10:41:38Z</time>
      </trkpt>
      <trkpt lat="42.86696" lon="2.37476">
        <ele>1088</ele>
        <time>2023-09-09T10:41:39Z</time>
      </trkpt>
      <trkpt lat="42.86696" lon="2.37476">
        <ele>1087</ele>
        <time>2023-09-09T10:41:40Z</time>
      </trkpt>
      <trkpt lat="42.86695" lon="2.37475">
        <ele>1087</ele>
        <time>2023-09-09T10:41:41Z</time>
      </trkpt>
      <trkpt lat="42.86695" lon="2.37474">
        <ele>1087</ele>
        <time>2023-09-09T10:41:42Z</time>
      </trkpt>
      <trkpt lat="42.86695" lon="2.37473">
        <ele>1087</ele>
        <time>2023-09-09T10:41:43Z</time>
      </trkpt>
      <trkpt lat="42.86695" lon="2.37472">
        <ele>1087</ele>
        <time>2023-09-09T10:41:44Z</time>
      </trkpt>
      <trkpt lat="42.86695" lon="2.37472">
        <ele>1086</ele>
        <time>2023-09-09T10:41:45Z</time>
      </trkpt>
      <trkpt lat="42.86695" lon="2.37472">
        <ele>1086</ele>
        <time>2023-09-09T10:41:46Z</time>
      </trkpt>
      <trkpt lat="42.86695" lon="2.37471">
        <ele>1086</ele>
        <time>2023-09-09T10:41:47Z</time>
      </trkpt>
      <trkpt lat="42.86695" lon="2.3747">
        <ele>1086</ele>
        <time>2023-09-09T10:41:48Z</time>
      </trkpt>
      <trkpt lat="42.86695" lon="2.37469">
        <ele>1086</ele>
        <time>2023-09-09T10:41:49Z</time>
      </trkpt>
      <trkpt lat="42.86695" lon="2.37469">
        <ele>1085</ele>
        <time>2023-09-09T10:41:50Z</time>
      </trkpt>
      <trkpt lat="42.86695" lon="2.37468">
        <ele>1085</ele>
        <time>2023-09-09T10:41:51Z</time>
      </trkpt>
      <trkpt lat="42.86695" lon="2.37467">
        <ele>1085</ele>
        <time>2023-09-09T10:41:52Z</time>
      </trkpt>
      <trkpt lat="42.86695" lon="2.37466">
        <ele>1085</ele>
        <time>2023-09-09T10:41:53Z</time>
      </trkpt>
      <trkpt lat="42.86695" lon="2.37465">
        <ele>1085</ele>
        <time>2023-09-09T10:41:54Z</time>
      </trkpt>
      <trkpt lat="42.86695" lon="2.37463">
        <ele>1084</ele>
        <time>2023-09-09T10:41:55Z</time>
      </trkpt>
      <trkpt lat="42.86695" lon="2.37462">
        <ele>1084</ele>
        <time>2023-09-09T10:41:56Z</time>
      </trkpt>
      <trkpt lat="42.86696" lon="2.3746">
        <ele>1084</ele>
        <time>2023-09-09T10:41:57Z</time>
      </trkpt>
      <trkpt lat="42.86696" lon="2.37459">
        <ele>1084</ele>
        <time>2023-09-09T10:41:58Z</time>
      </trkpt>
      <trkpt lat="42.86697" lon="2.37457">
        <ele>1084</ele>
        <time>2023-09-09T10:41:59Z</time>
      </trkpt>
      <trkpt lat="42.86697" lon="2.37456">
        <ele>1083</ele>
        <time>2023-09-09T10:42:00Z</time>
      </trkpt>
      <trkpt lat="42.86698" lon="2.37455">
        <ele>1083</ele>
        <time>2023-09-09T10:42:01Z</time>
      </trkpt>
      <trkpt lat="42.86701" lon="2.37442">
        <ele>1080</ele>
        <time>2023-09-09T10:42:28Z</time>
      </trkpt>
      <trkpt lat="42.86702" lon="2.37439">
        <ele>1080</ele>
        <time>2023-09-09T10:42:29Z</time>
      </trkpt>
      <trkpt lat="42.86702" lon="2.37438">
        <ele>1080</ele>
        <time>2023-09-09T10:42:30Z</time>
      </trkpt>
      <trkpt lat="42.86703" lon="2.37437">
        <ele>1080</ele>
        <time>2023-09-09T10:42:31Z</time>
      </trkpt>
      <trkpt lat="42.86703" lon="2.37436">
        <ele>1080</ele>
        <time>2023-09-09T10:42:32Z</time>
      </trkpt>
      <trkpt lat="42.86704" lon="2.37435">
        <ele>1080</ele>
        <time>2023-09-09T10:42:33Z</time>
      </trkpt>
      <trkpt lat="42.86705" lon="2.37434">
        <ele>1080</ele>
        <time>2023-09-09T10:42:34Z</time>
      </trkpt>
      <trkpt lat="42.86705" lon="2.37432">
        <ele>1080</ele>
        <time>2023-09-09T10:42:35Z</time>
      </trkpt>
      <trkpt lat="42.86706" lon="2.37431">
        <ele>1080</ele>
        <time>2023-09-09T10:42:36Z</time>
      </trkpt>
      <trkpt lat="42.86707" lon="2.37429">
        <ele>1080</ele>
        <time>2023-09-09T10:42:37Z</time>
      </trkpt>
      <trkpt lat="42.86707" lon="2.37428">
        <ele>1080</ele>
        <time>2023-09-09T10:42:38Z</time>
      </trkpt>
      <trkpt lat="42.86708" lon="2.37426">
        <ele>1080</ele>
        <time>2023-09-09T10:42:39Z</time>
      </trkpt>
      <trkpt lat="42.86708" lon="2.37425">
        <ele>1080</ele>
        <time>2023-09-09T10:42:40Z</time>
      </trkpt>
      <trkpt lat="42.86709" lon="2.37423">
        <ele>1080</ele>
        <time>2023-09-09T10:42:41Z</time>
      </trkpt>
      <trkpt lat="42.86709" lon="2.37422">
        <ele>1080</ele>
        <time>2023-09-09T10:42:42Z</time>
      </trkpt>
      <trkpt lat="42.86709" lon="2.3742">
        <ele>1079</ele>
        <time>2023-09-09T10:42:43Z</time>
      </trkpt>
      <trkpt lat="42.8671" lon="2.37419">
        <ele>1079</ele>
        <time>2023-09-09T10:42:44Z</time>
      </trkpt>
      <trkpt lat="42.8671" lon="2.37418">
        <ele>1079</ele>
        <time>2023-09-09T10:42:45Z</time>
      </trkpt>
      <trkpt lat="42.8671" lon="2.37418">
        <ele>1079</ele>
        <time>2023-09-09T10:42:46Z</time>
      </trkpt>
      <trkpt lat="42.86711" lon="2.37417">
        <ele>1079</ele>
        <time>2023-09-09T10:42:47Z</time>
      </trkpt>
      <trkpt lat="42.86711" lon="2.37417">
        <ele>1079</ele>
        <time>2023-09-09T10:42:48Z</time>
      </trkpt>
      <trkpt lat="42.86713" lon="2.37416">
        <ele>1081</ele>
        <time>2023-09-09T10:43:00Z</time>
      </trkpt>
      <trkpt lat="42.86713" lon="2.37415">
        <ele>1081</ele>
        <time>2023-09-09T10:43:01Z</time>
      </trkpt>
      <trkpt lat="42.86713" lon="2.37414">
        <ele>1082</ele>
        <time>2023-09-09T10:43:02Z</time>
      </trkpt>
      <trkpt lat="42.86714" lon="2.37413">
        <ele>1082</ele>
        <time>2023-09-09T10:43:03Z</time>
      </trkpt>
      <trkpt lat="42.86714" lon="2.37412">
        <ele>1082</ele>
        <time>2023-09-09T10:43:04Z</time>
      </trkpt>
      <trkpt lat="42.86714" lon="2.37412">
        <ele>1082</ele>
        <time>2023-09-09T10:43:05Z</time>
      </trkpt>
      <trkpt lat="42.86715" lon="2.37412">
        <ele>1082</ele>
        <time>2023-09-09T10:43:06Z</time>
      </trkpt>
      <trkpt lat="42.86715" lon="2.37411">
        <ele>1083</ele>
        <time>2023-09-09T10:43:07Z</time>
      </trkpt>
      <trkpt lat="42.86716" lon="2.37411">
        <ele>1083</ele>
        <time>2023-09-09T10:43:08Z</time>
      </trkpt>
      <trkpt lat="42.86717" lon="2.37411">
        <ele>1083</ele>
        <time>2023-09-09T10:43:09Z</time>
      </trkpt>
      <trkpt lat="42.86717" lon="2.37411">
        <ele>1083</ele>
        <time>2023-09-09T10:43:10Z</time>
      </trkpt>
      <trkpt lat="42.86718" lon="2.37411">
        <ele>1083</ele>
        <time>2023-09-09T10:43:11Z</time>
      </trkpt>
      <trkpt lat="42.86718" lon="2.37411">
        <ele>1083</ele>
        <time>2023-09-09T10:43:12Z</time>
      </trkpt>
      <trkpt lat="42.86719" lon="2.37411">
        <ele>1083</ele>
        <time>2023-09-09T10:43:13Z</time>
      </trkpt>
      <trkpt lat="42.86719" lon="2.37412">
        <ele>1083</ele>
        <time>2023-09-09T10:43:14Z</time>
      </trkpt>
      <trkpt lat="42.8672" lon="2.37412">
        <ele>1083</ele>
        <time>2023-09-09T10:43:15Z</time>
      </trkpt>
      <trkpt lat="42.8672" lon="2.37412">
        <ele>1083</ele>
        <time>2023-09-09T10:43:16Z</time>
      </trkpt>
      <trkpt lat="42.86721" lon="2.37412">
        <ele>1083</ele>
        <time>2023-09-09T10:43:17Z</time>
      </trkpt>
      <trkpt lat="42.86721" lon="2.37411">
        <ele>1082</ele>
        <time>2023-09-09T10:43:18Z</time>
      </trkpt>
      <trkpt lat="42.86722" lon="2.37411">
        <ele>1082</ele>
        <time>2023-09-09T10:43:19Z</time>
      </trkpt>
      <trkpt lat="42.86722" lon="2.37411">
        <ele>1082</ele>
        <time>2023-09-09T10:43:20Z</time>
      </trkpt>
      <trkpt lat="42.86722" lon="2.37411">
        <ele>1082</ele>
        <time>2023-09-09T10:43:21Z</time>
      </trkpt>
      <trkpt lat="42.86722" lon="2.37411">
        <ele>1082</ele>
        <time>2023-09-09T10:43:22Z</time>
      </trkpt>
      <trkpt lat="42.86723" lon="2.3741">
        <ele>1081</ele>
        <time>2023-09-09T10:43:23Z</time>
      </trkpt>
      <trkpt lat="42.86723" lon="2.37409">
        <ele>1081</ele>
        <time>2023-09-09T10:43:24Z</time>
      </trkpt>
      <trkpt lat="42.86723" lon="2.37408">
        <ele>1081</ele>
        <time>2023-09-09T10:43:25Z</time>
      </trkpt>
      <trkpt lat="42.86723" lon="2.37408">
        <ele>1081</ele>
        <time>2023-09-09T10:43:26Z</time>
      </trkpt>
      <trkpt lat="42.86723" lon="2.37406">
        <ele>1081</ele>
        <time>2023-09-09T10:43:27Z</time>
      </trkpt>
      <trkpt lat="42.86723" lon="2.37405">
        <ele>1080</ele>
        <time>2023-09-09T10:43:28Z</time>
      </trkpt>
      <trkpt lat="42.86723" lon="2.37404">
        <ele>1080</ele>
        <time>2023-09-09T10:43:29Z</time>
      </trkpt>
      <trkpt lat="42.86724" lon="2.37403">
        <ele>1079</ele>
        <time>2023-09-09T10:43:30Z</time>
      </trkpt>
      <trkpt lat="42.86724" lon="2.37402">
        <ele>1079</ele>
        <time>2023-09-09T10:43:31Z</time>
      </trkpt>
      <trkpt lat="42.86724" lon="2.374">
        <ele>1079</ele>
        <time>2023-09-09T10:43:32Z</time>
      </trkpt>
      <trkpt lat="42.86724" lon="2.37399">
        <ele>1078</ele>
        <time>2023-09-09T10:43:33Z</time>
      </trkpt>
      <trkpt lat="42.86724" lon="2.37398">
        <ele>1078</ele>
        <time>2023-09-09T10:43:34Z</time>
      </trkpt>
      <trkpt lat="42.86724" lon="2.37397">
        <ele>1078</ele>
        <time>2023-09-09T10:43:35Z</time>
      </trkpt>
      <trkpt lat="42.86724" lon="2.37397">
        <ele>1078</ele>
        <time>2023-09-09T10:43:36Z</time>
      </trkpt>
      <trkpt lat="42.86724" lon="2.37396">
        <ele>1078</ele>
        <time>2023-09-09T10:43:37Z</time>
      </trkpt>
      <trkpt lat="42.86723" lon="2.37395">
        <ele>1077</ele>
        <time>2023-09-09T10:43:38Z</time>
      </trkpt>
      <trkpt lat="42.86723" lon="2.37394">
        <ele>1077</ele>
        <time>2023-09-09T10:43:39Z</time>
      </trkpt>
      <trkpt lat="42.86723" lon="2.37393">
        <ele>1077</ele>
        <time>2023-09-09T10:43:40Z</time>
      </trkpt>
      <trkpt lat="42.86722" lon="2.37391">
        <ele>1077</ele>
        <time>2023-09-09T10:43:41Z</time>
      </trkpt>
      <trkpt lat="42.86722" lon="2.3739">
        <ele>1077</ele>
        <time>2023-09-09T10:43:42Z</time>
      </trkpt>
      <trkpt lat="42.86722" lon="2.37389">
        <ele>1076</ele>
        <time>2023-09-09T10:43:43Z</time>
      </trkpt>
      <trkpt lat="42.86721" lon="2.37387">
        <ele>1076</ele>
        <time>2023-09-09T10:43:44Z</time>
      </trkpt>
      <trkpt lat="42.86721" lon="2.37385">
        <ele>1076</ele>
        <time>2023-09-09T10:43:45Z</time>
      </trkpt>
      <trkpt lat="42.86721" lon="2.37384">
        <ele>1076</ele>
        <time>2023-09-09T10:43:46Z</time>
      </trkpt>
      <trkpt lat="42.8672" lon="2.37382">
        <ele>1076</ele>
        <time>2023-09-09T10:43:47Z</time>
      </trkpt>
      <trkpt lat="42.86721" lon="2.3738">
        <ele>1076</ele>
        <time>2023-09-09T10:43:48Z</time>
      </trkpt>
      <trkpt lat="42.86721" lon="2.37378">
        <ele>1076</ele>
        <time>2023-09-09T10:43:49Z</time>
      </trkpt>
      <trkpt lat="42.86722" lon="2.37376">
        <ele>1076</ele>
        <time>2023-09-09T10:43:50Z</time>
      </trkpt>
      <trkpt lat="42.86723" lon="2.37375">
        <ele>1076</ele>
        <time>2023-09-09T10:43:51Z</time>
      </trkpt>
      <trkpt lat="42.86723" lon="2.37373">
        <ele>1076</ele>
        <time>2023-09-09T10:43:52Z</time>
      </trkpt>
      <trkpt lat="42.86724" lon="2.37372">
        <ele>1075</ele>
        <time>2023-09-09T10:43:53Z</time>
      </trkpt>
      <trkpt lat="42.86725" lon="2.37371">
        <ele>1075</ele>
        <time>2023-09-09T10:43:54Z</time>
      </trkpt>
      <trkpt lat="42.86726" lon="2.37371">
        <ele>1074</ele>
        <time>2023-09-09T10:43:55Z</time>
      </trkpt>
      <trkpt lat="42.86727" lon="2.37372">
        <ele>1074</ele>
        <time>2023-09-09T10:43:56Z</time>
      </trkpt>
      <trkpt lat="42.86728" lon="2.37373">
        <ele>1074</ele>
        <time>2023-09-09T10:43:57Z</time>
      </trkpt>
      <trkpt lat="42.8673" lon="2.37374">
        <ele>1073</ele>
        <time>2023-09-09T10:43:58Z</time>
      </trkpt>
      <trkpt lat="42.86731" lon="2.37376">
        <ele>1073</ele>
        <time>2023-09-09T10:43:59Z</time>
      </trkpt>
      <trkpt lat="42.86733" lon="2.37377">
        <ele>1072</ele>
        <time>2023-09-09T10:44:00Z</time>
      </trkpt>
      <trkpt lat="42.86734" lon="2.37379">
        <ele>1072</ele>
        <time>2023-09-09T10:44:01Z</time>
      </trkpt>
      <trkpt lat="42.86735" lon="2.3738">
        <ele>1072</ele>
        <time>2023-09-09T10:44:02Z</time>
      </trkpt>
      <trkpt lat="42.86736" lon="2.37381">
        <ele>1071</ele>
        <time>2023-09-09T10:44:03Z</time>
      </trkpt>
      <trkpt lat="42.86736" lon="2.37383">
        <ele>1071</ele>
        <time>2023-09-09T10:44:04Z</time>
      </trkpt>
      <trkpt lat="42.86737" lon="2.37384">
        <ele>1070</ele>
        <time>2023-09-09T10:44:05Z</time>
      </trkpt>
      <trkpt lat="42.86738" lon="2.37385">
        <ele>1070</ele>
        <time>2023-09-09T10:44:06Z</time>
      </trkpt>
      <trkpt lat="42.86738" lon="2.37386">
        <ele>1070</ele>
        <time>2023-09-09T10:44:07Z</time>
      </trkpt>
      <trkpt lat="42.86739" lon="2.37387">
        <ele>1069</ele>
        <time>2023-09-09T10:44:08Z</time>
      </trkpt>
      <trkpt lat="42.8674" lon="2.37388">
        <ele>1069</ele>
        <time>2023-09-09T10:44:09Z</time>
      </trkpt>
      <trkpt lat="42.86741" lon="2.37388">
        <ele>1068</ele>
        <time>2023-09-09T10:44:10Z</time>
      </trkpt>
      <trkpt lat="42.86742" lon="2.37389">
        <ele>1068</ele>
        <time>2023-09-09T10:44:11Z</time>
      </trkpt>
      <trkpt lat="42.86742" lon="2.3739">
        <ele>1068</ele>
        <time>2023-09-09T10:44:12Z</time>
      </trkpt>
      <trkpt lat="42.86743" lon="2.3739">
        <ele>1067</ele>
        <time>2023-09-09T10:44:13Z</time>
      </trkpt>
      <trkpt lat="42.86743" lon="2.37391">
        <ele>1066</ele>
        <time>2023-09-09T10:44:14Z</time>
      </trkpt>
      <trkpt lat="42.86744" lon="2.37391">
        <ele>1066</ele>
        <time>2023-09-09T10:44:15Z</time>
      </trkpt>
      <trkpt lat="42.86745" lon="2.37392">
        <ele>1065</ele>
        <time>2023-09-09T10:44:16Z</time>
      </trkpt>
      <trkpt lat="42.86746" lon="2.37392">
        <ele>1065</ele>
        <time>2023-09-09T10:44:17Z</time>
      </trkpt>
      <trkpt lat="42.86746" lon="2.37392">
        <ele>1064</ele>
        <time>2023-09-09T10:44:18Z</time>
      </trkpt>
      <trkpt lat="42.86747" lon="2.37392">
        <ele>1063</ele>
        <time>2023-09-09T10:44:19Z</time>
      </trkpt>
      <trkpt lat="42.86748" lon="2.37393">
        <ele>1063</ele>
        <time>2023-09-09T10:44:20Z</time>
      </trkpt>
      <trkpt lat="42.86748" lon="2.37393">
        <ele>1062</ele>
        <time>2023-09-09T10:44:21Z</time>
      </trkpt>
      <trkpt lat="42.86749" lon="2.37393">
        <ele>1062</ele>
        <time>2023-09-09T10:44:22Z</time>
      </trkpt>
      <trkpt lat="42.86749" lon="2.37394">
        <ele>1061</ele>
        <time>2023-09-09T10:44:23Z</time>
      </trkpt>
      <trkpt lat="42.8675" lon="2.37394">
        <ele>1060</ele>
        <time>2023-09-09T10:44:24Z</time>
      </trkpt>
      <trkpt lat="42.8675" lon="2.37395">
        <ele>1060</ele>
        <time>2023-09-09T10:44:25Z</time>
      </trkpt>
      <trkpt lat="42.86751" lon="2.37396">
        <ele>1059</ele>
        <time>2023-09-09T10:44:26Z</time>
      </trkpt>
      <trkpt lat="42.86751" lon="2.37396">
        <ele>1059</ele>
        <time>2023-09-09T10:44:27Z</time>
      </trkpt>
      <trkpt lat="42.86751" lon="2.37396">
        <ele>1058</ele>
        <time>2023-09-09T10:44:28Z</time>
      </trkpt>
      <trkpt lat="42.86751" lon="2.37396">
        <ele>1058</ele>
        <time>2023-09-09T10:44:29Z</time>
      </trkpt>
      <trkpt lat="42.86751" lon="2.37396">
        <ele>1057</ele>
        <time>2023-09-09T10:44:30Z</time>
      </trkpt>
      <trkpt lat="42.86752" lon="2.37397">
        <ele>1057</ele>
        <time>2023-09-09T10:44:31Z</time>
      </trkpt>
      <trkpt lat="42.86752" lon="2.37397">
        <ele>1057</ele>
        <time>2023-09-09T10:44:32Z</time>
      </trkpt>
      <trkpt lat="42.86753" lon="2.37398">
        <ele>1056</ele>
        <time>2023-09-09T10:44:33Z</time>
      </trkpt>
      <trkpt lat="42.86754" lon="2.37398">
        <ele>1056</ele>
        <time>2023-09-09T10:44:34Z</time>
      </trkpt>
      <trkpt lat="42.86754" lon="2.37398">
        <ele>1056</ele>
        <time>2023-09-09T10:44:35Z</time>
      </trkpt>
      <trkpt lat="42.86755" lon="2.37399">
        <ele>1056</ele>
        <time>2023-09-09T10:44:36Z</time>
      </trkpt>
      <trkpt lat="42.86755" lon="2.37399">
        <ele>1056</ele>
        <time>2023-09-09T10:44:37Z</time>
      </trkpt>
      <trkpt lat="42.86756" lon="2.37399">
        <ele>1055</ele>
        <time>2023-09-09T10:44:38Z</time>
      </trkpt>
      <trkpt lat="42.86756" lon="2.37399">
        <ele>1054</ele>
        <time>2023-09-09T10:44:39Z</time>
      </trkpt>
      <trkpt lat="42.86757" lon="2.37398">
        <ele>1054</ele>
        <time>2023-09-09T10:44:40Z</time>
      </trkpt>
      <trkpt lat="42.86757" lon="2.37398">
        <ele>1053</ele>
        <time>2023-09-09T10:44:41Z</time>
      </trkpt>
      <trkpt lat="42.86757" lon="2.37398">
        <ele>1053</ele>
        <time>2023-09-09T10:44:42Z</time>
      </trkpt>
      <trkpt lat="42.86758" lon="2.37397">
        <ele>1052</ele>
        <time>2023-09-09T10:44:43Z</time>
      </trkpt>
      <trkpt lat="42.86758" lon="2.37397">
        <ele>1052</ele>
        <time>2023-09-09T10:44:44Z</time>
      </trkpt>
      <trkpt lat="42.86759" lon="2.37396">
        <ele>1051</ele>
        <time>2023-09-09T10:44:45Z</time>
      </trkpt>
      <trkpt lat="42.86759" lon="2.37395">
        <ele>1051</ele>
        <time>2023-09-09T10:44:46Z</time>
      </trkpt>
      <trkpt lat="42.86759" lon="2.37394">
        <ele>1051</ele>
        <time>2023-09-09T10:44:47Z</time>
      </trkpt>
      <trkpt lat="42.86759" lon="2.37393">
        <ele>1050</ele>
        <time>2023-09-09T10:44:48Z</time>
      </trkpt>
      <trkpt lat="42.86759" lon="2.37392">
        <ele>1050</ele>
        <time>2023-09-09T10:44:49Z</time>
      </trkpt>
      <trkpt lat="42.86758" lon="2.37391">
        <ele>1050</ele>
        <time>2023-09-09T10:44:50Z</time>
      </trkpt>
      <trkpt lat="42.86758" lon="2.3739">
        <ele>1050</ele>
        <time>2023-09-09T10:44:51Z</time>
      </trkpt>
      <trkpt lat="42.86757" lon="2.3739">
        <ele>1050</ele>
        <time>2023-09-09T10:44:52Z</time>
      </trkpt>
      <trkpt lat="42.86757" lon="2.37389">
        <ele>1049</ele>
        <time>2023-09-09T10:44:53Z</time>
      </trkpt>
      <trkpt lat="42.86757" lon="2.37388">
        <ele>1049</ele>
        <time>2023-09-09T10:44:54Z</time>
      </trkpt>
      <trkpt lat="42.86756" lon="2.37387">
        <ele>1048</ele>
        <time>2023-09-09T10:44:55Z</time>
      </trkpt>
      <trkpt lat="42.86756" lon="2.37386">
        <ele>1048</ele>
        <time>2023-09-09T10:44:56Z</time>
      </trkpt>
      <trkpt lat="42.86756" lon="2.37385">
        <ele>1048</ele>
        <time>2023-09-09T10:44:57Z</time>
      </trkpt>
      <trkpt lat="42.86755" lon="2.37384">
        <ele>1047</ele>
        <time>2023-09-09T10:44:58Z</time>
      </trkpt>
      <trkpt lat="42.86755" lon="2.37383">
        <ele>1047</ele>
        <time>2023-09-09T10:44:59Z</time>
      </trkpt>
      <trkpt lat="42.86755" lon="2.37382">
        <ele>1047</ele>
        <time>2023-09-09T10:45:00Z</time>
      </trkpt>
      <trkpt lat="42.86755" lon="2.37382">
        <ele>1047</ele>
        <time>2023-09-09T10:45:01Z</time>
      </trkpt>
      <trkpt lat="42.86755" lon="2.37381">
        <ele>1047</ele>
        <time>2023-09-09T10:45:02Z</time>
      </trkpt>
      <trkpt lat="42.86755" lon="2.3738">
        <ele>1046</ele>
        <time>2023-09-09T10:45:03Z</time>
      </trkpt>
      <trkpt lat="42.86755" lon="2.37379">
        <ele>1046</ele>
        <time>2023-09-09T10:45:04Z</time>
      </trkpt>
      <trkpt lat="42.86755" lon="2.37378">
        <ele>1045</ele>
        <time>2023-09-09T10:45:05Z</time>
      </trkpt>
      <trkpt lat="42.86754" lon="2.37377">
        <ele>1045</ele>
        <time>2023-09-09T10:45:06Z</time>
      </trkpt>
      <trkpt lat="42.86754" lon="2.37377">
        <ele>1045</ele>
        <time>2023-09-09T10:45:07Z</time>
      </trkpt>
      <trkpt lat="42.86755" lon="2.37376">
        <ele>1044</ele>
        <time>2023-09-09T10:45:08Z</time>
      </trkpt>
      <trkpt lat="42.86755" lon="2.37375">
        <ele>1044</ele>
        <time>2023-09-09T10:45:09Z</time>
      </trkpt>
      <trkpt lat="42.86755" lon="2.37375">
        <ele>1044</ele>
        <time>2023-09-09T10:45:10Z</time>
      </trkpt>
      <trkpt lat="42.86755" lon="2.37374">
        <ele>1044</ele>
        <time>2023-09-09T10:45:11Z</time>
      </trkpt>
      <trkpt lat="42.86755" lon="2.37374">
        <ele>1044</ele>
        <time>2023-09-09T10:45:12Z</time>
      </trkpt>
      <trkpt lat="42.86755" lon="2.37374">
        <ele>1043</ele>
        <time>2023-09-09T10:45:13Z</time>
      </trkpt>
      <trkpt lat="42.86755" lon="2.37374">
        <ele>1043</ele>
        <time>2023-09-09T10:45:14Z</time>
      </trkpt>
      <trkpt lat="42.86755" lon="2.37373">
        <ele>1043</ele>
        <time>2023-09-09T10:45:15Z</time>
      </trkpt>
      <trkpt lat="42.86755" lon="2.37373">
        <ele>1043</ele>
        <time>2023-09-09T10:45:16Z</time>
      </trkpt>
      <trkpt lat="42.86755" lon="2.37372">
        <ele>1043</ele>
        <time>2023-09-09T10:45:17Z</time>
      </trkpt>
      <trkpt lat="42.86754" lon="2.37372">
        <ele>1042</ele>
        <time>2023-09-09T10:45:18Z</time>
      </trkpt>
      <trkpt lat="42.86754" lon="2.37371">
        <ele>1042</ele>
        <time>2023-09-09T10:45:19Z</time>
      </trkpt>
      <trkpt lat="42.86754" lon="2.3737">
        <ele>1042</ele>
        <time>2023-09-09T10:45:20Z</time>
      </trkpt>
      <trkpt lat="42.86754" lon="2.37369">
        <ele>1042</ele>
        <time>2023-09-09T10:45:21Z</time>
      </trkpt>
      <trkpt lat="42.86754" lon="2.37369">
        <ele>1042</ele>
        <time>2023-09-09T10:45:22Z</time>
      </trkpt>
      <trkpt lat="42.86754" lon="2.37368">
        <ele>1041</ele>
        <time>2023-09-09T10:45:23Z</time>
      </trkpt>
      <trkpt lat="42.86754" lon="2.37367">
        <ele>1041</ele>
        <time>2023-09-09T10:45:24Z</time>
      </trkpt>
      <trkpt lat="42.86754" lon="2.37366">
        <ele>1041</ele>
        <time>2023-09-09T10:45:25Z</time>
      </trkpt>
      <trkpt lat="42.86754" lon="2.37365">
        <ele>1041</ele>
        <time>2023-09-09T10:45:26Z</time>
      </trkpt>
      <trkpt lat="42.86754" lon="2.37364">
        <ele>1041</ele>
        <time>2023-09-09T10:45:27Z</time>
      </trkpt>
      <trkpt lat="42.86754" lon="2.37363">
        <ele>1040</ele>
        <time>2023-09-09T10:45:28Z</time>
      </trkpt>
      <trkpt lat="42.86754" lon="2.37361">
        <ele>1040</ele>
        <time>2023-09-09T10:45:29Z</time>
      </trkpt>
      <trkpt lat="42.86754" lon="2.3736">
        <ele>1040</ele>
        <time>2023-09-09T10:45:30Z</time>
      </trkpt>
      <trkpt lat="42.86754" lon="2.3736">
        <ele>1040</ele>
        <time>2023-09-09T10:45:31Z</time>
      </trkpt>
      <trkpt lat="42.86753" lon="2.37359">
        <ele>1040</ele>
        <time>2023-09-09T10:45:32Z</time>
      </trkpt>
      <trkpt lat="42.86753" lon="2.37359">
        <ele>1039</ele>
        <time>2023-09-09T10:45:33Z</time>
      </trkpt>
      <trkpt lat="42.86753" lon="2.37358">
        <ele>1039</ele>
        <time>2023-09-09T10:45:34Z</time>
      </trkpt>
      <trkpt lat="42.86753" lon="2.37357">
        <ele>1039</ele>
        <time>2023-09-09T10:45:35Z</time>
      </trkpt>
      <trkpt lat="42.86753" lon="2.37356">
        <ele>1039</ele>
        <time>2023-09-09T10:45:36Z</time>
      </trkpt>
      <trkpt lat="42.86753" lon="2.37355">
        <ele>1039</ele>
        <time>2023-09-09T10:45:37Z</time>
      </trkpt>
      <trkpt lat="42.86753" lon="2.37353">
        <ele>1038</ele>
        <time>2023-09-09T10:45:38Z</time>
      </trkpt>
      <trkpt lat="42.86752" lon="2.37352">
        <ele>1038</ele>
        <time>2023-09-09T10:45:39Z</time>
      </trkpt>
      <trkpt lat="42.86752" lon="2.3735">
        <ele>1037</ele>
        <time>2023-09-09T10:45:40Z</time>
      </trkpt>
      <trkpt lat="42.86752" lon="2.37349">
        <ele>1037</ele>
        <time>2023-09-09T10:45:41Z</time>
      </trkpt>
      <trkpt lat="42.86752" lon="2.37348">
        <ele>1037</ele>
        <time>2023-09-09T10:45:42Z</time>
      </trkpt>
      <trkpt lat="42.86752" lon="2.37347">
        <ele>1036</ele>
        <time>2023-09-09T10:45:43Z</time>
      </trkpt>
      <trkpt lat="42.86752" lon="2.37346">
        <ele>1035</ele>
        <time>2023-09-09T10:45:44Z</time>
      </trkpt>
      <trkpt lat="42.86752" lon="2.37345">
        <ele>1035</ele>
        <time>2023-09-09T10:45:45Z</time>
      </trkpt>
      <trkpt lat="42.86752" lon="2.37344">
        <ele>1034</ele>
        <time>2023-09-09T10:45:46Z</time>
      </trkpt>
      <trkpt lat="42.86752" lon="2.37343">
        <ele>1034</ele>
        <time>2023-09-09T10:45:47Z</time>
      </trkpt>
      <trkpt lat="42.86754" lon="2.3734">
        <ele>1029</ele>
        <time>2023-09-09T10:46:04Z</time>
      </trkpt>
      <trkpt lat="42.86755" lon="2.37339">
        <ele>1028</ele>
        <time>2023-09-09T10:46:05Z</time>
      </trkpt>
      <trkpt lat="42.86756" lon="2.37338">
        <ele>1028</ele>
        <time>2023-09-09T10:46:06Z</time>
      </trkpt>
      <trkpt lat="42.86757" lon="2.37338">
        <ele>1028</ele>
        <time>2023-09-09T10:46:07Z</time>
      </trkpt>
      <trkpt lat="42.86758" lon="2.37337">
        <ele>1027</ele>
        <time>2023-09-09T10:46:08Z</time>
      </trkpt>
      <trkpt lat="42.86758" lon="2.37337">
        <ele>1027</ele>
        <time>2023-09-09T10:46:09Z</time>
      </trkpt>
      <trkpt lat="42.86759" lon="2.37337">
        <ele>1026</ele>
        <time>2023-09-09T10:46:10Z</time>
      </trkpt>
      <trkpt lat="42.8676" lon="2.37337">
        <ele>1026</ele>
        <time>2023-09-09T10:46:11Z</time>
      </trkpt>
      <trkpt lat="42.86761" lon="2.37337">
        <ele>1026</ele>
        <time>2023-09-09T10:46:12Z</time>
      </trkpt>
      <trkpt lat="42.86762" lon="2.37337">
        <ele>1025</ele>
        <time>2023-09-09T10:46:13Z</time>
      </trkpt>
      <trkpt lat="42.86763" lon="2.37337">
        <ele>1025</ele>
        <time>2023-09-09T10:46:14Z</time>
      </trkpt>
      <trkpt lat="42.86763" lon="2.37337">
        <ele>1025</ele>
        <time>2023-09-09T10:46:15Z</time>
      </trkpt>
      <trkpt lat="42.86764" lon="2.37337">
        <ele>1025</ele>
        <time>2023-09-09T10:46:16Z</time>
      </trkpt>
      <trkpt lat="42.86765" lon="2.37338">
        <ele>1025</ele>
        <time>2023-09-09T10:46:17Z</time>
      </trkpt>
      <trkpt lat="42.86766" lon="2.37338">
        <ele>1024</ele>
        <time>2023-09-09T10:46:18Z</time>
      </trkpt>
      <trkpt lat="42.86767" lon="2.37338">
        <ele>1024</ele>
        <time>2023-09-09T10:46:19Z</time>
      </trkpt>
      <trkpt lat="42.86767" lon="2.37339">
        <ele>1023</ele>
        <time>2023-09-09T10:46:20Z</time>
      </trkpt>
      <trkpt lat="42.86768" lon="2.37339">
        <ele>1023</ele>
        <time>2023-09-09T10:46:21Z</time>
      </trkpt>
      <trkpt lat="42.86769" lon="2.3734">
        <ele>1023</ele>
        <time>2023-09-09T10:46:22Z</time>
      </trkpt>
      <trkpt lat="42.8677" lon="2.3734">
        <ele>1022</ele>
        <time>2023-09-09T10:46:23Z</time>
      </trkpt>
      <trkpt lat="42.8677" lon="2.37341">
        <ele>1022</ele>
        <time>2023-09-09T10:46:24Z</time>
      </trkpt>
      <trkpt lat="42.86771" lon="2.37341">
        <ele>1022</ele>
        <time>2023-09-09T10:46:25Z</time>
      </trkpt>
      <trkpt lat="42.86772" lon="2.37342">
        <ele>1022</ele>
        <time>2023-09-09T10:46:26Z</time>
      </trkpt>
      <trkpt lat="42.86773" lon="2.37342">
        <ele>1022</ele>
        <time>2023-09-09T10:46:27Z</time>
      </trkpt>
      <trkpt lat="42.86774" lon="2.37342">
        <ele>1021</ele>
        <time>2023-09-09T10:46:28Z</time>
      </trkpt>
      <trkpt lat="42.86775" lon="2.37342">
        <ele>1021</ele>
        <time>2023-09-09T10:46:29Z</time>
      </trkpt>
      <trkpt lat="42.86776" lon="2.37343">
        <ele>1020</ele>
        <time>2023-09-09T10:46:30Z</time>
      </trkpt>
      <trkpt lat="42.86777" lon="2.37343">
        <ele>1020</ele>
        <time>2023-09-09T10:46:31Z</time>
      </trkpt>
      <trkpt lat="42.86778" lon="2.37343">
        <ele>1020</ele>
        <time>2023-09-09T10:46:32Z</time>
      </trkpt>
      <trkpt lat="42.86778" lon="2.37343">
        <ele>1019</ele>
        <time>2023-09-09T10:46:33Z</time>
      </trkpt>
      <trkpt lat="42.86779" lon="2.37343">
        <ele>1019</ele>
        <time>2023-09-09T10:46:34Z</time>
      </trkpt>
      <trkpt lat="42.8678" lon="2.37343">
        <ele>1018</ele>
        <time>2023-09-09T10:46:35Z</time>
      </trkpt>
      <trkpt lat="42.86781" lon="2.37343">
        <ele>1018</ele>
        <time>2023-09-09T10:46:36Z</time>
      </trkpt>
      <trkpt lat="42.86782" lon="2.37343">
        <ele>1018</ele>
        <time>2023-09-09T10:46:37Z</time>
      </trkpt>
      <trkpt lat="42.86783" lon="2.37344">
        <ele>1017</ele>
        <time>2023-09-09T10:46:38Z</time>
      </trkpt>
      <trkpt lat="42.86784" lon="2.37344">
        <ele>1017</ele>
        <time>2023-09-09T10:46:39Z</time>
      </trkpt>
      <trkpt lat="42.86785" lon="2.37344">
        <ele>1016</ele>
        <time>2023-09-09T10:46:40Z</time>
      </trkpt>
      <trkpt lat="42.86785" lon="2.37344">
        <ele>1016</ele>
        <time>2023-09-09T10:46:41Z</time>
      </trkpt>
      <trkpt lat="42.86786" lon="2.37344">
        <ele>1016</ele>
        <time>2023-09-09T10:46:42Z</time>
      </trkpt>
      <trkpt lat="42.86787" lon="2.37345">
        <ele>1015</ele>
        <time>2023-09-09T10:46:43Z</time>
      </trkpt>
      <trkpt lat="42.86788" lon="2.37345">
        <ele>1015</ele>
        <time>2023-09-09T10:46:44Z</time>
      </trkpt>
      <trkpt lat="42.86789" lon="2.37345">
        <ele>1014</ele>
        <time>2023-09-09T10:46:45Z</time>
      </trkpt>
      <trkpt lat="42.8679" lon="2.37345">
        <ele>1014</ele>
        <time>2023-09-09T10:46:46Z</time>
      </trkpt>
      <trkpt lat="42.86791" lon="2.37345">
        <ele>1014</ele>
        <time>2023-09-09T10:46:47Z</time>
      </trkpt>
      <trkpt lat="42.86792" lon="2.37345">
        <ele>1013</ele>
        <time>2023-09-09T10:46:48Z</time>
      </trkpt>
      <trkpt lat="42.86793" lon="2.37345">
        <ele>1013</ele>
        <time>2023-09-09T10:46:49Z</time>
      </trkpt>
      <trkpt lat="42.86794" lon="2.37345">
        <ele>1013</ele>
        <time>2023-09-09T10:46:50Z</time>
      </trkpt>
      <trkpt lat="42.86795" lon="2.37344">
        <ele>1013</ele>
        <time>2023-09-09T10:46:51Z</time>
      </trkpt>
      <trkpt lat="42.86797" lon="2.37344">
        <ele>1013</ele>
        <time>2023-09-09T10:46:52Z</time>
      </trkpt>
      <trkpt lat="42.86798" lon="2.37344">
        <ele>1012</ele>
        <time>2023-09-09T10:46:53Z</time>
      </trkpt>
      <trkpt lat="42.86799" lon="2.37344">
        <ele>1012</ele>
        <time>2023-09-09T10:46:54Z</time>
      </trkpt>
      <trkpt lat="42.868" lon="2.37344">
        <ele>1011</ele>
        <time>2023-09-09T10:46:55Z</time>
      </trkpt>
      <trkpt lat="42.86801" lon="2.37344">
        <ele>1011</ele>
        <time>2023-09-09T10:46:56Z</time>
      </trkpt>
      <trkpt lat="42.86802" lon="2.37344">
        <ele>1011</ele>
        <time>2023-09-09T10:46:57Z</time>
      </trkpt>
      <trkpt lat="42.86803" lon="2.37345">
        <ele>1010</ele>
        <time>2023-09-09T10:46:58Z</time>
      </trkpt>
      <trkpt lat="42.86803" lon="2.37346">
        <ele>1010</ele>
        <time>2023-09-09T10:46:59Z</time>
      </trkpt>
      <trkpt lat="42.86804" lon="2.37348">
        <ele>1009</ele>
        <time>2023-09-09T10:47:00Z</time>
      </trkpt>
      <trkpt lat="42.86805" lon="2.37349">
        <ele>1009</ele>
        <time>2023-09-09T10:47:01Z</time>
      </trkpt>
      <trkpt lat="42.86806" lon="2.37351">
        <ele>1009</ele>
        <time>2023-09-09T10:47:02Z</time>
      </trkpt>
      <trkpt lat="42.86806" lon="2.37352">
        <ele>1008</ele>
        <time>2023-09-09T10:47:03Z</time>
      </trkpt>
      <trkpt lat="42.86807" lon="2.37354">
        <ele>1008</ele>
        <time>2023-09-09T10:47:04Z</time>
      </trkpt>
      <trkpt lat="42.86808" lon="2.37355">
        <ele>1007</ele>
        <time>2023-09-09T10:47:05Z</time>
      </trkpt>
      <trkpt lat="42.86808" lon="2.37356">
        <ele>1007</ele>
        <time>2023-09-09T10:47:06Z</time>
      </trkpt>
      <trkpt lat="42.86808" lon="2.37357">
        <ele>1007</ele>
        <time>2023-09-09T10:47:07Z</time>
      </trkpt>
      <trkpt lat="42.86809" lon="2.37357">
        <ele>1006</ele>
        <time>2023-09-09T10:47:08Z</time>
      </trkpt>
      <trkpt lat="42.86809" lon="2.37358">
        <ele>1006</ele>
        <time>2023-09-09T10:47:09Z</time>
      </trkpt>
      <trkpt lat="42.86809" lon="2.37359">
        <ele>1006</ele>
        <time>2023-09-09T10:47:10Z</time>
      </trkpt>
      <trkpt lat="42.8681" lon="2.3736">
        <ele>1006</ele>
        <time>2023-09-09T10:47:11Z</time>
      </trkpt>
      <trkpt lat="42.8681" lon="2.3736">
        <ele>1006</ele>
        <time>2023-09-09T10:47:12Z</time>
      </trkpt>
      <trkpt lat="42.86811" lon="2.37361">
        <ele>1005</ele>
        <time>2023-09-09T10:47:13Z</time>
      </trkpt>
      <trkpt lat="42.86811" lon="2.37362">
        <ele>1004</ele>
        <time>2023-09-09T10:47:14Z</time>
      </trkpt>
      <trkpt lat="42.86812" lon="2.37362">
        <ele>1004</ele>
        <time>2023-09-09T10:47:15Z</time>
      </trkpt>
      <trkpt lat="42.86813" lon="2.37363">
        <ele>1003</ele>
        <time>2023-09-09T10:47:16Z</time>
      </trkpt>
      <trkpt lat="42.86813" lon="2.37363">
        <ele>1003</ele>
        <time>2023-09-09T10:47:17Z</time>
      </trkpt>
      <trkpt lat="42.86814" lon="2.37364">
        <ele>1002</ele>
        <time>2023-09-09T10:47:18Z</time>
      </trkpt>
      <trkpt lat="42.86815" lon="2.37364">
        <ele>1002</ele>
        <time>2023-09-09T10:47:19Z</time>
      </trkpt>
      <trkpt lat="42.86816" lon="2.37365">
        <ele>1002</ele>
        <time>2023-09-09T10:47:20Z</time>
      </trkpt>
      <trkpt lat="42.86817" lon="2.37366">
        <ele>1002</ele>
        <time>2023-09-09T10:47:21Z</time>
      </trkpt>
      <trkpt lat="42.86818" lon="2.37367">
        <ele>1002</ele>
        <time>2023-09-09T10:47:22Z</time>
      </trkpt>
      <trkpt lat="42.86818" lon="2.37368">
        <ele>1001</ele>
        <time>2023-09-09T10:47:23Z</time>
      </trkpt>
      <trkpt lat="42.86819" lon="2.3737">
        <ele>1000</ele>
        <time>2023-09-09T10:47:24Z</time>
      </trkpt>
      <trkpt lat="42.8682" lon="2.37371">
        <ele>1000</ele>
        <time>2023-09-09T10:47:25Z</time>
      </trkpt>
      <trkpt lat="42.86821" lon="2.37372">
        <ele>999</ele>
        <time>2023-09-09T10:47:26Z</time>
      </trkpt>
      <trkpt lat="42.86822" lon="2.37373">
        <ele>999</ele>
        <time>2023-09-09T10:47:27Z</time>
      </trkpt>
      <trkpt lat="42.86823" lon="2.37374">
        <ele>998</ele>
        <time>2023-09-09T10:47:28Z</time>
      </trkpt>
      <trkpt lat="42.86824" lon="2.37375">
        <ele>998</ele>
        <time>2023-09-09T10:47:29Z</time>
      </trkpt>
      <trkpt lat="42.86825" lon="2.37376">
        <ele>997</ele>
        <time>2023-09-09T10:47:30Z</time>
      </trkpt>
      <trkpt lat="42.86826" lon="2.37376">
        <ele>997</ele>
        <time>2023-09-09T10:47:31Z</time>
      </trkpt>
      <trkpt lat="42.86827" lon="2.37377">
        <ele>997</ele>
        <time>2023-09-09T10:47:32Z</time>
      </trkpt>
      <trkpt lat="42.86828" lon="2.37378">
        <ele>996</ele>
        <time>2023-09-09T10:47:33Z</time>
      </trkpt>
      <trkpt lat="42.86829" lon="2.37379">
        <ele>996</ele>
        <time>2023-09-09T10:47:34Z</time>
      </trkpt>
      <trkpt lat="42.86829" lon="2.37381">
        <ele>996</ele>
        <time>2023-09-09T10:47:35Z</time>
      </trkpt>
      <trkpt lat="42.8683" lon="2.37382">
        <ele>996</ele>
        <time>2023-09-09T10:47:36Z</time>
      </trkpt>
      <trkpt lat="42.8683" lon="2.37384">
        <ele>996</ele>
        <time>2023-09-09T10:47:37Z</time>
      </trkpt>
      <trkpt lat="42.86831" lon="2.37385">
        <ele>995</ele>
        <time>2023-09-09T10:47:38Z</time>
      </trkpt>
      <trkpt lat="42.86832" lon="2.37386">
        <ele>995</ele>
        <time>2023-09-09T10:47:39Z</time>
      </trkpt>
      <trkpt lat="42.86832" lon="2.37387">
        <ele>994</ele>
        <time>2023-09-09T10:47:40Z</time>
      </trkpt>
      <trkpt lat="42.86833" lon="2.37387">
        <ele>994</ele>
        <time>2023-09-09T10:47:41Z</time>
      </trkpt>
      <trkpt lat="42.86833" lon="2.37387">
        <ele>994</ele>
        <time>2023-09-09T10:47:42Z</time>
      </trkpt>
      <trkpt lat="42.86833" lon="2.37387">
        <ele>993</ele>
        <time>2023-09-09T10:47:43Z</time>
      </trkpt>
      <trkpt lat="42.86834" lon="2.37386">
        <ele>993</ele>
        <time>2023-09-09T10:47:44Z</time>
      </trkpt>
      <trkpt lat="42.86834" lon="2.37386">
        <ele>993</ele>
        <time>2023-09-09T10:47:45Z</time>
      </trkpt>
      <trkpt lat="42.86834" lon="2.37385">
        <ele>993</ele>
        <time>2023-09-09T10:47:46Z</time>
      </trkpt>
      <trkpt lat="42.86834" lon="2.37384">
        <ele>993</ele>
        <time>2023-09-09T10:47:47Z</time>
      </trkpt>
      <trkpt lat="42.86834" lon="2.37383">
        <ele>992</ele>
        <time>2023-09-09T10:47:48Z</time>
      </trkpt>
      <trkpt lat="42.86833" lon="2.37381">
        <ele>992</ele>
        <time>2023-09-09T10:47:49Z</time>
      </trkpt>
      <trkpt lat="42.86833" lon="2.3738">
        <ele>991</ele>
        <time>2023-09-09T10:47:50Z</time>
      </trkpt>
      <trkpt lat="42.86833" lon="2.3738">
        <ele>991</ele>
        <time>2023-09-09T10:47:51Z</time>
      </trkpt>
      <trkpt lat="42.86833" lon="2.37379">
        <ele>991</ele>
        <time>2023-09-09T10:47:52Z</time>
      </trkpt>
      <trkpt lat="42.86833" lon="2.37379">
        <ele>990</ele>
        <time>2023-09-09T10:47:53Z</time>
      </trkpt>
      <trkpt lat="42.86834" lon="2.37378">
        <ele>990</ele>
        <time>2023-09-09T10:47:54Z</time>
      </trkpt>
      <trkpt lat="42.86834" lon="2.37378">
        <ele>989</ele>
        <time>2023-09-09T10:47:55Z</time>
      </trkpt>
      <trkpt lat="42.86834" lon="2.37377">
        <ele>989</ele>
        <time>2023-09-09T10:47:56Z</time>
      </trkpt>
      <trkpt lat="42.86835" lon="2.37376">
        <ele>989</ele>
        <time>2023-09-09T10:47:57Z</time>
      </trkpt>
      <trkpt lat="42.86835" lon="2.37375">
        <ele>988</ele>
        <time>2023-09-09T10:47:58Z</time>
      </trkpt>
      <trkpt lat="42.86835" lon="2.37375">
        <ele>988</ele>
        <time>2023-09-09T10:47:59Z</time>
      </trkpt>
      <trkpt lat="42.86835" lon="2.37374">
        <ele>987</ele>
        <time>2023-09-09T10:48:00Z</time>
      </trkpt>
      <trkpt lat="42.86835" lon="2.37373">
        <ele>987</ele>
        <time>2023-09-09T10:48:01Z</time>
      </trkpt>
      <trkpt lat="42.86835" lon="2.37373">
        <ele>987</ele>
        <time>2023-09-09T10:48:02Z</time>
      </trkpt>
      <trkpt lat="42.86835" lon="2.37373">
        <ele>986</ele>
        <time>2023-09-09T10:48:03Z</time>
      </trkpt>
      <trkpt lat="42.86835" lon="2.37372">
        <ele>986</ele>
        <time>2023-09-09T10:48:04Z</time>
      </trkpt>
      <trkpt lat="42.86835" lon="2.37371">
        <ele>986</ele>
        <time>2023-09-09T10:48:05Z</time>
      </trkpt>
      <trkpt lat="42.86835" lon="2.3737">
        <ele>986</ele>
        <time>2023-09-09T10:48:06Z</time>
      </trkpt>
      <trkpt lat="42.86835" lon="2.37369">
        <ele>986</ele>
        <time>2023-09-09T10:48:07Z</time>
      </trkpt>
      <trkpt lat="42.86835" lon="2.37368">
        <ele>985</ele>
        <time>2023-09-09T10:48:08Z</time>
      </trkpt>
      <trkpt lat="42.86834" lon="2.37367">
        <ele>984</ele>
        <time>2023-09-09T10:48:09Z</time>
      </trkpt>
      <trkpt lat="42.86834" lon="2.37366">
        <ele>984</ele>
        <time>2023-09-09T10:48:10Z</time>
      </trkpt>
      <trkpt lat="42.86834" lon="2.37364">
        <ele>983</ele>
        <time>2023-09-09T10:48:11Z</time>
      </trkpt>
      <trkpt lat="42.86834" lon="2.37363">
        <ele>983</ele>
        <time>2023-09-09T10:48:12Z</time>
      </trkpt>
      <trkpt lat="42.86834" lon="2.37362">
        <ele>982</ele>
        <time>2023-09-09T10:48:13Z</time>
      </trkpt>
      <trkpt lat="42.86834" lon="2.37361">
        <ele>982</ele>
        <time>2023-09-09T10:48:14Z</time>
      </trkpt>
      <trkpt lat="42.86835" lon="2.3736">
        <ele>982</ele>
        <time>2023-09-09T10:48:15Z</time>
      </trkpt>
      <trkpt lat="42.86835" lon="2.37359">
        <ele>982</ele>
        <time>2023-09-09T10:48:16Z</time>
      </trkpt>
      <trkpt lat="42.86835" lon="2.37357">
        <ele>982</ele>
        <time>2023-09-09T10:48:17Z</time>
      </trkpt>
      <trkpt lat="42.86835" lon="2.37356">
        <ele>981</ele>
        <time>2023-09-09T10:48:18Z</time>
      </trkpt>
      <trkpt lat="42.86834" lon="2.37355">
        <ele>981</ele>
        <time>2023-09-09T10:48:19Z</time>
      </trkpt>
      <trkpt lat="42.86834" lon="2.37353">
        <ele>981</ele>
        <time>2023-09-09T10:48:20Z</time>
      </trkpt>
      <trkpt lat="42.86834" lon="2.37352">
        <ele>981</ele>
        <time>2023-09-09T10:48:21Z</time>
      </trkpt>
      <trkpt lat="42.86834" lon="2.37351">
        <ele>981</ele>
        <time>2023-09-09T10:48:22Z</time>
      </trkpt>
      <trkpt lat="42.86834" lon="2.3735">
        <ele>980</ele>
        <time>2023-09-09T10:48:23Z</time>
      </trkpt>
      <trkpt lat="42.86834" lon="2.37349">
        <ele>980</ele>
        <time>2023-09-09T10:48:24Z</time>
      </trkpt>
      <trkpt lat="42.86834" lon="2.37348">
        <ele>980</ele>
        <time>2023-09-09T10:48:25Z</time>
      </trkpt>
      <trkpt lat="42.86834" lon="2.37347">
        <ele>980</ele>
        <time>2023-09-09T10:48:26Z</time>
      </trkpt>
      <trkpt lat="42.86834" lon="2.37346">
        <ele>980</ele>
        <time>2023-09-09T10:48:27Z</time>
      </trkpt>
      <trkpt lat="42.86834" lon="2.37345">
        <ele>979</ele>
        <time>2023-09-09T10:48:28Z</time>
      </trkpt>
      <trkpt lat="42.86834" lon="2.37344">
        <ele>979</ele>
        <time>2023-09-09T10:48:29Z</time>
      </trkpt>
      <trkpt lat="42.86834" lon="2.37342">
        <ele>978</ele>
        <time>2023-09-09T10:48:30Z</time>
      </trkpt>
      <trkpt lat="42.86834" lon="2.37341">
        <ele>978</ele>
        <time>2023-09-09T10:48:31Z</time>
      </trkpt>
      <trkpt lat="42.86834" lon="2.37339">
        <ele>978</ele>
        <time>2023-09-09T10:48:32Z</time>
      </trkpt>
      <trkpt lat="42.86833" lon="2.37338">
        <ele>977</ele>
        <time>2023-09-09T10:48:33Z</time>
      </trkpt>
      <trkpt lat="42.86833" lon="2.37336">
        <ele>977</ele>
        <time>2023-09-09T10:48:34Z</time>
      </trkpt>
      <trkpt lat="42.86832" lon="2.37335">
        <ele>977</ele>
        <time>2023-09-09T10:48:35Z</time>
      </trkpt>
      <trkpt lat="42.86832" lon="2.37333">
        <ele>977</ele>
        <time>2023-09-09T10:48:36Z</time>
      </trkpt>
      <trkpt lat="42.86831" lon="2.37332">
        <ele>977</ele>
        <time>2023-09-09T10:48:37Z</time>
      </trkpt>
      <trkpt lat="42.86831" lon="2.3733">
        <ele>976</ele>
        <time>2023-09-09T10:48:38Z</time>
      </trkpt>
      <trkpt lat="42.86831" lon="2.37329">
        <ele>976</ele>
        <time>2023-09-09T10:48:39Z</time>
      </trkpt>
      <trkpt lat="42.8683" lon="2.37327">
        <ele>975</ele>
        <time>2023-09-09T10:48:40Z</time>
      </trkpt>
      <trkpt lat="42.8683" lon="2.37326">
        <ele>975</ele>
        <time>2023-09-09T10:48:41Z</time>
      </trkpt>
      <trkpt lat="42.8683" lon="2.37325">
        <ele>975</ele>
        <time>2023-09-09T10:48:42Z</time>
      </trkpt>
      <trkpt lat="42.8683" lon="2.37323">
        <ele>974</ele>
        <time>2023-09-09T10:48:43Z</time>
      </trkpt>
      <trkpt lat="42.8683" lon="2.37322">
        <ele>974</ele>
        <time>2023-09-09T10:48:44Z</time>
      </trkpt>
      <trkpt lat="42.8683" lon="2.37321">
        <ele>974</ele>
        <time>2023-09-09T10:48:45Z</time>
      </trkpt>
      <trkpt lat="42.8683" lon="2.37319">
        <ele>974</ele>
        <time>2023-09-09T10:48:46Z</time>
      </trkpt>
      <trkpt lat="42.86829" lon="2.37318">
        <ele>974</ele>
        <time>2023-09-09T10:48:47Z</time>
      </trkpt>
      <trkpt lat="42.86829" lon="2.37316">
        <ele>973</ele>
        <time>2023-09-09T10:48:48Z</time>
      </trkpt>
      <trkpt lat="42.86828" lon="2.37315">
        <ele>973</ele>
        <time>2023-09-09T10:48:49Z</time>
      </trkpt>
      <trkpt lat="42.86828" lon="2.37314">
        <ele>973</ele>
        <time>2023-09-09T10:48:50Z</time>
      </trkpt>
      <trkpt lat="42.86828" lon="2.37312">
        <ele>973</ele>
        <time>2023-09-09T10:48:51Z</time>
      </trkpt>
      <trkpt lat="42.86828" lon="2.37311">
        <ele>973</ele>
        <time>2023-09-09T10:48:52Z</time>
      </trkpt>
      <trkpt lat="42.86828" lon="2.3731">
        <ele>972</ele>
        <time>2023-09-09T10:48:53Z</time>
      </trkpt>
      <trkpt lat="42.86828" lon="2.37309">
        <ele>972</ele>
        <time>2023-09-09T10:48:54Z</time>
      </trkpt>
      <trkpt lat="42.86828" lon="2.37308">
        <ele>971</ele>
        <time>2023-09-09T10:48:55Z</time>
      </trkpt>
      <trkpt lat="42.86828" lon="2.37307">
        <ele>971</ele>
        <time>2023-09-09T10:48:56Z</time>
      </trkpt>
      <trkpt lat="42.86828" lon="2.37306">
        <ele>971</ele>
        <time>2023-09-09T10:48:57Z</time>
      </trkpt>
      <trkpt lat="42.86828" lon="2.37304">
        <ele>970</ele>
        <time>2023-09-09T10:48:58Z</time>
      </trkpt>
      <trkpt lat="42.86828" lon="2.37303">
        <ele>970</ele>
        <time>2023-09-09T10:48:59Z</time>
      </trkpt>
      <trkpt lat="42.86828" lon="2.37302">
        <ele>970</ele>
        <time>2023-09-09T10:49:00Z</time>
      </trkpt>
      <trkpt lat="42.86828" lon="2.37301">
        <ele>970</ele>
        <time>2023-09-09T10:49:01Z</time>
      </trkpt>
      <trkpt lat="42.86827" lon="2.373">
        <ele>970</ele>
        <time>2023-09-09T10:49:02Z</time>
      </trkpt>
      <trkpt lat="42.86827" lon="2.37299">
        <ele>969</ele>
        <time>2023-09-09T10:49:03Z</time>
      </trkpt>
      <trkpt lat="42.86827" lon="2.37298">
        <ele>969</ele>
        <time>2023-09-09T10:49:04Z</time>
      </trkpt>
      <trkpt lat="42.86827" lon="2.37297">
        <ele>968</ele>
        <time>2023-09-09T10:49:05Z</time>
      </trkpt>
      <trkpt lat="42.86827" lon="2.37296">
        <ele>968</ele>
        <time>2023-09-09T10:49:06Z</time>
      </trkpt>
      <trkpt lat="42.86827" lon="2.37295">
        <ele>968</ele>
        <time>2023-09-09T10:49:07Z</time>
      </trkpt>
      <trkpt lat="42.86827" lon="2.37294">
        <ele>967</ele>
        <time>2023-09-09T10:49:08Z</time>
      </trkpt>
      <trkpt lat="42.86827" lon="2.37293">
        <ele>967</ele>
        <time>2023-09-09T10:49:09Z</time>
      </trkpt>
      <trkpt lat="42.86827" lon="2.37292">
        <ele>967</ele>
        <time>2023-09-09T10:49:10Z</time>
      </trkpt>
      <trkpt lat="42.86827" lon="2.37291">
        <ele>967</ele>
        <time>2023-09-09T10:49:11Z</time>
      </trkpt>
      <trkpt lat="42.86827" lon="2.3729">
        <ele>967</ele>
        <time>2023-09-09T10:49:12Z</time>
      </trkpt>
      <trkpt lat="42.86827" lon="2.37289">
        <ele>966</ele>
        <time>2023-09-09T10:49:13Z</time>
      </trkpt>
      <trkpt lat="42.86826" lon="2.37288">
        <ele>965</ele>
        <time>2023-09-09T10:49:14Z</time>
      </trkpt>
      <trkpt lat="42.86826" lon="2.37287">
        <ele>965</ele>
        <time>2023-09-09T10:49:15Z</time>
      </trkpt>
      <trkpt lat="42.86826" lon="2.37286">
        <ele>964</ele>
        <time>2023-09-09T10:49:16Z</time>
      </trkpt>
      <trkpt lat="42.86826" lon="2.37285">
        <ele>964</ele>
        <time>2023-09-09T10:49:17Z</time>
      </trkpt>
      <trkpt lat="42.86825" lon="2.37284">
        <ele>963</ele>
        <time>2023-09-09T10:49:18Z</time>
      </trkpt>
      <trkpt lat="42.86825" lon="2.37283">
        <ele>963</ele>
        <time>2023-09-09T10:49:19Z</time>
      </trkpt>
      <trkpt lat="42.86825" lon="2.37282">
        <ele>963</ele>
        <time>2023-09-09T10:49:20Z</time>
      </trkpt>
      <trkpt lat="42.86825" lon="2.37282">
        <ele>963</ele>
        <time>2023-09-09T10:49:21Z</time>
      </trkpt>
      <trkpt lat="42.86825" lon="2.37281">
        <ele>963</ele>
        <time>2023-09-09T10:49:22Z</time>
      </trkpt>
      <trkpt lat="42.86825" lon="2.3728">
        <ele>962</ele>
        <time>2023-09-09T10:49:23Z</time>
      </trkpt>
      <trkpt lat="42.86826" lon="2.37279">
        <ele>959</ele>
        <time>2023-09-09T10:49:34Z</time>
      </trkpt>
      <trkpt lat="42.86827" lon="2.37278">
        <ele>958</ele>
        <time>2023-09-09T10:49:35Z</time>
      </trkpt>
      <trkpt lat="42.86827" lon="2.37277">
        <ele>958</ele>
        <time>2023-09-09T10:49:36Z</time>
      </trkpt>
      <trkpt lat="42.86827" lon="2.37276">
        <ele>958</ele>
        <time>2023-09-09T10:49:37Z</time>
      </trkpt>
      <trkpt lat="42.86828" lon="2.37275">
        <ele>957</ele>
        <time>2023-09-09T10:49:38Z</time>
      </trkpt>
      <trkpt lat="42.86829" lon="2.37275">
        <ele>957</ele>
        <time>2023-09-09T10:49:39Z</time>
      </trkpt>
      <trkpt lat="42.86829" lon="2.37275">
        <ele>957</ele>
        <time>2023-09-09T10:49:40Z</time>
      </trkpt>
      <trkpt lat="42.86831" lon="2.37275">
        <ele>957</ele>
        <time>2023-09-09T10:49:41Z</time>
      </trkpt>
      <trkpt lat="42.86832" lon="2.37275">
        <ele>957</ele>
        <time>2023-09-09T10:49:42Z</time>
      </trkpt>
      <trkpt lat="42.86833" lon="2.37276">
        <ele>956</ele>
        <time>2023-09-09T10:49:43Z</time>
      </trkpt>
      <trkpt lat="42.86834" lon="2.37277">
        <ele>956</ele>
        <time>2023-09-09T10:49:44Z</time>
      </trkpt>
      <trkpt lat="42.86835" lon="2.37277">
        <ele>955</ele>
        <time>2023-09-09T10:49:45Z</time>
      </trkpt>
      <trkpt lat="42.86836" lon="2.37278">
        <ele>955</ele>
        <time>2023-09-09T10:49:46Z</time>
      </trkpt>
      <trkpt lat="42.86836" lon="2.37279">
        <ele>955</ele>
        <time>2023-09-09T10:49:47Z</time>
      </trkpt>
      <trkpt lat="42.86837" lon="2.3728">
        <ele>954</ele>
        <time>2023-09-09T10:49:48Z</time>
      </trkpt>
      <trkpt lat="42.86838" lon="2.37281">
        <ele>954</ele>
        <time>2023-09-09T10:49:49Z</time>
      </trkpt>
      <trkpt lat="42.86839" lon="2.37282">
        <ele>954</ele>
        <time>2023-09-09T10:49:50Z</time>
      </trkpt>
      <trkpt lat="42.8684" lon="2.37283">
        <ele>954</ele>
        <time>2023-09-09T10:49:51Z</time>
      </trkpt>
      <trkpt lat="42.86841" lon="2.37284">
        <ele>954</ele>
        <time>2023-09-09T10:49:52Z</time>
      </trkpt>
      <trkpt lat="42.86842" lon="2.37285">
        <ele>953</ele>
        <time>2023-09-09T10:49:53Z</time>
      </trkpt>
      <trkpt lat="42.86843" lon="2.37286">
        <ele>953</ele>
        <time>2023-09-09T10:49:54Z</time>
      </trkpt>
      <trkpt lat="42.86844" lon="2.37286">
        <ele>953</ele>
        <time>2023-09-09T10:49:55Z</time>
      </trkpt>
      <trkpt lat="42.86845" lon="2.37287">
        <ele>953</ele>
        <time>2023-09-09T10:49:56Z</time>
      </trkpt>
      <trkpt lat="42.86846" lon="2.37288">
        <ele>953</ele>
        <time>2023-09-09T10:49:57Z</time>
      </trkpt>
      <trkpt lat="42.86848" lon="2.37289">
        <ele>952</ele>
        <time>2023-09-09T10:49:58Z</time>
      </trkpt>
      <trkpt lat="42.86849" lon="2.37291">
        <ele>952</ele>
        <time>2023-09-09T10:49:59Z</time>
      </trkpt>
      <trkpt lat="42.8685" lon="2.37292">
        <ele>951</ele>
        <time>2023-09-09T10:50:00Z</time>
      </trkpt>
      <trkpt lat="42.86851" lon="2.37293">
        <ele>951</ele>
        <time>2023-09-09T10:50:01Z</time>
      </trkpt>
      <trkpt lat="42.86853" lon="2.37294">
        <ele>951</ele>
        <time>2023-09-09T10:50:02Z</time>
      </trkpt>
      <trkpt lat="42.86853" lon="2.37294">
        <ele>950</ele>
        <time>2023-09-09T10:50:03Z</time>
      </trkpt>
      <trkpt lat="42.86854" lon="2.37295">
        <ele>949</ele>
        <time>2023-09-09T10:50:04Z</time>
      </trkpt>
      <trkpt lat="42.86854" lon="2.37295">
        <ele>949</ele>
        <time>2023-09-09T10:50:05Z</time>
      </trkpt>
      <trkpt lat="42.86855" lon="2.37296">
        <ele>948</ele>
        <time>2023-09-09T10:50:06Z</time>
      </trkpt>
      <trkpt lat="42.86856" lon="2.37296">
        <ele>948</ele>
        <time>2023-09-09T10:50:07Z</time>
      </trkpt>
      <trkpt lat="42.86857" lon="2.37296">
        <ele>947</ele>
        <time>2023-09-09T10:50:08Z</time>
      </trkpt>
      <trkpt lat="42.86858" lon="2.37297">
        <ele>947</ele>
        <time>2023-09-09T10:50:09Z</time>
      </trkpt>
      <trkpt lat="42.86859" lon="2.37298">
        <ele>947</ele>
        <time>2023-09-09T10:50:10Z</time>
      </trkpt>
      <trkpt lat="42.8686" lon="2.37299">
        <ele>947</ele>
        <time>2023-09-09T10:50:11Z</time>
      </trkpt>
      <trkpt lat="42.8686" lon="2.37299">
        <ele>947</ele>
        <time>2023-09-09T10:50:12Z</time>
      </trkpt>
      <trkpt lat="42.86861" lon="2.373">
        <ele>946</ele>
        <time>2023-09-09T10:50:13Z</time>
      </trkpt>
      <trkpt lat="42.86861" lon="2.373">
        <ele>946</ele>
        <time>2023-09-09T10:50:14Z</time>
      </trkpt>
      <trkpt lat="42.86862" lon="2.373">
        <ele>946</ele>
        <time>2023-09-09T10:50:15Z</time>
      </trkpt>
      <trkpt lat="42.86862" lon="2.373">
        <ele>946</ele>
        <time>2023-09-09T10:50:16Z</time>
      </trkpt>
      <trkpt lat="42.86863" lon="2.373">
        <ele>946</ele>
        <time>2023-09-09T10:50:17Z</time>
      </trkpt>
      <trkpt lat="42.86863" lon="2.373">
        <ele>945</ele>
        <time>2023-09-09T10:50:18Z</time>
      </trkpt>
      <trkpt lat="42.86863" lon="2.37299">
        <ele>945</ele>
        <time>2023-09-09T10:50:19Z</time>
      </trkpt>
      <trkpt lat="42.86863" lon="2.37298">
        <ele>945</ele>
        <time>2023-09-09T10:50:20Z</time>
      </trkpt>
      <trkpt lat="42.86862" lon="2.37297">
        <ele>945</ele>
        <time>2023-09-09T10:50:21Z</time>
      </trkpt>
      <trkpt lat="42.86862" lon="2.37296">
        <ele>945</ele>
        <time>2023-09-09T10:50:22Z</time>
      </trkpt>
      <trkpt lat="42.86862" lon="2.37295">
        <ele>944</ele>
        <time>2023-09-09T10:50:23Z</time>
      </trkpt>
      <trkpt lat="42.86862" lon="2.37294">
        <ele>944</ele>
        <time>2023-09-09T10:50:24Z</time>
      </trkpt>
      <trkpt lat="42.86862" lon="2.37293">
        <ele>944</ele>
        <time>2023-09-09T10:50:25Z</time>
      </trkpt>
      <trkpt lat="42.86862" lon="2.37292">
        <ele>944</ele>
        <time>2023-09-09T10:50:26Z</time>
      </trkpt>
      <trkpt lat="42.86862" lon="2.37291">
        <ele>944</ele>
        <time>2023-09-09T10:50:27Z</time>
      </trkpt>
      <trkpt lat="42.86862" lon="2.3729">
        <ele>943</ele>
        <time>2023-09-09T10:50:28Z</time>
      </trkpt>
      <trkpt lat="42.86862" lon="2.37289">
        <ele>943</ele>
        <time>2023-09-09T10:50:29Z</time>
      </trkpt>
      <trkpt lat="42.86861" lon="2.37288">
        <ele>943</ele>
        <time>2023-09-09T10:50:30Z</time>
      </trkpt>
      <trkpt lat="42.86861" lon="2.37287">
        <ele>943</ele>
        <time>2023-09-09T10:50:31Z</time>
      </trkpt>
      <trkpt lat="42.86861" lon="2.37286">
        <ele>943</ele>
        <time>2023-09-09T10:50:32Z</time>
      </trkpt>
      <trkpt lat="42.8686" lon="2.37285">
        <ele>942</ele>
        <time>2023-09-09T10:50:33Z</time>
      </trkpt>
      <trkpt lat="42.8686" lon="2.37284">
        <ele>942</ele>
        <time>2023-09-09T10:50:34Z</time>
      </trkpt>
      <trkpt lat="42.8686" lon="2.37283">
        <ele>942</ele>
        <time>2023-09-09T10:50:35Z</time>
      </trkpt>
      <trkpt lat="42.86859" lon="2.37281">
        <ele>942</ele>
        <time>2023-09-09T10:50:36Z</time>
      </trkpt>
      <trkpt lat="42.86859" lon="2.3728">
        <ele>942</ele>
        <time>2023-09-09T10:50:37Z</time>
      </trkpt>
      <trkpt lat="42.86858" lon="2.37279">
        <ele>941</ele>
        <time>2023-09-09T10:50:38Z</time>
      </trkpt>
      <trkpt lat="42.86858" lon="2.37278">
        <ele>941</ele>
        <time>2023-09-09T10:50:39Z</time>
      </trkpt>
      <trkpt lat="42.86858" lon="2.37277">
        <ele>940</ele>
        <time>2023-09-09T10:50:40Z</time>
      </trkpt>
      <trkpt lat="42.86857" lon="2.37276">
        <ele>940</ele>
        <time>2023-09-09T10:50:41Z</time>
      </trkpt>
      <trkpt lat="42.86857" lon="2.37275">
        <ele>940</ele>
        <time>2023-09-09T10:50:42Z</time>
      </trkpt>
      <trkpt lat="42.86857" lon="2.37275">
        <ele>939</ele>
        <time>2023-09-09T10:50:43Z</time>
      </trkpt>
      <trkpt lat="42.86856" lon="2.37274">
        <ele>939</ele>
        <time>2023-09-09T10:50:44Z</time>
      </trkpt>
      <trkpt lat="42.86856" lon="2.37273">
        <ele>939</ele>
        <time>2023-09-09T10:50:45Z</time>
      </trkpt>
      <trkpt lat="42.86856" lon="2.37272">
        <ele>939</ele>
        <time>2023-09-09T10:50:46Z</time>
      </trkpt>
      <trkpt lat="42.86856" lon="2.37271">
        <ele>939</ele>
        <time>2023-09-09T10:50:47Z</time>
      </trkpt>
      <trkpt lat="42.86855" lon="2.3727">
        <ele>938</ele>
        <time>2023-09-09T10:50:48Z</time>
      </trkpt>
      <trkpt lat="42.86855" lon="2.37269">
        <ele>938</ele>
        <time>2023-09-09T10:50:49Z</time>
      </trkpt>
      <trkpt lat="42.86855" lon="2.37267">
        <ele>938</ele>
        <time>2023-09-09T10:50:50Z</time>
      </trkpt>
      <trkpt lat="42.86854" lon="2.37266">
        <ele>938</ele>
        <time>2023-09-09T10:50:51Z</time>
      </trkpt>
      <trkpt lat="42.86854" lon="2.37265">
        <ele>938</ele>
        <time>2023-09-09T10:50:52Z</time>
      </trkpt>
      <trkpt lat="42.86854" lon="2.37264">
        <ele>937</ele>
        <time>2023-09-09T10:50:53Z</time>
      </trkpt>
      <trkpt lat="42.86854" lon="2.37263">
        <ele>937</ele>
        <time>2023-09-09T10:50:54Z</time>
      </trkpt>
      <trkpt lat="42.86854" lon="2.37262">
        <ele>937</ele>
        <time>2023-09-09T10:50:55Z</time>
      </trkpt>
      <trkpt lat="42.86854" lon="2.37261">
        <ele>937</ele>
        <time>2023-09-09T10:50:56Z</time>
      </trkpt>
      <trkpt lat="42.86855" lon="2.37259">
        <ele>937</ele>
        <time>2023-09-09T10:50:57Z</time>
      </trkpt>
      <trkpt lat="42.86855" lon="2.37258">
        <ele>936</ele>
        <time>2023-09-09T10:50:58Z</time>
      </trkpt>
      <trkpt lat="42.86855" lon="2.37257">
        <ele>936</ele>
        <time>2023-09-09T10:50:59Z</time>
      </trkpt>
      <trkpt lat="42.86855" lon="2.37255">
        <ele>936</ele>
        <time>2023-09-09T10:51:00Z</time>
      </trkpt>
      <trkpt lat="42.86855" lon="2.37254">
        <ele>936</ele>
        <time>2023-09-09T10:51:01Z</time>
      </trkpt>
      <trkpt lat="42.86856" lon="2.37252">
        <ele>936</ele>
        <time>2023-09-09T10:51:02Z</time>
      </trkpt>
      <trkpt lat="42.86856" lon="2.37251">
        <ele>935</ele>
        <time>2023-09-09T10:51:03Z</time>
      </trkpt>
      <trkpt lat="42.86856" lon="2.3725">
        <ele>935</ele>
        <time>2023-09-09T10:51:04Z</time>
      </trkpt>
      <trkpt lat="42.86856" lon="2.37249">
        <ele>935</ele>
        <time>2023-09-09T10:51:05Z</time>
      </trkpt>
      <trkpt lat="42.86856" lon="2.37248">
        <ele>935</ele>
        <time>2023-09-09T10:51:06Z</time>
      </trkpt>
      <trkpt lat="42.86855" lon="2.37247">
        <ele>935</ele>
        <time>2023-09-09T10:51:07Z</time>
      </trkpt>
      <trkpt lat="42.86855" lon="2.37246">
        <ele>934</ele>
        <time>2023-09-09T10:51:08Z</time>
      </trkpt>
      <trkpt lat="42.86855" lon="2.37245">
        <ele>934</ele>
        <time>2023-09-09T10:51:09Z</time>
      </trkpt>
      <trkpt lat="42.86855" lon="2.37244">
        <ele>933</ele>
        <time>2023-09-09T10:51:10Z</time>
      </trkpt>
      <trkpt lat="42.86854" lon="2.37242">
        <ele>933</ele>
        <time>2023-09-09T10:51:11Z</time>
      </trkpt>
      <trkpt lat="42.86854" lon="2.37241">
        <ele>933</ele>
        <time>2023-09-09T10:51:12Z</time>
      </trkpt>
      <trkpt lat="42.86853" lon="2.37239">
        <ele>932</ele>
        <time>2023-09-09T10:51:13Z</time>
      </trkpt>
      <trkpt lat="42.86853" lon="2.37237">
        <ele>932</ele>
        <time>2023-09-09T10:51:14Z</time>
      </trkpt>
      <trkpt lat="42.86852" lon="2.37235">
        <ele>932</ele>
        <time>2023-09-09T10:51:15Z</time>
      </trkpt>
      <trkpt lat="42.86851" lon="2.37233">
        <ele>932</ele>
        <time>2023-09-09T10:51:16Z</time>
      </trkpt>
      <trkpt lat="42.86851" lon="2.37231">
        <ele>932</ele>
        <time>2023-09-09T10:51:17Z</time>
      </trkpt>
      <trkpt lat="42.8685" lon="2.37229">
        <ele>931</ele>
        <time>2023-09-09T10:51:18Z</time>
      </trkpt>
      <trkpt lat="42.86849" lon="2.37227">
        <ele>930</ele>
        <time>2023-09-09T10:51:19Z</time>
      </trkpt>
      <trkpt lat="42.86849" lon="2.37224">
        <ele>930</ele>
        <time>2023-09-09T10:51:20Z</time>
      </trkpt>
      <trkpt lat="42.86849" lon="2.37222">
        <ele>929</ele>
        <time>2023-09-09T10:51:21Z</time>
      </trkpt>
      <trkpt lat="42.86848" lon="2.3722">
        <ele>929</ele>
        <time>2023-09-09T10:51:22Z</time>
      </trkpt>
      <trkpt lat="42.86848" lon="2.37219">
        <ele>928</ele>
        <time>2023-09-09T10:51:23Z</time>
      </trkpt>
      <trkpt lat="42.86848" lon="2.37217">
        <ele>928</ele>
        <time>2023-09-09T10:51:24Z</time>
      </trkpt>
      <trkpt lat="42.86849" lon="2.37216">
        <ele>928</ele>
        <time>2023-09-09T10:51:25Z</time>
      </trkpt>
      <trkpt lat="42.86849" lon="2.37214">
        <ele>928</ele>
        <time>2023-09-09T10:51:26Z</time>
      </trkpt>
      <trkpt lat="42.86849" lon="2.37213">
        <ele>928</ele>
        <time>2023-09-09T10:51:27Z</time>
      </trkpt>
      <trkpt lat="42.86849" lon="2.37212">
        <ele>927</ele>
        <time>2023-09-09T10:51:28Z</time>
      </trkpt>
      <trkpt lat="42.86849" lon="2.37212">
        <ele>927</ele>
        <time>2023-09-09T10:51:29Z</time>
      </trkpt>
      <trkpt lat="42.86849" lon="2.37211">
        <ele>926</ele>
        <time>2023-09-09T10:51:30Z</time>
      </trkpt>
      <trkpt lat="42.86849" lon="2.37209">
        <ele>926</ele>
        <time>2023-09-09T10:51:31Z</time>
      </trkpt>
      <trkpt lat="42.86849" lon="2.37208">
        <ele>926</ele>
        <time>2023-09-09T10:51:32Z</time>
      </trkpt>
      <trkpt lat="42.86849" lon="2.37206">
        <ele>925</ele>
        <time>2023-09-09T10:51:33Z</time>
      </trkpt>
      <trkpt lat="42.86849" lon="2.37204">
        <ele>925</ele>
        <time>2023-09-09T10:51:34Z</time>
      </trkpt>
      <trkpt lat="42.86849" lon="2.37202">
        <ele>925</ele>
        <time>2023-09-09T10:51:35Z</time>
      </trkpt>
      <trkpt lat="42.86849" lon="2.372">
        <ele>925</ele>
        <time>2023-09-09T10:51:36Z</time>
      </trkpt>
      <trkpt lat="42.86849" lon="2.37199">
        <ele>925</ele>
        <time>2023-09-09T10:51:37Z</time>
      </trkpt>
      <trkpt lat="42.86849" lon="2.37197">
        <ele>924</ele>
        <time>2023-09-09T10:51:38Z</time>
      </trkpt>
      <trkpt lat="42.86849" lon="2.37197">
        <ele>924</ele>
        <time>2023-09-09T10:51:39Z</time>
      </trkpt>
      <trkpt lat="42.86849" lon="2.37197">
        <ele>924</ele>
        <time>2023-09-09T10:51:40Z</time>
      </trkpt>
      <trkpt lat="42.86849" lon="2.37196">
        <ele>924</ele>
        <time>2023-09-09T10:51:41Z</time>
      </trkpt>
      <trkpt lat="42.86849" lon="2.37196">
        <ele>924</ele>
        <time>2023-09-09T10:51:42Z</time>
      </trkpt>
      <trkpt lat="42.86849" lon="2.37196">
        <ele>923</ele>
        <time>2023-09-09T10:51:43Z</time>
      </trkpt>
      <trkpt lat="42.86848" lon="2.37195">
        <ele>923</ele>
        <time>2023-09-09T10:51:44Z</time>
      </trkpt>
      <trkpt lat="42.86848" lon="2.37195">
        <ele>923</ele>
        <time>2023-09-09T10:51:45Z</time>
      </trkpt>
      <trkpt lat="42.86847" lon="2.37195">
        <ele>923</ele>
        <time>2023-09-09T10:51:46Z</time>
      </trkpt>
      <trkpt lat="42.86847" lon="2.37195">
        <ele>923</ele>
        <time>2023-09-09T10:51:47Z</time>
      </trkpt>
      <trkpt lat="42.86846" lon="2.37195">
        <ele>922</ele>
        <time>2023-09-09T10:51:48Z</time>
      </trkpt>
      <trkpt lat="42.86845" lon="2.37195">
        <ele>922</ele>
        <time>2023-09-09T10:51:49Z</time>
      </trkpt>
      <trkpt lat="42.86844" lon="2.37195">
        <ele>922</ele>
        <time>2023-09-09T10:51:50Z</time>
      </trkpt>
      <trkpt lat="42.86843" lon="2.37195">
        <ele>922</ele>
        <time>2023-09-09T10:51:51Z</time>
      </trkpt>
      <trkpt lat="42.86842" lon="2.37195">
        <ele>922</ele>
        <time>2023-09-09T10:51:52Z</time>
      </trkpt>
      <trkpt lat="42.86841" lon="2.37195">
        <ele>921</ele>
        <time>2023-09-09T10:51:53Z</time>
      </trkpt>
      <trkpt lat="42.8684" lon="2.37195">
        <ele>921</ele>
        <time>2023-09-09T10:51:54Z</time>
      </trkpt>
      <trkpt lat="42.86838" lon="2.37194">
        <ele>921</ele>
        <time>2023-09-09T10:51:55Z</time>
      </trkpt>
      <trkpt lat="42.86837" lon="2.37193">
        <ele>921</ele>
        <time>2023-09-09T10:51:56Z</time>
      </trkpt>
      <trkpt lat="42.86836" lon="2.37192">
        <ele>921</ele>
        <time>2023-09-09T10:51:57Z</time>
      </trkpt>
      <trkpt lat="42.86835" lon="2.37191">
        <ele>920</ele>
        <time>2023-09-09T10:51:58Z</time>
      </trkpt>
      <trkpt lat="42.86834" lon="2.3719">
        <ele>920</ele>
        <time>2023-09-09T10:51:59Z</time>
      </trkpt>
      <trkpt lat="42.86834" lon="2.37189">
        <ele>920</ele>
        <time>2023-09-09T10:52:00Z</time>
      </trkpt>
      <trkpt lat="42.86833" lon="2.37188">
        <ele>920</ele>
        <time>2023-09-09T10:52:01Z</time>
      </trkpt>
      <trkpt lat="42.86832" lon="2.37187">
        <ele>920</ele>
        <time>2023-09-09T10:52:02Z</time>
      </trkpt>
      <trkpt lat="42.86832" lon="2.37185">
        <ele>919</ele>
        <time>2023-09-09T10:52:03Z</time>
      </trkpt>
      <trkpt lat="42.86831" lon="2.37184">
        <ele>919</ele>
        <time>2023-09-09T10:52:04Z</time>
      </trkpt>
      <trkpt lat="42.8683" lon="2.37183">
        <ele>919</ele>
        <time>2023-09-09T10:52:05Z</time>
      </trkpt>
      <trkpt lat="42.8683" lon="2.37182">
        <ele>919</ele>
        <time>2023-09-09T10:52:06Z</time>
      </trkpt>
      <trkpt lat="42.86829" lon="2.37181">
        <ele>919</ele>
        <time>2023-09-09T10:52:07Z</time>
      </trkpt>
      <trkpt lat="42.86828" lon="2.3718">
        <ele>918</ele>
        <time>2023-09-09T10:52:08Z</time>
      </trkpt>
      <trkpt lat="42.86828" lon="2.3718">
        <ele>918</ele>
        <time>2023-09-09T10:52:09Z</time>
      </trkpt>
      <trkpt lat="42.86827" lon="2.37179">
        <ele>918</ele>
        <time>2023-09-09T10:52:10Z</time>
      </trkpt>
      <trkpt lat="42.86826" lon="2.37178">
        <ele>918</ele>
        <time>2023-09-09T10:52:11Z</time>
      </trkpt>
      <trkpt lat="42.86825" lon="2.37176">
        <ele>918</ele>
        <time>2023-09-09T10:52:12Z</time>
      </trkpt>
      <trkpt lat="42.86824" lon="2.37175">
        <ele>917</ele>
        <time>2023-09-09T10:52:13Z</time>
      </trkpt>
      <trkpt lat="42.86823" lon="2.37174">
        <ele>917</ele>
        <time>2023-09-09T10:52:14Z</time>
      </trkpt>
      <trkpt lat="42.86822" lon="2.37172">
        <ele>917</ele>
        <time>2023-09-09T10:52:15Z</time>
      </trkpt>
      <trkpt lat="42.86821" lon="2.37171">
        <ele>917</ele>
        <time>2023-09-09T10:52:16Z</time>
      </trkpt>
      <trkpt lat="42.8682" lon="2.37169">
        <ele>917</ele>
        <time>2023-09-09T10:52:17Z</time>
      </trkpt>
      <trkpt lat="42.8682" lon="2.37168">
        <ele>916</ele>
        <time>2023-09-09T10:52:18Z</time>
      </trkpt>
      <trkpt lat="42.86819" lon="2.37167">
        <ele>916</ele>
        <time>2023-09-09T10:52:19Z</time>
      </trkpt>
      <trkpt lat="42.86818" lon="2.37166">
        <ele>916</ele>
        <time>2023-09-09T10:52:20Z</time>
      </trkpt>
      <trkpt lat="42.86817" lon="2.37166">
        <ele>916</ele>
        <time>2023-09-09T10:52:21Z</time>
      </trkpt>
      <trkpt lat="42.86816" lon="2.37165">
        <ele>916</ele>
        <time>2023-09-09T10:52:22Z</time>
      </trkpt>
      <trkpt lat="42.86815" lon="2.37164">
        <ele>915</ele>
        <time>2023-09-09T10:52:23Z</time>
      </trkpt>
      <trkpt lat="42.86814" lon="2.37164">
        <ele>915</ele>
        <time>2023-09-09T10:52:24Z</time>
      </trkpt>
      <trkpt lat="42.86814" lon="2.37163">
        <ele>915</ele>
        <time>2023-09-09T10:52:25Z</time>
      </trkpt>
      <trkpt lat="42.86813" lon="2.37162">
        <ele>915</ele>
        <time>2023-09-09T10:52:26Z</time>
      </trkpt>
      <trkpt lat="42.86812" lon="2.37161">
        <ele>915</ele>
        <time>2023-09-09T10:52:27Z</time>
      </trkpt>
      <trkpt lat="42.86812" lon="2.3716">
        <ele>914</ele>
        <time>2023-09-09T10:52:28Z</time>
      </trkpt>
      <trkpt lat="42.86811" lon="2.37159">
        <ele>913</ele>
        <time>2023-09-09T10:52:29Z</time>
      </trkpt>
      <trkpt lat="42.86811" lon="2.37158">
        <ele>913</ele>
        <time>2023-09-09T10:52:30Z</time>
      </trkpt>
      <trkpt lat="42.86811" lon="2.37157">
        <ele>912</ele>
        <time>2023-09-09T10:52:31Z</time>
      </trkpt>
      <trkpt lat="42.86811" lon="2.37156">
        <ele>912</ele>
        <time>2023-09-09T10:52:32Z</time>
      </trkpt>
      <trkpt lat="42.8681" lon="2.37155">
        <ele>911</ele>
        <time>2023-09-09T10:52:33Z</time>
      </trkpt>
      <trkpt lat="42.8681" lon="2.37154">
        <ele>911</ele>
        <time>2023-09-09T10:52:34Z</time>
      </trkpt>
      <trkpt lat="42.8681" lon="2.37153">
        <ele>910</ele>
        <time>2023-09-09T10:52:35Z</time>
      </trkpt>
      <trkpt lat="42.86809" lon="2.37152">
        <ele>910</ele>
        <time>2023-09-09T10:52:36Z</time>
      </trkpt>
      <trkpt lat="42.86809" lon="2.37151">
        <ele>910</ele>
        <time>2023-09-09T10:52:37Z</time>
      </trkpt>
      <trkpt lat="42.86809" lon="2.3715">
        <ele>909</ele>
        <time>2023-09-09T10:52:38Z</time>
      </trkpt>
      <trkpt lat="42.86809" lon="2.37149">
        <ele>909</ele>
        <time>2023-09-09T10:52:39Z</time>
      </trkpt>
      <trkpt lat="42.8681" lon="2.37148">
        <ele>909</ele>
        <time>2023-09-09T10:52:40Z</time>
      </trkpt>
      <trkpt lat="42.8681" lon="2.37147">
        <ele>909</ele>
        <time>2023-09-09T10:52:41Z</time>
      </trkpt>
      <trkpt lat="42.86811" lon="2.37146">
        <ele>909</ele>
        <time>2023-09-09T10:52:42Z</time>
      </trkpt>
      <trkpt lat="42.86811" lon="2.37144">
        <ele>908</ele>
        <time>2023-09-09T10:52:43Z</time>
      </trkpt>
      <trkpt lat="42.86811" lon="2.37144">
        <ele>908</ele>
        <time>2023-09-09T10:52:44Z</time>
      </trkpt>
      <trkpt lat="42.86811" lon="2.37143">
        <ele>908</ele>
        <time>2023-09-09T10:52:45Z</time>
      </trkpt>
      <trkpt lat="42.86811" lon="2.37142">
        <ele>908</ele>
        <time>2023-09-09T10:52:46Z</time>
      </trkpt>
      <trkpt lat="42.86811" lon="2.37141">
        <ele>908</ele>
        <time>2023-09-09T10:52:47Z</time>
      </trkpt>
      <trkpt lat="42.86811" lon="2.3714">
        <ele>907</ele>
        <time>2023-09-09T10:52:48Z</time>
      </trkpt>
      <trkpt lat="42.8681" lon="2.37139">
        <ele>907</ele>
        <time>2023-09-09T10:52:49Z</time>
      </trkpt>
      <trkpt lat="42.8681" lon="2.37138">
        <ele>906</ele>
        <time>2023-09-09T10:52:50Z</time>
      </trkpt>
      <trkpt lat="42.86809" lon="2.37137">
        <ele>906</ele>
        <time>2023-09-09T10:52:51Z</time>
      </trkpt>
      <trkpt lat="42.86809" lon="2.37136">
        <ele>906</ele>
        <time>2023-09-09T10:52:52Z</time>
      </trkpt>
      <trkpt lat="42.86808" lon="2.37135">
        <ele>905</ele>
        <time>2023-09-09T10:52:53Z</time>
      </trkpt>
      <trkpt lat="42.86807" lon="2.37135">
        <ele>905</ele>
        <time>2023-09-09T10:52:54Z</time>
      </trkpt>
      <trkpt lat="42.86807" lon="2.37134">
        <ele>905</ele>
        <time>2023-09-09T10:52:55Z</time>
      </trkpt>
      <trkpt lat="42.86806" lon="2.37133">
        <ele>905</ele>
        <time>2023-09-09T10:52:56Z</time>
      </trkpt>
      <trkpt lat="42.86805" lon="2.37133">
        <ele>905</ele>
        <time>2023-09-09T10:52:57Z</time>
      </trkpt>
      <trkpt lat="42.86804" lon="2.37132">
        <ele>904</ele>
        <time>2023-09-09T10:52:58Z</time>
      </trkpt>
      <trkpt lat="42.86804" lon="2.37131">
        <ele>904</ele>
        <time>2023-09-09T10:52:59Z</time>
      </trkpt>
      <trkpt lat="42.86804" lon="2.3713">
        <ele>904</ele>
        <time>2023-09-09T10:53:00Z</time>
      </trkpt>
      <trkpt lat="42.86805" lon="2.37129">
        <ele>904</ele>
        <time>2023-09-09T10:53:01Z</time>
      </trkpt>
      <trkpt lat="42.86805" lon="2.37129">
        <ele>904</ele>
        <time>2023-09-09T10:53:02Z</time>
      </trkpt>
      <trkpt lat="42.86806" lon="2.37128">
        <ele>903</ele>
        <time>2023-09-09T10:53:03Z</time>
      </trkpt>
      <trkpt lat="42.86807" lon="2.37128">
        <ele>903</ele>
        <time>2023-09-09T10:53:04Z</time>
      </trkpt>
      <trkpt lat="42.86808" lon="2.37128">
        <ele>902</ele>
        <time>2023-09-09T10:53:05Z</time>
      </trkpt>
      <trkpt lat="42.86809" lon="2.37128">
        <ele>902</ele>
        <time>2023-09-09T10:53:06Z</time>
      </trkpt>
      <trkpt lat="42.8681" lon="2.37128">
        <ele>902</ele>
        <time>2023-09-09T10:53:07Z</time>
      </trkpt>
      <trkpt lat="42.86811" lon="2.37128">
        <ele>901</ele>
        <time>2023-09-09T10:53:08Z</time>
      </trkpt>
      <trkpt lat="42.86812" lon="2.37127">
        <ele>901</ele>
        <time>2023-09-09T10:53:09Z</time>
      </trkpt>
      <trkpt lat="42.86813" lon="2.37127">
        <ele>901</ele>
        <time>2023-09-09T10:53:10Z</time>
      </trkpt>
      <trkpt lat="42.86814" lon="2.37127">
        <ele>901</ele>
        <time>2023-09-09T10:53:11Z</time>
      </trkpt>
      <trkpt lat="42.86814" lon="2.37126">
        <ele>901</ele>
        <time>2023-09-09T10:53:12Z</time>
      </trkpt>
      <trkpt lat="42.86815" lon="2.37127">
        <ele>900</ele>
        <time>2023-09-09T10:53:13Z</time>
      </trkpt>
      <trkpt lat="42.86816" lon="2.37127">
        <ele>900</ele>
        <time>2023-09-09T10:53:14Z</time>
      </trkpt>
      <trkpt lat="42.86817" lon="2.37127">
        <ele>900</ele>
        <time>2023-09-09T10:53:15Z</time>
      </trkpt>
      <trkpt lat="42.86818" lon="2.37128">
        <ele>900</ele>
        <time>2023-09-09T10:53:16Z</time>
      </trkpt>
      <trkpt lat="42.86819" lon="2.37128">
        <ele>900</ele>
        <time>2023-09-09T10:53:17Z</time>
      </trkpt>
      <trkpt lat="42.8682" lon="2.37129">
        <ele>899</ele>
        <time>2023-09-09T10:53:18Z</time>
      </trkpt>
      <trkpt lat="42.86821" lon="2.37129">
        <ele>899</ele>
        <time>2023-09-09T10:53:19Z</time>
      </trkpt>
      <trkpt lat="42.86821" lon="2.3713">
        <ele>898</ele>
        <time>2023-09-09T10:53:20Z</time>
      </trkpt>
      <trkpt lat="42.86822" lon="2.3713">
        <ele>898</ele>
        <time>2023-09-09T10:53:21Z</time>
      </trkpt>
      <trkpt lat="42.86823" lon="2.37131">
        <ele>898</ele>
        <time>2023-09-09T10:53:22Z</time>
      </trkpt>
      <trkpt lat="42.86824" lon="2.37131">
        <ele>897</ele>
        <time>2023-09-09T10:53:23Z</time>
      </trkpt>
      <trkpt lat="42.86824" lon="2.37131">
        <ele>896</ele>
        <time>2023-09-09T10:53:24Z</time>
      </trkpt>
      <trkpt lat="42.86826" lon="2.37132">
        <ele>896</ele>
        <time>2023-09-09T10:53:25Z</time>
      </trkpt>
      <trkpt lat="42.86827" lon="2.37132">
        <ele>895</ele>
        <time>2023-09-09T10:53:26Z</time>
      </trkpt>
      <trkpt lat="42.86828" lon="2.37132">
        <ele>895</ele>
        <time>2023-09-09T10:53:27Z</time>
      </trkpt>
      <trkpt lat="42.8683" lon="2.37133">
        <ele>894</ele>
        <time>2023-09-09T10:53:28Z</time>
      </trkpt>
      <trkpt lat="42.86831" lon="2.37133">
        <ele>894</ele>
        <time>2023-09-09T10:53:29Z</time>
      </trkpt>
      <trkpt lat="42.86832" lon="2.37134">
        <ele>894</ele>
        <time>2023-09-09T10:53:30Z</time>
      </trkpt>
      <trkpt lat="42.86833" lon="2.37134">
        <ele>894</ele>
        <time>2023-09-09T10:53:31Z</time>
      </trkpt>
      <trkpt lat="42.86835" lon="2.37134">
        <ele>894</ele>
        <time>2023-09-09T10:53:32Z</time>
      </trkpt>
      <trkpt lat="42.86835" lon="2.37135">
        <ele>893</ele>
        <time>2023-09-09T10:53:33Z</time>
      </trkpt>
      <trkpt lat="42.86835" lon="2.37135">
        <ele>893</ele>
        <time>2023-09-09T10:53:34Z</time>
      </trkpt>
      <trkpt lat="42.86836" lon="2.37135">
        <ele>892</ele>
        <time>2023-09-09T10:53:35Z</time>
      </trkpt>
      <trkpt lat="42.86836" lon="2.37136">
        <ele>892</ele>
        <time>2023-09-09T10:53:36Z</time>
      </trkpt>
      <trkpt lat="42.86837" lon="2.37136">
        <ele>892</ele>
        <time>2023-09-09T10:53:37Z</time>
      </trkpt>
      <trkpt lat="42.86838" lon="2.37137">
        <ele>891</ele>
        <time>2023-09-09T10:53:38Z</time>
      </trkpt>
      <trkpt lat="42.86839" lon="2.37138">
        <ele>891</ele>
        <time>2023-09-09T10:53:39Z</time>
      </trkpt>
      <trkpt lat="42.8684" lon="2.37139">
        <ele>890</ele>
        <time>2023-09-09T10:53:40Z</time>
      </trkpt>
      <trkpt lat="42.86841" lon="2.37141">
        <ele>890</ele>
        <time>2023-09-09T10:53:41Z</time>
      </trkpt>
      <trkpt lat="42.86842" lon="2.37142">
        <ele>890</ele>
        <time>2023-09-09T10:53:42Z</time>
      </trkpt>
      <trkpt lat="42.86843" lon="2.37144">
        <ele>889</ele>
        <time>2023-09-09T10:53:43Z</time>
      </trkpt>
      <trkpt lat="42.86844" lon="2.37145">
        <ele>889</ele>
        <time>2023-09-09T10:53:44Z</time>
      </trkpt>
      <trkpt lat="42.86845" lon="2.37147">
        <ele>889</ele>
        <time>2023-09-09T10:53:45Z</time>
      </trkpt>
      <trkpt lat="42.86845" lon="2.37148">
        <ele>889</ele>
        <time>2023-09-09T10:53:46Z</time>
      </trkpt>
      <trkpt lat="42.86846" lon="2.37149">
        <ele>889</ele>
        <time>2023-09-09T10:53:47Z</time>
      </trkpt>
      <trkpt lat="42.86847" lon="2.37151">
        <ele>888</ele>
        <time>2023-09-09T10:53:48Z</time>
      </trkpt>
      <trkpt lat="42.86848" lon="2.37152">
        <ele>888</ele>
        <time>2023-09-09T10:53:49Z</time>
      </trkpt>
      <trkpt lat="42.86849" lon="2.37153">
        <ele>888</ele>
        <time>2023-09-09T10:53:50Z</time>
      </trkpt>
      <trkpt lat="42.8685" lon="2.37154">
        <ele>888</ele>
        <time>2023-09-09T10:53:51Z</time>
      </trkpt>
      <trkpt lat="42.86852" lon="2.37155">
        <ele>888</ele>
        <time>2023-09-09T10:53:52Z</time>
      </trkpt>
      <trkpt lat="42.86853" lon="2.37157">
        <ele>887</ele>
        <time>2023-09-09T10:53:53Z</time>
      </trkpt>
      <trkpt lat="42.86854" lon="2.37158">
        <ele>887</ele>
        <time>2023-09-09T10:53:54Z</time>
      </trkpt>
      <trkpt lat="42.86855" lon="2.37159">
        <ele>887</ele>
        <time>2023-09-09T10:53:55Z</time>
      </trkpt>
      <trkpt lat="42.86856" lon="2.3716">
        <ele>887</ele>
        <time>2023-09-09T10:53:56Z</time>
      </trkpt>
      <trkpt lat="42.86857" lon="2.37162">
        <ele>887</ele>
        <time>2023-09-09T10:53:57Z</time>
      </trkpt>
      <trkpt lat="42.86859" lon="2.37163">
        <ele>886</ele>
        <time>2023-09-09T10:53:58Z</time>
      </trkpt>
      <trkpt lat="42.8686" lon="2.37165">
        <ele>886</ele>
        <time>2023-09-09T10:53:59Z</time>
      </trkpt>
      <trkpt lat="42.86861" lon="2.37166">
        <ele>886</ele>
        <time>2023-09-09T10:54:00Z</time>
      </trkpt>
      <trkpt lat="42.86861" lon="2.37166">
        <ele>886</ele>
        <time>2023-09-09T10:54:01Z</time>
      </trkpt>
      <trkpt lat="42.86862" lon="2.37167">
        <ele>886</ele>
        <time>2023-09-09T10:54:02Z</time>
      </trkpt>
      <trkpt lat="42.86863" lon="2.37168">
        <ele>886</ele>
        <time>2023-09-09T10:54:03Z</time>
      </trkpt>
      <trkpt lat="42.86864" lon="2.37168">
        <ele>886</ele>
        <time>2023-09-09T10:54:04Z</time>
      </trkpt>
      <trkpt lat="42.86865" lon="2.37169">
        <ele>886</ele>
        <time>2023-09-09T10:54:05Z</time>
      </trkpt>
      <trkpt lat="42.86866" lon="2.3717">
        <ele>886</ele>
        <time>2023-09-09T10:54:06Z</time>
      </trkpt>
      <trkpt lat="42.86867" lon="2.37171">
        <ele>886</ele>
        <time>2023-09-09T10:54:07Z</time>
      </trkpt>
      <trkpt lat="42.86868" lon="2.37172">
        <ele>886</ele>
        <time>2023-09-09T10:54:08Z</time>
      </trkpt>
      <trkpt lat="42.8687" lon="2.37173">
        <ele>886</ele>
        <time>2023-09-09T10:54:09Z</time>
      </trkpt>
      <trkpt lat="42.86871" lon="2.37174">
        <ele>886</ele>
        <time>2023-09-09T10:54:10Z</time>
      </trkpt>
      <trkpt lat="42.86873" lon="2.37174">
        <ele>886</ele>
        <time>2023-09-09T10:54:11Z</time>
      </trkpt>
      <trkpt lat="42.86874" lon="2.37175">
        <ele>886</ele>
        <time>2023-09-09T10:54:12Z</time>
      </trkpt>
      <trkpt lat="42.86875" lon="2.37175">
        <ele>886</ele>
        <time>2023-09-09T10:54:13Z</time>
      </trkpt>
      <trkpt lat="42.86877" lon="2.37175">
        <ele>886</ele>
        <time>2023-09-09T10:54:14Z</time>
      </trkpt>
      <trkpt lat="42.86878" lon="2.37175">
        <ele>886</ele>
        <time>2023-09-09T10:54:15Z</time>
      </trkpt>
      <trkpt lat="42.8688" lon="2.37176">
        <ele>886</ele>
        <time>2023-09-09T10:54:16Z</time>
      </trkpt>
      <trkpt lat="42.86882" lon="2.37176">
        <ele>886</ele>
        <time>2023-09-09T10:54:17Z</time>
      </trkpt>
      <trkpt lat="42.86884" lon="2.37176">
        <ele>885</ele>
        <time>2023-09-09T10:54:18Z</time>
      </trkpt>
      <trkpt lat="42.86885" lon="2.37176">
        <ele>885</ele>
        <time>2023-09-09T10:54:19Z</time>
      </trkpt>
      <trkpt lat="42.86887" lon="2.37176">
        <ele>885</ele>
        <time>2023-09-09T10:54:20Z</time>
      </trkpt>
      <trkpt lat="42.86888" lon="2.37177">
        <ele>885</ele>
        <time>2023-09-09T10:54:21Z</time>
      </trkpt>
      <trkpt lat="42.8689" lon="2.37177">
        <ele>885</ele>
        <time>2023-09-09T10:54:22Z</time>
      </trkpt>
      <trkpt lat="42.86891" lon="2.37178">
        <ele>884</ele>
        <time>2023-09-09T10:54:23Z</time>
      </trkpt>
      <trkpt lat="42.86892" lon="2.37178">
        <ele>884</ele>
        <time>2023-09-09T10:54:24Z</time>
      </trkpt>
      <trkpt lat="42.86893" lon="2.37179">
        <ele>884</ele>
        <time>2023-09-09T10:54:25Z</time>
      </trkpt>
      <trkpt lat="42.86894" lon="2.3718">
        <ele>884</ele>
        <time>2023-09-09T10:54:26Z</time>
      </trkpt>
      <trkpt lat="42.86894" lon="2.37181">
        <ele>884</ele>
        <time>2023-09-09T10:54:27Z</time>
      </trkpt>
      <trkpt lat="42.86895" lon="2.37182">
        <ele>883</ele>
        <time>2023-09-09T10:54:28Z</time>
      </trkpt>
      <trkpt lat="42.86896" lon="2.37183">
        <ele>883</ele>
        <time>2023-09-09T10:54:29Z</time>
      </trkpt>
      <trkpt lat="42.86897" lon="2.37184">
        <ele>883</ele>
        <time>2023-09-09T10:54:30Z</time>
      </trkpt>
      <trkpt lat="42.86898" lon="2.37186">
        <ele>883</ele>
        <time>2023-09-09T10:54:31Z</time>
      </trkpt>
      <trkpt lat="42.86898" lon="2.37188">
        <ele>883</ele>
        <time>2023-09-09T10:54:32Z</time>
      </trkpt>
      <trkpt lat="42.86899" lon="2.3719">
        <ele>882</ele>
        <time>2023-09-09T10:54:33Z</time>
      </trkpt>
      <trkpt lat="42.86899" lon="2.37192">
        <ele>882</ele>
        <time>2023-09-09T10:54:34Z</time>
      </trkpt>
      <trkpt lat="42.869" lon="2.37193">
        <ele>882</ele>
        <time>2023-09-09T10:54:35Z</time>
      </trkpt>
      <trkpt lat="42.869" lon="2.37194">
        <ele>882</ele>
        <time>2023-09-09T10:54:36Z</time>
      </trkpt>
      <trkpt lat="42.86901" lon="2.37195">
        <ele>882</ele>
        <time>2023-09-09T10:54:37Z</time>
      </trkpt>
      <trkpt lat="42.86901" lon="2.37196">
        <ele>881</ele>
        <time>2023-09-09T10:54:38Z</time>
      </trkpt>
      <trkpt lat="42.86902" lon="2.37196">
        <ele>881</ele>
        <time>2023-09-09T10:54:39Z</time>
      </trkpt>
      <trkpt lat="42.86903" lon="2.37197">
        <ele>881</ele>
        <time>2023-09-09T10:54:40Z</time>
      </trkpt>
      <trkpt lat="42.86904" lon="2.37197">
        <ele>881</ele>
        <time>2023-09-09T10:54:41Z</time>
      </trkpt>
      <trkpt lat="42.86905" lon="2.37198">
        <ele>881</ele>
        <time>2023-09-09T10:54:42Z</time>
      </trkpt>
      <trkpt lat="42.86906" lon="2.37198">
        <ele>880</ele>
        <time>2023-09-09T10:54:43Z</time>
      </trkpt>
      <trkpt lat="42.86907" lon="2.37198">
        <ele>879</ele>
        <time>2023-09-09T10:54:44Z</time>
      </trkpt>
      <trkpt lat="42.86908" lon="2.37198">
        <ele>879</ele>
        <time>2023-09-09T10:54:45Z</time>
      </trkpt>
      <trkpt lat="42.86909" lon="2.37198">
        <ele>878</ele>
        <time>2023-09-09T10:54:46Z</time>
      </trkpt>
      <trkpt lat="42.8691" lon="2.37198">
        <ele>878</ele>
        <time>2023-09-09T10:54:47Z</time>
      </trkpt>
      <trkpt lat="42.86912" lon="2.37197">
        <ele>877</ele>
        <time>2023-09-09T10:54:48Z</time>
      </trkpt>
      <trkpt lat="42.86913" lon="2.37197">
        <ele>877</ele>
        <time>2023-09-09T10:54:49Z</time>
      </trkpt>
      <trkpt lat="42.86915" lon="2.37196">
        <ele>877</ele>
        <time>2023-09-09T10:54:50Z</time>
      </trkpt>
      <trkpt lat="42.86917" lon="2.37196">
        <ele>877</ele>
        <time>2023-09-09T10:54:51Z</time>
      </trkpt>
      <trkpt lat="42.86919" lon="2.37196">
        <ele>877</ele>
        <time>2023-09-09T10:54:52Z</time>
      </trkpt>
      <trkpt lat="42.86921" lon="2.37196">
        <ele>876</ele>
        <time>2023-09-09T10:54:53Z</time>
      </trkpt>
      <trkpt lat="42.86923" lon="2.37196">
        <ele>876</ele>
        <time>2023-09-09T10:54:54Z</time>
      </trkpt>
      <trkpt lat="42.86924" lon="2.37196">
        <ele>876</ele>
        <time>2023-09-09T10:54:55Z</time>
      </trkpt>
      <trkpt lat="42.86926" lon="2.37196">
        <ele>876</ele>
        <time>2023-09-09T10:54:56Z</time>
      </trkpt>
      <trkpt lat="42.86928" lon="2.37197">
        <ele>876</ele>
        <time>2023-09-09T10:54:57Z</time>
      </trkpt>
      <trkpt lat="42.8693" lon="2.37198">
        <ele>875</ele>
        <time>2023-09-09T10:54:58Z</time>
      </trkpt>
      <trkpt lat="42.86932" lon="2.37198">
        <ele>875</ele>
        <time>2023-09-09T10:54:59Z</time>
      </trkpt>
      <trkpt lat="42.86933" lon="2.37198">
        <ele>874</ele>
        <time>2023-09-09T10:55:00Z</time>
      </trkpt>
      <trkpt lat="42.86934" lon="2.37198">
        <ele>874</ele>
        <time>2023-09-09T10:55:01Z</time>
      </trkpt>
      <trkpt lat="42.86935" lon="2.37198">
        <ele>874</ele>
        <time>2023-09-09T10:55:02Z</time>
      </trkpt>
      <trkpt lat="42.86936" lon="2.37197">
        <ele>873</ele>
        <time>2023-09-09T10:55:03Z</time>
      </trkpt>
      <trkpt lat="42.86936" lon="2.37197">
        <ele>873</ele>
        <time>2023-09-09T10:55:04Z</time>
      </trkpt>
      <trkpt lat="42.86936" lon="2.37196">
        <ele>873</ele>
        <time>2023-09-09T10:55:05Z</time>
      </trkpt>
      <trkpt lat="42.86936" lon="2.37195">
        <ele>873</ele>
        <time>2023-09-09T10:55:06Z</time>
      </trkpt>
      <trkpt lat="42.86936" lon="2.37194">
        <ele>873</ele>
        <time>2023-09-09T10:55:07Z</time>
      </trkpt>
      <trkpt lat="42.86935" lon="2.37192">
        <ele>872</ele>
        <time>2023-09-09T10:55:08Z</time>
      </trkpt>
      <trkpt lat="42.86934" lon="2.37191">
        <ele>872</ele>
        <time>2023-09-09T10:55:09Z</time>
      </trkpt>
      <trkpt lat="42.86934" lon="2.3719">
        <ele>871</ele>
        <time>2023-09-09T10:55:10Z</time>
      </trkpt>
      <trkpt lat="42.86933" lon="2.37189">
        <ele>871</ele>
        <time>2023-09-09T10:55:11Z</time>
      </trkpt>
      <trkpt lat="42.86932" lon="2.37188">
        <ele>871</ele>
        <time>2023-09-09T10:55:12Z</time>
      </trkpt>
      <trkpt lat="42.86931" lon="2.37187">
        <ele>870</ele>
        <time>2023-09-09T10:55:13Z</time>
      </trkpt>
      <trkpt lat="42.8693" lon="2.37186">
        <ele>870</ele>
        <time>2023-09-09T10:55:14Z</time>
      </trkpt>
      <trkpt lat="42.86929" lon="2.37185">
        <ele>870</ele>
        <time>2023-09-09T10:55:15Z</time>
      </trkpt>
      <trkpt lat="42.86928" lon="2.37184">
        <ele>870</ele>
        <time>2023-09-09T10:55:16Z</time>
      </trkpt>
      <trkpt lat="42.86928" lon="2.37183">
        <ele>870</ele>
        <time>2023-09-09T10:55:17Z</time>
      </trkpt>
      <trkpt lat="42.86927" lon="2.37182">
        <ele>869</ele>
        <time>2023-09-09T10:55:18Z</time>
      </trkpt>
      <trkpt lat="42.86927" lon="2.37181">
        <ele>869</ele>
        <time>2023-09-09T10:55:19Z</time>
      </trkpt>
      <trkpt lat="42.86927" lon="2.3718">
        <ele>868</ele>
        <time>2023-09-09T10:55:20Z</time>
      </trkpt>
      <trkpt lat="42.86926" lon="2.37179">
        <ele>868</ele>
        <time>2023-09-09T10:55:21Z</time>
      </trkpt>
      <trkpt lat="42.86926" lon="2.37178">
        <ele>868</ele>
        <time>2023-09-09T10:55:22Z</time>
      </trkpt>
      <trkpt lat="42.86925" lon="2.37177">
        <ele>867</ele>
        <time>2023-09-09T10:55:23Z</time>
      </trkpt>
      <trkpt lat="42.86925" lon="2.37176">
        <ele>867</ele>
        <time>2023-09-09T10:55:24Z</time>
      </trkpt>
      <trkpt lat="42.86924" lon="2.37176">
        <ele>867</ele>
        <time>2023-09-09T10:55:25Z</time>
      </trkpt>
      <trkpt lat="42.86923" lon="2.37175">
        <ele>867</ele>
        <time>2023-09-09T10:55:26Z</time>
      </trkpt>
      <trkpt lat="42.86922" lon="2.37174">
        <ele>867</ele>
        <time>2023-09-09T10:55:27Z</time>
      </trkpt>
      <trkpt lat="42.86922" lon="2.37173">
        <ele>866</ele>
        <time>2023-09-09T10:55:28Z</time>
      </trkpt>
      <trkpt lat="42.86922" lon="2.37172">
        <ele>866</ele>
        <time>2023-09-09T10:55:29Z</time>
      </trkpt>
      <trkpt lat="42.86922" lon="2.37171">
        <ele>866</ele>
        <time>2023-09-09T10:55:30Z</time>
      </trkpt>
      <trkpt lat="42.86922" lon="2.37169">
        <ele>866</ele>
        <time>2023-09-09T10:55:31Z</time>
      </trkpt>
      <trkpt lat="42.86923" lon="2.37168">
        <ele>866</ele>
        <time>2023-09-09T10:55:32Z</time>
      </trkpt>
      <trkpt lat="42.86924" lon="2.37167">
        <ele>865</ele>
        <time>2023-09-09T10:55:33Z</time>
      </trkpt>
      <trkpt lat="42.86926" lon="2.37166">
        <ele>865</ele>
        <time>2023-09-09T10:55:34Z</time>
      </trkpt>
      <trkpt lat="42.86927" lon="2.37165">
        <ele>864</ele>
        <time>2023-09-09T10:55:35Z</time>
      </trkpt>
      <trkpt lat="42.86929" lon="2.37163">
        <ele>864</ele>
        <time>2023-09-09T10:55:36Z</time>
      </trkpt>
      <trkpt lat="42.86931" lon="2.37162">
        <ele>864</ele>
        <time>2023-09-09T10:55:37Z</time>
      </trkpt>
      <trkpt lat="42.86933" lon="2.3716">
        <ele>863</ele>
        <time>2023-09-09T10:55:38Z</time>
      </trkpt>
      <trkpt lat="42.86934" lon="2.37159">
        <ele>863</ele>
        <time>2023-09-09T10:55:39Z</time>
      </trkpt>
      <trkpt lat="42.86936" lon="2.37158">
        <ele>863</ele>
        <time>2023-09-09T10:55:40Z</time>
      </trkpt>
      <trkpt lat="42.86938" lon="2.37158">
        <ele>863</ele>
        <time>2023-09-09T10:55:41Z</time>
      </trkpt>
      <trkpt lat="42.86939" lon="2.37157">
        <ele>863</ele>
        <time>2023-09-09T10:55:42Z</time>
      </trkpt>
      <trkpt lat="42.8694" lon="2.37157">
        <ele>862</ele>
        <time>2023-09-09T10:55:43Z</time>
      </trkpt>
      <trkpt lat="42.86942" lon="2.37156">
        <ele>861</ele>
        <time>2023-09-09T10:55:44Z</time>
      </trkpt>
      <trkpt lat="42.86943" lon="2.37156">
        <ele>861</ele>
        <time>2023-09-09T10:55:45Z</time>
      </trkpt>
      <trkpt lat="42.86944" lon="2.37155">
        <ele>860</ele>
        <time>2023-09-09T10:55:46Z</time>
      </trkpt>
      <trkpt lat="42.86945" lon="2.37155">
        <ele>860</ele>
        <time>2023-09-09T10:55:47Z</time>
      </trkpt>
      <trkpt lat="42.86946" lon="2.37155">
        <ele>859</ele>
        <time>2023-09-09T10:55:48Z</time>
      </trkpt>
      <trkpt lat="42.86947" lon="2.37155">
        <ele>859</ele>
        <time>2023-09-09T10:55:49Z</time>
      </trkpt>
      <trkpt lat="42.86947" lon="2.37155">
        <ele>858</ele>
        <time>2023-09-09T10:55:50Z</time>
      </trkpt>
      <trkpt lat="42.86948" lon="2.37155">
        <ele>858</ele>
        <time>2023-09-09T10:55:51Z</time>
      </trkpt>
      <trkpt lat="42.86949" lon="2.37155">
        <ele>858</ele>
        <time>2023-09-09T10:55:52Z</time>
      </trkpt>
      <trkpt lat="42.8695" lon="2.37154">
        <ele>857</ele>
        <time>2023-09-09T10:55:53Z</time>
      </trkpt>
      <trkpt lat="42.86952" lon="2.37154">
        <ele>857</ele>
        <time>2023-09-09T10:55:54Z</time>
      </trkpt>
      <trkpt lat="42.86953" lon="2.37154">
        <ele>857</ele>
        <time>2023-09-09T10:55:55Z</time>
      </trkpt>
      <trkpt lat="42.86954" lon="2.37154">
        <ele>857</ele>
        <time>2023-09-09T10:55:56Z</time>
      </trkpt>
      <trkpt lat="42.86956" lon="2.37154">
        <ele>857</ele>
        <time>2023-09-09T10:55:57Z</time>
      </trkpt>
      <trkpt lat="42.86957" lon="2.37154">
        <ele>856</ele>
        <time>2023-09-09T10:55:58Z</time>
      </trkpt>
      <trkpt lat="42.86959" lon="2.37154">
        <ele>856</ele>
        <time>2023-09-09T10:55:59Z</time>
      </trkpt>
      <trkpt lat="42.8696" lon="2.37154">
        <ele>856</ele>
        <time>2023-09-09T10:56:00Z</time>
      </trkpt>
      <trkpt lat="42.86962" lon="2.37154">
        <ele>856</ele>
        <time>2023-09-09T10:56:01Z</time>
      </trkpt>
      <trkpt lat="42.86963" lon="2.37154">
        <ele>856</ele>
        <time>2023-09-09T10:56:02Z</time>
      </trkpt>
      <trkpt lat="42.86964" lon="2.37153">
        <ele>855</ele>
        <time>2023-09-09T10:56:03Z</time>
      </trkpt>
      <trkpt lat="42.86966" lon="2.37152">
        <ele>855</ele>
        <time>2023-09-09T10:56:04Z</time>
      </trkpt>
      <trkpt lat="42.86967" lon="2.37151">
        <ele>855</ele>
        <time>2023-09-09T10:56:05Z</time>
      </trkpt>
      <trkpt lat="42.86968" lon="2.37151">
        <ele>855</ele>
        <time>2023-09-09T10:56:06Z</time>
      </trkpt>
      <trkpt lat="42.86969" lon="2.3715">
        <ele>855</ele>
        <time>2023-09-09T10:56:07Z</time>
      </trkpt>
      <trkpt lat="42.86969" lon="2.37149">
        <ele>854</ele>
        <time>2023-09-09T10:56:08Z</time>
      </trkpt>
      <trkpt lat="42.8697" lon="2.37149">
        <ele>854</ele>
        <time>2023-09-09T10:56:09Z</time>
      </trkpt>
      <trkpt lat="42.86971" lon="2.37148">
        <ele>853</ele>
        <time>2023-09-09T10:56:10Z</time>
      </trkpt>
      <trkpt lat="42.86971" lon="2.37148">
        <ele>853</ele>
        <time>2023-09-09T10:56:11Z</time>
      </trkpt>
      <trkpt lat="42.86972" lon="2.37147">
        <ele>853</ele>
        <time>2023-09-09T10:56:12Z</time>
      </trkpt>
      <trkpt lat="42.86973" lon="2.37147">
        <ele>852</ele>
        <time>2023-09-09T10:56:13Z</time>
      </trkpt>
      <trkpt lat="42.86974" lon="2.37146">
        <ele>852</ele>
        <time>2023-09-09T10:56:14Z</time>
      </trkpt>
      <trkpt lat="42.86974" lon="2.37146">
        <ele>852</ele>
        <time>2023-09-09T10:56:15Z</time>
      </trkpt>
      <trkpt lat="42.86975" lon="2.37146">
        <ele>852</ele>
        <time>2023-09-09T10:56:16Z</time>
      </trkpt>
      <trkpt lat="42.86975" lon="2.37145">
        <ele>852</ele>
        <time>2023-09-09T10:56:17Z</time>
      </trkpt>
      <trkpt lat="42.86975" lon="2.37145">
        <ele>851</ele>
        <time>2023-09-09T10:56:18Z</time>
      </trkpt>
      <trkpt lat="42.86976" lon="2.37144">
        <ele>851</ele>
        <time>2023-09-09T10:56:19Z</time>
      </trkpt>
      <trkpt lat="42.86976" lon="2.37143">
        <ele>850</ele>
        <time>2023-09-09T10:56:20Z</time>
      </trkpt>
      <trkpt lat="42.86976" lon="2.37143">
        <ele>850</ele>
        <time>2023-09-09T10:56:21Z</time>
      </trkpt>
      <trkpt lat="42.86977" lon="2.37142">
        <ele>850</ele>
        <time>2023-09-09T10:56:22Z</time>
      </trkpt>
      <trkpt lat="42.86977" lon="2.37142">
        <ele>849</ele>
        <time>2023-09-09T10:56:23Z</time>
      </trkpt>
      <trkpt lat="42.86978" lon="2.37141">
        <ele>849</ele>
        <time>2023-09-09T10:56:24Z</time>
      </trkpt>
      <trkpt lat="42.86978" lon="2.37141">
        <ele>849</ele>
        <time>2023-09-09T10:56:25Z</time>
      </trkpt>
      <trkpt lat="42.86979" lon="2.3714">
        <ele>849</ele>
        <time>2023-09-09T10:56:26Z</time>
      </trkpt>
      <trkpt lat="42.86979" lon="2.3714">
        <ele>849</ele>
        <time>2023-09-09T10:56:27Z</time>
      </trkpt>
      <trkpt lat="42.86979" lon="2.3714">
        <ele>848</ele>
        <time>2023-09-09T10:56:28Z</time>
      </trkpt>
      <trkpt lat="42.86979" lon="2.3714">
        <ele>848</ele>
        <time>2023-09-09T10:56:29Z</time>
      </trkpt>
      <trkpt lat="42.86979" lon="2.3714">
        <ele>847</ele>
        <time>2023-09-09T10:56:30Z</time>
      </trkpt>
      <trkpt lat="42.8698" lon="2.37139">
        <ele>847</ele>
        <time>2023-09-09T10:56:31Z</time>
      </trkpt>
      <trkpt lat="42.8698" lon="2.37138">
        <ele>847</ele>
        <time>2023-09-09T10:56:32Z</time>
      </trkpt>
      <trkpt lat="42.86981" lon="2.37138">
        <ele>846</ele>
        <time>2023-09-09T10:56:33Z</time>
      </trkpt>
      <trkpt lat="42.86981" lon="2.37138">
        <ele>846</ele>
        <time>2023-09-09T10:56:34Z</time>
      </trkpt>
      <trkpt lat="42.86981" lon="2.37137">
        <ele>846</ele>
        <time>2023-09-09T10:56:35Z</time>
      </trkpt>
      <trkpt lat="42.86982" lon="2.37137">
        <ele>846</ele>
        <time>2023-09-09T10:56:36Z</time>
      </trkpt>
      <trkpt lat="42.86983" lon="2.37136">
        <ele>846</ele>
        <time>2023-09-09T10:56:37Z</time>
      </trkpt>
      <trkpt lat="42.86983" lon="2.37135">
        <ele>845</ele>
        <time>2023-09-09T10:56:38Z</time>
      </trkpt>
      <trkpt lat="42.86984" lon="2.37134">
        <ele>845</ele>
        <time>2023-09-09T10:56:39Z</time>
      </trkpt>
      <trkpt lat="42.86985" lon="2.37134">
        <ele>845</ele>
        <time>2023-09-09T10:56:40Z</time>
      </trkpt>
      <trkpt lat="42.86986" lon="2.37134">
        <ele>845</ele>
        <time>2023-09-09T10:56:41Z</time>
      </trkpt>
      <trkpt lat="42.86986" lon="2.37134">
        <ele>845</ele>
        <time>2023-09-09T10:56:42Z</time>
      </trkpt>
      <trkpt lat="42.86987" lon="2.37134">
        <ele>844</ele>
        <time>2023-09-09T10:56:43Z</time>
      </trkpt>
      <trkpt lat="42.86987" lon="2.37134">
        <ele>843</ele>
        <time>2023-09-09T10:56:44Z</time>
      </trkpt>
      <trkpt lat="42.86988" lon="2.37134">
        <ele>843</ele>
        <time>2023-09-09T10:56:45Z</time>
      </trkpt>
      <trkpt lat="42.86989" lon="2.37134">
        <ele>842</ele>
        <time>2023-09-09T10:56:46Z</time>
      </trkpt>
      <trkpt lat="42.8699" lon="2.37133">
        <ele>842</ele>
        <time>2023-09-09T10:56:47Z</time>
      </trkpt>
      <trkpt lat="42.8699" lon="2.37133">
        <ele>841</ele>
        <time>2023-09-09T10:56:48Z</time>
      </trkpt>
      <trkpt lat="42.86991" lon="2.37133">
        <ele>841</ele>
        <time>2023-09-09T10:56:49Z</time>
      </trkpt>
      <trkpt lat="42.86992" lon="2.37132">
        <ele>841</ele>
        <time>2023-09-09T10:56:50Z</time>
      </trkpt>
      <trkpt lat="42.86993" lon="2.37132">
        <ele>841</ele>
        <time>2023-09-09T10:56:51Z</time>
      </trkpt>
      <trkpt lat="42.86994" lon="2.37131">
        <ele>841</ele>
        <time>2023-09-09T10:56:52Z</time>
      </trkpt>
      <trkpt lat="42.87004" lon="2.37124">
        <ele>832</ele>
        <time>2023-09-09T10:57:33Z</time>
      </trkpt>
      <trkpt lat="42.87004" lon="2.37123">
        <ele>832</ele>
        <time>2023-09-09T10:57:34Z</time>
      </trkpt>
      <trkpt lat="42.87004" lon="2.37123">
        <ele>832</ele>
        <time>2023-09-09T10:57:35Z</time>
      </trkpt>
      <trkpt lat="42.87004" lon="2.37122">
        <ele>832</ele>
        <time>2023-09-09T10:57:36Z</time>
      </trkpt>
      <trkpt lat="42.87004" lon="2.37121">
        <ele>831</ele>
        <time>2023-09-09T10:57:37Z</time>
      </trkpt>
      <trkpt lat="42.87005" lon="2.37119">
        <ele>830</ele>
        <time>2023-09-09T10:57:45Z</time>
      </trkpt>
      <trkpt lat="42.87006" lon="2.37118">
        <ele>830</ele>
        <time>2023-09-09T10:57:46Z</time>
      </trkpt>
      <trkpt lat="42.87007" lon="2.37118">
        <ele>830</ele>
        <time>2023-09-09T10:57:47Z</time>
      </trkpt>
      <trkpt lat="42.87007" lon="2.37117">
        <ele>830</ele>
        <time>2023-09-09T10:57:48Z</time>
      </trkpt>
      <trkpt lat="42.87008" lon="2.37117">
        <ele>830</ele>
        <time>2023-09-09T10:57:49Z</time>
      </trkpt>
      <trkpt lat="42.87009" lon="2.37116">
        <ele>830</ele>
        <time>2023-09-09T10:57:50Z</time>
      </trkpt>
      <trkpt lat="42.87009" lon="2.37116">
        <ele>830</ele>
        <time>2023-09-09T10:57:51Z</time>
      </trkpt>
      <trkpt lat="42.8701" lon="2.37115">
        <ele>829</ele>
        <time>2023-09-09T10:57:52Z</time>
      </trkpt>
      <trkpt lat="42.87011" lon="2.37114">
        <ele>829</ele>
        <time>2023-09-09T10:57:53Z</time>
      </trkpt>
      <trkpt lat="42.87011" lon="2.37114">
        <ele>828</ele>
        <time>2023-09-09T10:57:54Z</time>
      </trkpt>
      <trkpt lat="42.87012" lon="2.37113">
        <ele>828</ele>
        <time>2023-09-09T10:57:55Z</time>
      </trkpt>
      <trkpt lat="42.87012" lon="2.37113">
        <ele>828</ele>
        <time>2023-09-09T10:57:56Z</time>
      </trkpt>
      <trkpt lat="42.87012" lon="2.37113">
        <ele>827</ele>
        <time>2023-09-09T10:57:57Z</time>
      </trkpt>
      <trkpt lat="42.87012" lon="2.37113">
        <ele>827</ele>
        <time>2023-09-09T10:57:58Z</time>
      </trkpt>
      <trkpt lat="42.87012" lon="2.37113">
        <ele>826</ele>
        <time>2023-09-09T10:57:59Z</time>
      </trkpt>
      <trkpt lat="42.87012" lon="2.37113">
        <ele>826</ele>
        <time>2023-09-09T10:58:00Z</time>
      </trkpt>
      <trkpt lat="42.87013" lon="2.37113">
        <ele>826</ele>
        <time>2023-09-09T10:58:01Z</time>
      </trkpt>
      <trkpt lat="42.87013" lon="2.37113">
        <ele>825</ele>
        <time>2023-09-09T10:58:02Z</time>
      </trkpt>
      <trkpt lat="42.87014" lon="2.37113">
        <ele>825</ele>
        <time>2023-09-09T10:58:03Z</time>
      </trkpt>
      <trkpt lat="42.87014" lon="2.37112">
        <ele>825</ele>
        <time>2023-09-09T10:58:04Z</time>
      </trkpt>
      <trkpt lat="42.87015" lon="2.37112">
        <ele>825</ele>
        <time>2023-09-09T10:58:05Z</time>
      </trkpt>
      <trkpt lat="42.87015" lon="2.37111">
        <ele>825</ele>
        <time>2023-09-09T10:58:06Z</time>
      </trkpt>
      <trkpt lat="42.87017" lon="2.3711">
        <ele>823</ele>
        <time>2023-09-09T10:58:13Z</time>
      </trkpt>
      <trkpt lat="42.87018" lon="2.3711">
        <ele>822</ele>
        <time>2023-09-09T10:58:14Z</time>
      </trkpt>
      <trkpt lat="42.87019" lon="2.37109">
        <ele>822</ele>
        <time>2023-09-09T10:58:15Z</time>
      </trkpt>
      <trkpt lat="42.8702" lon="2.37109">
        <ele>822</ele>
        <time>2023-09-09T10:58:16Z</time>
      </trkpt>
      <trkpt lat="42.87021" lon="2.37108">
        <ele>821</ele>
        <time>2023-09-09T10:58:17Z</time>
      </trkpt>
      <trkpt lat="42.87022" lon="2.37108">
        <ele>821</ele>
        <time>2023-09-09T10:58:18Z</time>
      </trkpt>
      <trkpt lat="42.87023" lon="2.37107">
        <ele>821</ele>
        <time>2023-09-09T10:58:19Z</time>
      </trkpt>
      <trkpt lat="42.87024" lon="2.37107">
        <ele>821</ele>
        <time>2023-09-09T10:58:20Z</time>
      </trkpt>
      <trkpt lat="42.87025" lon="2.37106">
        <ele>821</ele>
        <time>2023-09-09T10:58:21Z</time>
      </trkpt>
      <trkpt lat="42.87026" lon="2.37107">
        <ele>820</ele>
        <time>2023-09-09T10:58:22Z</time>
      </trkpt>
      <trkpt lat="42.87027" lon="2.37107">
        <ele>820</ele>
        <time>2023-09-09T10:58:23Z</time>
      </trkpt>
      <trkpt lat="42.87028" lon="2.37107">
        <ele>820</ele>
        <time>2023-09-09T10:58:24Z</time>
      </trkpt>
      <trkpt lat="42.87028" lon="2.37108">
        <ele>820</ele>
        <time>2023-09-09T10:58:25Z</time>
      </trkpt>
      <trkpt lat="42.87029" lon="2.37108">
        <ele>820</ele>
        <time>2023-09-09T10:58:26Z</time>
      </trkpt>
      <trkpt lat="42.8703" lon="2.37108">
        <ele>819</ele>
        <time>2023-09-09T10:58:27Z</time>
      </trkpt>
      <trkpt lat="42.87031" lon="2.37108">
        <ele>819</ele>
        <time>2023-09-09T10:58:28Z</time>
      </trkpt>
      <trkpt lat="42.87032" lon="2.37109">
        <ele>818</ele>
        <time>2023-09-09T10:58:29Z</time>
      </trkpt>
      <trkpt lat="42.87033" lon="2.37109">
        <ele>818</ele>
        <time>2023-09-09T10:58:30Z</time>
      </trkpt>
      <trkpt lat="42.87033" lon="2.3711">
        <ele>818</ele>
        <time>2023-09-09T10:58:31Z</time>
      </trkpt>
      <trkpt lat="42.87034" lon="2.37111">
        <ele>817</ele>
        <time>2023-09-09T10:58:32Z</time>
      </trkpt>
      <trkpt lat="42.87035" lon="2.37111">
        <ele>817</ele>
        <time>2023-09-09T10:58:33Z</time>
      </trkpt>
      <trkpt lat="42.87035" lon="2.37112">
        <ele>816</ele>
        <time>2023-09-09T10:58:34Z</time>
      </trkpt>
      <trkpt lat="42.87036" lon="2.37113">
        <ele>816</ele>
        <time>2023-09-09T10:58:35Z</time>
      </trkpt>
      <trkpt lat="42.87036" lon="2.37113">
        <ele>816</ele>
        <time>2023-09-09T10:58:36Z</time>
      </trkpt>
      <trkpt lat="42.87037" lon="2.37114">
        <ele>815</ele>
        <time>2023-09-09T10:58:37Z</time>
      </trkpt>
      <trkpt lat="42.87037" lon="2.37114">
        <ele>815</ele>
        <time>2023-09-09T10:58:38Z</time>
      </trkpt>
      <trkpt lat="42.87038" lon="2.37115">
        <ele>814</ele>
        <time>2023-09-09T10:58:39Z</time>
      </trkpt>
      <trkpt lat="42.87038" lon="2.37115">
        <ele>814</ele>
        <time>2023-09-09T10:58:40Z</time>
      </trkpt>
      <trkpt lat="42.87039" lon="2.37116">
        <ele>814</ele>
        <time>2023-09-09T10:58:41Z</time>
      </trkpt>
      <trkpt lat="42.8704" lon="2.37116">
        <ele>813</ele>
        <time>2023-09-09T10:58:42Z</time>
      </trkpt>
      <trkpt lat="42.87041" lon="2.37117">
        <ele>813</ele>
        <time>2023-09-09T10:58:43Z</time>
      </trkpt>
      <trkpt lat="42.87042" lon="2.37117">
        <ele>813</ele>
        <time>2023-09-09T10:58:44Z</time>
      </trkpt>
      <trkpt lat="42.87043" lon="2.37118">
        <ele>813</ele>
        <time>2023-09-09T10:58:45Z</time>
      </trkpt>
      <trkpt lat="42.87044" lon="2.37118">
        <ele>813</ele>
        <time>2023-09-09T10:58:46Z</time>
      </trkpt>
      <trkpt lat="42.87045" lon="2.37119">
        <ele>812</ele>
        <time>2023-09-09T10:58:47Z</time>
      </trkpt>
      <trkpt lat="42.87047" lon="2.3712">
        <ele>812</ele>
        <time>2023-09-09T10:58:48Z</time>
      </trkpt>
      <trkpt lat="42.87048" lon="2.3712">
        <ele>811</ele>
        <time>2023-09-09T10:58:49Z</time>
      </trkpt>
      <trkpt lat="42.87049" lon="2.37121">
        <ele>811</ele>
        <time>2023-09-09T10:58:50Z</time>
      </trkpt>
      <trkpt lat="42.8705" lon="2.37122">
        <ele>811</ele>
        <time>2023-09-09T10:58:51Z</time>
      </trkpt>
      <trkpt lat="42.87051" lon="2.37123">
        <ele>810</ele>
        <time>2023-09-09T10:58:52Z</time>
      </trkpt>
      <trkpt lat="42.87052" lon="2.37125">
        <ele>810</ele>
        <time>2023-09-09T10:58:53Z</time>
      </trkpt>
      <trkpt lat="42.87054" lon="2.37126">
        <ele>810</ele>
        <time>2023-09-09T10:58:54Z</time>
      </trkpt>
      <trkpt lat="42.87055" lon="2.37128">
        <ele>810</ele>
        <time>2023-09-09T10:58:55Z</time>
      </trkpt>
      <trkpt lat="42.87057" lon="2.37129">
        <ele>810</ele>
        <time>2023-09-09T10:58:56Z</time>
      </trkpt>
      <trkpt lat="42.87058" lon="2.37131">
        <ele>809</ele>
        <time>2023-09-09T10:58:57Z</time>
      </trkpt>
      <trkpt lat="42.8706" lon="2.37132">
        <ele>808</ele>
        <time>2023-09-09T10:58:58Z</time>
      </trkpt>
      <trkpt lat="42.87061" lon="2.37134">
        <ele>808</ele>
        <time>2023-09-09T10:58:59Z</time>
      </trkpt>
      <trkpt lat="42.87063" lon="2.37136">
        <ele>807</ele>
        <time>2023-09-09T10:59:00Z</time>
      </trkpt>
      <trkpt lat="42.87065" lon="2.37138">
        <ele>807</ele>
        <time>2023-09-09T10:59:01Z</time>
      </trkpt>
      <trkpt lat="42.87066" lon="2.3714">
        <ele>806</ele>
        <time>2023-09-09T10:59:02Z</time>
      </trkpt>
      <trkpt lat="42.87068" lon="2.37142">
        <ele>806</ele>
        <time>2023-09-09T10:59:03Z</time>
      </trkpt>
      <trkpt lat="42.87069" lon="2.37144">
        <ele>806</ele>
        <time>2023-09-09T10:59:04Z</time>
      </trkpt>
      <trkpt lat="42.8707" lon="2.37146">
        <ele>806</ele>
        <time>2023-09-09T10:59:05Z</time>
      </trkpt>
      <trkpt lat="42.87072" lon="2.37148">
        <ele>806</ele>
        <time>2023-09-09T10:59:06Z</time>
      </trkpt>
      <trkpt lat="42.87073" lon="2.3715">
        <ele>805</ele>
        <time>2023-09-09T10:59:07Z</time>
      </trkpt>
      <trkpt lat="42.87074" lon="2.37152">
        <ele>805</ele>
        <time>2023-09-09T10:59:08Z</time>
      </trkpt>
      <trkpt lat="42.87075" lon="2.37153">
        <ele>804</ele>
        <time>2023-09-09T10:59:09Z</time>
      </trkpt>
      <trkpt lat="42.87076" lon="2.37155">
        <ele>804</ele>
        <time>2023-09-09T10:59:10Z</time>
      </trkpt>
      <trkpt lat="42.87077" lon="2.37157">
        <ele>804</ele>
        <time>2023-09-09T10:59:11Z</time>
      </trkpt>
      <trkpt lat="42.87078" lon="2.37159">
        <ele>803</ele>
        <time>2023-09-09T10:59:12Z</time>
      </trkpt>
      <trkpt lat="42.87079" lon="2.37161">
        <ele>803</ele>
        <time>2023-09-09T10:59:13Z</time>
      </trkpt>
      <trkpt lat="42.8708" lon="2.37162">
        <ele>803</ele>
        <time>2023-09-09T10:59:14Z</time>
      </trkpt>
      <trkpt lat="42.87081" lon="2.37163">
        <ele>803</ele>
        <time>2023-09-09T10:59:15Z</time>
      </trkpt>
      <trkpt lat="42.87082" lon="2.37165">
        <ele>803</ele>
        <time>2023-09-09T10:59:16Z</time>
      </trkpt>
      <trkpt lat="42.87083" lon="2.37166">
        <ele>802</ele>
        <time>2023-09-09T10:59:17Z</time>
      </trkpt>
      <trkpt lat="42.87083" lon="2.37167">
        <ele>802</ele>
        <time>2023-09-09T10:59:18Z</time>
      </trkpt>
      <trkpt lat="42.87084" lon="2.37169">
        <ele>802</ele>
        <time>2023-09-09T10:59:19Z</time>
      </trkpt>
      <trkpt lat="42.87085" lon="2.3717">
        <ele>802</ele>
        <time>2023-09-09T10:59:20Z</time>
      </trkpt>
      <trkpt lat="42.87085" lon="2.37171">
        <ele>802</ele>
        <time>2023-09-09T10:59:21Z</time>
      </trkpt>
      <trkpt lat="42.87085" lon="2.37173">
        <ele>801</ele>
        <time>2023-09-09T10:59:22Z</time>
      </trkpt>
      <trkpt lat="42.87086" lon="2.37175">
        <ele>801</ele>
        <time>2023-09-09T10:59:23Z</time>
      </trkpt>
      <trkpt lat="42.87086" lon="2.37176">
        <ele>801</ele>
        <time>2023-09-09T10:59:24Z</time>
      </trkpt>
      <trkpt lat="42.87086" lon="2.37178">
        <ele>801</ele>
        <time>2023-09-09T10:59:25Z</time>
      </trkpt>
      <trkpt lat="42.87086" lon="2.3718">
        <ele>801</ele>
        <time>2023-09-09T10:59:26Z</time>
      </trkpt>
      <trkpt lat="42.87086" lon="2.37181">
        <ele>800</ele>
        <time>2023-09-09T10:59:27Z</time>
      </trkpt>
      <trkpt lat="42.87086" lon="2.37183">
        <ele>800</ele>
        <time>2023-09-09T10:59:28Z</time>
      </trkpt>
      <trkpt lat="42.87086" lon="2.37185">
        <ele>800</ele>
        <time>2023-09-09T10:59:29Z</time>
      </trkpt>
      <trkpt lat="42.87085" lon="2.37186">
        <ele>800</ele>
        <time>2023-09-09T10:59:30Z</time>
      </trkpt>
      <trkpt lat="42.87085" lon="2.37188">
        <ele>800</ele>
        <time>2023-09-09T10:59:31Z</time>
      </trkpt>
      <trkpt lat="42.87085" lon="2.37189">
        <ele>799</ele>
        <time>2023-09-09T10:59:32Z</time>
      </trkpt>
      <trkpt lat="42.87084" lon="2.3719">
        <ele>799</ele>
        <time>2023-09-09T10:59:33Z</time>
      </trkpt>
      <trkpt lat="42.87084" lon="2.37192">
        <ele>799</ele>
        <time>2023-09-09T10:59:34Z</time>
      </trkpt>
      <trkpt lat="42.87084" lon="2.37194">
        <ele>799</ele>
        <time>2023-09-09T10:59:35Z</time>
      </trkpt>
      <trkpt lat="42.87083" lon="2.37195">
        <ele>799</ele>
        <time>2023-09-09T10:59:36Z</time>
      </trkpt>
      <trkpt lat="42.87083" lon="2.37197">
        <ele>799</ele>
        <time>2023-09-09T10:59:37Z</time>
      </trkpt>
      <trkpt lat="42.87082" lon="2.37199">
        <ele>799</ele>
        <time>2023-09-09T10:59:38Z</time>
      </trkpt>
      <trkpt lat="42.87082" lon="2.372">
        <ele>799</ele>
        <time>2023-09-09T10:59:39Z</time>
      </trkpt>
      <trkpt lat="42.87081" lon="2.37201">
        <ele>799</ele>
        <time>2023-09-09T10:59:40Z</time>
      </trkpt>
      <trkpt lat="42.87081" lon="2.37203">
        <ele>799</ele>
        <time>2023-09-09T10:59:41Z</time>
      </trkpt>
      <trkpt lat="42.87081" lon="2.37204">
        <ele>799</ele>
        <time>2023-09-09T10:59:42Z</time>
      </trkpt>
      <trkpt lat="42.87081" lon="2.37206">
        <ele>799</ele>
        <time>2023-09-09T10:59:43Z</time>
      </trkpt>
      <trkpt lat="42.87081" lon="2.37207">
        <ele>799</ele>
        <time>2023-09-09T10:59:44Z</time>
      </trkpt>
      <trkpt lat="42.87081" lon="2.37208">
        <ele>799</ele>
        <time>2023-09-09T10:59:45Z</time>
      </trkpt>
      <trkpt lat="42.87081" lon="2.37209">
        <ele>800</ele>
        <time>2023-09-09T10:59:46Z</time>
      </trkpt>
      <trkpt lat="42.87081" lon="2.3721">
        <ele>800</ele>
        <time>2023-09-09T10:59:47Z</time>
      </trkpt>
      <trkpt lat="42.87081" lon="2.37211">
        <ele>800</ele>
        <time>2023-09-09T10:59:48Z</time>
      </trkpt>
      <trkpt lat="42.87081" lon="2.37212">
        <ele>800</ele>
        <time>2023-09-09T10:59:49Z</time>
      </trkpt>
      <trkpt lat="42.87081" lon="2.37213">
        <ele>800</ele>
        <time>2023-09-09T10:59:50Z</time>
      </trkpt>
      <trkpt lat="42.87082" lon="2.37215">
        <ele>800</ele>
        <time>2023-09-09T10:59:51Z</time>
      </trkpt>
      <trkpt lat="42.87082" lon="2.37217">
        <ele>800</ele>
        <time>2023-09-09T10:59:52Z</time>
      </trkpt>
      <trkpt lat="42.87082" lon="2.37219">
        <ele>800</ele>
        <time>2023-09-09T10:59:53Z</time>
      </trkpt>
      <trkpt lat="42.87083" lon="2.3722">
        <ele>800</ele>
        <time>2023-09-09T10:59:54Z</time>
      </trkpt>
      <trkpt lat="42.87083" lon="2.37222">
        <ele>800</ele>
        <time>2023-09-09T10:59:55Z</time>
      </trkpt>
      <trkpt lat="42.87083" lon="2.37223">
        <ele>800</ele>
        <time>2023-09-09T10:59:56Z</time>
      </trkpt>
      <trkpt lat="42.87084" lon="2.37225">
        <ele>800</ele>
        <time>2023-09-09T10:59:57Z</time>
      </trkpt>
      <trkpt lat="42.87084" lon="2.37227">
        <ele>800</ele>
        <time>2023-09-09T10:59:58Z</time>
      </trkpt>
      <trkpt lat="42.87084" lon="2.37228">
        <ele>800</ele>
        <time>2023-09-09T10:59:59Z</time>
      </trkpt>
      <trkpt lat="42.87085" lon="2.3723">
        <ele>800</ele>
        <time>2023-09-09T11:00:00Z</time>
      </trkpt>
      <trkpt lat="42.87091" lon="2.37247">
        <ele>802</ele>
        <time>2023-09-09T11:00:36Z</time>
      </trkpt>
      <trkpt lat="42.87091" lon="2.37247">
        <ele>802</ele>
        <time>2023-09-09T11:00:37Z</time>
      </trkpt>
      <trkpt lat="42.87091" lon="2.37248">
        <ele>802</ele>
        <time>2023-09-09T11:00:38Z</time>
      </trkpt>
      <trkpt lat="42.87091" lon="2.37249">
        <ele>802</ele>
        <time>2023-09-09T11:00:39Z</time>
      </trkpt>
      <trkpt lat="42.87091" lon="2.3725">
        <ele>802</ele>
        <time>2023-09-09T11:00:40Z</time>
      </trkpt>
      <trkpt lat="42.87092" lon="2.37252">
        <ele>802</ele>
        <time>2023-09-09T11:00:41Z</time>
      </trkpt>
      <trkpt lat="42.87092" lon="2.37253">
        <ele>802</ele>
        <time>2023-09-09T11:00:42Z</time>
      </trkpt>
      <trkpt lat="42.87092" lon="2.37254">
        <ele>802</ele>
        <time>2023-09-09T11:00:43Z</time>
      </trkpt>
      <trkpt lat="42.87093" lon="2.37256">
        <ele>802</ele>
        <time>2023-09-09T11:00:44Z</time>
      </trkpt>
      <trkpt lat="42.87093" lon="2.37257">
        <ele>802</ele>
        <time>2023-09-09T11:00:45Z</time>
      </trkpt>
      <trkpt lat="42.87094" lon="2.37259">
        <ele>802</ele>
        <time>2023-09-09T11:00:46Z</time>
      </trkpt>
      <trkpt lat="42.87094" lon="2.3726">
        <ele>802</ele>
        <time>2023-09-09T11:00:47Z</time>
      </trkpt>
      <trkpt lat="42.87095" lon="2.37262">
        <ele>802</ele>
        <time>2023-09-09T11:00:48Z</time>
      </trkpt>
      <trkpt lat="42.87096" lon="2.37264">
        <ele>803</ele>
        <time>2023-09-09T11:00:49Z</time>
      </trkpt>
      <trkpt lat="42.87097" lon="2.37265">
        <ele>803</ele>
        <time>2023-09-09T11:00:50Z</time>
      </trkpt>
      <trkpt lat="42.87098" lon="2.37267">
        <ele>803</ele>
        <time>2023-09-09T11:00:51Z</time>
      </trkpt>
      <trkpt lat="42.87099" lon="2.3727">
        <ele>803</ele>
        <time>2023-09-09T11:00:52Z</time>
      </trkpt>
      <trkpt lat="42.87099" lon="2.37272">
        <ele>803</ele>
        <time>2023-09-09T11:00:53Z</time>
      </trkpt>
      <trkpt lat="42.871" lon="2.37274">
        <ele>803</ele>
        <time>2023-09-09T11:00:54Z</time>
      </trkpt>
      <trkpt lat="42.871" lon="2.37275">
        <ele>803</ele>
        <time>2023-09-09T11:00:55Z</time>
      </trkpt>
      <trkpt lat="42.87101" lon="2.37277">
        <ele>803</ele>
        <time>2023-09-09T11:00:56Z</time>
      </trkpt>
      <trkpt lat="42.87101" lon="2.37279">
        <ele>803</ele>
        <time>2023-09-09T11:00:57Z</time>
      </trkpt>
      <trkpt lat="42.87102" lon="2.3728">
        <ele>803</ele>
        <time>2023-09-09T11:00:58Z</time>
      </trkpt>
      <trkpt lat="42.87102" lon="2.37282">
        <ele>804</ele>
        <time>2023-09-09T11:00:59Z</time>
      </trkpt>
      <trkpt lat="42.87103" lon="2.37283">
        <ele>804</ele>
        <time>2023-09-09T11:01:00Z</time>
      </trkpt>
      <trkpt lat="42.87104" lon="2.37285">
        <ele>804</ele>
        <time>2023-09-09T11:01:01Z</time>
      </trkpt>
      <trkpt lat="42.87104" lon="2.37286">
        <ele>804</ele>
        <time>2023-09-09T11:01:02Z</time>
      </trkpt>
      <trkpt lat="42.87105" lon="2.37288">
        <ele>804</ele>
        <time>2023-09-09T11:01:03Z</time>
      </trkpt>
      <trkpt lat="42.87106" lon="2.37289">
        <ele>804</ele>
        <time>2023-09-09T11:01:04Z</time>
      </trkpt>
      <trkpt lat="42.87107" lon="2.3729">
        <ele>804</ele>
        <time>2023-09-09T11:01:05Z</time>
      </trkpt>
      <trkpt lat="42.87108" lon="2.37292">
        <ele>804</ele>
        <time>2023-09-09T11:01:06Z</time>
      </trkpt>
      <trkpt lat="42.87109" lon="2.37293">
        <ele>804</ele>
        <time>2023-09-09T11:01:07Z</time>
      </trkpt>
      <trkpt lat="42.8711" lon="2.37294">
        <ele>804</ele>
        <time>2023-09-09T11:01:08Z</time>
      </trkpt>
      <trkpt lat="42.8711" lon="2.37295">
        <ele>805</ele>
        <time>2023-09-09T11:01:09Z</time>
      </trkpt>
      <trkpt lat="42.87111" lon="2.37296">
        <ele>805</ele>
        <time>2023-09-09T11:01:10Z</time>
      </trkpt>
      <trkpt lat="42.87112" lon="2.37297">
        <ele>805</ele>
        <time>2023-09-09T11:01:11Z</time>
      </trkpt>
      <trkpt lat="42.87113" lon="2.37298">
        <ele>805</ele>
        <time>2023-09-09T11:01:12Z</time>
      </trkpt>
      <trkpt lat="42.87114" lon="2.373">
        <ele>805</ele>
        <time>2023-09-09T11:01:13Z</time>
      </trkpt>
      <trkpt lat="42.87115" lon="2.37301">
        <ele>805</ele>
        <time>2023-09-09T11:01:14Z</time>
      </trkpt>
      <trkpt lat="42.87116" lon="2.37304">
        <ele>805</ele>
        <time>2023-09-09T11:01:15Z</time>
      </trkpt>
      <trkpt lat="42.87117" lon="2.37306">
        <ele>805</ele>
        <time>2023-09-09T11:01:16Z</time>
      </trkpt>
      <trkpt lat="42.87118" lon="2.37308">
        <ele>805</ele>
        <time>2023-09-09T11:01:17Z</time>
      </trkpt>
      <trkpt lat="42.87119" lon="2.37311">
        <ele>805</ele>
        <time>2023-09-09T11:01:18Z</time>
      </trkpt>
      <trkpt lat="42.8712" lon="2.37313">
        <ele>805</ele>
        <time>2023-09-09T11:01:19Z</time>
      </trkpt>
      <trkpt lat="42.8712" lon="2.37316">
        <ele>805</ele>
        <time>2023-09-09T11:01:20Z</time>
      </trkpt>
      <trkpt lat="42.87121" lon="2.37318">
        <ele>805</ele>
        <time>2023-09-09T11:01:21Z</time>
      </trkpt>
      <trkpt lat="42.87121" lon="2.3732">
        <ele>805</ele>
        <time>2023-09-09T11:01:22Z</time>
      </trkpt>
      <trkpt lat="42.87122" lon="2.37322">
        <ele>805</ele>
        <time>2023-09-09T11:01:23Z</time>
      </trkpt>
      <trkpt lat="42.87122" lon="2.37324">
        <ele>805</ele>
        <time>2023-09-09T11:01:24Z</time>
      </trkpt>
      <trkpt lat="42.87122" lon="2.37326">
        <ele>805</ele>
        <time>2023-09-09T11:01:25Z</time>
      </trkpt>
      <trkpt lat="42.87122" lon="2.37328">
        <ele>805</ele>
        <time>2023-09-09T11:01:26Z</time>
      </trkpt>
      <trkpt lat="42.87122" lon="2.3733">
        <ele>805</ele>
        <time>2023-09-09T11:01:27Z</time>
      </trkpt>
      <trkpt lat="42.87122" lon="2.37331">
        <ele>805</ele>
        <time>2023-09-09T11:01:28Z</time>
      </trkpt>
      <trkpt lat="42.87122" lon="2.37333">
        <ele>805</ele>
        <time>2023-09-09T11:01:29Z</time>
      </trkpt>
      <trkpt lat="42.87122" lon="2.37334">
        <ele>805</ele>
        <time>2023-09-09T11:01:30Z</time>
      </trkpt>
      <trkpt lat="42.87122" lon="2.37336">
        <ele>805</ele>
        <time>2023-09-09T11:01:31Z</time>
      </trkpt>
      <trkpt lat="42.87123" lon="2.37338">
        <ele>805</ele>
        <time>2023-09-09T11:01:32Z</time>
      </trkpt>
      <trkpt lat="42.87123" lon="2.3734">
        <ele>805</ele>
        <time>2023-09-09T11:01:33Z</time>
      </trkpt>
      <trkpt lat="42.87123" lon="2.37342">
        <ele>806</ele>
        <time>2023-09-09T11:01:34Z</time>
      </trkpt>
      <trkpt lat="42.87123" lon="2.37344">
        <ele>806</ele>
        <time>2023-09-09T11:01:35Z</time>
      </trkpt>
      <trkpt lat="42.87123" lon="2.37346">
        <ele>806</ele>
        <time>2023-09-09T11:01:36Z</time>
      </trkpt>
      <trkpt lat="42.87124" lon="2.37348">
        <ele>806</ele>
        <time>2023-09-09T11:01:37Z</time>
      </trkpt>
      <trkpt lat="42.87124" lon="2.37349">
        <ele>806</ele>
        <time>2023-09-09T11:01:38Z</time>
      </trkpt>
      <trkpt lat="42.87125" lon="2.37351">
        <ele>806</ele>
        <time>2023-09-09T11:01:39Z</time>
      </trkpt>
      <trkpt lat="42.87126" lon="2.37352">
        <ele>806</ele>
        <time>2023-09-09T11:01:40Z</time>
      </trkpt>
      <trkpt lat="42.87126" lon="2.37353">
        <ele>806</ele>
        <time>2023-09-09T11:01:41Z</time>
      </trkpt>
      <trkpt lat="42.87126" lon="2.37355">
        <ele>806</ele>
        <time>2023-09-09T11:01:42Z</time>
      </trkpt>
      <trkpt lat="42.87127" lon="2.37356">
        <ele>806</ele>
        <time>2023-09-09T11:01:43Z</time>
      </trkpt>
      <trkpt lat="42.87127" lon="2.37358">
        <ele>807</ele>
        <time>2023-09-09T11:01:44Z</time>
      </trkpt>
      <trkpt lat="42.87128" lon="2.37359">
        <ele>807</ele>
        <time>2023-09-09T11:01:45Z</time>
      </trkpt>
      <trkpt lat="42.87128" lon="2.3736">
        <ele>807</ele>
        <time>2023-09-09T11:01:46Z</time>
      </trkpt>
      <trkpt lat="42.87128" lon="2.37362">
        <ele>807</ele>
        <time>2023-09-09T11:01:47Z</time>
      </trkpt>
      <trkpt lat="42.87129" lon="2.37364">
        <ele>807</ele>
        <time>2023-09-09T11:01:48Z</time>
      </trkpt>
      <trkpt lat="42.8713" lon="2.37365">
        <ele>807</ele>
        <time>2023-09-09T11:01:49Z</time>
      </trkpt>
      <trkpt lat="42.8713" lon="2.37367">
        <ele>807</ele>
        <time>2023-09-09T11:01:50Z</time>
      </trkpt>
      <trkpt lat="42.87131" lon="2.37369">
        <ele>807</ele>
        <time>2023-09-09T11:01:51Z</time>
      </trkpt>
      <trkpt lat="42.87131" lon="2.3737">
        <ele>807</ele>
        <time>2023-09-09T11:01:52Z</time>
      </trkpt>
      <trkpt lat="42.87131" lon="2.37372">
        <ele>807</ele>
        <time>2023-09-09T11:01:53Z</time>
      </trkpt>
      <trkpt lat="42.87132" lon="2.37374">
        <ele>808</ele>
        <time>2023-09-09T11:01:54Z</time>
      </trkpt>
      <trkpt lat="42.87132" lon="2.37376">
        <ele>808</ele>
        <time>2023-09-09T11:01:55Z</time>
      </trkpt>
      <trkpt lat="42.87132" lon="2.37378">
        <ele>808</ele>
        <time>2023-09-09T11:01:56Z</time>
      </trkpt>
      <trkpt lat="42.87132" lon="2.37381">
        <ele>808</ele>
        <time>2023-09-09T11:01:57Z</time>
      </trkpt>
      <trkpt lat="42.87131" lon="2.37383">
        <ele>808</ele>
        <time>2023-09-09T11:01:58Z</time>
      </trkpt>
      <trkpt lat="42.87132" lon="2.37385">
        <ele>808</ele>
        <time>2023-09-09T11:01:59Z</time>
      </trkpt>
      <trkpt lat="42.87132" lon="2.37387">
        <ele>808</ele>
        <time>2023-09-09T11:02:00Z</time>
      </trkpt>
      <trkpt lat="42.87133" lon="2.37389">
        <ele>808</ele>
        <time>2023-09-09T11:02:01Z</time>
      </trkpt>
      <trkpt lat="42.87133" lon="2.37391">
        <ele>808</ele>
        <time>2023-09-09T11:02:02Z</time>
      </trkpt>
      <trkpt lat="42.87134" lon="2.37393">
        <ele>808</ele>
        <time>2023-09-09T11:02:03Z</time>
      </trkpt>
      <trkpt lat="42.87134" lon="2.37395">
        <ele>808</ele>
        <time>2023-09-09T11:02:04Z</time>
      </trkpt>
      <trkpt lat="42.87135" lon="2.37397">
        <ele>808</ele>
        <time>2023-09-09T11:02:05Z</time>
      </trkpt>
      <trkpt lat="42.87135" lon="2.37399">
        <ele>808</ele>
        <time>2023-09-09T11:02:06Z</time>
      </trkpt>
      <trkpt lat="42.87136" lon="2.37401">
        <ele>809</ele>
        <time>2023-09-09T11:02:07Z</time>
      </trkpt>
      <trkpt lat="42.87136" lon="2.37403">
        <ele>809</ele>
        <time>2023-09-09T11:02:08Z</time>
      </trkpt>
      <trkpt lat="42.87136" lon="2.37404">
        <ele>810</ele>
        <time>2023-09-09T11:02:09Z</time>
      </trkpt>
      <trkpt lat="42.87136" lon="2.37406">
        <ele>810</ele>
        <time>2023-09-09T11:02:10Z</time>
      </trkpt>
      <trkpt lat="42.87137" lon="2.37408">
        <ele>810</ele>
        <time>2023-09-09T11:02:11Z</time>
      </trkpt>
      <trkpt lat="42.87137" lon="2.37409">
        <ele>810</ele>
        <time>2023-09-09T11:02:12Z</time>
      </trkpt>
      <trkpt lat="42.87137" lon="2.37411">
        <ele>810</ele>
        <time>2023-09-09T11:02:13Z</time>
      </trkpt>
      <trkpt lat="42.87137" lon="2.37413">
        <ele>811</ele>
        <time>2023-09-09T11:02:14Z</time>
      </trkpt>
      <trkpt lat="42.87137" lon="2.37415">
        <ele>811</ele>
        <time>2023-09-09T11:02:15Z</time>
      </trkpt>
      <trkpt lat="42.87137" lon="2.37417">
        <ele>811</ele>
        <time>2023-09-09T11:02:16Z</time>
      </trkpt>
      <trkpt lat="42.87138" lon="2.3742">
        <ele>811</ele>
        <time>2023-09-09T11:02:17Z</time>
      </trkpt>
      <trkpt lat="42.87138" lon="2.37422">
        <ele>811</ele>
        <time>2023-09-09T11:02:18Z</time>
      </trkpt>
      <trkpt lat="42.87138" lon="2.37425">
        <ele>811</ele>
        <time>2023-09-09T11:02:19Z</time>
      </trkpt>
      <trkpt lat="42.87139" lon="2.37428">
        <ele>811</ele>
        <time>2023-09-09T11:02:20Z</time>
      </trkpt>
      <trkpt lat="42.87139" lon="2.37431">
        <ele>811</ele>
        <time>2023-09-09T11:02:21Z</time>
      </trkpt>
      <trkpt lat="42.87139" lon="2.37434">
        <ele>811</ele>
        <time>2023-09-09T11:02:22Z</time>
      </trkpt>
      <trkpt lat="42.87139" lon="2.37436">
        <ele>811</ele>
        <time>2023-09-09T11:02:23Z</time>
      </trkpt>
      <trkpt lat="42.87139" lon="2.37439">
        <ele>812</ele>
        <time>2023-09-09T11:02:24Z</time>
      </trkpt>
      <trkpt lat="42.8714" lon="2.37441">
        <ele>812</ele>
        <time>2023-09-09T11:02:25Z</time>
      </trkpt>
      <trkpt lat="42.8714" lon="2.37444">
        <ele>812</ele>
        <time>2023-09-09T11:02:26Z</time>
      </trkpt>
      <trkpt lat="42.87141" lon="2.37446">
        <ele>812</ele>
        <time>2023-09-09T11:02:27Z</time>
      </trkpt>
      <trkpt lat="42.87141" lon="2.37448">
        <ele>812</ele>
        <time>2023-09-09T11:02:28Z</time>
      </trkpt>
      <trkpt lat="42.87141" lon="2.3745">
        <ele>812</ele>
        <time>2023-09-09T11:02:29Z</time>
      </trkpt>
      <trkpt lat="42.87142" lon="2.37452">
        <ele>812</ele>
        <time>2023-09-09T11:02:30Z</time>
      </trkpt>
      <trkpt lat="42.87143" lon="2.37454">
        <ele>812</ele>
        <time>2023-09-09T11:02:31Z</time>
      </trkpt>
      <trkpt lat="42.87143" lon="2.37456">
        <ele>812</ele>
        <time>2023-09-09T11:02:32Z</time>
      </trkpt>
      <trkpt lat="42.87143" lon="2.37459">
        <ele>812</ele>
        <time>2023-09-09T11:02:33Z</time>
      </trkpt>
      <trkpt lat="42.87144" lon="2.37461">
        <ele>813</ele>
        <time>2023-09-09T11:02:34Z</time>
      </trkpt>
      <trkpt lat="42.87144" lon="2.37463">
        <ele>813</ele>
        <time>2023-09-09T11:02:35Z</time>
      </trkpt>
      <trkpt lat="42.87144" lon="2.37466">
        <ele>813</ele>
        <time>2023-09-09T11:02:36Z</time>
      </trkpt>
      <trkpt lat="42.87145" lon="2.37468">
        <ele>813</ele>
        <time>2023-09-09T11:02:37Z</time>
      </trkpt>
      <trkpt lat="42.87145" lon="2.37471">
        <ele>813</ele>
        <time>2023-09-09T11:02:38Z</time>
      </trkpt>
      <trkpt lat="42.87146" lon="2.37473">
        <ele>813</ele>
        <time>2023-09-09T11:02:39Z</time>
      </trkpt>
      <trkpt lat="42.87147" lon="2.37475">
        <ele>813</ele>
        <time>2023-09-09T11:02:40Z</time>
      </trkpt>
      <trkpt lat="42.87147" lon="2.37478">
        <ele>813</ele>
        <time>2023-09-09T11:02:41Z</time>
      </trkpt>
      <trkpt lat="42.87148" lon="2.3748">
        <ele>813</ele>
        <time>2023-09-09T11:02:42Z</time>
      </trkpt>
      <trkpt lat="42.87148" lon="2.37483">
        <ele>813</ele>
        <time>2023-09-09T11:02:43Z</time>
      </trkpt>
      <trkpt lat="42.87149" lon="2.37485">
        <ele>814</ele>
        <time>2023-09-09T11:02:44Z</time>
      </trkpt>
      <trkpt lat="42.8715" lon="2.37487">
        <ele>814</ele>
        <time>2023-09-09T11:02:45Z</time>
      </trkpt>
      <trkpt lat="42.8715" lon="2.3749">
        <ele>814</ele>
        <time>2023-09-09T11:02:46Z</time>
      </trkpt>
      <trkpt lat="42.87151" lon="2.37492">
        <ele>814</ele>
        <time>2023-09-09T11:02:47Z</time>
      </trkpt>
      <trkpt lat="42.87152" lon="2.37494">
        <ele>814</ele>
        <time>2023-09-09T11:02:48Z</time>
      </trkpt>
      <trkpt lat="42.87153" lon="2.37497">
        <ele>814</ele>
        <time>2023-09-09T11:02:49Z</time>
      </trkpt>
      <trkpt lat="42.87153" lon="2.375">
        <ele>814</ele>
        <time>2023-09-09T11:02:50Z</time>
      </trkpt>
      <trkpt lat="42.87154" lon="2.37502">
        <ele>814</ele>
        <time>2023-09-09T11:02:51Z</time>
      </trkpt>
      <trkpt lat="42.87155" lon="2.37505">
        <ele>814</ele>
        <time>2023-09-09T11:02:52Z</time>
      </trkpt>
      <trkpt lat="42.87156" lon="2.37507">
        <ele>814</ele>
        <time>2023-09-09T11:02:53Z</time>
      </trkpt>
      <trkpt lat="42.87156" lon="2.3751">
        <ele>814</ele>
        <time>2023-09-09T11:02:54Z</time>
      </trkpt>
      <trkpt lat="42.87157" lon="2.37512">
        <ele>814</ele>
        <time>2023-09-09T11:02:55Z</time>
      </trkpt>
      <trkpt lat="42.87157" lon="2.37515">
        <ele>814</ele>
        <time>2023-09-09T11:02:56Z</time>
      </trkpt>
      <trkpt lat="42.87157" lon="2.37517">
        <ele>814</ele>
        <time>2023-09-09T11:02:57Z</time>
      </trkpt>
      <trkpt lat="42.87157" lon="2.3752">
        <ele>814</ele>
        <time>2023-09-09T11:02:58Z</time>
      </trkpt>
      <trkpt lat="42.87158" lon="2.37522">
        <ele>814</ele>
        <time>2023-09-09T11:02:59Z</time>
      </trkpt>
      <trkpt lat="42.87158" lon="2.37523">
        <ele>814</ele>
        <time>2023-09-09T11:03:00Z</time>
      </trkpt>
      <trkpt lat="42.87157" lon="2.37525">
        <ele>814</ele>
        <time>2023-09-09T11:03:01Z</time>
      </trkpt>
      <trkpt lat="42.87157" lon="2.37526">
        <ele>814</ele>
        <time>2023-09-09T11:03:02Z</time>
      </trkpt>
      <trkpt lat="42.87157" lon="2.37527">
        <ele>814</ele>
        <time>2023-09-09T11:03:03Z</time>
      </trkpt>
      <trkpt lat="42.87156" lon="2.37529">
        <ele>814</ele>
        <time>2023-09-09T11:03:04Z</time>
      </trkpt>
      <trkpt lat="42.87155" lon="2.3753">
        <ele>814</ele>
        <time>2023-09-09T11:03:05Z</time>
      </trkpt>
      <trkpt lat="42.87155" lon="2.37532">
        <ele>814</ele>
        <time>2023-09-09T11:03:06Z</time>
      </trkpt>
      <trkpt lat="42.87155" lon="2.37533">
        <ele>814</ele>
        <time>2023-09-09T11:03:07Z</time>
      </trkpt>
      <trkpt lat="42.87155" lon="2.37535">
        <ele>814</ele>
        <time>2023-09-09T11:03:08Z</time>
      </trkpt>
      <trkpt lat="42.87155" lon="2.37536">
        <ele>814</ele>
        <time>2023-09-09T11:03:09Z</time>
      </trkpt>
      <trkpt lat="42.87155" lon="2.37538">
        <ele>814</ele>
        <time>2023-09-09T11:03:10Z</time>
      </trkpt>
      <trkpt lat="42.87155" lon="2.3754">
        <ele>814</ele>
        <time>2023-09-09T11:03:11Z</time>
      </trkpt>
      <trkpt lat="42.87154" lon="2.37541">
        <ele>814</ele>
        <time>2023-09-09T11:03:12Z</time>
      </trkpt>
      <trkpt lat="42.87154" lon="2.37543">
        <ele>814</ele>
        <time>2023-09-09T11:03:13Z</time>
      </trkpt>
      <trkpt lat="42.87154" lon="2.37544">
        <ele>815</ele>
        <time>2023-09-09T11:03:14Z</time>
      </trkpt>
      <trkpt lat="42.87155" lon="2.37546">
        <ele>815</ele>
        <time>2023-09-09T11:03:15Z</time>
      </trkpt>
      <trkpt lat="42.87155" lon="2.37548">
        <ele>815</ele>
        <time>2023-09-09T11:03:16Z</time>
      </trkpt>
      <trkpt lat="42.87156" lon="2.3755">
        <ele>815</ele>
        <time>2023-09-09T11:03:17Z</time>
      </trkpt>
      <trkpt lat="42.87156" lon="2.37552">
        <ele>815</ele>
        <time>2023-09-09T11:03:18Z</time>
      </trkpt>
      <trkpt lat="42.87156" lon="2.37554">
        <ele>815</ele>
        <time>2023-09-09T11:03:19Z</time>
      </trkpt>
      <trkpt lat="42.87157" lon="2.37556">
        <ele>815</ele>
        <time>2023-09-09T11:03:20Z</time>
      </trkpt>
      <trkpt lat="42.87156" lon="2.37558">
        <ele>815</ele>
        <time>2023-09-09T11:03:21Z</time>
      </trkpt>
      <trkpt lat="42.87156" lon="2.37559">
        <ele>815</ele>
        <time>2023-09-09T11:03:22Z</time>
      </trkpt>
      <trkpt lat="42.87156" lon="2.37561">
        <ele>815</ele>
        <time>2023-09-09T11:03:23Z</time>
      </trkpt>
      <trkpt lat="42.87156" lon="2.37562">
        <ele>816</ele>
        <time>2023-09-09T11:03:24Z</time>
      </trkpt>
      <trkpt lat="42.87155" lon="2.37564">
        <ele>816</ele>
        <time>2023-09-09T11:03:25Z</time>
      </trkpt>
      <trkpt lat="42.87155" lon="2.37565">
        <ele>816</ele>
        <time>2023-09-09T11:03:26Z</time>
      </trkpt>
      <trkpt lat="42.87154" lon="2.37566">
        <ele>816</ele>
        <time>2023-09-09T11:03:27Z</time>
      </trkpt>
      <trkpt lat="42.87154" lon="2.37567">
        <ele>816</ele>
        <time>2023-09-09T11:03:28Z</time>
      </trkpt>
      <trkpt lat="42.87153" lon="2.37568">
        <ele>816</ele>
        <time>2023-09-09T11:03:29Z</time>
      </trkpt>
      <trkpt lat="42.87152" lon="2.37569">
        <ele>816</ele>
        <time>2023-09-09T11:03:30Z</time>
      </trkpt>
      <trkpt lat="42.87152" lon="2.37571">
        <ele>816</ele>
        <time>2023-09-09T11:03:31Z</time>
      </trkpt>
      <trkpt lat="42.87152" lon="2.37573">
        <ele>816</ele>
        <time>2023-09-09T11:03:32Z</time>
      </trkpt>
      <trkpt lat="42.87152" lon="2.37575">
        <ele>816</ele>
        <time>2023-09-09T11:03:33Z</time>
      </trkpt>
      <trkpt lat="42.87152" lon="2.37576">
        <ele>817</ele>
        <time>2023-09-09T11:03:34Z</time>
      </trkpt>
      <trkpt lat="42.87152" lon="2.37579">
        <ele>817</ele>
        <time>2023-09-09T11:03:35Z</time>
      </trkpt>
      <trkpt lat="42.87153" lon="2.37581">
        <ele>817</ele>
        <time>2023-09-09T11:03:36Z</time>
      </trkpt>
      <trkpt lat="42.87153" lon="2.37583">
        <ele>817</ele>
        <time>2023-09-09T11:03:37Z</time>
      </trkpt>
      <trkpt lat="42.87153" lon="2.37585">
        <ele>817</ele>
        <time>2023-09-09T11:03:38Z</time>
      </trkpt>
      <trkpt lat="42.87153" lon="2.37587">
        <ele>818</ele>
        <time>2023-09-09T11:03:39Z</time>
      </trkpt>
      <trkpt lat="42.87153" lon="2.37588">
        <ele>818</ele>
        <time>2023-09-09T11:03:40Z</time>
      </trkpt>
      <trkpt lat="42.87153" lon="2.3759">
        <ele>818</ele>
        <time>2023-09-09T11:03:41Z</time>
      </trkpt>
      <trkpt lat="42.87153" lon="2.37592">
        <ele>818</ele>
        <time>2023-09-09T11:03:42Z</time>
      </trkpt>
      <trkpt lat="42.87153" lon="2.37593">
        <ele>818</ele>
        <time>2023-09-09T11:03:43Z</time>
      </trkpt>
      <trkpt lat="42.87153" lon="2.37595">
        <ele>819</ele>
        <time>2023-09-09T11:03:44Z</time>
      </trkpt>
      <trkpt lat="42.87153" lon="2.37596">
        <ele>819</ele>
        <time>2023-09-09T11:03:45Z</time>
      </trkpt>
      <trkpt lat="42.87152" lon="2.37598">
        <ele>819</ele>
        <time>2023-09-09T11:03:46Z</time>
      </trkpt>
      <trkpt lat="42.87152" lon="2.37599">
        <ele>819</ele>
        <time>2023-09-09T11:03:47Z</time>
      </trkpt>
      <trkpt lat="42.87152" lon="2.37601">
        <ele>819</ele>
        <time>2023-09-09T11:03:48Z</time>
      </trkpt>
      <trkpt lat="42.87152" lon="2.37602">
        <ele>820</ele>
        <time>2023-09-09T11:03:49Z</time>
      </trkpt>
      <trkpt lat="42.87152" lon="2.37604">
        <ele>820</ele>
        <time>2023-09-09T11:03:50Z</time>
      </trkpt>
      <trkpt lat="42.87152" lon="2.37606">
        <ele>820</ele>
        <time>2023-09-09T11:03:51Z</time>
      </trkpt>
      <trkpt lat="42.87152" lon="2.37607">
        <ele>820</ele>
        <time>2023-09-09T11:03:52Z</time>
      </trkpt>
      <trkpt lat="42.87152" lon="2.37609">
        <ele>820</ele>
        <time>2023-09-09T11:03:53Z</time>
      </trkpt>
      <trkpt lat="42.87152" lon="2.3761">
        <ele>820</ele>
        <time>2023-09-09T11:03:54Z</time>
      </trkpt>
      <trkpt lat="42.87153" lon="2.37612">
        <ele>820</ele>
        <time>2023-09-09T11:03:55Z</time>
      </trkpt>
      <trkpt lat="42.87153" lon="2.37613">
        <ele>820</ele>
        <time>2023-09-09T11:03:56Z</time>
      </trkpt>
      <trkpt lat="42.87154" lon="2.37615">
        <ele>820</ele>
        <time>2023-09-09T11:03:57Z</time>
      </trkpt>
      <trkpt lat="42.87154" lon="2.37617">
        <ele>820</ele>
        <time>2023-09-09T11:03:58Z</time>
      </trkpt>
      <trkpt lat="42.87154" lon="2.37618">
        <ele>821</ele>
        <time>2023-09-09T11:03:59Z</time>
      </trkpt>
      <trkpt lat="42.87154" lon="2.3762">
        <ele>821</ele>
        <time>2023-09-09T11:04:00Z</time>
      </trkpt>
      <trkpt lat="42.87155" lon="2.37622">
        <ele>821</ele>
        <time>2023-09-09T11:04:01Z</time>
      </trkpt>
      <trkpt lat="42.87155" lon="2.37623">
        <ele>821</ele>
        <time>2023-09-09T11:04:02Z</time>
      </trkpt>
      <trkpt lat="42.87155" lon="2.37625">
        <ele>821</ele>
        <time>2023-09-09T11:04:03Z</time>
      </trkpt>
      <trkpt lat="42.87156" lon="2.37627">
        <ele>822</ele>
        <time>2023-09-09T11:04:04Z</time>
      </trkpt>
      <trkpt lat="42.87157" lon="2.3763">
        <ele>822</ele>
        <time>2023-09-09T11:04:05Z</time>
      </trkpt>
      <trkpt lat="42.87157" lon="2.37632">
        <ele>822</ele>
        <time>2023-09-09T11:04:06Z</time>
      </trkpt>
      <trkpt lat="42.87158" lon="2.37634">
        <ele>822</ele>
        <time>2023-09-09T11:04:07Z</time>
      </trkpt>
      <trkpt lat="42.87159" lon="2.37637">
        <ele>822</ele>
        <time>2023-09-09T11:04:08Z</time>
      </trkpt>
      <trkpt lat="42.87159" lon="2.37639">
        <ele>823</ele>
        <time>2023-09-09T11:04:09Z</time>
      </trkpt>
      <trkpt lat="42.8716" lon="2.37641">
        <ele>823</ele>
        <time>2023-09-09T11:04:10Z</time>
      </trkpt>
      <trkpt lat="42.87161" lon="2.37643">
        <ele>823</ele>
        <time>2023-09-09T11:04:11Z</time>
      </trkpt>
      <trkpt lat="42.87162" lon="2.37645">
        <ele>823</ele>
        <time>2023-09-09T11:04:12Z</time>
      </trkpt>
      <trkpt lat="42.87163" lon="2.37647">
        <ele>823</ele>
        <time>2023-09-09T11:04:13Z</time>
      </trkpt>
      <trkpt lat="42.87164" lon="2.3765">
        <ele>824</ele>
        <time>2023-09-09T11:04:14Z</time>
      </trkpt>
      <trkpt lat="42.87164" lon="2.37652">
        <ele>824</ele>
        <time>2023-09-09T11:04:15Z</time>
      </trkpt>
      <trkpt lat="42.87165" lon="2.37655">
        <ele>824</ele>
        <time>2023-09-09T11:04:16Z</time>
      </trkpt>
      <trkpt lat="42.87165" lon="2.37658">
        <ele>824</ele>
        <time>2023-09-09T11:04:17Z</time>
      </trkpt>
      <trkpt lat="42.87166" lon="2.37661">
        <ele>824</ele>
        <time>2023-09-09T11:04:18Z</time>
      </trkpt>
      <trkpt lat="42.87166" lon="2.37663">
        <ele>825</ele>
        <time>2023-09-09T11:04:19Z</time>
      </trkpt>
      <trkpt lat="42.87166" lon="2.37666">
        <ele>825</ele>
        <time>2023-09-09T11:04:20Z</time>
      </trkpt>
      <trkpt lat="42.87166" lon="2.37669">
        <ele>825</ele>
        <time>2023-09-09T11:04:21Z</time>
      </trkpt>
      <trkpt lat="42.87166" lon="2.37672">
        <ele>825</ele>
        <time>2023-09-09T11:04:22Z</time>
      </trkpt>
      <trkpt lat="42.87166" lon="2.37674">
        <ele>825</ele>
        <time>2023-09-09T11:04:23Z</time>
      </trkpt>
      <trkpt lat="42.87166" lon="2.37676">
        <ele>825</ele>
        <time>2023-09-09T11:04:24Z</time>
      </trkpt>
      <trkpt lat="42.87166" lon="2.37678">
        <ele>825</ele>
        <time>2023-09-09T11:04:25Z</time>
      </trkpt>
      <trkpt lat="42.87166" lon="2.3768">
        <ele>825</ele>
        <time>2023-09-09T11:04:26Z</time>
      </trkpt>
      <trkpt lat="42.87166" lon="2.37682">
        <ele>825</ele>
        <time>2023-09-09T11:04:27Z</time>
      </trkpt>
      <trkpt lat="42.87166" lon="2.37683">
        <ele>825</ele>
        <time>2023-09-09T11:04:28Z</time>
      </trkpt>
      <trkpt lat="42.87166" lon="2.37684">
        <ele>826</ele>
        <time>2023-09-09T11:04:29Z</time>
      </trkpt>
      <trkpt lat="42.87167" lon="2.37685">
        <ele>826</ele>
        <time>2023-09-09T11:04:30Z</time>
      </trkpt>
      <trkpt lat="42.87168" lon="2.37687">
        <ele>826</ele>
        <time>2023-09-09T11:04:31Z</time>
      </trkpt>
      <trkpt lat="42.87169" lon="2.37688">
        <ele>826</ele>
        <time>2023-09-09T11:04:32Z</time>
      </trkpt>
      <trkpt lat="42.8717" lon="2.37688">
        <ele>826</ele>
        <time>2023-09-09T11:04:33Z</time>
      </trkpt>
      <trkpt lat="42.87172" lon="2.37689">
        <ele>826</ele>
        <time>2023-09-09T11:04:34Z</time>
      </trkpt>
      <trkpt lat="42.87174" lon="2.37689">
        <ele>826</ele>
        <time>2023-09-09T11:04:35Z</time>
      </trkpt>
      <trkpt lat="42.87175" lon="2.37689">
        <ele>826</ele>
        <time>2023-09-09T11:04:36Z</time>
      </trkpt>
      <trkpt lat="42.87177" lon="2.37689">
        <ele>827</ele>
        <time>2023-09-09T11:04:37Z</time>
      </trkpt>
      <trkpt lat="42.87179" lon="2.37688">
        <ele>827</ele>
        <time>2023-09-09T11:04:38Z</time>
      </trkpt>
      <trkpt lat="42.87181" lon="2.37688">
        <ele>828</ele>
        <time>2023-09-09T11:04:39Z</time>
      </trkpt>
      <trkpt lat="42.87183" lon="2.37687">
        <ele>827</ele>
        <time>2023-09-09T11:04:40Z</time>
      </trkpt>
      <trkpt lat="42.87184" lon="2.37687">
        <ele>827</ele>
        <time>2023-09-09T11:04:41Z</time>
      </trkpt>
      <trkpt lat="42.87186" lon="2.37687">
        <ele>826</ele>
        <time>2023-09-09T11:04:42Z</time>
      </trkpt>
      <trkpt lat="42.87188" lon="2.37686">
        <ele>826</ele>
        <time>2023-09-09T11:04:43Z</time>
      </trkpt>
      <trkpt lat="42.87189" lon="2.37686">
        <ele>826</ele>
        <time>2023-09-09T11:04:44Z</time>
      </trkpt>
      <trkpt lat="42.87191" lon="2.37685">
        <ele>825</ele>
        <time>2023-09-09T11:04:45Z</time>
      </trkpt>
      <trkpt lat="42.87193" lon="2.37685">
        <ele>825</ele>
        <time>2023-09-09T11:04:46Z</time>
      </trkpt>
      <trkpt lat="42.87194" lon="2.37685">
        <ele>825</ele>
        <time>2023-09-09T11:04:47Z</time>
      </trkpt>
      <trkpt lat="42.87196" lon="2.37685">
        <ele>825</ele>
        <time>2023-09-09T11:04:48Z</time>
      </trkpt>
      <trkpt lat="42.87198" lon="2.37684">
        <ele>825</ele>
        <time>2023-09-09T11:04:49Z</time>
      </trkpt>
      <trkpt lat="42.87199" lon="2.37684">
        <ele>824</ele>
        <time>2023-09-09T11:04:50Z</time>
      </trkpt>
      <trkpt lat="42.87201" lon="2.37683">
        <ele>824</ele>
        <time>2023-09-09T11:04:51Z</time>
      </trkpt>
      <trkpt lat="42.87202" lon="2.37682">
        <ele>823</ele>
        <time>2023-09-09T11:04:52Z</time>
      </trkpt>
      <trkpt lat="42.87204" lon="2.37681">
        <ele>823</ele>
        <time>2023-09-09T11:04:53Z</time>
      </trkpt>
      <trkpt lat="42.87206" lon="2.3768">
        <ele>823</ele>
        <time>2023-09-09T11:04:54Z</time>
      </trkpt>
      <trkpt lat="42.87208" lon="2.37678">
        <ele>822</ele>
        <time>2023-09-09T11:04:55Z</time>
      </trkpt>
      <trkpt lat="42.87209" lon="2.37676">
        <ele>822</ele>
        <time>2023-09-09T11:04:56Z</time>
      </trkpt>
      <trkpt lat="42.87211" lon="2.37674">
        <ele>822</ele>
        <time>2023-09-09T11:04:57Z</time>
      </trkpt>
      <trkpt lat="42.87213" lon="2.37672">
        <ele>822</ele>
        <time>2023-09-09T11:04:58Z</time>
      </trkpt>
      <trkpt lat="42.87214" lon="2.37671">
        <ele>822</ele>
        <time>2023-09-09T11:04:59Z</time>
      </trkpt>
      <trkpt lat="42.87216" lon="2.37669">
        <ele>821</ele>
        <time>2023-09-09T11:05:00Z</time>
      </trkpt>
      <trkpt lat="42.87217" lon="2.37667">
        <ele>821</ele>
        <time>2023-09-09T11:05:01Z</time>
      </trkpt>
      <trkpt lat="42.87219" lon="2.37665">
        <ele>820</ele>
        <time>2023-09-09T11:05:02Z</time>
      </trkpt>
      <trkpt lat="42.87221" lon="2.37664">
        <ele>820</ele>
        <time>2023-09-09T11:05:03Z</time>
      </trkpt>
      <trkpt lat="42.87222" lon="2.37663">
        <ele>820</ele>
        <time>2023-09-09T11:05:04Z</time>
      </trkpt>
      <trkpt lat="42.87224" lon="2.37663">
        <ele>819</ele>
        <time>2023-09-09T11:05:05Z</time>
      </trkpt>
      <trkpt lat="42.87226" lon="2.37662">
        <ele>819</ele>
        <time>2023-09-09T11:05:06Z</time>
      </trkpt>
      <trkpt lat="42.87228" lon="2.37662">
        <ele>818</ele>
        <time>2023-09-09T11:05:07Z</time>
      </trkpt>
      <trkpt lat="42.8723" lon="2.37662">
        <ele>818</ele>
        <time>2023-09-09T11:05:08Z</time>
      </trkpt>
      <trkpt lat="42.87231" lon="2.37662">
        <ele>818</ele>
        <time>2023-09-09T11:05:09Z</time>
      </trkpt>
      <trkpt lat="42.87233" lon="2.37661">
        <ele>817</ele>
        <time>2023-09-09T11:05:10Z</time>
      </trkpt>
      <trkpt lat="42.87235" lon="2.37662">
        <ele>817</ele>
        <time>2023-09-09T11:05:11Z</time>
      </trkpt>
      <trkpt lat="42.87236" lon="2.37662">
        <ele>816</ele>
        <time>2023-09-09T11:05:12Z</time>
      </trkpt>
      <trkpt lat="42.87237" lon="2.37663">
        <ele>816</ele>
        <time>2023-09-09T11:05:13Z</time>
      </trkpt>
      <trkpt lat="42.87239" lon="2.37663">
        <ele>816</ele>
        <time>2023-09-09T11:05:14Z</time>
      </trkpt>
      <trkpt lat="42.8724" lon="2.37664">
        <ele>815</ele>
        <time>2023-09-09T11:05:15Z</time>
      </trkpt>
      <trkpt lat="42.87241" lon="2.37665">
        <ele>815</ele>
        <time>2023-09-09T11:05:16Z</time>
      </trkpt>
      <trkpt lat="42.87242" lon="2.37666">
        <ele>814</ele>
        <time>2023-09-09T11:05:17Z</time>
      </trkpt>
      <trkpt lat="42.87243" lon="2.37667">
        <ele>814</ele>
        <time>2023-09-09T11:05:18Z</time>
      </trkpt>
      <trkpt lat="42.87243" lon="2.37668">
        <ele>814</ele>
        <time>2023-09-09T11:05:19Z</time>
      </trkpt>
      <trkpt lat="42.87244" lon="2.37669">
        <ele>813</ele>
        <time>2023-09-09T11:05:20Z</time>
      </trkpt>
      <trkpt lat="42.87244" lon="2.37671">
        <ele>813</ele>
        <time>2023-09-09T11:05:21Z</time>
      </trkpt>
      <trkpt lat="42.87244" lon="2.37673">
        <ele>812</ele>
        <time>2023-09-09T11:05:22Z</time>
      </trkpt>
      <trkpt lat="42.87244" lon="2.37675">
        <ele>812</ele>
        <time>2023-09-09T11:05:23Z</time>
      </trkpt>
      <trkpt lat="42.87243" lon="2.37678">
        <ele>812</ele>
        <time>2023-09-09T11:05:24Z</time>
      </trkpt>
      <trkpt lat="42.87242" lon="2.37681">
        <ele>811</ele>
        <time>2023-09-09T11:05:25Z</time>
      </trkpt>
      <trkpt lat="42.87241" lon="2.37684">
        <ele>811</ele>
        <time>2023-09-09T11:05:26Z</time>
      </trkpt>
      <trkpt lat="42.8724" lon="2.37687">
        <ele>810</ele>
        <time>2023-09-09T11:05:27Z</time>
      </trkpt>
      <trkpt lat="42.87238" lon="2.3769">
        <ele>810</ele>
        <time>2023-09-09T11:05:28Z</time>
      </trkpt>
      <trkpt lat="42.87237" lon="2.37692">
        <ele>810</ele>
        <time>2023-09-09T11:05:29Z</time>
      </trkpt>
      <trkpt lat="42.87236" lon="2.37695">
        <ele>809</ele>
        <time>2023-09-09T11:05:30Z</time>
      </trkpt>
      <trkpt lat="42.87235" lon="2.37698">
        <ele>809</ele>
        <time>2023-09-09T11:05:31Z</time>
      </trkpt>
      <trkpt lat="42.87235" lon="2.37701">
        <ele>808</ele>
        <time>2023-09-09T11:05:32Z</time>
      </trkpt>
      <trkpt lat="42.87234" lon="2.37704">
        <ele>808</ele>
        <time>2023-09-09T11:05:33Z</time>
      </trkpt>
      <trkpt lat="42.87233" lon="2.37707">
        <ele>808</ele>
        <time>2023-09-09T11:05:34Z</time>
      </trkpt>
      <trkpt lat="42.87233" lon="2.3771">
        <ele>807</ele>
        <time>2023-09-09T11:05:35Z</time>
      </trkpt>
      <trkpt lat="42.87232" lon="2.37712">
        <ele>807</ele>
        <time>2023-09-09T11:05:36Z</time>
      </trkpt>
      <trkpt lat="42.87232" lon="2.37715">
        <ele>806</ele>
        <time>2023-09-09T11:05:37Z</time>
      </trkpt>
      <trkpt lat="42.87232" lon="2.37718">
        <ele>806</ele>
        <time>2023-09-09T11:05:38Z</time>
      </trkpt>
      <trkpt lat="42.87232" lon="2.3772">
        <ele>806</ele>
        <time>2023-09-09T11:05:39Z</time>
      </trkpt>
      <trkpt lat="42.87233" lon="2.37723">
        <ele>805</ele>
        <time>2023-09-09T11:05:40Z</time>
      </trkpt>
      <trkpt lat="42.87233" lon="2.37726">
        <ele>805</ele>
        <time>2023-09-09T11:05:41Z</time>
      </trkpt>
      <trkpt lat="42.87233" lon="2.37728">
        <ele>805</ele>
        <time>2023-09-09T11:05:42Z</time>
      </trkpt>
      <trkpt lat="42.87234" lon="2.37731">
        <ele>805</ele>
        <time>2023-09-09T11:05:43Z</time>
      </trkpt>
      <trkpt lat="42.87234" lon="2.37734">
        <ele>805</ele>
        <time>2023-09-09T11:05:44Z</time>
      </trkpt>
      <trkpt lat="42.87235" lon="2.37736">
        <ele>804</ele>
        <time>2023-09-09T11:05:45Z</time>
      </trkpt>
      <trkpt lat="42.87236" lon="2.37739">
        <ele>804</ele>
        <time>2023-09-09T11:05:46Z</time>
      </trkpt>
      <trkpt lat="42.87236" lon="2.37742">
        <ele>804</ele>
        <time>2023-09-09T11:05:47Z</time>
      </trkpt>
      <trkpt lat="42.87237" lon="2.37745">
        <ele>804</ele>
        <time>2023-09-09T11:05:48Z</time>
      </trkpt>
      <trkpt lat="42.87238" lon="2.37748">
        <ele>804</ele>
        <time>2023-09-09T11:05:49Z</time>
      </trkpt>
      <trkpt lat="42.87238" lon="2.37751">
        <ele>803</ele>
        <time>2023-09-09T11:05:50Z</time>
      </trkpt>
      <trkpt lat="42.87239" lon="2.37754">
        <ele>803</ele>
        <time>2023-09-09T11:05:51Z</time>
      </trkpt>
      <trkpt lat="42.87239" lon="2.37757">
        <ele>803</ele>
        <time>2023-09-09T11:05:52Z</time>
      </trkpt>
      <trkpt lat="42.8724" lon="2.3776">
        <ele>803</ele>
        <time>2023-09-09T11:05:53Z</time>
      </trkpt>
      <trkpt lat="42.8724" lon="2.37763">
        <ele>803</ele>
        <time>2023-09-09T11:05:54Z</time>
      </trkpt>
      <trkpt lat="42.87241" lon="2.37766">
        <ele>803</ele>
        <time>2023-09-09T11:05:55Z</time>
      </trkpt>
      <trkpt lat="42.87241" lon="2.37769">
        <ele>803</ele>
        <time>2023-09-09T11:05:56Z</time>
      </trkpt>
      <trkpt lat="42.87241" lon="2.37772">
        <ele>803</ele>
        <time>2023-09-09T11:05:57Z</time>
      </trkpt>
      <trkpt lat="42.87241" lon="2.37775">
        <ele>803</ele>
        <time>2023-09-09T11:05:58Z</time>
      </trkpt>
      <trkpt lat="42.87241" lon="2.37778">
        <ele>803</ele>
        <time>2023-09-09T11:05:59Z</time>
      </trkpt>
      <trkpt lat="42.87241" lon="2.37781">
        <ele>803</ele>
        <time>2023-09-09T11:06:00Z</time>
      </trkpt>
      <trkpt lat="42.87242" lon="2.37784">
        <ele>803</ele>
        <time>2023-09-09T11:06:01Z</time>
      </trkpt>
      <trkpt lat="42.87242" lon="2.37787">
        <ele>803</ele>
        <time>2023-09-09T11:06:02Z</time>
      </trkpt>
      <trkpt lat="42.87242" lon="2.3779">
        <ele>803</ele>
        <time>2023-09-09T11:06:03Z</time>
      </trkpt>
      <trkpt lat="42.87242" lon="2.37793">
        <ele>803</ele>
        <time>2023-09-09T11:06:04Z</time>
      </trkpt>
      <trkpt lat="42.87243" lon="2.37795">
        <ele>803</ele>
        <time>2023-09-09T11:06:05Z</time>
      </trkpt>
      <trkpt lat="42.87244" lon="2.37798">
        <ele>803</ele>
        <time>2023-09-09T11:06:06Z</time>
      </trkpt>
      <trkpt lat="42.87245" lon="2.37801">
        <ele>803</ele>
        <time>2023-09-09T11:06:07Z</time>
      </trkpt>
      <trkpt lat="42.87245" lon="2.37804">
        <ele>803</ele>
        <time>2023-09-09T11:06:08Z</time>
      </trkpt>
      <trkpt lat="42.87246" lon="2.37807">
        <ele>803</ele>
        <time>2023-09-09T11:06:09Z</time>
      </trkpt>
      <trkpt lat="42.87247" lon="2.37809">
        <ele>803</ele>
        <time>2023-09-09T11:06:10Z</time>
      </trkpt>
      <trkpt lat="42.87248" lon="2.37812">
        <ele>803</ele>
        <time>2023-09-09T11:06:11Z</time>
      </trkpt>
      <trkpt lat="42.87249" lon="2.37815">
        <ele>803</ele>
        <time>2023-09-09T11:06:12Z</time>
      </trkpt>
      <trkpt lat="42.87249" lon="2.37818">
        <ele>803</ele>
        <time>2023-09-09T11:06:13Z</time>
      </trkpt>
      <trkpt lat="42.8725" lon="2.37821">
        <ele>803</ele>
        <time>2023-09-09T11:06:14Z</time>
      </trkpt>
      <trkpt lat="42.87251" lon="2.37824">
        <ele>803</ele>
        <time>2023-09-09T11:06:15Z</time>
      </trkpt>
      <trkpt lat="42.87252" lon="2.37827">
        <ele>803</ele>
        <time>2023-09-09T11:06:16Z</time>
      </trkpt>
      <trkpt lat="42.87253" lon="2.3783">
        <ele>803</ele>
        <time>2023-09-09T11:06:17Z</time>
      </trkpt>
      <trkpt lat="42.87254" lon="2.37833">
        <ele>803</ele>
        <time>2023-09-09T11:06:18Z</time>
      </trkpt>
      <trkpt lat="42.87255" lon="2.37836">
        <ele>803</ele>
        <time>2023-09-09T11:06:19Z</time>
      </trkpt>
      <trkpt lat="42.87256" lon="2.37839">
        <ele>803</ele>
        <time>2023-09-09T11:06:20Z</time>
      </trkpt>
      <trkpt lat="42.87257" lon="2.37842">
        <ele>803</ele>
        <time>2023-09-09T11:06:21Z</time>
      </trkpt>
      <trkpt lat="42.87258" lon="2.37845">
        <ele>803</ele>
        <time>2023-09-09T11:06:22Z</time>
      </trkpt>
      <trkpt lat="42.87259" lon="2.37848">
        <ele>803</ele>
        <time>2023-09-09T11:06:23Z</time>
      </trkpt>
      <trkpt lat="42.87259" lon="2.37851">
        <ele>803</ele>
        <time>2023-09-09T11:06:24Z</time>
      </trkpt>
      <trkpt lat="42.8726" lon="2.37854">
        <ele>803</ele>
        <time>2023-09-09T11:06:25Z</time>
      </trkpt>
      <trkpt lat="42.8726" lon="2.37857">
        <ele>803</ele>
        <time>2023-09-09T11:06:26Z</time>
      </trkpt>
      <trkpt lat="42.87261" lon="2.3786">
        <ele>803</ele>
        <time>2023-09-09T11:06:27Z</time>
      </trkpt>
      <trkpt lat="42.87262" lon="2.37863">
        <ele>803</ele>
        <time>2023-09-09T11:06:28Z</time>
      </trkpt>
      <trkpt lat="42.87262" lon="2.37866">
        <ele>803</ele>
        <time>2023-09-09T11:06:29Z</time>
      </trkpt>
      <trkpt lat="42.87263" lon="2.37868">
        <ele>802</ele>
        <time>2023-09-09T11:06:30Z</time>
      </trkpt>
      <trkpt lat="42.87263" lon="2.37871">
        <ele>802</ele>
        <time>2023-09-09T11:06:31Z</time>
      </trkpt>
      <trkpt lat="42.87264" lon="2.37874">
        <ele>802</ele>
        <time>2023-09-09T11:06:32Z</time>
      </trkpt>
      <trkpt lat="42.87264" lon="2.37877">
        <ele>802</ele>
        <time>2023-09-09T11:06:33Z</time>
      </trkpt>
      <trkpt lat="42.87265" lon="2.3788">
        <ele>802</ele>
        <time>2023-09-09T11:06:34Z</time>
      </trkpt>
      <trkpt lat="42.87265" lon="2.37883">
        <ele>802</ele>
        <time>2023-09-09T11:06:35Z</time>
      </trkpt>
      <trkpt lat="42.87266" lon="2.37886">
        <ele>802</ele>
        <time>2023-09-09T11:06:36Z</time>
      </trkpt>
      <trkpt lat="42.87266" lon="2.37889">
        <ele>802</ele>
        <time>2023-09-09T11:06:37Z</time>
      </trkpt>
      <trkpt lat="42.87267" lon="2.37892">
        <ele>802</ele>
        <time>2023-09-09T11:06:38Z</time>
      </trkpt>
      <trkpt lat="42.87267" lon="2.37895">
        <ele>802</ele>
        <time>2023-09-09T11:06:39Z</time>
      </trkpt>
      <trkpt lat="42.87268" lon="2.37898">
        <ele>801</ele>
        <time>2023-09-09T11:06:40Z</time>
      </trkpt>
      <trkpt lat="42.87268" lon="2.37901">
        <ele>801</ele>
        <time>2023-09-09T11:06:41Z</time>
      </trkpt>
      <trkpt lat="42.87269" lon="2.37904">
        <ele>801</ele>
        <time>2023-09-09T11:06:42Z</time>
      </trkpt>
      <trkpt lat="42.87269" lon="2.37907">
        <ele>801</ele>
        <time>2023-09-09T11:06:43Z</time>
      </trkpt>
      <trkpt lat="42.8727" lon="2.3791">
        <ele>801</ele>
        <time>2023-09-09T11:06:44Z</time>
      </trkpt>
      <trkpt lat="42.87271" lon="2.37913">
        <ele>801</ele>
        <time>2023-09-09T11:06:45Z</time>
      </trkpt>
      <trkpt lat="42.87271" lon="2.37916">
        <ele>801</ele>
        <time>2023-09-09T11:06:46Z</time>
      </trkpt>
      <trkpt lat="42.87272" lon="2.37919">
        <ele>801</ele>
        <time>2023-09-09T11:06:47Z</time>
      </trkpt>
      <trkpt lat="42.87273" lon="2.37922">
        <ele>801</ele>
        <time>2023-09-09T11:06:48Z</time>
      </trkpt>
      <trkpt lat="42.87274" lon="2.37924">
        <ele>801</ele>
        <time>2023-09-09T11:06:49Z</time>
      </trkpt>
      <trkpt lat="42.87274" lon="2.37927">
        <ele>800</ele>
        <time>2023-09-09T11:06:50Z</time>
      </trkpt>
      <trkpt lat="42.87275" lon="2.37929">
        <ele>800</ele>
        <time>2023-09-09T11:06:51Z</time>
      </trkpt>
      <trkpt lat="42.87275" lon="2.37932">
        <ele>800</ele>
        <time>2023-09-09T11:06:52Z</time>
      </trkpt>
      <trkpt lat="42.87276" lon="2.37934">
        <ele>800</ele>
        <time>2023-09-09T11:06:53Z</time>
      </trkpt>
      <trkpt lat="42.87276" lon="2.37937">
        <ele>800</ele>
        <time>2023-09-09T11:06:54Z</time>
      </trkpt>
      <trkpt lat="42.87276" lon="2.3794">
        <ele>800</ele>
        <time>2023-09-09T11:06:55Z</time>
      </trkpt>
      <trkpt lat="42.87276" lon="2.37943">
        <ele>800</ele>
        <time>2023-09-09T11:06:56Z</time>
      </trkpt>
      <trkpt lat="42.87276" lon="2.37945">
        <ele>800</ele>
        <time>2023-09-09T11:06:57Z</time>
      </trkpt>
      <trkpt lat="42.87276" lon="2.37948">
        <ele>800</ele>
        <time>2023-09-09T11:06:58Z</time>
      </trkpt>
      <trkpt lat="42.87277" lon="2.3795">
        <ele>800</ele>
        <time>2023-09-09T11:06:59Z</time>
      </trkpt>
      <trkpt lat="42.87277" lon="2.37953">
        <ele>800</ele>
        <time>2023-09-09T11:07:00Z</time>
      </trkpt>
      <trkpt lat="42.87277" lon="2.37956">
        <ele>800</ele>
        <time>2023-09-09T11:07:01Z</time>
      </trkpt>
      <trkpt lat="42.87278" lon="2.37958">
        <ele>800</ele>
        <time>2023-09-09T11:07:02Z</time>
      </trkpt>
      <trkpt lat="42.87279" lon="2.37961">
        <ele>800</ele>
        <time>2023-09-09T11:07:03Z</time>
      </trkpt>
      <trkpt lat="42.8728" lon="2.37964">
        <ele>800</ele>
        <time>2023-09-09T11:07:04Z</time>
      </trkpt>
      <trkpt lat="42.87281" lon="2.37966">
        <ele>799</ele>
        <time>2023-09-09T11:07:05Z</time>
      </trkpt>
      <trkpt lat="42.87282" lon="2.37968">
        <ele>799</ele>
        <time>2023-09-09T11:07:06Z</time>
      </trkpt>
      <trkpt lat="42.87282" lon="2.37971">
        <ele>799</ele>
        <time>2023-09-09T11:07:07Z</time>
      </trkpt>
      <trkpt lat="42.87283" lon="2.37974">
        <ele>799</ele>
        <time>2023-09-09T11:07:08Z</time>
      </trkpt>
      <trkpt lat="42.87284" lon="2.37976">
        <ele>799</ele>
        <time>2023-09-09T11:07:09Z</time>
      </trkpt>
      <trkpt lat="42.87285" lon="2.37979">
        <ele>799</ele>
        <time>2023-09-09T11:07:10Z</time>
      </trkpt>
      <trkpt lat="42.87285" lon="2.37981">
        <ele>799</ele>
        <time>2023-09-09T11:07:11Z</time>
      </trkpt>
      <trkpt lat="42.87286" lon="2.37984">
        <ele>799</ele>
        <time>2023-09-09T11:07:12Z</time>
      </trkpt>
      <trkpt lat="42.87287" lon="2.37987">
        <ele>799</ele>
        <time>2023-09-09T11:07:13Z</time>
      </trkpt>
      <trkpt lat="42.87287" lon="2.37989">
        <ele>799</ele>
        <time>2023-09-09T11:07:14Z</time>
      </trkpt>
      <trkpt lat="42.87288" lon="2.37992">
        <ele>798</ele>
        <time>2023-09-09T11:07:15Z</time>
      </trkpt>
      <trkpt lat="42.87288" lon="2.37995">
        <ele>798</ele>
        <time>2023-09-09T11:07:16Z</time>
      </trkpt>
      <trkpt lat="42.87289" lon="2.37997">
        <ele>798</ele>
        <time>2023-09-09T11:07:17Z</time>
      </trkpt>
      <trkpt lat="42.87289" lon="2.38">
        <ele>798</ele>
        <time>2023-09-09T11:07:18Z</time>
      </trkpt>
      <trkpt lat="42.8729" lon="2.38003">
        <ele>798</ele>
        <time>2023-09-09T11:07:19Z</time>
      </trkpt>
      <trkpt lat="42.8729" lon="2.38005">
        <ele>798</ele>
        <time>2023-09-09T11:07:20Z</time>
      </trkpt>
      <trkpt lat="42.87291" lon="2.38008">
        <ele>798</ele>
        <time>2023-09-09T11:07:21Z</time>
      </trkpt>
      <trkpt lat="42.87291" lon="2.38011">
        <ele>798</ele>
        <time>2023-09-09T11:07:22Z</time>
      </trkpt>
      <trkpt lat="42.87291" lon="2.38013">
        <ele>798</ele>
        <time>2023-09-09T11:07:23Z</time>
      </trkpt>
      <trkpt lat="42.87292" lon="2.38016">
        <ele>798</ele>
        <time>2023-09-09T11:07:24Z</time>
      </trkpt>
      <trkpt lat="42.87292" lon="2.38018">
        <ele>797</ele>
        <time>2023-09-09T11:07:25Z</time>
      </trkpt>
      <trkpt lat="42.87292" lon="2.38021">
        <ele>797</ele>
        <time>2023-09-09T11:07:26Z</time>
      </trkpt>
      <trkpt lat="42.87292" lon="2.38024">
        <ele>797</ele>
        <time>2023-09-09T11:07:27Z</time>
      </trkpt>
      <trkpt lat="42.87292" lon="2.38026">
        <ele>797</ele>
        <time>2023-09-09T11:07:28Z</time>
      </trkpt>
      <trkpt lat="42.87292" lon="2.38029">
        <ele>797</ele>
        <time>2023-09-09T11:07:29Z</time>
      </trkpt>
      <trkpt lat="42.87292" lon="2.38032">
        <ele>796</ele>
        <time>2023-09-09T11:07:30Z</time>
      </trkpt>
      <trkpt lat="42.87292" lon="2.38034">
        <ele>796</ele>
        <time>2023-09-09T11:07:31Z</time>
      </trkpt>
      <trkpt lat="42.87291" lon="2.38037">
        <ele>796</ele>
        <time>2023-09-09T11:07:32Z</time>
      </trkpt>
      <trkpt lat="42.87292" lon="2.3804">
        <ele>796</ele>
        <time>2023-09-09T11:07:33Z</time>
      </trkpt>
      <trkpt lat="42.87292" lon="2.38044">
        <ele>796</ele>
        <time>2023-09-09T11:07:34Z</time>
      </trkpt>
      <trkpt lat="42.87292" lon="2.38047">
        <ele>795</ele>
        <time>2023-09-09T11:07:35Z</time>
      </trkpt>
      <trkpt lat="42.87293" lon="2.38051">
        <ele>795</ele>
        <time>2023-09-09T11:07:36Z</time>
      </trkpt>
      <trkpt lat="42.87293" lon="2.38054">
        <ele>795</ele>
        <time>2023-09-09T11:07:37Z</time>
      </trkpt>
      <trkpt lat="42.87294" lon="2.38058">
        <ele>795</ele>
        <time>2023-09-09T11:07:38Z</time>
      </trkpt>
      <trkpt lat="42.87294" lon="2.38061">
        <ele>795</ele>
        <time>2023-09-09T11:07:39Z</time>
      </trkpt>
      <trkpt lat="42.87294" lon="2.38064">
        <ele>794</ele>
        <time>2023-09-09T11:07:40Z</time>
      </trkpt>
      <trkpt lat="42.87294" lon="2.38067">
        <ele>794</ele>
        <time>2023-09-09T11:07:41Z</time>
      </trkpt>
      <trkpt lat="42.87293" lon="2.3807">
        <ele>794</ele>
        <time>2023-09-09T11:07:42Z</time>
      </trkpt>
      <trkpt lat="42.87293" lon="2.38073">
        <ele>794</ele>
        <time>2023-09-09T11:07:43Z</time>
      </trkpt>
      <trkpt lat="42.87292" lon="2.38076">
        <ele>794</ele>
        <time>2023-09-09T11:07:44Z</time>
      </trkpt>
      <trkpt lat="42.87292" lon="2.38079">
        <ele>793</ele>
        <time>2023-09-09T11:07:45Z</time>
      </trkpt>
      <trkpt lat="42.87292" lon="2.38082">
        <ele>793</ele>
        <time>2023-09-09T11:07:46Z</time>
      </trkpt>
      <trkpt lat="42.87292" lon="2.38085">
        <ele>793</ele>
        <time>2023-09-09T11:07:47Z</time>
      </trkpt>
      <trkpt lat="42.87292" lon="2.38088">
        <ele>793</ele>
        <time>2023-09-09T11:07:48Z</time>
      </trkpt>
      <trkpt lat="42.87291" lon="2.38091">
        <ele>793</ele>
        <time>2023-09-09T11:07:49Z</time>
      </trkpt>
      <trkpt lat="42.87291" lon="2.38093">
        <ele>793</ele>
        <time>2023-09-09T11:07:50Z</time>
      </trkpt>
      <trkpt lat="42.87291" lon="2.38095">
        <ele>793</ele>
        <time>2023-09-09T11:07:51Z</time>
      </trkpt>
      <trkpt lat="42.87291" lon="2.38098">
        <ele>793</ele>
        <time>2023-09-09T11:07:52Z</time>
      </trkpt>
      <trkpt lat="42.87291" lon="2.381">
        <ele>793</ele>
        <time>2023-09-09T11:07:53Z</time>
      </trkpt>
      <trkpt lat="42.87291" lon="2.38102">
        <ele>793</ele>
        <time>2023-09-09T11:07:54Z</time>
      </trkpt>
      <trkpt lat="42.87291" lon="2.38104">
        <ele>792</ele>
        <time>2023-09-09T11:07:55Z</time>
      </trkpt>
      <trkpt lat="42.87291" lon="2.38106">
        <ele>792</ele>
        <time>2023-09-09T11:07:56Z</time>
      </trkpt>
      <trkpt lat="42.87291" lon="2.38108">
        <ele>791</ele>
        <time>2023-09-09T11:07:57Z</time>
      </trkpt>
      <trkpt lat="42.87291" lon="2.3811">
        <ele>791</ele>
        <time>2023-09-09T11:07:58Z</time>
      </trkpt>
      <trkpt lat="42.87292" lon="2.38112">
        <ele>791</ele>
        <time>2023-09-09T11:07:59Z</time>
      </trkpt>
      <trkpt lat="42.87292" lon="2.38114">
        <ele>791</ele>
        <time>2023-09-09T11:08:00Z</time>
      </trkpt>
      <trkpt lat="42.87292" lon="2.38117">
        <ele>791</ele>
        <time>2023-09-09T11:08:01Z</time>
      </trkpt>
      <trkpt lat="42.87292" lon="2.38119">
        <ele>791</ele>
        <time>2023-09-09T11:08:02Z</time>
      </trkpt>
      <trkpt lat="42.87292" lon="2.38122">
        <ele>791</ele>
        <time>2023-09-09T11:08:03Z</time>
      </trkpt>
      <trkpt lat="42.87292" lon="2.38124">
        <ele>791</ele>
        <time>2023-09-09T11:08:04Z</time>
      </trkpt>
      <trkpt lat="42.87291" lon="2.38127">
        <ele>790</ele>
        <time>2023-09-09T11:08:05Z</time>
      </trkpt>
      <trkpt lat="42.87291" lon="2.38129">
        <ele>790</ele>
        <time>2023-09-09T11:08:06Z</time>
      </trkpt>
      <trkpt lat="42.87291" lon="2.38132">
        <ele>790</ele>
        <time>2023-09-09T11:08:07Z</time>
      </trkpt>
      <trkpt lat="42.8729" lon="2.38134">
        <ele>790</ele>
        <time>2023-09-09T11:08:08Z</time>
      </trkpt>
      <trkpt lat="42.8729" lon="2.38137">
        <ele>790</ele>
        <time>2023-09-09T11:08:09Z</time>
      </trkpt>
      <trkpt lat="42.87289" lon="2.3814">
        <ele>789</ele>
        <time>2023-09-09T11:08:10Z</time>
      </trkpt>
      <trkpt lat="42.87289" lon="2.38143">
        <ele>789</ele>
        <time>2023-09-09T11:08:11Z</time>
      </trkpt>
      <trkpt lat="42.87289" lon="2.38147">
        <ele>789</ele>
        <time>2023-09-09T11:08:12Z</time>
      </trkpt>
      <trkpt lat="42.87289" lon="2.38149">
        <ele>789</ele>
        <time>2023-09-09T11:08:13Z</time>
      </trkpt>
      <trkpt lat="42.87289" lon="2.38152">
        <ele>789</ele>
        <time>2023-09-09T11:08:14Z</time>
      </trkpt>
      <trkpt lat="42.87289" lon="2.38155">
        <ele>789</ele>
        <time>2023-09-09T11:08:15Z</time>
      </trkpt>
      <trkpt lat="42.87288" lon="2.38158">
        <ele>789</ele>
        <time>2023-09-09T11:08:16Z</time>
      </trkpt>
      <trkpt lat="42.87289" lon="2.38161">
        <ele>789</ele>
        <time>2023-09-09T11:08:17Z</time>
      </trkpt>
      <trkpt lat="42.87289" lon="2.38163">
        <ele>789</ele>
        <time>2023-09-09T11:08:18Z</time>
      </trkpt>
      <trkpt lat="42.87289" lon="2.38166">
        <ele>789</ele>
        <time>2023-09-09T11:08:19Z</time>
      </trkpt>
      <trkpt lat="42.8729" lon="2.38169">
        <ele>788</ele>
        <time>2023-09-09T11:08:20Z</time>
      </trkpt>
      <trkpt lat="42.8729" lon="2.38171">
        <ele>788</ele>
        <time>2023-09-09T11:08:21Z</time>
      </trkpt>
      <trkpt lat="42.8729" lon="2.38174">
        <ele>787</ele>
        <time>2023-09-09T11:08:22Z</time>
      </trkpt>
      <trkpt lat="42.87291" lon="2.38176">
        <ele>787</ele>
        <time>2023-09-09T11:08:23Z</time>
      </trkpt>
      <trkpt lat="42.87292" lon="2.38178">
        <ele>787</ele>
        <time>2023-09-09T11:08:24Z</time>
      </trkpt>
      <trkpt lat="42.87292" lon="2.38179">
        <ele>786</ele>
        <time>2023-09-09T11:08:25Z</time>
      </trkpt>
      <trkpt lat="42.87293" lon="2.38181">
        <ele>786</ele>
        <time>2023-09-09T11:08:26Z</time>
      </trkpt>
      <trkpt lat="42.87294" lon="2.38182">
        <ele>785</ele>
        <time>2023-09-09T11:08:27Z</time>
      </trkpt>
      <trkpt lat="42.87295" lon="2.38184">
        <ele>785</ele>
        <time>2023-09-09T11:08:28Z</time>
      </trkpt>
      <trkpt lat="42.87296" lon="2.38186">
        <ele>785</ele>
        <time>2023-09-09T11:08:29Z</time>
      </trkpt>
      <trkpt lat="42.87297" lon="2.38187">
        <ele>784</ele>
        <time>2023-09-09T11:08:30Z</time>
      </trkpt>
      <trkpt lat="42.87297" lon="2.38189">
        <ele>784</ele>
        <time>2023-09-09T11:08:31Z</time>
      </trkpt>
      <trkpt lat="42.87298" lon="2.38191">
        <ele>784</ele>
        <time>2023-09-09T11:08:32Z</time>
      </trkpt>
      <trkpt lat="42.87298" lon="2.38193">
        <ele>784</ele>
        <time>2023-09-09T11:08:33Z</time>
      </trkpt>
      <trkpt lat="42.87299" lon="2.38195">
        <ele>784</ele>
        <time>2023-09-09T11:08:34Z</time>
      </trkpt>
      <trkpt lat="42.87299" lon="2.38197">
        <ele>783</ele>
        <time>2023-09-09T11:08:35Z</time>
      </trkpt>
      <trkpt lat="42.873" lon="2.382">
        <ele>783</ele>
        <time>2023-09-09T11:08:36Z</time>
      </trkpt>
      <trkpt lat="42.873" lon="2.38203">
        <ele>782</ele>
        <time>2023-09-09T11:08:37Z</time>
      </trkpt>
      <trkpt lat="42.873" lon="2.38205">
        <ele>782</ele>
        <time>2023-09-09T11:08:38Z</time>
      </trkpt>
      <trkpt lat="42.87301" lon="2.38209">
        <ele>782</ele>
        <time>2023-09-09T11:08:39Z</time>
      </trkpt>
      <trkpt lat="42.87301" lon="2.38212">
        <ele>781</ele>
        <time>2023-09-09T11:08:40Z</time>
      </trkpt>
      <trkpt lat="42.87301" lon="2.38215">
        <ele>781</ele>
        <time>2023-09-09T11:08:41Z</time>
      </trkpt>
      <trkpt lat="42.87302" lon="2.38219">
        <ele>780</ele>
        <time>2023-09-09T11:08:42Z</time>
      </trkpt>
      <trkpt lat="42.87302" lon="2.38222">
        <ele>780</ele>
        <time>2023-09-09T11:08:43Z</time>
      </trkpt>
      <trkpt lat="42.87303" lon="2.38225">
        <ele>780</ele>
        <time>2023-09-09T11:08:44Z</time>
      </trkpt>
      <trkpt lat="42.87303" lon="2.38228">
        <ele>779</ele>
        <time>2023-09-09T11:08:45Z</time>
      </trkpt>
      <trkpt lat="42.87304" lon="2.3823">
        <ele>779</ele>
        <time>2023-09-09T11:08:46Z</time>
      </trkpt>
      <trkpt lat="42.87304" lon="2.38233">
        <ele>779</ele>
        <time>2023-09-09T11:08:47Z</time>
      </trkpt>
      <trkpt lat="42.87305" lon="2.38236">
        <ele>779</ele>
        <time>2023-09-09T11:08:48Z</time>
      </trkpt>
      <trkpt lat="42.87304" lon="2.38239">
        <ele>779</ele>
        <time>2023-09-09T11:08:49Z</time>
      </trkpt>
      <trkpt lat="42.87304" lon="2.38242">
        <ele>778</ele>
        <time>2023-09-09T11:08:50Z</time>
      </trkpt>
      <trkpt lat="42.87304" lon="2.38245">
        <ele>778</ele>
        <time>2023-09-09T11:08:51Z</time>
      </trkpt>
      <trkpt lat="42.87304" lon="2.38248">
        <ele>778</ele>
        <time>2023-09-09T11:08:52Z</time>
      </trkpt>
      <trkpt lat="42.87304" lon="2.38251">
        <ele>778</ele>
        <time>2023-09-09T11:08:53Z</time>
      </trkpt>
      <trkpt lat="42.87304" lon="2.38254">
        <ele>778</ele>
        <time>2023-09-09T11:08:54Z</time>
      </trkpt>
      <trkpt lat="42.87304" lon="2.38257">
        <ele>777</ele>
        <time>2023-09-09T11:08:55Z</time>
      </trkpt>
      <trkpt lat="42.87304" lon="2.3826">
        <ele>777</ele>
        <time>2023-09-09T11:08:56Z</time>
      </trkpt>
      <trkpt lat="42.87305" lon="2.38262">
        <ele>777</ele>
        <time>2023-09-09T11:08:57Z</time>
      </trkpt>
      <trkpt lat="42.87305" lon="2.38265">
        <ele>777</ele>
        <time>2023-09-09T11:08:58Z</time>
      </trkpt>
      <trkpt lat="42.87306" lon="2.38267">
        <ele>777</ele>
        <time>2023-09-09T11:08:59Z</time>
      </trkpt>
      <trkpt lat="42.87306" lon="2.38269">
        <ele>777</ele>
        <time>2023-09-09T11:09:00Z</time>
      </trkpt>
      <trkpt lat="42.87307" lon="2.3827">
        <ele>777</ele>
        <time>2023-09-09T11:09:01Z</time>
      </trkpt>
      <trkpt lat="42.87308" lon="2.38272">
        <ele>777</ele>
        <time>2023-09-09T11:09:02Z</time>
      </trkpt>
      <trkpt lat="42.87308" lon="2.38274">
        <ele>777</ele>
        <time>2023-09-09T11:09:03Z</time>
      </trkpt>
      <trkpt lat="42.87309" lon="2.38276">
        <ele>777</ele>
        <time>2023-09-09T11:09:04Z</time>
      </trkpt>
      <trkpt lat="42.87309" lon="2.38277">
        <ele>777</ele>
        <time>2023-09-09T11:09:05Z</time>
      </trkpt>
      <trkpt lat="42.87309" lon="2.38279">
        <ele>777</ele>
        <time>2023-09-09T11:09:06Z</time>
      </trkpt>
      <trkpt lat="42.8731" lon="2.3828">
        <ele>777</ele>
        <time>2023-09-09T11:09:07Z</time>
      </trkpt>
      <trkpt lat="42.8731" lon="2.38282">
        <ele>777</ele>
        <time>2023-09-09T11:09:08Z</time>
      </trkpt>
      <trkpt lat="42.87311" lon="2.38284">
        <ele>777</ele>
        <time>2023-09-09T11:09:09Z</time>
      </trkpt>
      <trkpt lat="42.87311" lon="2.38285">
        <ele>776</ele>
        <time>2023-09-09T11:09:10Z</time>
      </trkpt>
      <trkpt lat="42.87312" lon="2.38287">
        <ele>776</ele>
        <time>2023-09-09T11:09:11Z</time>
      </trkpt>
      <trkpt lat="42.87313" lon="2.38289">
        <ele>776</ele>
        <time>2023-09-09T11:09:12Z</time>
      </trkpt>
      <trkpt lat="42.87313" lon="2.3829">
        <ele>776</ele>
        <time>2023-09-09T11:09:13Z</time>
      </trkpt>
      <trkpt lat="42.87314" lon="2.38292">
        <ele>776</ele>
        <time>2023-09-09T11:09:14Z</time>
      </trkpt>
      <trkpt lat="42.87315" lon="2.38294">
        <ele>775</ele>
        <time>2023-09-09T11:09:15Z</time>
      </trkpt>
      <trkpt lat="42.87316" lon="2.38295">
        <ele>774</ele>
        <time>2023-09-09T11:09:16Z</time>
      </trkpt>
      <trkpt lat="42.87317" lon="2.38297">
        <ele>774</ele>
        <time>2023-09-09T11:09:17Z</time>
      </trkpt>
      <trkpt lat="42.87318" lon="2.38299">
        <ele>773</ele>
        <time>2023-09-09T11:09:18Z</time>
      </trkpt>
      <trkpt lat="42.87319" lon="2.383">
        <ele>773</ele>
        <time>2023-09-09T11:09:19Z</time>
      </trkpt>
      <trkpt lat="42.8732" lon="2.38302">
        <ele>772</ele>
        <time>2023-09-09T11:09:20Z</time>
      </trkpt>
      <trkpt lat="42.87321" lon="2.38305">
        <ele>772</ele>
        <time>2023-09-09T11:09:21Z</time>
      </trkpt>
      <trkpt lat="42.87322" lon="2.38307">
        <ele>772</ele>
        <time>2023-09-09T11:09:22Z</time>
      </trkpt>
      <trkpt lat="42.87322" lon="2.3831">
        <ele>772</ele>
        <time>2023-09-09T11:09:23Z</time>
      </trkpt>
      <trkpt lat="42.87323" lon="2.38313">
        <ele>772</ele>
        <time>2023-09-09T11:09:24Z</time>
      </trkpt>
      <trkpt lat="42.87322" lon="2.38317">
        <ele>771</ele>
        <time>2023-09-09T11:09:25Z</time>
      </trkpt>
      <trkpt lat="42.87322" lon="2.3832">
        <ele>771</ele>
        <time>2023-09-09T11:09:26Z</time>
      </trkpt>
      <trkpt lat="42.87322" lon="2.38323">
        <ele>771</ele>
        <time>2023-09-09T11:09:27Z</time>
      </trkpt>
      <trkpt lat="42.87322" lon="2.38326">
        <ele>771</ele>
        <time>2023-09-09T11:09:28Z</time>
      </trkpt>
      <trkpt lat="42.87322" lon="2.38329">
        <ele>771</ele>
        <time>2023-09-09T11:09:29Z</time>
      </trkpt>
      <trkpt lat="42.87322" lon="2.38331">
        <ele>770</ele>
        <time>2023-09-09T11:09:30Z</time>
      </trkpt>
      <trkpt lat="42.87322" lon="2.38334">
        <ele>770</ele>
        <time>2023-09-09T11:09:31Z</time>
      </trkpt>
      <trkpt lat="42.87322" lon="2.38337">
        <ele>770</ele>
        <time>2023-09-09T11:09:32Z</time>
      </trkpt>
      <trkpt lat="42.87322" lon="2.3834">
        <ele>770</ele>
        <time>2023-09-09T11:09:33Z</time>
      </trkpt>
      <trkpt lat="42.87322" lon="2.38343">
        <ele>770</ele>
        <time>2023-09-09T11:09:34Z</time>
      </trkpt>
      <trkpt lat="42.87322" lon="2.38345">
        <ele>769</ele>
        <time>2023-09-09T11:09:35Z</time>
      </trkpt>
      <trkpt lat="42.87322" lon="2.38348">
        <ele>769</ele>
        <time>2023-09-09T11:09:36Z</time>
      </trkpt>
      <trkpt lat="42.87323" lon="2.3835">
        <ele>769</ele>
        <time>2023-09-09T11:09:37Z</time>
      </trkpt>
      <trkpt lat="42.87323" lon="2.38352">
        <ele>769</ele>
        <time>2023-09-09T11:09:38Z</time>
      </trkpt>
      <trkpt lat="42.87324" lon="2.38354">
        <ele>769</ele>
        <time>2023-09-09T11:09:39Z</time>
      </trkpt>
      <trkpt lat="42.87325" lon="2.38356">
        <ele>768</ele>
        <time>2023-09-09T11:09:40Z</time>
      </trkpt>
      <trkpt lat="42.87327" lon="2.38358">
        <ele>768</ele>
        <time>2023-09-09T11:09:41Z</time>
      </trkpt>
      <trkpt lat="42.87328" lon="2.3836">
        <ele>768</ele>
        <time>2023-09-09T11:09:42Z</time>
      </trkpt>
      <trkpt lat="42.87329" lon="2.38361">
        <ele>768</ele>
        <time>2023-09-09T11:09:43Z</time>
      </trkpt>
      <trkpt lat="42.8733" lon="2.38363">
        <ele>768</ele>
        <time>2023-09-09T11:09:44Z</time>
      </trkpt>
      <trkpt lat="42.87332" lon="2.38365">
        <ele>767</ele>
        <time>2023-09-09T11:09:45Z</time>
      </trkpt>
      <trkpt lat="42.87333" lon="2.38366">
        <ele>767</ele>
        <time>2023-09-09T11:09:46Z</time>
      </trkpt>
      <trkpt lat="42.87334" lon="2.38368">
        <ele>767</ele>
        <time>2023-09-09T11:09:47Z</time>
      </trkpt>
      <trkpt lat="42.87335" lon="2.38369">
        <ele>767</ele>
        <time>2023-09-09T11:09:48Z</time>
      </trkpt>
      <trkpt lat="42.87336" lon="2.38371">
        <ele>767</ele>
        <time>2023-09-09T11:09:49Z</time>
      </trkpt>
      <trkpt lat="42.87338" lon="2.38373">
        <ele>766</ele>
        <time>2023-09-09T11:09:50Z</time>
      </trkpt>
      <trkpt lat="42.87339" lon="2.38375">
        <ele>766</ele>
        <time>2023-09-09T11:09:51Z</time>
      </trkpt>
      <trkpt lat="42.8734" lon="2.38376">
        <ele>766</ele>
        <time>2023-09-09T11:09:52Z</time>
      </trkpt>
      <trkpt lat="42.87341" lon="2.38378">
        <ele>766</ele>
        <time>2023-09-09T11:09:53Z</time>
      </trkpt>
      <trkpt lat="42.87342" lon="2.3838">
        <ele>766</ele>
        <time>2023-09-09T11:09:54Z</time>
      </trkpt>
      <trkpt lat="42.87343" lon="2.38382">
        <ele>765</ele>
        <time>2023-09-09T11:09:55Z</time>
      </trkpt>
      <trkpt lat="42.87344" lon="2.38383">
        <ele>765</ele>
        <time>2023-09-09T11:09:56Z</time>
      </trkpt>
      <trkpt lat="42.87345" lon="2.38385">
        <ele>764</ele>
        <time>2023-09-09T11:09:57Z</time>
      </trkpt>
      <trkpt lat="42.87346" lon="2.38387">
        <ele>764</ele>
        <time>2023-09-09T11:09:58Z</time>
      </trkpt>
      <trkpt lat="42.87347" lon="2.38389">
        <ele>764</ele>
        <time>2023-09-09T11:09:59Z</time>
      </trkpt>
      <trkpt lat="42.87348" lon="2.3839">
        <ele>763</ele>
        <time>2023-09-09T11:10:00Z</time>
      </trkpt>
      <trkpt lat="42.87349" lon="2.38392">
        <ele>763</ele>
        <time>2023-09-09T11:10:01Z</time>
      </trkpt>
      <trkpt lat="42.8735" lon="2.38394">
        <ele>762</ele>
        <time>2023-09-09T11:10:02Z</time>
      </trkpt>
      <trkpt lat="42.87351" lon="2.38395">
        <ele>762</ele>
        <time>2023-09-09T11:10:03Z</time>
      </trkpt>
      <trkpt lat="42.87352" lon="2.38396">
        <ele>762</ele>
        <time>2023-09-09T11:10:04Z</time>
      </trkpt>
      <trkpt lat="42.87353" lon="2.38397">
        <ele>761</ele>
        <time>2023-09-09T11:10:05Z</time>
      </trkpt>
      <trkpt lat="42.87354" lon="2.38398">
        <ele>761</ele>
        <time>2023-09-09T11:10:06Z</time>
      </trkpt>
      <trkpt lat="42.87355" lon="2.38399">
        <ele>760</ele>
        <time>2023-09-09T11:10:07Z</time>
      </trkpt>
      <trkpt lat="42.87357" lon="2.384">
        <ele>760</ele>
        <time>2023-09-09T11:10:08Z</time>
      </trkpt>
      <trkpt lat="42.87358" lon="2.384">
        <ele>760</ele>
        <time>2023-09-09T11:10:09Z</time>
      </trkpt>
      <trkpt lat="42.8736" lon="2.38401">
        <ele>759</ele>
        <time>2023-09-09T11:10:10Z</time>
      </trkpt>
      <trkpt lat="42.87361" lon="2.38401">
        <ele>759</ele>
        <time>2023-09-09T11:10:11Z</time>
      </trkpt>
      <trkpt lat="42.87363" lon="2.38402">
        <ele>759</ele>
        <time>2023-09-09T11:10:12Z</time>
      </trkpt>
      <trkpt lat="42.87364" lon="2.38402">
        <ele>759</ele>
        <time>2023-09-09T11:10:13Z</time>
      </trkpt>
      <trkpt lat="42.87365" lon="2.38403">
        <ele>759</ele>
        <time>2023-09-09T11:10:14Z</time>
      </trkpt>
      <trkpt lat="42.87367" lon="2.38404">
        <ele>758</ele>
        <time>2023-09-09T11:10:15Z</time>
      </trkpt>
      <trkpt lat="42.87368" lon="2.38405">
        <ele>757</ele>
        <time>2023-09-09T11:10:16Z</time>
      </trkpt>
      <trkpt lat="42.8737" lon="2.38406">
        <ele>757</ele>
        <time>2023-09-09T11:10:17Z</time>
      </trkpt>
      <trkpt lat="42.87371" lon="2.38407">
        <ele>756</ele>
        <time>2023-09-09T11:10:18Z</time>
      </trkpt>
      <trkpt lat="42.87373" lon="2.38407">
        <ele>756</ele>
        <time>2023-09-09T11:10:19Z</time>
      </trkpt>
      <trkpt lat="42.87374" lon="2.38408">
        <ele>755</ele>
        <time>2023-09-09T11:10:20Z</time>
      </trkpt>
      <trkpt lat="42.87376" lon="2.38409">
        <ele>755</ele>
        <time>2023-09-09T11:10:21Z</time>
      </trkpt>
      <trkpt lat="42.87378" lon="2.3841">
        <ele>755</ele>
        <time>2023-09-09T11:10:22Z</time>
      </trkpt>
      <trkpt lat="42.87379" lon="2.3841">
        <ele>755</ele>
        <time>2023-09-09T11:10:23Z</time>
      </trkpt>
      <trkpt lat="42.87381" lon="2.38411">
        <ele>755</ele>
        <time>2023-09-09T11:10:24Z</time>
      </trkpt>
      <trkpt lat="42.87383" lon="2.38411">
        <ele>754</ele>
        <time>2023-09-09T11:10:25Z</time>
      </trkpt>
      <trkpt lat="42.87385" lon="2.38412">
        <ele>754</ele>
        <time>2023-09-09T11:10:26Z</time>
      </trkpt>
      <trkpt lat="42.87386" lon="2.38413">
        <ele>753</ele>
        <time>2023-09-09T11:10:27Z</time>
      </trkpt>
      <trkpt lat="42.87388" lon="2.38413">
        <ele>753</ele>
        <time>2023-09-09T11:10:28Z</time>
      </trkpt>
      <trkpt lat="42.87389" lon="2.38414">
        <ele>753</ele>
        <time>2023-09-09T11:10:29Z</time>
      </trkpt>
      <trkpt lat="42.8739" lon="2.38415">
        <ele>752</ele>
        <time>2023-09-09T11:10:30Z</time>
      </trkpt>
      <trkpt lat="42.87392" lon="2.38415">
        <ele>752</ele>
        <time>2023-09-09T11:10:31Z</time>
      </trkpt>
      <trkpt lat="42.87394" lon="2.38416">
        <ele>751</ele>
        <time>2023-09-09T11:10:32Z</time>
      </trkpt>
      <trkpt lat="42.87395" lon="2.38416">
        <ele>751</ele>
        <time>2023-09-09T11:10:33Z</time>
      </trkpt>
      <trkpt lat="42.87397" lon="2.38416">
        <ele>751</ele>
        <time>2023-09-09T11:10:34Z</time>
      </trkpt>
      <trkpt lat="42.87399" lon="2.38417">
        <ele>750</ele>
        <time>2023-09-09T11:10:35Z</time>
      </trkpt>
      <trkpt lat="42.874" lon="2.38418">
        <ele>750</ele>
        <time>2023-09-09T11:10:36Z</time>
      </trkpt>
      <trkpt lat="42.87401" lon="2.38418">
        <ele>749</ele>
        <time>2023-09-09T11:10:37Z</time>
      </trkpt>
      <trkpt lat="42.87403" lon="2.38419">
        <ele>749</ele>
        <time>2023-09-09T11:10:38Z</time>
      </trkpt>
      <trkpt lat="42.87404" lon="2.3842">
        <ele>749</ele>
        <time>2023-09-09T11:10:39Z</time>
      </trkpt>
      <trkpt lat="42.87405" lon="2.3842">
        <ele>748</ele>
        <time>2023-09-09T11:10:40Z</time>
      </trkpt>
      <trkpt lat="42.87406" lon="2.38421">
        <ele>748</ele>
        <time>2023-09-09T11:10:41Z</time>
      </trkpt>
      <trkpt lat="42.87408" lon="2.38421">
        <ele>747</ele>
        <time>2023-09-09T11:10:42Z</time>
      </trkpt>
      <trkpt lat="42.87409" lon="2.38421">
        <ele>747</ele>
        <time>2023-09-09T11:10:43Z</time>
      </trkpt>
      <trkpt lat="42.87411" lon="2.38422">
        <ele>747</ele>
        <time>2023-09-09T11:10:44Z</time>
      </trkpt>
      <trkpt lat="42.87412" lon="2.38422">
        <ele>746</ele>
        <time>2023-09-09T11:10:45Z</time>
      </trkpt>
      <trkpt lat="42.87414" lon="2.38422">
        <ele>746</ele>
        <time>2023-09-09T11:10:46Z</time>
      </trkpt>
      <trkpt lat="42.87415" lon="2.38422">
        <ele>746</ele>
        <time>2023-09-09T11:10:47Z</time>
      </trkpt>
      <trkpt lat="42.87416" lon="2.38422">
        <ele>746</ele>
        <time>2023-09-09T11:10:48Z</time>
      </trkpt>
      <trkpt lat="42.87418" lon="2.38422">
        <ele>746</ele>
        <time>2023-09-09T11:10:49Z</time>
      </trkpt>
      <trkpt lat="42.87419" lon="2.38422">
        <ele>745</ele>
        <time>2023-09-09T11:10:50Z</time>
      </trkpt>
      <trkpt lat="42.87421" lon="2.38422">
        <ele>745</ele>
        <time>2023-09-09T11:10:51Z</time>
      </trkpt>
      <trkpt lat="42.87422" lon="2.38422">
        <ele>745</ele>
        <time>2023-09-09T11:10:52Z</time>
      </trkpt>
      <trkpt lat="42.87424" lon="2.38422">
        <ele>745</ele>
        <time>2023-09-09T11:10:53Z</time>
      </trkpt>
      <trkpt lat="42.87425" lon="2.38422">
        <ele>745</ele>
        <time>2023-09-09T11:10:54Z</time>
      </trkpt>
      <trkpt lat="42.87427" lon="2.38422">
        <ele>744</ele>
        <time>2023-09-09T11:10:55Z</time>
      </trkpt>
      <trkpt lat="42.87428" lon="2.38423">
        <ele>744</ele>
        <time>2023-09-09T11:10:56Z</time>
      </trkpt>
      <trkpt lat="42.8743" lon="2.38423">
        <ele>743</ele>
        <time>2023-09-09T11:10:57Z</time>
      </trkpt>
      <trkpt lat="42.87431" lon="2.38424">
        <ele>743</ele>
        <time>2023-09-09T11:10:58Z</time>
      </trkpt>
      <trkpt lat="42.87432" lon="2.38425">
        <ele>743</ele>
        <time>2023-09-09T11:10:59Z</time>
      </trkpt>
      <trkpt lat="42.87433" lon="2.38426">
        <ele>742</ele>
        <time>2023-09-09T11:11:00Z</time>
      </trkpt>
      <trkpt lat="42.87435" lon="2.38427">
        <ele>742</ele>
        <time>2023-09-09T11:11:01Z</time>
      </trkpt>
      <trkpt lat="42.87436" lon="2.38428">
        <ele>741</ele>
        <time>2023-09-09T11:11:02Z</time>
      </trkpt>
      <trkpt lat="42.87437" lon="2.38429">
        <ele>741</ele>
        <time>2023-09-09T11:11:03Z</time>
      </trkpt>
      <trkpt lat="42.87439" lon="2.38429">
        <ele>741</ele>
        <time>2023-09-09T11:11:04Z</time>
      </trkpt>
      <trkpt lat="42.8744" lon="2.3843">
        <ele>740</ele>
        <time>2023-09-09T11:11:05Z</time>
      </trkpt>
      <trkpt lat="42.87441" lon="2.3843">
        <ele>739</ele>
        <time>2023-09-09T11:11:06Z</time>
      </trkpt>
      <trkpt lat="42.87443" lon="2.3843">
        <ele>739</ele>
        <time>2023-09-09T11:11:07Z</time>
      </trkpt>
      <trkpt lat="42.87444" lon="2.3843">
        <ele>738</ele>
        <time>2023-09-09T11:11:08Z</time>
      </trkpt>
      <trkpt lat="42.87445" lon="2.38429">
        <ele>738</ele>
        <time>2023-09-09T11:11:09Z</time>
      </trkpt>
      <trkpt lat="42.87446" lon="2.38429">
        <ele>737</ele>
        <time>2023-09-09T11:11:10Z</time>
      </trkpt>
      <trkpt lat="42.87447" lon="2.38427">
        <ele>737</ele>
        <time>2023-09-09T11:11:11Z</time>
      </trkpt>
      <trkpt lat="42.87448" lon="2.38426">
        <ele>736</ele>
        <time>2023-09-09T11:11:12Z</time>
      </trkpt>
      <trkpt lat="42.87449" lon="2.38425">
        <ele>736</ele>
        <time>2023-09-09T11:11:13Z</time>
      </trkpt>
      <trkpt lat="42.87451" lon="2.38423">
        <ele>736</ele>
        <time>2023-09-09T11:11:14Z</time>
      </trkpt>
      <trkpt lat="42.87452" lon="2.38422">
        <ele>735</ele>
        <time>2023-09-09T11:11:15Z</time>
      </trkpt>
      <trkpt lat="42.87453" lon="2.3842">
        <ele>735</ele>
        <time>2023-09-09T11:11:16Z</time>
      </trkpt>
      <trkpt lat="42.87454" lon="2.38418">
        <ele>734</ele>
        <time>2023-09-09T11:11:17Z</time>
      </trkpt>
      <trkpt lat="42.87455" lon="2.38416">
        <ele>734</ele>
        <time>2023-09-09T11:11:18Z</time>
      </trkpt>
      <trkpt lat="42.87456" lon="2.38413">
        <ele>734</ele>
        <time>2023-09-09T11:11:19Z</time>
      </trkpt>
      <trkpt lat="42.87457" lon="2.38411">
        <ele>733</ele>
        <time>2023-09-09T11:11:20Z</time>
      </trkpt>
      <trkpt lat="42.87458" lon="2.38409">
        <ele>733</ele>
        <time>2023-09-09T11:11:21Z</time>
      </trkpt>
      <trkpt lat="42.87459" lon="2.38407">
        <ele>733</ele>
        <time>2023-09-09T11:11:22Z</time>
      </trkpt>
      <trkpt lat="42.8746" lon="2.38404">
        <ele>733</ele>
        <time>2023-09-09T11:11:23Z</time>
      </trkpt>
      <trkpt lat="42.87461" lon="2.38402">
        <ele>733</ele>
        <time>2023-09-09T11:11:24Z</time>
      </trkpt>
      <trkpt lat="42.87462" lon="2.384">
        <ele>732</ele>
        <time>2023-09-09T11:11:25Z</time>
      </trkpt>
      <trkpt lat="42.87464" lon="2.38398">
        <ele>732</ele>
        <time>2023-09-09T11:11:26Z</time>
      </trkpt>
      <trkpt lat="42.87465" lon="2.38397">
        <ele>732</ele>
        <time>2023-09-09T11:11:27Z</time>
      </trkpt>
      <trkpt lat="42.87467" lon="2.38396">
        <ele>732</ele>
        <time>2023-09-09T11:11:28Z</time>
      </trkpt>
      <trkpt lat="42.87468" lon="2.38396">
        <ele>732</ele>
        <time>2023-09-09T11:11:29Z</time>
      </trkpt>
      <trkpt lat="42.8747" lon="2.38396">
        <ele>731</ele>
        <time>2023-09-09T11:11:30Z</time>
      </trkpt>
      <trkpt lat="42.87472" lon="2.38396">
        <ele>731</ele>
        <time>2023-09-09T11:11:31Z</time>
      </trkpt>
      <trkpt lat="42.87473" lon="2.38397">
        <ele>731</ele>
        <time>2023-09-09T11:11:32Z</time>
      </trkpt>
      <trkpt lat="42.87475" lon="2.38397">
        <ele>731</ele>
        <time>2023-09-09T11:11:33Z</time>
      </trkpt>
      <trkpt lat="42.87476" lon="2.38398">
        <ele>731</ele>
        <time>2023-09-09T11:11:34Z</time>
      </trkpt>
      <trkpt lat="42.87477" lon="2.38398">
        <ele>730</ele>
        <time>2023-09-09T11:11:35Z</time>
      </trkpt>
      <trkpt lat="42.87479" lon="2.38398">
        <ele>730</ele>
        <time>2023-09-09T11:11:36Z</time>
      </trkpt>
      <trkpt lat="42.8748" lon="2.38398">
        <ele>730</ele>
        <time>2023-09-09T11:11:37Z</time>
      </trkpt>
      <trkpt lat="42.87481" lon="2.38397">
        <ele>730</ele>
        <time>2023-09-09T11:11:38Z</time>
      </trkpt>
      <trkpt lat="42.87483" lon="2.38397">
        <ele>730</ele>
        <time>2023-09-09T11:11:39Z</time>
      </trkpt>
      <trkpt lat="42.87484" lon="2.38396">
        <ele>729</ele>
        <time>2023-09-09T11:11:40Z</time>
      </trkpt>
      <trkpt lat="42.87485" lon="2.38395">
        <ele>729</ele>
        <time>2023-09-09T11:11:41Z</time>
      </trkpt>
      <trkpt lat="42.87487" lon="2.38394">
        <ele>729</ele>
        <time>2023-09-09T11:11:42Z</time>
      </trkpt>
      <trkpt lat="42.87488" lon="2.38394">
        <ele>729</ele>
        <time>2023-09-09T11:11:43Z</time>
      </trkpt>
      <trkpt lat="42.87489" lon="2.38393">
        <ele>729</ele>
        <time>2023-09-09T11:11:44Z</time>
      </trkpt>
      <trkpt lat="42.87491" lon="2.38393">
        <ele>728</ele>
        <time>2023-09-09T11:11:45Z</time>
      </trkpt>
      <trkpt lat="42.87492" lon="2.38392">
        <ele>728</ele>
        <time>2023-09-09T11:11:46Z</time>
      </trkpt>
      <trkpt lat="42.87493" lon="2.38392">
        <ele>728</ele>
        <time>2023-09-09T11:11:47Z</time>
      </trkpt>
      <trkpt lat="42.87495" lon="2.38392">
        <ele>728</ele>
        <time>2023-09-09T11:11:48Z</time>
      </trkpt>
      <trkpt lat="42.87496" lon="2.38393">
        <ele>728</ele>
        <time>2023-09-09T11:11:49Z</time>
      </trkpt>
      <trkpt lat="42.87498" lon="2.38393">
        <ele>727</ele>
        <time>2023-09-09T11:11:50Z</time>
      </trkpt>
      <trkpt lat="42.875" lon="2.38393">
        <ele>727</ele>
        <time>2023-09-09T11:11:51Z</time>
      </trkpt>
      <trkpt lat="42.87501" lon="2.38394">
        <ele>727</ele>
        <time>2023-09-09T11:11:52Z</time>
      </trkpt>
      <trkpt lat="42.87503" lon="2.38395">
        <ele>727</ele>
        <time>2023-09-09T11:11:53Z</time>
      </trkpt>
      <trkpt lat="42.87504" lon="2.38396">
        <ele>727</ele>
        <time>2023-09-09T11:11:54Z</time>
      </trkpt>
      <trkpt lat="42.87505" lon="2.38397">
        <ele>726</ele>
        <time>2023-09-09T11:11:55Z</time>
      </trkpt>
      <trkpt lat="42.87506" lon="2.38398">
        <ele>726</ele>
        <time>2023-09-09T11:11:56Z</time>
      </trkpt>
      <trkpt lat="42.87507" lon="2.38399">
        <ele>726</ele>
        <time>2023-09-09T11:11:57Z</time>
      </trkpt>
      <trkpt lat="42.87508" lon="2.384">
        <ele>726</ele>
        <time>2023-09-09T11:11:58Z</time>
      </trkpt>
      <trkpt lat="42.87509" lon="2.38401">
        <ele>726</ele>
        <time>2023-09-09T11:11:59Z</time>
      </trkpt>
      <trkpt lat="42.87511" lon="2.38402">
        <ele>725</ele>
        <time>2023-09-09T11:12:00Z</time>
      </trkpt>
      <trkpt lat="42.87512" lon="2.38403">
        <ele>725</ele>
        <time>2023-09-09T11:12:01Z</time>
      </trkpt>
      <trkpt lat="42.87513" lon="2.38404">
        <ele>725</ele>
        <time>2023-09-09T11:12:02Z</time>
      </trkpt>
      <trkpt lat="42.87515" lon="2.38405">
        <ele>725</ele>
        <time>2023-09-09T11:12:03Z</time>
      </trkpt>
      <trkpt lat="42.87516" lon="2.38406">
        <ele>725</ele>
        <time>2023-09-09T11:12:04Z</time>
      </trkpt>
      <trkpt lat="42.87518" lon="2.38406">
        <ele>724</ele>
        <time>2023-09-09T11:12:05Z</time>
      </trkpt>
      <trkpt lat="42.87519" lon="2.38407">
        <ele>724</ele>
        <time>2023-09-09T11:12:06Z</time>
      </trkpt>
      <trkpt lat="42.8752" lon="2.38408">
        <ele>724</ele>
        <time>2023-09-09T11:12:07Z</time>
      </trkpt>
      <trkpt lat="42.87522" lon="2.38409">
        <ele>724</ele>
        <time>2023-09-09T11:12:08Z</time>
      </trkpt>
      <trkpt lat="42.87523" lon="2.3841">
        <ele>724</ele>
        <time>2023-09-09T11:12:09Z</time>
      </trkpt>
      <trkpt lat="42.87524" lon="2.38412">
        <ele>723</ele>
        <time>2023-09-09T11:12:10Z</time>
      </trkpt>
      <trkpt lat="42.87525" lon="2.38413">
        <ele>722</ele>
        <time>2023-09-09T11:12:11Z</time>
      </trkpt>
      <trkpt lat="42.87526" lon="2.38414">
        <ele>722</ele>
        <time>2023-09-09T11:12:12Z</time>
      </trkpt>
      <trkpt lat="42.87528" lon="2.38416">
        <ele>721</ele>
        <time>2023-09-09T11:12:13Z</time>
      </trkpt>
      <trkpt lat="42.87529" lon="2.38418">
        <ele>721</ele>
        <time>2023-09-09T11:12:14Z</time>
      </trkpt>
      <trkpt lat="42.8753" lon="2.38419">
        <ele>720</ele>
        <time>2023-09-09T11:12:15Z</time>
      </trkpt>
      <trkpt lat="42.87532" lon="2.38421">
        <ele>720</ele>
        <time>2023-09-09T11:12:16Z</time>
      </trkpt>
      <trkpt lat="42.87533" lon="2.38423">
        <ele>719</ele>
        <time>2023-09-09T11:12:17Z</time>
      </trkpt>
      <trkpt lat="42.87535" lon="2.38425">
        <ele>719</ele>
        <time>2023-09-09T11:12:18Z</time>
      </trkpt>
      <trkpt lat="42.87536" lon="2.38427">
        <ele>719</ele>
        <time>2023-09-09T11:12:19Z</time>
      </trkpt>
      <trkpt lat="42.87537" lon="2.38429">
        <ele>718</ele>
        <time>2023-09-09T11:12:20Z</time>
      </trkpt>
      <trkpt lat="42.87539" lon="2.38431">
        <ele>718</ele>
        <time>2023-09-09T11:12:21Z</time>
      </trkpt>
      <trkpt lat="42.8754" lon="2.38433">
        <ele>718</ele>
        <time>2023-09-09T11:12:22Z</time>
      </trkpt>
      <trkpt lat="42.87542" lon="2.38434">
        <ele>718</ele>
        <time>2023-09-09T11:12:23Z</time>
      </trkpt>
      <trkpt lat="42.87544" lon="2.38435">
        <ele>718</ele>
        <time>2023-09-09T11:12:24Z</time>
      </trkpt>
      <trkpt lat="42.87546" lon="2.38435">
        <ele>717</ele>
        <time>2023-09-09T11:12:25Z</time>
      </trkpt>
      <trkpt lat="42.87548" lon="2.38436">
        <ele>717</ele>
        <time>2023-09-09T11:12:26Z</time>
      </trkpt>
      <trkpt lat="42.8755" lon="2.38435">
        <ele>717</ele>
        <time>2023-09-09T11:12:27Z</time>
      </trkpt>
      <trkpt lat="42.87553" lon="2.38435">
        <ele>717</ele>
        <time>2023-09-09T11:12:28Z</time>
      </trkpt>
      <trkpt lat="42.87555" lon="2.38435">
        <ele>717</ele>
        <time>2023-09-09T11:12:29Z</time>
      </trkpt>
      <trkpt lat="42.87558" lon="2.38435">
        <ele>716</ele>
        <time>2023-09-09T11:12:30Z</time>
      </trkpt>
      <trkpt lat="42.8756" lon="2.38435">
        <ele>716</ele>
        <time>2023-09-09T11:12:31Z</time>
      </trkpt>
      <trkpt lat="42.87562" lon="2.38435">
        <ele>715</ele>
        <time>2023-09-09T11:12:32Z</time>
      </trkpt>
      <trkpt lat="42.87563" lon="2.38436">
        <ele>715</ele>
        <time>2023-09-09T11:12:33Z</time>
      </trkpt>
      <trkpt lat="42.87565" lon="2.38436">
        <ele>715</ele>
        <time>2023-09-09T11:12:34Z</time>
      </trkpt>
      <trkpt lat="42.87567" lon="2.38436">
        <ele>714</ele>
        <time>2023-09-09T11:12:35Z</time>
      </trkpt>
      <trkpt lat="42.87569" lon="2.38437">
        <ele>714</ele>
        <time>2023-09-09T11:12:36Z</time>
      </trkpt>
      <trkpt lat="42.87571" lon="2.38437">
        <ele>714</ele>
        <time>2023-09-09T11:12:37Z</time>
      </trkpt>
      <trkpt lat="42.87572" lon="2.38438">
        <ele>714</ele>
        <time>2023-09-09T11:12:38Z</time>
      </trkpt>
      <trkpt lat="42.87574" lon="2.38438">
        <ele>714</ele>
        <time>2023-09-09T11:12:39Z</time>
      </trkpt>
      <trkpt lat="42.87575" lon="2.38438">
        <ele>713</ele>
        <time>2023-09-09T11:12:40Z</time>
      </trkpt>
      <trkpt lat="42.87577" lon="2.38438">
        <ele>713</ele>
        <time>2023-09-09T11:12:41Z</time>
      </trkpt>
      <trkpt lat="42.87579" lon="2.38439">
        <ele>712</ele>
        <time>2023-09-09T11:12:42Z</time>
      </trkpt>
      <trkpt lat="42.8758" lon="2.38439">
        <ele>712</ele>
        <time>2023-09-09T11:12:43Z</time>
      </trkpt>
      <trkpt lat="42.87582" lon="2.38439">
        <ele>712</ele>
        <time>2023-09-09T11:12:44Z</time>
      </trkpt>
      <trkpt lat="42.87584" lon="2.3844">
        <ele>711</ele>
        <time>2023-09-09T11:12:45Z</time>
      </trkpt>
      <trkpt lat="42.87586" lon="2.3844">
        <ele>711</ele>
        <time>2023-09-09T11:12:46Z</time>
      </trkpt>
      <trkpt lat="42.87588" lon="2.38441">
        <ele>711</ele>
        <time>2023-09-09T11:12:47Z</time>
      </trkpt>
      <trkpt lat="42.87589" lon="2.38441">
        <ele>711</ele>
        <time>2023-09-09T11:12:48Z</time>
      </trkpt>
      <trkpt lat="42.87591" lon="2.38441">
        <ele>711</ele>
        <time>2023-09-09T11:12:49Z</time>
      </trkpt>
      <trkpt lat="42.87593" lon="2.38442">
        <ele>710</ele>
        <time>2023-09-09T11:12:50Z</time>
      </trkpt>
      <trkpt lat="42.87595" lon="2.38442">
        <ele>710</ele>
        <time>2023-09-09T11:12:51Z</time>
      </trkpt>
      <trkpt lat="42.87596" lon="2.38442">
        <ele>709</ele>
        <time>2023-09-09T11:12:52Z</time>
      </trkpt>
      <trkpt lat="42.87598" lon="2.38442">
        <ele>709</ele>
        <time>2023-09-09T11:12:53Z</time>
      </trkpt>
      <trkpt lat="42.87599" lon="2.38442">
        <ele>709</ele>
        <time>2023-09-09T11:12:54Z</time>
      </trkpt>
      <trkpt lat="42.87601" lon="2.38442">
        <ele>708</ele>
        <time>2023-09-09T11:12:55Z</time>
      </trkpt>
      <trkpt lat="42.87602" lon="2.38442">
        <ele>708</ele>
        <time>2023-09-09T11:12:56Z</time>
      </trkpt>
      <trkpt lat="42.87604" lon="2.38442">
        <ele>708</ele>
        <time>2023-09-09T11:12:57Z</time>
      </trkpt>
      <trkpt lat="42.87606" lon="2.38442">
        <ele>708</ele>
        <time>2023-09-09T11:12:58Z</time>
      </trkpt>
      <trkpt lat="42.87607" lon="2.38441">
        <ele>708</ele>
        <time>2023-09-09T11:12:59Z</time>
      </trkpt>
      <trkpt lat="42.87609" lon="2.38441">
        <ele>707</ele>
        <time>2023-09-09T11:13:00Z</time>
      </trkpt>
      <trkpt lat="42.87611" lon="2.38441">
        <ele>707</ele>
        <time>2023-09-09T11:13:01Z</time>
      </trkpt>
      <trkpt lat="42.87613" lon="2.3844">
        <ele>707</ele>
        <time>2023-09-09T11:13:02Z</time>
      </trkpt>
      <trkpt lat="42.87615" lon="2.3844">
        <ele>707</ele>
        <time>2023-09-09T11:13:03Z</time>
      </trkpt>
      <trkpt lat="42.87616" lon="2.3844">
        <ele>707</ele>
        <time>2023-09-09T11:13:04Z</time>
      </trkpt>
      <trkpt lat="42.87618" lon="2.38439">
        <ele>706</ele>
        <time>2023-09-09T11:13:05Z</time>
      </trkpt>
      <trkpt lat="42.8762" lon="2.38439">
        <ele>706</ele>
        <time>2023-09-09T11:13:06Z</time>
      </trkpt>
      <trkpt lat="42.87622" lon="2.38439">
        <ele>706</ele>
        <time>2023-09-09T11:13:07Z</time>
      </trkpt>
      <trkpt lat="42.87623" lon="2.38439">
        <ele>706</ele>
        <time>2023-09-09T11:13:08Z</time>
      </trkpt>
      <trkpt lat="42.87625" lon="2.38438">
        <ele>706</ele>
        <time>2023-09-09T11:13:09Z</time>
      </trkpt>
      <trkpt lat="42.87627" lon="2.38438">
        <ele>705</ele>
        <time>2023-09-09T11:13:10Z</time>
      </trkpt>
      <trkpt lat="42.87629" lon="2.38438">
        <ele>704</ele>
        <time>2023-09-09T11:13:11Z</time>
      </trkpt>
      <trkpt lat="42.87631" lon="2.38437">
        <ele>704</ele>
        <time>2023-09-09T11:13:12Z</time>
      </trkpt>
      <trkpt lat="42.87633" lon="2.38437">
        <ele>703</ele>
        <time>2023-09-09T11:13:13Z</time>
      </trkpt>
      <trkpt lat="42.87634" lon="2.38437">
        <ele>703</ele>
        <time>2023-09-09T11:13:14Z</time>
      </trkpt>
      <trkpt lat="42.87636" lon="2.38436">
        <ele>702</ele>
        <time>2023-09-09T11:13:15Z</time>
      </trkpt>
      <trkpt lat="42.87638" lon="2.38436">
        <ele>702</ele>
        <time>2023-09-09T11:13:16Z</time>
      </trkpt>
      <trkpt lat="42.8764" lon="2.38436">
        <ele>702</ele>
        <time>2023-09-09T11:13:17Z</time>
      </trkpt>
      <trkpt lat="42.87642" lon="2.38436">
        <ele>702</ele>
        <time>2023-09-09T11:13:18Z</time>
      </trkpt>
      <trkpt lat="42.87644" lon="2.38437">
        <ele>702</ele>
        <time>2023-09-09T11:13:19Z</time>
      </trkpt>
      <trkpt lat="42.87645" lon="2.38437">
        <ele>701</ele>
        <time>2023-09-09T11:13:20Z</time>
      </trkpt>
      <trkpt lat="42.87647" lon="2.38437">
        <ele>701</ele>
        <time>2023-09-09T11:13:21Z</time>
      </trkpt>
      <trkpt lat="42.87648" lon="2.38437">
        <ele>701</ele>
        <time>2023-09-09T11:13:22Z</time>
      </trkpt>
      <trkpt lat="42.8765" lon="2.38437">
        <ele>701</ele>
        <time>2023-09-09T11:13:23Z</time>
      </trkpt>
      <trkpt lat="42.87652" lon="2.38437">
        <ele>701</ele>
        <time>2023-09-09T11:13:24Z</time>
      </trkpt>
      <trkpt lat="42.87653" lon="2.38437">
        <ele>700</ele>
        <time>2023-09-09T11:13:25Z</time>
      </trkpt>
      <trkpt lat="42.87655" lon="2.38437">
        <ele>700</ele>
        <time>2023-09-09T11:13:26Z</time>
      </trkpt>
      <trkpt lat="42.87657" lon="2.38437">
        <ele>699</ele>
        <time>2023-09-09T11:13:27Z</time>
      </trkpt>
      <trkpt lat="42.87658" lon="2.38437">
        <ele>699</ele>
        <time>2023-09-09T11:13:28Z</time>
      </trkpt>
      <trkpt lat="42.8766" lon="2.38437">
        <ele>699</ele>
        <time>2023-09-09T11:13:29Z</time>
      </trkpt>
      <trkpt lat="42.87661" lon="2.38437">
        <ele>698</ele>
        <time>2023-09-09T11:13:30Z</time>
      </trkpt>
      <trkpt lat="42.87663" lon="2.38437">
        <ele>698</ele>
        <time>2023-09-09T11:13:31Z</time>
      </trkpt>
      <trkpt lat="42.87664" lon="2.38438">
        <ele>698</ele>
        <time>2023-09-09T11:13:32Z</time>
      </trkpt>
      <trkpt lat="42.87666" lon="2.38438">
        <ele>698</ele>
        <time>2023-09-09T11:13:33Z</time>
      </trkpt>
      <trkpt lat="42.87667" lon="2.38438">
        <ele>698</ele>
        <time>2023-09-09T11:13:34Z</time>
      </trkpt>
      <trkpt lat="42.87669" lon="2.38438">
        <ele>697</ele>
        <time>2023-09-09T11:13:35Z</time>
      </trkpt>
      <trkpt lat="42.8767" lon="2.38439">
        <ele>697</ele>
        <time>2023-09-09T11:13:36Z</time>
      </trkpt>
      <trkpt lat="42.87672" lon="2.38439">
        <ele>697</ele>
        <time>2023-09-09T11:13:37Z</time>
      </trkpt>
      <trkpt lat="42.87673" lon="2.38439">
        <ele>697</ele>
        <time>2023-09-09T11:13:38Z</time>
      </trkpt>
      <trkpt lat="42.87675" lon="2.38439">
        <ele>697</ele>
        <time>2023-09-09T11:13:39Z</time>
      </trkpt>
      <trkpt lat="42.87677" lon="2.38439">
        <ele>696</ele>
        <time>2023-09-09T11:13:40Z</time>
      </trkpt>
      <trkpt lat="42.87678" lon="2.3844">
        <ele>696</ele>
        <time>2023-09-09T11:13:41Z</time>
      </trkpt>
      <trkpt lat="42.8768" lon="2.3844">
        <ele>696</ele>
        <time>2023-09-09T11:13:42Z</time>
      </trkpt>
      <trkpt lat="42.87681" lon="2.3844">
        <ele>696</ele>
        <time>2023-09-09T11:13:43Z</time>
      </trkpt>
      <trkpt lat="42.87682" lon="2.3844">
        <ele>696</ele>
        <time>2023-09-09T11:13:44Z</time>
      </trkpt>
      <trkpt lat="42.87684" lon="2.3844">
        <ele>695</ele>
        <time>2023-09-09T11:13:45Z</time>
      </trkpt>
      <trkpt lat="42.87685" lon="2.3844">
        <ele>695</ele>
        <time>2023-09-09T11:13:46Z</time>
      </trkpt>
      <trkpt lat="42.87686" lon="2.3844">
        <ele>694</ele>
        <time>2023-09-09T11:13:47Z</time>
      </trkpt>
      <trkpt lat="42.87688" lon="2.3844">
        <ele>694</ele>
        <time>2023-09-09T11:13:48Z</time>
      </trkpt>
      <trkpt lat="42.87689" lon="2.3844">
        <ele>694</ele>
        <time>2023-09-09T11:13:49Z</time>
      </trkpt>
      <trkpt lat="42.87691" lon="2.3844">
        <ele>693</ele>
        <time>2023-09-09T11:13:50Z</time>
      </trkpt>
      <trkpt lat="42.87692" lon="2.38441">
        <ele>693</ele>
        <time>2023-09-09T11:13:51Z</time>
      </trkpt>
      <trkpt lat="42.87693" lon="2.38441">
        <ele>693</ele>
        <time>2023-09-09T11:13:52Z</time>
      </trkpt>
      <trkpt lat="42.87695" lon="2.38441">
        <ele>693</ele>
        <time>2023-09-09T11:13:53Z</time>
      </trkpt>
      <trkpt lat="42.87696" lon="2.38442">
        <ele>693</ele>
        <time>2023-09-09T11:13:54Z</time>
      </trkpt>
      <trkpt lat="42.87698" lon="2.38442">
        <ele>692</ele>
        <time>2023-09-09T11:13:55Z</time>
      </trkpt>
      <trkpt lat="42.87699" lon="2.38443">
        <ele>692</ele>
        <time>2023-09-09T11:13:56Z</time>
      </trkpt>
      <trkpt lat="42.877" lon="2.38443">
        <ele>692</ele>
        <time>2023-09-09T11:13:57Z</time>
      </trkpt>
      <trkpt lat="42.87702" lon="2.38444">
        <ele>692</ele>
        <time>2023-09-09T11:13:58Z</time>
      </trkpt>
      <trkpt lat="42.87703" lon="2.38444">
        <ele>692</ele>
        <time>2023-09-09T11:13:59Z</time>
      </trkpt>
      <trkpt lat="42.87704" lon="2.38444">
        <ele>691</ele>
        <time>2023-09-09T11:14:00Z</time>
      </trkpt>
      <trkpt lat="42.87706" lon="2.38443">
        <ele>691</ele>
        <time>2023-09-09T11:14:01Z</time>
      </trkpt>
      <trkpt lat="42.87708" lon="2.38443">
        <ele>690</ele>
        <time>2023-09-09T11:14:02Z</time>
      </trkpt>
      <trkpt lat="42.87709" lon="2.38443">
        <ele>690</ele>
        <time>2023-09-09T11:14:03Z</time>
      </trkpt>
      <trkpt lat="42.87711" lon="2.38443">
        <ele>690</ele>
        <time>2023-09-09T11:14:04Z</time>
      </trkpt>
      <trkpt lat="42.87713" lon="2.38443">
        <ele>689</ele>
        <time>2023-09-09T11:14:05Z</time>
      </trkpt>
      <trkpt lat="42.87714" lon="2.38443">
        <ele>689</ele>
        <time>2023-09-09T11:14:06Z</time>
      </trkpt>
      <trkpt lat="42.87716" lon="2.38443">
        <ele>689</ele>
        <time>2023-09-09T11:14:07Z</time>
      </trkpt>
      <trkpt lat="42.87718" lon="2.38443">
        <ele>689</ele>
        <time>2023-09-09T11:14:08Z</time>
      </trkpt>
      <trkpt lat="42.8772" lon="2.38442">
        <ele>689</ele>
        <time>2023-09-09T11:14:09Z</time>
      </trkpt>
      <trkpt lat="42.87721" lon="2.38442">
        <ele>688</ele>
        <time>2023-09-09T11:14:10Z</time>
      </trkpt>
      <trkpt lat="42.87723" lon="2.38442">
        <ele>688</ele>
        <time>2023-09-09T11:14:11Z</time>
      </trkpt>
      <trkpt lat="42.87725" lon="2.38442">
        <ele>688</ele>
        <time>2023-09-09T11:14:12Z</time>
      </trkpt>
      <trkpt lat="42.87727" lon="2.38442">
        <ele>688</ele>
        <time>2023-09-09T11:14:13Z</time>
      </trkpt>
      <trkpt lat="42.87729" lon="2.38442">
        <ele>688</ele>
        <time>2023-09-09T11:14:14Z</time>
      </trkpt>
      <trkpt lat="42.8773" lon="2.38443">
        <ele>687</ele>
        <time>2023-09-09T11:14:15Z</time>
      </trkpt>
      <trkpt lat="42.87732" lon="2.38443">
        <ele>686</ele>
        <time>2023-09-09T11:14:16Z</time>
      </trkpt>
      <trkpt lat="42.87734" lon="2.38443">
        <ele>686</ele>
        <time>2023-09-09T11:14:17Z</time>
      </trkpt>
      <trkpt lat="42.87735" lon="2.38443">
        <ele>685</ele>
        <time>2023-09-09T11:14:18Z</time>
      </trkpt>
      <trkpt lat="42.87737" lon="2.38443">
        <ele>685</ele>
        <time>2023-09-09T11:14:19Z</time>
      </trkpt>
      <trkpt lat="42.87739" lon="2.38443">
        <ele>684</ele>
        <time>2023-09-09T11:14:20Z</time>
      </trkpt>
      <trkpt lat="42.87741" lon="2.38443">
        <ele>684</ele>
        <time>2023-09-09T11:14:21Z</time>
      </trkpt>
      <trkpt lat="42.87743" lon="2.38443">
        <ele>684</ele>
        <time>2023-09-09T11:14:22Z</time>
      </trkpt>
      <trkpt lat="42.87744" lon="2.38443">
        <ele>684</ele>
        <time>2023-09-09T11:14:23Z</time>
      </trkpt>
      <trkpt lat="42.87746" lon="2.38444">
        <ele>684</ele>
        <time>2023-09-09T11:14:24Z</time>
      </trkpt>
      <trkpt lat="42.87748" lon="2.38444">
        <ele>684</ele>
        <time>2023-09-09T11:14:25Z</time>
      </trkpt>
      <trkpt lat="42.87749" lon="2.38444">
        <ele>684</ele>
        <time>2023-09-09T11:14:26Z</time>
      </trkpt>
      <trkpt lat="42.87751" lon="2.38444">
        <ele>684</ele>
        <time>2023-09-09T11:14:27Z</time>
      </trkpt>
      <trkpt lat="42.87753" lon="2.38444">
        <ele>684</ele>
        <time>2023-09-09T11:14:28Z</time>
      </trkpt>
      <trkpt lat="42.87754" lon="2.38445">
        <ele>684</ele>
        <time>2023-09-09T11:14:29Z</time>
      </trkpt>
      <trkpt lat="42.87756" lon="2.38445">
        <ele>683</ele>
        <time>2023-09-09T11:14:30Z</time>
      </trkpt>
      <trkpt lat="42.87757" lon="2.38445">
        <ele>683</ele>
        <time>2023-09-09T11:14:31Z</time>
      </trkpt>
      <trkpt lat="42.87759" lon="2.38446">
        <ele>683</ele>
        <time>2023-09-09T11:14:32Z</time>
      </trkpt>
      <trkpt lat="42.87761" lon="2.38446">
        <ele>683</ele>
        <time>2023-09-09T11:14:33Z</time>
      </trkpt>
      <trkpt lat="42.87763" lon="2.38446">
        <ele>683</ele>
        <time>2023-09-09T11:14:34Z</time>
      </trkpt>
      <trkpt lat="42.87765" lon="2.38446">
        <ele>682</ele>
        <time>2023-09-09T11:14:35Z</time>
      </trkpt>
      <trkpt lat="42.87767" lon="2.38446">
        <ele>682</ele>
        <time>2023-09-09T11:14:36Z</time>
      </trkpt>
      <trkpt lat="42.87769" lon="2.38446">
        <ele>682</ele>
        <time>2023-09-09T11:14:37Z</time>
      </trkpt>
      <trkpt lat="42.87771" lon="2.38447">
        <ele>682</ele>
        <time>2023-09-09T11:14:38Z</time>
      </trkpt>
      <trkpt lat="42.87773" lon="2.38448">
        <ele>682</ele>
        <time>2023-09-09T11:14:39Z</time>
      </trkpt>
      <trkpt lat="42.87775" lon="2.38448">
        <ele>681</ele>
        <time>2023-09-09T11:14:40Z</time>
      </trkpt>
      <trkpt lat="42.87777" lon="2.38449">
        <ele>681</ele>
        <time>2023-09-09T11:14:41Z</time>
      </trkpt>
      <trkpt lat="42.87779" lon="2.3845">
        <ele>681</ele>
        <time>2023-09-09T11:14:42Z</time>
      </trkpt>
      <trkpt lat="42.8778" lon="2.3845">
        <ele>681</ele>
        <time>2023-09-09T11:14:43Z</time>
      </trkpt>
      <trkpt lat="42.87782" lon="2.38451">
        <ele>681</ele>
        <time>2023-09-09T11:14:44Z</time>
      </trkpt>
      <trkpt lat="42.87783" lon="2.38452">
        <ele>680</ele>
        <time>2023-09-09T11:14:45Z</time>
      </trkpt>
      <trkpt lat="42.87785" lon="2.38453">
        <ele>680</ele>
        <time>2023-09-09T11:14:46Z</time>
      </trkpt>
      <trkpt lat="42.87786" lon="2.38454">
        <ele>680</ele>
        <time>2023-09-09T11:14:47Z</time>
      </trkpt>
      <trkpt lat="42.87788" lon="2.38455">
        <ele>680</ele>
        <time>2023-09-09T11:14:48Z</time>
      </trkpt>
      <trkpt lat="42.87789" lon="2.38457">
        <ele>680</ele>
        <time>2023-09-09T11:14:49Z</time>
      </trkpt>
      <trkpt lat="42.87791" lon="2.38459">
        <ele>679</ele>
        <time>2023-09-09T11:14:50Z</time>
      </trkpt>
      <trkpt lat="42.87792" lon="2.38461">
        <ele>679</ele>
        <time>2023-09-09T11:14:51Z</time>
      </trkpt>
      <trkpt lat="42.87793" lon="2.38462">
        <ele>679</ele>
        <time>2023-09-09T11:14:52Z</time>
      </trkpt>
      <trkpt lat="42.87794" lon="2.38464">
        <ele>679</ele>
        <time>2023-09-09T11:14:53Z</time>
      </trkpt>
      <trkpt lat="42.87795" lon="2.38466">
        <ele>679</ele>
        <time>2023-09-09T11:14:54Z</time>
      </trkpt>
      <trkpt lat="42.87797" lon="2.38467">
        <ele>678</ele>
        <time>2023-09-09T11:14:55Z</time>
      </trkpt>
      <trkpt lat="42.87798" lon="2.38469">
        <ele>678</ele>
        <time>2023-09-09T11:14:56Z</time>
      </trkpt>
      <trkpt lat="42.87799" lon="2.38471">
        <ele>678</ele>
        <time>2023-09-09T11:14:57Z</time>
      </trkpt>
      <trkpt lat="42.878" lon="2.38472">
        <ele>678</ele>
        <time>2023-09-09T11:14:58Z</time>
      </trkpt>
      <trkpt lat="42.87802" lon="2.38474">
        <ele>678</ele>
        <time>2023-09-09T11:14:59Z</time>
      </trkpt>
      <trkpt lat="42.87803" lon="2.38475">
        <ele>677</ele>
        <time>2023-09-09T11:15:00Z</time>
      </trkpt>
      <trkpt lat="42.87805" lon="2.38476">
        <ele>677</ele>
        <time>2023-09-09T11:15:01Z</time>
      </trkpt>
      <trkpt lat="42.87806" lon="2.38477">
        <ele>677</ele>
        <time>2023-09-09T11:15:02Z</time>
      </trkpt>
      <trkpt lat="42.87808" lon="2.38479">
        <ele>677</ele>
        <time>2023-09-09T11:15:03Z</time>
      </trkpt>
      <trkpt lat="42.87809" lon="2.3848">
        <ele>677</ele>
        <time>2023-09-09T11:15:04Z</time>
      </trkpt>
      <trkpt lat="42.87811" lon="2.38481">
        <ele>676</ele>
        <time>2023-09-09T11:15:05Z</time>
      </trkpt>
      <trkpt lat="42.87813" lon="2.38483">
        <ele>676</ele>
        <time>2023-09-09T11:15:06Z</time>
      </trkpt>
      <trkpt lat="42.87814" lon="2.38484">
        <ele>676</ele>
        <time>2023-09-09T11:15:07Z</time>
      </trkpt>
      <trkpt lat="42.87816" lon="2.38485">
        <ele>676</ele>
        <time>2023-09-09T11:15:08Z</time>
      </trkpt>
      <trkpt lat="42.87818" lon="2.38486">
        <ele>676</ele>
        <time>2023-09-09T11:15:09Z</time>
      </trkpt>
      <trkpt lat="42.87819" lon="2.38487">
        <ele>676</ele>
        <time>2023-09-09T11:15:10Z</time>
      </trkpt>
      <trkpt lat="42.87821" lon="2.38488">
        <ele>676</ele>
        <time>2023-09-09T11:15:11Z</time>
      </trkpt>
      <trkpt lat="42.87823" lon="2.38489">
        <ele>676</ele>
        <time>2023-09-09T11:15:12Z</time>
      </trkpt>
      <trkpt lat="42.87824" lon="2.3849">
        <ele>676</ele>
        <time>2023-09-09T11:15:13Z</time>
      </trkpt>
      <trkpt lat="42.87826" lon="2.38492">
        <ele>676</ele>
        <time>2023-09-09T11:15:14Z</time>
      </trkpt>
      <trkpt lat="42.87828" lon="2.38493">
        <ele>675</ele>
        <time>2023-09-09T11:15:15Z</time>
      </trkpt>
      <trkpt lat="42.87829" lon="2.38494">
        <ele>675</ele>
        <time>2023-09-09T11:15:16Z</time>
      </trkpt>
      <trkpt lat="42.87831" lon="2.38495">
        <ele>675</ele>
        <time>2023-09-09T11:15:17Z</time>
      </trkpt>
      <trkpt lat="42.87832" lon="2.38496">
        <ele>675</ele>
        <time>2023-09-09T11:15:18Z</time>
      </trkpt>
      <trkpt lat="42.87834" lon="2.38497">
        <ele>675</ele>
        <time>2023-09-09T11:15:19Z</time>
      </trkpt>
      <trkpt lat="42.87835" lon="2.38499">
        <ele>674</ele>
        <time>2023-09-09T11:15:20Z</time>
      </trkpt>
      <trkpt lat="42.87837" lon="2.385">
        <ele>674</ele>
        <time>2023-09-09T11:15:21Z</time>
      </trkpt>
      <trkpt lat="42.87838" lon="2.38502">
        <ele>674</ele>
        <time>2023-09-09T11:15:22Z</time>
      </trkpt>
      <trkpt lat="42.8784" lon="2.38504">
        <ele>674</ele>
        <time>2023-09-09T11:15:23Z</time>
      </trkpt>
      <trkpt lat="42.87841" lon="2.38505">
        <ele>674</ele>
        <time>2023-09-09T11:15:24Z</time>
      </trkpt>
      <trkpt lat="42.87843" lon="2.38507">
        <ele>673</ele>
        <time>2023-09-09T11:15:25Z</time>
      </trkpt>
      <trkpt lat="42.87845" lon="2.38509">
        <ele>673</ele>
        <time>2023-09-09T11:15:26Z</time>
      </trkpt>
      <trkpt lat="42.87846" lon="2.3851">
        <ele>673</ele>
        <time>2023-09-09T11:15:27Z</time>
      </trkpt>
      <trkpt lat="42.87848" lon="2.38511">
        <ele>673</ele>
        <time>2023-09-09T11:15:28Z</time>
      </trkpt>
      <trkpt lat="42.8785" lon="2.38512">
        <ele>673</ele>
        <time>2023-09-09T11:15:29Z</time>
      </trkpt>
      <trkpt lat="42.87851" lon="2.38514">
        <ele>672</ele>
        <time>2023-09-09T11:15:30Z</time>
      </trkpt>
      <trkpt lat="42.87852" lon="2.38515">
        <ele>672</ele>
        <time>2023-09-09T11:15:31Z</time>
      </trkpt>
      <trkpt lat="42.87853" lon="2.38517">
        <ele>672</ele>
        <time>2023-09-09T11:15:32Z</time>
      </trkpt>
      <trkpt lat="42.87854" lon="2.38518">
        <ele>672</ele>
        <time>2023-09-09T11:15:33Z</time>
      </trkpt>
      <trkpt lat="42.87854" lon="2.3852">
        <ele>672</ele>
        <time>2023-09-09T11:15:34Z</time>
      </trkpt>
      <trkpt lat="42.87854" lon="2.38521">
        <ele>671</ele>
        <time>2023-09-09T11:15:35Z</time>
      </trkpt>
      <trkpt lat="42.87854" lon="2.38523">
        <ele>671</ele>
        <time>2023-09-09T11:15:36Z</time>
      </trkpt>
      <trkpt lat="42.87853" lon="2.38525">
        <ele>671</ele>
        <time>2023-09-09T11:15:37Z</time>
      </trkpt>
      <trkpt lat="42.87853" lon="2.38527">
        <ele>671</ele>
        <time>2023-09-09T11:15:38Z</time>
      </trkpt>
      <trkpt lat="42.87852" lon="2.38529">
        <ele>671</ele>
        <time>2023-09-09T11:15:39Z</time>
      </trkpt>
      <trkpt lat="42.87851" lon="2.38531">
        <ele>671</ele>
        <time>2023-09-09T11:15:40Z</time>
      </trkpt>
      <trkpt lat="42.8785" lon="2.38533">
        <ele>671</ele>
        <time>2023-09-09T11:15:41Z</time>
      </trkpt>
      <trkpt lat="42.87849" lon="2.38535">
        <ele>671</ele>
        <time>2023-09-09T11:15:42Z</time>
      </trkpt>
      <trkpt lat="42.87848" lon="2.38537">
        <ele>671</ele>
        <time>2023-09-09T11:15:43Z</time>
      </trkpt>
      <trkpt lat="42.87847" lon="2.38539">
        <ele>671</ele>
        <time>2023-09-09T11:15:44Z</time>
      </trkpt>
      <trkpt lat="42.87846" lon="2.38541">
        <ele>671</ele>
        <time>2023-09-09T11:15:45Z</time>
      </trkpt>
      <trkpt lat="42.87845" lon="2.38543">
        <ele>671</ele>
        <time>2023-09-09T11:15:46Z</time>
      </trkpt>
      <trkpt lat="42.87844" lon="2.38545">
        <ele>671</ele>
        <time>2023-09-09T11:15:47Z</time>
      </trkpt>
      <trkpt lat="42.87843" lon="2.38548">
        <ele>671</ele>
        <time>2023-09-09T11:15:48Z</time>
      </trkpt>
      <trkpt lat="42.87843" lon="2.3855">
        <ele>671</ele>
        <time>2023-09-09T11:15:49Z</time>
      </trkpt>
      <trkpt lat="42.87842" lon="2.38552">
        <ele>670</ele>
        <time>2023-09-09T11:15:50Z</time>
      </trkpt>
      <trkpt lat="42.87841" lon="2.38554">
        <ele>670</ele>
        <time>2023-09-09T11:15:51Z</time>
      </trkpt>
      <trkpt lat="42.8784" lon="2.38556">
        <ele>670</ele>
        <time>2023-09-09T11:15:52Z</time>
      </trkpt>
      <trkpt lat="42.87839" lon="2.38559">
        <ele>670</ele>
        <time>2023-09-09T11:15:53Z</time>
      </trkpt>
      <trkpt lat="42.87838" lon="2.38561">
        <ele>670</ele>
        <time>2023-09-09T11:15:54Z</time>
      </trkpt>
      <trkpt lat="42.87837" lon="2.38563">
        <ele>670</ele>
        <time>2023-09-09T11:15:55Z</time>
      </trkpt>
      <trkpt lat="42.87836" lon="2.38565">
        <ele>670</ele>
        <time>2023-09-09T11:15:56Z</time>
      </trkpt>
      <trkpt lat="42.87835" lon="2.38567">
        <ele>670</ele>
        <time>2023-09-09T11:15:57Z</time>
      </trkpt>
      <trkpt lat="42.87834" lon="2.38569">
        <ele>670</ele>
        <time>2023-09-09T11:15:58Z</time>
      </trkpt>
      <trkpt lat="42.87833" lon="2.38572">
        <ele>670</ele>
        <time>2023-09-09T11:15:59Z</time>
      </trkpt>
      <trkpt lat="42.87832" lon="2.38574">
        <ele>670</ele>
        <time>2023-09-09T11:16:00Z</time>
      </trkpt>
      <trkpt lat="42.87831" lon="2.38576">
        <ele>670</ele>
        <time>2023-09-09T11:16:01Z</time>
      </trkpt>
      <trkpt lat="42.8783" lon="2.38578">
        <ele>670</ele>
        <time>2023-09-09T11:16:02Z</time>
      </trkpt>
      <trkpt lat="42.87829" lon="2.38581">
        <ele>670</ele>
        <time>2023-09-09T11:16:03Z</time>
      </trkpt>
      <trkpt lat="42.87829" lon="2.38583">
        <ele>670</ele>
        <time>2023-09-09T11:16:04Z</time>
      </trkpt>
      <trkpt lat="42.87828" lon="2.38586">
        <ele>670</ele>
        <time>2023-09-09T11:16:05Z</time>
      </trkpt>
      <trkpt lat="42.87827" lon="2.38588">
        <ele>670</ele>
        <time>2023-09-09T11:16:06Z</time>
      </trkpt>
      <trkpt lat="42.87826" lon="2.38591">
        <ele>670</ele>
        <time>2023-09-09T11:16:07Z</time>
      </trkpt>
      <trkpt lat="42.87825" lon="2.38593">
        <ele>670</ele>
        <time>2023-09-09T11:16:08Z</time>
      </trkpt>
      <trkpt lat="42.87825" lon="2.38595">
        <ele>670</ele>
        <time>2023-09-09T11:16:09Z</time>
      </trkpt>
      <trkpt lat="42.87824" lon="2.38598">
        <ele>669</ele>
        <time>2023-09-09T11:16:10Z</time>
      </trkpt>
      <trkpt lat="42.87823" lon="2.386">
        <ele>669</ele>
        <time>2023-09-09T11:16:11Z</time>
      </trkpt>
      <trkpt lat="42.87822" lon="2.38603">
        <ele>668</ele>
        <time>2023-09-09T11:16:12Z</time>
      </trkpt>
      <trkpt lat="42.87821" lon="2.38606">
        <ele>668</ele>
        <time>2023-09-09T11:16:13Z</time>
      </trkpt>
      <trkpt lat="42.87821" lon="2.38608">
        <ele>668</ele>
        <time>2023-09-09T11:16:14Z</time>
      </trkpt>
      <trkpt lat="42.8782" lon="2.38611">
        <ele>668</ele>
        <time>2023-09-09T11:16:15Z</time>
      </trkpt>
      <trkpt lat="42.87819" lon="2.38613">
        <ele>668</ele>
        <time>2023-09-09T11:16:16Z</time>
      </trkpt>
      <trkpt lat="42.87818" lon="2.38615">
        <ele>669</ele>
        <time>2023-09-09T11:16:17Z</time>
      </trkpt>
      <trkpt lat="42.87817" lon="2.38618">
        <ele>669</ele>
        <time>2023-09-09T11:16:18Z</time>
      </trkpt>
      <trkpt lat="42.87816" lon="2.3862">
        <ele>670</ele>
        <time>2023-09-09T11:16:19Z</time>
      </trkpt>
      <trkpt lat="42.87815" lon="2.38622">
        <ele>670</ele>
        <time>2023-09-09T11:16:20Z</time>
      </trkpt>
      <trkpt lat="42.87814" lon="2.38624">
        <ele>670</ele>
        <time>2023-09-09T11:16:21Z</time>
      </trkpt>
      <trkpt lat="42.87814" lon="2.38627">
        <ele>670</ele>
        <time>2023-09-09T11:16:22Z</time>
      </trkpt>
      <trkpt lat="42.87813" lon="2.38629">
        <ele>670</ele>
        <time>2023-09-09T11:16:23Z</time>
      </trkpt>
      <trkpt lat="42.87812" lon="2.38632">
        <ele>670</ele>
        <time>2023-09-09T11:16:24Z</time>
      </trkpt>
      <trkpt lat="42.87811" lon="2.38634">
        <ele>670</ele>
        <time>2023-09-09T11:16:25Z</time>
      </trkpt>
      <trkpt lat="42.8781" lon="2.38637">
        <ele>670</ele>
        <time>2023-09-09T11:16:26Z</time>
      </trkpt>
      <trkpt lat="42.87809" lon="2.3864">
        <ele>670</ele>
        <time>2023-09-09T11:16:27Z</time>
      </trkpt>
      <trkpt lat="42.87809" lon="2.38642">
        <ele>670</ele>
        <time>2023-09-09T11:16:28Z</time>
      </trkpt>
      <trkpt lat="42.87808" lon="2.38645">
        <ele>670</ele>
        <time>2023-09-09T11:16:29Z</time>
      </trkpt>
      <trkpt lat="42.87807" lon="2.38648">
        <ele>670</ele>
        <time>2023-09-09T11:16:30Z</time>
      </trkpt>
      <trkpt lat="42.87806" lon="2.3865">
        <ele>670</ele>
        <time>2023-09-09T11:16:31Z</time>
      </trkpt>
      <trkpt lat="42.87805" lon="2.38653">
        <ele>670</ele>
        <time>2023-09-09T11:16:32Z</time>
      </trkpt>
      <trkpt lat="42.87804" lon="2.38656">
        <ele>670</ele>
        <time>2023-09-09T11:16:33Z</time>
      </trkpt>
      <trkpt lat="42.87803" lon="2.38658">
        <ele>670</ele>
        <time>2023-09-09T11:16:34Z</time>
      </trkpt>
      <trkpt lat="42.87803" lon="2.38661">
        <ele>670</ele>
        <time>2023-09-09T11:16:35Z</time>
      </trkpt>
      <trkpt lat="42.87802" lon="2.38663">
        <ele>670</ele>
        <time>2023-09-09T11:16:36Z</time>
      </trkpt>
      <trkpt lat="42.87801" lon="2.38666">
        <ele>670</ele>
        <time>2023-09-09T11:16:37Z</time>
      </trkpt>
      <trkpt lat="42.878" lon="2.38669">
        <ele>670</ele>
        <time>2023-09-09T11:16:38Z</time>
      </trkpt>
      <trkpt lat="42.87799" lon="2.38671">
        <ele>670</ele>
        <time>2023-09-09T11:16:39Z</time>
      </trkpt>
      <trkpt lat="42.87798" lon="2.38673">
        <ele>669</ele>
        <time>2023-09-09T11:16:40Z</time>
      </trkpt>
      <trkpt lat="42.87798" lon="2.38676">
        <ele>669</ele>
        <time>2023-09-09T11:16:41Z</time>
      </trkpt>
      <trkpt lat="42.87797" lon="2.38678">
        <ele>668</ele>
        <time>2023-09-09T11:16:42Z</time>
      </trkpt>
      <trkpt lat="42.87796" lon="2.38681">
        <ele>668</ele>
        <time>2023-09-09T11:16:43Z</time>
      </trkpt>
      <trkpt lat="42.87795" lon="2.38683">
        <ele>668</ele>
        <time>2023-09-09T11:16:44Z</time>
      </trkpt>
      <trkpt lat="42.87794" lon="2.38685">
        <ele>668</ele>
        <time>2023-09-09T11:16:45Z</time>
      </trkpt>
      <trkpt lat="42.87794" lon="2.38688">
        <ele>668</ele>
        <time>2023-09-09T11:16:46Z</time>
      </trkpt>
      <trkpt lat="42.87793" lon="2.3869">
        <ele>668</ele>
        <time>2023-09-09T11:16:47Z</time>
      </trkpt>
      <trkpt lat="42.87792" lon="2.38693">
        <ele>668</ele>
        <time>2023-09-09T11:16:48Z</time>
      </trkpt>
      <trkpt lat="42.87791" lon="2.38695">
        <ele>668</ele>
        <time>2023-09-09T11:16:49Z</time>
      </trkpt>
      <trkpt lat="42.8779" lon="2.38698">
        <ele>667</ele>
        <time>2023-09-09T11:16:50Z</time>
      </trkpt>
      <trkpt lat="42.8779" lon="2.387">
        <ele>667</ele>
        <time>2023-09-09T11:16:51Z</time>
      </trkpt>
      <trkpt lat="42.87789" lon="2.38702">
        <ele>667</ele>
        <time>2023-09-09T11:16:52Z</time>
      </trkpt>
      <trkpt lat="42.87788" lon="2.38705">
        <ele>667</ele>
        <time>2023-09-09T11:16:53Z</time>
      </trkpt>
      <trkpt lat="42.87787" lon="2.38707">
        <ele>667</ele>
        <time>2023-09-09T11:16:54Z</time>
      </trkpt>
      <trkpt lat="42.87786" lon="2.38709">
        <ele>667</ele>
        <time>2023-09-09T11:16:55Z</time>
      </trkpt>
      <trkpt lat="42.87785" lon="2.38712">
        <ele>667</ele>
        <time>2023-09-09T11:16:56Z</time>
      </trkpt>
      <trkpt lat="42.87784" lon="2.38714">
        <ele>667</ele>
        <time>2023-09-09T11:16:57Z</time>
      </trkpt>
      <trkpt lat="42.87783" lon="2.38717">
        <ele>667</ele>
        <time>2023-09-09T11:16:58Z</time>
      </trkpt>
      <trkpt lat="42.87782" lon="2.38719">
        <ele>667</ele>
        <time>2023-09-09T11:16:59Z</time>
      </trkpt>
      <trkpt lat="42.87781" lon="2.38722">
        <ele>666</ele>
        <time>2023-09-09T11:17:00Z</time>
      </trkpt>
      <trkpt lat="42.8778" lon="2.38724">
        <ele>666</ele>
        <time>2023-09-09T11:17:01Z</time>
      </trkpt>
      <trkpt lat="42.87779" lon="2.38727">
        <ele>666</ele>
        <time>2023-09-09T11:17:02Z</time>
      </trkpt>
      <trkpt lat="42.87778" lon="2.38729">
        <ele>666</ele>
        <time>2023-09-09T11:17:03Z</time>
      </trkpt>
      <trkpt lat="42.87777" lon="2.38732">
        <ele>666</ele>
        <time>2023-09-09T11:17:04Z</time>
      </trkpt>
      <trkpt lat="42.87776" lon="2.38734">
        <ele>666</ele>
        <time>2023-09-09T11:17:05Z</time>
      </trkpt>
      <trkpt lat="42.87775" lon="2.38736">
        <ele>666</ele>
        <time>2023-09-09T11:17:06Z</time>
      </trkpt>
      <trkpt lat="42.87774" lon="2.38738">
        <ele>666</ele>
        <time>2023-09-09T11:17:07Z</time>
      </trkpt>
      <trkpt lat="42.87773" lon="2.38741">
        <ele>666</ele>
        <time>2023-09-09T11:17:08Z</time>
      </trkpt>
      <trkpt lat="42.87772" lon="2.38743">
        <ele>666</ele>
        <time>2023-09-09T11:17:09Z</time>
      </trkpt>
      <trkpt lat="42.87771" lon="2.38745">
        <ele>665</ele>
        <time>2023-09-09T11:17:10Z</time>
      </trkpt>
      <trkpt lat="42.8777" lon="2.38747">
        <ele>665</ele>
        <time>2023-09-09T11:17:11Z</time>
      </trkpt>
      <trkpt lat="42.87768" lon="2.38749">
        <ele>665</ele>
        <time>2023-09-09T11:17:12Z</time>
      </trkpt>
      <trkpt lat="42.87767" lon="2.38751">
        <ele>665</ele>
        <time>2023-09-09T11:17:13Z</time>
      </trkpt>
      <trkpt lat="42.87766" lon="2.38753">
        <ele>665</ele>
        <time>2023-09-09T11:17:14Z</time>
      </trkpt>
      <trkpt lat="42.87764" lon="2.38755">
        <ele>665</ele>
        <time>2023-09-09T11:17:15Z</time>
      </trkpt>
      <trkpt lat="42.87763" lon="2.38757">
        <ele>665</ele>
        <time>2023-09-09T11:17:16Z</time>
      </trkpt>
      <trkpt lat="42.87762" lon="2.38759">
        <ele>665</ele>
        <time>2023-09-09T11:17:17Z</time>
      </trkpt>
      <trkpt lat="42.87762" lon="2.38761">
        <ele>665</ele>
        <time>2023-09-09T11:17:18Z</time>
      </trkpt>
      <trkpt lat="42.87761" lon="2.38762">
        <ele>665</ele>
        <time>2023-09-09T11:17:19Z</time>
      </trkpt>
      <trkpt lat="42.87755" lon="2.38777">
        <ele>663</ele>
        <time>2023-09-09T11:17:35Z</time>
      </trkpt>
      <trkpt lat="42.87754" lon="2.38781">
        <ele>663</ele>
        <time>2023-09-09T11:17:36Z</time>
      </trkpt>
      <trkpt lat="42.87753" lon="2.38782">
        <ele>663</ele>
        <time>2023-09-09T11:17:37Z</time>
      </trkpt>
      <trkpt lat="42.87753" lon="2.38784">
        <ele>663</ele>
        <time>2023-09-09T11:17:38Z</time>
      </trkpt>
      <trkpt lat="42.87752" lon="2.38786">
        <ele>663</ele>
        <time>2023-09-09T11:17:39Z</time>
      </trkpt>
      <trkpt lat="42.87752" lon="2.38788">
        <ele>662</ele>
        <time>2023-09-09T11:17:40Z</time>
      </trkpt>
      <trkpt lat="42.87751" lon="2.3879">
        <ele>662</ele>
        <time>2023-09-09T11:17:41Z</time>
      </trkpt>
      <trkpt lat="42.8775" lon="2.38792">
        <ele>662</ele>
        <time>2023-09-09T11:17:42Z</time>
      </trkpt>
      <trkpt lat="42.8775" lon="2.38794">
        <ele>662</ele>
        <time>2023-09-09T11:17:43Z</time>
      </trkpt>
      <trkpt lat="42.87749" lon="2.38796">
        <ele>662</ele>
        <time>2023-09-09T11:17:44Z</time>
      </trkpt>
      <trkpt lat="42.87748" lon="2.38798">
        <ele>662</ele>
        <time>2023-09-09T11:17:45Z</time>
      </trkpt>
      <trkpt lat="42.87747" lon="2.388">
        <ele>662</ele>
        <time>2023-09-09T11:17:46Z</time>
      </trkpt>
      <trkpt lat="42.87746" lon="2.38802">
        <ele>662</ele>
        <time>2023-09-09T11:17:47Z</time>
      </trkpt>
      <trkpt lat="42.87745" lon="2.38804">
        <ele>662</ele>
        <time>2023-09-09T11:17:48Z</time>
      </trkpt>
      <trkpt lat="42.87744" lon="2.38807">
        <ele>662</ele>
        <time>2023-09-09T11:17:49Z</time>
      </trkpt>
      <trkpt lat="42.87743" lon="2.38809">
        <ele>662</ele>
        <time>2023-09-09T11:17:50Z</time>
      </trkpt>
      <trkpt lat="42.87743" lon="2.38812">
        <ele>662</ele>
        <time>2023-09-09T11:17:51Z</time>
      </trkpt>
      <trkpt lat="42.87742" lon="2.38815">
        <ele>662</ele>
        <time>2023-09-09T11:17:52Z</time>
      </trkpt>
      <trkpt lat="42.87742" lon="2.38817">
        <ele>662</ele>
        <time>2023-09-09T11:17:53Z</time>
      </trkpt>
      <trkpt lat="42.87742" lon="2.3882">
        <ele>662</ele>
        <time>2023-09-09T11:17:54Z</time>
      </trkpt>
      <trkpt lat="42.87743" lon="2.38822">
        <ele>662</ele>
        <time>2023-09-09T11:17:55Z</time>
      </trkpt>
      <trkpt lat="42.87744" lon="2.38824">
        <ele>662</ele>
        <time>2023-09-09T11:17:56Z</time>
      </trkpt>
      <trkpt lat="42.87745" lon="2.38826">
        <ele>662</ele>
        <time>2023-09-09T11:17:57Z</time>
      </trkpt>
      <trkpt lat="42.87746" lon="2.38828">
        <ele>662</ele>
        <time>2023-09-09T11:17:58Z</time>
      </trkpt>
      <trkpt lat="42.87747" lon="2.3883">
        <ele>662</ele>
        <time>2023-09-09T11:17:59Z</time>
      </trkpt>
      <trkpt lat="42.87748" lon="2.38832">
        <ele>662</ele>
        <time>2023-09-09T11:18:00Z</time>
      </trkpt>
      <trkpt lat="42.8775" lon="2.38834">
        <ele>662</ele>
        <time>2023-09-09T11:18:01Z</time>
      </trkpt>
      <trkpt lat="42.87751" lon="2.38836">
        <ele>662</ele>
        <time>2023-09-09T11:18:02Z</time>
      </trkpt>
      <trkpt lat="42.87753" lon="2.38838">
        <ele>662</ele>
        <time>2023-09-09T11:18:03Z</time>
      </trkpt>
      <trkpt lat="42.87754" lon="2.3884">
        <ele>662</ele>
        <time>2023-09-09T11:18:04Z</time>
      </trkpt>
      <trkpt lat="42.87755" lon="2.38843">
        <ele>661</ele>
        <time>2023-09-09T11:18:05Z</time>
      </trkpt>
      <trkpt lat="42.87757" lon="2.38845">
        <ele>661</ele>
        <time>2023-09-09T11:18:06Z</time>
      </trkpt>
      <trkpt lat="42.87758" lon="2.38847">
        <ele>661</ele>
        <time>2023-09-09T11:18:07Z</time>
      </trkpt>
      <trkpt lat="42.87759" lon="2.38849">
        <ele>661</ele>
        <time>2023-09-09T11:18:08Z</time>
      </trkpt>
      <trkpt lat="42.8776" lon="2.38851">
        <ele>661</ele>
        <time>2023-09-09T11:18:09Z</time>
      </trkpt>
      <trkpt lat="42.87762" lon="2.38853">
        <ele>661</ele>
        <time>2023-09-09T11:18:10Z</time>
      </trkpt>
      <trkpt lat="42.87763" lon="2.38856">
        <ele>661</ele>
        <time>2023-09-09T11:18:11Z</time>
      </trkpt>
      <trkpt lat="42.87764" lon="2.38858">
        <ele>661</ele>
        <time>2023-09-09T11:18:12Z</time>
      </trkpt>
      <trkpt lat="42.87765" lon="2.38861">
        <ele>661</ele>
        <time>2023-09-09T11:18:13Z</time>
      </trkpt>
      <trkpt lat="42.87765" lon="2.38863">
        <ele>661</ele>
        <time>2023-09-09T11:18:14Z</time>
      </trkpt>
      <trkpt lat="42.87766" lon="2.38866">
        <ele>660</ele>
        <time>2023-09-09T11:18:15Z</time>
      </trkpt>
      <trkpt lat="42.87767" lon="2.38868">
        <ele>660</ele>
        <time>2023-09-09T11:18:16Z</time>
      </trkpt>
      <trkpt lat="42.87767" lon="2.38871">
        <ele>660</ele>
        <time>2023-09-09T11:18:17Z</time>
      </trkpt>
      <trkpt lat="42.87768" lon="2.38874">
        <ele>660</ele>
        <time>2023-09-09T11:18:18Z</time>
      </trkpt>
      <trkpt lat="42.87768" lon="2.38876">
        <ele>660</ele>
        <time>2023-09-09T11:18:19Z</time>
      </trkpt>
      <trkpt lat="42.87769" lon="2.38879">
        <ele>660</ele>
        <time>2023-09-09T11:18:20Z</time>
      </trkpt>
      <trkpt lat="42.87769" lon="2.38881">
        <ele>660</ele>
        <time>2023-09-09T11:18:21Z</time>
      </trkpt>
      <trkpt lat="42.8777" lon="2.38884">
        <ele>660</ele>
        <time>2023-09-09T11:18:22Z</time>
      </trkpt>
      <trkpt lat="42.8777" lon="2.38887">
        <ele>660</ele>
        <time>2023-09-09T11:18:23Z</time>
      </trkpt>
      <trkpt lat="42.87771" lon="2.38889">
        <ele>660</ele>
        <time>2023-09-09T11:18:24Z</time>
      </trkpt>
      <trkpt lat="42.87771" lon="2.38892">
        <ele>659</ele>
        <time>2023-09-09T11:18:25Z</time>
      </trkpt>
      <trkpt lat="42.87772" lon="2.38895">
        <ele>659</ele>
        <time>2023-09-09T11:18:26Z</time>
      </trkpt>
      <trkpt lat="42.87773" lon="2.38897">
        <ele>659</ele>
        <time>2023-09-09T11:18:27Z</time>
      </trkpt>
      <trkpt lat="42.87774" lon="2.389">
        <ele>659</ele>
        <time>2023-09-09T11:18:28Z</time>
      </trkpt>
      <trkpt lat="42.87774" lon="2.38903">
        <ele>659</ele>
        <time>2023-09-09T11:18:29Z</time>
      </trkpt>
      <trkpt lat="42.87775" lon="2.38905">
        <ele>659</ele>
        <time>2023-09-09T11:18:30Z</time>
      </trkpt>
      <trkpt lat="42.87775" lon="2.38908">
        <ele>659</ele>
        <time>2023-09-09T11:18:31Z</time>
      </trkpt>
      <trkpt lat="42.87776" lon="2.3891">
        <ele>659</ele>
        <time>2023-09-09T11:18:32Z</time>
      </trkpt>
      <trkpt lat="42.87776" lon="2.38913">
        <ele>659</ele>
        <time>2023-09-09T11:18:33Z</time>
      </trkpt>
      <trkpt lat="42.87777" lon="2.38915">
        <ele>659</ele>
        <time>2023-09-09T11:18:34Z</time>
      </trkpt>
      <trkpt lat="42.87777" lon="2.38918">
        <ele>659</ele>
        <time>2023-09-09T11:18:35Z</time>
      </trkpt>
      <trkpt lat="42.87778" lon="2.3892">
        <ele>659</ele>
        <time>2023-09-09T11:18:36Z</time>
      </trkpt>
      <trkpt lat="42.87778" lon="2.38923">
        <ele>659</ele>
        <time>2023-09-09T11:18:37Z</time>
      </trkpt>
      <trkpt lat="42.87779" lon="2.38925">
        <ele>659</ele>
        <time>2023-09-09T11:18:38Z</time>
      </trkpt>
      <trkpt lat="42.87779" lon="2.38928">
        <ele>659</ele>
        <time>2023-09-09T11:18:39Z</time>
      </trkpt>
      <trkpt lat="42.8778" lon="2.3893">
        <ele>658</ele>
        <time>2023-09-09T11:18:40Z</time>
      </trkpt>
      <trkpt lat="42.8778" lon="2.38933">
        <ele>658</ele>
        <time>2023-09-09T11:18:41Z</time>
      </trkpt>
      <trkpt lat="42.87781" lon="2.38935">
        <ele>658</ele>
        <time>2023-09-09T11:18:42Z</time>
      </trkpt>
      <trkpt lat="42.87782" lon="2.38938">
        <ele>658</ele>
        <time>2023-09-09T11:18:43Z</time>
      </trkpt>
      <trkpt lat="42.87782" lon="2.3894">
        <ele>658</ele>
        <time>2023-09-09T11:18:44Z</time>
      </trkpt>
      <trkpt lat="42.87783" lon="2.38943">
        <ele>658</ele>
        <time>2023-09-09T11:18:45Z</time>
      </trkpt>
      <trkpt lat="42.87783" lon="2.38946">
        <ele>658</ele>
        <time>2023-09-09T11:18:46Z</time>
      </trkpt>
      <trkpt lat="42.87784" lon="2.38948">
        <ele>658</ele>
        <time>2023-09-09T11:18:47Z</time>
      </trkpt>
      <trkpt lat="42.87784" lon="2.38951">
        <ele>658</ele>
        <time>2023-09-09T11:18:48Z</time>
      </trkpt>
      <trkpt lat="42.87784" lon="2.38954">
        <ele>658</ele>
        <time>2023-09-09T11:18:49Z</time>
      </trkpt>
      <trkpt lat="42.87785" lon="2.38957">
        <ele>658</ele>
        <time>2023-09-09T11:18:50Z</time>
      </trkpt>
      <trkpt lat="42.87785" lon="2.38959">
        <ele>658</ele>
        <time>2023-09-09T11:18:51Z</time>
      </trkpt>
      <trkpt lat="42.87785" lon="2.38962">
        <ele>658</ele>
        <time>2023-09-09T11:18:52Z</time>
      </trkpt>
      <trkpt lat="42.87786" lon="2.38964">
        <ele>658</ele>
        <time>2023-09-09T11:18:53Z</time>
      </trkpt>
      <trkpt lat="42.87786" lon="2.38967">
        <ele>658</ele>
        <time>2023-09-09T11:18:54Z</time>
      </trkpt>
      <trkpt lat="42.87786" lon="2.38969">
        <ele>658</ele>
        <time>2023-09-09T11:18:55Z</time>
      </trkpt>
      <trkpt lat="42.87787" lon="2.38972">
        <ele>658</ele>
        <time>2023-09-09T11:18:56Z</time>
      </trkpt>
      <trkpt lat="42.87787" lon="2.38974">
        <ele>658</ele>
        <time>2023-09-09T11:18:57Z</time>
      </trkpt>
      <trkpt lat="42.87788" lon="2.38977">
        <ele>658</ele>
        <time>2023-09-09T11:18:58Z</time>
      </trkpt>
      <trkpt lat="42.87788" lon="2.38979">
        <ele>658</ele>
        <time>2023-09-09T11:18:59Z</time>
      </trkpt>
      <trkpt lat="42.87788" lon="2.38982">
        <ele>658</ele>
        <time>2023-09-09T11:19:00Z</time>
      </trkpt>
      <trkpt lat="42.87789" lon="2.38984">
        <ele>658</ele>
        <time>2023-09-09T11:19:01Z</time>
      </trkpt>
      <trkpt lat="42.87789" lon="2.38987">
        <ele>658</ele>
        <time>2023-09-09T11:19:02Z</time>
      </trkpt>
      <trkpt lat="42.8779" lon="2.38989">
        <ele>658</ele>
        <time>2023-09-09T11:19:03Z</time>
      </trkpt>
      <trkpt lat="42.87791" lon="2.38992">
        <ele>658</ele>
        <time>2023-09-09T11:19:04Z</time>
      </trkpt>
      <trkpt lat="42.87791" lon="2.38994">
        <ele>657</ele>
        <time>2023-09-09T11:19:05Z</time>
      </trkpt>
      <trkpt lat="42.87792" lon="2.38997">
        <ele>657</ele>
        <time>2023-09-09T11:19:06Z</time>
      </trkpt>
      <trkpt lat="42.87793" lon="2.39">
        <ele>657</ele>
        <time>2023-09-09T11:19:07Z</time>
      </trkpt>
      <trkpt lat="42.87794" lon="2.39002">
        <ele>657</ele>
        <time>2023-09-09T11:19:08Z</time>
      </trkpt>
      <trkpt lat="42.87794" lon="2.39005">
        <ele>657</ele>
        <time>2023-09-09T11:19:09Z</time>
      </trkpt>
      <trkpt lat="42.87795" lon="2.39007">
        <ele>656</ele>
        <time>2023-09-09T11:19:10Z</time>
      </trkpt>
      <trkpt lat="42.87796" lon="2.3901">
        <ele>656</ele>
        <time>2023-09-09T11:19:11Z</time>
      </trkpt>
      <trkpt lat="42.87797" lon="2.39012">
        <ele>656</ele>
        <time>2023-09-09T11:19:12Z</time>
      </trkpt>
      <trkpt lat="42.87798" lon="2.39014">
        <ele>656</ele>
        <time>2023-09-09T11:19:13Z</time>
      </trkpt>
      <trkpt lat="42.87799" lon="2.39016">
        <ele>656</ele>
        <time>2023-09-09T11:19:14Z</time>
      </trkpt>
      <trkpt lat="42.878" lon="2.39019">
        <ele>656</ele>
        <time>2023-09-09T11:19:15Z</time>
      </trkpt>
      <trkpt lat="42.878" lon="2.39021">
        <ele>656</ele>
        <time>2023-09-09T11:19:16Z</time>
      </trkpt>
      <trkpt lat="42.87802" lon="2.39023">
        <ele>656</ele>
        <time>2023-09-09T11:19:17Z</time>
      </trkpt>
      <trkpt lat="42.87803" lon="2.39026">
        <ele>656</ele>
        <time>2023-09-09T11:19:18Z</time>
      </trkpt>
      <trkpt lat="42.87804" lon="2.39028">
        <ele>656</ele>
        <time>2023-09-09T11:19:19Z</time>
      </trkpt>
      <trkpt lat="42.87806" lon="2.3903">
        <ele>656</ele>
        <time>2023-09-09T11:19:20Z</time>
      </trkpt>
      <trkpt lat="42.87807" lon="2.39032">
        <ele>656</ele>
        <time>2023-09-09T11:19:21Z</time>
      </trkpt>
      <trkpt lat="42.87809" lon="2.39034">
        <ele>656</ele>
        <time>2023-09-09T11:19:22Z</time>
      </trkpt>
      <trkpt lat="42.87811" lon="2.39035">
        <ele>656</ele>
        <time>2023-09-09T11:19:23Z</time>
      </trkpt>
      <trkpt lat="42.87812" lon="2.39037">
        <ele>656</ele>
        <time>2023-09-09T11:19:24Z</time>
      </trkpt>
      <trkpt lat="42.87814" lon="2.39038">
        <ele>656</ele>
        <time>2023-09-09T11:19:25Z</time>
      </trkpt>
      <trkpt lat="42.87816" lon="2.3904">
        <ele>656</ele>
        <time>2023-09-09T11:19:26Z</time>
      </trkpt>
      <trkpt lat="42.87817" lon="2.39041">
        <ele>656</ele>
        <time>2023-09-09T11:19:27Z</time>
      </trkpt>
      <trkpt lat="42.87819" lon="2.39041">
        <ele>656</ele>
        <time>2023-09-09T11:19:28Z</time>
      </trkpt>
      <trkpt lat="42.87821" lon="2.39042">
        <ele>656</ele>
        <time>2023-09-09T11:19:29Z</time>
      </trkpt>
      <trkpt lat="42.87822" lon="2.39043">
        <ele>656</ele>
        <time>2023-09-09T11:19:30Z</time>
      </trkpt>
      <trkpt lat="42.87824" lon="2.39044">
        <ele>656</ele>
        <time>2023-09-09T11:19:31Z</time>
      </trkpt>
      <trkpt lat="42.87826" lon="2.39045">
        <ele>656</ele>
        <time>2023-09-09T11:19:32Z</time>
      </trkpt>
      <trkpt lat="42.87827" lon="2.39046">
        <ele>656</ele>
        <time>2023-09-09T11:19:33Z</time>
      </trkpt>
      <trkpt lat="42.87829" lon="2.39047">
        <ele>656</ele>
        <time>2023-09-09T11:19:34Z</time>
      </trkpt>
      <trkpt lat="42.8783" lon="2.39048">
        <ele>656</ele>
        <time>2023-09-09T11:19:35Z</time>
      </trkpt>
      <trkpt lat="42.87831" lon="2.39049">
        <ele>656</ele>
        <time>2023-09-09T11:19:36Z</time>
      </trkpt>
      <trkpt lat="42.87832" lon="2.3905">
        <ele>656</ele>
        <time>2023-09-09T11:19:37Z</time>
      </trkpt>
      <trkpt lat="42.87833" lon="2.39051">
        <ele>656</ele>
        <time>2023-09-09T11:19:38Z</time>
      </trkpt>
      <trkpt lat="42.87834" lon="2.39051">
        <ele>657</ele>
        <time>2023-09-09T11:19:39Z</time>
      </trkpt>
      <trkpt lat="42.87835" lon="2.39052">
        <ele>657</ele>
        <time>2023-09-09T11:19:40Z</time>
      </trkpt>
      <trkpt lat="42.87836" lon="2.39053">
        <ele>657</ele>
        <time>2023-09-09T11:19:41Z</time>
      </trkpt>
      <trkpt lat="42.87837" lon="2.39053">
        <ele>657</ele>
        <time>2023-09-09T11:19:42Z</time>
      </trkpt>
      <trkpt lat="42.87838" lon="2.39054">
        <ele>657</ele>
        <time>2023-09-09T11:19:43Z</time>
      </trkpt>
      <trkpt lat="42.87839" lon="2.39054">
        <ele>657</ele>
        <time>2023-09-09T11:19:44Z</time>
      </trkpt>
      <trkpt lat="42.8784" lon="2.39055">
        <ele>657</ele>
        <time>2023-09-09T11:19:45Z</time>
      </trkpt>
      <trkpt lat="42.87841" lon="2.39055">
        <ele>657</ele>
        <time>2023-09-09T11:19:46Z</time>
      </trkpt>
      <trkpt lat="42.87842" lon="2.39056">
        <ele>657</ele>
        <time>2023-09-09T11:19:47Z</time>
      </trkpt>
      <trkpt lat="42.87843" lon="2.39057">
        <ele>657</ele>
        <time>2023-09-09T11:19:48Z</time>
      </trkpt>
      <trkpt lat="42.87844" lon="2.39058">
        <ele>657</ele>
        <time>2023-09-09T11:19:49Z</time>
      </trkpt>
      <trkpt lat="42.87845" lon="2.39059">
        <ele>657</ele>
        <time>2023-09-09T11:19:50Z</time>
      </trkpt>
      <trkpt lat="42.87846" lon="2.3906">
        <ele>657</ele>
        <time>2023-09-09T11:19:51Z</time>
      </trkpt>
      <trkpt lat="42.87847" lon="2.39061">
        <ele>657</ele>
        <time>2023-09-09T11:19:52Z</time>
      </trkpt>
      <trkpt lat="42.87847" lon="2.39061">
        <ele>657</ele>
        <time>2023-09-09T11:19:53Z</time>
      </trkpt>
      <trkpt lat="42.87848" lon="2.39062">
        <ele>658</ele>
        <time>2023-09-09T11:19:54Z</time>
      </trkpt>
      <trkpt lat="42.87849" lon="2.39063">
        <ele>658</ele>
        <time>2023-09-09T11:19:55Z</time>
      </trkpt>
      <trkpt lat="42.8785" lon="2.39062">
        <ele>658</ele>
        <time>2023-09-09T11:19:56Z</time>
      </trkpt>
      <trkpt lat="42.87851" lon="2.39062">
        <ele>658</ele>
        <time>2023-09-09T11:19:57Z</time>
      </trkpt>
      <trkpt lat="42.87852" lon="2.39061">
        <ele>658</ele>
        <time>2023-09-09T11:19:58Z</time>
      </trkpt>
      <trkpt lat="42.87853" lon="2.39061">
        <ele>658</ele>
        <time>2023-09-09T11:19:59Z</time>
      </trkpt>
      <trkpt lat="42.87854" lon="2.39059">
        <ele>658</ele>
        <time>2023-09-09T11:20:00Z</time>
      </trkpt>
      <trkpt lat="42.87855" lon="2.39058">
        <ele>658</ele>
        <time>2023-09-09T11:20:01Z</time>
      </trkpt>
      <trkpt lat="42.87856" lon="2.39057">
        <ele>658</ele>
        <time>2023-09-09T11:20:02Z</time>
      </trkpt>
      <trkpt lat="42.87856" lon="2.39055">
        <ele>658</ele>
        <time>2023-09-09T11:20:03Z</time>
      </trkpt>
      <trkpt lat="42.87857" lon="2.39054">
        <ele>659</ele>
        <time>2023-09-09T11:20:04Z</time>
      </trkpt>
      <trkpt lat="42.87857" lon="2.39052">
        <ele>659</ele>
        <time>2023-09-09T11:20:05Z</time>
      </trkpt>
      <trkpt lat="42.87858" lon="2.39051">
        <ele>659</ele>
        <time>2023-09-09T11:20:06Z</time>
      </trkpt>
      <trkpt lat="42.87858" lon="2.39049">
        <ele>659</ele>
        <time>2023-09-09T11:20:07Z</time>
      </trkpt>
      <trkpt lat="42.87859" lon="2.39047">
        <ele>659</ele>
        <time>2023-09-09T11:20:08Z</time>
      </trkpt>
      <trkpt lat="42.87859" lon="2.39046">
        <ele>660</ele>
        <time>2023-09-09T11:20:09Z</time>
      </trkpt>
      <trkpt lat="42.8786" lon="2.39044">
        <ele>660</ele>
        <time>2023-09-09T11:20:10Z</time>
      </trkpt>
      <trkpt lat="42.87861" lon="2.39042">
        <ele>660</ele>
        <time>2023-09-09T11:20:11Z</time>
      </trkpt>
      <trkpt lat="42.87862" lon="2.3904">
        <ele>660</ele>
        <time>2023-09-09T11:20:12Z</time>
      </trkpt>
      <trkpt lat="42.87863" lon="2.39038">
        <ele>660</ele>
        <time>2023-09-09T11:20:13Z</time>
      </trkpt>
      <trkpt lat="42.87864" lon="2.39036">
        <ele>661</ele>
        <time>2023-09-09T11:20:14Z</time>
      </trkpt>
      <trkpt lat="42.87865" lon="2.39034">
        <ele>661</ele>
        <time>2023-09-09T11:20:15Z</time>
      </trkpt>
      <trkpt lat="42.87866" lon="2.39032">
        <ele>661</ele>
        <time>2023-09-09T11:20:16Z</time>
      </trkpt>
      <trkpt lat="42.87867" lon="2.39031">
        <ele>661</ele>
        <time>2023-09-09T11:20:17Z</time>
      </trkpt>
      <trkpt lat="42.87873" lon="2.39024">
        <ele>663</ele>
        <time>2023-09-09T11:21:19Z</time>
      </trkpt>
      <trkpt lat="42.87876" lon="2.39025">
        <ele>663</ele>
        <time>2023-09-09T11:21:20Z</time>
      </trkpt>
      <trkpt lat="42.87879" lon="2.39027">
        <ele>663</ele>
        <time>2023-09-09T11:21:21Z</time>
      </trkpt>
      <trkpt lat="42.8788" lon="2.39027">
        <ele>663</ele>
        <time>2023-09-09T11:21:22Z</time>
      </trkpt>
      <trkpt lat="42.87881" lon="2.39028">
        <ele>663</ele>
        <time>2023-09-09T11:21:23Z</time>
      </trkpt>
      <trkpt lat="42.87883" lon="2.39029">
        <ele>663</ele>
        <time>2023-09-09T11:21:24Z</time>
      </trkpt>
      <trkpt lat="42.87884" lon="2.3903">
        <ele>663</ele>
        <time>2023-09-09T11:21:25Z</time>
      </trkpt>
      <trkpt lat="42.87885" lon="2.39031">
        <ele>663</ele>
        <time>2023-09-09T11:21:26Z</time>
      </trkpt>
      <trkpt lat="42.87887" lon="2.39032">
        <ele>663</ele>
        <time>2023-09-09T11:21:27Z</time>
      </trkpt>
      <trkpt lat="42.87888" lon="2.39033">
        <ele>663</ele>
        <time>2023-09-09T11:21:28Z</time>
      </trkpt>
      <trkpt lat="42.87889" lon="2.39035">
        <ele>663</ele>
        <time>2023-09-09T11:21:29Z</time>
      </trkpt>
      <trkpt lat="42.8789" lon="2.39036">
        <ele>663</ele>
        <time>2023-09-09T11:21:30Z</time>
      </trkpt>
      <trkpt lat="42.87892" lon="2.39038">
        <ele>663</ele>
        <time>2023-09-09T11:21:31Z</time>
      </trkpt>
      <trkpt lat="42.87892" lon="2.3904">
        <ele>663</ele>
        <time>2023-09-09T11:21:32Z</time>
      </trkpt>
      <trkpt lat="42.87893" lon="2.39042">
        <ele>664</ele>
        <time>2023-09-09T11:21:33Z</time>
      </trkpt>
      <trkpt lat="42.87894" lon="2.39044">
        <ele>664</ele>
        <time>2023-09-09T11:21:34Z</time>
      </trkpt>
      <trkpt lat="42.87894" lon="2.39046">
        <ele>664</ele>
        <time>2023-09-09T11:21:35Z</time>
      </trkpt>
      <trkpt lat="42.87894" lon="2.39048">
        <ele>664</ele>
        <time>2023-09-09T11:21:36Z</time>
      </trkpt>
      <trkpt lat="42.87894" lon="2.39051">
        <ele>664</ele>
        <time>2023-09-09T11:21:37Z</time>
      </trkpt>
      <trkpt lat="42.87894" lon="2.39054">
        <ele>665</ele>
        <time>2023-09-09T11:21:38Z</time>
      </trkpt>
      <trkpt lat="42.87894" lon="2.39057">
        <ele>665</ele>
        <time>2023-09-09T11:21:39Z</time>
      </trkpt>
      <trkpt lat="42.87893" lon="2.3906">
        <ele>665</ele>
        <time>2023-09-09T11:21:40Z</time>
      </trkpt>
      <trkpt lat="42.87893" lon="2.39063">
        <ele>665</ele>
        <time>2023-09-09T11:21:41Z</time>
      </trkpt>
      <trkpt lat="42.87892" lon="2.39066">
        <ele>665</ele>
        <time>2023-09-09T11:21:42Z</time>
      </trkpt>
      <trkpt lat="42.87891" lon="2.39069">
        <ele>665</ele>
        <time>2023-09-09T11:21:43Z</time>
      </trkpt>
      <trkpt lat="42.87891" lon="2.39072">
        <ele>665</ele>
        <time>2023-09-09T11:21:44Z</time>
      </trkpt>
      <trkpt lat="42.8789" lon="2.39075">
        <ele>665</ele>
        <time>2023-09-09T11:21:45Z</time>
      </trkpt>
      <trkpt lat="42.8789" lon="2.39078">
        <ele>665</ele>
        <time>2023-09-09T11:21:46Z</time>
      </trkpt>
      <trkpt lat="42.87889" lon="2.3908">
        <ele>665</ele>
        <time>2023-09-09T11:21:47Z</time>
      </trkpt>
      <trkpt lat="42.87889" lon="2.39083">
        <ele>665</ele>
        <time>2023-09-09T11:21:48Z</time>
      </trkpt>
      <trkpt lat="42.87889" lon="2.39086">
        <ele>665</ele>
        <time>2023-09-09T11:21:49Z</time>
      </trkpt>
      <trkpt lat="42.8789" lon="2.39088">
        <ele>665</ele>
        <time>2023-09-09T11:21:50Z</time>
      </trkpt>
      <trkpt lat="42.8789" lon="2.39091">
        <ele>665</ele>
        <time>2023-09-09T11:21:51Z</time>
      </trkpt>
      <trkpt lat="42.87891" lon="2.39093">
        <ele>665</ele>
        <time>2023-09-09T11:21:52Z</time>
      </trkpt>
      <trkpt lat="42.87892" lon="2.39094">
        <ele>666</ele>
        <time>2023-09-09T11:21:53Z</time>
      </trkpt>
      <trkpt lat="42.87893" lon="2.39096">
        <ele>666</ele>
        <time>2023-09-09T11:21:54Z</time>
      </trkpt>
      <trkpt lat="42.87894" lon="2.39097">
        <ele>666</ele>
        <time>2023-09-09T11:21:55Z</time>
      </trkpt>
      <trkpt lat="42.87895" lon="2.39097">
        <ele>666</ele>
        <time>2023-09-09T11:21:56Z</time>
      </trkpt>
      <trkpt lat="42.87897" lon="2.39098">
        <ele>666</ele>
        <time>2023-09-09T11:21:57Z</time>
      </trkpt>
      <trkpt lat="42.87898" lon="2.39099">
        <ele>667</ele>
        <time>2023-09-09T11:21:58Z</time>
      </trkpt>
      <trkpt lat="42.879" lon="2.39099">
        <ele>667</ele>
        <time>2023-09-09T11:21:59Z</time>
      </trkpt>
      <trkpt lat="42.87901" lon="2.391">
        <ele>667</ele>
        <time>2023-09-09T11:22:00Z</time>
      </trkpt>
      <trkpt lat="42.87902" lon="2.39101">
        <ele>667</ele>
        <time>2023-09-09T11:22:01Z</time>
      </trkpt>
      <trkpt lat="42.87903" lon="2.39102">
        <ele>667</ele>
        <time>2023-09-09T11:22:02Z</time>
      </trkpt>
      <trkpt lat="42.87904" lon="2.39103">
        <ele>667</ele>
        <time>2023-09-09T11:22:03Z</time>
      </trkpt>
      <trkpt lat="42.87906" lon="2.39104">
        <ele>667</ele>
        <time>2023-09-09T11:22:04Z</time>
      </trkpt>
      <trkpt lat="42.87907" lon="2.39105">
        <ele>667</ele>
        <time>2023-09-09T11:22:05Z</time>
      </trkpt>
      <trkpt lat="42.87908" lon="2.39106">
        <ele>667</ele>
        <time>2023-09-09T11:22:06Z</time>
      </trkpt>
      <trkpt lat="42.8791" lon="2.39107">
        <ele>667</ele>
        <time>2023-09-09T11:22:07Z</time>
      </trkpt>
      <trkpt lat="42.87911" lon="2.39108">
        <ele>667</ele>
        <time>2023-09-09T11:22:08Z</time>
      </trkpt>
      <trkpt lat="42.87913" lon="2.39108">
        <ele>667</ele>
        <time>2023-09-09T11:22:09Z</time>
      </trkpt>
      <trkpt lat="42.87914" lon="2.39109">
        <ele>667</ele>
        <time>2023-09-09T11:22:10Z</time>
      </trkpt>
      <trkpt lat="42.87915" lon="2.3911">
        <ele>667</ele>
        <time>2023-09-09T11:22:11Z</time>
      </trkpt>
      <trkpt lat="42.87916" lon="2.3911">
        <ele>667</ele>
        <time>2023-09-09T11:22:12Z</time>
      </trkpt>
      <trkpt lat="42.87918" lon="2.39111">
        <ele>668</ele>
        <time>2023-09-09T11:22:13Z</time>
      </trkpt>
      <trkpt lat="42.87919" lon="2.39112">
        <ele>668</ele>
        <time>2023-09-09T11:22:14Z</time>
      </trkpt>
      <trkpt lat="42.8792" lon="2.39113">
        <ele>668</ele>
        <time>2023-09-09T11:22:15Z</time>
      </trkpt>
      <trkpt lat="42.87921" lon="2.39113">
        <ele>668</ele>
        <time>2023-09-09T11:22:16Z</time>
      </trkpt>
      <trkpt lat="42.87922" lon="2.39114">
        <ele>668</ele>
        <time>2023-09-09T11:22:17Z</time>
      </trkpt>
      <trkpt lat="42.87923" lon="2.39115">
        <ele>668</ele>
        <time>2023-09-09T11:22:18Z</time>
      </trkpt>
      <trkpt lat="42.87924" lon="2.39116">
        <ele>668</ele>
        <time>2023-09-09T11:22:19Z</time>
      </trkpt>
      <trkpt lat="42.87926" lon="2.39117">
        <ele>668</ele>
        <time>2023-09-09T11:22:20Z</time>
      </trkpt>
      <trkpt lat="42.87927" lon="2.39118">
        <ele>668</ele>
        <time>2023-09-09T11:22:21Z</time>
      </trkpt>
      <trkpt lat="42.87928" lon="2.39119">
        <ele>668</ele>
        <time>2023-09-09T11:22:22Z</time>
      </trkpt>
      <trkpt lat="42.87929" lon="2.3912">
        <ele>668</ele>
        <time>2023-09-09T11:22:23Z</time>
      </trkpt>
      <trkpt lat="42.87931" lon="2.39121">
        <ele>668</ele>
        <time>2023-09-09T11:22:24Z</time>
      </trkpt>
      <trkpt lat="42.87932" lon="2.39122">
        <ele>668</ele>
        <time>2023-09-09T11:22:25Z</time>
      </trkpt>
      <trkpt lat="42.87934" lon="2.39123">
        <ele>669</ele>
        <time>2023-09-09T11:22:26Z</time>
      </trkpt>
      <trkpt lat="42.87935" lon="2.39124">
        <ele>669</ele>
        <time>2023-09-09T11:22:27Z</time>
      </trkpt>
      <trkpt lat="42.87937" lon="2.39125">
        <ele>670</ele>
        <time>2023-09-09T11:22:28Z</time>
      </trkpt>
      <trkpt lat="42.87939" lon="2.39126">
        <ele>670</ele>
        <time>2023-09-09T11:22:29Z</time>
      </trkpt>
      <trkpt lat="42.87941" lon="2.39127">
        <ele>670</ele>
        <time>2023-09-09T11:22:30Z</time>
      </trkpt>
      <trkpt lat="42.87943" lon="2.39129">
        <ele>670</ele>
        <time>2023-09-09T11:22:31Z</time>
      </trkpt>
      <trkpt lat="42.87945" lon="2.3913">
        <ele>670</ele>
        <time>2023-09-09T11:22:32Z</time>
      </trkpt>
      <trkpt lat="42.87947" lon="2.39131">
        <ele>670</ele>
        <time>2023-09-09T11:22:33Z</time>
      </trkpt>
      <trkpt lat="42.87948" lon="2.39132">
        <ele>670</ele>
        <time>2023-09-09T11:22:34Z</time>
      </trkpt>
      <trkpt lat="42.8795" lon="2.39133">
        <ele>670</ele>
        <time>2023-09-09T11:22:35Z</time>
      </trkpt>
      <trkpt lat="42.87952" lon="2.39134">
        <ele>670</ele>
        <time>2023-09-09T11:22:36Z</time>
      </trkpt>
      <trkpt lat="42.87954" lon="2.39134">
        <ele>670</ele>
        <time>2023-09-09T11:22:37Z</time>
      </trkpt>
      <trkpt lat="42.87956" lon="2.39135">
        <ele>670</ele>
        <time>2023-09-09T11:22:38Z</time>
      </trkpt>
      <trkpt lat="42.87957" lon="2.39135">
        <ele>670</ele>
        <time>2023-09-09T11:22:39Z</time>
      </trkpt>
      <trkpt lat="42.87959" lon="2.39134">
        <ele>670</ele>
        <time>2023-09-09T11:22:40Z</time>
      </trkpt>
      <trkpt lat="42.87961" lon="2.39133">
        <ele>670</ele>
        <time>2023-09-09T11:22:41Z</time>
      </trkpt>
      <trkpt lat="42.87962" lon="2.39132">
        <ele>670</ele>
        <time>2023-09-09T11:22:42Z</time>
      </trkpt>
      <trkpt lat="42.87963" lon="2.3913">
        <ele>671</ele>
        <time>2023-09-09T11:22:43Z</time>
      </trkpt>
      <trkpt lat="42.87965" lon="2.39128">
        <ele>671</ele>
        <time>2023-09-09T11:22:44Z</time>
      </trkpt>
      <trkpt lat="42.87966" lon="2.39126">
        <ele>671</ele>
        <time>2023-09-09T11:22:45Z</time>
      </trkpt>
      <trkpt lat="42.87967" lon="2.39124">
        <ele>671</ele>
        <time>2023-09-09T11:22:46Z</time>
      </trkpt>
      <trkpt lat="42.87968" lon="2.39121">
        <ele>671</ele>
        <time>2023-09-09T11:22:47Z</time>
      </trkpt>
      <trkpt lat="42.87968" lon="2.39119">
        <ele>672</ele>
        <time>2023-09-09T11:22:48Z</time>
      </trkpt>
      <trkpt lat="42.87969" lon="2.39116">
        <ele>672</ele>
        <time>2023-09-09T11:22:49Z</time>
      </trkpt>
      <trkpt lat="42.8797" lon="2.39114">
        <ele>672</ele>
        <time>2023-09-09T11:22:50Z</time>
      </trkpt>
      <trkpt lat="42.87971" lon="2.39112">
        <ele>672</ele>
        <time>2023-09-09T11:22:51Z</time>
      </trkpt>
      <trkpt lat="42.87972" lon="2.39109">
        <ele>672</ele>
        <time>2023-09-09T11:22:52Z</time>
      </trkpt>
      <trkpt lat="42.87973" lon="2.39107">
        <ele>673</ele>
        <time>2023-09-09T11:22:53Z</time>
      </trkpt>
      <trkpt lat="42.87974" lon="2.39105">
        <ele>673</ele>
        <time>2023-09-09T11:22:54Z</time>
      </trkpt>
      <trkpt lat="42.87975" lon="2.39102">
        <ele>673</ele>
        <time>2023-09-09T11:22:55Z</time>
      </trkpt>
      <trkpt lat="42.87976" lon="2.391">
        <ele>673</ele>
        <time>2023-09-09T11:22:56Z</time>
      </trkpt>
      <trkpt lat="42.87977" lon="2.39098">
        <ele>673</ele>
        <time>2023-09-09T11:22:57Z</time>
      </trkpt>
      <trkpt lat="42.87978" lon="2.39095">
        <ele>674</ele>
        <time>2023-09-09T11:22:58Z</time>
      </trkpt>
      <trkpt lat="42.87979" lon="2.39093">
        <ele>674</ele>
        <time>2023-09-09T11:22:59Z</time>
      </trkpt>
      <trkpt lat="42.8798" lon="2.3909">
        <ele>674</ele>
        <time>2023-09-09T11:23:00Z</time>
      </trkpt>
      <trkpt lat="42.87981" lon="2.39088">
        <ele>674</ele>
        <time>2023-09-09T11:23:01Z</time>
      </trkpt>
      <trkpt lat="42.87982" lon="2.39086">
        <ele>674</ele>
        <time>2023-09-09T11:23:02Z</time>
      </trkpt>
      <trkpt lat="42.87983" lon="2.39083">
        <ele>674</ele>
        <time>2023-09-09T11:23:03Z</time>
      </trkpt>
      <trkpt lat="42.87984" lon="2.39081">
        <ele>674</ele>
        <time>2023-09-09T11:23:04Z</time>
      </trkpt>
      <trkpt lat="42.87985" lon="2.39079">
        <ele>674</ele>
        <time>2023-09-09T11:23:05Z</time>
      </trkpt>
      <trkpt lat="42.87986" lon="2.39077">
        <ele>674</ele>
        <time>2023-09-09T11:23:06Z</time>
      </trkpt>
      <trkpt lat="42.87987" lon="2.39075">
        <ele>674</ele>
        <time>2023-09-09T11:23:07Z</time>
      </trkpt>
      <trkpt lat="42.87988" lon="2.39073">
        <ele>674</ele>
        <time>2023-09-09T11:23:08Z</time>
      </trkpt>
      <trkpt lat="42.87989" lon="2.39071">
        <ele>674</ele>
        <time>2023-09-09T11:23:09Z</time>
      </trkpt>
      <trkpt lat="42.8799" lon="2.39069">
        <ele>674</ele>
        <time>2023-09-09T11:23:10Z</time>
      </trkpt>
      <trkpt lat="42.87991" lon="2.39067">
        <ele>674</ele>
        <time>2023-09-09T11:23:11Z</time>
      </trkpt>
      <trkpt lat="42.87992" lon="2.39064">
        <ele>674</ele>
        <time>2023-09-09T11:23:12Z</time>
      </trkpt>
      <trkpt lat="42.87993" lon="2.39062">
        <ele>675</ele>
        <time>2023-09-09T11:23:13Z</time>
      </trkpt>
      <trkpt lat="42.87994" lon="2.3906">
        <ele>675</ele>
        <time>2023-09-09T11:23:14Z</time>
      </trkpt>
      <trkpt lat="42.87995" lon="2.39058">
        <ele>675</ele>
        <time>2023-09-09T11:23:15Z</time>
      </trkpt>
      <trkpt lat="42.87996" lon="2.39056">
        <ele>675</ele>
        <time>2023-09-09T11:23:16Z</time>
      </trkpt>
      <trkpt lat="42.87997" lon="2.39053">
        <ele>675</ele>
        <time>2023-09-09T11:23:17Z</time>
      </trkpt>
      <trkpt lat="42.87998" lon="2.39051">
        <ele>675</ele>
        <time>2023-09-09T11:23:18Z</time>
      </trkpt>
      <trkpt lat="42.87998" lon="2.39049">
        <ele>675</ele>
        <time>2023-09-09T11:23:19Z</time>
      </trkpt>
      <trkpt lat="42.87999" lon="2.39047">
        <ele>675</ele>
        <time>2023-09-09T11:23:20Z</time>
      </trkpt>
      <trkpt lat="42.88" lon="2.39045">
        <ele>675</ele>
        <time>2023-09-09T11:23:21Z</time>
      </trkpt>
      <trkpt lat="42.88001" lon="2.39043">
        <ele>675</ele>
        <time>2023-09-09T11:23:22Z</time>
      </trkpt>
      <trkpt lat="42.88002" lon="2.3904">
        <ele>675</ele>
        <time>2023-09-09T11:23:23Z</time>
      </trkpt>
      <trkpt lat="42.88003" lon="2.39038">
        <ele>675</ele>
        <time>2023-09-09T11:23:24Z</time>
      </trkpt>
      <trkpt lat="42.88004" lon="2.39036">
        <ele>675</ele>
        <time>2023-09-09T11:23:25Z</time>
      </trkpt>
      <trkpt lat="42.88005" lon="2.39034">
        <ele>675</ele>
        <time>2023-09-09T11:23:26Z</time>
      </trkpt>
      <trkpt lat="42.88006" lon="2.39032">
        <ele>675</ele>
        <time>2023-09-09T11:23:27Z</time>
      </trkpt>
      <trkpt lat="42.88007" lon="2.39029">
        <ele>675</ele>
        <time>2023-09-09T11:23:28Z</time>
      </trkpt>
      <trkpt lat="42.88008" lon="2.39027">
        <ele>675</ele>
        <time>2023-09-09T11:23:29Z</time>
      </trkpt>
      <trkpt lat="42.88009" lon="2.39025">
        <ele>675</ele>
        <time>2023-09-09T11:23:30Z</time>
      </trkpt>
      <trkpt lat="42.8801" lon="2.39023">
        <ele>675</ele>
        <time>2023-09-09T11:23:31Z</time>
      </trkpt>
      <trkpt lat="42.88011" lon="2.39021">
        <ele>675</ele>
        <time>2023-09-09T11:23:32Z</time>
      </trkpt>
      <trkpt lat="42.88012" lon="2.39019">
        <ele>675</ele>
        <time>2023-09-09T11:23:33Z</time>
      </trkpt>
      <trkpt lat="42.88013" lon="2.39016">
        <ele>675</ele>
        <time>2023-09-09T11:23:34Z</time>
      </trkpt>
      <trkpt lat="42.88014" lon="2.39014">
        <ele>675</ele>
        <time>2023-09-09T11:23:35Z</time>
      </trkpt>
      <trkpt lat="42.88014" lon="2.39012">
        <ele>675</ele>
        <time>2023-09-09T11:23:36Z</time>
      </trkpt>
      <trkpt lat="42.88015" lon="2.39009">
        <ele>675</ele>
        <time>2023-09-09T11:23:37Z</time>
      </trkpt>
      <trkpt lat="42.88016" lon="2.39007">
        <ele>675</ele>
        <time>2023-09-09T11:23:38Z</time>
      </trkpt>
      <trkpt lat="42.88017" lon="2.39004">
        <ele>675</ele>
        <time>2023-09-09T11:23:39Z</time>
      </trkpt>
      <trkpt lat="42.88018" lon="2.39002">
        <ele>675</ele>
        <time>2023-09-09T11:23:40Z</time>
      </trkpt>
      <trkpt lat="42.88019" lon="2.38999">
        <ele>675</ele>
        <time>2023-09-09T11:23:41Z</time>
      </trkpt>
      <trkpt lat="42.8802" lon="2.38996">
        <ele>675</ele>
        <time>2023-09-09T11:23:42Z</time>
      </trkpt>
      <trkpt lat="42.88021" lon="2.38994">
        <ele>675</ele>
        <time>2023-09-09T11:23:43Z</time>
      </trkpt>
      <trkpt lat="42.88022" lon="2.38991">
        <ele>675</ele>
        <time>2023-09-09T11:23:44Z</time>
      </trkpt>
      <trkpt lat="42.88023" lon="2.38989">
        <ele>675</ele>
        <time>2023-09-09T11:23:45Z</time>
      </trkpt>
      <trkpt lat="42.88024" lon="2.38986">
        <ele>675</ele>
        <time>2023-09-09T11:23:46Z</time>
      </trkpt>
      <trkpt lat="42.88025" lon="2.38984">
        <ele>675</ele>
        <time>2023-09-09T11:23:47Z</time>
      </trkpt>
      <trkpt lat="42.88026" lon="2.38981">
        <ele>676</ele>
        <time>2023-09-09T11:23:48Z</time>
      </trkpt>
      <trkpt lat="42.88027" lon="2.38979">
        <ele>675</ele>
        <time>2023-09-09T11:23:49Z</time>
      </trkpt>
      <trkpt lat="42.88027" lon="2.38976">
        <ele>675</ele>
        <time>2023-09-09T11:23:50Z</time>
      </trkpt>
      <trkpt lat="42.88028" lon="2.38974">
        <ele>675</ele>
        <time>2023-09-09T11:23:51Z</time>
      </trkpt>
      <trkpt lat="42.88029" lon="2.38972">
        <ele>675</ele>
        <time>2023-09-09T11:23:52Z</time>
      </trkpt>
      <trkpt lat="42.8803" lon="2.3897">
        <ele>675</ele>
        <time>2023-09-09T11:23:53Z</time>
      </trkpt>
      <trkpt lat="42.8803" lon="2.38969">
        <ele>675</ele>
        <time>2023-09-09T11:23:54Z</time>
      </trkpt>
      <trkpt lat="42.88031" lon="2.38967">
        <ele>675</ele>
        <time>2023-09-09T11:23:55Z</time>
      </trkpt>
      <trkpt lat="42.88032" lon="2.38966">
        <ele>675</ele>
        <time>2023-09-09T11:23:56Z</time>
      </trkpt>
      <trkpt lat="42.88036" lon="2.38952">
        <ele>675</ele>
        <time>2023-09-09T11:24:18Z</time>
      </trkpt>
      <trkpt lat="42.88038" lon="2.38948">
        <ele>675</ele>
        <time>2023-09-09T11:24:19Z</time>
      </trkpt>
      <trkpt lat="42.88038" lon="2.38947">
        <ele>675</ele>
        <time>2023-09-09T11:24:20Z</time>
      </trkpt>
      <trkpt lat="42.88038" lon="2.38946">
        <ele>675</ele>
        <time>2023-09-09T11:24:21Z</time>
      </trkpt>
      <trkpt lat="42.88038" lon="2.38944">
        <ele>675</ele>
        <time>2023-09-09T11:24:22Z</time>
      </trkpt>
      <trkpt lat="42.88039" lon="2.38942">
        <ele>675</ele>
        <time>2023-09-09T11:24:23Z</time>
      </trkpt>
      <trkpt lat="42.88039" lon="2.3894">
        <ele>675</ele>
        <time>2023-09-09T11:24:24Z</time>
      </trkpt>
      <trkpt lat="42.8804" lon="2.38937">
        <ele>675</ele>
        <time>2023-09-09T11:24:25Z</time>
      </trkpt>
      <trkpt lat="42.8804" lon="2.38935">
        <ele>675</ele>
        <time>2023-09-09T11:24:26Z</time>
      </trkpt>
      <trkpt lat="42.88041" lon="2.38932">
        <ele>675</ele>
        <time>2023-09-09T11:24:27Z</time>
      </trkpt>
      <trkpt lat="42.88041" lon="2.3893">
        <ele>675</ele>
        <time>2023-09-09T11:24:28Z</time>
      </trkpt>
      <trkpt lat="42.88042" lon="2.38927">
        <ele>675</ele>
        <time>2023-09-09T11:24:29Z</time>
      </trkpt>
      <trkpt lat="42.88042" lon="2.38924">
        <ele>675</ele>
        <time>2023-09-09T11:24:30Z</time>
      </trkpt>
      <trkpt lat="42.88043" lon="2.38922">
        <ele>675</ele>
        <time>2023-09-09T11:24:31Z</time>
      </trkpt>
      <trkpt lat="42.88043" lon="2.38919">
        <ele>675</ele>
        <time>2023-09-09T11:24:32Z</time>
      </trkpt>
      <trkpt lat="42.88043" lon="2.38916">
        <ele>675</ele>
        <time>2023-09-09T11:24:33Z</time>
      </trkpt>
      <trkpt lat="42.88044" lon="2.38913">
        <ele>675</ele>
        <time>2023-09-09T11:24:34Z</time>
      </trkpt>
      <trkpt lat="42.88044" lon="2.3891">
        <ele>675</ele>
        <time>2023-09-09T11:24:35Z</time>
      </trkpt>
      <trkpt lat="42.88045" lon="2.38908">
        <ele>675</ele>
        <time>2023-09-09T11:24:36Z</time>
      </trkpt>
      <trkpt lat="42.88045" lon="2.38905">
        <ele>675</ele>
        <time>2023-09-09T11:24:37Z</time>
      </trkpt>
      <trkpt lat="42.88045" lon="2.38902">
        <ele>675</ele>
        <time>2023-09-09T11:24:38Z</time>
      </trkpt>
      <trkpt lat="42.88045" lon="2.389">
        <ele>675</ele>
        <time>2023-09-09T11:24:39Z</time>
      </trkpt>
      <trkpt lat="42.88046" lon="2.38897">
        <ele>675</ele>
        <time>2023-09-09T11:24:40Z</time>
      </trkpt>
      <trkpt lat="42.88046" lon="2.38894">
        <ele>675</ele>
        <time>2023-09-09T11:24:41Z</time>
      </trkpt>
      <trkpt lat="42.88046" lon="2.38891">
        <ele>675</ele>
        <time>2023-09-09T11:24:42Z</time>
      </trkpt>
      <trkpt lat="42.88047" lon="2.38889">
        <ele>675</ele>
        <time>2023-09-09T11:24:43Z</time>
      </trkpt>
      <trkpt lat="42.88047" lon="2.38886">
        <ele>675</ele>
        <time>2023-09-09T11:24:44Z</time>
      </trkpt>
      <trkpt lat="42.88048" lon="2.38883">
        <ele>675</ele>
        <time>2023-09-09T11:24:45Z</time>
      </trkpt>
      <trkpt lat="42.88048" lon="2.38881">
        <ele>675</ele>
        <time>2023-09-09T11:24:46Z</time>
      </trkpt>
      <trkpt lat="42.88048" lon="2.38878">
        <ele>675</ele>
        <time>2023-09-09T11:24:47Z</time>
      </trkpt>
      <trkpt lat="42.88049" lon="2.38876">
        <ele>675</ele>
        <time>2023-09-09T11:24:48Z</time>
      </trkpt>
      <trkpt lat="42.88049" lon="2.38874">
        <ele>675</ele>
        <time>2023-09-09T11:24:49Z</time>
      </trkpt>
      <trkpt lat="42.8805" lon="2.38871">
        <ele>675</ele>
        <time>2023-09-09T11:24:50Z</time>
      </trkpt>
      <trkpt lat="42.8805" lon="2.38869">
        <ele>675</ele>
        <time>2023-09-09T11:24:51Z</time>
      </trkpt>
      <trkpt lat="42.88051" lon="2.38866">
        <ele>675</ele>
        <time>2023-09-09T11:24:52Z</time>
      </trkpt>
      <trkpt lat="42.88051" lon="2.38864">
        <ele>675</ele>
        <time>2023-09-09T11:24:53Z</time>
      </trkpt>
      <trkpt lat="42.88052" lon="2.38861">
        <ele>675</ele>
        <time>2023-09-09T11:24:54Z</time>
      </trkpt>
      <trkpt lat="42.88052" lon="2.38858">
        <ele>675</ele>
        <time>2023-09-09T11:24:55Z</time>
      </trkpt>
      <trkpt lat="42.88053" lon="2.38855">
        <ele>675</ele>
        <time>2023-09-09T11:24:56Z</time>
      </trkpt>
      <trkpt lat="42.88053" lon="2.38852">
        <ele>675</ele>
        <time>2023-09-09T11:24:57Z</time>
      </trkpt>
      <trkpt lat="42.88053" lon="2.38849">
        <ele>675</ele>
        <time>2023-09-09T11:24:58Z</time>
      </trkpt>
      <trkpt lat="42.88053" lon="2.38846">
        <ele>675</ele>
        <time>2023-09-09T11:24:59Z</time>
      </trkpt>
      <trkpt lat="42.88054" lon="2.38844">
        <ele>675</ele>
        <time>2023-09-09T11:25:00Z</time>
      </trkpt>
      <trkpt lat="42.88054" lon="2.38841">
        <ele>675</ele>
        <time>2023-09-09T11:25:01Z</time>
      </trkpt>
      <trkpt lat="42.88054" lon="2.38839">
        <ele>675</ele>
        <time>2023-09-09T11:25:02Z</time>
      </trkpt>
      <trkpt lat="42.88055" lon="2.38836">
        <ele>675</ele>
        <time>2023-09-09T11:25:03Z</time>
      </trkpt>
      <trkpt lat="42.88055" lon="2.38834">
        <ele>675</ele>
        <time>2023-09-09T11:25:04Z</time>
      </trkpt>
      <trkpt lat="42.88056" lon="2.38831">
        <ele>675</ele>
        <time>2023-09-09T11:25:05Z</time>
      </trkpt>
      <trkpt lat="42.88056" lon="2.38828">
        <ele>675</ele>
        <time>2023-09-09T11:25:06Z</time>
      </trkpt>
      <trkpt lat="42.88056" lon="2.38826">
        <ele>675</ele>
        <time>2023-09-09T11:25:07Z</time>
      </trkpt>
      <trkpt lat="42.88057" lon="2.38823">
        <ele>675</ele>
        <time>2023-09-09T11:25:08Z</time>
      </trkpt>
      <trkpt lat="42.88057" lon="2.3882">
        <ele>675</ele>
        <time>2023-09-09T11:25:09Z</time>
      </trkpt>
      <trkpt lat="42.88058" lon="2.38818">
        <ele>675</ele>
        <time>2023-09-09T11:25:10Z</time>
      </trkpt>
      <trkpt lat="42.88058" lon="2.38815">
        <ele>675</ele>
        <time>2023-09-09T11:25:11Z</time>
      </trkpt>
      <trkpt lat="42.88059" lon="2.38813">
        <ele>676</ele>
        <time>2023-09-09T11:25:12Z</time>
      </trkpt>
      <trkpt lat="42.88059" lon="2.3881">
        <ele>676</ele>
        <time>2023-09-09T11:25:13Z</time>
      </trkpt>
      <trkpt lat="42.8806" lon="2.38807">
        <ele>676</ele>
        <time>2023-09-09T11:25:14Z</time>
      </trkpt>
      <trkpt lat="42.8806" lon="2.38805">
        <ele>676</ele>
        <time>2023-09-09T11:25:15Z</time>
      </trkpt>
      <trkpt lat="42.88061" lon="2.38803">
        <ele>676</ele>
        <time>2023-09-09T11:25:16Z</time>
      </trkpt>
      <trkpt lat="42.88061" lon="2.388">
        <ele>676</ele>
        <time>2023-09-09T11:25:17Z</time>
      </trkpt>
      <trkpt lat="42.88062" lon="2.38798">
        <ele>676</ele>
        <time>2023-09-09T11:25:18Z</time>
      </trkpt>
      <trkpt lat="42.88062" lon="2.38796">
        <ele>676</ele>
        <time>2023-09-09T11:25:19Z</time>
      </trkpt>
      <trkpt lat="42.88063" lon="2.38794">
        <ele>676</ele>
        <time>2023-09-09T11:25:20Z</time>
      </trkpt>
      <trkpt lat="42.88063" lon="2.38792">
        <ele>676</ele>
        <time>2023-09-09T11:25:21Z</time>
      </trkpt>
      <trkpt lat="42.88064" lon="2.3879">
        <ele>677</ele>
        <time>2023-09-09T11:25:22Z</time>
      </trkpt>
      <trkpt lat="42.88064" lon="2.38787">
        <ele>677</ele>
        <time>2023-09-09T11:25:23Z</time>
      </trkpt>
      <trkpt lat="42.88065" lon="2.38785">
        <ele>677</ele>
        <time>2023-09-09T11:25:24Z</time>
      </trkpt>
      <trkpt lat="42.88065" lon="2.38783">
        <ele>677</ele>
        <time>2023-09-09T11:25:25Z</time>
      </trkpt>
      <trkpt lat="42.88066" lon="2.38781">
        <ele>677</ele>
        <time>2023-09-09T11:25:26Z</time>
      </trkpt>
      <trkpt lat="42.88067" lon="2.38779">
        <ele>677</ele>
        <time>2023-09-09T11:25:27Z</time>
      </trkpt>
      <trkpt lat="42.88067" lon="2.38776">
        <ele>677</ele>
        <time>2023-09-09T11:25:28Z</time>
      </trkpt>
      <trkpt lat="42.88067" lon="2.38774">
        <ele>677</ele>
        <time>2023-09-09T11:25:29Z</time>
      </trkpt>
      <trkpt lat="42.88068" lon="2.38772">
        <ele>677</ele>
        <time>2023-09-09T11:25:30Z</time>
      </trkpt>
      <trkpt lat="42.88068" lon="2.3877">
        <ele>677</ele>
        <time>2023-09-09T11:25:31Z</time>
      </trkpt>
      <trkpt lat="42.88069" lon="2.38767">
        <ele>677</ele>
        <time>2023-09-09T11:25:32Z</time>
      </trkpt>
      <trkpt lat="42.88069" lon="2.38765">
        <ele>677</ele>
        <time>2023-09-09T11:25:33Z</time>
      </trkpt>
      <trkpt lat="42.8807" lon="2.38763">
        <ele>677</ele>
        <time>2023-09-09T11:25:34Z</time>
      </trkpt>
      <trkpt lat="42.8807" lon="2.3876">
        <ele>677</ele>
        <time>2023-09-09T11:25:35Z</time>
      </trkpt>
      <trkpt lat="42.88071" lon="2.38758">
        <ele>677</ele>
        <time>2023-09-09T11:25:36Z</time>
      </trkpt>
      <trkpt lat="42.88071" lon="2.38755">
        <ele>678</ele>
        <time>2023-09-09T11:25:37Z</time>
      </trkpt>
      <trkpt lat="42.88072" lon="2.38752">
        <ele>678</ele>
        <time>2023-09-09T11:25:38Z</time>
      </trkpt>
      <trkpt lat="42.88072" lon="2.3875">
        <ele>678</ele>
        <time>2023-09-09T11:25:39Z</time>
      </trkpt>
      <trkpt lat="42.88073" lon="2.38747">
        <ele>678</ele>
        <time>2023-09-09T11:25:40Z</time>
      </trkpt>
      <trkpt lat="42.88074" lon="2.38745">
        <ele>678</ele>
        <time>2023-09-09T11:25:41Z</time>
      </trkpt>
      <trkpt lat="42.88074" lon="2.38742">
        <ele>678</ele>
        <time>2023-09-09T11:25:42Z</time>
      </trkpt>
      <trkpt lat="42.88075" lon="2.3874">
        <ele>678</ele>
        <time>2023-09-09T11:25:43Z</time>
      </trkpt>
      <trkpt lat="42.88076" lon="2.38737">
        <ele>678</ele>
        <time>2023-09-09T11:25:44Z</time>
      </trkpt>
      <trkpt lat="42.88077" lon="2.38735">
        <ele>678</ele>
        <time>2023-09-09T11:25:45Z</time>
      </trkpt>
      <trkpt lat="42.88078" lon="2.38732">
        <ele>678</ele>
        <time>2023-09-09T11:25:46Z</time>
      </trkpt>
      <trkpt lat="42.88079" lon="2.3873">
        <ele>678</ele>
        <time>2023-09-09T11:25:47Z</time>
      </trkpt>
      <trkpt lat="42.88079" lon="2.38727">
        <ele>678</ele>
        <time>2023-09-09T11:25:48Z</time>
      </trkpt>
      <trkpt lat="42.8808" lon="2.38725">
        <ele>678</ele>
        <time>2023-09-09T11:25:49Z</time>
      </trkpt>
      <trkpt lat="42.88081" lon="2.38722">
        <ele>678</ele>
        <time>2023-09-09T11:25:50Z</time>
      </trkpt>
      <trkpt lat="42.88082" lon="2.3872">
        <ele>678</ele>
        <time>2023-09-09T11:25:51Z</time>
      </trkpt>
      <trkpt lat="42.88083" lon="2.38718">
        <ele>679</ele>
        <time>2023-09-09T11:25:52Z</time>
      </trkpt>
      <trkpt lat="42.88084" lon="2.38716">
        <ele>679</ele>
        <time>2023-09-09T11:25:53Z</time>
      </trkpt>
      <trkpt lat="42.88084" lon="2.38713">
        <ele>679</ele>
        <time>2023-09-09T11:25:54Z</time>
      </trkpt>
      <trkpt lat="42.88085" lon="2.38711">
        <ele>679</ele>
        <time>2023-09-09T11:25:55Z</time>
      </trkpt>
      <trkpt lat="42.88086" lon="2.38708">
        <ele>679</ele>
        <time>2023-09-09T11:25:56Z</time>
      </trkpt>
      <trkpt lat="42.88087" lon="2.38706">
        <ele>679</ele>
        <time>2023-09-09T11:25:57Z</time>
      </trkpt>
      <trkpt lat="42.88088" lon="2.38704">
        <ele>679</ele>
        <time>2023-09-09T11:25:58Z</time>
      </trkpt>
      <trkpt lat="42.88088" lon="2.38701">
        <ele>679</ele>
        <time>2023-09-09T11:25:59Z</time>
      </trkpt>
      <trkpt lat="42.88089" lon="2.38699">
        <ele>679</ele>
        <time>2023-09-09T11:26:00Z</time>
      </trkpt>
      <trkpt lat="42.8809" lon="2.38697">
        <ele>679</ele>
        <time>2023-09-09T11:26:01Z</time>
      </trkpt>
      <trkpt lat="42.88091" lon="2.38694">
        <ele>679</ele>
        <time>2023-09-09T11:26:02Z</time>
      </trkpt>
      <trkpt lat="42.88092" lon="2.38692">
        <ele>679</ele>
        <time>2023-09-09T11:26:03Z</time>
      </trkpt>
      <trkpt lat="42.88093" lon="2.3869">
        <ele>679</ele>
        <time>2023-09-09T11:26:04Z</time>
      </trkpt>
      <trkpt lat="42.88095" lon="2.38688">
        <ele>679</ele>
        <time>2023-09-09T11:26:05Z</time>
      </trkpt>
      <trkpt lat="42.88096" lon="2.38686">
        <ele>679</ele>
        <time>2023-09-09T11:26:06Z</time>
      </trkpt>
      <trkpt lat="42.88097" lon="2.38684">
        <ele>679</ele>
        <time>2023-09-09T11:26:07Z</time>
      </trkpt>
      <trkpt lat="42.88098" lon="2.38682">
        <ele>679</ele>
        <time>2023-09-09T11:26:08Z</time>
      </trkpt>
      <trkpt lat="42.88099" lon="2.38679">
        <ele>679</ele>
        <time>2023-09-09T11:26:09Z</time>
      </trkpt>
      <trkpt lat="42.881" lon="2.38677">
        <ele>679</ele>
        <time>2023-09-09T11:26:10Z</time>
      </trkpt>
      <trkpt lat="42.88101" lon="2.38674">
        <ele>679</ele>
        <time>2023-09-09T11:26:11Z</time>
      </trkpt>
      <trkpt lat="42.88102" lon="2.38672">
        <ele>679</ele>
        <time>2023-09-09T11:26:12Z</time>
      </trkpt>
      <trkpt lat="42.88104" lon="2.38669">
        <ele>679</ele>
        <time>2023-09-09T11:26:13Z</time>
      </trkpt>
      <trkpt lat="42.88105" lon="2.38666">
        <ele>679</ele>
        <time>2023-09-09T11:26:14Z</time>
      </trkpt>
      <trkpt lat="42.88106" lon="2.38664">
        <ele>679</ele>
        <time>2023-09-09T11:26:15Z</time>
      </trkpt>
      <trkpt lat="42.88107" lon="2.38661">
        <ele>679</ele>
        <time>2023-09-09T11:26:16Z</time>
      </trkpt>
      <trkpt lat="42.88108" lon="2.38659">
        <ele>679</ele>
        <time>2023-09-09T11:26:17Z</time>
      </trkpt>
      <trkpt lat="42.88109" lon="2.38656">
        <ele>679</ele>
        <time>2023-09-09T11:26:18Z</time>
      </trkpt>
      <trkpt lat="42.8811" lon="2.38654">
        <ele>679</ele>
        <time>2023-09-09T11:26:19Z</time>
      </trkpt>
      <trkpt lat="42.88111" lon="2.38651">
        <ele>679</ele>
        <time>2023-09-09T11:26:20Z</time>
      </trkpt>
      <trkpt lat="42.88112" lon="2.38648">
        <ele>679</ele>
        <time>2023-09-09T11:26:21Z</time>
      </trkpt>
      <trkpt lat="42.88113" lon="2.38646">
        <ele>679</ele>
        <time>2023-09-09T11:26:22Z</time>
      </trkpt>
      <trkpt lat="42.88114" lon="2.38643">
        <ele>679</ele>
        <time>2023-09-09T11:26:23Z</time>
      </trkpt>
      <trkpt lat="42.88115" lon="2.38641">
        <ele>679</ele>
        <time>2023-09-09T11:26:24Z</time>
      </trkpt>
      <trkpt lat="42.88116" lon="2.38638">
        <ele>679</ele>
        <time>2023-09-09T11:26:25Z</time>
      </trkpt>
      <trkpt lat="42.88117" lon="2.38636">
        <ele>679</ele>
        <time>2023-09-09T11:26:26Z</time>
      </trkpt>
      <trkpt lat="42.88118" lon="2.38633">
        <ele>679</ele>
        <time>2023-09-09T11:26:27Z</time>
      </trkpt>
      <trkpt lat="42.88119" lon="2.38631">
        <ele>679</ele>
        <time>2023-09-09T11:26:28Z</time>
      </trkpt>
      <trkpt lat="42.8812" lon="2.38628">
        <ele>679</ele>
        <time>2023-09-09T11:26:29Z</time>
      </trkpt>
      <trkpt lat="42.8812" lon="2.38626">
        <ele>679</ele>
        <time>2023-09-09T11:26:30Z</time>
      </trkpt>
      <trkpt lat="42.88121" lon="2.38623">
        <ele>679</ele>
        <time>2023-09-09T11:26:31Z</time>
      </trkpt>
      <trkpt lat="42.88121" lon="2.3862">
        <ele>679</ele>
        <time>2023-09-09T11:26:32Z</time>
      </trkpt>
      <trkpt lat="42.88122" lon="2.38618">
        <ele>679</ele>
        <time>2023-09-09T11:26:33Z</time>
      </trkpt>
      <trkpt lat="42.88122" lon="2.38615">
        <ele>679</ele>
        <time>2023-09-09T11:26:34Z</time>
      </trkpt>
      <trkpt lat="42.88123" lon="2.38613">
        <ele>679</ele>
        <time>2023-09-09T11:26:35Z</time>
      </trkpt>
      <trkpt lat="42.88123" lon="2.3861">
        <ele>679</ele>
        <time>2023-09-09T11:26:36Z</time>
      </trkpt>
      <trkpt lat="42.88123" lon="2.38607">
        <ele>679</ele>
        <time>2023-09-09T11:26:37Z</time>
      </trkpt>
      <trkpt lat="42.88124" lon="2.38605">
        <ele>679</ele>
        <time>2023-09-09T11:26:38Z</time>
      </trkpt>
      <trkpt lat="42.88124" lon="2.38602">
        <ele>679</ele>
        <time>2023-09-09T11:26:39Z</time>
      </trkpt>
      <trkpt lat="42.88124" lon="2.386">
        <ele>679</ele>
        <time>2023-09-09T11:26:40Z</time>
      </trkpt>
      <trkpt lat="42.88124" lon="2.38597">
        <ele>679</ele>
        <time>2023-09-09T11:26:41Z</time>
      </trkpt>
      <trkpt lat="42.88124" lon="2.38594">
        <ele>679</ele>
        <time>2023-09-09T11:26:42Z</time>
      </trkpt>
      <trkpt lat="42.88124" lon="2.38592">
        <ele>679</ele>
        <time>2023-09-09T11:26:43Z</time>
      </trkpt>
      <trkpt lat="42.88124" lon="2.38589">
        <ele>679</ele>
        <time>2023-09-09T11:26:44Z</time>
      </trkpt>
      <trkpt lat="42.88124" lon="2.38587">
        <ele>679</ele>
        <time>2023-09-09T11:26:45Z</time>
      </trkpt>
      <trkpt lat="42.88123" lon="2.38584">
        <ele>679</ele>
        <time>2023-09-09T11:26:46Z</time>
      </trkpt>
      <trkpt lat="42.88123" lon="2.38582">
        <ele>679</ele>
        <time>2023-09-09T11:26:47Z</time>
      </trkpt>
      <trkpt lat="42.88122" lon="2.3858">
        <ele>679</ele>
        <time>2023-09-09T11:26:48Z</time>
      </trkpt>
      <trkpt lat="42.88121" lon="2.38577">
        <ele>679</ele>
        <time>2023-09-09T11:26:49Z</time>
      </trkpt>
      <trkpt lat="42.8812" lon="2.38575">
        <ele>679</ele>
        <time>2023-09-09T11:26:50Z</time>
      </trkpt>
      <trkpt lat="42.88119" lon="2.38573">
        <ele>679</ele>
        <time>2023-09-09T11:26:51Z</time>
      </trkpt>
      <trkpt lat="42.88118" lon="2.38571">
        <ele>679</ele>
        <time>2023-09-09T11:26:52Z</time>
      </trkpt>
      <trkpt lat="42.88117" lon="2.38568">
        <ele>679</ele>
        <time>2023-09-09T11:26:53Z</time>
      </trkpt>
      <trkpt lat="42.88116" lon="2.38566">
        <ele>679</ele>
        <time>2023-09-09T11:26:54Z</time>
      </trkpt>
      <trkpt lat="42.88115" lon="2.38565">
        <ele>679</ele>
        <time>2023-09-09T11:26:55Z</time>
      </trkpt>
      <trkpt lat="42.88113" lon="2.38563">
        <ele>679</ele>
        <time>2023-09-09T11:26:56Z</time>
      </trkpt>
      <trkpt lat="42.88112" lon="2.38561">
        <ele>679</ele>
        <time>2023-09-09T11:26:57Z</time>
      </trkpt>
      <trkpt lat="42.8811" lon="2.38559">
        <ele>679</ele>
        <time>2023-09-09T11:26:58Z</time>
      </trkpt>
      <trkpt lat="42.88109" lon="2.38557">
        <ele>679</ele>
        <time>2023-09-09T11:26:59Z</time>
      </trkpt>
      <trkpt lat="42.88107" lon="2.38555">
        <ele>679</ele>
        <time>2023-09-09T11:27:00Z</time>
      </trkpt>
      <trkpt lat="42.88106" lon="2.38553">
        <ele>679</ele>
        <time>2023-09-09T11:27:01Z</time>
      </trkpt>
      <trkpt lat="42.88104" lon="2.38551">
        <ele>679</ele>
        <time>2023-09-09T11:27:02Z</time>
      </trkpt>
      <trkpt lat="42.88103" lon="2.3855">
        <ele>678</ele>
        <time>2023-09-09T11:27:03Z</time>
      </trkpt>
      <trkpt lat="42.88102" lon="2.38548">
        <ele>678</ele>
        <time>2023-09-09T11:27:04Z</time>
      </trkpt>
      <trkpt lat="42.881" lon="2.38546">
        <ele>678</ele>
        <time>2023-09-09T11:27:05Z</time>
      </trkpt>
      <trkpt lat="42.88099" lon="2.38544">
        <ele>678</ele>
        <time>2023-09-09T11:27:06Z</time>
      </trkpt>
      <trkpt lat="42.88097" lon="2.38542">
        <ele>678</ele>
        <time>2023-09-09T11:27:07Z</time>
      </trkpt>
      <trkpt lat="42.88096" lon="2.3854">
        <ele>678</ele>
        <time>2023-09-09T11:27:08Z</time>
      </trkpt>
      <trkpt lat="42.88094" lon="2.38538">
        <ele>678</ele>
        <time>2023-09-09T11:27:09Z</time>
      </trkpt>
      <trkpt lat="42.88093" lon="2.38537">
        <ele>678</ele>
        <time>2023-09-09T11:27:10Z</time>
      </trkpt>
      <trkpt lat="42.88092" lon="2.38535">
        <ele>678</ele>
        <time>2023-09-09T11:27:11Z</time>
      </trkpt>
      <trkpt lat="42.88091" lon="2.38533">
        <ele>678</ele>
        <time>2023-09-09T11:27:12Z</time>
      </trkpt>
      <trkpt lat="42.8809" lon="2.38531">
        <ele>678</ele>
        <time>2023-09-09T11:27:13Z</time>
      </trkpt>
      <trkpt lat="42.88089" lon="2.3853">
        <ele>678</ele>
        <time>2023-09-09T11:27:14Z</time>
      </trkpt>
      <trkpt lat="42.88087" lon="2.38528">
        <ele>678</ele>
        <time>2023-09-09T11:27:15Z</time>
      </trkpt>
      <trkpt lat="42.88087" lon="2.38525">
        <ele>678</ele>
        <time>2023-09-09T11:27:16Z</time>
      </trkpt>
      <trkpt lat="42.88086" lon="2.38523">
        <ele>679</ele>
        <time>2023-09-09T11:27:17Z</time>
      </trkpt>
      <trkpt lat="42.88085" lon="2.38521">
        <ele>679</ele>
        <time>2023-09-09T11:27:18Z</time>
      </trkpt>
      <trkpt lat="42.88084" lon="2.38519">
        <ele>679</ele>
        <time>2023-09-09T11:27:19Z</time>
      </trkpt>
      <trkpt lat="42.88084" lon="2.38516">
        <ele>679</ele>
        <time>2023-09-09T11:27:20Z</time>
      </trkpt>
      <trkpt lat="42.88083" lon="2.38513">
        <ele>679</ele>
        <time>2023-09-09T11:27:21Z</time>
      </trkpt>
      <trkpt lat="42.88083" lon="2.38511">
        <ele>679</ele>
        <time>2023-09-09T11:27:22Z</time>
      </trkpt>
      <trkpt lat="42.88082" lon="2.38508">
        <ele>679</ele>
        <time>2023-09-09T11:27:23Z</time>
      </trkpt>
      <trkpt lat="42.88082" lon="2.38506">
        <ele>679</ele>
        <time>2023-09-09T11:27:24Z</time>
      </trkpt>
      <trkpt lat="42.88081" lon="2.38503">
        <ele>679</ele>
        <time>2023-09-09T11:27:25Z</time>
      </trkpt>
      <trkpt lat="42.88081" lon="2.385">
        <ele>679</ele>
        <time>2023-09-09T11:27:26Z</time>
      </trkpt>
      <trkpt lat="42.88081" lon="2.38498">
        <ele>679</ele>
        <time>2023-09-09T11:27:27Z</time>
      </trkpt>
      <trkpt lat="42.8808" lon="2.38495">
        <ele>679</ele>
        <time>2023-09-09T11:27:28Z</time>
      </trkpt>
      <trkpt lat="42.8808" lon="2.38492">
        <ele>679</ele>
        <time>2023-09-09T11:27:29Z</time>
      </trkpt>
      <trkpt lat="42.88079" lon="2.3849">
        <ele>679</ele>
        <time>2023-09-09T11:27:30Z</time>
      </trkpt>
      <trkpt lat="42.88079" lon="2.38487">
        <ele>679</ele>
        <time>2023-09-09T11:27:31Z</time>
      </trkpt>
      <trkpt lat="42.88079" lon="2.38485">
        <ele>680</ele>
        <time>2023-09-09T11:27:32Z</time>
      </trkpt>
      <trkpt lat="42.88079" lon="2.38482">
        <ele>680</ele>
        <time>2023-09-09T11:27:33Z</time>
      </trkpt>
      <trkpt lat="42.88078" lon="2.38479">
        <ele>680</ele>
        <time>2023-09-09T11:27:34Z</time>
      </trkpt>
      <trkpt lat="42.88078" lon="2.38476">
        <ele>680</ele>
        <time>2023-09-09T11:27:35Z</time>
      </trkpt>
      <trkpt lat="42.88078" lon="2.38474">
        <ele>680</ele>
        <time>2023-09-09T11:27:36Z</time>
      </trkpt>
      <trkpt lat="42.88078" lon="2.38471">
        <ele>680</ele>
        <time>2023-09-09T11:27:37Z</time>
      </trkpt>
      <trkpt lat="42.88078" lon="2.38468">
        <ele>680</ele>
        <time>2023-09-09T11:27:38Z</time>
      </trkpt>
      <trkpt lat="42.88078" lon="2.38465">
        <ele>680</ele>
        <time>2023-09-09T11:27:39Z</time>
      </trkpt>
      <trkpt lat="42.88077" lon="2.38462">
        <ele>680</ele>
        <time>2023-09-09T11:27:40Z</time>
      </trkpt>
      <trkpt lat="42.88077" lon="2.38459">
        <ele>680</ele>
        <time>2023-09-09T11:27:41Z</time>
      </trkpt>
      <trkpt lat="42.88077" lon="2.38457">
        <ele>681</ele>
        <time>2023-09-09T11:27:42Z</time>
      </trkpt>
      <trkpt lat="42.88077" lon="2.38454">
        <ele>681</ele>
        <time>2023-09-09T11:27:43Z</time>
      </trkpt>
      <trkpt lat="42.88077" lon="2.38451">
        <ele>681</ele>
        <time>2023-09-09T11:27:44Z</time>
      </trkpt>
      <trkpt lat="42.88076" lon="2.38448">
        <ele>681</ele>
        <time>2023-09-09T11:27:45Z</time>
      </trkpt>
      <trkpt lat="42.88076" lon="2.38445">
        <ele>681</ele>
        <time>2023-09-09T11:27:46Z</time>
      </trkpt>
      <trkpt lat="42.88076" lon="2.38442">
        <ele>681</ele>
        <time>2023-09-09T11:27:47Z</time>
      </trkpt>
      <trkpt lat="42.88076" lon="2.3844">
        <ele>681</ele>
        <time>2023-09-09T11:27:48Z</time>
      </trkpt>
      <trkpt lat="42.88076" lon="2.38437">
        <ele>681</ele>
        <time>2023-09-09T11:27:49Z</time>
      </trkpt>
      <trkpt lat="42.88076" lon="2.38434">
        <ele>681</ele>
        <time>2023-09-09T11:27:50Z</time>
      </trkpt>
      <trkpt lat="42.88076" lon="2.38432">
        <ele>681</ele>
        <time>2023-09-09T11:27:51Z</time>
      </trkpt>
      <trkpt lat="42.88076" lon="2.38429">
        <ele>681</ele>
        <time>2023-09-09T11:27:52Z</time>
      </trkpt>
      <trkpt lat="42.88076" lon="2.38426">
        <ele>681</ele>
        <time>2023-09-09T11:27:53Z</time>
      </trkpt>
      <trkpt lat="42.88076" lon="2.38424">
        <ele>681</ele>
        <time>2023-09-09T11:27:54Z</time>
      </trkpt>
      <trkpt lat="42.88076" lon="2.38421">
        <ele>681</ele>
        <time>2023-09-09T11:27:55Z</time>
      </trkpt>
      <trkpt lat="42.88076" lon="2.38418">
        <ele>681</ele>
        <time>2023-09-09T11:27:56Z</time>
      </trkpt>
      <trkpt lat="42.88075" lon="2.38415">
        <ele>681</ele>
        <time>2023-09-09T11:27:57Z</time>
      </trkpt>
      <trkpt lat="42.88075" lon="2.38412">
        <ele>680</ele>
        <time>2023-09-09T11:27:58Z</time>
      </trkpt>
      <trkpt lat="42.88075" lon="2.38409">
        <ele>680</ele>
        <time>2023-09-09T11:27:59Z</time>
      </trkpt>
      <trkpt lat="42.88075" lon="2.38406">
        <ele>680</ele>
        <time>2023-09-09T11:28:00Z</time>
      </trkpt>
      <trkpt lat="42.88075" lon="2.38403">
        <ele>680</ele>
        <time>2023-09-09T11:28:01Z</time>
      </trkpt>
      <trkpt lat="42.88075" lon="2.38401">
        <ele>680</ele>
        <time>2023-09-09T11:28:02Z</time>
      </trkpt>
      <trkpt lat="42.88075" lon="2.38398">
        <ele>680</ele>
        <time>2023-09-09T11:28:03Z</time>
      </trkpt>
      <trkpt lat="42.88075" lon="2.38395">
        <ele>680</ele>
        <time>2023-09-09T11:28:04Z</time>
      </trkpt>
      <trkpt lat="42.88075" lon="2.38392">
        <ele>680</ele>
        <time>2023-09-09T11:28:05Z</time>
      </trkpt>
      <trkpt lat="42.88075" lon="2.38389">
        <ele>680</ele>
        <time>2023-09-09T11:28:06Z</time>
      </trkpt>
      <trkpt lat="42.88074" lon="2.38387">
        <ele>680</ele>
        <time>2023-09-09T11:28:07Z</time>
      </trkpt>
      <trkpt lat="42.88074" lon="2.38384">
        <ele>680</ele>
        <time>2023-09-09T11:28:08Z</time>
      </trkpt>
      <trkpt lat="42.88074" lon="2.38381">
        <ele>680</ele>
        <time>2023-09-09T11:28:09Z</time>
      </trkpt>
      <trkpt lat="42.88073" lon="2.38378">
        <ele>680</ele>
        <time>2023-09-09T11:28:10Z</time>
      </trkpt>
      <trkpt lat="42.88073" lon="2.38376">
        <ele>680</ele>
        <time>2023-09-09T11:28:11Z</time>
      </trkpt>
      <trkpt lat="42.88073" lon="2.38373">
        <ele>680</ele>
        <time>2023-09-09T11:28:12Z</time>
      </trkpt>
      <trkpt lat="42.88073" lon="2.3837">
        <ele>680</ele>
        <time>2023-09-09T11:28:13Z</time>
      </trkpt>
      <trkpt lat="42.88072" lon="2.38368">
        <ele>680</ele>
        <time>2023-09-09T11:28:14Z</time>
      </trkpt>
      <trkpt lat="42.88072" lon="2.38365">
        <ele>680</ele>
        <time>2023-09-09T11:28:15Z</time>
      </trkpt>
      <trkpt lat="42.88072" lon="2.38362">
        <ele>680</ele>
        <time>2023-09-09T11:28:16Z</time>
      </trkpt>
      <trkpt lat="42.88071" lon="2.38359">
        <ele>680</ele>
        <time>2023-09-09T11:28:17Z</time>
      </trkpt>
      <trkpt lat="42.88071" lon="2.38356">
        <ele>679</ele>
        <time>2023-09-09T11:28:18Z</time>
      </trkpt>
      <trkpt lat="42.88071" lon="2.38353">
        <ele>679</ele>
        <time>2023-09-09T11:28:19Z</time>
      </trkpt>
      <trkpt lat="42.8807" lon="2.38351">
        <ele>679</ele>
        <time>2023-09-09T11:28:20Z</time>
      </trkpt>
      <trkpt lat="42.8807" lon="2.38348">
        <ele>679</ele>
        <time>2023-09-09T11:28:21Z</time>
      </trkpt>
      <trkpt lat="42.88069" lon="2.38345">
        <ele>679</ele>
        <time>2023-09-09T11:28:22Z</time>
      </trkpt>
      <trkpt lat="42.88069" lon="2.38342">
        <ele>679</ele>
        <time>2023-09-09T11:28:23Z</time>
      </trkpt>
      <trkpt lat="42.88068" lon="2.38339">
        <ele>679</ele>
        <time>2023-09-09T11:28:24Z</time>
      </trkpt>
      <trkpt lat="42.88068" lon="2.38336">
        <ele>679</ele>
        <time>2023-09-09T11:28:25Z</time>
      </trkpt>
      <trkpt lat="42.88067" lon="2.38333">
        <ele>679</ele>
        <time>2023-09-09T11:28:26Z</time>
      </trkpt>
      <trkpt lat="42.88067" lon="2.38331">
        <ele>679</ele>
        <time>2023-09-09T11:28:27Z</time>
      </trkpt>
      <trkpt lat="42.88066" lon="2.38328">
        <ele>679</ele>
        <time>2023-09-09T11:28:28Z</time>
      </trkpt>
      <trkpt lat="42.88066" lon="2.38325">
        <ele>679</ele>
        <time>2023-09-09T11:28:29Z</time>
      </trkpt>
      <trkpt lat="42.88066" lon="2.38322">
        <ele>679</ele>
        <time>2023-09-09T11:28:30Z</time>
      </trkpt>
      <trkpt lat="42.88065" lon="2.38319">
        <ele>679</ele>
        <time>2023-09-09T11:28:31Z</time>
      </trkpt>
      <trkpt lat="42.88065" lon="2.38317">
        <ele>679</ele>
        <time>2023-09-09T11:28:32Z</time>
      </trkpt>
      <trkpt lat="42.88064" lon="2.38314">
        <ele>679</ele>
        <time>2023-09-09T11:28:33Z</time>
      </trkpt>
      <trkpt lat="42.88063" lon="2.38311">
        <ele>679</ele>
        <time>2023-09-09T11:28:34Z</time>
      </trkpt>
      <trkpt lat="42.88063" lon="2.38308">
        <ele>679</ele>
        <time>2023-09-09T11:28:35Z</time>
      </trkpt>
      <trkpt lat="42.88062" lon="2.38305">
        <ele>679</ele>
        <time>2023-09-09T11:28:36Z</time>
      </trkpt>
      <trkpt lat="42.88062" lon="2.38302">
        <ele>679</ele>
        <time>2023-09-09T11:28:37Z</time>
      </trkpt>
      <trkpt lat="42.88061" lon="2.38299">
        <ele>679</ele>
        <time>2023-09-09T11:28:38Z</time>
      </trkpt>
      <trkpt lat="42.88061" lon="2.38297">
        <ele>679</ele>
        <time>2023-09-09T11:28:39Z</time>
      </trkpt>
      <trkpt lat="42.8806" lon="2.38294">
        <ele>679</ele>
        <time>2023-09-09T11:28:40Z</time>
      </trkpt>
      <trkpt lat="42.8806" lon="2.38291">
        <ele>679</ele>
        <time>2023-09-09T11:28:41Z</time>
      </trkpt>
      <trkpt lat="42.88059" lon="2.38289">
        <ele>679</ele>
        <time>2023-09-09T11:28:42Z</time>
      </trkpt>
      <trkpt lat="42.88059" lon="2.38286">
        <ele>679</ele>
        <time>2023-09-09T11:28:43Z</time>
      </trkpt>
      <trkpt lat="42.88058" lon="2.38283">
        <ele>679</ele>
        <time>2023-09-09T11:28:44Z</time>
      </trkpt>
      <trkpt lat="42.88057" lon="2.3828">
        <ele>679</ele>
        <time>2023-09-09T11:28:45Z</time>
      </trkpt>
      <trkpt lat="42.88057" lon="2.38277">
        <ele>679</ele>
        <time>2023-09-09T11:28:46Z</time>
      </trkpt>
      <trkpt lat="42.88056" lon="2.38274">
        <ele>679</ele>
        <time>2023-09-09T11:28:47Z</time>
      </trkpt>
      <trkpt lat="42.88056" lon="2.38271">
        <ele>678</ele>
        <time>2023-09-09T11:28:48Z</time>
      </trkpt>
      <trkpt lat="42.88055" lon="2.38268">
        <ele>678</ele>
        <time>2023-09-09T11:28:49Z</time>
      </trkpt>
      <trkpt lat="42.88055" lon="2.38265">
        <ele>678</ele>
        <time>2023-09-09T11:28:50Z</time>
      </trkpt>
      <trkpt lat="42.88055" lon="2.38262">
        <ele>678</ele>
        <time>2023-09-09T11:28:51Z</time>
      </trkpt>
      <trkpt lat="42.88054" lon="2.3826">
        <ele>678</ele>
        <time>2023-09-09T11:28:52Z</time>
      </trkpt>
      <trkpt lat="42.88054" lon="2.38257">
        <ele>678</ele>
        <time>2023-09-09T11:28:53Z</time>
      </trkpt>
      <trkpt lat="42.88054" lon="2.38254">
        <ele>678</ele>
        <time>2023-09-09T11:28:54Z</time>
      </trkpt>
      <trkpt lat="42.88053" lon="2.38251">
        <ele>678</ele>
        <time>2023-09-09T11:28:55Z</time>
      </trkpt>
      <trkpt lat="42.88053" lon="2.38248">
        <ele>678</ele>
        <time>2023-09-09T11:28:56Z</time>
      </trkpt>
      <trkpt lat="42.88053" lon="2.38244">
        <ele>678</ele>
        <time>2023-09-09T11:28:57Z</time>
      </trkpt>
      <trkpt lat="42.88053" lon="2.38241">
        <ele>677</ele>
        <time>2023-09-09T11:28:58Z</time>
      </trkpt>
      <trkpt lat="42.88053" lon="2.38238">
        <ele>677</ele>
        <time>2023-09-09T11:28:59Z</time>
      </trkpt>
      <trkpt lat="42.88054" lon="2.38235">
        <ele>677</ele>
        <time>2023-09-09T11:29:00Z</time>
      </trkpt>
      <trkpt lat="42.88054" lon="2.38232">
        <ele>677</ele>
        <time>2023-09-09T11:29:01Z</time>
      </trkpt>
      <trkpt lat="42.88054" lon="2.38229">
        <ele>677</ele>
        <time>2023-09-09T11:29:02Z</time>
      </trkpt>
      <trkpt lat="42.88054" lon="2.38226">
        <ele>677</ele>
        <time>2023-09-09T11:29:03Z</time>
      </trkpt>
      <trkpt lat="42.88054" lon="2.38223">
        <ele>677</ele>
        <time>2023-09-09T11:29:04Z</time>
      </trkpt>
      <trkpt lat="42.88054" lon="2.3822">
        <ele>677</ele>
        <time>2023-09-09T11:29:05Z</time>
      </trkpt>
      <trkpt lat="42.88054" lon="2.38217">
        <ele>677</ele>
        <time>2023-09-09T11:29:06Z</time>
      </trkpt>
      <trkpt lat="42.88054" lon="2.38214">
        <ele>677</ele>
        <time>2023-09-09T11:29:07Z</time>
      </trkpt>
      <trkpt lat="42.88054" lon="2.38211">
        <ele>677</ele>
        <time>2023-09-09T11:29:08Z</time>
      </trkpt>
      <trkpt lat="42.88055" lon="2.38208">
        <ele>677</ele>
        <time>2023-09-09T11:29:09Z</time>
      </trkpt>
      <trkpt lat="42.88055" lon="2.38205">
        <ele>677</ele>
        <time>2023-09-09T11:29:10Z</time>
      </trkpt>
      <trkpt lat="42.88055" lon="2.38203">
        <ele>677</ele>
        <time>2023-09-09T11:29:11Z</time>
      </trkpt>
      <trkpt lat="42.88055" lon="2.382">
        <ele>677</ele>
        <time>2023-09-09T11:29:12Z</time>
      </trkpt>
      <trkpt lat="42.88055" lon="2.38197">
        <ele>677</ele>
        <time>2023-09-09T11:29:13Z</time>
      </trkpt>
      <trkpt lat="42.88055" lon="2.38194">
        <ele>677</ele>
        <time>2023-09-09T11:29:14Z</time>
      </trkpt>
      <trkpt lat="42.88055" lon="2.38191">
        <ele>677</ele>
        <time>2023-09-09T11:29:15Z</time>
      </trkpt>
      <trkpt lat="42.88055" lon="2.38188">
        <ele>677</ele>
        <time>2023-09-09T11:29:16Z</time>
      </trkpt>
      <trkpt lat="42.88056" lon="2.38184">
        <ele>677</ele>
        <time>2023-09-09T11:29:17Z</time>
      </trkpt>
      <trkpt lat="42.88056" lon="2.38181">
        <ele>677</ele>
        <time>2023-09-09T11:29:18Z</time>
      </trkpt>
      <trkpt lat="42.88056" lon="2.38178">
        <ele>677</ele>
        <time>2023-09-09T11:29:19Z</time>
      </trkpt>
      <trkpt lat="42.88057" lon="2.38175">
        <ele>677</ele>
        <time>2023-09-09T11:29:20Z</time>
      </trkpt>
      <trkpt lat="42.88057" lon="2.38172">
        <ele>677</ele>
        <time>2023-09-09T11:29:21Z</time>
      </trkpt>
      <trkpt lat="42.88057" lon="2.38169">
        <ele>677</ele>
        <time>2023-09-09T11:29:22Z</time>
      </trkpt>
      <trkpt lat="42.88057" lon="2.38166">
        <ele>676</ele>
        <time>2023-09-09T11:29:23Z</time>
      </trkpt>
      <trkpt lat="42.88057" lon="2.38163">
        <ele>676</ele>
        <time>2023-09-09T11:29:24Z</time>
      </trkpt>
      <trkpt lat="42.88058" lon="2.3816">
        <ele>676</ele>
        <time>2023-09-09T11:29:25Z</time>
      </trkpt>
      <trkpt lat="42.88058" lon="2.38157">
        <ele>676</ele>
        <time>2023-09-09T11:29:26Z</time>
      </trkpt>
      <trkpt lat="42.88058" lon="2.38154">
        <ele>676</ele>
        <time>2023-09-09T11:29:27Z</time>
      </trkpt>
      <trkpt lat="42.88058" lon="2.38152">
        <ele>676</ele>
        <time>2023-09-09T11:29:28Z</time>
      </trkpt>
      <trkpt lat="42.88058" lon="2.38149">
        <ele>676</ele>
        <time>2023-09-09T11:29:29Z</time>
      </trkpt>
      <trkpt lat="42.88058" lon="2.38146">
        <ele>676</ele>
        <time>2023-09-09T11:29:30Z</time>
      </trkpt>
      <trkpt lat="42.88058" lon="2.38143">
        <ele>676</ele>
        <time>2023-09-09T11:29:31Z</time>
      </trkpt>
      <trkpt lat="42.88058" lon="2.3814">
        <ele>676</ele>
        <time>2023-09-09T11:29:32Z</time>
      </trkpt>
      <trkpt lat="42.88058" lon="2.38138">
        <ele>675</ele>
        <time>2023-09-09T11:29:33Z</time>
      </trkpt>
      <trkpt lat="42.88058" lon="2.38135">
        <ele>675</ele>
        <time>2023-09-09T11:29:34Z</time>
      </trkpt>
      <trkpt lat="42.88058" lon="2.38132">
        <ele>675</ele>
        <time>2023-09-09T11:29:35Z</time>
      </trkpt>
      <trkpt lat="42.88058" lon="2.38129">
        <ele>675</ele>
        <time>2023-09-09T11:29:36Z</time>
      </trkpt>
      <trkpt lat="42.88058" lon="2.38125">
        <ele>675</ele>
        <time>2023-09-09T11:29:37Z</time>
      </trkpt>
      <trkpt lat="42.88058" lon="2.38122">
        <ele>674</ele>
        <time>2023-09-09T11:29:38Z</time>
      </trkpt>
      <trkpt lat="42.88058" lon="2.38119">
        <ele>674</ele>
        <time>2023-09-09T11:29:39Z</time>
      </trkpt>
      <trkpt lat="42.88057" lon="2.38116">
        <ele>674</ele>
        <time>2023-09-09T11:29:40Z</time>
      </trkpt>
      <trkpt lat="42.88057" lon="2.38113">
        <ele>674</ele>
        <time>2023-09-09T11:29:41Z</time>
      </trkpt>
      <trkpt lat="42.88056" lon="2.38111">
        <ele>674</ele>
        <time>2023-09-09T11:29:42Z</time>
      </trkpt>
      <trkpt lat="42.88055" lon="2.38108">
        <ele>673</ele>
        <time>2023-09-09T11:29:43Z</time>
      </trkpt>
      <trkpt lat="42.88054" lon="2.38105">
        <ele>673</ele>
        <time>2023-09-09T11:29:44Z</time>
      </trkpt>
      <trkpt lat="42.88054" lon="2.38102">
        <ele>673</ele>
        <time>2023-09-09T11:29:45Z</time>
      </trkpt>
      <trkpt lat="42.88053" lon="2.381">
        <ele>673</ele>
        <time>2023-09-09T11:29:46Z</time>
      </trkpt>
      <trkpt lat="42.88052" lon="2.38097">
        <ele>673</ele>
        <time>2023-09-09T11:29:47Z</time>
      </trkpt>
      <trkpt lat="42.88051" lon="2.38094">
        <ele>673</ele>
        <time>2023-09-09T11:29:48Z</time>
      </trkpt>
      <trkpt lat="42.88051" lon="2.38091">
        <ele>673</ele>
        <time>2023-09-09T11:29:49Z</time>
      </trkpt>
      <trkpt lat="42.8805" lon="2.38089">
        <ele>673</ele>
        <time>2023-09-09T11:29:50Z</time>
      </trkpt>
      <trkpt lat="42.88049" lon="2.38086">
        <ele>673</ele>
        <time>2023-09-09T11:29:51Z</time>
      </trkpt>
      <trkpt lat="42.88049" lon="2.38083">
        <ele>673</ele>
        <time>2023-09-09T11:29:52Z</time>
      </trkpt>
      <trkpt lat="42.88049" lon="2.38079">
        <ele>672</ele>
        <time>2023-09-09T11:29:53Z</time>
      </trkpt>
      <trkpt lat="42.88048" lon="2.38076">
        <ele>672</ele>
        <time>2023-09-09T11:29:54Z</time>
      </trkpt>
      <trkpt lat="42.88048" lon="2.38073">
        <ele>672</ele>
        <time>2023-09-09T11:29:55Z</time>
      </trkpt>
      <trkpt lat="42.88048" lon="2.3807">
        <ele>672</ele>
        <time>2023-09-09T11:29:56Z</time>
      </trkpt>
      <trkpt lat="42.88047" lon="2.38066">
        <ele>672</ele>
        <time>2023-09-09T11:29:57Z</time>
      </trkpt>
      <trkpt lat="42.88047" lon="2.38063">
        <ele>672</ele>
        <time>2023-09-09T11:29:58Z</time>
      </trkpt>
      <trkpt lat="42.88047" lon="2.3806">
        <ele>672</ele>
        <time>2023-09-09T11:29:59Z</time>
      </trkpt>
      <trkpt lat="42.88047" lon="2.38057">
        <ele>672</ele>
        <time>2023-09-09T11:30:00Z</time>
      </trkpt>
      <trkpt lat="42.88047" lon="2.38054">
        <ele>672</ele>
        <time>2023-09-09T11:30:01Z</time>
      </trkpt>
      <trkpt lat="42.88047" lon="2.38051">
        <ele>672</ele>
        <time>2023-09-09T11:30:02Z</time>
      </trkpt>
      <trkpt lat="42.88047" lon="2.38048">
        <ele>672</ele>
        <time>2023-09-09T11:30:03Z</time>
      </trkpt>
      <trkpt lat="42.88047" lon="2.38045">
        <ele>672</ele>
        <time>2023-09-09T11:30:04Z</time>
      </trkpt>
      <trkpt lat="42.88048" lon="2.38042">
        <ele>672</ele>
        <time>2023-09-09T11:30:05Z</time>
      </trkpt>
      <trkpt lat="42.88047" lon="2.3804">
        <ele>672</ele>
        <time>2023-09-09T11:30:06Z</time>
      </trkpt>
      <trkpt lat="42.88047" lon="2.38038">
        <ele>672</ele>
        <time>2023-09-09T11:30:07Z</time>
      </trkpt>
      <trkpt lat="42.88047" lon="2.38035">
        <ele>672</ele>
        <time>2023-09-09T11:30:08Z</time>
      </trkpt>
      <trkpt lat="42.88046" lon="2.38033">
        <ele>672</ele>
        <time>2023-09-09T11:30:09Z</time>
      </trkpt>
      <trkpt lat="42.88045" lon="2.38031">
        <ele>672</ele>
        <time>2023-09-09T11:30:10Z</time>
      </trkpt>
      <trkpt lat="42.88044" lon="2.38029">
        <ele>672</ele>
        <time>2023-09-09T11:30:11Z</time>
      </trkpt>
      <trkpt lat="42.88043" lon="2.38026">
        <ele>672</ele>
        <time>2023-09-09T11:30:12Z</time>
      </trkpt>
      <trkpt lat="42.88043" lon="2.38024">
        <ele>672</ele>
        <time>2023-09-09T11:30:13Z</time>
      </trkpt>
      <trkpt lat="42.88042" lon="2.38022">
        <ele>672</ele>
        <time>2023-09-09T11:30:14Z</time>
      </trkpt>
      <trkpt lat="42.88041" lon="2.3802">
        <ele>672</ele>
        <time>2023-09-09T11:30:15Z</time>
      </trkpt>
      <trkpt lat="42.8804" lon="2.38017">
        <ele>672</ele>
        <time>2023-09-09T11:30:16Z</time>
      </trkpt>
      <trkpt lat="42.88039" lon="2.38015">
        <ele>672</ele>
        <time>2023-09-09T11:30:17Z</time>
      </trkpt>
      <trkpt lat="42.88038" lon="2.38013">
        <ele>671</ele>
        <time>2023-09-09T11:30:18Z</time>
      </trkpt>
      <trkpt lat="42.88038" lon="2.3801">
        <ele>671</ele>
        <time>2023-09-09T11:30:19Z</time>
      </trkpt>
      <trkpt lat="42.88037" lon="2.38008">
        <ele>671</ele>
        <time>2023-09-09T11:30:20Z</time>
      </trkpt>
      <trkpt lat="42.88036" lon="2.38005">
        <ele>671</ele>
        <time>2023-09-09T11:30:21Z</time>
      </trkpt>
      <trkpt lat="42.88036" lon="2.38003">
        <ele>671</ele>
        <time>2023-09-09T11:30:22Z</time>
      </trkpt>
      <trkpt lat="42.88035" lon="2.38001">
        <ele>671</ele>
        <time>2023-09-09T11:30:23Z</time>
      </trkpt>
      <trkpt lat="42.88034" lon="2.37998">
        <ele>671</ele>
        <time>2023-09-09T11:30:24Z</time>
      </trkpt>
      <trkpt lat="42.88034" lon="2.37996">
        <ele>671</ele>
        <time>2023-09-09T11:30:25Z</time>
      </trkpt>
      <trkpt lat="42.88033" lon="2.37993">
        <ele>671</ele>
        <time>2023-09-09T11:30:26Z</time>
      </trkpt>
      <trkpt lat="42.88033" lon="2.37991">
        <ele>671</ele>
        <time>2023-09-09T11:30:27Z</time>
      </trkpt>
      <trkpt lat="42.88032" lon="2.37988">
        <ele>670</ele>
        <time>2023-09-09T11:30:28Z</time>
      </trkpt>
      <trkpt lat="42.88031" lon="2.37986">
        <ele>670</ele>
        <time>2023-09-09T11:30:29Z</time>
      </trkpt>
      <trkpt lat="42.88031" lon="2.37983">
        <ele>670</ele>
        <time>2023-09-09T11:30:30Z</time>
      </trkpt>
      <trkpt lat="42.8803" lon="2.37981">
        <ele>670</ele>
        <time>2023-09-09T11:30:31Z</time>
      </trkpt>
      <trkpt lat="42.8803" lon="2.37978">
        <ele>670</ele>
        <time>2023-09-09T11:30:32Z</time>
      </trkpt>
      <trkpt lat="42.88029" lon="2.37976">
        <ele>670</ele>
        <time>2023-09-09T11:30:33Z</time>
      </trkpt>
      <trkpt lat="42.88029" lon="2.37973">
        <ele>670</ele>
        <time>2023-09-09T11:30:34Z</time>
      </trkpt>
      <trkpt lat="42.88028" lon="2.37971">
        <ele>670</ele>
        <time>2023-09-09T11:30:35Z</time>
      </trkpt>
      <trkpt lat="42.88028" lon="2.37968">
        <ele>670</ele>
        <time>2023-09-09T11:30:36Z</time>
      </trkpt>
      <trkpt lat="42.88028" lon="2.37966">
        <ele>670</ele>
        <time>2023-09-09T11:30:37Z</time>
      </trkpt>
      <trkpt lat="42.88027" lon="2.37963">
        <ele>669</ele>
        <time>2023-09-09T11:30:38Z</time>
      </trkpt>
      <trkpt lat="42.88027" lon="2.37961">
        <ele>669</ele>
        <time>2023-09-09T11:30:39Z</time>
      </trkpt>
      <trkpt lat="42.88026" lon="2.37958">
        <ele>668</ele>
        <time>2023-09-09T11:30:40Z</time>
      </trkpt>
      <trkpt lat="42.88026" lon="2.37955">
        <ele>668</ele>
        <time>2023-09-09T11:30:41Z</time>
      </trkpt>
      <trkpt lat="42.88025" lon="2.37953">
        <ele>668</ele>
        <time>2023-09-09T11:30:42Z</time>
      </trkpt>
      <trkpt lat="42.88025" lon="2.3795">
        <ele>667</ele>
        <time>2023-09-09T11:30:43Z</time>
      </trkpt>
      <trkpt lat="42.88024" lon="2.37948">
        <ele>667</ele>
        <time>2023-09-09T11:30:44Z</time>
      </trkpt>
      <trkpt lat="42.88024" lon="2.37945">
        <ele>667</ele>
        <time>2023-09-09T11:30:45Z</time>
      </trkpt>
      <trkpt lat="42.88023" lon="2.37943">
        <ele>667</ele>
        <time>2023-09-09T11:30:46Z</time>
      </trkpt>
      <trkpt lat="42.88022" lon="2.37941">
        <ele>667</ele>
        <time>2023-09-09T11:30:47Z</time>
      </trkpt>
      <trkpt lat="42.88022" lon="2.37938">
        <ele>667</ele>
        <time>2023-09-09T11:30:48Z</time>
      </trkpt>
      <trkpt lat="42.88021" lon="2.37935">
        <ele>667</ele>
        <time>2023-09-09T11:30:49Z</time>
      </trkpt>
      <trkpt lat="42.88021" lon="2.37933">
        <ele>667</ele>
        <time>2023-09-09T11:30:50Z</time>
      </trkpt>
      <trkpt lat="42.8802" lon="2.3793">
        <ele>667</ele>
        <time>2023-09-09T11:30:51Z</time>
      </trkpt>
      <trkpt lat="42.8802" lon="2.37928">
        <ele>667</ele>
        <time>2023-09-09T11:30:52Z</time>
      </trkpt>
      <trkpt lat="42.88019" lon="2.37925">
        <ele>666</ele>
        <time>2023-09-09T11:30:53Z</time>
      </trkpt>
      <trkpt lat="42.88019" lon="2.37923">
        <ele>666</ele>
        <time>2023-09-09T11:30:54Z</time>
      </trkpt>
      <trkpt lat="42.88019" lon="2.3792">
        <ele>666</ele>
        <time>2023-09-09T11:30:55Z</time>
      </trkpt>
      <trkpt lat="42.88018" lon="2.37918">
        <ele>666</ele>
        <time>2023-09-09T11:30:56Z</time>
      </trkpt>
      <trkpt lat="42.88018" lon="2.37916">
        <ele>666</ele>
        <time>2023-09-09T11:30:57Z</time>
      </trkpt>
      <trkpt lat="42.88017" lon="2.37914">
        <ele>665</ele>
        <time>2023-09-09T11:30:58Z</time>
      </trkpt>
      <trkpt lat="42.88016" lon="2.37911">
        <ele>665</ele>
        <time>2023-09-09T11:30:59Z</time>
      </trkpt>
      <trkpt lat="42.88016" lon="2.37909">
        <ele>665</ele>
        <time>2023-09-09T11:31:00Z</time>
      </trkpt>
      <trkpt lat="42.88015" lon="2.37907">
        <ele>665</ele>
        <time>2023-09-09T11:31:01Z</time>
      </trkpt>
      <trkpt lat="42.88014" lon="2.37904">
        <ele>665</ele>
        <time>2023-09-09T11:31:02Z</time>
      </trkpt>
      <trkpt lat="42.88013" lon="2.37902">
        <ele>664</ele>
        <time>2023-09-09T11:31:03Z</time>
      </trkpt>
      <trkpt lat="42.88013" lon="2.37899">
        <ele>664</ele>
        <time>2023-09-09T11:31:04Z</time>
      </trkpt>
      <trkpt lat="42.88012" lon="2.37896">
        <ele>663</ele>
        <time>2023-09-09T11:31:05Z</time>
      </trkpt>
      <trkpt lat="42.88012" lon="2.37894">
        <ele>663</ele>
        <time>2023-09-09T11:31:06Z</time>
      </trkpt>
      <trkpt lat="42.88012" lon="2.37891">
        <ele>663</ele>
        <time>2023-09-09T11:31:07Z</time>
      </trkpt>
      <trkpt lat="42.88011" lon="2.37888">
        <ele>662</ele>
        <time>2023-09-09T11:31:08Z</time>
      </trkpt>
      <trkpt lat="42.88011" lon="2.37886">
        <ele>662</ele>
        <time>2023-09-09T11:31:09Z</time>
      </trkpt>
      <trkpt lat="42.88011" lon="2.37883">
        <ele>662</ele>
        <time>2023-09-09T11:31:10Z</time>
      </trkpt>
      <trkpt lat="42.8801" lon="2.3788">
        <ele>662</ele>
        <time>2023-09-09T11:31:11Z</time>
      </trkpt>
      <trkpt lat="42.8801" lon="2.37878">
        <ele>662</ele>
        <time>2023-09-09T11:31:12Z</time>
      </trkpt>
      <trkpt lat="42.8801" lon="2.37875">
        <ele>661</ele>
        <time>2023-09-09T11:31:13Z</time>
      </trkpt>
      <trkpt lat="42.8801" lon="2.37873">
        <ele>661</ele>
        <time>2023-09-09T11:31:14Z</time>
      </trkpt>
      <trkpt lat="42.88009" lon="2.3787">
        <ele>661</ele>
        <time>2023-09-09T11:31:15Z</time>
      </trkpt>
      <trkpt lat="42.88009" lon="2.37867">
        <ele>661</ele>
        <time>2023-09-09T11:31:16Z</time>
      </trkpt>
      <trkpt lat="42.88009" lon="2.37865">
        <ele>661</ele>
        <time>2023-09-09T11:31:17Z</time>
      </trkpt>
      <trkpt lat="42.88008" lon="2.37862">
        <ele>660</ele>
        <time>2023-09-09T11:31:18Z</time>
      </trkpt>
      <trkpt lat="42.88008" lon="2.3786">
        <ele>660</ele>
        <time>2023-09-09T11:31:19Z</time>
      </trkpt>
      <trkpt lat="42.88008" lon="2.37857">
        <ele>660</ele>
        <time>2023-09-09T11:31:20Z</time>
      </trkpt>
      <trkpt lat="42.88007" lon="2.37855">
        <ele>660</ele>
        <time>2023-09-09T11:31:21Z</time>
      </trkpt>
      <trkpt lat="42.88007" lon="2.37852">
        <ele>660</ele>
        <time>2023-09-09T11:31:22Z</time>
      </trkpt>
      <trkpt lat="42.88006" lon="2.37849">
        <ele>660</ele>
        <time>2023-09-09T11:31:23Z</time>
      </trkpt>
      <trkpt lat="42.88006" lon="2.37847">
        <ele>660</ele>
        <time>2023-09-09T11:31:24Z</time>
      </trkpt>
      <trkpt lat="42.88005" lon="2.37844">
        <ele>660</ele>
        <time>2023-09-09T11:31:25Z</time>
      </trkpt>
      <trkpt lat="42.88004" lon="2.37842">
        <ele>660</ele>
        <time>2023-09-09T11:31:26Z</time>
      </trkpt>
      <trkpt lat="42.88003" lon="2.3784">
        <ele>660</ele>
        <time>2023-09-09T11:31:27Z</time>
      </trkpt>
      <trkpt lat="42.88003" lon="2.37838">
        <ele>659</ele>
        <time>2023-09-09T11:31:28Z</time>
      </trkpt>
      <trkpt lat="42.88002" lon="2.37836">
        <ele>659</ele>
        <time>2023-09-09T11:31:29Z</time>
      </trkpt>
      <trkpt lat="42.88001" lon="2.37834">
        <ele>659</ele>
        <time>2023-09-09T11:31:30Z</time>
      </trkpt>
      <trkpt lat="42.88" lon="2.37833">
        <ele>659</ele>
        <time>2023-09-09T11:31:31Z</time>
      </trkpt>
      <trkpt lat="42.87999" lon="2.37832">
        <ele>659</ele>
        <time>2023-09-09T11:31:32Z</time>
      </trkpt>
      <trkpt lat="42.87998" lon="2.37831">
        <ele>659</ele>
        <time>2023-09-09T11:31:33Z</time>
      </trkpt>
      <trkpt lat="42.87996" lon="2.3783">
        <ele>659</ele>
        <time>2023-09-09T11:31:34Z</time>
      </trkpt>
      <trkpt lat="42.87995" lon="2.37829">
        <ele>659</ele>
        <time>2023-09-09T11:31:35Z</time>
      </trkpt>
      <trkpt lat="42.87993" lon="2.37828">
        <ele>659</ele>
        <time>2023-09-09T11:31:36Z</time>
      </trkpt>
      <trkpt lat="42.87992" lon="2.37828">
        <ele>659</ele>
        <time>2023-09-09T11:31:37Z</time>
      </trkpt>
      <trkpt lat="42.8799" lon="2.37827">
        <ele>658</ele>
        <time>2023-09-09T11:31:38Z</time>
      </trkpt>
      <trkpt lat="42.87989" lon="2.37826">
        <ele>658</ele>
        <time>2023-09-09T11:31:39Z</time>
      </trkpt>
      <trkpt lat="42.87987" lon="2.37825">
        <ele>658</ele>
        <time>2023-09-09T11:31:40Z</time>
      </trkpt>
      <trkpt lat="42.87985" lon="2.37825">
        <ele>658</ele>
        <time>2023-09-09T11:31:41Z</time>
      </trkpt>
      <trkpt lat="42.87984" lon="2.37824">
        <ele>658</ele>
        <time>2023-09-09T11:31:42Z</time>
      </trkpt>
      <trkpt lat="42.87982" lon="2.37822">
        <ele>657</ele>
        <time>2023-09-09T11:31:43Z</time>
      </trkpt>
      <trkpt lat="42.8798" lon="2.37821">
        <ele>657</ele>
        <time>2023-09-09T11:31:44Z</time>
      </trkpt>
      <trkpt lat="42.87979" lon="2.37819">
        <ele>657</ele>
        <time>2023-09-09T11:31:45Z</time>
      </trkpt>
      <trkpt lat="42.87977" lon="2.37818">
        <ele>657</ele>
        <time>2023-09-09T11:31:46Z</time>
      </trkpt>
      <trkpt lat="42.87976" lon="2.37816">
        <ele>657</ele>
        <time>2023-09-09T11:31:47Z</time>
      </trkpt>
      <trkpt lat="42.87974" lon="2.37814">
        <ele>656</ele>
        <time>2023-09-09T11:31:48Z</time>
      </trkpt>
      <trkpt lat="42.87973" lon="2.37812">
        <ele>656</ele>
        <time>2023-09-09T11:31:49Z</time>
      </trkpt>
      <trkpt lat="42.87972" lon="2.37809">
        <ele>656</ele>
        <time>2023-09-09T11:31:50Z</time>
      </trkpt>
      <trkpt lat="42.87971" lon="2.37807">
        <ele>656</ele>
        <time>2023-09-09T11:31:51Z</time>
      </trkpt>
      <trkpt lat="42.87971" lon="2.37804">
        <ele>656</ele>
        <time>2023-09-09T11:31:52Z</time>
      </trkpt>
      <trkpt lat="42.87971" lon="2.37802">
        <ele>655</ele>
        <time>2023-09-09T11:31:53Z</time>
      </trkpt>
      <trkpt lat="42.87972" lon="2.37799">
        <ele>655</ele>
        <time>2023-09-09T11:31:54Z</time>
      </trkpt>
      <trkpt lat="42.87973" lon="2.37797">
        <ele>655</ele>
        <time>2023-09-09T11:31:55Z</time>
      </trkpt>
      <trkpt lat="42.87974" lon="2.37795">
        <ele>655</ele>
        <time>2023-09-09T11:31:56Z</time>
      </trkpt>
      <trkpt lat="42.87976" lon="2.37793">
        <ele>655</ele>
        <time>2023-09-09T11:31:57Z</time>
      </trkpt>
      <trkpt lat="42.87977" lon="2.37792">
        <ele>655</ele>
        <time>2023-09-09T11:31:58Z</time>
      </trkpt>
      <trkpt lat="42.87979" lon="2.37791">
        <ele>655</ele>
        <time>2023-09-09T11:31:59Z</time>
      </trkpt>
      <trkpt lat="42.87981" lon="2.3779">
        <ele>655</ele>
        <time>2023-09-09T11:32:00Z</time>
      </trkpt>
      <trkpt lat="42.87983" lon="2.37789">
        <ele>655</ele>
        <time>2023-09-09T11:32:01Z</time>
      </trkpt>
      <trkpt lat="42.87985" lon="2.37789">
        <ele>655</ele>
        <time>2023-09-09T11:32:02Z</time>
      </trkpt>
      <trkpt lat="42.87987" lon="2.37788">
        <ele>654</ele>
        <time>2023-09-09T11:32:03Z</time>
      </trkpt>
      <trkpt lat="42.87989" lon="2.37787">
        <ele>654</ele>
        <time>2023-09-09T11:32:04Z</time>
      </trkpt>
      <trkpt lat="42.87991" lon="2.37787">
        <ele>654</ele>
        <time>2023-09-09T11:32:05Z</time>
      </trkpt>
      <trkpt lat="42.87992" lon="2.37786">
        <ele>654</ele>
        <time>2023-09-09T11:32:06Z</time>
      </trkpt>
      <trkpt lat="42.87994" lon="2.37785">
        <ele>654</ele>
        <time>2023-09-09T11:32:07Z</time>
      </trkpt>
      <trkpt lat="42.87995" lon="2.37784">
        <ele>654</ele>
        <time>2023-09-09T11:32:08Z</time>
      </trkpt>
      <trkpt lat="42.87996" lon="2.37783">
        <ele>654</ele>
        <time>2023-09-09T11:32:09Z</time>
      </trkpt>
      <trkpt lat="42.87997" lon="2.37781">
        <ele>654</ele>
        <time>2023-09-09T11:32:10Z</time>
      </trkpt>
      <trkpt lat="42.87998" lon="2.3778">
        <ele>654</ele>
        <time>2023-09-09T11:32:11Z</time>
      </trkpt>
      <trkpt lat="42.87999" lon="2.37777">
        <ele>654</ele>
        <time>2023-09-09T11:32:12Z</time>
      </trkpt>
      <trkpt lat="42.87999" lon="2.37775">
        <ele>654</ele>
        <time>2023-09-09T11:32:13Z</time>
      </trkpt>
      <trkpt lat="42.87999" lon="2.37772">
        <ele>654</ele>
        <time>2023-09-09T11:32:14Z</time>
      </trkpt>
      <trkpt lat="42.87999" lon="2.3777">
        <ele>654</ele>
        <time>2023-09-09T11:32:15Z</time>
      </trkpt>
      <trkpt lat="42.87999" lon="2.37767">
        <ele>654</ele>
        <time>2023-09-09T11:32:16Z</time>
      </trkpt>
      <trkpt lat="42.87999" lon="2.37764">
        <ele>654</ele>
        <time>2023-09-09T11:32:17Z</time>
      </trkpt>
      <trkpt lat="42.88" lon="2.37761">
        <ele>654</ele>
        <time>2023-09-09T11:32:18Z</time>
      </trkpt>
      <trkpt lat="42.88" lon="2.37759">
        <ele>654</ele>
        <time>2023-09-09T11:32:19Z</time>
      </trkpt>
      <trkpt lat="42.88" lon="2.37756">
        <ele>654</ele>
        <time>2023-09-09T11:32:20Z</time>
      </trkpt>
      <trkpt lat="42.88" lon="2.37753">
        <ele>654</ele>
        <time>2023-09-09T11:32:21Z</time>
      </trkpt>
      <trkpt lat="42.88" lon="2.37751">
        <ele>654</ele>
        <time>2023-09-09T11:32:22Z</time>
      </trkpt>
      <trkpt lat="42.88001" lon="2.37748">
        <ele>654</ele>
        <time>2023-09-09T11:32:23Z</time>
      </trkpt>
      <trkpt lat="42.88001" lon="2.37746">
        <ele>654</ele>
        <time>2023-09-09T11:32:24Z</time>
      </trkpt>
      <trkpt lat="42.88001" lon="2.37743">
        <ele>654</ele>
        <time>2023-09-09T11:32:25Z</time>
      </trkpt>
      <trkpt lat="42.88001" lon="2.37741">
        <ele>654</ele>
        <time>2023-09-09T11:32:26Z</time>
      </trkpt>
      <trkpt lat="42.88001" lon="2.37739">
        <ele>654</ele>
        <time>2023-09-09T11:32:27Z</time>
      </trkpt>
      <trkpt lat="42.88002" lon="2.37736">
        <ele>653</ele>
        <time>2023-09-09T11:32:28Z</time>
      </trkpt>
      <trkpt lat="42.88002" lon="2.37734">
        <ele>653</ele>
        <time>2023-09-09T11:32:29Z</time>
      </trkpt>
      <trkpt lat="42.88002" lon="2.37732">
        <ele>653</ele>
        <time>2023-09-09T11:32:30Z</time>
      </trkpt>
      <trkpt lat="42.88002" lon="2.3773">
        <ele>653</ele>
        <time>2023-09-09T11:32:31Z</time>
      </trkpt>
      <trkpt lat="42.88002" lon="2.37728">
        <ele>653</ele>
        <time>2023-09-09T11:32:32Z</time>
      </trkpt>
      <trkpt lat="42.88002" lon="2.37726">
        <ele>653</ele>
        <time>2023-09-09T11:32:33Z</time>
      </trkpt>
      <trkpt lat="42.88002" lon="2.37723">
        <ele>653</ele>
        <time>2023-09-09T11:32:34Z</time>
      </trkpt>
      <trkpt lat="42.88002" lon="2.37721">
        <ele>653</ele>
        <time>2023-09-09T11:32:35Z</time>
      </trkpt>
      <trkpt lat="42.88002" lon="2.37719">
        <ele>653</ele>
        <time>2023-09-09T11:32:36Z</time>
      </trkpt>
      <trkpt lat="42.88003" lon="2.37716">
        <ele>653</ele>
        <time>2023-09-09T11:32:37Z</time>
      </trkpt>
      <trkpt lat="42.88003" lon="2.37714">
        <ele>653</ele>
        <time>2023-09-09T11:32:38Z</time>
      </trkpt>
      <trkpt lat="42.88003" lon="2.37713">
        <ele>653</ele>
        <time>2023-09-09T11:32:39Z</time>
      </trkpt>
      <trkpt lat="42.88003" lon="2.37711">
        <ele>653</ele>
        <time>2023-09-09T11:32:40Z</time>
      </trkpt>
      <trkpt lat="42.88003" lon="2.37709">
        <ele>653</ele>
        <time>2023-09-09T11:32:41Z</time>
      </trkpt>
      <trkpt lat="42.88003" lon="2.37707">
        <ele>653</ele>
        <time>2023-09-09T11:32:42Z</time>
      </trkpt>
      <trkpt lat="42.88004" lon="2.37706">
        <ele>652</ele>
        <time>2023-09-09T11:32:43Z</time>
      </trkpt>
      <trkpt lat="42.88004" lon="2.37704">
        <ele>652</ele>
        <time>2023-09-09T11:32:44Z</time>
      </trkpt>
      <trkpt lat="42.88004" lon="2.37701">
        <ele>651</ele>
        <time>2023-09-09T11:32:45Z</time>
      </trkpt>
      <trkpt lat="42.88004" lon="2.37699">
        <ele>651</ele>
        <time>2023-09-09T11:32:46Z</time>
      </trkpt>
      <trkpt lat="42.88005" lon="2.37696">
        <ele>651</ele>
        <time>2023-09-09T11:32:47Z</time>
      </trkpt>
      <trkpt lat="42.88005" lon="2.37694">
        <ele>650</ele>
        <time>2023-09-09T11:32:48Z</time>
      </trkpt>
      <trkpt lat="42.88005" lon="2.37691">
        <ele>650</ele>
        <time>2023-09-09T11:32:49Z</time>
      </trkpt>
      <trkpt lat="42.88005" lon="2.37689">
        <ele>650</ele>
        <time>2023-09-09T11:32:50Z</time>
      </trkpt>
      <trkpt lat="42.88005" lon="2.37686">
        <ele>650</ele>
        <time>2023-09-09T11:32:51Z</time>
      </trkpt>
      <trkpt lat="42.88005" lon="2.37684">
        <ele>650</ele>
        <time>2023-09-09T11:32:52Z</time>
      </trkpt>
      <trkpt lat="42.88005" lon="2.37681">
        <ele>650</ele>
        <time>2023-09-09T11:32:53Z</time>
      </trkpt>
      <trkpt lat="42.88005" lon="2.37679">
        <ele>650</ele>
        <time>2023-09-09T11:32:54Z</time>
      </trkpt>
      <trkpt lat="42.88005" lon="2.37676">
        <ele>650</ele>
        <time>2023-09-09T11:32:55Z</time>
      </trkpt>
      <trkpt lat="42.88005" lon="2.37674">
        <ele>650</ele>
        <time>2023-09-09T11:32:56Z</time>
      </trkpt>
      <trkpt lat="42.88005" lon="2.37671">
        <ele>650</ele>
        <time>2023-09-09T11:32:57Z</time>
      </trkpt>
      <trkpt lat="42.88005" lon="2.37669">
        <ele>649</ele>
        <time>2023-09-09T11:32:58Z</time>
      </trkpt>
      <trkpt lat="42.88005" lon="2.37666">
        <ele>649</ele>
        <time>2023-09-09T11:32:59Z</time>
      </trkpt>
      <trkpt lat="42.88004" lon="2.37664">
        <ele>649</ele>
        <time>2023-09-09T11:33:00Z</time>
      </trkpt>
      <trkpt lat="42.88004" lon="2.37661">
        <ele>649</ele>
        <time>2023-09-09T11:33:01Z</time>
      </trkpt>
      <trkpt lat="42.88004" lon="2.37659">
        <ele>649</ele>
        <time>2023-09-09T11:33:02Z</time>
      </trkpt>
      <trkpt lat="42.88003" lon="2.37656">
        <ele>648</ele>
        <time>2023-09-09T11:33:03Z</time>
      </trkpt>
      <trkpt lat="42.88003" lon="2.37653">
        <ele>648</ele>
        <time>2023-09-09T11:33:04Z</time>
      </trkpt>
      <trkpt lat="42.88002" lon="2.37651">
        <ele>648</ele>
        <time>2023-09-09T11:33:05Z</time>
      </trkpt>
      <trkpt lat="42.88002" lon="2.37649">
        <ele>648</ele>
        <time>2023-09-09T11:33:06Z</time>
      </trkpt>
      <trkpt lat="42.88001" lon="2.37646">
        <ele>648</ele>
        <time>2023-09-09T11:33:07Z</time>
      </trkpt>
      <trkpt lat="42.88" lon="2.37644">
        <ele>648</ele>
        <time>2023-09-09T11:33:08Z</time>
      </trkpt>
      <trkpt lat="42.87999" lon="2.37642">
        <ele>648</ele>
        <time>2023-09-09T11:33:09Z</time>
      </trkpt>
      <trkpt lat="42.87998" lon="2.3764">
        <ele>648</ele>
        <time>2023-09-09T11:33:10Z</time>
      </trkpt>
      <trkpt lat="42.87997" lon="2.37638">
        <ele>648</ele>
        <time>2023-09-09T11:33:11Z</time>
      </trkpt>
      <trkpt lat="42.87996" lon="2.37636">
        <ele>648</ele>
        <time>2023-09-09T11:33:12Z</time>
      </trkpt>
      <trkpt lat="42.87995" lon="2.37634">
        <ele>648</ele>
        <time>2023-09-09T11:33:13Z</time>
      </trkpt>
      <trkpt lat="42.87994" lon="2.37632">
        <ele>648</ele>
        <time>2023-09-09T11:33:14Z</time>
      </trkpt>
      <trkpt lat="42.87993" lon="2.37629">
        <ele>648</ele>
        <time>2023-09-09T11:33:15Z</time>
      </trkpt>
      <trkpt lat="42.87993" lon="2.37627">
        <ele>648</ele>
        <time>2023-09-09T11:33:16Z</time>
      </trkpt>
      <trkpt lat="42.87992" lon="2.37625">
        <ele>648</ele>
        <time>2023-09-09T11:33:17Z</time>
      </trkpt>
      <trkpt lat="42.87991" lon="2.37623">
        <ele>647</ele>
        <time>2023-09-09T11:33:18Z</time>
      </trkpt>
      <trkpt lat="42.8799" lon="2.3762">
        <ele>647</ele>
        <time>2023-09-09T11:33:19Z</time>
      </trkpt>
      <trkpt lat="42.8799" lon="2.37618">
        <ele>647</ele>
        <time>2023-09-09T11:33:20Z</time>
      </trkpt>
      <trkpt lat="42.87989" lon="2.37616">
        <ele>647</ele>
        <time>2023-09-09T11:33:21Z</time>
      </trkpt>
      <trkpt lat="42.87988" lon="2.37613">
        <ele>647</ele>
        <time>2023-09-09T11:33:22Z</time>
      </trkpt>
      <trkpt lat="42.87988" lon="2.37611">
        <ele>647</ele>
        <time>2023-09-09T11:33:23Z</time>
      </trkpt>
      <trkpt lat="42.87987" lon="2.37609">
        <ele>647</ele>
        <time>2023-09-09T11:33:24Z</time>
      </trkpt>
      <trkpt lat="42.87986" lon="2.37607">
        <ele>647</ele>
        <time>2023-09-09T11:33:25Z</time>
      </trkpt>
      <trkpt lat="42.87986" lon="2.37605">
        <ele>647</ele>
        <time>2023-09-09T11:33:26Z</time>
      </trkpt>
      <trkpt lat="42.87985" lon="2.37604">
        <ele>647</ele>
        <time>2023-09-09T11:33:27Z</time>
      </trkpt>
      <trkpt lat="42.87984" lon="2.37602">
        <ele>646</ele>
        <time>2023-09-09T11:33:28Z</time>
      </trkpt>
      <trkpt lat="42.87983" lon="2.37601">
        <ele>646</ele>
        <time>2023-09-09T11:33:29Z</time>
      </trkpt>
      <trkpt lat="42.87983" lon="2.376">
        <ele>646</ele>
        <time>2023-09-09T11:33:30Z</time>
      </trkpt>
      <trkpt lat="42.87983" lon="2.37598">
        <ele>646</ele>
        <time>2023-09-09T11:33:31Z</time>
      </trkpt>
      <trkpt lat="42.87982" lon="2.37597">
        <ele>646</ele>
        <time>2023-09-09T11:33:32Z</time>
      </trkpt>
      <trkpt lat="42.87981" lon="2.37596">
        <ele>645</ele>
        <time>2023-09-09T11:33:33Z</time>
      </trkpt>
      <trkpt lat="42.87981" lon="2.37594">
        <ele>645</ele>
        <time>2023-09-09T11:33:34Z</time>
      </trkpt>
      <trkpt lat="42.8798" lon="2.37593">
        <ele>645</ele>
        <time>2023-09-09T11:33:35Z</time>
      </trkpt>
      <trkpt lat="42.87979" lon="2.3759">
        <ele>645</ele>
        <time>2023-09-09T11:33:36Z</time>
      </trkpt>
      <trkpt lat="42.87979" lon="2.37588">
        <ele>645</ele>
        <time>2023-09-09T11:33:37Z</time>
      </trkpt>
      <trkpt lat="42.87978" lon="2.37586">
        <ele>644</ele>
        <time>2023-09-09T11:33:38Z</time>
      </trkpt>
      <trkpt lat="42.87977" lon="2.37583">
        <ele>644</ele>
        <time>2023-09-09T11:33:39Z</time>
      </trkpt>
      <trkpt lat="42.87976" lon="2.37581">
        <ele>644</ele>
        <time>2023-09-09T11:33:40Z</time>
      </trkpt>
      <trkpt lat="42.87975" lon="2.37579">
        <ele>644</ele>
        <time>2023-09-09T11:33:41Z</time>
      </trkpt>
      <trkpt lat="42.87974" lon="2.37576">
        <ele>644</ele>
        <time>2023-09-09T11:33:42Z</time>
      </trkpt>
      <trkpt lat="42.87972" lon="2.37574">
        <ele>643</ele>
        <time>2023-09-09T11:33:43Z</time>
      </trkpt>
      <trkpt lat="42.87971" lon="2.37572">
        <ele>643</ele>
        <time>2023-09-09T11:33:44Z</time>
      </trkpt>
      <trkpt lat="42.8797" lon="2.37569">
        <ele>643</ele>
        <time>2023-09-09T11:33:45Z</time>
      </trkpt>
      <trkpt lat="42.87969" lon="2.37567">
        <ele>643</ele>
        <time>2023-09-09T11:33:46Z</time>
      </trkpt>
      <trkpt lat="42.87968" lon="2.37564">
        <ele>643</ele>
        <time>2023-09-09T11:33:47Z</time>
      </trkpt>
      <trkpt lat="42.87967" lon="2.37562">
        <ele>642</ele>
        <time>2023-09-09T11:33:48Z</time>
      </trkpt>
      <trkpt lat="42.87966" lon="2.37559">
        <ele>642</ele>
        <time>2023-09-09T11:33:49Z</time>
      </trkpt>
      <trkpt lat="42.87964" lon="2.37557">
        <ele>642</ele>
        <time>2023-09-09T11:33:50Z</time>
      </trkpt>
      <trkpt lat="42.87963" lon="2.37554">
        <ele>642</ele>
        <time>2023-09-09T11:33:51Z</time>
      </trkpt>
      <trkpt lat="42.87962" lon="2.37552">
        <ele>642</ele>
        <time>2023-09-09T11:33:52Z</time>
      </trkpt>
      <trkpt lat="42.8796" lon="2.3755">
        <ele>641</ele>
        <time>2023-09-09T11:33:53Z</time>
      </trkpt>
      <trkpt lat="42.87959" lon="2.37548">
        <ele>641</ele>
        <time>2023-09-09T11:33:54Z</time>
      </trkpt>
      <trkpt lat="42.87958" lon="2.37546">
        <ele>641</ele>
        <time>2023-09-09T11:33:55Z</time>
      </trkpt>
      <trkpt lat="42.87957" lon="2.37543">
        <ele>641</ele>
        <time>2023-09-09T11:33:56Z</time>
      </trkpt>
      <trkpt lat="42.87956" lon="2.37541">
        <ele>641</ele>
        <time>2023-09-09T11:33:57Z</time>
      </trkpt>
      <trkpt lat="42.87955" lon="2.37538">
        <ele>640</ele>
        <time>2023-09-09T11:33:58Z</time>
      </trkpt>
      <trkpt lat="42.87954" lon="2.37536">
        <ele>640</ele>
        <time>2023-09-09T11:33:59Z</time>
      </trkpt>
      <trkpt lat="42.87953" lon="2.37533">
        <ele>640</ele>
        <time>2023-09-09T11:34:00Z</time>
      </trkpt>
      <trkpt lat="42.87953" lon="2.37531">
        <ele>640</ele>
        <time>2023-09-09T11:34:01Z</time>
      </trkpt>
      <trkpt lat="42.87952" lon="2.37528">
        <ele>640</ele>
        <time>2023-09-09T11:34:02Z</time>
      </trkpt>
      <trkpt lat="42.87952" lon="2.37526">
        <ele>639</ele>
        <time>2023-09-09T11:34:03Z</time>
      </trkpt>
      <trkpt lat="42.87951" lon="2.37523">
        <ele>639</ele>
        <time>2023-09-09T11:34:04Z</time>
      </trkpt>
      <trkpt lat="42.87951" lon="2.37521">
        <ele>639</ele>
        <time>2023-09-09T11:34:05Z</time>
      </trkpt>
      <trkpt lat="42.87951" lon="2.37519">
        <ele>639</ele>
        <time>2023-09-09T11:34:06Z</time>
      </trkpt>
      <trkpt lat="42.87951" lon="2.37516">
        <ele>639</ele>
        <time>2023-09-09T11:34:07Z</time>
      </trkpt>
      <trkpt lat="42.87951" lon="2.37514">
        <ele>639</ele>
        <time>2023-09-09T11:34:08Z</time>
      </trkpt>
      <trkpt lat="42.87951" lon="2.37512">
        <ele>639</ele>
        <time>2023-09-09T11:34:09Z</time>
      </trkpt>
      <trkpt lat="42.87951" lon="2.3751">
        <ele>639</ele>
        <time>2023-09-09T11:34:10Z</time>
      </trkpt>
      <trkpt lat="42.87951" lon="2.37507">
        <ele>639</ele>
        <time>2023-09-09T11:34:11Z</time>
      </trkpt>
      <trkpt lat="42.8795" lon="2.37505">
        <ele>639</ele>
        <time>2023-09-09T11:34:12Z</time>
      </trkpt>
      <trkpt lat="42.8795" lon="2.37503">
        <ele>638</ele>
        <time>2023-09-09T11:34:13Z</time>
      </trkpt>
      <trkpt lat="42.8795" lon="2.375">
        <ele>638</ele>
        <time>2023-09-09T11:34:14Z</time>
      </trkpt>
      <trkpt lat="42.8795" lon="2.37498">
        <ele>638</ele>
        <time>2023-09-09T11:34:15Z</time>
      </trkpt>
      <trkpt lat="42.87949" lon="2.37495">
        <ele>638</ele>
        <time>2023-09-09T11:34:16Z</time>
      </trkpt>
      <trkpt lat="42.87949" lon="2.37493">
        <ele>638</ele>
        <time>2023-09-09T11:34:17Z</time>
      </trkpt>
      <trkpt lat="42.87949" lon="2.3749">
        <ele>638</ele>
        <time>2023-09-09T11:34:18Z</time>
      </trkpt>
      <trkpt lat="42.87949" lon="2.37487">
        <ele>638</ele>
        <time>2023-09-09T11:34:19Z</time>
      </trkpt>
      <trkpt lat="42.87949" lon="2.37484">
        <ele>638</ele>
        <time>2023-09-09T11:34:20Z</time>
      </trkpt>
      <trkpt lat="42.87949" lon="2.37482">
        <ele>638</ele>
        <time>2023-09-09T11:34:21Z</time>
      </trkpt>
      <trkpt lat="42.87948" lon="2.37479">
        <ele>638</ele>
        <time>2023-09-09T11:34:22Z</time>
      </trkpt>
      <trkpt lat="42.87948" lon="2.37476">
        <ele>638</ele>
        <time>2023-09-09T11:34:23Z</time>
      </trkpt>
      <trkpt lat="42.87948" lon="2.37473">
        <ele>638</ele>
        <time>2023-09-09T11:34:24Z</time>
      </trkpt>
      <trkpt lat="42.87948" lon="2.3747">
        <ele>638</ele>
        <time>2023-09-09T11:34:25Z</time>
      </trkpt>
      <trkpt lat="42.87948" lon="2.37467">
        <ele>638</ele>
        <time>2023-09-09T11:34:26Z</time>
      </trkpt>
      <trkpt lat="42.87947" lon="2.37465">
        <ele>638</ele>
        <time>2023-09-09T11:34:27Z</time>
      </trkpt>
      <trkpt lat="42.87947" lon="2.37462">
        <ele>638</ele>
        <time>2023-09-09T11:34:28Z</time>
      </trkpt>
      <trkpt lat="42.87946" lon="2.37459">
        <ele>638</ele>
        <time>2023-09-09T11:34:29Z</time>
      </trkpt>
      <trkpt lat="42.87946" lon="2.37457">
        <ele>638</ele>
        <time>2023-09-09T11:34:30Z</time>
      </trkpt>
      <trkpt lat="42.87945" lon="2.37454">
        <ele>638</ele>
        <time>2023-09-09T11:34:31Z</time>
      </trkpt>
      <trkpt lat="42.87945" lon="2.37451">
        <ele>638</ele>
        <time>2023-09-09T11:34:32Z</time>
      </trkpt>
      <trkpt lat="42.87944" lon="2.37449">
        <ele>638</ele>
        <time>2023-09-09T11:34:33Z</time>
      </trkpt>
      <trkpt lat="42.87944" lon="2.37446">
        <ele>638</ele>
        <time>2023-09-09T11:34:34Z</time>
      </trkpt>
      <trkpt lat="42.87943" lon="2.37443">
        <ele>638</ele>
        <time>2023-09-09T11:34:35Z</time>
      </trkpt>
      <trkpt lat="42.87943" lon="2.37441">
        <ele>638</ele>
        <time>2023-09-09T11:34:36Z</time>
      </trkpt>
      <trkpt lat="42.87943" lon="2.37438">
        <ele>638</ele>
        <time>2023-09-09T11:34:37Z</time>
      </trkpt>
      <trkpt lat="42.87942" lon="2.37436">
        <ele>638</ele>
        <time>2023-09-09T11:34:38Z</time>
      </trkpt>
      <trkpt lat="42.87942" lon="2.37433">
        <ele>638</ele>
        <time>2023-09-09T11:34:39Z</time>
      </trkpt>
      <trkpt lat="42.87942" lon="2.3743">
        <ele>638</ele>
        <time>2023-09-09T11:34:40Z</time>
      </trkpt>
      <trkpt lat="42.87942" lon="2.37428">
        <ele>638</ele>
        <time>2023-09-09T11:34:41Z</time>
      </trkpt>
      <trkpt lat="42.87941" lon="2.37425">
        <ele>638</ele>
        <time>2023-09-09T11:34:42Z</time>
      </trkpt>
      <trkpt lat="42.87941" lon="2.37422">
        <ele>638</ele>
        <time>2023-09-09T11:34:43Z</time>
      </trkpt>
      <trkpt lat="42.87941" lon="2.3742">
        <ele>638</ele>
        <time>2023-09-09T11:34:44Z</time>
      </trkpt>
      <trkpt lat="42.87941" lon="2.37417">
        <ele>638</ele>
        <time>2023-09-09T11:34:45Z</time>
      </trkpt>
      <trkpt lat="42.8794" lon="2.37414">
        <ele>638</ele>
        <time>2023-09-09T11:34:46Z</time>
      </trkpt>
      <trkpt lat="42.8794" lon="2.37412">
        <ele>638</ele>
        <time>2023-09-09T11:34:47Z</time>
      </trkpt>
      <trkpt lat="42.8794" lon="2.37409">
        <ele>638</ele>
        <time>2023-09-09T11:34:48Z</time>
      </trkpt>
      <trkpt lat="42.87939" lon="2.37407">
        <ele>638</ele>
        <time>2023-09-09T11:34:49Z</time>
      </trkpt>
      <trkpt lat="42.87939" lon="2.37404">
        <ele>638</ele>
        <time>2023-09-09T11:34:50Z</time>
      </trkpt>
      <trkpt lat="42.87939" lon="2.37402">
        <ele>638</ele>
        <time>2023-09-09T11:34:51Z</time>
      </trkpt>
      <trkpt lat="42.87939" lon="2.37399">
        <ele>638</ele>
        <time>2023-09-09T11:34:52Z</time>
      </trkpt>
      <trkpt lat="42.87938" lon="2.37397">
        <ele>638</ele>
        <time>2023-09-09T11:34:53Z</time>
      </trkpt>
      <trkpt lat="42.87938" lon="2.37394">
        <ele>638</ele>
        <time>2023-09-09T11:34:54Z</time>
      </trkpt>
      <trkpt lat="42.87938" lon="2.37391">
        <ele>638</ele>
        <time>2023-09-09T11:34:55Z</time>
      </trkpt>
      <trkpt lat="42.87937" lon="2.37389">
        <ele>638</ele>
        <time>2023-09-09T11:34:56Z</time>
      </trkpt>
      <trkpt lat="42.87937" lon="2.37386">
        <ele>638</ele>
        <time>2023-09-09T11:34:57Z</time>
      </trkpt>
      <trkpt lat="42.87937" lon="2.37384">
        <ele>638</ele>
        <time>2023-09-09T11:34:58Z</time>
      </trkpt>
      <trkpt lat="42.87937" lon="2.37381">
        <ele>638</ele>
        <time>2023-09-09T11:34:59Z</time>
      </trkpt>
      <trkpt lat="42.87936" lon="2.37379">
        <ele>638</ele>
        <time>2023-09-09T11:35:00Z</time>
      </trkpt>
      <trkpt lat="42.87936" lon="2.37376">
        <ele>638</ele>
        <time>2023-09-09T11:35:01Z</time>
      </trkpt>
      <trkpt lat="42.87936" lon="2.37373">
        <ele>639</ele>
        <time>2023-09-09T11:35:02Z</time>
      </trkpt>
      <trkpt lat="42.87936" lon="2.37371">
        <ele>639</ele>
        <time>2023-09-09T11:35:03Z</time>
      </trkpt>
      <trkpt lat="42.87936" lon="2.37368">
        <ele>639</ele>
        <time>2023-09-09T11:35:04Z</time>
      </trkpt>
      <trkpt lat="42.87935" lon="2.37365">
        <ele>639</ele>
        <time>2023-09-09T11:35:05Z</time>
      </trkpt>
      <trkpt lat="42.87935" lon="2.37363">
        <ele>639</ele>
        <time>2023-09-09T11:35:06Z</time>
      </trkpt>
      <trkpt lat="42.87935" lon="2.37361">
        <ele>639</ele>
        <time>2023-09-09T11:35:07Z</time>
      </trkpt>
      <trkpt lat="42.87936" lon="2.37358">
        <ele>639</ele>
        <time>2023-09-09T11:35:08Z</time>
      </trkpt>
      <trkpt lat="42.87936" lon="2.37356">
        <ele>639</ele>
        <time>2023-09-09T11:35:09Z</time>
      </trkpt>
      <trkpt lat="42.87936" lon="2.37354">
        <ele>639</ele>
        <time>2023-09-09T11:35:10Z</time>
      </trkpt>
      <trkpt lat="42.87936" lon="2.37352">
        <ele>639</ele>
        <time>2023-09-09T11:35:11Z</time>
      </trkpt>
      <trkpt lat="42.87936" lon="2.37349">
        <ele>639</ele>
        <time>2023-09-09T11:35:12Z</time>
      </trkpt>
      <trkpt lat="42.87936" lon="2.37347">
        <ele>639</ele>
        <time>2023-09-09T11:35:13Z</time>
      </trkpt>
      <trkpt lat="42.87936" lon="2.37345">
        <ele>639</ele>
        <time>2023-09-09T11:35:14Z</time>
      </trkpt>
      <trkpt lat="42.87937" lon="2.37342">
        <ele>639</ele>
        <time>2023-09-09T11:35:15Z</time>
      </trkpt>
      <trkpt lat="42.87937" lon="2.3734">
        <ele>639</ele>
        <time>2023-09-09T11:35:16Z</time>
      </trkpt>
      <trkpt lat="42.87938" lon="2.37337">
        <ele>640</ele>
        <time>2023-09-09T11:35:17Z</time>
      </trkpt>
      <trkpt lat="42.87938" lon="2.37334">
        <ele>640</ele>
        <time>2023-09-09T11:35:18Z</time>
      </trkpt>
      <trkpt lat="42.87938" lon="2.37331">
        <ele>640</ele>
        <time>2023-09-09T11:35:19Z</time>
      </trkpt>
      <trkpt lat="42.87939" lon="2.37329">
        <ele>640</ele>
        <time>2023-09-09T11:35:20Z</time>
      </trkpt>
      <trkpt lat="42.87939" lon="2.37326">
        <ele>640</ele>
        <time>2023-09-09T11:35:21Z</time>
      </trkpt>
      <trkpt lat="42.8794" lon="2.37323">
        <ele>640</ele>
        <time>2023-09-09T11:35:22Z</time>
      </trkpt>
      <trkpt lat="42.8794" lon="2.3732">
        <ele>640</ele>
        <time>2023-09-09T11:35:23Z</time>
      </trkpt>
      <trkpt lat="42.8794" lon="2.37318">
        <ele>640</ele>
        <time>2023-09-09T11:35:24Z</time>
      </trkpt>
      <trkpt lat="42.8794" lon="2.37315">
        <ele>640</ele>
        <time>2023-09-09T11:35:25Z</time>
      </trkpt>
      <trkpt lat="42.8794" lon="2.37312">
        <ele>640</ele>
        <time>2023-09-09T11:35:26Z</time>
      </trkpt>
      <trkpt lat="42.8794" lon="2.37309">
        <ele>640</ele>
        <time>2023-09-09T11:35:27Z</time>
      </trkpt>
      <trkpt lat="42.8794" lon="2.37307">
        <ele>640</ele>
        <time>2023-09-09T11:35:28Z</time>
      </trkpt>
      <trkpt lat="42.8794" lon="2.37304">
        <ele>640</ele>
        <time>2023-09-09T11:35:29Z</time>
      </trkpt>
      <trkpt lat="42.8794" lon="2.37302">
        <ele>640</ele>
        <time>2023-09-09T11:35:30Z</time>
      </trkpt>
      <trkpt lat="42.8794" lon="2.373">
        <ele>640</ele>
        <time>2023-09-09T11:35:31Z</time>
      </trkpt>
      <trkpt lat="42.8794" lon="2.37297">
        <ele>640</ele>
        <time>2023-09-09T11:35:32Z</time>
      </trkpt>
      <trkpt lat="42.8794" lon="2.37295">
        <ele>639</ele>
        <time>2023-09-09T11:35:33Z</time>
      </trkpt>
      <trkpt lat="42.87939" lon="2.37292">
        <ele>639</ele>
        <time>2023-09-09T11:35:34Z</time>
      </trkpt>
      <trkpt lat="42.87939" lon="2.37289">
        <ele>639</ele>
        <time>2023-09-09T11:35:35Z</time>
      </trkpt>
      <trkpt lat="42.87939" lon="2.37287">
        <ele>639</ele>
        <time>2023-09-09T11:35:36Z</time>
      </trkpt>
      <trkpt lat="42.87938" lon="2.37284">
        <ele>639</ele>
        <time>2023-09-09T11:35:37Z</time>
      </trkpt>
      <trkpt lat="42.87938" lon="2.37281">
        <ele>639</ele>
        <time>2023-09-09T11:35:38Z</time>
      </trkpt>
      <trkpt lat="42.87938" lon="2.37279">
        <ele>639</ele>
        <time>2023-09-09T11:35:39Z</time>
      </trkpt>
      <trkpt lat="42.87938" lon="2.37276">
        <ele>639</ele>
        <time>2023-09-09T11:35:40Z</time>
      </trkpt>
      <trkpt lat="42.87937" lon="2.37273">
        <ele>639</ele>
        <time>2023-09-09T11:35:41Z</time>
      </trkpt>
      <trkpt lat="42.87937" lon="2.3727">
        <ele>639</ele>
        <time>2023-09-09T11:35:42Z</time>
      </trkpt>
      <trkpt lat="42.87937" lon="2.37268">
        <ele>638</ele>
        <time>2023-09-09T11:35:43Z</time>
      </trkpt>
      <trkpt lat="42.87937" lon="2.37265">
        <ele>638</ele>
        <time>2023-09-09T11:35:44Z</time>
      </trkpt>
      <trkpt lat="42.87936" lon="2.37262">
        <ele>638</ele>
        <time>2023-09-09T11:35:45Z</time>
      </trkpt>
      <trkpt lat="42.87936" lon="2.3726">
        <ele>638</ele>
        <time>2023-09-09T11:35:46Z</time>
      </trkpt>
      <trkpt lat="42.87936" lon="2.37258">
        <ele>638</ele>
        <time>2023-09-09T11:35:47Z</time>
      </trkpt>
      <trkpt lat="42.87936" lon="2.37255">
        <ele>638</ele>
        <time>2023-09-09T11:35:48Z</time>
      </trkpt>
      <trkpt lat="42.87935" lon="2.37253">
        <ele>638</ele>
        <time>2023-09-09T11:35:49Z</time>
      </trkpt>
      <trkpt lat="42.87935" lon="2.3725">
        <ele>638</ele>
        <time>2023-09-09T11:35:50Z</time>
      </trkpt>
      <trkpt lat="42.87935" lon="2.37248">
        <ele>638</ele>
        <time>2023-09-09T11:35:51Z</time>
      </trkpt>
      <trkpt lat="42.87935" lon="2.37245">
        <ele>638</ele>
        <time>2023-09-09T11:35:52Z</time>
      </trkpt>
      <trkpt lat="42.87935" lon="2.37243">
        <ele>637</ele>
        <time>2023-09-09T11:35:53Z</time>
      </trkpt>
      <trkpt lat="42.87935" lon="2.37241">
        <ele>637</ele>
        <time>2023-09-09T11:35:54Z</time>
      </trkpt>
      <trkpt lat="42.87934" lon="2.37238">
        <ele>637</ele>
        <time>2023-09-09T11:35:55Z</time>
      </trkpt>
      <trkpt lat="42.87934" lon="2.37236">
        <ele>637</ele>
        <time>2023-09-09T11:35:56Z</time>
      </trkpt>
      <trkpt lat="42.87934" lon="2.37233">
        <ele>637</ele>
        <time>2023-09-09T11:35:57Z</time>
      </trkpt>
      <trkpt lat="42.87934" lon="2.37231">
        <ele>637</ele>
        <time>2023-09-09T11:35:58Z</time>
      </trkpt>
      <trkpt lat="42.87934" lon="2.37228">
        <ele>637</ele>
        <time>2023-09-09T11:35:59Z</time>
      </trkpt>
      <trkpt lat="42.87933" lon="2.37225">
        <ele>637</ele>
        <time>2023-09-09T11:36:00Z</time>
      </trkpt>
      <trkpt lat="42.87933" lon="2.37223">
        <ele>637</ele>
        <time>2023-09-09T11:36:01Z</time>
      </trkpt>
      <trkpt lat="42.87933" lon="2.3722">
        <ele>637</ele>
        <time>2023-09-09T11:36:02Z</time>
      </trkpt>
      <trkpt lat="42.87933" lon="2.37218">
        <ele>636</ele>
        <time>2023-09-09T11:36:03Z</time>
      </trkpt>
      <trkpt lat="42.87932" lon="2.37216">
        <ele>636</ele>
        <time>2023-09-09T11:36:04Z</time>
      </trkpt>
      <trkpt lat="42.87932" lon="2.37213">
        <ele>636</ele>
        <time>2023-09-09T11:36:05Z</time>
      </trkpt>
      <trkpt lat="42.87932" lon="2.37211">
        <ele>636</ele>
        <time>2023-09-09T11:36:06Z</time>
      </trkpt>
      <trkpt lat="42.87932" lon="2.37209">
        <ele>636</ele>
        <time>2023-09-09T11:36:07Z</time>
      </trkpt>
      <trkpt lat="42.87931" lon="2.37207">
        <ele>636</ele>
        <time>2023-09-09T11:36:08Z</time>
      </trkpt>
      <trkpt lat="42.87931" lon="2.37204">
        <ele>636</ele>
        <time>2023-09-09T11:36:09Z</time>
      </trkpt>
      <trkpt lat="42.87931" lon="2.37202">
        <ele>636</ele>
        <time>2023-09-09T11:36:10Z</time>
      </trkpt>
      <trkpt lat="42.8793" lon="2.372">
        <ele>636</ele>
        <time>2023-09-09T11:36:11Z</time>
      </trkpt>
      <trkpt lat="42.8793" lon="2.37197">
        <ele>636</ele>
        <time>2023-09-09T11:36:12Z</time>
      </trkpt>
      <trkpt lat="42.8793" lon="2.37195">
        <ele>635</ele>
        <time>2023-09-09T11:36:13Z</time>
      </trkpt>
      <trkpt lat="42.87929" lon="2.37192">
        <ele>635</ele>
        <time>2023-09-09T11:36:14Z</time>
      </trkpt>
      <trkpt lat="42.87929" lon="2.3719">
        <ele>635</ele>
        <time>2023-09-09T11:36:15Z</time>
      </trkpt>
      <trkpt lat="42.87928" lon="2.37187">
        <ele>635</ele>
        <time>2023-09-09T11:36:16Z</time>
      </trkpt>
      <trkpt lat="42.87928" lon="2.37184">
        <ele>635</ele>
        <time>2023-09-09T11:36:17Z</time>
      </trkpt>
      <trkpt lat="42.87928" lon="2.37182">
        <ele>634</ele>
        <time>2023-09-09T11:36:18Z</time>
      </trkpt>
      <trkpt lat="42.87928" lon="2.37179">
        <ele>634</ele>
        <time>2023-09-09T11:36:19Z</time>
      </trkpt>
      <trkpt lat="42.87928" lon="2.37177">
        <ele>633</ele>
        <time>2023-09-09T11:36:20Z</time>
      </trkpt>
      <trkpt lat="42.87928" lon="2.37174">
        <ele>633</ele>
        <time>2023-09-09T11:36:21Z</time>
      </trkpt>
      <trkpt lat="42.87928" lon="2.37171">
        <ele>633</ele>
        <time>2023-09-09T11:36:22Z</time>
      </trkpt>
      <trkpt lat="42.87928" lon="2.37168">
        <ele>633</ele>
        <time>2023-09-09T11:36:23Z</time>
      </trkpt>
      <trkpt lat="42.87928" lon="2.37165">
        <ele>633</ele>
        <time>2023-09-09T11:36:24Z</time>
      </trkpt>
      <trkpt lat="42.87928" lon="2.37162">
        <ele>633</ele>
        <time>2023-09-09T11:36:25Z</time>
      </trkpt>
      <trkpt lat="42.87928" lon="2.3716">
        <ele>633</ele>
        <time>2023-09-09T11:36:26Z</time>
      </trkpt>
      <trkpt lat="42.87928" lon="2.37157">
        <ele>633</ele>
        <time>2023-09-09T11:36:27Z</time>
      </trkpt>
      <trkpt lat="42.87929" lon="2.37154">
        <ele>632</ele>
        <time>2023-09-09T11:36:28Z</time>
      </trkpt>
      <trkpt lat="42.87929" lon="2.37152">
        <ele>632</ele>
        <time>2023-09-09T11:36:29Z</time>
      </trkpt>
      <trkpt lat="42.87929" lon="2.37149">
        <ele>632</ele>
        <time>2023-09-09T11:36:30Z</time>
      </trkpt>
      <trkpt lat="42.87929" lon="2.37147">
        <ele>632</ele>
        <time>2023-09-09T11:36:31Z</time>
      </trkpt>
      <trkpt lat="42.8793" lon="2.37144">
        <ele>632</ele>
        <time>2023-09-09T11:36:32Z</time>
      </trkpt>
      <trkpt lat="42.8793" lon="2.37141">
        <ele>631</ele>
        <time>2023-09-09T11:36:33Z</time>
      </trkpt>
      <trkpt lat="42.8793" lon="2.37139">
        <ele>631</ele>
        <time>2023-09-09T11:36:34Z</time>
      </trkpt>
      <trkpt lat="42.8793" lon="2.37136">
        <ele>631</ele>
        <time>2023-09-09T11:36:35Z</time>
      </trkpt>
      <trkpt lat="42.87931" lon="2.37133">
        <ele>631</ele>
        <time>2023-09-09T11:36:36Z</time>
      </trkpt>
      <trkpt lat="42.87931" lon="2.3713">
        <ele>631</ele>
        <time>2023-09-09T11:36:37Z</time>
      </trkpt>
      <trkpt lat="42.87932" lon="2.37128">
        <ele>630</ele>
        <time>2023-09-09T11:36:38Z</time>
      </trkpt>
      <trkpt lat="42.87932" lon="2.37125">
        <ele>630</ele>
        <time>2023-09-09T11:36:39Z</time>
      </trkpt>
      <trkpt lat="42.87933" lon="2.37123">
        <ele>630</ele>
        <time>2023-09-09T11:36:40Z</time>
      </trkpt>
      <trkpt lat="42.87934" lon="2.37121">
        <ele>630</ele>
        <time>2023-09-09T11:36:41Z</time>
      </trkpt>
      <trkpt lat="42.87935" lon="2.37119">
        <ele>630</ele>
        <time>2023-09-09T11:36:42Z</time>
      </trkpt>
      <trkpt lat="42.87936" lon="2.37117">
        <ele>630</ele>
        <time>2023-09-09T11:36:43Z</time>
      </trkpt>
      <trkpt lat="42.87937" lon="2.37115">
        <ele>630</ele>
        <time>2023-09-09T11:36:44Z</time>
      </trkpt>
      <trkpt lat="42.87938" lon="2.37113">
        <ele>630</ele>
        <time>2023-09-09T11:36:45Z</time>
      </trkpt>
      <trkpt lat="42.87939" lon="2.37111">
        <ele>630</ele>
        <time>2023-09-09T11:36:46Z</time>
      </trkpt>
      <trkpt lat="42.8794" lon="2.37108">
        <ele>630</ele>
        <time>2023-09-09T11:36:47Z</time>
      </trkpt>
      <trkpt lat="42.87941" lon="2.37106">
        <ele>629</ele>
        <time>2023-09-09T11:36:48Z</time>
      </trkpt>
      <trkpt lat="42.87941" lon="2.37103">
        <ele>629</ele>
        <time>2023-09-09T11:36:49Z</time>
      </trkpt>
      <trkpt lat="42.87942" lon="2.37101">
        <ele>629</ele>
        <time>2023-09-09T11:36:50Z</time>
      </trkpt>
      <trkpt lat="42.87942" lon="2.37098">
        <ele>629</ele>
        <time>2023-09-09T11:36:51Z</time>
      </trkpt>
      <trkpt lat="42.87943" lon="2.37096">
        <ele>629</ele>
        <time>2023-09-09T11:36:52Z</time>
      </trkpt>
      <trkpt lat="42.87944" lon="2.37093">
        <ele>629</ele>
        <time>2023-09-09T11:36:53Z</time>
      </trkpt>
      <trkpt lat="42.87944" lon="2.3709">
        <ele>629</ele>
        <time>2023-09-09T11:36:54Z</time>
      </trkpt>
      <trkpt lat="42.87945" lon="2.37088">
        <ele>629</ele>
        <time>2023-09-09T11:36:55Z</time>
      </trkpt>
      <trkpt lat="42.87945" lon="2.37085">
        <ele>629</ele>
        <time>2023-09-09T11:36:56Z</time>
      </trkpt>
      <trkpt lat="42.87945" lon="2.37082">
        <ele>629</ele>
        <time>2023-09-09T11:36:57Z</time>
      </trkpt>
      <trkpt lat="42.87946" lon="2.37079">
        <ele>629</ele>
        <time>2023-09-09T11:36:58Z</time>
      </trkpt>
      <trkpt lat="42.87946" lon="2.37077">
        <ele>629</ele>
        <time>2023-09-09T11:36:59Z</time>
      </trkpt>
      <trkpt lat="42.87947" lon="2.37074">
        <ele>629</ele>
        <time>2023-09-09T11:37:00Z</time>
      </trkpt>
      <trkpt lat="42.87948" lon="2.37071">
        <ele>629</ele>
        <time>2023-09-09T11:37:01Z</time>
      </trkpt>
      <trkpt lat="42.87948" lon="2.37069">
        <ele>629</ele>
        <time>2023-09-09T11:37:02Z</time>
      </trkpt>
      <trkpt lat="42.87949" lon="2.37066">
        <ele>628</ele>
        <time>2023-09-09T11:37:03Z</time>
      </trkpt>
      <trkpt lat="42.87949" lon="2.37063">
        <ele>628</ele>
        <time>2023-09-09T11:37:04Z</time>
      </trkpt>
      <trkpt lat="42.8795" lon="2.37061">
        <ele>628</ele>
        <time>2023-09-09T11:37:05Z</time>
      </trkpt>
      <trkpt lat="42.87951" lon="2.37058">
        <ele>628</ele>
        <time>2023-09-09T11:37:06Z</time>
      </trkpt>
      <trkpt lat="42.87951" lon="2.37055">
        <ele>628</ele>
        <time>2023-09-09T11:37:07Z</time>
      </trkpt>
      <trkpt lat="42.87952" lon="2.37053">
        <ele>628</ele>
        <time>2023-09-09T11:37:08Z</time>
      </trkpt>
      <trkpt lat="42.87952" lon="2.3705">
        <ele>628</ele>
        <time>2023-09-09T11:37:09Z</time>
      </trkpt>
      <trkpt lat="42.87953" lon="2.37047">
        <ele>628</ele>
        <time>2023-09-09T11:37:10Z</time>
      </trkpt>
      <trkpt lat="42.87953" lon="2.37044">
        <ele>628</ele>
        <time>2023-09-09T11:37:11Z</time>
      </trkpt>
      <trkpt lat="42.87954" lon="2.37041">
        <ele>628</ele>
        <time>2023-09-09T11:37:12Z</time>
      </trkpt>
      <trkpt lat="42.87954" lon="2.37039">
        <ele>627</ele>
        <time>2023-09-09T11:37:13Z</time>
      </trkpt>
      <trkpt lat="42.87955" lon="2.37036">
        <ele>627</ele>
        <time>2023-09-09T11:37:14Z</time>
      </trkpt>
      <trkpt lat="42.87955" lon="2.37033">
        <ele>627</ele>
        <time>2023-09-09T11:37:15Z</time>
      </trkpt>
      <trkpt lat="42.87956" lon="2.3703">
        <ele>627</ele>
        <time>2023-09-09T11:37:16Z</time>
      </trkpt>
      <trkpt lat="42.87957" lon="2.37027">
        <ele>627</ele>
        <time>2023-09-09T11:37:17Z</time>
      </trkpt>
      <trkpt lat="42.87957" lon="2.37024">
        <ele>627</ele>
        <time>2023-09-09T11:37:18Z</time>
      </trkpt>
      <trkpt lat="42.87958" lon="2.37022">
        <ele>627</ele>
        <time>2023-09-09T11:37:19Z</time>
      </trkpt>
      <trkpt lat="42.87958" lon="2.37019">
        <ele>627</ele>
        <time>2023-09-09T11:37:20Z</time>
      </trkpt>
      <trkpt lat="42.87958" lon="2.37016">
        <ele>627</ele>
        <time>2023-09-09T11:37:21Z</time>
      </trkpt>
      <trkpt lat="42.87959" lon="2.37013">
        <ele>627</ele>
        <time>2023-09-09T11:37:22Z</time>
      </trkpt>
      <trkpt lat="42.87959" lon="2.3701">
        <ele>627</ele>
        <time>2023-09-09T11:37:23Z</time>
      </trkpt>
      <trkpt lat="42.8796" lon="2.37008">
        <ele>627</ele>
        <time>2023-09-09T11:37:24Z</time>
      </trkpt>
      <trkpt lat="42.8796" lon="2.37005">
        <ele>627</ele>
        <time>2023-09-09T11:37:25Z</time>
      </trkpt>
      <trkpt lat="42.87961" lon="2.37002">
        <ele>627</ele>
        <time>2023-09-09T11:37:26Z</time>
      </trkpt>
      <trkpt lat="42.87961" lon="2.36999">
        <ele>627</ele>
        <time>2023-09-09T11:37:27Z</time>
      </trkpt>
      <trkpt lat="42.87962" lon="2.36997">
        <ele>627</ele>
        <time>2023-09-09T11:37:28Z</time>
      </trkpt>
      <trkpt lat="42.87962" lon="2.36994">
        <ele>627</ele>
        <time>2023-09-09T11:37:29Z</time>
      </trkpt>
      <trkpt lat="42.87963" lon="2.36991">
        <ele>627</ele>
        <time>2023-09-09T11:37:30Z</time>
      </trkpt>
      <trkpt lat="42.87963" lon="2.36989">
        <ele>627</ele>
        <time>2023-09-09T11:37:31Z</time>
      </trkpt>
      <trkpt lat="42.87964" lon="2.36986">
        <ele>627</ele>
        <time>2023-09-09T11:37:32Z</time>
      </trkpt>
      <trkpt lat="42.87964" lon="2.36984">
        <ele>627</ele>
        <time>2023-09-09T11:37:33Z</time>
      </trkpt>
      <trkpt lat="42.87965" lon="2.36981">
        <ele>627</ele>
        <time>2023-09-09T11:37:34Z</time>
      </trkpt>
      <trkpt lat="42.87965" lon="2.36978">
        <ele>627</ele>
        <time>2023-09-09T11:37:35Z</time>
      </trkpt>
      <trkpt lat="42.87966" lon="2.36976">
        <ele>627</ele>
        <time>2023-09-09T11:37:36Z</time>
      </trkpt>
      <trkpt lat="42.87966" lon="2.36973">
        <ele>627</ele>
        <time>2023-09-09T11:37:37Z</time>
      </trkpt>
      <trkpt lat="42.87967" lon="2.36971">
        <ele>627</ele>
        <time>2023-09-09T11:37:38Z</time>
      </trkpt>
      <trkpt lat="42.87967" lon="2.36969">
        <ele>627</ele>
        <time>2023-09-09T11:37:39Z</time>
      </trkpt>
      <trkpt lat="42.87968" lon="2.36966">
        <ele>627</ele>
        <time>2023-09-09T11:37:40Z</time>
      </trkpt>
      <trkpt lat="42.87968" lon="2.36964">
        <ele>627</ele>
        <time>2023-09-09T11:37:41Z</time>
      </trkpt>
      <trkpt lat="42.87969" lon="2.36962">
        <ele>627</ele>
        <time>2023-09-09T11:37:42Z</time>
      </trkpt>
      <trkpt lat="42.87969" lon="2.3696">
        <ele>627</ele>
        <time>2023-09-09T11:37:43Z</time>
      </trkpt>
      <trkpt lat="42.8797" lon="2.36957">
        <ele>627</ele>
        <time>2023-09-09T11:37:44Z</time>
      </trkpt>
      <trkpt lat="42.87971" lon="2.36955">
        <ele>627</ele>
        <time>2023-09-09T11:37:45Z</time>
      </trkpt>
      <trkpt lat="42.87972" lon="2.36953">
        <ele>627</ele>
        <time>2023-09-09T11:37:46Z</time>
      </trkpt>
      <trkpt lat="42.87973" lon="2.3695">
        <ele>627</ele>
        <time>2023-09-09T11:37:47Z</time>
      </trkpt>
      <trkpt lat="42.87974" lon="2.36948">
        <ele>627</ele>
        <time>2023-09-09T11:37:48Z</time>
      </trkpt>
      <trkpt lat="42.87975" lon="2.36946">
        <ele>627</ele>
        <time>2023-09-09T11:37:49Z</time>
      </trkpt>
      <trkpt lat="42.87977" lon="2.36945">
        <ele>627</ele>
        <time>2023-09-09T11:37:50Z</time>
      </trkpt>
      <trkpt lat="42.87978" lon="2.36943">
        <ele>627</ele>
        <time>2023-09-09T11:37:51Z</time>
      </trkpt>
      <trkpt lat="42.8798" lon="2.36942">
        <ele>627</ele>
        <time>2023-09-09T11:37:52Z</time>
      </trkpt>
      <trkpt lat="42.87981" lon="2.3694">
        <ele>627</ele>
        <time>2023-09-09T11:37:53Z</time>
      </trkpt>
      <trkpt lat="42.87983" lon="2.36939">
        <ele>627</ele>
        <time>2023-09-09T11:37:54Z</time>
      </trkpt>
      <trkpt lat="42.87984" lon="2.36937">
        <ele>627</ele>
        <time>2023-09-09T11:37:55Z</time>
      </trkpt>
      <trkpt lat="42.87985" lon="2.36935">
        <ele>627</ele>
        <time>2023-09-09T11:37:56Z</time>
      </trkpt>
      <trkpt lat="42.87987" lon="2.36933">
        <ele>627</ele>
        <time>2023-09-09T11:37:57Z</time>
      </trkpt>
      <trkpt lat="42.87989" lon="2.36931">
        <ele>626</ele>
        <time>2023-09-09T11:37:58Z</time>
      </trkpt>
      <trkpt lat="42.8799" lon="2.36929">
        <ele>626</ele>
        <time>2023-09-09T11:37:59Z</time>
      </trkpt>
      <trkpt lat="42.87992" lon="2.36927">
        <ele>626</ele>
        <time>2023-09-09T11:38:00Z</time>
      </trkpt>
      <trkpt lat="42.87993" lon="2.36925">
        <ele>626</ele>
        <time>2023-09-09T11:38:01Z</time>
      </trkpt>
      <trkpt lat="42.87995" lon="2.36922">
        <ele>626</ele>
        <time>2023-09-09T11:38:02Z</time>
      </trkpt>
      <trkpt lat="42.87996" lon="2.3692">
        <ele>625</ele>
        <time>2023-09-09T11:38:03Z</time>
      </trkpt>
      <trkpt lat="42.87998" lon="2.36918">
        <ele>625</ele>
        <time>2023-09-09T11:38:04Z</time>
      </trkpt>
      <trkpt lat="42.87999" lon="2.36916">
        <ele>625</ele>
        <time>2023-09-09T11:38:05Z</time>
      </trkpt>
      <trkpt lat="42.87999" lon="2.36913">
        <ele>625</ele>
        <time>2023-09-09T11:38:06Z</time>
      </trkpt>
      <trkpt lat="42.87999" lon="2.36911">
        <ele>625</ele>
        <time>2023-09-09T11:38:07Z</time>
      </trkpt>
      <trkpt lat="42.87999" lon="2.36908">
        <ele>624</ele>
        <time>2023-09-09T11:38:08Z</time>
      </trkpt>
      <trkpt lat="42.87999" lon="2.36906">
        <ele>624</ele>
        <time>2023-09-09T11:38:09Z</time>
      </trkpt>
      <trkpt lat="42.87998" lon="2.36903">
        <ele>624</ele>
        <time>2023-09-09T11:38:10Z</time>
      </trkpt>
      <trkpt lat="42.87997" lon="2.36901">
        <ele>624</ele>
        <time>2023-09-09T11:38:11Z</time>
      </trkpt>
      <trkpt lat="42.87997" lon="2.36898">
        <ele>624</ele>
        <time>2023-09-09T11:38:12Z</time>
      </trkpt>
      <trkpt lat="42.87996" lon="2.36896">
        <ele>623</ele>
        <time>2023-09-09T11:38:13Z</time>
      </trkpt>
      <trkpt lat="42.87995" lon="2.36894">
        <ele>623</ele>
        <time>2023-09-09T11:38:14Z</time>
      </trkpt>
      <trkpt lat="42.87995" lon="2.36891">
        <ele>623</ele>
        <time>2023-09-09T11:38:15Z</time>
      </trkpt>
      <trkpt lat="42.87995" lon="2.36889">
        <ele>623</ele>
        <time>2023-09-09T11:38:16Z</time>
      </trkpt>
      <trkpt lat="42.87995" lon="2.36886">
        <ele>623</ele>
        <time>2023-09-09T11:38:17Z</time>
      </trkpt>
      <trkpt lat="42.87995" lon="2.36884">
        <ele>622</ele>
        <time>2023-09-09T11:38:18Z</time>
      </trkpt>
      <trkpt lat="42.87995" lon="2.36881">
        <ele>622</ele>
        <time>2023-09-09T11:38:19Z</time>
      </trkpt>
      <trkpt lat="42.87994" lon="2.36878">
        <ele>622</ele>
        <time>2023-09-09T11:38:20Z</time>
      </trkpt>
      <trkpt lat="42.87995" lon="2.36876">
        <ele>622</ele>
        <time>2023-09-09T11:38:21Z</time>
      </trkpt>
      <trkpt lat="42.87995" lon="2.36873">
        <ele>622</ele>
        <time>2023-09-09T11:38:22Z</time>
      </trkpt>
      <trkpt lat="42.87995" lon="2.36871">
        <ele>621</ele>
        <time>2023-09-09T11:38:23Z</time>
      </trkpt>
      <trkpt lat="42.87995" lon="2.36868">
        <ele>621</ele>
        <time>2023-09-09T11:38:24Z</time>
      </trkpt>
      <trkpt lat="42.87995" lon="2.36866">
        <ele>621</ele>
        <time>2023-09-09T11:38:25Z</time>
      </trkpt>
      <trkpt lat="42.87995" lon="2.36864">
        <ele>621</ele>
        <time>2023-09-09T11:38:26Z</time>
      </trkpt>
      <trkpt lat="42.87995" lon="2.36862">
        <ele>621</ele>
        <time>2023-09-09T11:38:27Z</time>
      </trkpt>
      <trkpt lat="42.87995" lon="2.3686">
        <ele>620</ele>
        <time>2023-09-09T11:38:28Z</time>
      </trkpt>
      <trkpt lat="42.87995" lon="2.36858">
        <ele>620</ele>
        <time>2023-09-09T11:38:29Z</time>
      </trkpt>
      <trkpt lat="42.87995" lon="2.36855">
        <ele>619</ele>
        <time>2023-09-09T11:38:30Z</time>
      </trkpt>
      <trkpt lat="42.87995" lon="2.36853">
        <ele>619</ele>
        <time>2023-09-09T11:38:31Z</time>
      </trkpt>
      <trkpt lat="42.87995" lon="2.36851">
        <ele>619</ele>
        <time>2023-09-09T11:38:32Z</time>
      </trkpt>
      <trkpt lat="42.87995" lon="2.36848">
        <ele>618</ele>
        <time>2023-09-09T11:38:33Z</time>
      </trkpt>
      <trkpt lat="42.87995" lon="2.36846">
        <ele>618</ele>
        <time>2023-09-09T11:38:34Z</time>
      </trkpt>
      <trkpt lat="42.87995" lon="2.36843">
        <ele>618</ele>
        <time>2023-09-09T11:38:35Z</time>
      </trkpt>
      <trkpt lat="42.87995" lon="2.36841">
        <ele>618</ele>
        <time>2023-09-09T11:38:36Z</time>
      </trkpt>
      <trkpt lat="42.87995" lon="2.36838">
        <ele>618</ele>
        <time>2023-09-09T11:38:37Z</time>
      </trkpt>
      <trkpt lat="42.87995" lon="2.36836">
        <ele>617</ele>
        <time>2023-09-09T11:38:38Z</time>
      </trkpt>
      <trkpt lat="42.87996" lon="2.36833">
        <ele>617</ele>
        <time>2023-09-09T11:38:39Z</time>
      </trkpt>
      <trkpt lat="42.87996" lon="2.3683">
        <ele>616</ele>
        <time>2023-09-09T11:38:40Z</time>
      </trkpt>
      <trkpt lat="42.87997" lon="2.36828">
        <ele>616</ele>
        <time>2023-09-09T11:38:41Z</time>
      </trkpt>
      <trkpt lat="42.87997" lon="2.36825">
        <ele>616</ele>
        <time>2023-09-09T11:38:42Z</time>
      </trkpt>
      <trkpt lat="42.87997" lon="2.36822">
        <ele>615</ele>
        <time>2023-09-09T11:38:43Z</time>
      </trkpt>
      <trkpt lat="42.87998" lon="2.3682">
        <ele>615</ele>
        <time>2023-09-09T11:38:44Z</time>
      </trkpt>
      <trkpt lat="42.87998" lon="2.36818">
        <ele>614</ele>
        <time>2023-09-09T11:38:45Z</time>
      </trkpt>
      <trkpt lat="42.87999" lon="2.36816">
        <ele>614</ele>
        <time>2023-09-09T11:38:46Z</time>
      </trkpt>
      <trkpt lat="42.87999" lon="2.36814">
        <ele>614</ele>
        <time>2023-09-09T11:38:47Z</time>
      </trkpt>
      <trkpt lat="42.88" lon="2.36812">
        <ele>613</ele>
        <time>2023-09-09T11:38:48Z</time>
      </trkpt>
      <trkpt lat="42.88" lon="2.3681">
        <ele>613</ele>
        <time>2023-09-09T11:38:49Z</time>
      </trkpt>
      <trkpt lat="42.88001" lon="2.36808">
        <ele>613</ele>
        <time>2023-09-09T11:38:50Z</time>
      </trkpt>
      <trkpt lat="42.88001" lon="2.36806">
        <ele>613</ele>
        <time>2023-09-09T11:38:51Z</time>
      </trkpt>
      <trkpt lat="42.88002" lon="2.36805">
        <ele>613</ele>
        <time>2023-09-09T11:38:52Z</time>
      </trkpt>
      <trkpt lat="42.88002" lon="2.36803">
        <ele>612</ele>
        <time>2023-09-09T11:38:53Z</time>
      </trkpt>
      <trkpt lat="42.88002" lon="2.36801">
        <ele>612</ele>
        <time>2023-09-09T11:38:54Z</time>
      </trkpt>
      <trkpt lat="42.88002" lon="2.36799">
        <ele>612</ele>
        <time>2023-09-09T11:38:55Z</time>
      </trkpt>
      <trkpt lat="42.88002" lon="2.36797">
        <ele>612</ele>
        <time>2023-09-09T11:38:56Z</time>
      </trkpt>
      <trkpt lat="42.88002" lon="2.36795">
        <ele>612</ele>
        <time>2023-09-09T11:38:57Z</time>
      </trkpt>
      <trkpt lat="42.88002" lon="2.36792">
        <ele>611</ele>
        <time>2023-09-09T11:38:58Z</time>
      </trkpt>
      <trkpt lat="42.88002" lon="2.3679">
        <ele>611</ele>
        <time>2023-09-09T11:38:59Z</time>
      </trkpt>
      <trkpt lat="42.88002" lon="2.36787">
        <ele>610</ele>
        <time>2023-09-09T11:39:00Z</time>
      </trkpt>
      <trkpt lat="42.88002" lon="2.36785">
        <ele>610</ele>
        <time>2023-09-09T11:39:01Z</time>
      </trkpt>
      <trkpt lat="42.88002" lon="2.36782">
        <ele>610</ele>
        <time>2023-09-09T11:39:02Z</time>
      </trkpt>
      <trkpt lat="42.88002" lon="2.3678">
        <ele>610</ele>
        <time>2023-09-09T11:39:03Z</time>
      </trkpt>
      <trkpt lat="42.88002" lon="2.36777">
        <ele>610</ele>
        <time>2023-09-09T11:39:04Z</time>
      </trkpt>
      <trkpt lat="42.88002" lon="2.36775">
        <ele>610</ele>
        <time>2023-09-09T11:39:05Z</time>
      </trkpt>
      <trkpt lat="42.88002" lon="2.36772">
        <ele>610</ele>
        <time>2023-09-09T11:39:06Z</time>
      </trkpt>
      <trkpt lat="42.88003" lon="2.3677">
        <ele>610</ele>
        <time>2023-09-09T11:39:07Z</time>
      </trkpt>
      <trkpt lat="42.88003" lon="2.36767">
        <ele>609</ele>
        <time>2023-09-09T11:39:08Z</time>
      </trkpt>
      <trkpt lat="42.88003" lon="2.36765">
        <ele>609</ele>
        <time>2023-09-09T11:39:09Z</time>
      </trkpt>
      <trkpt lat="42.88003" lon="2.36762">
        <ele>609</ele>
        <time>2023-09-09T11:39:10Z</time>
      </trkpt>
      <trkpt lat="42.88003" lon="2.3676">
        <ele>609</ele>
        <time>2023-09-09T11:39:11Z</time>
      </trkpt>
      <trkpt lat="42.88003" lon="2.36758">
        <ele>609</ele>
        <time>2023-09-09T11:39:12Z</time>
      </trkpt>
      <trkpt lat="42.88003" lon="2.36755">
        <ele>609</ele>
        <time>2023-09-09T11:39:13Z</time>
      </trkpt>
      <trkpt lat="42.88003" lon="2.36753">
        <ele>609</ele>
        <time>2023-09-09T11:39:14Z</time>
      </trkpt>
      <trkpt lat="42.88003" lon="2.3675">
        <ele>609</ele>
        <time>2023-09-09T11:39:15Z</time>
      </trkpt>
      <trkpt lat="42.88003" lon="2.36748">
        <ele>609</ele>
        <time>2023-09-09T11:39:16Z</time>
      </trkpt>
      <trkpt lat="42.88003" lon="2.36746">
        <ele>609</ele>
        <time>2023-09-09T11:39:17Z</time>
      </trkpt>
      <trkpt lat="42.88003" lon="2.36744">
        <ele>608</ele>
        <time>2023-09-09T11:39:18Z</time>
      </trkpt>
      <trkpt lat="42.88003" lon="2.36742">
        <ele>608</ele>
        <time>2023-09-09T11:39:19Z</time>
      </trkpt>
      <trkpt lat="42.88003" lon="2.3674">
        <ele>608</ele>
        <time>2023-09-09T11:39:20Z</time>
      </trkpt>
      <trkpt lat="42.88003" lon="2.36738">
        <ele>608</ele>
        <time>2023-09-09T11:39:21Z</time>
      </trkpt>
      <trkpt lat="42.88003" lon="2.36736">
        <ele>608</ele>
        <time>2023-09-09T11:39:22Z</time>
      </trkpt>
      <trkpt lat="42.88004" lon="2.36735">
        <ele>607</ele>
        <time>2023-09-09T11:39:23Z</time>
      </trkpt>
      <trkpt lat="42.88004" lon="2.36733">
        <ele>607</ele>
        <time>2023-09-09T11:39:24Z</time>
      </trkpt>
      <trkpt lat="42.88004" lon="2.36731">
        <ele>606</ele>
        <time>2023-09-09T11:39:25Z</time>
      </trkpt>
      <trkpt lat="42.88004" lon="2.3673">
        <ele>606</ele>
        <time>2023-09-09T11:39:26Z</time>
      </trkpt>
      <trkpt lat="42.88004" lon="2.36728">
        <ele>606</ele>
        <time>2023-09-09T11:39:27Z</time>
      </trkpt>
      <trkpt lat="42.88003" lon="2.36727">
        <ele>605</ele>
        <time>2023-09-09T11:39:28Z</time>
      </trkpt>
      <trkpt lat="42.88003" lon="2.36725">
        <ele>605</ele>
        <time>2023-09-09T11:39:29Z</time>
      </trkpt>
      <trkpt lat="42.88003" lon="2.36724">
        <ele>605</ele>
        <time>2023-09-09T11:39:30Z</time>
      </trkpt>
      <trkpt lat="42.88003" lon="2.36722">
        <ele>605</ele>
        <time>2023-09-09T11:39:31Z</time>
      </trkpt>
      <trkpt lat="42.88002" lon="2.36721">
        <ele>605</ele>
        <time>2023-09-09T11:39:32Z</time>
      </trkpt>
      <trkpt lat="42.88002" lon="2.36719">
        <ele>604</ele>
        <time>2023-09-09T11:39:33Z</time>
      </trkpt>
      <trkpt lat="42.88002" lon="2.36717">
        <ele>604</ele>
        <time>2023-09-09T11:39:34Z</time>
      </trkpt>
      <trkpt lat="42.88002" lon="2.36716">
        <ele>604</ele>
        <time>2023-09-09T11:39:35Z</time>
      </trkpt>
      <trkpt lat="42.88002" lon="2.36714">
        <ele>604</ele>
        <time>2023-09-09T11:39:36Z</time>
      </trkpt>
      <trkpt lat="42.88002" lon="2.36713">
        <ele>604</ele>
        <time>2023-09-09T11:39:37Z</time>
      </trkpt>
      <trkpt lat="42.88002" lon="2.36711">
        <ele>603</ele>
        <time>2023-09-09T11:39:38Z</time>
      </trkpt>
      <trkpt lat="42.88002" lon="2.3671">
        <ele>603</ele>
        <time>2023-09-09T11:39:39Z</time>
      </trkpt>
      <trkpt lat="42.88002" lon="2.36708">
        <ele>603</ele>
        <time>2023-09-09T11:39:40Z</time>
      </trkpt>
      <trkpt lat="42.88001" lon="2.36706">
        <ele>603</ele>
        <time>2023-09-09T11:39:41Z</time>
      </trkpt>
      <trkpt lat="42.88001" lon="2.36705">
        <ele>603</ele>
        <time>2023-09-09T11:39:42Z</time>
      </trkpt>
      <trkpt lat="42.88001" lon="2.36703">
        <ele>602</ele>
        <time>2023-09-09T11:39:43Z</time>
      </trkpt>
      <trkpt lat="42.88001" lon="2.36702">
        <ele>602</ele>
        <time>2023-09-09T11:39:44Z</time>
      </trkpt>
      <trkpt lat="42.88" lon="2.36701">
        <ele>602</ele>
        <time>2023-09-09T11:39:45Z</time>
      </trkpt>
      <trkpt lat="42.88" lon="2.36699">
        <ele>602</ele>
        <time>2023-09-09T11:39:46Z</time>
      </trkpt>
      <trkpt lat="42.88" lon="2.36698">
        <ele>602</ele>
        <time>2023-09-09T11:39:47Z</time>
      </trkpt>
      <trkpt lat="42.88" lon="2.36697">
        <ele>601</ele>
        <time>2023-09-09T11:39:48Z</time>
      </trkpt>
      <trkpt lat="42.88" lon="2.36695">
        <ele>601</ele>
        <time>2023-09-09T11:39:49Z</time>
      </trkpt>
      <trkpt lat="42.88" lon="2.36694">
        <ele>601</ele>
        <time>2023-09-09T11:39:50Z</time>
      </trkpt>
      <trkpt lat="42.88" lon="2.36693">
        <ele>601</ele>
        <time>2023-09-09T11:39:51Z</time>
      </trkpt>
      <trkpt lat="42.88" lon="2.36691">
        <ele>601</ele>
        <time>2023-09-09T11:39:52Z</time>
      </trkpt>
      <trkpt lat="42.88" lon="2.3669">
        <ele>600</ele>
        <time>2023-09-09T11:39:53Z</time>
      </trkpt>
      <trkpt lat="42.88" lon="2.36688">
        <ele>600</ele>
        <time>2023-09-09T11:39:54Z</time>
      </trkpt>
      <trkpt lat="42.88001" lon="2.36687">
        <ele>600</ele>
        <time>2023-09-09T11:39:55Z</time>
      </trkpt>
      <trkpt lat="42.88001" lon="2.36685">
        <ele>600</ele>
        <time>2023-09-09T11:39:56Z</time>
      </trkpt>
      <trkpt lat="42.88001" lon="2.36684">
        <ele>600</ele>
        <time>2023-09-09T11:39:57Z</time>
      </trkpt>
      <trkpt lat="42.88001" lon="2.36683">
        <ele>599</ele>
        <time>2023-09-09T11:39:58Z</time>
      </trkpt>
      <trkpt lat="42.88001" lon="2.36681">
        <ele>599</ele>
        <time>2023-09-09T11:39:59Z</time>
      </trkpt>
      <trkpt lat="42.88001" lon="2.36681">
        <ele>598</ele>
        <time>2023-09-09T11:40:00Z</time>
      </trkpt>
      <trkpt lat="42.88001" lon="2.3668">
        <ele>598</ele>
        <time>2023-09-09T11:40:01Z</time>
      </trkpt>
      <trkpt lat="42.88001" lon="2.36679">
        <ele>598</ele>
        <time>2023-09-09T11:40:02Z</time>
      </trkpt>
      <trkpt lat="42.88001" lon="2.36678">
        <ele>597</ele>
        <time>2023-09-09T11:40:03Z</time>
      </trkpt>
      <trkpt lat="42.88001" lon="2.36676">
        <ele>597</ele>
        <time>2023-09-09T11:40:04Z</time>
      </trkpt>
      <trkpt lat="42.88001" lon="2.36675">
        <ele>597</ele>
        <time>2023-09-09T11:40:05Z</time>
      </trkpt>
      <trkpt lat="42.88002" lon="2.36673">
        <ele>597</ele>
        <time>2023-09-09T11:40:06Z</time>
      </trkpt>
      <trkpt lat="42.88002" lon="2.36672">
        <ele>597</ele>
        <time>2023-09-09T11:40:07Z</time>
      </trkpt>
      <trkpt lat="42.88002" lon="2.3667">
        <ele>596</ele>
        <time>2023-09-09T11:40:08Z</time>
      </trkpt>
      <trkpt lat="42.88002" lon="2.36668">
        <ele>596</ele>
        <time>2023-09-09T11:40:09Z</time>
      </trkpt>
      <trkpt lat="42.88002" lon="2.36666">
        <ele>596</ele>
        <time>2023-09-09T11:40:10Z</time>
      </trkpt>
      <trkpt lat="42.88003" lon="2.36665">
        <ele>596</ele>
        <time>2023-09-09T11:40:11Z</time>
      </trkpt>
      <trkpt lat="42.88003" lon="2.36663">
        <ele>596</ele>
        <time>2023-09-09T11:40:12Z</time>
      </trkpt>
      <trkpt lat="42.88003" lon="2.36663">
        <ele>595</ele>
        <time>2023-09-09T11:40:13Z</time>
      </trkpt>
      <trkpt lat="42.88003" lon="2.36662">
        <ele>595</ele>
        <time>2023-09-09T11:40:14Z</time>
      </trkpt>
      <trkpt lat="42.88003" lon="2.36661">
        <ele>595</ele>
        <time>2023-09-09T11:40:15Z</time>
      </trkpt>
      <trkpt lat="42.88004" lon="2.36659">
        <ele>595</ele>
        <time>2023-09-09T11:40:16Z</time>
      </trkpt>
      <trkpt lat="42.88004" lon="2.36658">
        <ele>595</ele>
        <time>2023-09-09T11:40:17Z</time>
      </trkpt>
      <trkpt lat="42.88004" lon="2.36657">
        <ele>594</ele>
        <time>2023-09-09T11:40:18Z</time>
      </trkpt>
      <trkpt lat="42.88005" lon="2.36657">
        <ele>594</ele>
        <time>2023-09-09T11:40:19Z</time>
      </trkpt>
      <trkpt lat="42.88005" lon="2.36656">
        <ele>594</ele>
        <time>2023-09-09T11:40:20Z</time>
      </trkpt>
      <trkpt lat="42.88006" lon="2.36655">
        <ele>594</ele>
        <time>2023-09-09T11:40:21Z</time>
      </trkpt>
      <trkpt lat="42.88007" lon="2.36654">
        <ele>594</ele>
        <time>2023-09-09T11:40:22Z</time>
      </trkpt>
      <trkpt lat="42.88008" lon="2.36653">
        <ele>593</ele>
        <time>2023-09-09T11:40:23Z</time>
      </trkpt>
      <trkpt lat="42.88008" lon="2.36653">
        <ele>593</ele>
        <time>2023-09-09T11:40:24Z</time>
      </trkpt>
      <trkpt lat="42.88009" lon="2.36652">
        <ele>593</ele>
        <time>2023-09-09T11:40:25Z</time>
      </trkpt>
      <trkpt lat="42.8801" lon="2.3665">
        <ele>593</ele>
        <time>2023-09-09T11:40:26Z</time>
      </trkpt>
      <trkpt lat="42.88011" lon="2.36649">
        <ele>593</ele>
        <time>2023-09-09T11:40:27Z</time>
      </trkpt>
      <trkpt lat="42.88012" lon="2.36648">
        <ele>592</ele>
        <time>2023-09-09T11:40:28Z</time>
      </trkpt>
      <trkpt lat="42.88012" lon="2.36646">
        <ele>592</ele>
        <time>2023-09-09T11:40:29Z</time>
      </trkpt>
      <trkpt lat="42.88013" lon="2.36645">
        <ele>592</ele>
        <time>2023-09-09T11:40:30Z</time>
      </trkpt>
      <trkpt lat="42.88014" lon="2.36644">
        <ele>592</ele>
        <time>2023-09-09T11:40:31Z</time>
      </trkpt>
      <trkpt lat="42.88014" lon="2.36642">
        <ele>592</ele>
        <time>2023-09-09T11:40:32Z</time>
      </trkpt>
      <trkpt lat="42.88015" lon="2.36641">
        <ele>591</ele>
        <time>2023-09-09T11:40:33Z</time>
      </trkpt>
      <trkpt lat="42.88016" lon="2.3664">
        <ele>591</ele>
        <time>2023-09-09T11:40:34Z</time>
      </trkpt>
      <trkpt lat="42.88017" lon="2.36638">
        <ele>591</ele>
        <time>2023-09-09T11:40:35Z</time>
      </trkpt>
      <trkpt lat="42.88017" lon="2.36637">
        <ele>591</ele>
        <time>2023-09-09T11:40:36Z</time>
      </trkpt>
      <trkpt lat="42.88018" lon="2.36636">
        <ele>591</ele>
        <time>2023-09-09T11:40:37Z</time>
      </trkpt>
      <trkpt lat="42.88019" lon="2.36635">
        <ele>590</ele>
        <time>2023-09-09T11:40:38Z</time>
      </trkpt>
      <trkpt lat="42.88019" lon="2.36634">
        <ele>590</ele>
        <time>2023-09-09T11:40:39Z</time>
      </trkpt>
      <trkpt lat="42.8802" lon="2.36633">
        <ele>590</ele>
        <time>2023-09-09T11:40:40Z</time>
      </trkpt>
      <trkpt lat="42.88021" lon="2.36632">
        <ele>590</ele>
        <time>2023-09-09T11:40:41Z</time>
      </trkpt>
      <trkpt lat="42.88022" lon="2.36631">
        <ele>590</ele>
        <time>2023-09-09T11:40:42Z</time>
      </trkpt>
      <trkpt lat="42.88023" lon="2.3663">
        <ele>589</ele>
        <time>2023-09-09T11:40:43Z</time>
      </trkpt>
      <trkpt lat="42.88023" lon="2.36628">
        <ele>589</ele>
        <time>2023-09-09T11:40:44Z</time>
      </trkpt>
      <trkpt lat="42.88024" lon="2.36627">
        <ele>589</ele>
        <time>2023-09-09T11:40:45Z</time>
      </trkpt>
      <trkpt lat="42.88024" lon="2.36625">
        <ele>589</ele>
        <time>2023-09-09T11:40:46Z</time>
      </trkpt>
      <trkpt lat="42.88025" lon="2.36624">
        <ele>589</ele>
        <time>2023-09-09T11:40:47Z</time>
      </trkpt>
      <trkpt lat="42.88025" lon="2.36622">
        <ele>588</ele>
        <time>2023-09-09T11:40:48Z</time>
      </trkpt>
      <trkpt lat="42.88025" lon="2.3662">
        <ele>588</ele>
        <time>2023-09-09T11:40:49Z</time>
      </trkpt>
      <trkpt lat="42.88026" lon="2.36618">
        <ele>588</ele>
        <time>2023-09-09T11:40:50Z</time>
      </trkpt>
      <trkpt lat="42.88026" lon="2.36616">
        <ele>588</ele>
        <time>2023-09-09T11:40:51Z</time>
      </trkpt>
      <trkpt lat="42.88026" lon="2.36614">
        <ele>588</ele>
        <time>2023-09-09T11:40:52Z</time>
      </trkpt>
      <trkpt lat="42.88026" lon="2.36613">
        <ele>588</ele>
        <time>2023-09-09T11:40:53Z</time>
      </trkpt>
      <trkpt lat="42.88027" lon="2.36612">
        <ele>588</ele>
        <time>2023-09-09T11:40:54Z</time>
      </trkpt>
      <trkpt lat="42.88027" lon="2.36611">
        <ele>588</ele>
        <time>2023-09-09T11:40:55Z</time>
      </trkpt>
      <trkpt lat="42.88027" lon="2.3661">
        <ele>588</ele>
        <time>2023-09-09T11:40:56Z</time>
      </trkpt>
      <trkpt lat="42.88027" lon="2.36609">
        <ele>588</ele>
        <time>2023-09-09T11:40:57Z</time>
      </trkpt>
      <trkpt lat="42.88027" lon="2.36608">
        <ele>587</ele>
        <time>2023-09-09T11:40:58Z</time>
      </trkpt>
      <trkpt lat="42.88028" lon="2.36607">
        <ele>587</ele>
        <time>2023-09-09T11:40:59Z</time>
      </trkpt>
      <trkpt lat="42.88027" lon="2.36606">
        <ele>587</ele>
        <time>2023-09-09T11:41:00Z</time>
      </trkpt>
      <trkpt lat="42.88027" lon="2.36605">
        <ele>587</ele>
        <time>2023-09-09T11:41:01Z</time>
      </trkpt>
      <trkpt lat="42.88027" lon="2.36604">
        <ele>587</ele>
        <time>2023-09-09T11:41:02Z</time>
      </trkpt>
      <trkpt lat="42.88027" lon="2.36603">
        <ele>586</ele>
        <time>2023-09-09T11:41:03Z</time>
      </trkpt>
      <trkpt lat="42.88027" lon="2.36602">
        <ele>586</ele>
        <time>2023-09-09T11:41:04Z</time>
      </trkpt>
      <trkpt lat="42.88027" lon="2.36601">
        <ele>585</ele>
        <time>2023-09-09T11:41:05Z</time>
      </trkpt>
      <trkpt lat="42.88027" lon="2.366">
        <ele>585</ele>
        <time>2023-09-09T11:41:06Z</time>
      </trkpt>
      <trkpt lat="42.88026" lon="2.36598">
        <ele>585</ele>
        <time>2023-09-09T11:41:07Z</time>
      </trkpt>
      <trkpt lat="42.88026" lon="2.36597">
        <ele>584</ele>
        <time>2023-09-09T11:41:08Z</time>
      </trkpt>
      <trkpt lat="42.88026" lon="2.36596">
        <ele>584</ele>
        <time>2023-09-09T11:41:09Z</time>
      </trkpt>
      <trkpt lat="42.88026" lon="2.36595">
        <ele>584</ele>
        <time>2023-09-09T11:41:10Z</time>
      </trkpt>
      <trkpt lat="42.88026" lon="2.36594">
        <ele>584</ele>
        <time>2023-09-09T11:41:11Z</time>
      </trkpt>
      <trkpt lat="42.88026" lon="2.36592">
        <ele>584</ele>
        <time>2023-09-09T11:41:12Z</time>
      </trkpt>
      <trkpt lat="42.88026" lon="2.36591">
        <ele>583</ele>
        <time>2023-09-09T11:41:13Z</time>
      </trkpt>
      <trkpt lat="42.88026" lon="2.36589">
        <ele>583</ele>
        <time>2023-09-09T11:41:14Z</time>
      </trkpt>
      <trkpt lat="42.88026" lon="2.36588">
        <ele>583</ele>
        <time>2023-09-09T11:41:15Z</time>
      </trkpt>
      <trkpt lat="42.88026" lon="2.36587">
        <ele>583</ele>
        <time>2023-09-09T11:41:16Z</time>
      </trkpt>
      <trkpt lat="42.88026" lon="2.36585">
        <ele>583</ele>
        <time>2023-09-09T11:41:17Z</time>
      </trkpt>
      <trkpt lat="42.88026" lon="2.36585">
        <ele>582</ele>
        <time>2023-09-09T11:41:18Z</time>
      </trkpt>
      <trkpt lat="42.88026" lon="2.36584">
        <ele>582</ele>
        <time>2023-09-09T11:41:19Z</time>
      </trkpt>
      <trkpt lat="42.88026" lon="2.36583">
        <ele>581</ele>
        <time>2023-09-09T11:41:20Z</time>
      </trkpt>
      <trkpt lat="42.88026" lon="2.36582">
        <ele>581</ele>
        <time>2023-09-09T11:41:21Z</time>
      </trkpt>
      <trkpt lat="42.88026" lon="2.36581">
        <ele>581</ele>
        <time>2023-09-09T11:41:22Z</time>
      </trkpt>
      <trkpt lat="42.88026" lon="2.3658">
        <ele>580</ele>
        <time>2023-09-09T11:41:23Z</time>
      </trkpt>
      <trkpt lat="42.88027" lon="2.36579">
        <ele>580</ele>
        <time>2023-09-09T11:41:24Z</time>
      </trkpt>
      <trkpt lat="42.88027" lon="2.36578">
        <ele>580</ele>
        <time>2023-09-09T11:41:25Z</time>
      </trkpt>
      <trkpt lat="42.88027" lon="2.36577">
        <ele>580</ele>
        <time>2023-09-09T11:41:26Z</time>
      </trkpt>
      <trkpt lat="42.88027" lon="2.36575">
        <ele>580</ele>
        <time>2023-09-09T11:41:27Z</time>
      </trkpt>
      <trkpt lat="42.88027" lon="2.36574">
        <ele>579</ele>
        <time>2023-09-09T11:41:28Z</time>
      </trkpt>
      <trkpt lat="42.88028" lon="2.36572">
        <ele>579</ele>
        <time>2023-09-09T11:41:29Z</time>
      </trkpt>
      <trkpt lat="42.88028" lon="2.3657">
        <ele>579</ele>
        <time>2023-09-09T11:41:30Z</time>
      </trkpt>
      <trkpt lat="42.88029" lon="2.36568">
        <ele>579</ele>
        <time>2023-09-09T11:41:31Z</time>
      </trkpt>
      <trkpt lat="42.88029" lon="2.36567">
        <ele>579</ele>
        <time>2023-09-09T11:41:32Z</time>
      </trkpt>
      <trkpt lat="42.8803" lon="2.36565">
        <ele>578</ele>
        <time>2023-09-09T11:41:33Z</time>
      </trkpt>
      <trkpt lat="42.8803" lon="2.36564">
        <ele>578</ele>
        <time>2023-09-09T11:41:34Z</time>
      </trkpt>
      <trkpt lat="42.8803" lon="2.36563">
        <ele>578</ele>
        <time>2023-09-09T11:41:35Z</time>
      </trkpt>
      <trkpt lat="42.88031" lon="2.36561">
        <ele>578</ele>
        <time>2023-09-09T11:41:36Z</time>
      </trkpt>
      <trkpt lat="42.88031" lon="2.3656">
        <ele>578</ele>
        <time>2023-09-09T11:41:37Z</time>
      </trkpt>
      <trkpt lat="42.88031" lon="2.36558">
        <ele>577</ele>
        <time>2023-09-09T11:41:38Z</time>
      </trkpt>
      <trkpt lat="42.88032" lon="2.36557">
        <ele>577</ele>
        <time>2023-09-09T11:41:39Z</time>
      </trkpt>
      <trkpt lat="42.88032" lon="2.36555">
        <ele>577</ele>
        <time>2023-09-09T11:41:40Z</time>
      </trkpt>
      <trkpt lat="42.88032" lon="2.36553">
        <ele>577</ele>
        <time>2023-09-09T11:41:41Z</time>
      </trkpt>
      <trkpt lat="42.88032" lon="2.36552">
        <ele>577</ele>
        <time>2023-09-09T11:41:42Z</time>
      </trkpt>
      <trkpt lat="42.88033" lon="2.36551">
        <ele>576</ele>
        <time>2023-09-09T11:41:43Z</time>
      </trkpt>
      <trkpt lat="42.88033" lon="2.36549">
        <ele>576</ele>
        <time>2023-09-09T11:41:44Z</time>
      </trkpt>
      <trkpt lat="42.88034" lon="2.36548">
        <ele>576</ele>
        <time>2023-09-09T11:41:45Z</time>
      </trkpt>
      <trkpt lat="42.88034" lon="2.36547">
        <ele>576</ele>
        <time>2023-09-09T11:41:46Z</time>
      </trkpt>
      <trkpt lat="42.88035" lon="2.36546">
        <ele>576</ele>
        <time>2023-09-09T11:41:47Z</time>
      </trkpt>
      <trkpt lat="42.88035" lon="2.36545">
        <ele>575</ele>
        <time>2023-09-09T11:41:48Z</time>
      </trkpt>
      <trkpt lat="42.88036" lon="2.36544">
        <ele>575</ele>
        <time>2023-09-09T11:41:49Z</time>
      </trkpt>
      <trkpt lat="42.88036" lon="2.36543">
        <ele>574</ele>
        <time>2023-09-09T11:41:50Z</time>
      </trkpt>
      <trkpt lat="42.88036" lon="2.36541">
        <ele>574</ele>
        <time>2023-09-09T11:41:51Z</time>
      </trkpt>
      <trkpt lat="42.88037" lon="2.3654">
        <ele>574</ele>
        <time>2023-09-09T11:41:52Z</time>
      </trkpt>
      <trkpt lat="42.88037" lon="2.36538">
        <ele>574</ele>
        <time>2023-09-09T11:41:53Z</time>
      </trkpt>
      <trkpt lat="42.88037" lon="2.36536">
        <ele>574</ele>
        <time>2023-09-09T11:41:54Z</time>
      </trkpt>
      <trkpt lat="42.88037" lon="2.36535">
        <ele>574</ele>
        <time>2023-09-09T11:41:55Z</time>
      </trkpt>
      <trkpt lat="42.88037" lon="2.36533">
        <ele>574</ele>
        <time>2023-09-09T11:41:56Z</time>
      </trkpt>
      <trkpt lat="42.88038" lon="2.36532">
        <ele>574</ele>
        <time>2023-09-09T11:41:57Z</time>
      </trkpt>
      <trkpt lat="42.88038" lon="2.3653">
        <ele>573</ele>
        <time>2023-09-09T11:41:58Z</time>
      </trkpt>
      <trkpt lat="42.88038" lon="2.36528">
        <ele>573</ele>
        <time>2023-09-09T11:41:59Z</time>
      </trkpt>
      <trkpt lat="42.88039" lon="2.36527">
        <ele>573</ele>
        <time>2023-09-09T11:42:00Z</time>
      </trkpt>
      <trkpt lat="42.88039" lon="2.36525">
        <ele>573</ele>
        <time>2023-09-09T11:42:01Z</time>
      </trkpt>
      <trkpt lat="42.8804" lon="2.36523">
        <ele>573</ele>
        <time>2023-09-09T11:42:02Z</time>
      </trkpt>
      <trkpt lat="42.8804" lon="2.36521">
        <ele>572</ele>
        <time>2023-09-09T11:42:03Z</time>
      </trkpt>
      <trkpt lat="42.88041" lon="2.36519">
        <ele>572</ele>
        <time>2023-09-09T11:42:04Z</time>
      </trkpt>
      <trkpt lat="42.88041" lon="2.36517">
        <ele>572</ele>
        <time>2023-09-09T11:42:05Z</time>
      </trkpt>
      <trkpt lat="42.88042" lon="2.36516">
        <ele>572</ele>
        <time>2023-09-09T11:42:06Z</time>
      </trkpt>
      <trkpt lat="42.88042" lon="2.36515">
        <ele>572</ele>
        <time>2023-09-09T11:42:07Z</time>
      </trkpt>
      <trkpt lat="42.88043" lon="2.36513">
        <ele>571</ele>
        <time>2023-09-09T11:42:08Z</time>
      </trkpt>
      <trkpt lat="42.88043" lon="2.36512">
        <ele>571</ele>
        <time>2023-09-09T11:42:09Z</time>
      </trkpt>
      <trkpt lat="42.88044" lon="2.36511">
        <ele>571</ele>
        <time>2023-09-09T11:42:10Z</time>
      </trkpt>
      <trkpt lat="42.88044" lon="2.3651">
        <ele>571</ele>
        <time>2023-09-09T11:42:11Z</time>
      </trkpt>
      <trkpt lat="42.88045" lon="2.36509">
        <ele>571</ele>
        <time>2023-09-09T11:42:12Z</time>
      </trkpt>
      <trkpt lat="42.88045" lon="2.36507">
        <ele>570</ele>
        <time>2023-09-09T11:42:13Z</time>
      </trkpt>
      <trkpt lat="42.88046" lon="2.36506">
        <ele>570</ele>
        <time>2023-09-09T11:42:14Z</time>
      </trkpt>
      <trkpt lat="42.88046" lon="2.36505">
        <ele>570</ele>
        <time>2023-09-09T11:42:15Z</time>
      </trkpt>
      <trkpt lat="42.88047" lon="2.36503">
        <ele>570</ele>
        <time>2023-09-09T11:42:16Z</time>
      </trkpt>
      <trkpt lat="42.88047" lon="2.36501">
        <ele>570</ele>
        <time>2023-09-09T11:42:17Z</time>
      </trkpt>
      <trkpt lat="42.88048" lon="2.365">
        <ele>569</ele>
        <time>2023-09-09T11:42:18Z</time>
      </trkpt>
      <trkpt lat="42.88049" lon="2.36498">
        <ele>569</ele>
        <time>2023-09-09T11:42:19Z</time>
      </trkpt>
      <trkpt lat="42.88049" lon="2.36496">
        <ele>569</ele>
        <time>2023-09-09T11:42:20Z</time>
      </trkpt>
      <trkpt lat="42.8805" lon="2.36494">
        <ele>569</ele>
        <time>2023-09-09T11:42:21Z</time>
      </trkpt>
      <trkpt lat="42.8805" lon="2.36493">
        <ele>569</ele>
        <time>2023-09-09T11:42:22Z</time>
      </trkpt>
      <trkpt lat="42.88051" lon="2.36491">
        <ele>568</ele>
        <time>2023-09-09T11:42:23Z</time>
      </trkpt>
      <trkpt lat="42.88051" lon="2.36489">
        <ele>568</ele>
        <time>2023-09-09T11:42:24Z</time>
      </trkpt>
      <trkpt lat="42.88052" lon="2.36487">
        <ele>568</ele>
        <time>2023-09-09T11:42:25Z</time>
      </trkpt>
      <trkpt lat="42.88052" lon="2.36485">
        <ele>568</ele>
        <time>2023-09-09T11:42:26Z</time>
      </trkpt>
      <trkpt lat="42.88052" lon="2.36483">
        <ele>568</ele>
        <time>2023-09-09T11:42:27Z</time>
      </trkpt>
      <trkpt lat="42.88053" lon="2.36481">
        <ele>568</ele>
        <time>2023-09-09T11:42:28Z</time>
      </trkpt>
      <trkpt lat="42.88053" lon="2.36479">
        <ele>568</ele>
        <time>2023-09-09T11:42:29Z</time>
      </trkpt>
      <trkpt lat="42.88053" lon="2.36477">
        <ele>568</ele>
        <time>2023-09-09T11:42:30Z</time>
      </trkpt>
      <trkpt lat="42.88053" lon="2.36474">
        <ele>568</ele>
        <time>2023-09-09T11:42:31Z</time>
      </trkpt>
      <trkpt lat="42.88054" lon="2.36472">
        <ele>568</ele>
        <time>2023-09-09T11:42:32Z</time>
      </trkpt>
      <trkpt lat="42.88054" lon="2.3647">
        <ele>567</ele>
        <time>2023-09-09T11:42:33Z</time>
      </trkpt>
      <trkpt lat="42.88055" lon="2.36467">
        <ele>567</ele>
        <time>2023-09-09T11:42:34Z</time>
      </trkpt>
      <trkpt lat="42.88055" lon="2.36465">
        <ele>567</ele>
        <time>2023-09-09T11:42:35Z</time>
      </trkpt>
      <trkpt lat="42.88056" lon="2.36463">
        <ele>567</ele>
        <time>2023-09-09T11:42:36Z</time>
      </trkpt>
      <trkpt lat="42.88056" lon="2.3646">
        <ele>567</ele>
        <time>2023-09-09T11:42:37Z</time>
      </trkpt>
      <trkpt lat="42.88056" lon="2.36458">
        <ele>566</ele>
        <time>2023-09-09T11:42:38Z</time>
      </trkpt>
      <trkpt lat="42.88056" lon="2.36456">
        <ele>566</ele>
        <time>2023-09-09T11:42:39Z</time>
      </trkpt>
      <trkpt lat="42.88056" lon="2.36453">
        <ele>566</ele>
        <time>2023-09-09T11:42:40Z</time>
      </trkpt>
      <trkpt lat="42.88056" lon="2.36451">
        <ele>566</ele>
        <time>2023-09-09T11:42:41Z</time>
      </trkpt>
      <trkpt lat="42.88056" lon="2.36448">
        <ele>566</ele>
        <time>2023-09-09T11:42:42Z</time>
      </trkpt>
      <trkpt lat="42.88055" lon="2.36446">
        <ele>566</ele>
        <time>2023-09-09T11:42:43Z</time>
      </trkpt>
      <trkpt lat="42.88055" lon="2.36443">
        <ele>566</ele>
        <time>2023-09-09T11:42:44Z</time>
      </trkpt>
      <trkpt lat="42.88055" lon="2.36441">
        <ele>566</ele>
        <time>2023-09-09T11:42:45Z</time>
      </trkpt>
      <trkpt lat="42.88055" lon="2.36438">
        <ele>566</ele>
        <time>2023-09-09T11:42:46Z</time>
      </trkpt>
      <trkpt lat="42.88055" lon="2.36435">
        <ele>566</ele>
        <time>2023-09-09T11:42:47Z</time>
      </trkpt>
      <trkpt lat="42.88055" lon="2.36432">
        <ele>566</ele>
        <time>2023-09-09T11:42:48Z</time>
      </trkpt>
      <trkpt lat="42.88055" lon="2.3643">
        <ele>566</ele>
        <time>2023-09-09T11:42:49Z</time>
      </trkpt>
      <trkpt lat="42.88056" lon="2.36427">
        <ele>566</ele>
        <time>2023-09-09T11:42:50Z</time>
      </trkpt>
      <trkpt lat="42.88056" lon="2.36425">
        <ele>566</ele>
        <time>2023-09-09T11:42:51Z</time>
      </trkpt>
      <trkpt lat="42.88057" lon="2.36422">
        <ele>566</ele>
        <time>2023-09-09T11:42:52Z</time>
      </trkpt>
      <trkpt lat="42.88057" lon="2.3642">
        <ele>565</ele>
        <time>2023-09-09T11:42:53Z</time>
      </trkpt>
      <trkpt lat="42.88058" lon="2.36418">
        <ele>565</ele>
        <time>2023-09-09T11:42:54Z</time>
      </trkpt>
      <trkpt lat="42.88059" lon="2.36416">
        <ele>565</ele>
        <time>2023-09-09T11:42:55Z</time>
      </trkpt>
      <trkpt lat="42.8806" lon="2.36414">
        <ele>565</ele>
        <time>2023-09-09T11:42:56Z</time>
      </trkpt>
      <trkpt lat="42.88061" lon="2.36412">
        <ele>565</ele>
        <time>2023-09-09T11:42:57Z</time>
      </trkpt>
      <trkpt lat="42.88062" lon="2.36411">
        <ele>565</ele>
        <time>2023-09-09T11:42:58Z</time>
      </trkpt>
      <trkpt lat="42.88063" lon="2.3641">
        <ele>565</ele>
        <time>2023-09-09T11:42:59Z</time>
      </trkpt>
      <trkpt lat="42.88065" lon="2.36409">
        <ele>565</ele>
        <time>2023-09-09T11:43:00Z</time>
      </trkpt>
      <trkpt lat="42.88066" lon="2.36409">
        <ele>565</ele>
        <time>2023-09-09T11:43:01Z</time>
      </trkpt>
      <trkpt lat="42.88067" lon="2.36409">
        <ele>565</ele>
        <time>2023-09-09T11:43:02Z</time>
      </trkpt>
      <trkpt lat="42.88069" lon="2.3641">
        <ele>564</ele>
        <time>2023-09-09T11:43:03Z</time>
      </trkpt>
      <trkpt lat="42.8807" lon="2.36411">
        <ele>564</ele>
        <time>2023-09-09T11:43:04Z</time>
      </trkpt>
      <trkpt lat="42.88071" lon="2.36412">
        <ele>563</ele>
        <time>2023-09-09T11:43:05Z</time>
      </trkpt>
      <trkpt lat="42.88072" lon="2.36414">
        <ele>563</ele>
        <time>2023-09-09T11:43:06Z</time>
      </trkpt>
      <trkpt lat="42.88073" lon="2.36416">
        <ele>563</ele>
        <time>2023-09-09T11:43:07Z</time>
      </trkpt>
      <trkpt lat="42.88073" lon="2.36417">
        <ele>562</ele>
        <time>2023-09-09T11:43:08Z</time>
      </trkpt>
      <trkpt lat="42.88074" lon="2.36419">
        <ele>562</ele>
        <time>2023-09-09T11:43:09Z</time>
      </trkpt>
      <trkpt lat="42.88074" lon="2.36421">
        <ele>562</ele>
        <time>2023-09-09T11:43:10Z</time>
      </trkpt>
      <trkpt lat="42.88074" lon="2.36423">
        <ele>562</ele>
        <time>2023-09-09T11:43:11Z</time>
      </trkpt>
      <trkpt lat="42.88075" lon="2.36425">
        <ele>562</ele>
        <time>2023-09-09T11:43:12Z</time>
      </trkpt>
      <trkpt lat="42.88075" lon="2.36427">
        <ele>561</ele>
        <time>2023-09-09T11:43:13Z</time>
      </trkpt>
      <trkpt lat="42.88075" lon="2.36428">
        <ele>561</ele>
        <time>2023-09-09T11:43:14Z</time>
      </trkpt>
      <trkpt lat="42.88076" lon="2.3643">
        <ele>561</ele>
        <time>2023-09-09T11:43:15Z</time>
      </trkpt>
      <trkpt lat="42.88076" lon="2.36432">
        <ele>561</ele>
        <time>2023-09-09T11:43:16Z</time>
      </trkpt>
      <trkpt lat="42.88077" lon="2.36433">
        <ele>561</ele>
        <time>2023-09-09T11:43:17Z</time>
      </trkpt>
      <trkpt lat="42.88077" lon="2.36435">
        <ele>560</ele>
        <time>2023-09-09T11:43:18Z</time>
      </trkpt>
      <trkpt lat="42.88078" lon="2.36437">
        <ele>560</ele>
        <time>2023-09-09T11:43:19Z</time>
      </trkpt>
      <trkpt lat="42.88078" lon="2.36439">
        <ele>560</ele>
        <time>2023-09-09T11:43:20Z</time>
      </trkpt>
      <trkpt lat="42.88078" lon="2.3644">
        <ele>560</ele>
        <time>2023-09-09T11:43:21Z</time>
      </trkpt>
      <trkpt lat="42.88079" lon="2.36443">
        <ele>560</ele>
        <time>2023-09-09T11:43:22Z</time>
      </trkpt>
      <trkpt lat="42.88079" lon="2.36445">
        <ele>559</ele>
        <time>2023-09-09T11:43:23Z</time>
      </trkpt>
      <trkpt lat="42.88079" lon="2.36447">
        <ele>559</ele>
        <time>2023-09-09T11:43:24Z</time>
      </trkpt>
      <trkpt lat="42.8808" lon="2.36449">
        <ele>559</ele>
        <time>2023-09-09T11:43:25Z</time>
      </trkpt>
      <trkpt lat="42.8808" lon="2.36451">
        <ele>559</ele>
        <time>2023-09-09T11:43:26Z</time>
      </trkpt>
      <trkpt lat="42.8808" lon="2.36452">
        <ele>559</ele>
        <time>2023-09-09T11:43:27Z</time>
      </trkpt>
      <trkpt lat="42.8808" lon="2.36454">
        <ele>559</ele>
        <time>2023-09-09T11:43:28Z</time>
      </trkpt>
      <trkpt lat="42.88081" lon="2.36456">
        <ele>559</ele>
        <time>2023-09-09T11:43:29Z</time>
      </trkpt>
      <trkpt lat="42.88081" lon="2.36458">
        <ele>559</ele>
        <time>2023-09-09T11:43:30Z</time>
      </trkpt>
      <trkpt lat="42.88081" lon="2.36461">
        <ele>559</ele>
        <time>2023-09-09T11:43:31Z</time>
      </trkpt>
      <trkpt lat="42.88081" lon="2.36463">
        <ele>559</ele>
        <time>2023-09-09T11:43:32Z</time>
      </trkpt>
      <trkpt lat="42.88081" lon="2.36465">
        <ele>558</ele>
        <time>2023-09-09T11:43:33Z</time>
      </trkpt>
      <trkpt lat="42.88081" lon="2.36467">
        <ele>558</ele>
        <time>2023-09-09T11:43:34Z</time>
      </trkpt>
      <trkpt lat="42.88081" lon="2.36469">
        <ele>558</ele>
        <time>2023-09-09T11:43:35Z</time>
      </trkpt>
      <trkpt lat="42.88082" lon="2.36471">
        <ele>558</ele>
        <time>2023-09-09T11:43:36Z</time>
      </trkpt>
      <trkpt lat="42.88082" lon="2.36473">
        <ele>558</ele>
        <time>2023-09-09T11:43:37Z</time>
      </trkpt>
      <trkpt lat="42.88082" lon="2.36476">
        <ele>558</ele>
        <time>2023-09-09T11:43:38Z</time>
      </trkpt>
      <trkpt lat="42.88083" lon="2.36477">
        <ele>558</ele>
        <time>2023-09-09T11:43:39Z</time>
      </trkpt>
      <trkpt lat="42.88083" lon="2.36479">
        <ele>558</ele>
        <time>2023-09-09T11:43:40Z</time>
      </trkpt>
      <trkpt lat="42.88084" lon="2.36481">
        <ele>558</ele>
        <time>2023-09-09T11:43:41Z</time>
      </trkpt>
      <trkpt lat="42.88084" lon="2.36482">
        <ele>558</ele>
        <time>2023-09-09T11:43:42Z</time>
      </trkpt>
      <trkpt lat="42.88084" lon="2.36484">
        <ele>557</ele>
        <time>2023-09-09T11:43:43Z</time>
      </trkpt>
      <trkpt lat="42.88085" lon="2.36486">
        <ele>557</ele>
        <time>2023-09-09T11:43:44Z</time>
      </trkpt>
      <trkpt lat="42.88085" lon="2.36487">
        <ele>557</ele>
        <time>2023-09-09T11:43:45Z</time>
      </trkpt>
      <trkpt lat="42.88086" lon="2.36489">
        <ele>557</ele>
        <time>2023-09-09T11:43:46Z</time>
      </trkpt>
      <trkpt lat="42.88086" lon="2.36491">
        <ele>557</ele>
        <time>2023-09-09T11:43:47Z</time>
      </trkpt>
      <trkpt lat="42.88087" lon="2.36492">
        <ele>557</ele>
        <time>2023-09-09T11:43:48Z</time>
      </trkpt>
      <trkpt lat="42.88087" lon="2.36494">
        <ele>557</ele>
        <time>2023-09-09T11:43:49Z</time>
      </trkpt>
      <trkpt lat="42.88088" lon="2.36495">
        <ele>557</ele>
        <time>2023-09-09T11:43:50Z</time>
      </trkpt>
      <trkpt lat="42.88088" lon="2.36497">
        <ele>557</ele>
        <time>2023-09-09T11:43:51Z</time>
      </trkpt>
      <trkpt lat="42.88089" lon="2.36498">
        <ele>557</ele>
        <time>2023-09-09T11:43:52Z</time>
      </trkpt>
      <trkpt lat="42.88089" lon="2.36499">
        <ele>557</ele>
        <time>2023-09-09T11:43:53Z</time>
      </trkpt>
      <trkpt lat="42.8809" lon="2.36501">
        <ele>557</ele>
        <time>2023-09-09T11:43:54Z</time>
      </trkpt>
      <trkpt lat="42.88091" lon="2.36502">
        <ele>557</ele>
        <time>2023-09-09T11:43:55Z</time>
      </trkpt>
      <trkpt lat="42.88092" lon="2.36504">
        <ele>557</ele>
        <time>2023-09-09T11:43:56Z</time>
      </trkpt>
      <trkpt lat="42.88093" lon="2.36505">
        <ele>557</ele>
        <time>2023-09-09T11:43:57Z</time>
      </trkpt>
      <trkpt lat="42.88093" lon="2.36507">
        <ele>556</ele>
        <time>2023-09-09T11:43:58Z</time>
      </trkpt>
      <trkpt lat="42.88094" lon="2.36509">
        <ele>556</ele>
        <time>2023-09-09T11:43:59Z</time>
      </trkpt>
      <trkpt lat="42.88095" lon="2.36511">
        <ele>556</ele>
        <time>2023-09-09T11:44:00Z</time>
      </trkpt>
      <trkpt lat="42.88097" lon="2.36513">
        <ele>556</ele>
        <time>2023-09-09T11:44:01Z</time>
      </trkpt>
      <trkpt lat="42.88098" lon="2.36515">
        <ele>556</ele>
        <time>2023-09-09T11:44:02Z</time>
      </trkpt>
      <trkpt lat="42.88099" lon="2.36516">
        <ele>555</ele>
        <time>2023-09-09T11:44:03Z</time>
      </trkpt>
      <trkpt lat="42.881" lon="2.36518">
        <ele>555</ele>
        <time>2023-09-09T11:44:04Z</time>
      </trkpt>
      <trkpt lat="42.88101" lon="2.36519">
        <ele>555</ele>
        <time>2023-09-09T11:44:05Z</time>
      </trkpt>
      <trkpt lat="42.88102" lon="2.3652">
        <ele>555</ele>
        <time>2023-09-09T11:44:06Z</time>
      </trkpt>
      <trkpt lat="42.88103" lon="2.36521">
        <ele>555</ele>
        <time>2023-09-09T11:44:07Z</time>
      </trkpt>
      <trkpt lat="42.88104" lon="2.36522">
        <ele>555</ele>
        <time>2023-09-09T11:44:08Z</time>
      </trkpt>
      <trkpt lat="42.88105" lon="2.36522">
        <ele>555</ele>
        <time>2023-09-09T11:44:09Z</time>
      </trkpt>
      <trkpt lat="42.88106" lon="2.36523">
        <ele>555</ele>
        <time>2023-09-09T11:44:10Z</time>
      </trkpt>
      <trkpt lat="42.88107" lon="2.36523">
        <ele>555</ele>
        <time>2023-09-09T11:44:11Z</time>
      </trkpt>
      <trkpt lat="42.88108" lon="2.36523">
        <ele>555</ele>
        <time>2023-09-09T11:44:12Z</time>
      </trkpt>
      <trkpt lat="42.88109" lon="2.36523">
        <ele>554</ele>
        <time>2023-09-09T11:44:13Z</time>
      </trkpt>
      <trkpt lat="42.88111" lon="2.36523">
        <ele>554</ele>
        <time>2023-09-09T11:44:14Z</time>
      </trkpt>
      <trkpt lat="42.88112" lon="2.36523">
        <ele>554</ele>
        <time>2023-09-09T11:44:15Z</time>
      </trkpt>
      <trkpt lat="42.88114" lon="2.36523">
        <ele>554</ele>
        <time>2023-09-09T11:44:16Z</time>
      </trkpt>
      <trkpt lat="42.88115" lon="2.36523">
        <ele>554</ele>
        <time>2023-09-09T11:44:17Z</time>
      </trkpt>
      <trkpt lat="42.88116" lon="2.36523">
        <ele>553</ele>
        <time>2023-09-09T11:44:18Z</time>
      </trkpt>
      <trkpt lat="42.88116" lon="2.36523">
        <ele>553</ele>
        <time>2023-09-09T11:44:19Z</time>
      </trkpt>
      <trkpt lat="42.88117" lon="2.36522">
        <ele>553</ele>
        <time>2023-09-09T11:44:20Z</time>
      </trkpt>
      <trkpt lat="42.88117" lon="2.3652">
        <ele>553</ele>
        <time>2023-09-09T11:44:21Z</time>
      </trkpt>
      <trkpt lat="42.88118" lon="2.36519">
        <ele>553</ele>
        <time>2023-09-09T11:44:22Z</time>
      </trkpt>
      <trkpt lat="42.88118" lon="2.36517">
        <ele>552</ele>
        <time>2023-09-09T11:44:23Z</time>
      </trkpt>
      <trkpt lat="42.88118" lon="2.36514">
        <ele>552</ele>
        <time>2023-09-09T11:44:24Z</time>
      </trkpt>
      <trkpt lat="42.88118" lon="2.36512">
        <ele>552</ele>
        <time>2023-09-09T11:44:25Z</time>
      </trkpt>
      <trkpt lat="42.88118" lon="2.3651">
        <ele>552</ele>
        <time>2023-09-09T11:44:26Z</time>
      </trkpt>
      <trkpt lat="42.88118" lon="2.36508">
        <ele>552</ele>
        <time>2023-09-09T11:44:27Z</time>
      </trkpt>
      <trkpt lat="42.88118" lon="2.36505">
        <ele>551</ele>
        <time>2023-09-09T11:44:28Z</time>
      </trkpt>
      <trkpt lat="42.88119" lon="2.36503">
        <ele>551</ele>
        <time>2023-09-09T11:44:29Z</time>
      </trkpt>
      <trkpt lat="42.88119" lon="2.36501">
        <ele>551</ele>
        <time>2023-09-09T11:44:30Z</time>
      </trkpt>
      <trkpt lat="42.8812" lon="2.36498">
        <ele>551</ele>
        <time>2023-09-09T11:44:31Z</time>
      </trkpt>
      <trkpt lat="42.8812" lon="2.36496">
        <ele>551</ele>
        <time>2023-09-09T11:44:32Z</time>
      </trkpt>
      <trkpt lat="42.88121" lon="2.36494">
        <ele>551</ele>
        <time>2023-09-09T11:44:33Z</time>
      </trkpt>
      <trkpt lat="42.88121" lon="2.36491">
        <ele>551</ele>
        <time>2023-09-09T11:44:34Z</time>
      </trkpt>
      <trkpt lat="42.88122" lon="2.36489">
        <ele>551</ele>
        <time>2023-09-09T11:44:35Z</time>
      </trkpt>
      <trkpt lat="42.88122" lon="2.36487">
        <ele>551</ele>
        <time>2023-09-09T11:44:36Z</time>
      </trkpt>
      <trkpt lat="42.88123" lon="2.36485">
        <ele>551</ele>
        <time>2023-09-09T11:44:37Z</time>
      </trkpt>
      <trkpt lat="42.88124" lon="2.36483">
        <ele>551</ele>
        <time>2023-09-09T11:44:38Z</time>
      </trkpt>
      <trkpt lat="42.88125" lon="2.36481">
        <ele>551</ele>
        <time>2023-09-09T11:44:39Z</time>
      </trkpt>
      <trkpt lat="42.88126" lon="2.36479">
        <ele>551</ele>
        <time>2023-09-09T11:44:40Z</time>
      </trkpt>
      <trkpt lat="42.88127" lon="2.36477">
        <ele>551</ele>
        <time>2023-09-09T11:44:41Z</time>
      </trkpt>
      <trkpt lat="42.88128" lon="2.36475">
        <ele>551</ele>
        <time>2023-09-09T11:44:42Z</time>
      </trkpt>
      <trkpt lat="42.88129" lon="2.36473">
        <ele>551</ele>
        <time>2023-09-09T11:44:43Z</time>
      </trkpt>
      <trkpt lat="42.8813" lon="2.36471">
        <ele>551</ele>
        <time>2023-09-09T11:44:44Z</time>
      </trkpt>
      <trkpt lat="42.88131" lon="2.36469">
        <ele>551</ele>
        <time>2023-09-09T11:44:45Z</time>
      </trkpt>
      <trkpt lat="42.88132" lon="2.36467">
        <ele>551</ele>
        <time>2023-09-09T11:44:46Z</time>
      </trkpt>
      <trkpt lat="42.88133" lon="2.36465">
        <ele>551</ele>
        <time>2023-09-09T11:44:47Z</time>
      </trkpt>
      <trkpt lat="42.88134" lon="2.36463">
        <ele>550</ele>
        <time>2023-09-09T11:44:48Z</time>
      </trkpt>
      <trkpt lat="42.88135" lon="2.36461">
        <ele>550</ele>
        <time>2023-09-09T11:44:49Z</time>
      </trkpt>
      <trkpt lat="42.88137" lon="2.36459">
        <ele>550</ele>
        <time>2023-09-09T11:44:50Z</time>
      </trkpt>
      <trkpt lat="42.88138" lon="2.36457">
        <ele>550</ele>
        <time>2023-09-09T11:44:51Z</time>
      </trkpt>
      <trkpt lat="42.8814" lon="2.36455">
        <ele>550</ele>
        <time>2023-09-09T11:44:52Z</time>
      </trkpt>
      <trkpt lat="42.88141" lon="2.36453">
        <ele>550</ele>
        <time>2023-09-09T11:44:53Z</time>
      </trkpt>
      <trkpt lat="42.88143" lon="2.36451">
        <ele>550</ele>
        <time>2023-09-09T11:44:54Z</time>
      </trkpt>
      <trkpt lat="42.88144" lon="2.3645">
        <ele>550</ele>
        <time>2023-09-09T11:44:55Z</time>
      </trkpt>
      <trkpt lat="42.88145" lon="2.36448">
        <ele>550</ele>
        <time>2023-09-09T11:44:56Z</time>
      </trkpt>
      <trkpt lat="42.88146" lon="2.36447">
        <ele>550</ele>
        <time>2023-09-09T11:44:57Z</time>
      </trkpt>
      <trkpt lat="42.88147" lon="2.36445">
        <ele>550</ele>
        <time>2023-09-09T11:44:58Z</time>
      </trkpt>
      <trkpt lat="42.88147" lon="2.36443">
        <ele>550</ele>
        <time>2023-09-09T11:44:59Z</time>
      </trkpt>
      <trkpt lat="42.88148" lon="2.36442">
        <ele>550</ele>
        <time>2023-09-09T11:45:00Z</time>
      </trkpt>
      <trkpt lat="42.88148" lon="2.36439">
        <ele>550</ele>
        <time>2023-09-09T11:45:01Z</time>
      </trkpt>
      <trkpt lat="42.88148" lon="2.36437">
        <ele>550</ele>
        <time>2023-09-09T11:45:02Z</time>
      </trkpt>
      <trkpt lat="42.88148" lon="2.36435">
        <ele>550</ele>
        <time>2023-09-09T11:45:03Z</time>
      </trkpt>
      <trkpt lat="42.88148" lon="2.36432">
        <ele>550</ele>
        <time>2023-09-09T11:45:04Z</time>
      </trkpt>
      <trkpt lat="42.88148" lon="2.36429">
        <ele>550</ele>
        <time>2023-09-09T11:45:05Z</time>
      </trkpt>
      <trkpt lat="42.88148" lon="2.36425">
        <ele>550</ele>
        <time>2023-09-09T11:45:06Z</time>
      </trkpt>
      <trkpt lat="42.88148" lon="2.36422">
        <ele>550</ele>
        <time>2023-09-09T11:45:07Z</time>
      </trkpt>
      <trkpt lat="42.88149" lon="2.36419">
        <ele>550</ele>
        <time>2023-09-09T11:45:08Z</time>
      </trkpt>
      <trkpt lat="42.88149" lon="2.36417">
        <ele>550</ele>
        <time>2023-09-09T11:45:09Z</time>
      </trkpt>
      <trkpt lat="42.88149" lon="2.36414">
        <ele>550</ele>
        <time>2023-09-09T11:45:10Z</time>
      </trkpt>
      <trkpt lat="42.88149" lon="2.36411">
        <ele>550</ele>
        <time>2023-09-09T11:45:11Z</time>
      </trkpt>
      <trkpt lat="42.8815" lon="2.36409">
        <ele>550</ele>
        <time>2023-09-09T11:45:12Z</time>
      </trkpt>
      <trkpt lat="42.8815" lon="2.36406">
        <ele>550</ele>
        <time>2023-09-09T11:45:13Z</time>
      </trkpt>
      <trkpt lat="42.8815" lon="2.36404">
        <ele>550</ele>
        <time>2023-09-09T11:45:14Z</time>
      </trkpt>
      <trkpt lat="42.8815" lon="2.36401">
        <ele>550</ele>
        <time>2023-09-09T11:45:15Z</time>
      </trkpt>
      <trkpt lat="42.88151" lon="2.36398">
        <ele>550</ele>
        <time>2023-09-09T11:45:16Z</time>
      </trkpt>
      <trkpt lat="42.88151" lon="2.36396">
        <ele>550</ele>
        <time>2023-09-09T11:45:17Z</time>
      </trkpt>
      <trkpt lat="42.88152" lon="2.36393">
        <ele>550</ele>
        <time>2023-09-09T11:45:18Z</time>
      </trkpt>
      <trkpt lat="42.88153" lon="2.36391">
        <ele>550</ele>
        <time>2023-09-09T11:45:19Z</time>
      </trkpt>
      <trkpt lat="42.88154" lon="2.36389">
        <ele>550</ele>
        <time>2023-09-09T11:45:20Z</time>
      </trkpt>
      <trkpt lat="42.88154" lon="2.36387">
        <ele>550</ele>
        <time>2023-09-09T11:45:21Z</time>
      </trkpt>
      <trkpt lat="42.88155" lon="2.36386">
        <ele>551</ele>
        <time>2023-09-09T11:45:22Z</time>
      </trkpt>
      <trkpt lat="42.88156" lon="2.36383">
        <ele>551</ele>
        <time>2023-09-09T11:45:23Z</time>
      </trkpt>
      <trkpt lat="42.88157" lon="2.36381">
        <ele>551</ele>
        <time>2023-09-09T11:45:24Z</time>
      </trkpt>
      <trkpt lat="42.88158" lon="2.36379">
        <ele>551</ele>
        <time>2023-09-09T11:45:25Z</time>
      </trkpt>
      <trkpt lat="42.88158" lon="2.36377">
        <ele>551</ele>
        <time>2023-09-09T11:45:26Z</time>
      </trkpt>
      <trkpt lat="42.88159" lon="2.36375">
        <ele>551</ele>
        <time>2023-09-09T11:45:27Z</time>
      </trkpt>
      <trkpt lat="42.8816" lon="2.36373">
        <ele>551</ele>
        <time>2023-09-09T11:45:28Z</time>
      </trkpt>
      <trkpt lat="42.88161" lon="2.3637">
        <ele>551</ele>
        <time>2023-09-09T11:45:29Z</time>
      </trkpt>
      <trkpt lat="42.88161" lon="2.36368">
        <ele>551</ele>
        <time>2023-09-09T11:45:30Z</time>
      </trkpt>
      <trkpt lat="42.88162" lon="2.36366">
        <ele>551</ele>
        <time>2023-09-09T11:45:31Z</time>
      </trkpt>
      <trkpt lat="42.88163" lon="2.36363">
        <ele>552</ele>
        <time>2023-09-09T11:45:32Z</time>
      </trkpt>
      <trkpt lat="42.88164" lon="2.3636">
        <ele>552</ele>
        <time>2023-09-09T11:45:33Z</time>
      </trkpt>
      <trkpt lat="42.88164" lon="2.36358">
        <ele>552</ele>
        <time>2023-09-09T11:45:34Z</time>
      </trkpt>
      <trkpt lat="42.88164" lon="2.36355">
        <ele>552</ele>
        <time>2023-09-09T11:45:35Z</time>
      </trkpt>
      <trkpt lat="42.88164" lon="2.36352">
        <ele>552</ele>
        <time>2023-09-09T11:45:36Z</time>
      </trkpt>
      <trkpt lat="42.88164" lon="2.36349">
        <ele>552</ele>
        <time>2023-09-09T11:45:37Z</time>
      </trkpt>
      <trkpt lat="42.88163" lon="2.36346">
        <ele>552</ele>
        <time>2023-09-09T11:45:38Z</time>
      </trkpt>
      <trkpt lat="42.88163" lon="2.36343">
        <ele>552</ele>
        <time>2023-09-09T11:45:39Z</time>
      </trkpt>
      <trkpt lat="42.88164" lon="2.36341">
        <ele>552</ele>
        <time>2023-09-09T11:45:40Z</time>
      </trkpt>
      <trkpt lat="42.88164" lon="2.36338">
        <ele>552</ele>
        <time>2023-09-09T11:45:41Z</time>
      </trkpt>
      <trkpt lat="42.88164" lon="2.36336">
        <ele>552</ele>
        <time>2023-09-09T11:45:42Z</time>
      </trkpt>
      <trkpt lat="42.88164" lon="2.36334">
        <ele>552</ele>
        <time>2023-09-09T11:45:43Z</time>
      </trkpt>
      <trkpt lat="42.88164" lon="2.36331">
        <ele>552</ele>
        <time>2023-09-09T11:45:44Z</time>
      </trkpt>
      <trkpt lat="42.88165" lon="2.36329">
        <ele>552</ele>
        <time>2023-09-09T11:45:45Z</time>
      </trkpt>
      <trkpt lat="42.88165" lon="2.36327">
        <ele>552</ele>
        <time>2023-09-09T11:45:46Z</time>
      </trkpt>
      <trkpt lat="42.88165" lon="2.36325">
        <ele>552</ele>
        <time>2023-09-09T11:45:47Z</time>
      </trkpt>
      <trkpt lat="42.88166" lon="2.36324">
        <ele>552</ele>
        <time>2023-09-09T11:45:48Z</time>
      </trkpt>
      <trkpt lat="42.88166" lon="2.36321">
        <ele>552</ele>
        <time>2023-09-09T11:45:49Z</time>
      </trkpt>
      <trkpt lat="42.88167" lon="2.36319">
        <ele>552</ele>
        <time>2023-09-09T11:45:50Z</time>
      </trkpt>
      <trkpt lat="42.88168" lon="2.36317">
        <ele>552</ele>
        <time>2023-09-09T11:45:51Z</time>
      </trkpt>
      <trkpt lat="42.88168" lon="2.36315">
        <ele>552</ele>
        <time>2023-09-09T11:45:52Z</time>
      </trkpt>
      <trkpt lat="42.88168" lon="2.36312">
        <ele>552</ele>
        <time>2023-09-09T11:45:53Z</time>
      </trkpt>
      <trkpt lat="42.88169" lon="2.36309">
        <ele>552</ele>
        <time>2023-09-09T11:45:54Z</time>
      </trkpt>
      <trkpt lat="42.88169" lon="2.36307">
        <ele>552</ele>
        <time>2023-09-09T11:45:55Z</time>
      </trkpt>
      <trkpt lat="42.88169" lon="2.36304">
        <ele>552</ele>
        <time>2023-09-09T11:45:56Z</time>
      </trkpt>
      <trkpt lat="42.88169" lon="2.36301">
        <ele>552</ele>
        <time>2023-09-09T11:45:57Z</time>
      </trkpt>
      <trkpt lat="42.8817" lon="2.36299">
        <ele>552</ele>
        <time>2023-09-09T11:45:58Z</time>
      </trkpt>
      <trkpt lat="42.8817" lon="2.36296">
        <ele>552</ele>
        <time>2023-09-09T11:45:59Z</time>
      </trkpt>
      <trkpt lat="42.88171" lon="2.36293">
        <ele>552</ele>
        <time>2023-09-09T11:46:00Z</time>
      </trkpt>
      <trkpt lat="42.88171" lon="2.3629">
        <ele>552</ele>
        <time>2023-09-09T11:46:01Z</time>
      </trkpt>
      <trkpt lat="42.88172" lon="2.36287">
        <ele>552</ele>
        <time>2023-09-09T11:46:02Z</time>
      </trkpt>
      <trkpt lat="42.88173" lon="2.36284">
        <ele>552</ele>
        <time>2023-09-09T11:46:03Z</time>
      </trkpt>
      <trkpt lat="42.88174" lon="2.36282">
        <ele>552</ele>
        <time>2023-09-09T11:46:04Z</time>
      </trkpt>
      <trkpt lat="42.88174" lon="2.36279">
        <ele>552</ele>
        <time>2023-09-09T11:46:05Z</time>
      </trkpt>
      <trkpt lat="42.88175" lon="2.36277">
        <ele>552</ele>
        <time>2023-09-09T11:46:06Z</time>
      </trkpt>
      <trkpt lat="42.88175" lon="2.36275">
        <ele>552</ele>
        <time>2023-09-09T11:46:07Z</time>
      </trkpt>
      <trkpt lat="42.88176" lon="2.36273">
        <ele>552</ele>
        <time>2023-09-09T11:46:08Z</time>
      </trkpt>
      <trkpt lat="42.88177" lon="2.3627">
        <ele>552</ele>
        <time>2023-09-09T11:46:09Z</time>
      </trkpt>
      <trkpt lat="42.88177" lon="2.36268">
        <ele>552</ele>
        <time>2023-09-09T11:46:10Z</time>
      </trkpt>
      <trkpt lat="42.88178" lon="2.36266">
        <ele>552</ele>
        <time>2023-09-09T11:46:11Z</time>
      </trkpt>
      <trkpt lat="42.88178" lon="2.36264">
        <ele>552</ele>
        <time>2023-09-09T11:46:12Z</time>
      </trkpt>
      <trkpt lat="42.88179" lon="2.36262">
        <ele>552</ele>
        <time>2023-09-09T11:46:13Z</time>
      </trkpt>
      <trkpt lat="42.88179" lon="2.3626">
        <ele>552</ele>
        <time>2023-09-09T11:46:14Z</time>
      </trkpt>
      <trkpt lat="42.8818" lon="2.36257">
        <ele>552</ele>
        <time>2023-09-09T11:46:15Z</time>
      </trkpt>
      <trkpt lat="42.8818" lon="2.36255">
        <ele>552</ele>
        <time>2023-09-09T11:46:16Z</time>
      </trkpt>
      <trkpt lat="42.88181" lon="2.36253">
        <ele>552</ele>
        <time>2023-09-09T11:46:17Z</time>
      </trkpt>
      <trkpt lat="42.88181" lon="2.36251">
        <ele>551</ele>
        <time>2023-09-09T11:46:18Z</time>
      </trkpt>
      <trkpt lat="42.88181" lon="2.36249">
        <ele>551</ele>
        <time>2023-09-09T11:46:19Z</time>
      </trkpt>
      <trkpt lat="42.88181" lon="2.36246">
        <ele>551</ele>
        <time>2023-09-09T11:46:20Z</time>
      </trkpt>
      <trkpt lat="42.88181" lon="2.36244">
        <ele>551</ele>
        <time>2023-09-09T11:46:21Z</time>
      </trkpt>
      <trkpt lat="42.8818" lon="2.36242">
        <ele>551</ele>
        <time>2023-09-09T11:46:22Z</time>
      </trkpt>
      <trkpt lat="42.88179" lon="2.36241">
        <ele>551</ele>
        <time>2023-09-09T11:46:23Z</time>
      </trkpt>
      <trkpt lat="42.88179" lon="2.3624">
        <ele>551</ele>
        <time>2023-09-09T11:46:24Z</time>
      </trkpt>
      <trkpt lat="42.88178" lon="2.36239">
        <ele>551</ele>
        <time>2023-09-09T11:46:25Z</time>
      </trkpt>
      <trkpt lat="42.88177" lon="2.36238">
        <ele>551</ele>
        <time>2023-09-09T11:46:26Z</time>
      </trkpt>
      <trkpt lat="42.88176" lon="2.36236">
        <ele>551</ele>
        <time>2023-09-09T11:46:27Z</time>
      </trkpt>
      <trkpt lat="42.88176" lon="2.36235">
        <ele>550</ele>
        <time>2023-09-09T11:46:28Z</time>
      </trkpt>
      <trkpt lat="42.88176" lon="2.36233">
        <ele>550</ele>
        <time>2023-09-09T11:46:29Z</time>
      </trkpt>
      <trkpt lat="42.88176" lon="2.36231">
        <ele>550</ele>
        <time>2023-09-09T11:46:30Z</time>
      </trkpt>
      <trkpt lat="42.88176" lon="2.36229">
        <ele>550</ele>
        <time>2023-09-09T11:46:31Z</time>
      </trkpt>
      <trkpt lat="42.88176" lon="2.36226">
        <ele>550</ele>
        <time>2023-09-09T11:46:32Z</time>
      </trkpt>
      <trkpt lat="42.88176" lon="2.36224">
        <ele>549</ele>
        <time>2023-09-09T11:46:33Z</time>
      </trkpt>
      <trkpt lat="42.88177" lon="2.36222">
        <ele>549</ele>
        <time>2023-09-09T11:46:34Z</time>
      </trkpt>
      <trkpt lat="42.88177" lon="2.36219">
        <ele>549</ele>
        <time>2023-09-09T11:46:35Z</time>
      </trkpt>
      <trkpt lat="42.88177" lon="2.36216">
        <ele>549</ele>
        <time>2023-09-09T11:46:36Z</time>
      </trkpt>
      <trkpt lat="42.88178" lon="2.36213">
        <ele>549</ele>
        <time>2023-09-09T11:46:37Z</time>
      </trkpt>
      <trkpt lat="42.88178" lon="2.3621">
        <ele>549</ele>
        <time>2023-09-09T11:46:38Z</time>
      </trkpt>
      <trkpt lat="42.88178" lon="2.36207">
        <ele>549</ele>
        <time>2023-09-09T11:46:39Z</time>
      </trkpt>
      <trkpt lat="42.88179" lon="2.36204">
        <ele>549</ele>
        <time>2023-09-09T11:46:40Z</time>
      </trkpt>
      <trkpt lat="42.88179" lon="2.36201">
        <ele>549</ele>
        <time>2023-09-09T11:46:41Z</time>
      </trkpt>
      <trkpt lat="42.88179" lon="2.36198">
        <ele>549</ele>
        <time>2023-09-09T11:46:42Z</time>
      </trkpt>
      <trkpt lat="42.88179" lon="2.36196">
        <ele>548</ele>
        <time>2023-09-09T11:46:43Z</time>
      </trkpt>
      <trkpt lat="42.88179" lon="2.36194">
        <ele>548</ele>
        <time>2023-09-09T11:46:44Z</time>
      </trkpt>
      <trkpt lat="42.8818" lon="2.36191">
        <ele>548</ele>
        <time>2023-09-09T11:46:45Z</time>
      </trkpt>
      <trkpt lat="42.8818" lon="2.36189">
        <ele>548</ele>
        <time>2023-09-09T11:46:46Z</time>
      </trkpt>
      <trkpt lat="42.8818" lon="2.36187">
        <ele>548</ele>
        <time>2023-09-09T11:46:47Z</time>
      </trkpt>
      <trkpt lat="42.8818" lon="2.36184">
        <ele>547</ele>
        <time>2023-09-09T11:46:48Z</time>
      </trkpt>
      <trkpt lat="42.88181" lon="2.36182">
        <ele>547</ele>
        <time>2023-09-09T11:46:49Z</time>
      </trkpt>
      <trkpt lat="42.88181" lon="2.3618">
        <ele>546</ele>
        <time>2023-09-09T11:46:50Z</time>
      </trkpt>
      <trkpt lat="42.88181" lon="2.36178">
        <ele>546</ele>
        <time>2023-09-09T11:46:51Z</time>
      </trkpt>
      <trkpt lat="42.88182" lon="2.36176">
        <ele>546</ele>
        <time>2023-09-09T11:46:52Z</time>
      </trkpt>
      <trkpt lat="42.88182" lon="2.36173">
        <ele>545</ele>
        <time>2023-09-09T11:46:53Z</time>
      </trkpt>
      <trkpt lat="42.88183" lon="2.36171">
        <ele>545</ele>
        <time>2023-09-09T11:46:54Z</time>
      </trkpt>
      <trkpt lat="42.88183" lon="2.36168">
        <ele>545</ele>
        <time>2023-09-09T11:46:55Z</time>
      </trkpt>
      <trkpt lat="42.88183" lon="2.36166">
        <ele>545</ele>
        <time>2023-09-09T11:46:56Z</time>
      </trkpt>
      <trkpt lat="42.88184" lon="2.36163">
        <ele>545</ele>
        <time>2023-09-09T11:46:57Z</time>
      </trkpt>
      <trkpt lat="42.88184" lon="2.36161">
        <ele>544</ele>
        <time>2023-09-09T11:46:58Z</time>
      </trkpt>
      <trkpt lat="42.88185" lon="2.36159">
        <ele>544</ele>
        <time>2023-09-09T11:46:59Z</time>
      </trkpt>
      <trkpt lat="42.88185" lon="2.36157">
        <ele>544</ele>
        <time>2023-09-09T11:47:00Z</time>
      </trkpt>
      <trkpt lat="42.88186" lon="2.36155">
        <ele>544</ele>
        <time>2023-09-09T11:47:01Z</time>
      </trkpt>
      <trkpt lat="42.88186" lon="2.36154">
        <ele>544</ele>
        <time>2023-09-09T11:47:02Z</time>
      </trkpt>
      <trkpt lat="42.88186" lon="2.36152">
        <ele>544</ele>
        <time>2023-09-09T11:47:03Z</time>
      </trkpt>
      <trkpt lat="42.88187" lon="2.3615">
        <ele>544</ele>
        <time>2023-09-09T11:47:04Z</time>
      </trkpt>
      <trkpt lat="42.88187" lon="2.36148">
        <ele>544</ele>
        <time>2023-09-09T11:47:05Z</time>
      </trkpt>
      <trkpt lat="42.88188" lon="2.36146">
        <ele>544</ele>
        <time>2023-09-09T11:47:06Z</time>
      </trkpt>
      <trkpt lat="42.88188" lon="2.36145">
        <ele>544</ele>
        <time>2023-09-09T11:47:07Z</time>
      </trkpt>
      <trkpt lat="42.88189" lon="2.36143">
        <ele>543</ele>
        <time>2023-09-09T11:47:08Z</time>
      </trkpt>
      <trkpt lat="42.88189" lon="2.36142">
        <ele>543</ele>
        <time>2023-09-09T11:47:09Z</time>
      </trkpt>
      <trkpt lat="42.8819" lon="2.36141">
        <ele>543</ele>
        <time>2023-09-09T11:47:10Z</time>
      </trkpt>
      <trkpt lat="42.8819" lon="2.3614">
        <ele>543</ele>
        <time>2023-09-09T11:47:11Z</time>
      </trkpt>
      <trkpt lat="42.8819" lon="2.36139">
        <ele>543</ele>
        <time>2023-09-09T11:47:12Z</time>
      </trkpt>
      <trkpt lat="42.88191" lon="2.36137">
        <ele>542</ele>
        <time>2023-09-09T11:47:13Z</time>
      </trkpt>
      <trkpt lat="42.88191" lon="2.36136">
        <ele>542</ele>
        <time>2023-09-09T11:47:14Z</time>
      </trkpt>
      <trkpt lat="42.88191" lon="2.36135">
        <ele>542</ele>
        <time>2023-09-09T11:47:15Z</time>
      </trkpt>
      <trkpt lat="42.88191" lon="2.36134">
        <ele>542</ele>
        <time>2023-09-09T11:47:16Z</time>
      </trkpt>
      <trkpt lat="42.88191" lon="2.36132">
        <ele>542</ele>
        <time>2023-09-09T11:47:17Z</time>
      </trkpt>
      <trkpt lat="42.88192" lon="2.36131">
        <ele>541</ele>
        <time>2023-09-09T11:47:18Z</time>
      </trkpt>
      <trkpt lat="42.88192" lon="2.36129">
        <ele>541</ele>
        <time>2023-09-09T11:47:19Z</time>
      </trkpt>
      <trkpt lat="42.88192" lon="2.36127">
        <ele>541</ele>
        <time>2023-09-09T11:47:20Z</time>
      </trkpt>
      <trkpt lat="42.88193" lon="2.36124">
        <ele>541</ele>
        <time>2023-09-09T11:47:21Z</time>
      </trkpt>
      <trkpt lat="42.88194" lon="2.36121">
        <ele>541</ele>
        <time>2023-09-09T11:47:22Z</time>
      </trkpt>
      <trkpt lat="42.88195" lon="2.36118">
        <ele>541</ele>
        <time>2023-09-09T11:47:23Z</time>
      </trkpt>
      <trkpt lat="42.88196" lon="2.36115">
        <ele>541</ele>
        <time>2023-09-09T11:47:24Z</time>
      </trkpt>
      <trkpt lat="42.88197" lon="2.36112">
        <ele>541</ele>
        <time>2023-09-09T11:47:25Z</time>
      </trkpt>
      <trkpt lat="42.88198" lon="2.3611">
        <ele>541</ele>
        <time>2023-09-09T11:47:26Z</time>
      </trkpt>
      <trkpt lat="42.882" lon="2.36107">
        <ele>541</ele>
        <time>2023-09-09T11:47:27Z</time>
      </trkpt>
      <trkpt lat="42.88201" lon="2.36105">
        <ele>540</ele>
        <time>2023-09-09T11:47:28Z</time>
      </trkpt>
      <trkpt lat="42.88201" lon="2.36103">
        <ele>540</ele>
        <time>2023-09-09T11:47:29Z</time>
      </trkpt>
      <trkpt lat="42.88202" lon="2.36101">
        <ele>539</ele>
        <time>2023-09-09T11:47:30Z</time>
      </trkpt>
      <trkpt lat="42.88203" lon="2.361">
        <ele>539</ele>
        <time>2023-09-09T11:47:31Z</time>
      </trkpt>
      <trkpt lat="42.88203" lon="2.36098">
        <ele>539</ele>
        <time>2023-09-09T11:47:32Z</time>
      </trkpt>
      <trkpt lat="42.88203" lon="2.36097">
        <ele>538</ele>
        <time>2023-09-09T11:47:33Z</time>
      </trkpt>
      <trkpt lat="42.88203" lon="2.36096">
        <ele>538</ele>
        <time>2023-09-09T11:47:34Z</time>
      </trkpt>
      <trkpt lat="42.88203" lon="2.36095">
        <ele>538</ele>
        <time>2023-09-09T11:47:35Z</time>
      </trkpt>
      <trkpt lat="42.88203" lon="2.36094">
        <ele>538</ele>
        <time>2023-09-09T11:47:36Z</time>
      </trkpt>
      <trkpt lat="42.88203" lon="2.36092">
        <ele>538</ele>
        <time>2023-09-09T11:47:37Z</time>
      </trkpt>
      <trkpt lat="42.88203" lon="2.36091">
        <ele>537</ele>
        <time>2023-09-09T11:47:38Z</time>
      </trkpt>
      <trkpt lat="42.88203" lon="2.36089">
        <ele>537</ele>
        <time>2023-09-09T11:47:39Z</time>
      </trkpt>
      <trkpt lat="42.88202" lon="2.36087">
        <ele>537</ele>
        <time>2023-09-09T11:47:40Z</time>
      </trkpt>
      <trkpt lat="42.88202" lon="2.36085">
        <ele>537</ele>
        <time>2023-09-09T11:47:41Z</time>
      </trkpt>
      <trkpt lat="42.88202" lon="2.36083">
        <ele>537</ele>
        <time>2023-09-09T11:47:42Z</time>
      </trkpt>
      <trkpt lat="42.88202" lon="2.36081">
        <ele>536</ele>
        <time>2023-09-09T11:47:43Z</time>
      </trkpt>
      <trkpt lat="42.88203" lon="2.3608">
        <ele>536</ele>
        <time>2023-09-09T11:47:44Z</time>
      </trkpt>
      <trkpt lat="42.88203" lon="2.36077">
        <ele>536</ele>
        <time>2023-09-09T11:47:45Z</time>
      </trkpt>
      <trkpt lat="42.88204" lon="2.36075">
        <ele>536</ele>
        <time>2023-09-09T11:47:46Z</time>
      </trkpt>
      <trkpt lat="42.88204" lon="2.36072">
        <ele>536</ele>
        <time>2023-09-09T11:47:47Z</time>
      </trkpt>
      <trkpt lat="42.88205" lon="2.3607">
        <ele>536</ele>
        <time>2023-09-09T11:47:48Z</time>
      </trkpt>
      <trkpt lat="42.88205" lon="2.36068">
        <ele>536</ele>
        <time>2023-09-09T11:47:49Z</time>
      </trkpt>
      <trkpt lat="42.88206" lon="2.36065">
        <ele>536</ele>
        <time>2023-09-09T11:47:50Z</time>
      </trkpt>
      <trkpt lat="42.88206" lon="2.36064">
        <ele>536</ele>
        <time>2023-09-09T11:47:51Z</time>
      </trkpt>
      <trkpt lat="42.88206" lon="2.36062">
        <ele>536</ele>
        <time>2023-09-09T11:47:52Z</time>
      </trkpt>
      <trkpt lat="42.88207" lon="2.3606">
        <ele>535</ele>
        <time>2023-09-09T11:47:53Z</time>
      </trkpt>
      <trkpt lat="42.88207" lon="2.36058">
        <ele>535</ele>
        <time>2023-09-09T11:47:54Z</time>
      </trkpt>
      <trkpt lat="42.88208" lon="2.36057">
        <ele>535</ele>
        <time>2023-09-09T11:47:55Z</time>
      </trkpt>
      <trkpt lat="42.88208" lon="2.36055">
        <ele>535</ele>
        <time>2023-09-09T11:47:56Z</time>
      </trkpt>
      <trkpt lat="42.88209" lon="2.36054">
        <ele>535</ele>
        <time>2023-09-09T11:47:57Z</time>
      </trkpt>
      <trkpt lat="42.88209" lon="2.36052">
        <ele>535</ele>
        <time>2023-09-09T11:47:58Z</time>
      </trkpt>
      <trkpt lat="42.88209" lon="2.36052">
        <ele>535</ele>
        <time>2023-09-09T11:47:59Z</time>
      </trkpt>
      <trkpt lat="42.8821" lon="2.36051">
        <ele>535</ele>
        <time>2023-09-09T11:48:00Z</time>
      </trkpt>
      <trkpt lat="42.8821" lon="2.3605">
        <ele>535</ele>
        <time>2023-09-09T11:48:01Z</time>
      </trkpt>
      <trkpt lat="42.8821" lon="2.3605">
        <ele>535</ele>
        <time>2023-09-09T11:48:02Z</time>
      </trkpt>
      <trkpt lat="42.8821" lon="2.3605">
        <ele>534</ele>
        <time>2023-09-09T11:48:03Z</time>
      </trkpt>
      <trkpt lat="42.88211" lon="2.36048">
        <ele>534</ele>
        <time>2023-09-09T11:48:04Z</time>
      </trkpt>
      <trkpt lat="42.88211" lon="2.36047">
        <ele>533</ele>
        <time>2023-09-09T11:48:05Z</time>
      </trkpt>
      <trkpt lat="42.88211" lon="2.36046">
        <ele>533</ele>
        <time>2023-09-09T11:48:06Z</time>
      </trkpt>
      <trkpt lat="42.88211" lon="2.36044">
        <ele>533</ele>
        <time>2023-09-09T11:48:07Z</time>
      </trkpt>
      <trkpt lat="42.88211" lon="2.36042">
        <ele>532</ele>
        <time>2023-09-09T11:48:08Z</time>
      </trkpt>
      <trkpt lat="42.88211" lon="2.3604">
        <ele>532</ele>
        <time>2023-09-09T11:48:09Z</time>
      </trkpt>
      <trkpt lat="42.88211" lon="2.36037">
        <ele>532</ele>
        <time>2023-09-09T11:48:10Z</time>
      </trkpt>
      <trkpt lat="42.88212" lon="2.36035">
        <ele>532</ele>
        <time>2023-09-09T11:48:11Z</time>
      </trkpt>
      <trkpt lat="42.88212" lon="2.36033">
        <ele>532</ele>
        <time>2023-09-09T11:48:12Z</time>
      </trkpt>
      <trkpt lat="42.88212" lon="2.36031">
        <ele>531</ele>
        <time>2023-09-09T11:48:13Z</time>
      </trkpt>
      <trkpt lat="42.88212" lon="2.36029">
        <ele>531</ele>
        <time>2023-09-09T11:48:14Z</time>
      </trkpt>
      <trkpt lat="42.88213" lon="2.36027">
        <ele>531</ele>
        <time>2023-09-09T11:48:15Z</time>
      </trkpt>
      <trkpt lat="42.88213" lon="2.36026">
        <ele>531</ele>
        <time>2023-09-09T11:48:16Z</time>
      </trkpt>
      <trkpt lat="42.88213" lon="2.36024">
        <ele>531</ele>
        <time>2023-09-09T11:48:17Z</time>
      </trkpt>
      <trkpt lat="42.88213" lon="2.36023">
        <ele>530</ele>
        <time>2023-09-09T11:48:18Z</time>
      </trkpt>
      <trkpt lat="42.88214" lon="2.36021">
        <ele>530</ele>
        <time>2023-09-09T11:48:19Z</time>
      </trkpt>
      <trkpt lat="42.88214" lon="2.3602">
        <ele>530</ele>
        <time>2023-09-09T11:48:20Z</time>
      </trkpt>
      <trkpt lat="42.88215" lon="2.36019">
        <ele>530</ele>
        <time>2023-09-09T11:48:21Z</time>
      </trkpt>
      <trkpt lat="42.88215" lon="2.36017">
        <ele>530</ele>
        <time>2023-09-09T11:48:22Z</time>
      </trkpt>
      <trkpt lat="42.88216" lon="2.36016">
        <ele>529</ele>
        <time>2023-09-09T11:48:23Z</time>
      </trkpt>
      <trkpt lat="42.88216" lon="2.36015">
        <ele>528</ele>
        <time>2023-09-09T11:48:24Z</time>
      </trkpt>
      <trkpt lat="42.88216" lon="2.36013">
        <ele>528</ele>
        <time>2023-09-09T11:48:25Z</time>
      </trkpt>
      <trkpt lat="42.88217" lon="2.36012">
        <ele>527</ele>
        <time>2023-09-09T11:48:26Z</time>
      </trkpt>
      <trkpt lat="42.88217" lon="2.3601">
        <ele>527</ele>
        <time>2023-09-09T11:48:27Z</time>
      </trkpt>
      <trkpt lat="42.88217" lon="2.36008">
        <ele>526</ele>
        <time>2023-09-09T11:48:28Z</time>
      </trkpt>
      <trkpt lat="42.88218" lon="2.36006">
        <ele>526</ele>
        <time>2023-09-09T11:48:29Z</time>
      </trkpt>
      <trkpt lat="42.88219" lon="2.36004">
        <ele>526</ele>
        <time>2023-09-09T11:48:30Z</time>
      </trkpt>
      <trkpt lat="42.8822" lon="2.36002">
        <ele>526</ele>
        <time>2023-09-09T11:48:31Z</time>
      </trkpt>
      <trkpt lat="42.8822" lon="2.36001">
        <ele>526</ele>
        <time>2023-09-09T11:48:32Z</time>
      </trkpt>
      <trkpt lat="42.88221" lon="2.35999">
        <ele>525</ele>
        <time>2023-09-09T11:48:33Z</time>
      </trkpt>
      <trkpt lat="42.88222" lon="2.35997">
        <ele>525</ele>
        <time>2023-09-09T11:48:34Z</time>
      </trkpt>
      <trkpt lat="42.88223" lon="2.35996">
        <ele>525</ele>
        <time>2023-09-09T11:48:35Z</time>
      </trkpt>
      <trkpt lat="42.88224" lon="2.35994">
        <ele>525</ele>
        <time>2023-09-09T11:48:36Z</time>
      </trkpt>
      <trkpt lat="42.88225" lon="2.35993">
        <ele>525</ele>
        <time>2023-09-09T11:48:37Z</time>
      </trkpt>
      <trkpt lat="42.88226" lon="2.35991">
        <ele>524</ele>
        <time>2023-09-09T11:48:38Z</time>
      </trkpt>
      <trkpt lat="42.88226" lon="2.35989">
        <ele>524</ele>
        <time>2023-09-09T11:48:39Z</time>
      </trkpt>
      <trkpt lat="42.88227" lon="2.35987">
        <ele>524</ele>
        <time>2023-09-09T11:48:40Z</time>
      </trkpt>
      <trkpt lat="42.88228" lon="2.35985">
        <ele>524</ele>
        <time>2023-09-09T11:48:41Z</time>
      </trkpt>
      <trkpt lat="42.88228" lon="2.35983">
        <ele>524</ele>
        <time>2023-09-09T11:48:42Z</time>
      </trkpt>
      <trkpt lat="42.88228" lon="2.35981">
        <ele>523</ele>
        <time>2023-09-09T11:48:43Z</time>
      </trkpt>
      <trkpt lat="42.88229" lon="2.35978">
        <ele>523</ele>
        <time>2023-09-09T11:48:44Z</time>
      </trkpt>
      <trkpt lat="42.88229" lon="2.35976">
        <ele>523</ele>
        <time>2023-09-09T11:48:45Z</time>
      </trkpt>
      <trkpt lat="42.88229" lon="2.35974">
        <ele>523</ele>
        <time>2023-09-09T11:48:46Z</time>
      </trkpt>
      <trkpt lat="42.88229" lon="2.35972">
        <ele>523</ele>
        <time>2023-09-09T11:48:47Z</time>
      </trkpt>
      <trkpt lat="42.88229" lon="2.35969">
        <ele>522</ele>
        <time>2023-09-09T11:48:48Z</time>
      </trkpt>
      <trkpt lat="42.88229" lon="2.35967">
        <ele>522</ele>
        <time>2023-09-09T11:48:49Z</time>
      </trkpt>
      <trkpt lat="42.88229" lon="2.35965">
        <ele>522</ele>
        <time>2023-09-09T11:48:50Z</time>
      </trkpt>
      <trkpt lat="42.88229" lon="2.35963">
        <ele>522</ele>
        <time>2023-09-09T11:48:51Z</time>
      </trkpt>
      <trkpt lat="42.88228" lon="2.35961">
        <ele>522</ele>
        <time>2023-09-09T11:48:52Z</time>
      </trkpt>
      <trkpt lat="42.88227" lon="2.35959">
        <ele>521</ele>
        <time>2023-09-09T11:48:53Z</time>
      </trkpt>
      <trkpt lat="42.88227" lon="2.35957">
        <ele>521</ele>
        <time>2023-09-09T11:48:54Z</time>
      </trkpt>
      <trkpt lat="42.88226" lon="2.35956">
        <ele>521</ele>
        <time>2023-09-09T11:48:55Z</time>
      </trkpt>
      <trkpt lat="42.88225" lon="2.35954">
        <ele>521</ele>
        <time>2023-09-09T11:48:56Z</time>
      </trkpt>
      <trkpt lat="42.88225" lon="2.35953">
        <ele>521</ele>
        <time>2023-09-09T11:48:57Z</time>
      </trkpt>
      <trkpt lat="42.88224" lon="2.3595">
        <ele>519</ele>
        <time>2023-09-09T11:49:08Z</time>
      </trkpt>
      <trkpt lat="42.88224" lon="2.35948">
        <ele>519</ele>
        <time>2023-09-09T11:49:09Z</time>
      </trkpt>
      <trkpt lat="42.88223" lon="2.35945">
        <ele>519</ele>
        <time>2023-09-09T11:49:10Z</time>
      </trkpt>
      <trkpt lat="42.88223" lon="2.35944">
        <ele>519</ele>
        <time>2023-09-09T11:49:11Z</time>
      </trkpt>
      <trkpt lat="42.88222" lon="2.35943">
        <ele>519</ele>
        <time>2023-09-09T11:49:12Z</time>
      </trkpt>
      <trkpt lat="42.88222" lon="2.35942">
        <ele>518</ele>
        <time>2023-09-09T11:49:13Z</time>
      </trkpt>
      <trkpt lat="42.88221" lon="2.35942">
        <ele>518</ele>
        <time>2023-09-09T11:49:14Z</time>
      </trkpt>
      <trkpt lat="42.8822" lon="2.35941">
        <ele>518</ele>
        <time>2023-09-09T11:49:15Z</time>
      </trkpt>
      <trkpt lat="42.8822" lon="2.3594">
        <ele>518</ele>
        <time>2023-09-09T11:49:16Z</time>
      </trkpt>
      <trkpt lat="42.88219" lon="2.35939">
        <ele>518</ele>
        <time>2023-09-09T11:49:17Z</time>
      </trkpt>
      <trkpt lat="42.88219" lon="2.35937">
        <ele>517</ele>
        <time>2023-09-09T11:49:18Z</time>
      </trkpt>
      <trkpt lat="42.88218" lon="2.35936">
        <ele>517</ele>
        <time>2023-09-09T11:49:19Z</time>
      </trkpt>
      <trkpt lat="42.88218" lon="2.35935">
        <ele>517</ele>
        <time>2023-09-09T11:49:20Z</time>
      </trkpt>
      <trkpt lat="42.88218" lon="2.35933">
        <ele>517</ele>
        <time>2023-09-09T11:49:21Z</time>
      </trkpt>
      <trkpt lat="42.88217" lon="2.35932">
        <ele>517</ele>
        <time>2023-09-09T11:49:22Z</time>
      </trkpt>
      <trkpt lat="42.88217" lon="2.35931">
        <ele>516</ele>
        <time>2023-09-09T11:49:23Z</time>
      </trkpt>
      <trkpt lat="42.88216" lon="2.35931">
        <ele>516</ele>
        <time>2023-09-09T11:49:24Z</time>
      </trkpt>
      <trkpt lat="42.88215" lon="2.3593">
        <ele>516</ele>
        <time>2023-09-09T11:49:25Z</time>
      </trkpt>
      <trkpt lat="42.88214" lon="2.35929">
        <ele>516</ele>
        <time>2023-09-09T11:49:26Z</time>
      </trkpt>
      <trkpt lat="42.88213" lon="2.35928">
        <ele>516</ele>
        <time>2023-09-09T11:49:27Z</time>
      </trkpt>
      <trkpt lat="42.88213" lon="2.35927">
        <ele>515</ele>
        <time>2023-09-09T11:49:28Z</time>
      </trkpt>
      <trkpt lat="42.88212" lon="2.35926">
        <ele>515</ele>
        <time>2023-09-09T11:49:29Z</time>
      </trkpt>
      <trkpt lat="42.88211" lon="2.35925">
        <ele>515</ele>
        <time>2023-09-09T11:49:30Z</time>
      </trkpt>
      <trkpt lat="42.88211" lon="2.35924">
        <ele>515</ele>
        <time>2023-09-09T11:49:31Z</time>
      </trkpt>
      <trkpt lat="42.8821" lon="2.35923">
        <ele>515</ele>
        <time>2023-09-09T11:49:32Z</time>
      </trkpt>
      <trkpt lat="42.88209" lon="2.35922">
        <ele>514</ele>
        <time>2023-09-09T11:49:33Z</time>
      </trkpt>
      <trkpt lat="42.88208" lon="2.35921">
        <ele>514</ele>
        <time>2023-09-09T11:49:34Z</time>
      </trkpt>
      <trkpt lat="42.88208" lon="2.3592">
        <ele>514</ele>
        <time>2023-09-09T11:49:35Z</time>
      </trkpt>
      <trkpt lat="42.88207" lon="2.35919">
        <ele>514</ele>
        <time>2023-09-09T11:49:36Z</time>
      </trkpt>
      <trkpt lat="42.88207" lon="2.35918">
        <ele>514</ele>
        <time>2023-09-09T11:49:37Z</time>
      </trkpt>
      <trkpt lat="42.88206" lon="2.35917">
        <ele>513</ele>
        <time>2023-09-09T11:49:38Z</time>
      </trkpt>
      <trkpt lat="42.88205" lon="2.35916">
        <ele>513</ele>
        <time>2023-09-09T11:49:39Z</time>
      </trkpt>
      <trkpt lat="42.88205" lon="2.35914">
        <ele>513</ele>
        <time>2023-09-09T11:49:40Z</time>
      </trkpt>
      <trkpt lat="42.88204" lon="2.35913">
        <ele>513</ele>
        <time>2023-09-09T11:49:41Z</time>
      </trkpt>
      <trkpt lat="42.88203" lon="2.35912">
        <ele>513</ele>
        <time>2023-09-09T11:49:42Z</time>
      </trkpt>
      <trkpt lat="42.88202" lon="2.35911">
        <ele>513</ele>
        <time>2023-09-09T11:49:43Z</time>
      </trkpt>
      <trkpt lat="42.88201" lon="2.3591">
        <ele>513</ele>
        <time>2023-09-09T11:49:44Z</time>
      </trkpt>
      <trkpt lat="42.882" lon="2.35909">
        <ele>513</ele>
        <time>2023-09-09T11:49:45Z</time>
      </trkpt>
      <trkpt lat="42.88199" lon="2.35908">
        <ele>513</ele>
        <time>2023-09-09T11:49:46Z</time>
      </trkpt>
      <trkpt lat="42.88198" lon="2.35907">
        <ele>513</ele>
        <time>2023-09-09T11:49:47Z</time>
      </trkpt>
      <trkpt lat="42.88196" lon="2.35906">
        <ele>512</ele>
        <time>2023-09-09T11:49:48Z</time>
      </trkpt>
      <trkpt lat="42.88195" lon="2.35905">
        <ele>512</ele>
        <time>2023-09-09T11:49:49Z</time>
      </trkpt>
      <trkpt lat="42.88194" lon="2.35904">
        <ele>511</ele>
        <time>2023-09-09T11:49:50Z</time>
      </trkpt>
      <trkpt lat="42.88193" lon="2.35902">
        <ele>511</ele>
        <time>2023-09-09T11:49:51Z</time>
      </trkpt>
      <trkpt lat="42.88192" lon="2.35901">
        <ele>511</ele>
        <time>2023-09-09T11:49:52Z</time>
      </trkpt>
      <trkpt lat="42.88191" lon="2.35898">
        <ele>510</ele>
        <time>2023-09-09T11:49:53Z</time>
      </trkpt>
      <trkpt lat="42.88191" lon="2.35896">
        <ele>510</ele>
        <time>2023-09-09T11:49:54Z</time>
      </trkpt>
      <trkpt lat="42.88191" lon="2.35893">
        <ele>510</ele>
        <time>2023-09-09T11:49:55Z</time>
      </trkpt>
      <trkpt lat="42.8819" lon="2.3589">
        <ele>510</ele>
        <time>2023-09-09T11:49:56Z</time>
      </trkpt>
      <trkpt lat="42.8819" lon="2.35888">
        <ele>510</ele>
        <time>2023-09-09T11:49:57Z</time>
      </trkpt>
      <trkpt lat="42.88189" lon="2.35886">
        <ele>509</ele>
        <time>2023-09-09T11:49:58Z</time>
      </trkpt>
      <trkpt lat="42.88189" lon="2.35884">
        <ele>509</ele>
        <time>2023-09-09T11:49:59Z</time>
      </trkpt>
      <trkpt lat="42.88189" lon="2.35882">
        <ele>509</ele>
        <time>2023-09-09T11:50:00Z</time>
      </trkpt>
      <trkpt lat="42.88189" lon="2.35879">
        <ele>509</ele>
        <time>2023-09-09T11:50:01Z</time>
      </trkpt>
      <trkpt lat="42.88188" lon="2.35877">
        <ele>509</ele>
        <time>2023-09-09T11:50:02Z</time>
      </trkpt>
      <trkpt lat="42.88189" lon="2.35874">
        <ele>508</ele>
        <time>2023-09-09T11:50:03Z</time>
      </trkpt>
      <trkpt lat="42.88189" lon="2.35871">
        <ele>508</ele>
        <time>2023-09-09T11:50:04Z</time>
      </trkpt>
      <trkpt lat="42.88189" lon="2.35869">
        <ele>508</ele>
        <time>2023-09-09T11:50:05Z</time>
      </trkpt>
      <trkpt lat="42.88189" lon="2.35867">
        <ele>508</ele>
        <time>2023-09-09T11:50:06Z</time>
      </trkpt>
      <trkpt lat="42.88189" lon="2.35864">
        <ele>508</ele>
        <time>2023-09-09T11:50:07Z</time>
      </trkpt>
      <trkpt lat="42.8819" lon="2.35862">
        <ele>508</ele>
        <time>2023-09-09T11:50:08Z</time>
      </trkpt>
      <trkpt lat="42.88191" lon="2.3586">
        <ele>508</ele>
        <time>2023-09-09T11:50:09Z</time>
      </trkpt>
      <trkpt lat="42.88192" lon="2.35858">
        <ele>508</ele>
        <time>2023-09-09T11:50:10Z</time>
      </trkpt>
      <trkpt lat="42.88193" lon="2.35855">
        <ele>508</ele>
        <time>2023-09-09T11:50:11Z</time>
      </trkpt>
      <trkpt lat="42.88195" lon="2.35853">
        <ele>508</ele>
        <time>2023-09-09T11:50:12Z</time>
      </trkpt>
      <trkpt lat="42.88196" lon="2.35851">
        <ele>507</ele>
        <time>2023-09-09T11:50:13Z</time>
      </trkpt>
      <trkpt lat="42.88197" lon="2.35848">
        <ele>507</ele>
        <time>2023-09-09T11:50:14Z</time>
      </trkpt>
      <trkpt lat="42.88198" lon="2.35846">
        <ele>507</ele>
        <time>2023-09-09T11:50:15Z</time>
      </trkpt>
      <trkpt lat="42.88199" lon="2.35844">
        <ele>507</ele>
        <time>2023-09-09T11:50:16Z</time>
      </trkpt>
      <trkpt lat="42.882" lon="2.35841">
        <ele>507</ele>
        <time>2023-09-09T11:50:17Z</time>
      </trkpt>
      <trkpt lat="42.88201" lon="2.35839">
        <ele>507</ele>
        <time>2023-09-09T11:50:18Z</time>
      </trkpt>
      <trkpt lat="42.88202" lon="2.35837">
        <ele>507</ele>
        <time>2023-09-09T11:50:19Z</time>
      </trkpt>
      <trkpt lat="42.88202" lon="2.35834">
        <ele>507</ele>
        <time>2023-09-09T11:50:20Z</time>
      </trkpt>
      <trkpt lat="42.88203" lon="2.35832">
        <ele>507</ele>
        <time>2023-09-09T11:50:21Z</time>
      </trkpt>
      <trkpt lat="42.88204" lon="2.3583">
        <ele>507</ele>
        <time>2023-09-09T11:50:22Z</time>
      </trkpt>
      <trkpt lat="42.88204" lon="2.35828">
        <ele>506</ele>
        <time>2023-09-09T11:50:23Z</time>
      </trkpt>
      <trkpt lat="42.88205" lon="2.35826">
        <ele>506</ele>
        <time>2023-09-09T11:50:24Z</time>
      </trkpt>
      <trkpt lat="42.88205" lon="2.35824">
        <ele>506</ele>
        <time>2023-09-09T11:50:25Z</time>
      </trkpt>
      <trkpt lat="42.88206" lon="2.35822">
        <ele>506</ele>
        <time>2023-09-09T11:50:26Z</time>
      </trkpt>
      <trkpt lat="42.88207" lon="2.3582">
        <ele>506</ele>
        <time>2023-09-09T11:50:27Z</time>
      </trkpt>
      <trkpt lat="42.88208" lon="2.35819">
        <ele>506</ele>
        <time>2023-09-09T11:50:28Z</time>
      </trkpt>
      <trkpt lat="42.88208" lon="2.35817">
        <ele>506</ele>
        <time>2023-09-09T11:50:29Z</time>
      </trkpt>
      <trkpt lat="42.88209" lon="2.35815">
        <ele>506</ele>
        <time>2023-09-09T11:50:30Z</time>
      </trkpt>
      <trkpt lat="42.8821" lon="2.35813">
        <ele>506</ele>
        <time>2023-09-09T11:50:31Z</time>
      </trkpt>
      <trkpt lat="42.88211" lon="2.35811">
        <ele>506</ele>
        <time>2023-09-09T11:50:32Z</time>
      </trkpt>
      <trkpt lat="42.88212" lon="2.35809">
        <ele>505</ele>
        <time>2023-09-09T11:50:33Z</time>
      </trkpt>
      <trkpt lat="42.88213" lon="2.35806">
        <ele>505</ele>
        <time>2023-09-09T11:50:34Z</time>
      </trkpt>
      <trkpt lat="42.88214" lon="2.35804">
        <ele>505</ele>
        <time>2023-09-09T11:50:35Z</time>
      </trkpt>
      <trkpt lat="42.88214" lon="2.35801">
        <ele>505</ele>
        <time>2023-09-09T11:50:36Z</time>
      </trkpt>
      <trkpt lat="42.88215" lon="2.358">
        <ele>505</ele>
        <time>2023-09-09T11:50:37Z</time>
      </trkpt>
      <trkpt lat="42.88215" lon="2.35799">
        <ele>504</ele>
        <time>2023-09-09T11:50:38Z</time>
      </trkpt>
      <trkpt lat="42.88216" lon="2.35797">
        <ele>504</ele>
        <time>2023-09-09T11:50:39Z</time>
      </trkpt>
      <trkpt lat="42.88216" lon="2.35795">
        <ele>504</ele>
        <time>2023-09-09T11:50:40Z</time>
      </trkpt>
      <trkpt lat="42.88217" lon="2.35793">
        <ele>504</ele>
        <time>2023-09-09T11:50:41Z</time>
      </trkpt>
      <trkpt lat="42.88218" lon="2.35792">
        <ele>504</ele>
        <time>2023-09-09T11:50:42Z</time>
      </trkpt>
      <trkpt lat="42.88218" lon="2.3579">
        <ele>504</ele>
        <time>2023-09-09T11:50:43Z</time>
      </trkpt>
      <trkpt lat="42.88219" lon="2.35788">
        <ele>504</ele>
        <time>2023-09-09T11:50:44Z</time>
      </trkpt>
      <trkpt lat="42.8822" lon="2.35786">
        <ele>504</ele>
        <time>2023-09-09T11:50:45Z</time>
      </trkpt>
      <trkpt lat="42.88221" lon="2.35785">
        <ele>504</ele>
        <time>2023-09-09T11:50:46Z</time>
      </trkpt>
      <trkpt lat="42.88222" lon="2.35782">
        <ele>504</ele>
        <time>2023-09-09T11:50:47Z</time>
      </trkpt>
      <trkpt lat="42.88223" lon="2.3578">
        <ele>503</ele>
        <time>2023-09-09T11:50:48Z</time>
      </trkpt>
      <trkpt lat="42.88223" lon="2.35778">
        <ele>503</ele>
        <time>2023-09-09T11:50:49Z</time>
      </trkpt>
      <trkpt lat="42.88224" lon="2.35775">
        <ele>503</ele>
        <time>2023-09-09T11:50:50Z</time>
      </trkpt>
      <trkpt lat="42.88224" lon="2.35773">
        <ele>503</ele>
        <time>2023-09-09T11:50:51Z</time>
      </trkpt>
      <trkpt lat="42.88225" lon="2.35771">
        <ele>503</ele>
        <time>2023-09-09T11:50:52Z</time>
      </trkpt>
      <trkpt lat="42.88226" lon="2.35769">
        <ele>503</ele>
        <time>2023-09-09T11:50:53Z</time>
      </trkpt>
      <trkpt lat="42.88226" lon="2.35767">
        <ele>503</ele>
        <time>2023-09-09T11:50:54Z</time>
      </trkpt>
      <trkpt lat="42.88227" lon="2.35765">
        <ele>503</ele>
        <time>2023-09-09T11:50:55Z</time>
      </trkpt>
      <trkpt lat="42.88228" lon="2.35763">
        <ele>503</ele>
        <time>2023-09-09T11:50:56Z</time>
      </trkpt>
      <trkpt lat="42.88229" lon="2.35761">
        <ele>503</ele>
        <time>2023-09-09T11:50:57Z</time>
      </trkpt>
      <trkpt lat="42.88229" lon="2.35759">
        <ele>503</ele>
        <time>2023-09-09T11:50:58Z</time>
      </trkpt>
      <trkpt lat="42.8823" lon="2.35757">
        <ele>503</ele>
        <time>2023-09-09T11:50:59Z</time>
      </trkpt>
      <trkpt lat="42.8823" lon="2.35755">
        <ele>503</ele>
        <time>2023-09-09T11:51:00Z</time>
      </trkpt>
      <trkpt lat="42.8823" lon="2.35753">
        <ele>503</ele>
        <time>2023-09-09T11:51:01Z</time>
      </trkpt>
      <trkpt lat="42.88231" lon="2.35751">
        <ele>503</ele>
        <time>2023-09-09T11:51:02Z</time>
      </trkpt>
      <trkpt lat="42.88231" lon="2.35749">
        <ele>503</ele>
        <time>2023-09-09T11:51:03Z</time>
      </trkpt>
      <trkpt lat="42.88231" lon="2.35747">
        <ele>503</ele>
        <time>2023-09-09T11:51:04Z</time>
      </trkpt>
      <trkpt lat="42.88231" lon="2.35746">
        <ele>503</ele>
        <time>2023-09-09T11:51:05Z</time>
      </trkpt>
      <trkpt lat="42.88231" lon="2.35744">
        <ele>503</ele>
        <time>2023-09-09T11:51:06Z</time>
      </trkpt>
      <trkpt lat="42.88231" lon="2.35743">
        <ele>503</ele>
        <time>2023-09-09T11:51:07Z</time>
      </trkpt>
      <trkpt lat="42.88232" lon="2.35741">
        <ele>502</ele>
        <time>2023-09-09T11:51:08Z</time>
      </trkpt>
      <trkpt lat="42.88232" lon="2.35739">
        <ele>502</ele>
        <time>2023-09-09T11:51:09Z</time>
      </trkpt>
      <trkpt lat="42.88232" lon="2.35738">
        <ele>502</ele>
        <time>2023-09-09T11:51:10Z</time>
      </trkpt>
      <trkpt lat="42.88233" lon="2.35736">
        <ele>502</ele>
        <time>2023-09-09T11:51:11Z</time>
      </trkpt>
      <trkpt lat="42.88233" lon="2.35734">
        <ele>502</ele>
        <time>2023-09-09T11:51:12Z</time>
      </trkpt>
      <trkpt lat="42.88233" lon="2.35732">
        <ele>502</ele>
        <time>2023-09-09T11:51:13Z</time>
      </trkpt>
      <trkpt lat="42.88233" lon="2.35729">
        <ele>502</ele>
        <time>2023-09-09T11:51:14Z</time>
      </trkpt>
      <trkpt lat="42.88233" lon="2.35727">
        <ele>502</ele>
        <time>2023-09-09T11:51:15Z</time>
      </trkpt>
      <trkpt lat="42.88233" lon="2.35725">
        <ele>502</ele>
        <time>2023-09-09T11:51:16Z</time>
      </trkpt>
      <trkpt lat="42.88234" lon="2.35722">
        <ele>502</ele>
        <time>2023-09-09T11:51:17Z</time>
      </trkpt>
      <trkpt lat="42.88234" lon="2.3572">
        <ele>501</ele>
        <time>2023-09-09T11:51:18Z</time>
      </trkpt>
      <trkpt lat="42.88235" lon="2.35718">
        <ele>501</ele>
        <time>2023-09-09T11:51:19Z</time>
      </trkpt>
      <trkpt lat="42.88235" lon="2.35715">
        <ele>501</ele>
        <time>2023-09-09T11:51:20Z</time>
      </trkpt>
      <trkpt lat="42.88236" lon="2.35713">
        <ele>501</ele>
        <time>2023-09-09T11:51:21Z</time>
      </trkpt>
      <trkpt lat="42.88237" lon="2.35711">
        <ele>501</ele>
        <time>2023-09-09T11:51:22Z</time>
      </trkpt>
      <trkpt lat="42.88238" lon="2.35709">
        <ele>501</ele>
        <time>2023-09-09T11:51:23Z</time>
      </trkpt>
      <trkpt lat="42.88239" lon="2.35706">
        <ele>501</ele>
        <time>2023-09-09T11:51:24Z</time>
      </trkpt>
      <trkpt lat="42.88239" lon="2.35703">
        <ele>501</ele>
        <time>2023-09-09T11:51:25Z</time>
      </trkpt>
      <trkpt lat="42.8824" lon="2.35701">
        <ele>501</ele>
        <time>2023-09-09T11:51:26Z</time>
      </trkpt>
      <trkpt lat="42.8824" lon="2.35699">
        <ele>501</ele>
        <time>2023-09-09T11:51:27Z</time>
      </trkpt>
      <trkpt lat="42.88241" lon="2.35697">
        <ele>500</ele>
        <time>2023-09-09T11:51:28Z</time>
      </trkpt>
      <trkpt lat="42.88241" lon="2.35695">
        <ele>500</ele>
        <time>2023-09-09T11:51:29Z</time>
      </trkpt>
      <trkpt lat="42.88242" lon="2.35693">
        <ele>500</ele>
        <time>2023-09-09T11:51:30Z</time>
      </trkpt>
      <trkpt lat="42.88242" lon="2.35691">
        <ele>500</ele>
        <time>2023-09-09T11:51:31Z</time>
      </trkpt>
      <trkpt lat="42.88243" lon="2.35689">
        <ele>500</ele>
        <time>2023-09-09T11:51:32Z</time>
      </trkpt>
      <trkpt lat="42.88244" lon="2.35687">
        <ele>499</ele>
        <time>2023-09-09T11:51:33Z</time>
      </trkpt>
      <trkpt lat="42.88244" lon="2.35685">
        <ele>499</ele>
        <time>2023-09-09T11:51:34Z</time>
      </trkpt>
      <trkpt lat="42.88245" lon="2.35683">
        <ele>499</ele>
        <time>2023-09-09T11:51:35Z</time>
      </trkpt>
      <trkpt lat="42.88245" lon="2.35681">
        <ele>499</ele>
        <time>2023-09-09T11:51:36Z</time>
      </trkpt>
      <trkpt lat="42.88245" lon="2.3568">
        <ele>499</ele>
        <time>2023-09-09T11:51:37Z</time>
      </trkpt>
      <trkpt lat="42.88244" lon="2.35679">
        <ele>498</ele>
        <time>2023-09-09T11:51:38Z</time>
      </trkpt>
      <trkpt lat="42.88244" lon="2.35679">
        <ele>498</ele>
        <time>2023-09-09T11:51:39Z</time>
      </trkpt>
      <trkpt lat="42.88243" lon="2.35678">
        <ele>498</ele>
        <time>2023-09-09T11:51:40Z</time>
      </trkpt>
      <trkpt lat="42.88242" lon="2.35678">
        <ele>498</ele>
        <time>2023-09-09T11:51:41Z</time>
      </trkpt>
      <trkpt lat="42.8824" lon="2.35678">
        <ele>498</ele>
        <time>2023-09-09T11:51:42Z</time>
      </trkpt>
      <trkpt lat="42.88239" lon="2.35677">
        <ele>498</ele>
        <time>2023-09-09T11:51:43Z</time>
      </trkpt>
      <trkpt lat="42.88238" lon="2.35676">
        <ele>498</ele>
        <time>2023-09-09T11:51:44Z</time>
      </trkpt>
      <trkpt lat="42.88236" lon="2.35675">
        <ele>498</ele>
        <time>2023-09-09T11:51:45Z</time>
      </trkpt>
      <trkpt lat="42.88235" lon="2.35673">
        <ele>498</ele>
        <time>2023-09-09T11:51:46Z</time>
      </trkpt>
      <trkpt lat="42.88234" lon="2.35672">
        <ele>498</ele>
        <time>2023-09-09T11:51:47Z</time>
      </trkpt>
      <trkpt lat="42.88233" lon="2.3567">
        <ele>498</ele>
        <time>2023-09-09T11:51:48Z</time>
      </trkpt>
      <trkpt lat="42.88232" lon="2.35668">
        <ele>498</ele>
        <time>2023-09-09T11:51:49Z</time>
      </trkpt>
      <trkpt lat="42.88231" lon="2.35666">
        <ele>498</ele>
        <time>2023-09-09T11:51:50Z</time>
      </trkpt>
      <trkpt lat="42.8823" lon="2.35665">
        <ele>498</ele>
        <time>2023-09-09T11:51:51Z</time>
      </trkpt>
      <trkpt lat="42.88229" lon="2.35663">
        <ele>498</ele>
        <time>2023-09-09T11:51:52Z</time>
      </trkpt>
      <trkpt lat="42.88228" lon="2.35661">
        <ele>497</ele>
        <time>2023-09-09T11:51:53Z</time>
      </trkpt>
      <trkpt lat="42.88227" lon="2.35659">
        <ele>497</ele>
        <time>2023-09-09T11:51:54Z</time>
      </trkpt>
      <trkpt lat="42.88225" lon="2.35657">
        <ele>497</ele>
        <time>2023-09-09T11:51:55Z</time>
      </trkpt>
      <trkpt lat="42.88224" lon="2.35656">
        <ele>497</ele>
        <time>2023-09-09T11:51:56Z</time>
      </trkpt>
      <trkpt lat="42.88222" lon="2.35655">
        <ele>497</ele>
        <time>2023-09-09T11:51:57Z</time>
      </trkpt>
      <trkpt lat="42.8822" lon="2.35654">
        <ele>497</ele>
        <time>2023-09-09T11:51:58Z</time>
      </trkpt>
      <trkpt lat="42.88218" lon="2.35653">
        <ele>497</ele>
        <time>2023-09-09T11:51:59Z</time>
      </trkpt>
      <trkpt lat="42.88216" lon="2.35652">
        <ele>497</ele>
        <time>2023-09-09T11:52:00Z</time>
      </trkpt>
      <trkpt lat="42.88215" lon="2.35651">
        <ele>497</ele>
        <time>2023-09-09T11:52:01Z</time>
      </trkpt>
      <trkpt lat="42.88213" lon="2.3565">
        <ele>497</ele>
        <time>2023-09-09T11:52:02Z</time>
      </trkpt>
      <trkpt lat="42.88211" lon="2.35649">
        <ele>497</ele>
        <time>2023-09-09T11:52:03Z</time>
      </trkpt>
      <trkpt lat="42.88209" lon="2.35647">
        <ele>497</ele>
        <time>2023-09-09T11:52:04Z</time>
      </trkpt>
      <trkpt lat="42.88208" lon="2.35645">
        <ele>497</ele>
        <time>2023-09-09T11:52:05Z</time>
      </trkpt>
      <trkpt lat="42.88207" lon="2.35644">
        <ele>497</ele>
        <time>2023-09-09T11:52:06Z</time>
      </trkpt>
      <trkpt lat="42.88205" lon="2.35643">
        <ele>497</ele>
        <time>2023-09-09T11:52:07Z</time>
      </trkpt>
      <trkpt lat="42.88204" lon="2.35641">
        <ele>497</ele>
        <time>2023-09-09T11:52:08Z</time>
      </trkpt>
      <trkpt lat="42.88203" lon="2.3564">
        <ele>497</ele>
        <time>2023-09-09T11:52:09Z</time>
      </trkpt>
      <trkpt lat="42.88201" lon="2.35639">
        <ele>497</ele>
        <time>2023-09-09T11:52:10Z</time>
      </trkpt>
      <trkpt lat="42.882" lon="2.35637">
        <ele>497</ele>
        <time>2023-09-09T11:52:11Z</time>
      </trkpt>
      <trkpt lat="42.88198" lon="2.35636">
        <ele>497</ele>
        <time>2023-09-09T11:52:12Z</time>
      </trkpt>
      <trkpt lat="42.88197" lon="2.35635">
        <ele>496</ele>
        <time>2023-09-09T11:52:13Z</time>
      </trkpt>
      <trkpt lat="42.88195" lon="2.35633">
        <ele>496</ele>
        <time>2023-09-09T11:52:14Z</time>
      </trkpt>
      <trkpt lat="42.88194" lon="2.35631">
        <ele>496</ele>
        <time>2023-09-09T11:52:15Z</time>
      </trkpt>
      <trkpt lat="42.88192" lon="2.3563">
        <ele>496</ele>
        <time>2023-09-09T11:52:16Z</time>
      </trkpt>
      <trkpt lat="42.8819" lon="2.35629">
        <ele>496</ele>
        <time>2023-09-09T11:52:17Z</time>
      </trkpt>
      <trkpt lat="42.88189" lon="2.35627">
        <ele>496</ele>
        <time>2023-09-09T11:52:18Z</time>
      </trkpt>
      <trkpt lat="42.88187" lon="2.35626">
        <ele>496</ele>
        <time>2023-09-09T11:52:19Z</time>
      </trkpt>
      <trkpt lat="42.88186" lon="2.35625">
        <ele>496</ele>
        <time>2023-09-09T11:52:20Z</time>
      </trkpt>
      <trkpt lat="42.88185" lon="2.35623">
        <ele>496</ele>
        <time>2023-09-09T11:52:21Z</time>
      </trkpt>
      <trkpt lat="42.88183" lon="2.35622">
        <ele>496</ele>
        <time>2023-09-09T11:52:22Z</time>
      </trkpt>
      <trkpt lat="42.88182" lon="2.35621">
        <ele>496</ele>
        <time>2023-09-09T11:52:23Z</time>
      </trkpt>
      <trkpt lat="42.8818" lon="2.3562">
        <ele>496</ele>
        <time>2023-09-09T11:52:24Z</time>
      </trkpt>
      <trkpt lat="42.88179" lon="2.35619">
        <ele>496</ele>
        <time>2023-09-09T11:52:25Z</time>
      </trkpt>
      <trkpt lat="42.88178" lon="2.35618">
        <ele>496</ele>
        <time>2023-09-09T11:52:26Z</time>
      </trkpt>
      <trkpt lat="42.88176" lon="2.35617">
        <ele>496</ele>
        <time>2023-09-09T11:52:27Z</time>
      </trkpt>
      <trkpt lat="42.88175" lon="2.35616">
        <ele>495</ele>
        <time>2023-09-09T11:52:28Z</time>
      </trkpt>
      <trkpt lat="42.88174" lon="2.35615">
        <ele>495</ele>
        <time>2023-09-09T11:52:29Z</time>
      </trkpt>
      <trkpt lat="42.88172" lon="2.35615">
        <ele>495</ele>
        <time>2023-09-09T11:52:30Z</time>
      </trkpt>
      <trkpt lat="42.88171" lon="2.35614">
        <ele>495</ele>
        <time>2023-09-09T11:52:31Z</time>
      </trkpt>
      <trkpt lat="42.88169" lon="2.35614">
        <ele>495</ele>
        <time>2023-09-09T11:52:32Z</time>
      </trkpt>
      <trkpt lat="42.88167" lon="2.35613">
        <ele>495</ele>
        <time>2023-09-09T11:52:33Z</time>
      </trkpt>
      <trkpt lat="42.88165" lon="2.35613">
        <ele>495</ele>
        <time>2023-09-09T11:52:34Z</time>
      </trkpt>
      <trkpt lat="42.88163" lon="2.35613">
        <ele>495</ele>
        <time>2023-09-09T11:52:35Z</time>
      </trkpt>
      <trkpt lat="42.88161" lon="2.35612">
        <ele>495</ele>
        <time>2023-09-09T11:52:36Z</time>
      </trkpt>
      <trkpt lat="42.88159" lon="2.35612">
        <ele>495</ele>
        <time>2023-09-09T11:52:37Z</time>
      </trkpt>
      <trkpt lat="42.88157" lon="2.35611">
        <ele>495</ele>
        <time>2023-09-09T11:52:38Z</time>
      </trkpt>
      <trkpt lat="42.88155" lon="2.35611">
        <ele>495</ele>
        <time>2023-09-09T11:52:39Z</time>
      </trkpt>
      <trkpt lat="42.88154" lon="2.35611">
        <ele>495</ele>
        <time>2023-09-09T11:52:40Z</time>
      </trkpt>
      <trkpt lat="42.88152" lon="2.35611">
        <ele>495</ele>
        <time>2023-09-09T11:52:41Z</time>
      </trkpt>
      <trkpt lat="42.8815" lon="2.3561">
        <ele>495</ele>
        <time>2023-09-09T11:52:42Z</time>
      </trkpt>
      <trkpt lat="42.88148" lon="2.3561">
        <ele>495</ele>
        <time>2023-09-09T11:52:43Z</time>
      </trkpt>
      <trkpt lat="42.88146" lon="2.3561">
        <ele>495</ele>
        <time>2023-09-09T11:52:44Z</time>
      </trkpt>
      <trkpt lat="42.88144" lon="2.3561">
        <ele>495</ele>
        <time>2023-09-09T11:52:45Z</time>
      </trkpt>
      <trkpt lat="42.88142" lon="2.35609">
        <ele>495</ele>
        <time>2023-09-09T11:52:46Z</time>
      </trkpt>
      <trkpt lat="42.8814" lon="2.35609">
        <ele>495</ele>
        <time>2023-09-09T11:52:47Z</time>
      </trkpt>
      <trkpt lat="42.88138" lon="2.35608">
        <ele>495</ele>
        <time>2023-09-09T11:52:48Z</time>
      </trkpt>
      <trkpt lat="42.88136" lon="2.35607">
        <ele>495</ele>
        <time>2023-09-09T11:52:49Z</time>
      </trkpt>
      <trkpt lat="42.88134" lon="2.35606">
        <ele>495</ele>
        <time>2023-09-09T11:52:50Z</time>
      </trkpt>
      <trkpt lat="42.88132" lon="2.35605">
        <ele>495</ele>
        <time>2023-09-09T11:52:51Z</time>
      </trkpt>
      <trkpt lat="42.88131" lon="2.35604">
        <ele>495</ele>
        <time>2023-09-09T11:52:52Z</time>
      </trkpt>
      <trkpt lat="42.88129" lon="2.35603">
        <ele>495</ele>
        <time>2023-09-09T11:52:53Z</time>
      </trkpt>
      <trkpt lat="42.88127" lon="2.35603">
        <ele>495</ele>
        <time>2023-09-09T11:52:54Z</time>
      </trkpt>
      <trkpt lat="42.88126" lon="2.35602">
        <ele>495</ele>
        <time>2023-09-09T11:52:55Z</time>
      </trkpt>
      <trkpt lat="42.88124" lon="2.35602">
        <ele>495</ele>
        <time>2023-09-09T11:52:56Z</time>
      </trkpt>
      <trkpt lat="42.88123" lon="2.35601">
        <ele>495</ele>
        <time>2023-09-09T11:52:57Z</time>
      </trkpt>
      <trkpt lat="42.88122" lon="2.35601">
        <ele>495</ele>
        <time>2023-09-09T11:52:58Z</time>
      </trkpt>
      <trkpt lat="42.8812" lon="2.35601">
        <ele>495</ele>
        <time>2023-09-09T11:52:59Z</time>
      </trkpt>
      <trkpt lat="42.88119" lon="2.356">
        <ele>495</ele>
        <time>2023-09-09T11:53:00Z</time>
      </trkpt>
      <trkpt lat="42.88117" lon="2.356">
        <ele>495</ele>
        <time>2023-09-09T11:53:01Z</time>
      </trkpt>
      <trkpt lat="42.88116" lon="2.35599">
        <ele>495</ele>
        <time>2023-09-09T11:53:02Z</time>
      </trkpt>
      <trkpt lat="42.88114" lon="2.35599">
        <ele>495</ele>
        <time>2023-09-09T11:53:03Z</time>
      </trkpt>
      <trkpt lat="42.88113" lon="2.35598">
        <ele>495</ele>
        <time>2023-09-09T11:53:04Z</time>
      </trkpt>
      <trkpt lat="42.88111" lon="2.35597">
        <ele>495</ele>
        <time>2023-09-09T11:53:05Z</time>
      </trkpt>
      <trkpt lat="42.88109" lon="2.35597">
        <ele>495</ele>
        <time>2023-09-09T11:53:06Z</time>
      </trkpt>
      <trkpt lat="42.88108" lon="2.35596">
        <ele>495</ele>
        <time>2023-09-09T11:53:07Z</time>
      </trkpt>
      <trkpt lat="42.88106" lon="2.35595">
        <ele>494</ele>
        <time>2023-09-09T11:53:08Z</time>
      </trkpt>
      <trkpt lat="42.88104" lon="2.35595">
        <ele>494</ele>
        <time>2023-09-09T11:53:09Z</time>
      </trkpt>
      <trkpt lat="42.88103" lon="2.35594">
        <ele>493</ele>
        <time>2023-09-09T11:53:10Z</time>
      </trkpt>
      <trkpt lat="42.88101" lon="2.35594">
        <ele>493</ele>
        <time>2023-09-09T11:53:11Z</time>
      </trkpt>
      <trkpt lat="42.88099" lon="2.35593">
        <ele>493</ele>
        <time>2023-09-09T11:53:12Z</time>
      </trkpt>
      <trkpt lat="42.88097" lon="2.35593">
        <ele>493</ele>
        <time>2023-09-09T11:53:13Z</time>
      </trkpt>
      <trkpt lat="42.88095" lon="2.35592">
        <ele>493</ele>
        <time>2023-09-09T11:53:14Z</time>
      </trkpt>
      <trkpt lat="42.88093" lon="2.35592">
        <ele>493</ele>
        <time>2023-09-09T11:53:15Z</time>
      </trkpt>
      <trkpt lat="42.88091" lon="2.35591">
        <ele>493</ele>
        <time>2023-09-09T11:53:16Z</time>
      </trkpt>
      <trkpt lat="42.88089" lon="2.3559">
        <ele>493</ele>
        <time>2023-09-09T11:53:17Z</time>
      </trkpt>
      <trkpt lat="42.88088" lon="2.35589">
        <ele>492</ele>
        <time>2023-09-09T11:53:18Z</time>
      </trkpt>
      <trkpt lat="42.88086" lon="2.35589">
        <ele>492</ele>
        <time>2023-09-09T11:53:19Z</time>
      </trkpt>
      <trkpt lat="42.88084" lon="2.35588">
        <ele>492</ele>
        <time>2023-09-09T11:53:20Z</time>
      </trkpt>
      <trkpt lat="42.88082" lon="2.35587">
        <ele>492</ele>
        <time>2023-09-09T11:53:21Z</time>
      </trkpt>
      <trkpt lat="42.8808" lon="2.35587">
        <ele>492</ele>
        <time>2023-09-09T11:53:22Z</time>
      </trkpt>
      <trkpt lat="42.88078" lon="2.35586">
        <ele>491</ele>
        <time>2023-09-09T11:53:23Z</time>
      </trkpt>
      <trkpt lat="42.88076" lon="2.35586">
        <ele>491</ele>
        <time>2023-09-09T11:53:24Z</time>
      </trkpt>
      <trkpt lat="42.88075" lon="2.35585">
        <ele>491</ele>
        <time>2023-09-09T11:53:25Z</time>
      </trkpt>
      <trkpt lat="42.88073" lon="2.35584">
        <ele>491</ele>
        <time>2023-09-09T11:53:26Z</time>
      </trkpt>
      <trkpt lat="42.88071" lon="2.35583">
        <ele>491</ele>
        <time>2023-09-09T11:53:27Z</time>
      </trkpt>
      <trkpt lat="42.8807" lon="2.35582">
        <ele>491</ele>
        <time>2023-09-09T11:53:28Z</time>
      </trkpt>
      <trkpt lat="42.88068" lon="2.35581">
        <ele>491</ele>
        <time>2023-09-09T11:53:29Z</time>
      </trkpt>
      <trkpt lat="42.88067" lon="2.3558">
        <ele>491</ele>
        <time>2023-09-09T11:53:30Z</time>
      </trkpt>
      <trkpt lat="42.88065" lon="2.35579">
        <ele>491</ele>
        <time>2023-09-09T11:53:31Z</time>
      </trkpt>
      <trkpt lat="42.88064" lon="2.35578">
        <ele>491</ele>
        <time>2023-09-09T11:53:32Z</time>
      </trkpt>
      <trkpt lat="42.88062" lon="2.35577">
        <ele>490</ele>
        <time>2023-09-09T11:53:33Z</time>
      </trkpt>
      <trkpt lat="42.88061" lon="2.35576">
        <ele>490</ele>
        <time>2023-09-09T11:53:34Z</time>
      </trkpt>
      <trkpt lat="42.88059" lon="2.35575">
        <ele>490</ele>
        <time>2023-09-09T11:53:35Z</time>
      </trkpt>
      <trkpt lat="42.88057" lon="2.35574">
        <ele>490</ele>
        <time>2023-09-09T11:53:36Z</time>
      </trkpt>
      <trkpt lat="42.88056" lon="2.35573">
        <ele>490</ele>
        <time>2023-09-09T11:53:37Z</time>
      </trkpt>
      <trkpt lat="42.88054" lon="2.35572">
        <ele>489</ele>
        <time>2023-09-09T11:53:38Z</time>
      </trkpt>
      <trkpt lat="42.88053" lon="2.35571">
        <ele>489</ele>
        <time>2023-09-09T11:53:39Z</time>
      </trkpt>
      <trkpt lat="42.88051" lon="2.3557">
        <ele>489</ele>
        <time>2023-09-09T11:53:40Z</time>
      </trkpt>
      <trkpt lat="42.88049" lon="2.35569">
        <ele>489</ele>
        <time>2023-09-09T11:53:41Z</time>
      </trkpt>
      <trkpt lat="42.88048" lon="2.35568">
        <ele>489</ele>
        <time>2023-09-09T11:53:42Z</time>
      </trkpt>
      <trkpt lat="42.88047" lon="2.35567">
        <ele>488</ele>
        <time>2023-09-09T11:53:43Z</time>
      </trkpt>
      <trkpt lat="42.88045" lon="2.35566">
        <ele>488</ele>
        <time>2023-09-09T11:53:44Z</time>
      </trkpt>
      <trkpt lat="42.88044" lon="2.35565">
        <ele>488</ele>
        <time>2023-09-09T11:53:45Z</time>
      </trkpt>
      <trkpt lat="42.88042" lon="2.35563">
        <ele>488</ele>
        <time>2023-09-09T11:53:46Z</time>
      </trkpt>
      <trkpt lat="42.8804" lon="2.35562">
        <ele>488</ele>
        <time>2023-09-09T11:53:47Z</time>
      </trkpt>
      <trkpt lat="42.88039" lon="2.35561">
        <ele>487</ele>
        <time>2023-09-09T11:53:48Z</time>
      </trkpt>
      <trkpt lat="42.88037" lon="2.35561">
        <ele>487</ele>
        <time>2023-09-09T11:53:49Z</time>
      </trkpt>
      <trkpt lat="42.88035" lon="2.3556">
        <ele>487</ele>
        <time>2023-09-09T11:53:50Z</time>
      </trkpt>
      <trkpt lat="42.88033" lon="2.35559">
        <ele>487</ele>
        <time>2023-09-09T11:53:51Z</time>
      </trkpt>
      <trkpt lat="42.88031" lon="2.35558">
        <ele>487</ele>
        <time>2023-09-09T11:53:52Z</time>
      </trkpt>
      <trkpt lat="42.88029" lon="2.35558">
        <ele>487</ele>
        <time>2023-09-09T11:53:53Z</time>
      </trkpt>
      <trkpt lat="42.88027" lon="2.35557">
        <ele>487</ele>
        <time>2023-09-09T11:53:54Z</time>
      </trkpt>
      <trkpt lat="42.88025" lon="2.35556">
        <ele>487</ele>
        <time>2023-09-09T11:53:55Z</time>
      </trkpt>
      <trkpt lat="42.88024" lon="2.35555">
        <ele>487</ele>
        <time>2023-09-09T11:53:56Z</time>
      </trkpt>
      <trkpt lat="42.88022" lon="2.35554">
        <ele>487</ele>
        <time>2023-09-09T11:53:57Z</time>
      </trkpt>
      <trkpt lat="42.8802" lon="2.35554">
        <ele>486</ele>
        <time>2023-09-09T11:53:58Z</time>
      </trkpt>
      <trkpt lat="42.88019" lon="2.35553">
        <ele>486</ele>
        <time>2023-09-09T11:53:59Z</time>
      </trkpt>
      <trkpt lat="42.88017" lon="2.35552">
        <ele>486</ele>
        <time>2023-09-09T11:54:00Z</time>
      </trkpt>
      <trkpt lat="42.88016" lon="2.35552">
        <ele>486</ele>
        <time>2023-09-09T11:54:01Z</time>
      </trkpt>
      <trkpt lat="42.88014" lon="2.35551">
        <ele>486</ele>
        <time>2023-09-09T11:54:02Z</time>
      </trkpt>
      <trkpt lat="42.88013" lon="2.3555">
        <ele>485</ele>
        <time>2023-09-09T11:54:03Z</time>
      </trkpt>
      <trkpt lat="42.88011" lon="2.35549">
        <ele>485</ele>
        <time>2023-09-09T11:54:04Z</time>
      </trkpt>
      <trkpt lat="42.8801" lon="2.35549">
        <ele>485</ele>
        <time>2023-09-09T11:54:05Z</time>
      </trkpt>
      <trkpt lat="42.88009" lon="2.35548">
        <ele>485</ele>
        <time>2023-09-09T11:54:06Z</time>
      </trkpt>
      <trkpt lat="42.88007" lon="2.35547">
        <ele>485</ele>
        <time>2023-09-09T11:54:07Z</time>
      </trkpt>
      <trkpt lat="42.88006" lon="2.35547">
        <ele>484</ele>
        <time>2023-09-09T11:54:08Z</time>
      </trkpt>
      <trkpt lat="42.88005" lon="2.35546">
        <ele>484</ele>
        <time>2023-09-09T11:54:09Z</time>
      </trkpt>
      <trkpt lat="42.88003" lon="2.35545">
        <ele>483</ele>
        <time>2023-09-09T11:54:10Z</time>
      </trkpt>
      <trkpt lat="42.88002" lon="2.35544">
        <ele>483</ele>
        <time>2023-09-09T11:54:11Z</time>
      </trkpt>
      <trkpt lat="42.88001" lon="2.35543">
        <ele>483</ele>
        <time>2023-09-09T11:54:12Z</time>
      </trkpt>
      <trkpt lat="42.88" lon="2.35542">
        <ele>482</ele>
        <time>2023-09-09T11:54:13Z</time>
      </trkpt>
      <trkpt lat="42.87998" lon="2.35541">
        <ele>482</ele>
        <time>2023-09-09T11:54:14Z</time>
      </trkpt>
      <trkpt lat="42.87997" lon="2.3554">
        <ele>482</ele>
        <time>2023-09-09T11:54:15Z</time>
      </trkpt>
      <trkpt lat="42.87996" lon="2.35539">
        <ele>482</ele>
        <time>2023-09-09T11:54:16Z</time>
      </trkpt>
      <trkpt lat="42.87995" lon="2.35538">
        <ele>482</ele>
        <time>2023-09-09T11:54:17Z</time>
      </trkpt>
      <trkpt lat="42.87994" lon="2.35537">
        <ele>481</ele>
        <time>2023-09-09T11:54:18Z</time>
      </trkpt>
      <trkpt lat="42.87993" lon="2.35535">
        <ele>481</ele>
        <time>2023-09-09T11:54:19Z</time>
      </trkpt>
      <trkpt lat="42.87992" lon="2.35533">
        <ele>481</ele>
        <time>2023-09-09T11:54:20Z</time>
      </trkpt>
      <trkpt lat="42.87991" lon="2.35532">
        <ele>481</ele>
        <time>2023-09-09T11:54:21Z</time>
      </trkpt>
      <trkpt lat="42.87989" lon="2.35529">
        <ele>481</ele>
        <time>2023-09-09T11:54:22Z</time>
      </trkpt>
      <trkpt lat="42.87988" lon="2.35527">
        <ele>480</ele>
        <time>2023-09-09T11:54:23Z</time>
      </trkpt>
      <trkpt lat="42.87987" lon="2.35525">
        <ele>480</ele>
        <time>2023-09-09T11:54:24Z</time>
      </trkpt>
      <trkpt lat="42.87985" lon="2.35522">
        <ele>480</ele>
        <time>2023-09-09T11:54:25Z</time>
      </trkpt>
      <trkpt lat="42.87984" lon="2.3552">
        <ele>480</ele>
        <time>2023-09-09T11:54:26Z</time>
      </trkpt>
      <trkpt lat="42.87982" lon="2.35517">
        <ele>480</ele>
        <time>2023-09-09T11:54:27Z</time>
      </trkpt>
      <trkpt lat="42.87981" lon="2.35515">
        <ele>479</ele>
        <time>2023-09-09T11:54:28Z</time>
      </trkpt>
      <trkpt lat="42.8798" lon="2.35513">
        <ele>479</ele>
        <time>2023-09-09T11:54:29Z</time>
      </trkpt>
      <trkpt lat="42.87979" lon="2.3551">
        <ele>479</ele>
        <time>2023-09-09T11:54:30Z</time>
      </trkpt>
      <trkpt lat="42.87978" lon="2.35508">
        <ele>479</ele>
        <time>2023-09-09T11:54:31Z</time>
      </trkpt>
      <trkpt lat="42.87977" lon="2.35507">
        <ele>479</ele>
        <time>2023-09-09T11:54:32Z</time>
      </trkpt>
      <trkpt lat="42.87975" lon="2.35505">
        <ele>479</ele>
        <time>2023-09-09T11:54:33Z</time>
      </trkpt>
      <trkpt lat="42.87974" lon="2.35504">
        <ele>479</ele>
        <time>2023-09-09T11:54:34Z</time>
      </trkpt>
      <trkpt lat="42.87972" lon="2.35503">
        <ele>479</ele>
        <time>2023-09-09T11:54:35Z</time>
      </trkpt>
      <trkpt lat="42.8797" lon="2.35503">
        <ele>479</ele>
        <time>2023-09-09T11:54:36Z</time>
      </trkpt>
      <trkpt lat="42.87968" lon="2.35502">
        <ele>479</ele>
        <time>2023-09-09T11:54:37Z</time>
      </trkpt>
      <trkpt lat="42.87967" lon="2.35502">
        <ele>479</ele>
        <time>2023-09-09T11:54:38Z</time>
      </trkpt>
      <trkpt lat="42.87965" lon="2.35502">
        <ele>479</ele>
        <time>2023-09-09T11:54:39Z</time>
      </trkpt>
      <trkpt lat="42.87963" lon="2.35502">
        <ele>479</ele>
        <time>2023-09-09T11:54:40Z</time>
      </trkpt>
      <trkpt lat="42.87961" lon="2.35501">
        <ele>479</ele>
        <time>2023-09-09T11:54:41Z</time>
      </trkpt>
      <trkpt lat="42.8796" lon="2.35501">
        <ele>479</ele>
        <time>2023-09-09T11:54:42Z</time>
      </trkpt>
      <trkpt lat="42.87959" lon="2.355">
        <ele>478</ele>
        <time>2023-09-09T11:54:43Z</time>
      </trkpt>
      <trkpt lat="42.87957" lon="2.35499">
        <ele>478</ele>
        <time>2023-09-09T11:54:44Z</time>
      </trkpt>
      <trkpt lat="42.87956" lon="2.35498">
        <ele>478</ele>
        <time>2023-09-09T11:54:45Z</time>
      </trkpt>
      <trkpt lat="42.87955" lon="2.35497">
        <ele>478</ele>
        <time>2023-09-09T11:54:46Z</time>
      </trkpt>
      <trkpt lat="42.87954" lon="2.35496">
        <ele>478</ele>
        <time>2023-09-09T11:54:47Z</time>
      </trkpt>
      <trkpt lat="42.87952" lon="2.35495">
        <ele>478</ele>
        <time>2023-09-09T11:54:48Z</time>
      </trkpt>
      <trkpt lat="42.87951" lon="2.35494">
        <ele>478</ele>
        <time>2023-09-09T11:54:49Z</time>
      </trkpt>
      <trkpt lat="42.8795" lon="2.35493">
        <ele>478</ele>
        <time>2023-09-09T11:54:50Z</time>
      </trkpt>
      <trkpt lat="42.87948" lon="2.35493">
        <ele>478</ele>
        <time>2023-09-09T11:54:51Z</time>
      </trkpt>
      <trkpt lat="42.87947" lon="2.35491">
        <ele>478</ele>
        <time>2023-09-09T11:54:52Z</time>
      </trkpt>
      <trkpt lat="42.87946" lon="2.3549">
        <ele>477</ele>
        <time>2023-09-09T11:54:53Z</time>
      </trkpt>
      <trkpt lat="42.87945" lon="2.35488">
        <ele>477</ele>
        <time>2023-09-09T11:54:54Z</time>
      </trkpt>
      <trkpt lat="42.87944" lon="2.35487">
        <ele>476</ele>
        <time>2023-09-09T11:54:55Z</time>
      </trkpt>
      <trkpt lat="42.87943" lon="2.35485">
        <ele>476</ele>
        <time>2023-09-09T11:54:56Z</time>
      </trkpt>
      <trkpt lat="42.87943" lon="2.35483">
        <ele>476</ele>
        <time>2023-09-09T11:54:57Z</time>
      </trkpt>
      <trkpt lat="42.87942" lon="2.35481">
        <ele>475</ele>
        <time>2023-09-09T11:54:58Z</time>
      </trkpt>
      <trkpt lat="42.87942" lon="2.35479">
        <ele>475</ele>
        <time>2023-09-09T11:54:59Z</time>
      </trkpt>
      <trkpt lat="42.87941" lon="2.35477">
        <ele>475</ele>
        <time>2023-09-09T11:55:00Z</time>
      </trkpt>
      <trkpt lat="42.8794" lon="2.35475">
        <ele>475</ele>
        <time>2023-09-09T11:55:01Z</time>
      </trkpt>
      <trkpt lat="42.87939" lon="2.35474">
        <ele>475</ele>
        <time>2023-09-09T11:55:02Z</time>
      </trkpt>
      <trkpt lat="42.87938" lon="2.35472">
        <ele>474</ele>
        <time>2023-09-09T11:55:03Z</time>
      </trkpt>
      <trkpt lat="42.87936" lon="2.35471">
        <ele>474</ele>
        <time>2023-09-09T11:55:04Z</time>
      </trkpt>
      <trkpt lat="42.87935" lon="2.3547">
        <ele>473</ele>
        <time>2023-09-09T11:55:05Z</time>
      </trkpt>
      <trkpt lat="42.87933" lon="2.3547">
        <ele>473</ele>
        <time>2023-09-09T11:55:06Z</time>
      </trkpt>
      <trkpt lat="42.87931" lon="2.35469">
        <ele>473</ele>
        <time>2023-09-09T11:55:07Z</time>
      </trkpt>
      <trkpt lat="42.87929" lon="2.35468">
        <ele>472</ele>
        <time>2023-09-09T11:55:08Z</time>
      </trkpt>
      <trkpt lat="42.87928" lon="2.35468">
        <ele>472</ele>
        <time>2023-09-09T11:55:09Z</time>
      </trkpt>
      <trkpt lat="42.87926" lon="2.35467">
        <ele>472</ele>
        <time>2023-09-09T11:55:10Z</time>
      </trkpt>
      <trkpt lat="42.87925" lon="2.35466">
        <ele>472</ele>
        <time>2023-09-09T11:55:11Z</time>
      </trkpt>
      <trkpt lat="42.87923" lon="2.35464">
        <ele>472</ele>
        <time>2023-09-09T11:55:12Z</time>
      </trkpt>
      <trkpt lat="42.87922" lon="2.35463">
        <ele>472</ele>
        <time>2023-09-09T11:55:13Z</time>
      </trkpt>
      <trkpt lat="42.87921" lon="2.35461">
        <ele>472</ele>
        <time>2023-09-09T11:55:14Z</time>
      </trkpt>
      <trkpt lat="42.8792" lon="2.35459">
        <ele>472</ele>
        <time>2023-09-09T11:55:15Z</time>
      </trkpt>
      <trkpt lat="42.87919" lon="2.35457">
        <ele>472</ele>
        <time>2023-09-09T11:55:16Z</time>
      </trkpt>
      <trkpt lat="42.87918" lon="2.35455">
        <ele>472</ele>
        <time>2023-09-09T11:55:17Z</time>
      </trkpt>
      <trkpt lat="42.87916" lon="2.35454">
        <ele>471</ele>
        <time>2023-09-09T11:55:18Z</time>
      </trkpt>
      <trkpt lat="42.87915" lon="2.35452">
        <ele>471</ele>
        <time>2023-09-09T11:55:19Z</time>
      </trkpt>
      <trkpt lat="42.87914" lon="2.3545">
        <ele>471</ele>
        <time>2023-09-09T11:55:20Z</time>
      </trkpt>
      <trkpt lat="42.87912" lon="2.35448">
        <ele>471</ele>
        <time>2023-09-09T11:55:21Z</time>
      </trkpt>
      <trkpt lat="42.87911" lon="2.35447">
        <ele>471</ele>
        <time>2023-09-09T11:55:22Z</time>
      </trkpt>
      <trkpt lat="42.87909" lon="2.35445">
        <ele>471</ele>
        <time>2023-09-09T11:55:23Z</time>
      </trkpt>
      <trkpt lat="42.87907" lon="2.35444">
        <ele>471</ele>
        <time>2023-09-09T11:55:24Z</time>
      </trkpt>
      <trkpt lat="42.87905" lon="2.35442">
        <ele>471</ele>
        <time>2023-09-09T11:55:25Z</time>
      </trkpt>
      <trkpt lat="42.87904" lon="2.35441">
        <ele>471</ele>
        <time>2023-09-09T11:55:26Z</time>
      </trkpt>
      <trkpt lat="42.87902" lon="2.35439">
        <ele>471</ele>
        <time>2023-09-09T11:55:27Z</time>
      </trkpt>
      <trkpt lat="42.879" lon="2.35438">
        <ele>471</ele>
        <time>2023-09-09T11:55:28Z</time>
      </trkpt>
      <trkpt lat="42.87898" lon="2.35436">
        <ele>471</ele>
        <time>2023-09-09T11:55:29Z</time>
      </trkpt>
      <trkpt lat="42.87897" lon="2.35435">
        <ele>471</ele>
        <time>2023-09-09T11:55:30Z</time>
      </trkpt>
      <trkpt lat="42.87895" lon="2.35434">
        <ele>471</ele>
        <time>2023-09-09T11:55:31Z</time>
      </trkpt>
      <trkpt lat="42.87893" lon="2.35433">
        <ele>471</ele>
        <time>2023-09-09T11:55:32Z</time>
      </trkpt>
      <trkpt lat="42.87891" lon="2.35433">
        <ele>471</ele>
        <time>2023-09-09T11:55:33Z</time>
      </trkpt>
      <trkpt lat="42.8789" lon="2.35433">
        <ele>471</ele>
        <time>2023-09-09T11:55:34Z</time>
      </trkpt>
      <trkpt lat="42.87888" lon="2.35433">
        <ele>471</ele>
        <time>2023-09-09T11:55:35Z</time>
      </trkpt>
      <trkpt lat="42.87886" lon="2.35433">
        <ele>471</ele>
        <time>2023-09-09T11:55:36Z</time>
      </trkpt>
      <trkpt lat="42.87883" lon="2.35433">
        <ele>471</ele>
        <time>2023-09-09T11:55:37Z</time>
      </trkpt>
      <trkpt lat="42.87881" lon="2.35433">
        <ele>470</ele>
        <time>2023-09-09T11:55:38Z</time>
      </trkpt>
      <trkpt lat="42.87879" lon="2.35433">
        <ele>470</ele>
        <time>2023-09-09T11:55:39Z</time>
      </trkpt>
      <trkpt lat="42.87877" lon="2.35433">
        <ele>470</ele>
        <time>2023-09-09T11:55:40Z</time>
      </trkpt>
      <trkpt lat="42.87875" lon="2.35433">
        <ele>470</ele>
        <time>2023-09-09T11:55:41Z</time>
      </trkpt>
      <trkpt lat="42.87873" lon="2.35433">
        <ele>470</ele>
        <time>2023-09-09T11:55:42Z</time>
      </trkpt>
      <trkpt lat="42.87871" lon="2.35433">
        <ele>470</ele>
        <time>2023-09-09T11:55:43Z</time>
      </trkpt>
      <trkpt lat="42.87869" lon="2.35433">
        <ele>470</ele>
        <time>2023-09-09T11:55:44Z</time>
      </trkpt>
      <trkpt lat="42.87868" lon="2.35433">
        <ele>470</ele>
        <time>2023-09-09T11:55:45Z</time>
      </trkpt>
      <trkpt lat="42.87866" lon="2.35433">
        <ele>470</ele>
        <time>2023-09-09T11:55:46Z</time>
      </trkpt>
      <trkpt lat="42.87865" lon="2.35432">
        <ele>470</ele>
        <time>2023-09-09T11:55:47Z</time>
      </trkpt>
      <trkpt lat="42.87863" lon="2.35432">
        <ele>469</ele>
        <time>2023-09-09T11:55:48Z</time>
      </trkpt>
      <trkpt lat="42.87861" lon="2.35432">
        <ele>469</ele>
        <time>2023-09-09T11:55:49Z</time>
      </trkpt>
      <trkpt lat="42.87859" lon="2.35431">
        <ele>469</ele>
        <time>2023-09-09T11:55:50Z</time>
      </trkpt>
      <trkpt lat="42.87858" lon="2.35431">
        <ele>469</ele>
        <time>2023-09-09T11:55:51Z</time>
      </trkpt>
      <trkpt lat="42.87856" lon="2.35431">
        <ele>469</ele>
        <time>2023-09-09T11:55:52Z</time>
      </trkpt>
      <trkpt lat="42.87854" lon="2.35431">
        <ele>469</ele>
        <time>2023-09-09T11:55:53Z</time>
      </trkpt>
      <trkpt lat="42.87852" lon="2.35431">
        <ele>469</ele>
        <time>2023-09-09T11:55:54Z</time>
      </trkpt>
      <trkpt lat="42.87851" lon="2.35431">
        <ele>469</ele>
        <time>2023-09-09T11:55:55Z</time>
      </trkpt>
      <trkpt lat="42.87849" lon="2.35432">
        <ele>469</ele>
        <time>2023-09-09T11:55:56Z</time>
      </trkpt>
      <trkpt lat="42.87847" lon="2.35432">
        <ele>469</ele>
        <time>2023-09-09T11:55:57Z</time>
      </trkpt>
      <trkpt lat="42.87845" lon="2.35432">
        <ele>468</ele>
        <time>2023-09-09T11:55:58Z</time>
      </trkpt>
      <trkpt lat="42.87843" lon="2.35432">
        <ele>468</ele>
        <time>2023-09-09T11:55:59Z</time>
      </trkpt>
      <trkpt lat="42.87841" lon="2.35432">
        <ele>468</ele>
        <time>2023-09-09T11:56:00Z</time>
      </trkpt>
      <trkpt lat="42.87839" lon="2.35433">
        <ele>468</ele>
        <time>2023-09-09T11:56:01Z</time>
      </trkpt>
      <trkpt lat="42.87837" lon="2.35433">
        <ele>468</ele>
        <time>2023-09-09T11:56:02Z</time>
      </trkpt>
      <trkpt lat="42.87835" lon="2.35433">
        <ele>468</ele>
        <time>2023-09-09T11:56:03Z</time>
      </trkpt>
      <trkpt lat="42.87833" lon="2.35433">
        <ele>468</ele>
        <time>2023-09-09T11:56:04Z</time>
      </trkpt>
      <trkpt lat="42.87831" lon="2.35432">
        <ele>468</ele>
        <time>2023-09-09T11:56:05Z</time>
      </trkpt>
      <trkpt lat="42.87829" lon="2.35432">
        <ele>468</ele>
        <time>2023-09-09T11:56:06Z</time>
      </trkpt>
      <trkpt lat="42.87827" lon="2.35432">
        <ele>468</ele>
        <time>2023-09-09T11:56:07Z</time>
      </trkpt>
      <trkpt lat="42.87825" lon="2.35432">
        <ele>467</ele>
        <time>2023-09-09T11:56:08Z</time>
      </trkpt>
      <trkpt lat="42.87823" lon="2.35432">
        <ele>467</ele>
        <time>2023-09-09T11:56:09Z</time>
      </trkpt>
      <trkpt lat="42.87822" lon="2.35432">
        <ele>467</ele>
        <time>2023-09-09T11:56:10Z</time>
      </trkpt>
      <trkpt lat="42.8782" lon="2.35432">
        <ele>467</ele>
        <time>2023-09-09T11:56:11Z</time>
      </trkpt>
      <trkpt lat="42.87818" lon="2.35432">
        <ele>467</ele>
        <time>2023-09-09T11:56:12Z</time>
      </trkpt>
      <trkpt lat="42.87817" lon="2.35432">
        <ele>467</ele>
        <time>2023-09-09T11:56:13Z</time>
      </trkpt>
      <trkpt lat="42.87815" lon="2.35432">
        <ele>467</ele>
        <time>2023-09-09T11:56:14Z</time>
      </trkpt>
      <trkpt lat="42.87814" lon="2.35432">
        <ele>467</ele>
        <time>2023-09-09T11:56:15Z</time>
      </trkpt>
      <trkpt lat="42.87812" lon="2.35431">
        <ele>467</ele>
        <time>2023-09-09T11:56:16Z</time>
      </trkpt>
      <trkpt lat="42.87811" lon="2.3543">
        <ele>467</ele>
        <time>2023-09-09T11:56:17Z</time>
      </trkpt>
      <trkpt lat="42.8781" lon="2.35429">
        <ele>467</ele>
        <time>2023-09-09T11:56:18Z</time>
      </trkpt>
      <trkpt lat="42.87808" lon="2.35428">
        <ele>467</ele>
        <time>2023-09-09T11:56:19Z</time>
      </trkpt>
      <trkpt lat="42.87807" lon="2.35427">
        <ele>467</ele>
        <time>2023-09-09T11:56:20Z</time>
      </trkpt>
      <trkpt lat="42.87805" lon="2.35426">
        <ele>467</ele>
        <time>2023-09-09T11:56:21Z</time>
      </trkpt>
      <trkpt lat="42.87804" lon="2.35424">
        <ele>467</ele>
        <time>2023-09-09T11:56:22Z</time>
      </trkpt>
      <trkpt lat="42.87803" lon="2.35423">
        <ele>466</ele>
        <time>2023-09-09T11:56:23Z</time>
      </trkpt>
      <trkpt lat="42.87802" lon="2.35422">
        <ele>466</ele>
        <time>2023-09-09T11:56:24Z</time>
      </trkpt>
      <trkpt lat="42.87801" lon="2.35421">
        <ele>466</ele>
        <time>2023-09-09T11:56:25Z</time>
      </trkpt>
      <trkpt lat="42.87799" lon="2.3542">
        <ele>466</ele>
        <time>2023-09-09T11:56:26Z</time>
      </trkpt>
      <trkpt lat="42.87798" lon="2.35419">
        <ele>466</ele>
        <time>2023-09-09T11:56:27Z</time>
      </trkpt>
      <trkpt lat="42.87797" lon="2.35418">
        <ele>466</ele>
        <time>2023-09-09T11:56:28Z</time>
      </trkpt>
      <trkpt lat="42.87796" lon="2.35416">
        <ele>466</ele>
        <time>2023-09-09T11:56:29Z</time>
      </trkpt>
      <trkpt lat="42.87794" lon="2.35415">
        <ele>466</ele>
        <time>2023-09-09T11:56:30Z</time>
      </trkpt>
      <trkpt lat="42.87793" lon="2.35414">
        <ele>466</ele>
        <time>2023-09-09T11:56:31Z</time>
      </trkpt>
      <trkpt lat="42.87791" lon="2.35413">
        <ele>466</ele>
        <time>2023-09-09T11:56:32Z</time>
      </trkpt>
      <trkpt lat="42.87789" lon="2.35412">
        <ele>465</ele>
        <time>2023-09-09T11:56:33Z</time>
      </trkpt>
      <trkpt lat="42.87788" lon="2.3541">
        <ele>465</ele>
        <time>2023-09-09T11:56:34Z</time>
      </trkpt>
      <trkpt lat="42.87786" lon="2.35409">
        <ele>465</ele>
        <time>2023-09-09T11:56:35Z</time>
      </trkpt>
      <trkpt lat="42.87784" lon="2.35408">
        <ele>465</ele>
        <time>2023-09-09T11:56:36Z</time>
      </trkpt>
      <trkpt lat="42.87783" lon="2.35406">
        <ele>465</ele>
        <time>2023-09-09T11:56:37Z</time>
      </trkpt>
      <trkpt lat="42.87781" lon="2.35405">
        <ele>465</ele>
        <time>2023-09-09T11:56:38Z</time>
      </trkpt>
      <trkpt lat="42.87779" lon="2.35404">
        <ele>465</ele>
        <time>2023-09-09T11:56:39Z</time>
      </trkpt>
      <trkpt lat="42.87778" lon="2.35402">
        <ele>465</ele>
        <time>2023-09-09T11:56:40Z</time>
      </trkpt>
      <trkpt lat="42.87776" lon="2.35401">
        <ele>465</ele>
        <time>2023-09-09T11:56:41Z</time>
      </trkpt>
      <trkpt lat="42.87775" lon="2.354">
        <ele>465</ele>
        <time>2023-09-09T11:56:42Z</time>
      </trkpt>
      <trkpt lat="42.87773" lon="2.35398">
        <ele>464</ele>
        <time>2023-09-09T11:56:43Z</time>
      </trkpt>
      <trkpt lat="42.87771" lon="2.35397">
        <ele>464</ele>
        <time>2023-09-09T11:56:44Z</time>
      </trkpt>
      <trkpt lat="42.8777" lon="2.35395">
        <ele>464</ele>
        <time>2023-09-09T11:56:45Z</time>
      </trkpt>
      <trkpt lat="42.87768" lon="2.35394">
        <ele>464</ele>
        <time>2023-09-09T11:56:46Z</time>
      </trkpt>
      <trkpt lat="42.87766" lon="2.35393">
        <ele>464</ele>
        <time>2023-09-09T11:56:47Z</time>
      </trkpt>
      <trkpt lat="42.87765" lon="2.35392">
        <ele>463</ele>
        <time>2023-09-09T11:56:48Z</time>
      </trkpt>
      <trkpt lat="42.87763" lon="2.3539">
        <ele>463</ele>
        <time>2023-09-09T11:56:49Z</time>
      </trkpt>
      <trkpt lat="42.87761" lon="2.35389">
        <ele>463</ele>
        <time>2023-09-09T11:56:50Z</time>
      </trkpt>
      <trkpt lat="42.8776" lon="2.35388">
        <ele>463</ele>
        <time>2023-09-09T11:56:51Z</time>
      </trkpt>
      <trkpt lat="42.87758" lon="2.35386">
        <ele>463</ele>
        <time>2023-09-09T11:56:52Z</time>
      </trkpt>
      <trkpt lat="42.87756" lon="2.35385">
        <ele>463</ele>
        <time>2023-09-09T11:56:53Z</time>
      </trkpt>
      <trkpt lat="42.87755" lon="2.35383">
        <ele>463</ele>
        <time>2023-09-09T11:56:54Z</time>
      </trkpt>
      <trkpt lat="42.87753" lon="2.35381">
        <ele>463</ele>
        <time>2023-09-09T11:56:55Z</time>
      </trkpt>
      <trkpt lat="42.87752" lon="2.35379">
        <ele>463</ele>
        <time>2023-09-09T11:56:56Z</time>
      </trkpt>
      <trkpt lat="42.8775" lon="2.35378">
        <ele>463</ele>
        <time>2023-09-09T11:56:57Z</time>
      </trkpt>
      <trkpt lat="42.87749" lon="2.35376">
        <ele>463</ele>
        <time>2023-09-09T11:56:58Z</time>
      </trkpt>
      <trkpt lat="42.87748" lon="2.35374">
        <ele>463</ele>
        <time>2023-09-09T11:56:59Z</time>
      </trkpt>
      <trkpt lat="42.87747" lon="2.35371">
        <ele>463</ele>
        <time>2023-09-09T11:57:00Z</time>
      </trkpt>
      <trkpt lat="42.87746" lon="2.35369">
        <ele>463</ele>
        <time>2023-09-09T11:57:01Z</time>
      </trkpt>
      <trkpt lat="42.87745" lon="2.35366">
        <ele>463</ele>
        <time>2023-09-09T11:57:02Z</time>
      </trkpt>
      <trkpt lat="42.87745" lon="2.35363">
        <ele>463</ele>
        <time>2023-09-09T11:57:03Z</time>
      </trkpt>
      <trkpt lat="42.87744" lon="2.35361">
        <ele>463</ele>
        <time>2023-09-09T11:57:04Z</time>
      </trkpt>
      <trkpt lat="42.87744" lon="2.35358">
        <ele>463</ele>
        <time>2023-09-09T11:57:05Z</time>
      </trkpt>
      <trkpt lat="42.87744" lon="2.35355">
        <ele>463</ele>
        <time>2023-09-09T11:57:06Z</time>
      </trkpt>
      <trkpt lat="42.87744" lon="2.35352">
        <ele>463</ele>
        <time>2023-09-09T11:57:07Z</time>
      </trkpt>
      <trkpt lat="42.87744" lon="2.35349">
        <ele>462</ele>
        <time>2023-09-09T11:57:08Z</time>
      </trkpt>
      <trkpt lat="42.87744" lon="2.35346">
        <ele>462</ele>
        <time>2023-09-09T11:57:09Z</time>
      </trkpt>
      <trkpt lat="42.87745" lon="2.35344">
        <ele>462</ele>
        <time>2023-09-09T11:57:10Z</time>
      </trkpt>
      <trkpt lat="42.87746" lon="2.35341">
        <ele>462</ele>
        <time>2023-09-09T11:57:11Z</time>
      </trkpt>
      <trkpt lat="42.87746" lon="2.35338">
        <ele>462</ele>
        <time>2023-09-09T11:57:12Z</time>
      </trkpt>
      <trkpt lat="42.87747" lon="2.35334">
        <ele>462</ele>
        <time>2023-09-09T11:57:13Z</time>
      </trkpt>
      <trkpt lat="42.87747" lon="2.35331">
        <ele>462</ele>
        <time>2023-09-09T11:57:14Z</time>
      </trkpt>
      <trkpt lat="42.87748" lon="2.35328">
        <ele>462</ele>
        <time>2023-09-09T11:57:15Z</time>
      </trkpt>
      <trkpt lat="42.87748" lon="2.35326">
        <ele>462</ele>
        <time>2023-09-09T11:57:16Z</time>
      </trkpt>
      <trkpt lat="42.87748" lon="2.35323">
        <ele>462</ele>
        <time>2023-09-09T11:57:17Z</time>
      </trkpt>
      <trkpt lat="42.87748" lon="2.3532">
        <ele>462</ele>
        <time>2023-09-09T11:57:18Z</time>
      </trkpt>
      <trkpt lat="42.87748" lon="2.35317">
        <ele>462</ele>
        <time>2023-09-09T11:57:19Z</time>
      </trkpt>
      <trkpt lat="42.87747" lon="2.35314">
        <ele>462</ele>
        <time>2023-09-09T11:57:20Z</time>
      </trkpt>
      <trkpt lat="42.87747" lon="2.35312">
        <ele>462</ele>
        <time>2023-09-09T11:57:21Z</time>
      </trkpt>
      <trkpt lat="42.87746" lon="2.35309">
        <ele>462</ele>
        <time>2023-09-09T11:57:22Z</time>
      </trkpt>
      <trkpt lat="42.87745" lon="2.35307">
        <ele>462</ele>
        <time>2023-09-09T11:57:23Z</time>
      </trkpt>
      <trkpt lat="42.87744" lon="2.35304">
        <ele>462</ele>
        <time>2023-09-09T11:57:24Z</time>
      </trkpt>
      <trkpt lat="42.87743" lon="2.35302">
        <ele>462</ele>
        <time>2023-09-09T11:57:25Z</time>
      </trkpt>
      <trkpt lat="42.87742" lon="2.353">
        <ele>462</ele>
        <time>2023-09-09T11:57:26Z</time>
      </trkpt>
      <trkpt lat="42.87741" lon="2.35297">
        <ele>462</ele>
        <time>2023-09-09T11:57:27Z</time>
      </trkpt>
      <trkpt lat="42.8774" lon="2.35295">
        <ele>461</ele>
        <time>2023-09-09T11:57:28Z</time>
      </trkpt>
      <trkpt lat="42.87738" lon="2.35294">
        <ele>461</ele>
        <time>2023-09-09T11:57:29Z</time>
      </trkpt>
      <trkpt lat="42.87737" lon="2.35292">
        <ele>461</ele>
        <time>2023-09-09T11:57:30Z</time>
      </trkpt>
      <trkpt lat="42.87736" lon="2.3529">
        <ele>461</ele>
        <time>2023-09-09T11:57:31Z</time>
      </trkpt>
      <trkpt lat="42.87734" lon="2.35288">
        <ele>461</ele>
        <time>2023-09-09T11:57:32Z</time>
      </trkpt>
      <trkpt lat="42.87733" lon="2.35286">
        <ele>461</ele>
        <time>2023-09-09T11:57:33Z</time>
      </trkpt>
      <trkpt lat="42.87731" lon="2.35285">
        <ele>461</ele>
        <time>2023-09-09T11:57:34Z</time>
      </trkpt>
      <trkpt lat="42.8773" lon="2.35283">
        <ele>461</ele>
        <time>2023-09-09T11:57:35Z</time>
      </trkpt>
      <trkpt lat="42.87728" lon="2.35282">
        <ele>461</ele>
        <time>2023-09-09T11:57:36Z</time>
      </trkpt>
      <trkpt lat="42.87726" lon="2.3528">
        <ele>461</ele>
        <time>2023-09-09T11:57:37Z</time>
      </trkpt>
      <trkpt lat="42.87724" lon="2.35278">
        <ele>461</ele>
        <time>2023-09-09T11:57:38Z</time>
      </trkpt>
      <trkpt lat="42.87723" lon="2.35276">
        <ele>461</ele>
        <time>2023-09-09T11:57:39Z</time>
      </trkpt>
      <trkpt lat="42.87721" lon="2.35275">
        <ele>461</ele>
        <time>2023-09-09T11:57:40Z</time>
      </trkpt>
      <trkpt lat="42.87719" lon="2.35273">
        <ele>461</ele>
        <time>2023-09-09T11:57:41Z</time>
      </trkpt>
      <trkpt lat="42.87718" lon="2.35271">
        <ele>461</ele>
        <time>2023-09-09T11:57:42Z</time>
      </trkpt>
      <trkpt lat="42.87717" lon="2.35269">
        <ele>461</ele>
        <time>2023-09-09T11:57:43Z</time>
      </trkpt>
      <trkpt lat="42.87716" lon="2.35267">
        <ele>461</ele>
        <time>2023-09-09T11:57:44Z</time>
      </trkpt>
      <trkpt lat="42.87714" lon="2.35266">
        <ele>461</ele>
        <time>2023-09-09T11:57:45Z</time>
      </trkpt>
      <trkpt lat="42.87713" lon="2.35264">
        <ele>461</ele>
        <time>2023-09-09T11:57:46Z</time>
      </trkpt>
      <trkpt lat="42.87712" lon="2.35263">
        <ele>461</ele>
        <time>2023-09-09T11:57:47Z</time>
      </trkpt>
      <trkpt lat="42.8771" lon="2.35261">
        <ele>461</ele>
        <time>2023-09-09T11:57:48Z</time>
      </trkpt>
      <trkpt lat="42.87708" lon="2.35259">
        <ele>461</ele>
        <time>2023-09-09T11:57:49Z</time>
      </trkpt>
      <trkpt lat="42.87706" lon="2.35258">
        <ele>461</ele>
        <time>2023-09-09T11:57:50Z</time>
      </trkpt>
      <trkpt lat="42.87704" lon="2.35257">
        <ele>461</ele>
        <time>2023-09-09T11:57:51Z</time>
      </trkpt>
      <trkpt lat="42.87702" lon="2.35255">
        <ele>461</ele>
        <time>2023-09-09T11:57:52Z</time>
      </trkpt>
      <trkpt lat="42.87699" lon="2.35254">
        <ele>460</ele>
        <time>2023-09-09T11:57:53Z</time>
      </trkpt>
      <trkpt lat="42.87697" lon="2.35252">
        <ele>460</ele>
        <time>2023-09-09T11:57:54Z</time>
      </trkpt>
      <trkpt lat="42.87695" lon="2.35251">
        <ele>460</ele>
        <time>2023-09-09T11:57:55Z</time>
      </trkpt>
      <trkpt lat="42.87694" lon="2.35249">
        <ele>460</ele>
        <time>2023-09-09T11:57:56Z</time>
      </trkpt>
      <trkpt lat="42.87692" lon="2.35247">
        <ele>460</ele>
        <time>2023-09-09T11:57:57Z</time>
      </trkpt>
      <trkpt lat="42.87691" lon="2.35244">
        <ele>460</ele>
        <time>2023-09-09T11:57:58Z</time>
      </trkpt>
      <trkpt lat="42.8769" lon="2.35242">
        <ele>460</ele>
        <time>2023-09-09T11:57:59Z</time>
      </trkpt>
      <trkpt lat="42.87689" lon="2.3524">
        <ele>460</ele>
        <time>2023-09-09T11:58:00Z</time>
      </trkpt>
      <trkpt lat="42.87688" lon="2.35237">
        <ele>460</ele>
        <time>2023-09-09T11:58:01Z</time>
      </trkpt>
      <trkpt lat="42.87688" lon="2.35234">
        <ele>460</ele>
        <time>2023-09-09T11:58:02Z</time>
      </trkpt>
      <trkpt lat="42.87688" lon="2.35231">
        <ele>460</ele>
        <time>2023-09-09T11:58:03Z</time>
      </trkpt>
      <trkpt lat="42.87688" lon="2.35228">
        <ele>460</ele>
        <time>2023-09-09T11:58:04Z</time>
      </trkpt>
      <trkpt lat="42.87689" lon="2.35225">
        <ele>460</ele>
        <time>2023-09-09T11:58:05Z</time>
      </trkpt>
      <trkpt lat="42.8769" lon="2.35222">
        <ele>460</ele>
        <time>2023-09-09T11:58:06Z</time>
      </trkpt>
      <trkpt lat="42.8769" lon="2.35219">
        <ele>460</ele>
        <time>2023-09-09T11:58:07Z</time>
      </trkpt>
      <trkpt lat="42.87691" lon="2.35215">
        <ele>460</ele>
        <time>2023-09-09T11:58:08Z</time>
      </trkpt>
      <trkpt lat="42.87692" lon="2.35212">
        <ele>460</ele>
        <time>2023-09-09T11:58:09Z</time>
      </trkpt>
      <trkpt lat="42.87693" lon="2.35209">
        <ele>460</ele>
        <time>2023-09-09T11:58:10Z</time>
      </trkpt>
      <trkpt lat="42.87693" lon="2.35206">
        <ele>460</ele>
        <time>2023-09-09T11:58:11Z</time>
      </trkpt>
      <trkpt lat="42.87694" lon="2.35204">
        <ele>461</ele>
        <time>2023-09-09T11:58:12Z</time>
      </trkpt>
      <trkpt lat="42.87694" lon="2.35201">
        <ele>461</ele>
        <time>2023-09-09T11:58:13Z</time>
      </trkpt>
      <trkpt lat="42.87695" lon="2.35199">
        <ele>461</ele>
        <time>2023-09-09T11:58:14Z</time>
      </trkpt>
      <trkpt lat="42.87695" lon="2.35196">
        <ele>461</ele>
        <time>2023-09-09T11:58:15Z</time>
      </trkpt>
      <trkpt lat="42.87695" lon="2.35194">
        <ele>461</ele>
        <time>2023-09-09T11:58:16Z</time>
      </trkpt>
      <trkpt lat="42.87695" lon="2.35191">
        <ele>461</ele>
        <time>2023-09-09T11:58:17Z</time>
      </trkpt>
      <trkpt lat="42.87695" lon="2.35189">
        <ele>461</ele>
        <time>2023-09-09T11:58:18Z</time>
      </trkpt>
      <trkpt lat="42.87695" lon="2.35186">
        <ele>461</ele>
        <time>2023-09-09T11:58:19Z</time>
      </trkpt>
      <trkpt lat="42.87695" lon="2.35184">
        <ele>461</ele>
        <time>2023-09-09T11:58:20Z</time>
      </trkpt>
      <trkpt lat="42.87695" lon="2.35182">
        <ele>461</ele>
        <time>2023-09-09T11:58:21Z</time>
      </trkpt>
      <trkpt lat="42.87695" lon="2.35179">
        <ele>462</ele>
        <time>2023-09-09T11:58:22Z</time>
      </trkpt>
      <trkpt lat="42.87695" lon="2.35177">
        <ele>462</ele>
        <time>2023-09-09T11:58:23Z</time>
      </trkpt>
      <trkpt lat="42.87695" lon="2.35174">
        <ele>462</ele>
        <time>2023-09-09T11:58:24Z</time>
      </trkpt>
      <trkpt lat="42.87695" lon="2.35171">
        <ele>462</ele>
        <time>2023-09-09T11:58:25Z</time>
      </trkpt>
      <trkpt lat="42.87695" lon="2.35168">
        <ele>462</ele>
        <time>2023-09-09T11:58:26Z</time>
      </trkpt>
      <trkpt lat="42.87695" lon="2.35166">
        <ele>462</ele>
        <time>2023-09-09T11:58:27Z</time>
      </trkpt>
      <trkpt lat="42.87695" lon="2.35162">
        <ele>462</ele>
        <time>2023-09-09T11:58:28Z</time>
      </trkpt>
      <trkpt lat="42.87695" lon="2.35159">
        <ele>462</ele>
        <time>2023-09-09T11:58:29Z</time>
      </trkpt>
      <trkpt lat="42.87695" lon="2.35156">
        <ele>462</ele>
        <time>2023-09-09T11:58:30Z</time>
      </trkpt>
      <trkpt lat="42.87695" lon="2.35153">
        <ele>462</ele>
        <time>2023-09-09T11:58:31Z</time>
      </trkpt>
      <trkpt lat="42.87696" lon="2.3515">
        <ele>462</ele>
        <time>2023-09-09T11:58:32Z</time>
      </trkpt>
      <trkpt lat="42.87696" lon="2.35148">
        <ele>462</ele>
        <time>2023-09-09T11:58:33Z</time>
      </trkpt>
      <trkpt lat="42.87696" lon="2.35145">
        <ele>462</ele>
        <time>2023-09-09T11:58:34Z</time>
      </trkpt>
      <trkpt lat="42.87696" lon="2.35143">
        <ele>462</ele>
        <time>2023-09-09T11:58:35Z</time>
      </trkpt>
      <trkpt lat="42.87696" lon="2.3514">
        <ele>462</ele>
        <time>2023-09-09T11:58:36Z</time>
      </trkpt>
      <trkpt lat="42.87697" lon="2.35138">
        <ele>463</ele>
        <time>2023-09-09T11:58:37Z</time>
      </trkpt>
      <trkpt lat="42.87697" lon="2.35135">
        <ele>463</ele>
        <time>2023-09-09T11:58:38Z</time>
      </trkpt>
      <trkpt lat="42.87697" lon="2.35133">
        <ele>463</ele>
        <time>2023-09-09T11:58:39Z</time>
      </trkpt>
      <trkpt lat="42.87697" lon="2.3513">
        <ele>463</ele>
        <time>2023-09-09T11:58:40Z</time>
      </trkpt>
      <trkpt lat="42.87697" lon="2.35127">
        <ele>463</ele>
        <time>2023-09-09T11:58:41Z</time>
      </trkpt>
      <trkpt lat="42.87697" lon="2.35125">
        <ele>463</ele>
        <time>2023-09-09T11:58:42Z</time>
      </trkpt>
      <trkpt lat="42.87697" lon="2.35122">
        <ele>463</ele>
        <time>2023-09-09T11:58:43Z</time>
      </trkpt>
      <trkpt lat="42.87697" lon="2.35119">
        <ele>463</ele>
        <time>2023-09-09T11:58:44Z</time>
      </trkpt>
      <trkpt lat="42.87697" lon="2.35117">
        <ele>463</ele>
        <time>2023-09-09T11:58:45Z</time>
      </trkpt>
      <trkpt lat="42.87696" lon="2.35114">
        <ele>463</ele>
        <time>2023-09-09T11:58:46Z</time>
      </trkpt>
      <trkpt lat="42.87696" lon="2.35111">
        <ele>464</ele>
        <time>2023-09-09T11:58:47Z</time>
      </trkpt>
      <trkpt lat="42.87696" lon="2.35108">
        <ele>464</ele>
        <time>2023-09-09T11:58:48Z</time>
      </trkpt>
      <trkpt lat="42.87696" lon="2.35106">
        <ele>464</ele>
        <time>2023-09-09T11:58:49Z</time>
      </trkpt>
      <trkpt lat="42.87696" lon="2.35103">
        <ele>464</ele>
        <time>2023-09-09T11:58:50Z</time>
      </trkpt>
      <trkpt lat="42.87696" lon="2.351">
        <ele>464</ele>
        <time>2023-09-09T11:58:51Z</time>
      </trkpt>
      <trkpt lat="42.87695" lon="2.35097">
        <ele>464</ele>
        <time>2023-09-09T11:58:52Z</time>
      </trkpt>
      <trkpt lat="42.87695" lon="2.35095">
        <ele>464</ele>
        <time>2023-09-09T11:58:53Z</time>
      </trkpt>
      <trkpt lat="42.87694" lon="2.35092">
        <ele>464</ele>
        <time>2023-09-09T11:58:54Z</time>
      </trkpt>
      <trkpt lat="42.87694" lon="2.35089">
        <ele>464</ele>
        <time>2023-09-09T11:58:55Z</time>
      </trkpt>
      <trkpt lat="42.87693" lon="2.35086">
        <ele>464</ele>
        <time>2023-09-09T11:58:56Z</time>
      </trkpt>
      <trkpt lat="42.87692" lon="2.35083">
        <ele>464</ele>
        <time>2023-09-09T11:58:57Z</time>
      </trkpt>
      <trkpt lat="42.87691" lon="2.35081">
        <ele>464</ele>
        <time>2023-09-09T11:58:58Z</time>
      </trkpt>
      <trkpt lat="42.87691" lon="2.35078">
        <ele>464</ele>
        <time>2023-09-09T11:58:59Z</time>
      </trkpt>
      <trkpt lat="42.8769" lon="2.35075">
        <ele>464</ele>
        <time>2023-09-09T11:59:00Z</time>
      </trkpt>
      <trkpt lat="42.87689" lon="2.35073">
        <ele>464</ele>
        <time>2023-09-09T11:59:01Z</time>
      </trkpt>
      <trkpt lat="42.87688" lon="2.3507">
        <ele>464</ele>
        <time>2023-09-09T11:59:02Z</time>
      </trkpt>
      <trkpt lat="42.87687" lon="2.35068">
        <ele>464</ele>
        <time>2023-09-09T11:59:03Z</time>
      </trkpt>
      <trkpt lat="42.87686" lon="2.35067">
        <ele>464</ele>
        <time>2023-09-09T11:59:04Z</time>
      </trkpt>
      <trkpt lat="42.87685" lon="2.35065">
        <ele>464</ele>
        <time>2023-09-09T11:59:05Z</time>
      </trkpt>
      <trkpt lat="42.87684" lon="2.35065">
        <ele>464</ele>
        <time>2023-09-09T11:59:06Z</time>
      </trkpt>
      <trkpt lat="42.87683" lon="2.35065">
        <ele>464</ele>
        <time>2023-09-09T11:59:07Z</time>
      </trkpt>
      <trkpt lat="42.87682" lon="2.35066">
        <ele>464</ele>
        <time>2023-09-09T11:59:08Z</time>
      </trkpt>
      <trkpt lat="42.8768" lon="2.35067">
        <ele>464</ele>
        <time>2023-09-09T11:59:09Z</time>
      </trkpt>
      <trkpt lat="42.87678" lon="2.35069">
        <ele>464</ele>
        <time>2023-09-09T11:59:10Z</time>
      </trkpt>
      <trkpt lat="42.87676" lon="2.3507">
        <ele>464</ele>
        <time>2023-09-09T11:59:11Z</time>
      </trkpt>
      <trkpt lat="42.87675" lon="2.35072">
        <ele>464</ele>
        <time>2023-09-09T11:59:12Z</time>
      </trkpt>
      <trkpt lat="42.87673" lon="2.35074">
        <ele>464</ele>
        <time>2023-09-09T11:59:13Z</time>
      </trkpt>
      <trkpt lat="42.87671" lon="2.35076">
        <ele>464</ele>
        <time>2023-09-09T11:59:14Z</time>
      </trkpt>
      <trkpt lat="42.8767" lon="2.35077">
        <ele>464</ele>
        <time>2023-09-09T11:59:15Z</time>
      </trkpt>
      <trkpt lat="42.87668" lon="2.35079">
        <ele>464</ele>
        <time>2023-09-09T11:59:16Z</time>
      </trkpt>
      <trkpt lat="42.87667" lon="2.35081">
        <ele>464</ele>
        <time>2023-09-09T11:59:17Z</time>
      </trkpt>
      <trkpt lat="42.87665" lon="2.35083">
        <ele>464</ele>
        <time>2023-09-09T11:59:18Z</time>
      </trkpt>
      <trkpt lat="42.87663" lon="2.35084">
        <ele>464</ele>
        <time>2023-09-09T11:59:19Z</time>
      </trkpt>
      <trkpt lat="42.87662" lon="2.35086">
        <ele>464</ele>
        <time>2023-09-09T11:59:20Z</time>
      </trkpt>
      <trkpt lat="42.8766" lon="2.35088">
        <ele>464</ele>
        <time>2023-09-09T11:59:21Z</time>
      </trkpt>
      <trkpt lat="42.87659" lon="2.3509">
        <ele>465</ele>
        <time>2023-09-09T11:59:22Z</time>
      </trkpt>
      <trkpt lat="42.87658" lon="2.35091">
        <ele>465</ele>
        <time>2023-09-09T11:59:23Z</time>
      </trkpt>
      <trkpt lat="42.87656" lon="2.35093">
        <ele>465</ele>
        <time>2023-09-09T11:59:24Z</time>
      </trkpt>
      <trkpt lat="42.87654" lon="2.35094">
        <ele>465</ele>
        <time>2023-09-09T11:59:25Z</time>
      </trkpt>
      <trkpt lat="42.87653" lon="2.35095">
        <ele>465</ele>
        <time>2023-09-09T11:59:26Z</time>
      </trkpt>
      <trkpt lat="42.87651" lon="2.35096">
        <ele>466</ele>
        <time>2023-09-09T11:59:27Z</time>
      </trkpt>
      <trkpt lat="42.87649" lon="2.35097">
        <ele>466</ele>
        <time>2023-09-09T11:59:28Z</time>
      </trkpt>
      <trkpt lat="42.87647" lon="2.35097">
        <ele>466</ele>
        <time>2023-09-09T11:59:29Z</time>
      </trkpt>
      <trkpt lat="42.87645" lon="2.35098">
        <ele>466</ele>
        <time>2023-09-09T11:59:30Z</time>
      </trkpt>
      <trkpt lat="42.87643" lon="2.35098">
        <ele>466</ele>
        <time>2023-09-09T11:59:31Z</time>
      </trkpt>
      <trkpt lat="42.8764" lon="2.35099">
        <ele>467</ele>
        <time>2023-09-09T11:59:32Z</time>
      </trkpt>
      <trkpt lat="42.87638" lon="2.351">
        <ele>467</ele>
        <time>2023-09-09T11:59:33Z</time>
      </trkpt>
      <trkpt lat="42.87635" lon="2.35102">
        <ele>467</ele>
        <time>2023-09-09T11:59:34Z</time>
      </trkpt>
      <trkpt lat="42.87633" lon="2.35103">
        <ele>467</ele>
        <time>2023-09-09T11:59:35Z</time>
      </trkpt>
      <trkpt lat="42.87631" lon="2.35105">
        <ele>467</ele>
        <time>2023-09-09T11:59:36Z</time>
      </trkpt>
      <trkpt lat="42.87629" lon="2.35107">
        <ele>468</ele>
        <time>2023-09-09T11:59:37Z</time>
      </trkpt>
      <trkpt lat="42.87628" lon="2.35109">
        <ele>468</ele>
        <time>2023-09-09T11:59:38Z</time>
      </trkpt>
      <trkpt lat="42.87626" lon="2.35111">
        <ele>468</ele>
        <time>2023-09-09T11:59:39Z</time>
      </trkpt>
      <trkpt lat="42.87624" lon="2.35114">
        <ele>468</ele>
        <time>2023-09-09T11:59:40Z</time>
      </trkpt>
      <trkpt lat="42.87623" lon="2.35116">
        <ele>468</ele>
        <time>2023-09-09T11:59:41Z</time>
      </trkpt>
      <trkpt lat="42.87621" lon="2.35118">
        <ele>469</ele>
        <time>2023-09-09T11:59:42Z</time>
      </trkpt>
      <trkpt lat="42.8762" lon="2.35121">
        <ele>469</ele>
        <time>2023-09-09T11:59:43Z</time>
      </trkpt>
      <trkpt lat="42.87619" lon="2.35123">
        <ele>469</ele>
        <time>2023-09-09T11:59:44Z</time>
      </trkpt>
      <trkpt lat="42.87617" lon="2.35126">
        <ele>469</ele>
        <time>2023-09-09T11:59:45Z</time>
      </trkpt>
      <trkpt lat="42.87616" lon="2.35129">
        <ele>469</ele>
        <time>2023-09-09T11:59:46Z</time>
      </trkpt>
      <trkpt lat="42.87614" lon="2.35131">
        <ele>469</ele>
        <time>2023-09-09T11:59:47Z</time>
      </trkpt>
      <trkpt lat="42.87613" lon="2.35134">
        <ele>469</ele>
        <time>2023-09-09T11:59:48Z</time>
      </trkpt>
      <trkpt lat="42.8761" lon="2.35137">
        <ele>469</ele>
        <time>2023-09-09T11:59:49Z</time>
      </trkpt>
      <trkpt lat="42.87607" lon="2.3514">
        <ele>469</ele>
        <time>2023-09-09T11:59:50Z</time>
      </trkpt>
    </trkseg>
  </trk>
</gpx>